
Distance (Route):
Temperature : -4.5°C
Humidity : 0%
Pressure : 0hPa| Receiver | Frames | First received | Last received |
|---|---|---|---|
| SQ6EMJ | 805 | 2026-09-05 15:58:25 | 2026-09-05 17:46:58 |
| OM5KV | 686 | 2026-09-05 16:22:47 | 2026-09-05 18:00:29 |
| SP6BVK | 333 | 2026-09-05 15:31:50 | 2026-09-05 18:06:45 |
| PETON7-10 | 327 | 2026-09-05 16:22:50 | 2026-09-05 18:03:24 |
| POL1PZ | 291 | 2026-09-05 16:06:29 | 2026-09-05 18:17:58 |
| SP3BTT-10 | 198 | 2026-09-05 15:32:08 | 2026-09-05 17:53:16 |
| OE5MMP-10 | 176 | 2026-09-05 16:46:01 | 2026-09-05 17:35:20 |
| OE3JTB-15 | 146 | 2026-09-05 15:56:15 | 2026-09-05 18:12:04 |
| 13BRC | 99 | 2026-09-05 15:29:57 | 2026-09-05 16:18:43 |
| OE5DRO-10 | 99 | 2026-09-05 16:43:19 | 2026-09-05 17:31:52 |
| OK1ALN | 44 | 2026-09-05 15:43:30 | 2026-09-05 16:41:45 |
| DB0NH | 32 | 2026-09-05 16:52:42 | 2026-09-05 17:27:37 |
| POL1PZ12 | 28 | 2026-09-05 17:43:54 | 2026-09-05 17:54:12 |
| DAC517 | 26 | 2026-09-05 15:33:16 | 2026-09-05 15:49:44 |
| SONDE2-11 | 18 | 2026-09-05 15:28:33 | 2026-09-05 17:44:06 |
| EDDB2-12 | 18 | 2026-09-05 15:31:02 | 2026-09-05 17:47:05 |
| NBG1-10 | 16 | 2026-09-05 16:48:15 | 2026-09-05 17:23:05 |
| SQ9EZE-14 | 10 | 2026-09-05 17:00:34 | 2026-09-05 17:26:49 |
| OE5DXL-15 | 10 | 2026-09-05 17:09:47 | 2026-09-05 17:23:00 |
| EDDB2-11 | 8 | 2026-09-05 15:31:40 | 2026-09-05 17:43:03 |
| DH8WE-5 | 5 | 2026-09-05 16:56:49 | 2026-09-05 17:04:18 |
| OK1SLM-15 | 3 | 2026-09-05 16:30:50 | 2026-09-05 17:13:24 |
| OE3OSB-13 | 2 | 2026-09-05 16:38:04 | 2026-09-05 17:07:02 |
| SP3WXH-11 | 1 | 2026-09-05 16:20:03 | 2026-09-05 16:20:03 |
| Receiver | Date | Latitude | Longitude | Direction | Speed | Altitude | Climb | Temperature | Humidity | Pressure | Voltage | Killtimer | Uptime | BKT | XDATA |
|---|---|---|---|---|---|---|---|---|---|---|---|---|---|---|---|
| POL1PZ | 2026-09-05 18:17:58 | 50.28387 | 19.13965 | 108° | 57km/h | 2923m | -4.3m/s | -4.5°C | 0% | 0hPa | 0V | 00:00:00 | 00:00:00 | 00:00:00 | |
| POL1PZ | 2026-09-05 18:17:30 | 50.28500 | 19.13300 | 108° | 62km/h | 3053m | -4.3m/s | -5.3°C | 0% | 0hPa | 0V | 00:00:00 | 00:00:00 | 00:00:00 | |
| POL1PZ | 2026-09-05 18:16:47 | 50.28677 | 19.12292 | 107° | 66km/h | 3222m | -3.6m/s | -6.6°C | 0% | 0hPa | 0V | 00:00:00 | 00:00:00 | 00:00:00 | |
| POL1PZ | 2026-09-05 18:16:23 | 50.28769 | 19.11748 | 110° | 60km/h | 3299m | -3.3m/s | -7.0°C | 0% | 0hPa | 0V | 00:00:00 | 00:00:00 | 00:00:00 | |
| POL1PZ | 2026-09-05 18:16:02 | 50.28851 | 19.11275 | 108° | 60km/h | 3366m | -3.3m/s | -7.4°C | 0% | 0hPa | 0V | 00:00:00 | 00:00:00 | 00:00:00 | |
| POL1PZ | 2026-09-05 18:15:41 | 50.28926 | 19.10792 | 103° | 55km/h | 3441m | -3.7m/s | -8.0°C | 0% | 0hPa | 0V | 00:00:00 | 00:00:00 | 00:00:00 | |
| POL1PZ | 2026-09-05 18:15:20 | 50.28981 | 19.10297 | 108° | 62km/h | 3514m | -4.0m/s | -8.6°C | 0% | 0hPa | 0V | 00:00:00 | 00:00:00 | 00:00:00 | |
| POL1PZ | 2026-09-05 18:15:00 | 50.29092 | 19.09812 | 111° | 69km/h | 3594m | -3.3m/s | -6.1°C | 0% | 0hPa | 0V | 00:00:00 | 00:00:00 | 00:00:00 | |
| POL1PZ | 2026-09-05 18:14:39 | 50.29203 | 19.09277 | 109° | 73km/h | 3663m | -3.4m/s | -5.4°C | 0% | 0hPa | 0V | 00:00:00 | 00:00:00 | 00:00:00 | |
| POL1PZ | 2026-09-05 18:14:18 | 50.29308 | 19.08703 | 103° | 73km/h | 3734m | -3.6m/s | -5.8°C | 0% | 0hPa | 0V | 00:00:00 | 00:00:00 | 00:00:00 | |
| POL1PZ | 2026-09-05 18:13:58 | 50.29399 | 19.08155 | 104° | 73km/h | 3804m | -3.6m/s | -6.2°C | 0% | 0hPa | 0V | 00:00:00 | 00:00:00 | 00:00:00 | |
| POL1PZ | 2026-09-05 18:13:37 | 50.29504 | 19.07589 | 107° | 71km/h | 3881m | -3.7m/s | -6.9°C | 0% | 0hPa | 0V | 00:00:00 | 00:00:00 | 00:00:00 | |
| POL1PZ | 2026-09-05 18:13:16 | 50.29630 | 19.07019 | 112° | 73km/h | 3958m | -3.8m/s | -7.4°C | 0% | 0hPa | 0V | 00:00:00 | 00:00:00 | 00:00:00 | |
| POL1PZ | 2026-09-05 18:12:56 | 50.29767 | 19.06462 | 113° | 78km/h | 4033m | -3.8m/s | -8.1°C | 0% | 0hPa | 0V | 00:00:00 | 00:00:00 | 00:00:00 | |
| POL1PZ | 2026-09-05 18:12:35 | 50.29923 | 19.05876 | 117° | 75km/h | 4115m | -4.1m/s | -8.6°C | 0% | 0hPa | 0V | 00:00:00 | 00:00:00 | 00:00:00 | |
| POL1PZ | 2026-09-05 18:12:15 | 50.30081 | 19.05311 | 115° | 73km/h | 4202m | -5.1m/s | -8.9°C | 0% | 0hPa | 0V | 00:00:00 | 00:00:00 | 00:00:00 | |
| OE3JTB-15 | 2026-09-05 18:12:04 | 50.30169 | 19.04984 | 113° | 82km/h | 4256m | -4.6m/s | 0°C | 0% | 0hPa | 0V | 00:00:00 | 00:00:00 | 00:00:00 | |
| POL1PZ | 2026-09-05 18:11:54 | 50.30232 | 19.04685 | 111° | 84km/h | 4304m | -4.8m/s | -9.8°C | 0% | 0hPa | 0V | 00:00:00 | 00:00:00 | 00:00:00 | |
| POL1PZ | 2026-09-05 18:11:35 | 50.30364 | 19.04084 | 116° | 78km/h | 4401m | -4.7m/s | -10.6°C | 0% | 0hPa | 0V | 00:00:00 | 00:00:00 | 00:00:00 | |
| OE3JTB-15 | 2026-09-05 18:11:29 | 50.30392 | 19.03935 | 119° | 80km/h | 4428m | -3.6m/s | 0°C | 0% | 0hPa | 0V | 00:00:00 | 00:00:00 | 00:00:00 | |
| POL1PZ | 2026-09-05 18:11:13 | 50.30506 | 19.03448 | 101° | 80km/h | 4483m | -3.5m/s | -11.4°C | 0% | 0hPa | 0V | 00:00:00 | 00:00:00 | 00:00:00 | |
| OE3JTB-15 | 2026-09-05 18:10:59 | 50.30603 | 19.03036 | 116° | 80km/h | 4534m | -3.5m/s | 0°C | 0% | 0hPa | 0V | 00:00:00 | 00:00:00 | 00:00:00 | |
| POL1PZ | 2026-09-05 18:10:53 | 50.30647 | 19.02858 | 113° | 66km/h | 4556m | -3.6m/s | -12.1°C | 0% | 0hPa | 0V | 00:00:00 | 00:00:00 | 00:00:00 | |
| POL1PZ | 2026-09-05 18:10:32 | 50.30798 | 19.02245 | 115° | 91km/h | 4633m | -3.6m/s | -12.8°C | 0% | 0hPa | 0V | 00:00:00 | 00:00:00 | 00:00:00 | |
| OE3JTB-15 | 2026-09-05 18:10:30 | 50.30810 | 19.02179 | 100° | 78km/h | 4648m | -3.6m/s | 0°C | 0% | 0hPa | 0V | 00:00:00 | 00:00:00 | 00:00:00 | |
| POL1PZ | 2026-09-05 18:10:12 | 50.30931 | 19.01652 | 102° | 82km/h | 4707m | -3.6m/s | -13.5°C | 0% | 0hPa | 0V | 00:00:00 | 00:00:00 | 00:00:00 | |
| OE3JTB-15 | 2026-09-05 18:10:01 | 50.31008 | 19.01327 | 102° | 82km/h | 4752m | -3.5m/s | 0°C | 0% | 0hPa | 0V | 00:00:00 | 00:00:00 | 00:00:00 | |
| POL1PZ | 2026-09-05 18:09:52 | 50.31074 | 19.01032 | 120° | 78km/h | 4785m | -3.7m/s | -14.1°C | 0% | 0hPa | 0V | 00:00:00 | 00:00:00 | 00:00:00 | |
| OE3JTB-15 | 2026-09-05 18:09:32 | 50.31213 | 19.00451 | 119° | 86km/h | 4858m | -3.6m/s | 0°C | 0% | 0hPa | 0V | 00:00:00 | 00:00:00 | 00:00:00 | |
| POL1PZ | 2026-09-05 18:09:31 | 50.31223 | 19.00419 | 115° | 95km/h | 4858m | -3.6m/s | -14.8°C | 0% | 0hPa | 0V | 00:00:00 | 00:00:00 | 00:00:00 | |
| POL1PZ | 2026-09-05 18:09:10 | 50.31375 | 18.99762 | 104° | 78km/h | 4934m | -3.5m/s | -15.5°C | 0% | 0hPa | 0V | 00:00:00 | 00:00:00 | 00:00:00 | |
| OE3JTB-15 | 2026-09-05 18:09:03 | 50.31425 | 18.99547 | 118° | 86km/h | 4963m | -3.4m/s | 0°C | 0% | 0hPa | 0V | 00:00:00 | 00:00:00 | 00:00:00 | |
| POL1PZ | 2026-09-05 18:08:50 | 50.31522 | 18.99139 | 115° | 75km/h | 5004m | -3.2m/s | -16.2°C | 0% | 0hPa | 0V | 00:00:00 | 00:00:00 | 00:00:00 | |
| OE3JTB-15 | 2026-09-05 18:08:34 | 50.31640 | 18.98617 | 105° | 89km/h | 5062m | -3.6m/s | 0°C | 0% | 0hPa | 0V | 00:00:00 | 00:00:00 | 00:00:00 | |
| POL1PZ | 2026-09-05 18:08:29 | 50.31677 | 18.98458 | 113° | 100km/h | 5077m | -3.5m/s | -16.8°C | 0% | 0hPa | 0V | 00:00:00 | 00:00:00 | 00:00:00 | |
| POL1PZ | 2026-09-05 18:08:08 | 50.31828 | 18.97750 | 103° | 82km/h | 5149m | -3.4m/s | -17.5°C | 0% | 0hPa | 0V | 00:00:00 | 00:00:00 | 00:00:00 | |
| OE3JTB-15 | 2026-09-05 18:08:05 | 50.31852 | 18.97658 | 108° | 91km/h | 5163m | -3.3m/s | 0°C | 0% | 0hPa | 0V | 00:00:00 | 00:00:00 | 00:00:00 | |
| POL1PZ | 2026-09-05 18:07:48 | 50.31970 | 18.97076 | 114° | 82km/h | 5217m | -3.3m/s | -18.1°C | 0% | 0hPa | 0V | 00:00:00 | 00:00:00 | 00:00:00 | |
| OE3JTB-15 | 2026-09-05 18:07:36 | 50.32057 | 18.96659 | 112° | 97km/h | 5260m | -3.1m/s | 0°C | 0% | 0hPa | 0V | 00:00:00 | 00:00:00 | 00:00:00 | |
| POL1PZ | 2026-09-05 18:07:27 | 50.32136 | 18.96341 | 111° | 106km/h | 5286m | -3.3m/s | -18.5°C | 0% | 0hPa | 0V | 00:00:00 | 00:00:00 | 00:00:00 | |
| OE3JTB-15 | 2026-09-05 18:07:07 | 50.32312 | 18.95629 | 108° | 100km/h | 5354m | -3.2m/s | 0°C | 0% | 0hPa | 0V | 00:00:00 | 00:00:00 | 00:00:00 | |
| POL1PZ | 2026-09-05 18:06:46 | 50.32518 | 18.94885 | 117° | 93km/h | 5418m | -3.1m/s | -18.6°C | 0% | 0hPa | 0V | 00:00:00 | 00:00:00 | 00:00:00 | |
| SP6BVK | 2026-09-05 18:06:45 | 50.32530 | 18.94851 | 121° | 102km/h | 5421m | -3.0m/s | -18.6°C | 0% | 0hPa | 0V | 00:00:00 | 00:00:00 | 00:00:00 | |
| OE3JTB-15 | 2026-09-05 18:06:38 | 50.32608 | 18.94586 | 120° | 113km/h | 5446m | -3.0m/s | 0°C | 0% | 0hPa | 0V | 00:00:00 | 00:00:00 | 00:00:00 | |
| POL1PZ | 2026-09-05 18:06:26 | 50.32740 | 18.94106 | 120° | 108km/h | 5479m | -3.0m/s | -18.2°C | 0% | 0hPa | 0V | 00:00:00 | 00:00:00 | 00:00:00 | |
| SP6BVK | 2026-09-05 18:06:25 | 50.32766 | 18.94023 | 115° | 124km/h | 5485m | -3.0m/s | -18.2°C | 0% | 0hPa | 0V | 00:00:00 | 00:00:00 | 00:00:00 | |
| OE3JTB-15 | 2026-09-05 18:06:09 | 50.32924 | 18.93389 | 106° | 111km/h | 5533m | -3.0m/s | 0°C | 0% | 0hPa | 0V | 00:00:00 | 00:00:00 | 00:00:00 | |
| POL1PZ | 2026-09-05 18:06:05 | 50.32964 | 18.93230 | 116° | 119km/h | 5542m | -3.1m/s | -18.2°C | 0% | 0hPa | 0V | 00:00:00 | 00:00:00 | 00:00:00 | |
| SP6BVK | 2026-09-05 18:05:46 | 50.33154 | 18.92406 | 115° | 119km/h | 5603m | -3.1m/s | -18.3°C | 0% | 0hPa | 0V | 00:00:00 | 00:00:00 | 00:00:00 | |
| POL1PZ | 2026-09-05 18:05:45 | 50.33154 | 18.92406 | 115° | 119km/h | 5603m | -3.1m/s | -18.3°C | 0% | 0hPa | 0V | 00:00:00 | 00:00:00 | 00:00:00 | |
| OE3JTB-15 | 2026-09-05 18:05:40 | 50.33200 | 18.92193 | 114° | 115km/h | 5621m | -3.1m/s | 0°C | 0% | 0hPa | 0V | 00:00:00 | 00:00:00 | 00:00:00 | |
| POL1PZ | 2026-09-05 18:05:24 | 50.33370 | 18.91520 | 111° | 124km/h | 5666m | -3.2m/s | -18.6°C | 0% | 0hPa | 0V | 00:00:00 | 00:00:00 | 00:00:00 | |
| OE3JTB-15 | 2026-09-05 18:05:11 | 50.33506 | 18.90960 | 110° | 120km/h | 5709m | -3.0m/s | 0°C | 0% | 0hPa | 0V | 00:00:00 | 00:00:00 | 00:00:00 | |
| POL1PZ | 2026-09-05 18:05:04 | 50.33578 | 18.90651 | 108° | 126km/h | 5728m | -3.1m/s | -18.9°C | 0% | 0hPa | 0V | 00:00:00 | 00:00:00 | 00:00:00 | |
| SP6BVK | 2026-09-05 18:04:48 | 50.33746 | 18.89946 | 116° | 113km/h | 5777m | -3.2m/s | -19.1°C | 0% | 0hPa | 0V | 00:00:00 | 00:00:00 | 00:00:00 | |
| POL1PZ | 2026-09-05 18:04:43 | 50.33802 | 18.89718 | 109° | 113km/h | 5793m | -3.1m/s | -19.2°C | 0% | 0hPa | 0V | 00:00:00 | 00:00:00 | 00:00:00 | |
| OE3JTB-15 | 2026-09-05 18:04:42 | 50.33812 | 18.89676 | 114° | 122km/h | 5799m | -3.0m/s | 0°C | 0% | 0hPa | 0V | 00:00:00 | 00:00:00 | 00:00:00 | |
| SP6BVK | 2026-09-05 18:04:27 | 50.33998 | 18.88955 | 111° | 131km/h | 5846m | -3.2m/s | -19.6°C | 0% | 0hPa | 0V | 00:00:00 | 00:00:00 | 00:00:00 | |
| POL1PZ | 2026-09-05 18:04:23 | 50.34028 | 18.88819 | 113° | 113km/h | 5856m | -3.2m/s | -19.7°C | 0% | 0hPa | 0V | 00:00:00 | 00:00:00 | 00:00:00 | |
| OE3JTB-15 | 2026-09-05 18:04:13 | 50.34147 | 18.88367 | 111° | 126km/h | 5891m | -3.1m/s | 0°C | 0% | 0hPa | 0V | 00:00:00 | 00:00:00 | 00:00:00 | |
| OE3JTB-15 | 2026-09-05 18:03:44 | 50.34482 | 18.87031 | 108° | 133km/h | 5985m | -3.3m/s | 0°C | 0% | 0hPa | 0V | 00:00:00 | 00:00:00 | 00:00:00 | |
| POL1PZ | 2026-09-05 18:03:42 | 50.34502 | 18.86935 | 109° | 126km/h | 5989m | -3.3m/s | -20.5°C | 0% | 0hPa | 0V | 00:00:00 | 00:00:00 | 00:00:00 | |
| PETON7-10 | 2026-09-05 18:03:24 | 50.34704 | 18.86049 | 108° | 137km/h | 6058m | -3.5m/s | 0°C | 0% | 0hPa | 0V | 00:00:00 | 00:00:00 | 00:00:00 | |
| POL1PZ | 2026-09-05 18:03:22 | 50.34738 | 18.85903 | 112° | 133km/h | 6061m | -3.5m/s | -20.9°C | 0% | 0hPa | 0V | 00:00:00 | 00:00:00 | 00:00:00 | |
| SP6BVK | 2026-09-05 18:03:21 | 50.34738 | 18.85903 | 112° | 133km/h | 6061m | -3.5m/s | -20.9°C | 0% | 0hPa | 0V | 00:00:00 | 00:00:00 | 00:00:00 | |
| OE3JTB-15 | 2026-09-05 18:03:15 | 50.34810 | 18.85591 | 108° | 141km/h | 6086m | -3.5m/s | 0°C | 0% | 0hPa | 0V | 00:00:00 | 00:00:00 | 00:00:00 | |
| SP6BVK | 2026-09-05 18:03:01 | 50.34978 | 18.84810 | 111° | 144km/h | 6136m | -3.7m/s | -21.3°C | 0% | 0hPa | 0V | 00:00:00 | 00:00:00 | 00:00:00 | |
| POL1PZ | 2026-09-05 18:03:00 | 50.34978 | 18.84810 | 111° | 144km/h | 6136m | -3.7m/s | -21.3°C | 0% | 0hPa | 0V | 00:00:00 | 00:00:00 | 00:00:00 | |
| OE3JTB-15 | 2026-09-05 18:02:46 | 50.35130 | 18.84066 | 107° | 141km/h | 6190m | -3.7m/s | 0°C | 0% | 0hPa | 0V | 00:00:00 | 00:00:00 | 00:00:00 | |
| SP6BVK | 2026-09-05 18:02:41 | 50.35194 | 18.83758 | 110° | 142km/h | 6209m | -3.7m/s | -21.8°C | 0% | 0hPa | 0V | 00:00:00 | 00:00:00 | 00:00:00 | |
| POL1PZ | 2026-09-05 18:02:40 | 50.35194 | 18.83758 | 110° | 142km/h | 6209m | -3.7m/s | -21.8°C | 0% | 0hPa | 0V | 00:00:00 | 00:00:00 | 00:00:00 | |
| SP6BVK | 2026-09-05 18:02:20 | 50.35415 | 18.82630 | 107° | 137km/h | 6287m | -3.8m/s | -22.3°C | 0% | 0hPa | 0V | 00:00:00 | 00:00:00 | 00:00:00 | |
| POL1PZ | 2026-09-05 18:02:19 | 50.35415 | 18.82630 | 107° | 137km/h | 6287m | -3.8m/s | -22.3°C | 0% | 0hPa | 0V | 00:00:00 | 00:00:00 | 00:00:00 | |
| OE3JTB-15 | 2026-09-05 18:02:17 | 50.35436 | 18.82526 | 109° | 139km/h | 6298m | -3.7m/s | 0°C | 0% | 0hPa | 0V | 00:00:00 | 00:00:00 | 00:00:00 | |
| POL1PZ | 2026-09-05 18:01:59 | 50.35630 | 18.81570 | 109° | 144km/h | 6363m | -4.0m/s | -22.8°C | 0% | 0hPa | 0V | 00:00:00 | 00:00:00 | 00:00:00 | |
| POL1PZ | 2026-09-05 18:01:38 | 50.35845 | 18.80454 | 106° | 137km/h | 6444m | -3.9m/s | -23.4°C | 0% | 0hPa | 0V | 00:00:00 | 00:00:00 | 00:00:00 | |
| POL1PZ | 2026-09-05 18:01:18 | 50.36042 | 18.79413 | 109° | 137km/h | 6523m | -4.0m/s | -24.1°C | 0% | 0hPa | 0V | 00:00:00 | 00:00:00 | 00:00:00 | |
| SP6BVK | 2026-09-05 18:00:58 | 50.36243 | 18.78313 | 108° | 137km/h | 6605m | -4.0m/s | -24.7°C | 0% | 0hPa | 0V | 00:00:00 | 00:00:00 | 00:00:00 | |
| POL1PZ | 2026-09-05 18:00:57 | 50.36243 | 18.78313 | 108° | 137km/h | 6605m | -4.0m/s | -24.7°C | 0% | 0hPa | 0V | 00:00:00 | 00:00:00 | 00:00:00 | |
| OE3JTB-15 | 2026-09-05 18:00:46 | 50.36344 | 18.77728 | 104° | 137km/h | 6652m | -3.8m/s | 0°C | 0% | 0hPa | 0V | 00:00:00 | 00:00:00 | 00:00:00 | |
| POL1PZ | 2026-09-05 18:00:37 | 50.36428 | 18.77262 | 107° | 139km/h | 6683m | -3.8m/s | -25.4°C | 0% | 0hPa | 0V | 00:00:00 | 00:00:00 | 00:00:00 | |
| SP6BVK | 2026-09-05 18:00:36 | 50.36438 | 18.77209 | 106° | 141km/h | 6687m | -3.9m/s | -25.4°C | 0% | 0hPa | 0V | 00:00:00 | 00:00:00 | 00:00:00 | |
| PETON7-10 | 2026-09-05 18:00:35 | 50.36447 | 18.77154 | 105° | 135km/h | 6695m | -3.8m/s | 0°C | 0% | 0hPa | 0V | 00:00:00 | 00:00:00 | 00:00:00 | |
| OM5KV | 2026-09-05 18:00:29 | 50.36497 | 18.76838 | 105° | 135km/h | 6714m | -3.9m/s | -25.7°C | 0% | 0hPa | 0V | 00:00:00 | 00:00:00 | 00:00:00 | |
| OM5KV | 2026-09-05 18:00:24 | 50.36542 | 18.76584 | 108° | 135km/h | 6733m | -3.9m/s | -25.8°C | 0% | 0hPa | 0V | 00:00:00 | 00:00:00 | 00:00:00 | |
| PETON7-10 | 2026-09-05 18:00:20 | 50.36582 | 18.76375 | 106° | 137km/h | 6752m | -3.8m/s | 0°C | 0% | 0hPa | 0V | 00:00:00 | 00:00:00 | 00:00:00 | |
| OE3JTB-15 | 2026-09-05 18:00:17 | 50.36610 | 18.76215 | 105° | 137km/h | 6763m | -3.8m/s | 0°C | 0% | 0hPa | 0V | 00:00:00 | 00:00:00 | 00:00:00 | |
| POL1PZ | 2026-09-05 18:00:16 | 50.36618 | 18.76162 | 105° | 137km/h | 6763m | -3.8m/s | -26.1°C | 0% | 0hPa | 0V | 00:00:00 | 00:00:00 | 00:00:00 | |
| SP6BVK | 2026-09-05 18:00:15 | 50.36626 | 18.76110 | 105° | 135km/h | 6767m | -3.9m/s | -26.1°C | 0% | 0hPa | 0V | 00:00:00 | 00:00:00 | 00:00:00 | |
| OM5KV | 2026-09-05 18:00:12 | 50.36651 | 18.75956 | 106° | 131km/h | 6778m | -3.8m/s | -26.2°C | 0% | 0hPa | 0V | 00:00:00 | 00:00:00 | 00:00:00 | |
| OM5KV | 2026-09-05 18:00:07 | 50.36700 | 18.75699 | 107° | 139km/h | 6798m | -3.9m/s | -26.3°C | 0% | 0hPa | 0V | 00:00:00 | 00:00:00 | 00:00:00 | |
| PETON7-10 | 2026-09-05 18:00:04 | 50.36729 | 18.75538 | 106° | 139km/h | 6813m | -3.9m/s | 0°C | 0% | 0hPa | 0V | 00:00:00 | 00:00:00 | 00:00:00 | |
| OM5KV | 2026-09-05 17:59:57 | 50.36795 | 18.75109 | 105° | 135km/h | 6840m | -3.9m/s | -26.6°C | 0% | 0hPa | 0V | 00:00:00 | 00:00:00 | 00:00:00 | |
| POL1PZ | 2026-09-05 17:59:56 | 50.36795 | 18.75109 | 105° | 135km/h | 6840m | -3.9m/s | -26.6°C | 0% | 0hPa | 0V | 00:00:00 | 00:00:00 | 00:00:00 | |
| OM5KV | 2026-09-05 17:59:50 | 50.36849 | 18.74791 | 106° | 142km/h | 6862m | -3.9m/s | -26.7°C | 0% | 0hPa | 0V | 00:00:00 | 00:00:00 | 00:00:00 | |
| PETON7-10 | 2026-09-05 17:59:49 | 50.36858 | 18.74736 | 105° | 144km/h | 6870m | -3.8m/s | 0°C | 0% | 0hPa | 0V | 00:00:00 | 00:00:00 | 00:00:00 | |
| OE3JTB-15 | 2026-09-05 17:59:48 | 50.36867 | 18.74681 | 105° | 146km/h | 6874m | -3.9m/s | 0°C | 0% | 0hPa | 0V | 00:00:00 | 00:00:00 | 00:00:00 | |
| OM5KV | 2026-09-05 17:59:44 | 50.36902 | 18.74456 | 103° | 144km/h | 6886m | -3.9m/s | -26.8°C | 0% | 0hPa | 0V | 00:00:00 | 00:00:00 | 00:00:00 | |
| OM5KV | 2026-09-05 17:59:43 | 50.36909 | 18.74400 | 103° | 142km/h | 6890m | -3.9m/s | -26.9°C | 0% | 0hPa | 0V | 00:00:00 | 00:00:00 | 00:00:00 | |
| OM5KV | 2026-09-05 17:59:39 | 50.36940 | 18.74182 | 104° | 141km/h | 6906m | -3.9m/s | -27.0°C | 0% | 0hPa | 0V | 00:00:00 | 00:00:00 | 00:00:00 | |
| OM5KV | 2026-09-05 17:59:38 | 50.36958 | 18.74073 | 106° | 142km/h | 6914m | -3.8m/s | -27.0°C | 0% | 0hPa | 0V | 00:00:00 | 00:00:00 | 00:00:00 | |
| POL1PZ | 2026-09-05 17:59:35 | 50.36977 | 18.73963 | 107° | 144km/h | 6921m | -4.0m/s | -27.0°C | 0% | 0hPa | 0V | 00:00:00 | 00:00:00 | 00:00:00 | |
| OM5KV | 2026-09-05 17:59:34 | 50.36997 | 18.73851 | 106° | 148km/h | 6929m | -3.9m/s | -27.1°C | 0% | 0hPa | 0V | 00:00:00 | 00:00:00 | 00:00:00 | |
| SP6BVK | 2026-09-05 17:59:33 | 50.36997 | 18.73851 | 106° | 148km/h | 6929m | -3.9m/s | -27.1°C | 0% | 0hPa | 0V | 00:00:00 | 00:00:00 | 00:00:00 | |
| OM5KV | 2026-09-05 17:59:31 | 50.37017 | 18.73737 | 106° | 151km/h | 6937m | -3.8m/s | -27.1°C | 0% | 0hPa | 0V | 00:00:00 | 00:00:00 | 00:00:00 | |
| OM5KV | 2026-09-05 17:59:28 | 50.37045 | 18.73562 | 105° | 150km/h | 6949m | -4.0m/s | -27.1°C | 0% | 0hPa | 0V | 00:00:00 | 00:00:00 | 00:00:00 | |
| OM5KV | 2026-09-05 17:59:26 | 50.37063 | 18.73448 | 104° | 148km/h | 6956m | -4.0m/s | -27.2°C | 0% | 0hPa | 0V | 00:00:00 | 00:00:00 | 00:00:00 | |
| OM5KV | 2026-09-05 17:59:22 | 50.37098 | 18.73224 | 106° | 144km/h | 6972m | -3.9m/s | -27.3°C | 0% | 0hPa | 0V | 00:00:00 | 00:00:00 | 00:00:00 | |
| OM5KV | 2026-09-05 17:59:21 | 50.37117 | 18.73114 | 106° | 144km/h | 6980m | -3.8m/s | -27.3°C | 0% | 0hPa | 0V | 00:00:00 | 00:00:00 | 00:00:00 | |
| PETON7-10 | 2026-09-05 17:59:19 | 50.37127 | 18.73059 | 106° | 148km/h | 6988m | -3.9m/s | 0°C | 0% | 0hPa | 0V | 00:00:00 | 00:00:00 | 00:00:00 | |
| OM5KV | 2026-09-05 17:59:17 | 50.37157 | 18.72892 | 107° | 148km/h | 6996m | -3.9m/s | -27.5°C | 0% | 0hPa | 0V | 00:00:00 | 00:00:00 | 00:00:00 | |
| POL1PZ | 2026-09-05 17:59:15 | 50.37168 | 18.72836 | 107° | 150km/h | 7000m | -3.8m/s | -27.5°C | 0% | 0hPa | 0V | 00:00:00 | 00:00:00 | 00:00:00 | |
| OM5KV | 2026-09-05 17:59:14 | 50.37178 | 18.72779 | 107° | 151km/h | 7003m | -3.8m/s | -27.6°C | 0% | 0hPa | 0V | 00:00:00 | 00:00:00 | 00:00:00 | |
| SP6BVK | 2026-09-05 17:59:13 | 50.37189 | 18.72721 | 106° | 151km/h | 7007m | -3.9m/s | -27.6°C | 0% | 0hPa | 0V | 00:00:00 | 00:00:00 | 00:00:00 | |
| OM5KV | 2026-09-05 17:59:07 | 50.37243 | 18.72376 | 104° | 146km/h | 7031m | -3.9m/s | -27.8°C | 0% | 0hPa | 0V | 00:00:00 | 00:00:00 | 00:00:00 | |
| OM5KV | 2026-09-05 17:59:05 | 50.37261 | 18.72264 | 105° | 144km/h | 7039m | -4.0m/s | -27.9°C | 0% | 0hPa | 0V | 00:00:00 | 00:00:00 | 00:00:00 | |
| PETON7-10 | 2026-09-05 17:59:04 | 50.37270 | 18.72208 | 105° | 148km/h | 7047m | -3.8m/s | 0°C | 0% | 0hPa | 0V | 00:00:00 | 00:00:00 | 00:00:00 | |
| OM5KV | 2026-09-05 17:59:01 | 50.37299 | 18.72042 | 107° | 146km/h | 7054m | -3.9m/s | -28.0°C | 0% | 0hPa | 0V | 00:00:00 | 00:00:00 | 00:00:00 | |
| OM5KV | 2026-09-05 17:59:00 | 50.37308 | 18.71987 | 107° | 146km/h | 7058m | -4.0m/s | -28.1°C | 0% | 0hPa | 0V | 00:00:00 | 00:00:00 | 00:00:00 | |
| OM5KV | 2026-09-05 17:58:56 | 50.37349 | 18.71762 | 107° | 150km/h | 7074m | -3.9m/s | -28.2°C | 0% | 0hPa | 0V | 00:00:00 | 00:00:00 | 00:00:00 | |
| OM5KV | 2026-09-05 17:58:55 | 50.37370 | 18.71647 | 106° | 151km/h | 7082m | -3.9m/s | -28.3°C | 0% | 0hPa | 0V | 00:00:00 | 00:00:00 | 00:00:00 | |
| POL1PZ | 2026-09-05 17:58:54 | 50.37370 | 18.71647 | 106° | 151km/h | 7082m | -3.9m/s | -28.3°C | 0% | 0hPa | 0V | 00:00:00 | 00:00:00 | 00:00:00 | |
| SP6BVK | 2026-09-05 17:58:53 | 50.37389 | 18.71531 | 105° | 151km/h | 7090m | -3.9m/s | -28.3°C | 0% | 0hPa | 0V | 00:00:00 | 00:00:00 | 00:00:00 | |
| OM5KV | 2026-09-05 17:58:50 | 50.37407 | 18.71415 | 104° | 150km/h | 7098m | -3.8m/s | -28.4°C | 0% | 0hPa | 0V | 00:00:00 | 00:00:00 | 00:00:00 | |
| PETON7-10 | 2026-09-05 17:58:49 | 50.37416 | 18.71357 | 104° | 151km/h | 7105m | -3.9m/s | 0°C | 0% | 0hPa | 0V | 00:00:00 | 00:00:00 | 00:00:00 | |
| OM5KV | 2026-09-05 17:58:48 | 50.37424 | 18.71300 | 104° | 148km/h | 7105m | -4.0m/s | -28.5°C | 0% | 0hPa | 0V | 00:00:00 | 00:00:00 | 00:00:00 | |
| OM5KV | 2026-09-05 17:58:44 | 50.37460 | 18.71075 | 106° | 146km/h | 7120m | -3.8m/s | -28.5°C | 0% | 0hPa | 0V | 00:00:00 | 00:00:00 | 00:00:00 | |
| OM5KV | 2026-09-05 17:58:38 | 50.37523 | 18.70730 | 107° | 153km/h | 7143m | -3.9m/s | -28.5°C | 0% | 0hPa | 0V | 00:00:00 | 00:00:00 | 00:00:00 | |
| PETON7-10 | 2026-09-05 17:58:34 | 50.37564 | 18.70492 | 105° | 155km/h | 7162m | -3.8m/s | 0°C | 0% | 0hPa | 0V | 00:00:00 | 00:00:00 | 00:00:00 | |
| OM5KV | 2026-09-05 17:58:32 | 50.37585 | 18.70372 | 106° | 157km/h | 7166m | -3.9m/s | -28.6°C | 0% | 0hPa | 0V | 00:00:00 | 00:00:00 | 00:00:00 | |
| OM5KV | 2026-09-05 17:58:29 | 50.37613 | 18.70190 | 104° | 157km/h | 7178m | -4.0m/s | -28.6°C | 0% | 0hPa | 0V | 00:00:00 | 00:00:00 | 00:00:00 | |
| OM5KV | 2026-09-05 17:58:27 | 50.37641 | 18.70013 | 105° | 153km/h | 7190m | -3.9m/s | -28.7°C | 0% | 0hPa | 0V | 00:00:00 | 00:00:00 | 00:00:00 | |
| PETON7-10 | 2026-09-05 17:58:19 | 50.37716 | 18.69602 | 108° | 162km/h | 7225m | -3.8m/s | 0°C | 0% | 0hPa | 0V | 00:00:00 | 00:00:00 | 00:00:00 | |
| OM5KV | 2026-09-05 17:58:14 | 50.37774 | 18.69294 | 106° | 162km/h | 7236m | -4.0m/s | -28.6°C | 0% | 0hPa | 0V | 00:00:00 | 00:00:00 | 00:00:00 | |
| POL1PZ | 2026-09-05 17:58:13 | 50.37784 | 18.69232 | 106° | 161km/h | 7240m | -3.8m/s | -28.7°C | 0% | 0hPa | 0V | 00:00:00 | 00:00:00 | 00:00:00 | |
| SP6BVK | 2026-09-05 17:58:12 | 50.37806 | 18.69111 | 106° | 159km/h | 7248m | -3.7m/s | -28.6°C | 0% | 0hPa | 0V | 00:00:00 | 00:00:00 | 00:00:00 | |
| OM5KV | 2026-09-05 17:58:10 | 50.37828 | 18.68991 | 108° | 159km/h | 7255m | -3.7m/s | -28.6°C | 0% | 0hPa | 0V | 00:00:00 | 00:00:00 | 00:00:00 | |
| OM5KV | 2026-09-05 17:58:08 | 50.37841 | 18.68930 | 109° | 162km/h | 7259m | -3.6m/s | -28.5°C | 0% | 0hPa | 0V | 00:00:00 | 00:00:00 | 00:00:00 | |
| PETON7-10 | 2026-09-05 17:58:04 | 50.37893 | 18.68680 | 106° | 164km/h | 7278m | -3.8m/s | 0°C | 0% | 0hPa | 0V | 00:00:00 | 00:00:00 | 00:00:00 | |
| OM5KV | 2026-09-05 17:58:03 | 50.37905 | 18.68618 | 107° | 168km/h | 7278m | -3.9m/s | -28.7°C | 0% | 0hPa | 0V | 00:00:00 | 00:00:00 | 00:00:00 | |
| OM5KV | 2026-09-05 17:58:02 | 50.37917 | 18.68553 | 107° | 168km/h | 7281m | -3.8m/s | -28.7°C | 0% | 0hPa | 0V | 00:00:00 | 00:00:00 | 00:00:00 | |
| OM5KV | 2026-09-05 17:57:56 | 50.37988 | 18.68185 | 110° | 166km/h | 7304m | -3.8m/s | -28.9°C | 0% | 0hPa | 0V | 00:00:00 | 00:00:00 | 00:00:00 | |
| OM5KV | 2026-09-05 17:57:55 | 50.38001 | 18.68123 | 110° | 164km/h | 7308m | -3.7m/s | -28.9°C | 0% | 0hPa | 0V | 00:00:00 | 00:00:00 | 00:00:00 | |
| POL1PZ | 2026-09-05 17:57:52 | 50.38038 | 18.67941 | 106° | 164km/h | 7319m | -3.7m/s | -29.0°C | 0% | 0hPa | 0V | 00:00:00 | 00:00:00 | 00:00:00 | |
| SP6BVK | 2026-09-05 17:57:51 | 50.38049 | 18.67877 | 107° | 172km/h | 7323m | -3.8m/s | -29.0°C | 0% | 0hPa | 0V | 00:00:00 | 00:00:00 | 00:00:00 | |
| OM5KV | 2026-09-05 17:57:50 | 50.38062 | 18.67812 | 109° | 175km/h | 7327m | -3.7m/s | -29.0°C | 0% | 0hPa | 0V | 00:00:00 | 00:00:00 | 00:00:00 | |
| PETON7-10 | 2026-09-05 17:57:49 | 50.38077 | 18.67747 | 111° | 166km/h | 7330m | -3.7m/s | 0°C | 0% | 0hPa | 0V | 00:00:00 | 00:00:00 | 00:00:00 | |
| OM5KV | 2026-09-05 17:57:44 | 50.38140 | 18.67436 | 109° | 177km/h | 7349m | -3.6m/s | -29.1°C | 0% | 0hPa | 0V | 00:00:00 | 00:00:00 | 00:00:00 | |
| OM5KV | 2026-09-05 17:57:43 | 50.38155 | 18.67371 | 112° | 172km/h | 7353m | -3.7m/s | -29.2°C | 0% | 0hPa | 0V | 00:00:00 | 00:00:00 | 00:00:00 | |
| OM5KV | 2026-09-05 17:57:38 | 50.38220 | 18.67058 | 109° | 177km/h | 7371m | -3.7m/s | -29.3°C | 0% | 0hPa | 0V | 00:00:00 | 00:00:00 | 00:00:00 | |
| OM5KV | 2026-09-05 17:57:37 | 50.38235 | 18.66992 | 112° | 172km/h | 7375m | -3.8m/s | -29.3°C | 0% | 0hPa | 0V | 00:00:00 | 00:00:00 | 00:00:00 | |
| PETON7-10 | 2026-09-05 17:57:34 | 50.38275 | 18.66810 | 105° | 164km/h | 7387m | -3.7m/s | 0°C | 0% | 0hPa | 0V | 00:00:00 | 00:00:00 | 00:00:00 | |
| POL1PZ | 2026-09-05 17:57:32 | 50.38299 | 18.66679 | 110° | 177km/h | 7394m | -3.8m/s | -29.5°C | 0% | 0hPa | 0V | 00:00:00 | 00:00:00 | 00:00:00 | |
| SP6BVK | 2026-09-05 17:57:31 | 50.38330 | 18.66553 | 112° | 161km/h | 7402m | -3.7m/s | -29.5°C | 0% | 0hPa | 0V | 00:00:00 | 00:00:00 | 00:00:00 | |
| OM5KV | 2026-09-05 17:57:26 | 50.38378 | 18.66299 | 110° | 177km/h | 7417m | -3.8m/s | -29.6°C | 0% | 0hPa | 0V | 00:00:00 | 00:00:00 | 00:00:00 | |
| OM5KV | 2026-09-05 17:57:21 | 50.38444 | 18.65988 | 108° | 177km/h | 7437m | -3.8m/s | -29.8°C | 0% | 0hPa | 0V | 00:00:00 | 00:00:00 | 00:00:00 | |
| OM5KV | 2026-09-05 17:57:19 | 50.38473 | 18.65858 | 113° | 164km/h | 7444m | -3.7m/s | -29.8°C | 0% | 0hPa | 0V | 00:00:00 | 00:00:00 | 00:00:00 | |
| PETON7-10 | 2026-09-05 17:57:17 | 50.38499 | 18.65739 | 106° | 168km/h | 7456m | -3.9m/s | 0°C | 0% | 0hPa | 0V | 00:00:00 | 00:00:00 | 00:00:00 | |
| OM5KV | 2026-09-05 17:57:16 | 50.38523 | 18.65609 | 109° | 179km/h | 7459m | -3.9m/s | -29.9°C | 0% | 0hPa | 0V | 00:00:00 | 00:00:00 | 00:00:00 | |
| OM5KV | 2026-09-05 17:57:13 | 50.38554 | 18.65483 | 113° | 161km/h | 7467m | -3.8m/s | -30.0°C | 0% | 0hPa | 0V | 00:00:00 | 00:00:00 | 00:00:00 | |
| POL1PZ | 2026-09-05 17:57:11 | 50.38580 | 18.65363 | 106° | 164km/h | 7474m | -3.8m/s | -30.0°C | 0% | 0hPa | 0V | 00:00:00 | 00:00:00 | 00:00:00 | |
| SP6BVK | 2026-09-05 17:57:10 | 50.38591 | 18.65298 | 107° | 175km/h | 7478m | -3.8m/s | -30.0°C | 0% | 0hPa | 0V | 00:00:00 | 00:00:00 | 00:00:00 | |
| OM5KV | 2026-09-05 17:57:09 | 50.38605 | 18.65231 | 111° | 177km/h | 7482m | -3.9m/s | -30.0°C | 0% | 0hPa | 0V | 00:00:00 | 00:00:00 | 00:00:00 | |
| OM5KV | 2026-09-05 17:57:08 | 50.38621 | 18.65167 | 114° | 170km/h | 7486m | -3.7m/s | -30.1°C | 0% | 0hPa | 0V | 00:00:00 | 00:00:00 | 00:00:00 | |
| OM5KV | 2026-09-05 17:57:03 | 50.38690 | 18.64853 | 113° | 175km/h | 7505m | -3.8m/s | -30.2°C | 0% | 0hPa | 0V | 00:00:00 | 00:00:00 | 00:00:00 | |
| PETON7-10 | 2026-09-05 17:57:02 | 50.38706 | 18.64791 | 113° | 168km/h | 7513m | -3.7m/s | 0°C | 0% | 0hPa | 0V | 00:00:00 | 00:00:00 | 00:00:00 | |
| OM5KV | 2026-09-05 17:56:56 | 50.38791 | 18.64415 | 113° | 159km/h | 7532m | -3.8m/s | -30.4°C | 0% | 0hPa | 0V | 00:00:00 | 00:00:00 | 00:00:00 | |
| OM5KV | 2026-09-05 17:56:55 | 50.38804 | 18.64356 | 108° | 159km/h | 7536m | -3.9m/s | -30.5°C | 0% | 0hPa | 0V | 00:00:00 | 00:00:00 | 00:00:00 | |
| POL1PZ | 2026-09-05 17:56:51 | 50.38861 | 18.64099 | 114° | 164km/h | 7552m | -3.8m/s | -30.6°C | 0% | 0hPa | 0V | 00:00:00 | 00:00:00 | 00:00:00 | |
| SP6BVK | 2026-09-05 17:56:50 | 50.38888 | 18.63979 | 107° | 164km/h | 7559m | -3.8m/s | -30.7°C | 0% | 0hPa | 0V | 00:00:00 | 00:00:00 | 00:00:00 | |
| OM5KV | 2026-09-05 17:56:49 | 50.38888 | 18.63979 | 107° | 164km/h | 7559m | -3.8m/s | -30.7°C | 0% | 0hPa | 0V | 00:00:00 | 00:00:00 | 00:00:00 | |
| PETON7-10 | 2026-09-05 17:56:47 | 50.38914 | 18.63847 | 110° | 170km/h | 7570m | -3.7m/s | 0°C | 0% | 0hPa | 0V | 00:00:00 | 00:00:00 | 00:00:00 | |
| OM5KV | 2026-09-05 17:56:44 | 50.38959 | 18.63660 | 108° | 161km/h | 7578m | -3.8m/s | -30.8°C | 0% | 0hPa | 0V | 00:00:00 | 00:00:00 | 00:00:00 | |
| OM5KV | 2026-09-05 17:56:38 | 50.39042 | 18.63279 | 107° | 166km/h | 7601m | -3.8m/s | -30.9°C | 0% | 0hPa | 0V | 00:00:00 | 00:00:00 | 00:00:00 | |
| PETON7-10 | 2026-09-05 17:56:32 | 50.39127 | 18.62895 | 107° | 172km/h | 7628m | -3.8m/s | 0°C | 0% | 0hPa | 0V | 00:00:00 | 00:00:00 | 00:00:00 | |
| POL1PZ | 2026-09-05 17:56:30 | 50.39156 | 18.62761 | 114° | 177km/h | 7632m | -4.0m/s | -31.1°C | 0% | 0hPa | 0V | 00:00:00 | 00:00:00 | 00:00:00 | |
| SP6BVK | 2026-09-05 17:56:29 | 50.39173 | 18.62699 | 114° | 164km/h | 7636m | -3.8m/s | -31.1°C | 0% | 0hPa | 0V | 00:00:00 | 00:00:00 | 00:00:00 | |
| OM5KV | 2026-09-05 17:56:27 | 50.39200 | 18.62577 | 107° | 170km/h | 7643m | -3.8m/s | -31.2°C | 0% | 0hPa | 0V | 00:00:00 | 00:00:00 | 00:00:00 | |
| OM5KV | 2026-09-05 17:56:22 | 50.39289 | 18.62193 | 108° | 177km/h | 7666m | -3.8m/s | -31.3°C | 0% | 0hPa | 0V | 00:00:00 | 00:00:00 | 00:00:00 | |
| PETON7-10 | 2026-09-05 17:56:17 | 50.39353 | 18.61938 | 109° | 170km/h | 7697m | -3.7m/s | 0°C | 0% | 0hPa | 0V | 00:00:00 | 00:00:00 | 00:00:00 | |
| OM5KV | 2026-09-05 17:56:16 | 50.39365 | 18.61876 | 108° | 172km/h | 7685m | -3.8m/s | -31.5°C | 0% | 0hPa | 0V | 00:00:00 | 00:00:00 | 00:00:00 | |
| OM5KV | 2026-09-05 17:56:15 | 50.39380 | 18.61809 | 110° | 183km/h | 7689m | -3.8m/s | -31.5°C | 0% | 0hPa | 0V | 00:00:00 | 00:00:00 | 00:00:00 | |
| POL1PZ | 2026-09-05 17:56:10 | 50.39456 | 18.61492 | 109° | 179km/h | 7708m | -3.8m/s | -31.7°C | 0% | 0hPa | 0V | 00:00:00 | 00:00:00 | 00:00:00 | |
| SP6BVK | 2026-09-05 17:56:09 | 50.39490 | 18.61360 | 116° | 173km/h | 7715m | -3.8m/s | -31.7°C | 0% | 0hPa | 0V | 00:00:00 | 00:00:00 | 00:00:00 | |
| OM5KV | 2026-09-05 17:56:05 | 50.39549 | 18.61108 | 112° | 184km/h | 7731m | -3.8m/s | -31.8°C | 0% | 0hPa | 0V | 00:00:00 | 00:00:00 | 00:00:00 | |
| PETON7-10 | 2026-09-05 17:55:59 | 50.39631 | 18.60791 | 114° | 175km/h | 7761m | -3.7m/s | 0°C | 0% | 0hPa | 0V | 00:00:00 | 00:00:00 | 00:00:00 | |
| OM5KV | 2026-09-05 17:55:54 | 50.39730 | 18.60404 | 113° | 186km/h | 7772m | -3.8m/s | -32.0°C | 0% | 0hPa | 0V | 00:00:00 | 00:00:00 | 00:00:00 | |
| POL1PZ | 2026-09-05 17:55:50 | 50.39797 | 18.60152 | 109° | 175km/h | 7787m | -3.7m/s | -32.1°C | 0% | 0hPa | 0V | 00:00:00 | 00:00:00 | 00:00:00 | |
| OM5KV | 2026-09-05 17:55:48 | 50.39813 | 18.60085 | 112° | 186km/h | 7790m | -3.6m/s | -32.2°C | 0% | 0hPa | 0V | 00:00:00 | 00:00:00 | 00:00:00 | |
| SP6BVK | 2026-09-05 17:55:47 | 50.39830 | 18.60017 | 116° | 184km/h | 7794m | -3.6m/s | -32.2°C | 0% | 0hPa | 0V | 00:00:00 | 00:00:00 | 00:00:00 | |
| PETON7-10 | 2026-09-05 17:55:44 | 50.39882 | 18.59831 | 109° | 175km/h | 7805m | -3.8m/s | 0°C | 0% | 0hPa | 0V | 00:00:00 | 00:00:00 | 00:00:00 | |
| OM5KV | 2026-09-05 17:55:42 | 50.39914 | 18.59697 | 114° | 186km/h | 7813m | -3.8m/s | -32.4°C | 0% | 0hPa | 0V | 00:00:00 | 00:00:00 | 00:00:00 | |
| OM5KV | 2026-09-05 17:55:37 | 50.40018 | 18.59310 | 117° | 183km/h | 7836m | -3.7m/s | -32.5°C | 0% | 0hPa | 0V | 00:00:00 | 00:00:00 | 00:00:00 | |
| OM5KV | 2026-09-05 17:55:36 | 50.40018 | 18.59310 | 117° | 183km/h | 7836m | -3.7m/s | -32.5°C | 0% | 0hPa | 0V | 00:00:00 | 00:00:00 | 00:00:00 | |
| OM5KV | 2026-09-05 17:55:30 | 50.40122 | 18.58924 | 118° | 173km/h | 7858m | -3.9m/s | -32.7°C | 0% | 0hPa | 0V | 00:00:00 | 00:00:00 | 00:00:00 | |
| POL1PZ | 2026-09-05 17:55:29 | 50.40140 | 18.58864 | 115° | 164km/h | 7862m | -3.8m/s | -32.7°C | 0% | 0hPa | 0V | 00:00:00 | 00:00:00 | 00:00:00 | |
| PETON7-10 | 2026-09-05 17:55:28 | 50.40156 | 18.58802 | 110° | 177km/h | 7874m | -3.8m/s | 0°C | 0% | 0hPa | 0V | 00:00:00 | 00:00:00 | 00:00:00 | |
| SP6BVK | 2026-09-05 17:55:27 | 50.40171 | 18.58736 | 111° | 183km/h | 7870m | -3.9m/s | -32.8°C | 0% | 0hPa | 0V | 00:00:00 | 00:00:00 | 00:00:00 | |
| OM5KV | 2026-09-05 17:55:24 | 50.40228 | 18.58539 | 117° | 170km/h | 7881m | -3.8m/s | -32.8°C | 0% | 0hPa | 0V | 00:00:00 | 00:00:00 | 00:00:00 | |
| OM5KV | 2026-09-05 17:55:18 | 50.40335 | 18.58153 | 114° | 168km/h | 7904m | -3.8m/s | -32.9°C | 0% | 0hPa | 0V | 00:00:00 | 00:00:00 | 00:00:00 | |
| OM5KV | 2026-09-05 17:55:14 | 50.40407 | 18.57888 | 118° | 179km/h | 7920m | -3.8m/s | -33.0°C | 0% | 0hPa | 0V | 00:00:00 | 00:00:00 | 00:00:00 | |
| PETON7-10 | 2026-09-05 17:55:13 | 50.40426 | 18.57826 | 116° | 173km/h | 7928m | -3.9m/s | 0°C | 0% | 0hPa | 0V | 00:00:00 | 00:00:00 | 00:00:00 | |
| OM5KV | 2026-09-05 17:55:12 | 50.40443 | 18.57764 | 112° | 172km/h | 7928m | -3.9m/s | -33.1°C | 0% | 0hPa | 0V | 00:00:00 | 00:00:00 | 00:00:00 | |
| OM5KV | 2026-09-05 17:55:08 | 50.40520 | 18.57499 | 118° | 173km/h | 7943m | -3.8m/s | -33.1°C | 0% | 0hPa | 0V | 00:00:00 | 00:00:00 | 00:00:00 | |
| OM5KV | 2026-09-05 17:55:07 | 50.40554 | 18.57374 | 112° | 181km/h | 7951m | -3.8m/s | -33.2°C | 0% | 0hPa | 0V | 00:00:00 | 00:00:00 | 00:00:00 | |
| SP6BVK | 2026-09-05 17:55:06 | 50.40554 | 18.57374 | 112° | 181km/h | 7951m | -3.8m/s | -33.2°C | 0% | 0hPa | 0V | 00:00:00 | 00:00:00 | 00:00:00 | |
| OM5KV | 2026-09-05 17:55:02 | 50.40633 | 18.57112 | 116° | 168km/h | 7966m | -3.8m/s | -33.3°C | 0% | 0hPa | 0V | 00:00:00 | 00:00:00 | 00:00:00 | |
| OM5KV | 2026-09-05 17:54:57 | 50.40727 | 18.56786 | 117° | 170km/h | 7985m | -3.8m/s | -33.5°C | 0% | 0hPa | 0V | 00:00:00 | 00:00:00 | 00:00:00 | |
| PETON7-10 | 2026-09-05 17:54:56 | 50.40745 | 18.56724 | 112° | 181km/h | 7993m | -3.8m/s | 0°C | 0% | 0hPa | 0V | 00:00:00 | 00:00:00 | 00:00:00 | |
| OM5KV | 2026-09-05 17:54:55 | 50.40761 | 18.56658 | 112° | 184km/h | 7993m | -3.8m/s | -33.5°C | 0% | 0hPa | 0V | 00:00:00 | 00:00:00 | 00:00:00 | |
| OM5KV | 2026-09-05 17:54:51 | 50.40839 | 18.56398 | 114° | 170km/h | 8009m | -4.0m/s | -33.6°C | 0% | 0hPa | 0V | 00:00:00 | 00:00:00 | 00:00:00 | |
| OM5KV | 2026-09-05 17:54:45 | 50.40967 | 18.55941 | 113° | 190km/h | 8036m | -3.8m/s | -33.8°C | 0% | 0hPa | 0V | 00:00:00 | 00:00:00 | 00:00:00 | |
| PETON7-10 | 2026-09-05 17:54:41 | 50.41028 | 18.55744 | 116° | 184km/h | 8052m | -3.9m/s | 0°C | 0% | 0hPa | 0V | 00:00:00 | 00:00:00 | 00:00:00 | |
| OM5KV | 2026-09-05 17:54:39 | 50.41061 | 18.55614 | 112° | 188km/h | 8056m | -3.9m/s | -34.0°C | 0% | 0hPa | 0V | 00:00:00 | 00:00:00 | 00:00:00 | |
| OM5KV | 2026-09-05 17:54:38 | 50.41080 | 18.55544 | 115° | 193km/h | 8060m | -4.0m/s | -34.0°C | 0% | 0hPa | 0V | 00:00:00 | 00:00:00 | 00:00:00 | |
| POL1PZ | 2026-09-05 17:54:28 | 50.41286 | 18.54811 | 117° | 193km/h | 8104m | -3.9m/s | -34.3°C | 0% | 0hPa | 0V | 00:00:00 | 00:00:00 | 00:00:00 | |
| OM5KV | 2026-09-05 17:54:27 | 50.41327 | 18.54682 | 115° | 173km/h | 8112m | -4.1m/s | -34.3°C | 0% | 0hPa | 0V | 00:00:00 | 00:00:00 | 00:00:00 | |
| SP6BVK | 2026-09-05 17:54:25 | 50.41344 | 18.54617 | 112° | 181km/h | 8116m | -4.0m/s | -34.4°C | 0% | 0hPa | 0V | 00:00:00 | 00:00:00 | 00:00:00 | |
| OM5KV | 2026-09-05 17:54:19 | 50.41441 | 18.54282 | 113° | 177km/h | 8137m | -4.1m/s | -34.5°C | 0% | 0hPa | 0V | 00:00:00 | 00:00:00 | 00:00:00 | |
| OM5KV | 2026-09-05 17:54:16 | 50.41497 | 18.54074 | 118° | 190km/h | 8149m | -4.2m/s | -34.6°C | 0% | 0hPa | 0V | 00:00:00 | 00:00:00 | 00:00:00 | |
| POL1PZ12 | 2026-09-05 17:54:12 | 50.41571 | 18.53809 | 113° | 195km/h | 8165m | -4.2m/s | -34.8°C | 0% | 0hPa | 0V | 00:00:00 | 00:00:00 | 00:00:00 | |
| PETON7-10 | 2026-09-05 17:54:10 | 50.41612 | 18.53673 | 117° | 183km/h | 8177m | -4.1m/s | 0°C | 0% | 0hPa | 0V | 00:00:00 | 00:00:00 | 00:00:00 | |
| POL1PZ | 2026-09-05 17:54:07 | 50.41664 | 18.53474 | 113° | 195km/h | 8186m | -4.2m/s | -34.9°C | 0% | 0hPa | 0V | 00:00:00 | 00:00:00 | 00:00:00 | |
| PETON7-10 | 2026-09-05 17:53:54 | 50.41912 | 18.52601 | 112° | 186km/h | 8244m | -4.2m/s | 0°C | 0% | 0hPa | 0V | 00:00:00 | 00:00:00 | 00:00:00 | |
| POL1PZ12 | 2026-09-05 17:53:52 | 50.41947 | 18.52466 | 111° | 188km/h | 8248m | -4.1m/s | -35.2°C | 0% | 0hPa | 0V | 00:00:00 | 00:00:00 | 00:00:00 | |
| OM5KV | 2026-09-05 17:53:50 | 50.41986 | 18.52325 | 118° | 192km/h | 8256m | -4.2m/s | -35.3°C | 0% | 0hPa | 0V | 00:00:00 | 00:00:00 | 00:00:00 | |
| OM5KV | 2026-09-05 17:53:49 | 50.42026 | 18.52195 | 114° | 175km/h | 8264m | -4.2m/s | -35.3°C | 0% | 0hPa | 0V | 00:00:00 | 00:00:00 | 00:00:00 | |
| POL1PZ | 2026-09-05 17:53:46 | 50.42061 | 18.52058 | 114° | 197km/h | 8273m | -4.2m/s | -35.4°C | 0% | 0hPa | 0V | 00:00:00 | 00:00:00 | 00:00:00 | |
| OM5KV | 2026-09-05 17:53:45 | 50.42103 | 18.51920 | 118° | 183km/h | 8281m | -4.2m/s | -35.4°C | 0% | 0hPa | 0V | 00:00:00 | 00:00:00 | 00:00:00 | |
| OM5KV | 2026-09-05 17:53:42 | 50.42140 | 18.51790 | 112° | 184km/h | 8290m | -4.3m/s | -35.5°C | 0% | 0hPa | 0V | 00:00:00 | 00:00:00 | 00:00:00 | |
| PETON7-10 | 2026-09-05 17:53:39 | 50.42217 | 18.51580 | 115° | 188km/h | 8307m | -4.2m/s | 0°C | 0% | 0hPa | 0V | 00:00:00 | 00:00:00 | 00:00:00 | |
| OM5KV | 2026-09-05 17:53:36 | 50.42256 | 18.51380 | 113° | 195km/h | 8316m | -4.2m/s | -35.7°C | 0% | 0hPa | 0V | 00:00:00 | 00:00:00 | 00:00:00 | |
| OM5KV | 2026-09-05 17:53:33 | 50.42318 | 18.51174 | 117° | 179km/h | 8329m | -4.3m/s | -35.8°C | 0% | 0hPa | 0V | 00:00:00 | 00:00:00 | 00:00:00 | |
| POL1PZ12 | 2026-09-05 17:53:31 | 50.42354 | 18.51040 | 112° | 193km/h | 8338m | -4.4m/s | -35.9°C | 0% | 0hPa | 0V | 00:00:00 | 00:00:00 | 00:00:00 | |
| OM5KV | 2026-09-05 17:53:29 | 50.42395 | 18.50899 | 119° | 193km/h | 8347m | -4.4m/s | -36.0°C | 0% | 0hPa | 0V | 00:00:00 | 00:00:00 | 00:00:00 | |
| OM5KV | 2026-09-05 17:53:27 | 50.42435 | 18.50768 | 113° | 179km/h | 8356m | -4.3m/s | -36.1°C | 0% | 0hPa | 0V | 00:00:00 | 00:00:00 | 00:00:00 | |
| POL1PZ | 2026-09-05 17:53:26 | 50.42453 | 18.50699 | 112° | 192km/h | 8361m | -4.4m/s | -36.1°C | 0% | 0hPa | 0V | 00:00:00 | 00:00:00 | 00:00:00 | |
| PETON7-10 | 2026-09-05 17:53:24 | 50.42493 | 18.50556 | 118° | 190km/h | 8374m | -4.3m/s | 0°C | 0% | 0hPa | 0V | 00:00:00 | 00:00:00 | 00:00:00 | |
| OM5KV | 2026-09-05 17:53:23 | 50.42516 | 18.50491 | 118° | 183km/h | 8374m | -4.3m/s | -36.2°C | 0% | 0hPa | 0V | 00:00:00 | 00:00:00 | 00:00:00 | |
| OM5KV | 2026-09-05 17:53:22 | 50.42535 | 18.50426 | 114° | 179km/h | 8379m | -4.5m/s | -36.3°C | 0% | 0hPa | 0V | 00:00:00 | 00:00:00 | 00:00:00 | |
| OM5KV | 2026-09-05 17:53:17 | 50.42634 | 18.50084 | 115° | 179km/h | 8400m | -4.4m/s | -36.4°C | 0% | 0hPa | 0V | 00:00:00 | 00:00:00 | 00:00:00 | |
| SP3BTT-10 | 2026-09-05 17:53:16 | 50.42652 | 18.50017 | 112° | 195km/h | 8427m | -4.4m/s | 0°C | 0% | 0hPa | 0V | 00:00:00 | 00:00:00 | 00:00:00 | |
| SP6BVK | 2026-09-05 17:53:11 | 50.42752 | 18.49676 | 113° | 184km/h | 8427m | -4.4m/s | -36.7°C | 0% | 0hPa | 0V | 00:00:00 | 00:00:00 | 00:00:00 | |
| OM5KV | 2026-09-05 17:53:10 | 50.42770 | 18.49606 | 113° | 197km/h | 8431m | -4.5m/s | -36.7°C | 0% | 0hPa | 0V | 00:00:00 | 00:00:00 | 00:00:00 | |
| PETON7-10 | 2026-09-05 17:53:09 | 50.42790 | 18.49531 | 117° | 190km/h | 8444m | -4.5m/s | 0°C | 0% | 0hPa | 0V | 00:00:00 | 00:00:00 | 00:00:00 | |
| OM5KV | 2026-09-05 17:53:06 | 50.42871 | 18.49266 | 113° | 195km/h | 8454m | -4.4m/s | -36.9°C | 0% | 0hPa | 0V | 00:00:00 | 00:00:00 | 00:00:00 | |
| POL1PZ | 2026-09-05 17:53:05 | 50.42871 | 18.49266 | 113° | 195km/h | 8454m | -4.4m/s | -36.9°C | 0% | 0hPa | 0V | 00:00:00 | 00:00:00 | 00:00:00 | |
| OM5KV | 2026-09-05 17:53:04 | 50.42890 | 18.49195 | 116° | 201km/h | 8458m | -4.3m/s | -36.9°C | 0% | 0hPa | 0V | 00:00:00 | 00:00:00 | 00:00:00 | |
| OM5KV | 2026-09-05 17:52:59 | 50.42992 | 18.48853 | 116° | 201km/h | 8480m | -4.5m/s | -37.1°C | 0% | 0hPa | 0V | 00:00:00 | 00:00:00 | 00:00:00 | |
| OM5KV | 2026-09-05 17:52:58 | 50.43014 | 18.48783 | 119° | 195km/h | 8484m | -4.5m/s | -37.2°C | 0% | 0hPa | 0V | 00:00:00 | 00:00:00 | 00:00:00 | |
| OM5KV | 2026-09-05 17:52:54 | 50.43094 | 18.48512 | 115° | 203km/h | 8502m | -4.5m/s | -37.3°C | 0% | 0hPa | 0V | 00:00:00 | 00:00:00 | 00:00:00 | |
| OM5KV | 2026-09-05 17:52:53 | 50.43138 | 18.48374 | 119° | 184km/h | 8512m | -4.5m/s | -37.4°C | 0% | 0hPa | 0V | 00:00:00 | 00:00:00 | 00:00:00 | |
| POL1PZ12 | 2026-09-05 17:52:50 | 50.43177 | 18.48241 | 113° | 190km/h | 8521m | -4.5m/s | -37.4°C | 0% | 0hPa | 0V | 00:00:00 | 00:00:00 | 00:00:00 | |
| OM5KV | 2026-09-05 17:52:49 | 50.43218 | 18.48098 | 118° | 199km/h | 8530m | -4.5m/s | -37.5°C | 0% | 0hPa | 0V | 00:00:00 | 00:00:00 | 00:00:00 | |
| POL1PZ | 2026-09-05 17:52:45 | 50.43280 | 18.47899 | 113° | 186km/h | 8544m | -4.7m/s | -37.7°C | 0% | 0hPa | 0V | 00:00:00 | 00:00:00 | 00:00:00 | |
| OM5KV | 2026-09-05 17:52:42 | 50.43342 | 18.47687 | 119° | 190km/h | 8558m | -4.7m/s | -37.8°C | 0% | 0hPa | 0V | 00:00:00 | 00:00:00 | 00:00:00 | |
| OM5KV | 2026-09-05 17:52:41 | 50.43364 | 18.47622 | 117° | 181km/h | 8562m | -4.6m/s | -37.8°C | 0% | 0hPa | 0V | 00:00:00 | 00:00:00 | 00:00:00 | |
| PETON7-10 | 2026-09-05 17:52:38 | 50.43421 | 18.47414 | 117° | 190km/h | 8581m | -4.6m/s | 0°C | 0% | 0hPa | 0V | 00:00:00 | 00:00:00 | 00:00:00 | |
| OM5KV | 2026-09-05 17:52:36 | 50.43466 | 18.47280 | 118° | 181km/h | 8585m | -4.6m/s | -38.0°C | 0% | 0hPa | 0V | 00:00:00 | 00:00:00 | 00:00:00 | |
| OM5KV | 2026-09-05 17:52:35 | 50.43485 | 18.47214 | 113° | 183km/h | 8590m | -4.6m/s | -38.0°C | 0% | 0hPa | 0V | 00:00:00 | 00:00:00 | 00:00:00 | |
| SP6BVK | 2026-09-05 17:52:31 | 50.43587 | 18.46873 | 114° | 181km/h | 8613m | -4.7m/s | -38.2°C | 0% | 0hPa | 0V | 00:00:00 | 00:00:00 | 00:00:00 | |
| OM5KV | 2026-09-05 17:52:30 | 50.43587 | 18.46873 | 114° | 181km/h | 8613m | -4.7m/s | -38.2°C | 0% | 0hPa | 0V | 00:00:00 | 00:00:00 | 00:00:00 | |
| POL1PZ12 | 2026-09-05 17:52:29 | 50.43605 | 18.46804 | 113° | 193km/h | 8618m | -4.7m/s | -38.3°C | 0% | 0hPa | 0V | 00:00:00 | 00:00:00 | 00:00:00 | |
| OM5KV | 2026-09-05 17:52:25 | 50.43708 | 18.46463 | 113° | 192km/h | 8641m | -4.7m/s | -38.5°C | 0% | 0hPa | 0V | 00:00:00 | 00:00:00 | 00:00:00 | |
| POL1PZ | 2026-09-05 17:52:24 | 50.43708 | 18.46463 | 113° | 192km/h | 8641m | -4.7m/s | -38.5°C | 0% | 0hPa | 0V | 00:00:00 | 00:00:00 | 00:00:00 | |
| PETON7-10 | 2026-09-05 17:52:23 | 50.43728 | 18.46392 | 115° | 190km/h | 8651m | -4.6m/s | 0°C | 0% | 0hPa | 0V | 00:00:00 | 00:00:00 | 00:00:00 | |
| OM5KV | 2026-09-05 17:52:18 | 50.43831 | 18.46052 | 115° | 201km/h | 8670m | -4.7m/s | -38.7°C | 0% | 0hPa | 0V | 00:00:00 | 00:00:00 | 00:00:00 | |
| SP3BTT-10 | 2026-09-05 17:52:17 | 50.43853 | 18.45981 | 118° | 199km/h | 8674m | -4.6m/s | 0°C | 0% | 0hPa | 0V | 00:00:00 | 00:00:00 | 00:00:00 | |
| OM5KV | 2026-09-05 17:52:13 | 50.43935 | 18.45712 | 114° | 199km/h | 8693m | -4.8m/s | -38.9°C | 0% | 0hPa | 0V | 00:00:00 | 00:00:00 | 00:00:00 | |
| SP6BVK | 2026-09-05 17:52:09 | 50.44020 | 18.45442 | 114° | 184km/h | 8712m | -4.7m/s | -39.0°C | 0% | 0hPa | 0V | 00:00:00 | 00:00:00 | 00:00:00 | |
| PETON7-10 | 2026-09-05 17:52:08 | 50.44039 | 18.45373 | 113° | 190km/h | 8721m | -4.7m/s | 0°C | 0% | 0hPa | 0V | 00:00:00 | 00:00:00 | 00:00:00 | |
| OM5KV | 2026-09-05 17:52:07 | 50.44060 | 18.45301 | 117° | 201km/h | 8721m | -4.8m/s | -39.1°C | 0% | 0hPa | 0V | 00:00:00 | 00:00:00 | 00:00:00 | |
| POL1PZ | 2026-09-05 17:52:03 | 50.44144 | 18.45034 | 114° | 193km/h | 8740m | -4.7m/s | -39.3°C | 0% | 0hPa | 0V | 00:00:00 | 00:00:00 | 00:00:00 | |
| OM5KV | 2026-09-05 17:52:02 | 50.44164 | 18.44962 | 116° | 201km/h | 8745m | -4.7m/s | -39.3°C | 0% | 0hPa | 0V | 00:00:00 | 00:00:00 | 00:00:00 | |
| OM5KV | 2026-09-05 17:51:56 | 50.44290 | 18.44553 | 119° | 199km/h | 8774m | -4.8m/s | -39.6°C | 0% | 0hPa | 0V | 00:00:00 | 00:00:00 | 00:00:00 | |
| PETON7-10 | 2026-09-05 17:51:53 | 50.44353 | 18.44356 | 113° | 192km/h | 8792m | -4.6m/s | 0°C | 0% | 0hPa | 0V | 00:00:00 | 00:00:00 | 00:00:00 | |
| OM5KV | 2026-09-05 17:51:51 | 50.44394 | 18.44214 | 118° | 199km/h | 8797m | -4.8m/s | -39.8°C | 0% | 0hPa | 0V | 00:00:00 | 00:00:00 | 00:00:00 | |
| OM5KV | 2026-09-05 17:51:50 | 50.44417 | 18.44146 | 120° | 188km/h | 8802m | -4.7m/s | -39.8°C | 0% | 0hPa | 0V | 00:00:00 | 00:00:00 | 00:00:00 | |
| SP6BVK | 2026-09-05 17:51:49 | 50.44439 | 18.44082 | 118° | 179km/h | 8806m | -4.8m/s | -39.9°C | 0% | 0hPa | 0V | 00:00:00 | 00:00:00 | 00:00:00 | |
| POL1PZ12 | 2026-09-05 17:51:47 | 50.44477 | 18.43947 | 114° | 197km/h | 8816m | -4.6m/s | -39.9°C | 0% | 0hPa | 0V | 00:00:00 | 00:00:00 | 00:00:00 | |
| OM5KV | 2026-09-05 17:51:45 | 50.44522 | 18.43806 | 120° | 192km/h | 8825m | -4.7m/s | -40.0°C | 0% | 0hPa | 0V | 00:00:00 | 00:00:00 | 00:00:00 | |
| OM5KV | 2026-09-05 17:51:44 | 50.44544 | 18.43742 | 119° | 181km/h | 8830m | -4.7m/s | -40.0°C | 0% | 0hPa | 0V | 00:00:00 | 00:00:00 | 00:00:00 | |
| POL1PZ | 2026-09-05 17:51:43 | 50.44564 | 18.43677 | 115° | 183km/h | 8835m | -4.8m/s | -40.1°C | 0% | 0hPa | 0V | 00:00:00 | 00:00:00 | 00:00:00 | |
| OM5KV | 2026-09-05 17:51:40 | 50.44651 | 18.43402 | 119° | 181km/h | 8853m | -4.7m/s | -40.2°C | 0% | 0hPa | 0V | 00:00:00 | 00:00:00 | 00:00:00 | |
| OM5KV | 2026-09-05 17:51:39 | 50.44671 | 18.43338 | 116° | 181km/h | 8858m | -4.7m/s | -40.2°C | 0% | 0hPa | 0V | 00:00:00 | 00:00:00 | 00:00:00 | |
| PETON7-10 | 2026-09-05 17:51:38 | 50.44671 | 18.43342 | 114° | 190km/h | 8863m | -4.8m/s | 0°C | 0% | 0hPa | 0V | 00:00:00 | 00:00:00 | 00:00:00 | |
| SP3BTT-10 | 2026-09-05 17:51:36 | 50.44710 | 18.43205 | 113° | 206km/h | 8872m | -4.8m/s | 0°C | 0% | 0hPa | 0V | 00:00:00 | 00:00:00 | 00:00:00 | |
| OM5KV | 2026-09-05 17:51:34 | 50.44757 | 18.43064 | 120° | 184km/h | 8878m | -4.7m/s | -40.4°C | 0% | 0hPa | 0V | 00:00:00 | 00:00:00 | 00:00:00 | |
| OM5KV | 2026-09-05 17:51:32 | 50.44797 | 18.42934 | 114° | 188km/h | 8887m | -4.8m/s | -40.4°C | 0% | 0hPa | 0V | 00:00:00 | 00:00:00 | 00:00:00 | |
| OM5KV | 2026-09-05 17:51:29 | 50.44885 | 18.42663 | 117° | 179km/h | 8906m | -4.8m/s | -40.6°C | 0% | 0hPa | 0V | 00:00:00 | 00:00:00 | 00:00:00 | |
| OM5KV | 2026-09-05 17:51:27 | 50.44923 | 18.42527 | 115° | 199km/h | 8915m | -4.6m/s | -40.6°C | 0% | 0hPa | 0V | 00:00:00 | 00:00:00 | 00:00:00 | |
| POL1PZ12 | 2026-09-05 17:51:26 | 50.44923 | 18.42527 | 115° | 199km/h | 8915m | -4.6m/s | -40.6°C | 0% | 0hPa | 0V | 00:00:00 | 00:00:00 | 00:00:00 | |
| OM5KV | 2026-09-05 17:51:23 | 50.45012 | 18.42260 | 115° | 184km/h | 8934m | -4.7m/s | -40.8°C | 0% | 0hPa | 0V | 00:00:00 | 00:00:00 | 00:00:00 | |
| POL1PZ | 2026-09-05 17:51:22 | 50.45012 | 18.42260 | 115° | 184km/h | 8934m | -4.7m/s | -40.8°C | 0% | 0hPa | 0V | 00:00:00 | 00:00:00 | 00:00:00 | |
| OM5KV | 2026-09-05 17:51:21 | 50.45031 | 18.42191 | 115° | 197km/h | 8939m | -4.8m/s | -40.8°C | 0% | 0hPa | 0V | 00:00:00 | 00:00:00 | 00:00:00 | |
| OM5KV | 2026-09-05 17:51:16 | 50.45138 | 18.41854 | 114° | 193km/h | 8962m | -4.7m/s | -41.0°C | 0% | 0hPa | 0V | 00:00:00 | 00:00:00 | 00:00:00 | |
| OM5KV | 2026-09-05 17:51:15 | 50.45159 | 18.41783 | 117° | 201km/h | 8966m | -4.7m/s | -41.0°C | 0% | 0hPa | 0V | 00:00:00 | 00:00:00 | 00:00:00 | |
| OM5KV | 2026-09-05 17:51:09 | 50.45286 | 18.41377 | 119° | 195km/h | 8994m | -4.5m/s | -41.1°C | 0% | 0hPa | 0V | 00:00:00 | 00:00:00 | 00:00:00 | |
| PETON7-10 | 2026-09-05 17:51:08 | 50.45309 | 18.41314 | 115° | 188km/h | 9003m | -4.6m/s | 0°C | 0% | 0hPa | 0V | 00:00:00 | 00:00:00 | 00:00:00 | |
| SP6BVK | 2026-09-05 17:51:07 | 50.45330 | 18.41247 | 116° | 179km/h | 9003m | -4.7m/s | -41.2°C | 0% | 0hPa | 0V | 00:00:00 | 00:00:00 | 00:00:00 | |
| POL1PZ12 | 2026-09-05 17:51:06 | 50.45348 | 18.41179 | 113° | 190km/h | 9008m | -4.6m/s | -41.2°C | 0% | 0hPa | 0V | 00:00:00 | 00:00:00 | 00:00:00 | |
| OM5KV | 2026-09-05 17:51:05 | 50.45390 | 18.41038 | 119° | 197km/h | 9018m | -4.6m/s | -41.3°C | 0% | 0hPa | 0V | 00:00:00 | 00:00:00 | 00:00:00 | |
| OM5KV | 2026-09-05 17:51:04 | 50.45390 | 18.41038 | 119° | 197km/h | 9018m | -4.6m/s | -41.3°C | 0% | 0hPa | 0V | 00:00:00 | 00:00:00 | 00:00:00 | |
| POL1PZ | 2026-09-05 17:51:02 | 50.45433 | 18.40907 | 116° | 177km/h | 9027m | -4.6m/s | -41.3°C | 0% | 0hPa | 0V | 00:00:00 | 00:00:00 | 00:00:00 | |
| OM5KV | 2026-09-05 17:50:59 | 50.45515 | 18.40633 | 120° | 186km/h | 9045m | -4.5m/s | -41.4°C | 0% | 0hPa | 0V | 00:00:00 | 00:00:00 | 00:00:00 | |
| PETON7-10 | 2026-09-05 17:50:53 | 50.45619 | 18.40296 | 118° | 190km/h | 9072m | -4.5m/s | 0°C | 0% | 0hPa | 0V | 00:00:00 | 00:00:00 | 00:00:00 | |
| OM5KV | 2026-09-05 17:50:52 | 50.45640 | 18.40231 | 118° | 179km/h | 9072m | -4.5m/s | -41.6°C | 0% | 0hPa | 0V | 00:00:00 | 00:00:00 | 00:00:00 | |
| SP6BVK | 2026-09-05 17:50:47 | 50.45746 | 18.39893 | 119° | 181km/h | 9095m | -4.5m/s | -41.8°C | 0% | 0hPa | 0V | 00:00:00 | 00:00:00 | 00:00:00 | |
| POL1PZ12 | 2026-09-05 17:50:46 | 50.45785 | 18.39760 | 114° | 193km/h | 9103m | -4.5m/s | -41.9°C | 0% | 0hPa | 0V | 00:00:00 | 00:00:00 | 00:00:00 | |
| POL1PZ | 2026-09-05 17:50:41 | 50.45872 | 18.39490 | 116° | 181km/h | 9121m | -4.4m/s | -42.0°C | 0% | 0hPa | 0V | 00:00:00 | 00:00:00 | 00:00:00 | |
| OM5KV | 2026-09-05 17:50:40 | 50.45892 | 18.39423 | 114° | 192km/h | 9125m | -4.4m/s | -42.1°C | 0% | 0hPa | 0V | 00:00:00 | 00:00:00 | 00:00:00 | |
| PETON7-10 | 2026-09-05 17:50:38 | 50.45935 | 18.39280 | 120° | 192km/h | 9139m | -4.3m/s | 0°C | 0% | 0hPa | 0V | 00:00:00 | 00:00:00 | 00:00:00 | |
| OM5KV | 2026-09-05 17:50:35 | 50.46000 | 18.39084 | 114° | 192km/h | 9148m | -4.4m/s | -42.2°C | 0% | 0hPa | 0V | 00:00:00 | 00:00:00 | 00:00:00 | |
| OM5KV | 2026-09-05 17:50:34 | 50.46021 | 18.39014 | 116° | 201km/h | 9152m | -4.4m/s | -42.2°C | 0% | 0hPa | 0V | 00:00:00 | 00:00:00 | 00:00:00 | |
| OM5KV | 2026-09-05 17:50:29 | 50.46152 | 18.38606 | 120° | 201km/h | 9178m | -4.4m/s | -42.4°C | 0% | 0hPa | 0V | 00:00:00 | 00:00:00 | 00:00:00 | |
| SP6BVK | 2026-09-05 17:50:26 | 50.46199 | 18.38474 | 119° | 181km/h | 9187m | -4.3m/s | -42.5°C | 0% | 0hPa | 0V | 00:00:00 | 00:00:00 | 00:00:00 | |
| POL1PZ12 | 2026-09-05 17:50:25 | 50.46219 | 18.38409 | 115° | 186km/h | 9192m | -4.3m/s | -42.5°C | 0% | 0hPa | 0V | 00:00:00 | 00:00:00 | 00:00:00 | |
| PETON7-10 | 2026-09-05 17:50:23 | 50.46262 | 18.38266 | 121° | 192km/h | 9205m | -4.2m/s | 0°C | 0% | 0hPa | 0V | 00:00:00 | 00:00:00 | 00:00:00 | |
| POL1PZ | 2026-09-05 17:50:21 | 50.46310 | 18.38137 | 120° | 181km/h | 9210m | -4.3m/s | -42.6°C | 0% | 0hPa | 0V | 00:00:00 | 00:00:00 | 00:00:00 | |
| OM5KV | 2026-09-05 17:50:18 | 50.46399 | 18.37865 | 122° | 193km/h | 9227m | -4.3m/s | -42.7°C | 0% | 0hPa | 0V | 00:00:00 | 00:00:00 | 00:00:00 | |
| OM5KV | 2026-09-05 17:50:12 | 50.46538 | 18.37464 | 121° | 184km/h | 9253m | -4.3m/s | -42.7°C | 0% | 0hPa | 0V | 00:00:00 | 00:00:00 | 00:00:00 | |
| PETON7-10 | 2026-09-05 17:50:08 | 50.46603 | 18.37258 | 121° | 195km/h | 9270m | -4.2m/s | 0°C | 0% | 0hPa | 0V | 00:00:00 | 00:00:00 | 00:00:00 | |
| OM5KV | 2026-09-05 17:50:06 | 50.46653 | 18.37126 | 122° | 186km/h | 9274m | -4.2m/s | -42.8°C | 0% | 0hPa | 0V | 00:00:00 | 00:00:00 | 00:00:00 | |
| POL1PZ12 | 2026-09-05 17:50:05 | 50.46697 | 18.36995 | 116° | 193km/h | 9283m | -4.1m/s | -42.8°C | 0% | 0hPa | 0V | 00:00:00 | 00:00:00 | 00:00:00 | |
| OM5KV | 2026-09-05 17:50:00 | 50.46794 | 18.36723 | 119° | 184km/h | 9300m | -4.2m/s | -42.7°C | 0% | 0hPa | 0V | 00:00:00 | 00:00:00 | 00:00:00 | |
| OM5KV | 2026-09-05 17:49:58 | 50.46838 | 18.36585 | 118° | 206km/h | 9308m | -4.1m/s | -42.7°C | 0% | 0hPa | 0V | 00:00:00 | 00:00:00 | 00:00:00 | |
| OM5KV | 2026-09-05 17:49:54 | 50.46936 | 18.36314 | 117° | 193km/h | 9325m | -4.3m/s | -42.7°C | 0% | 0hPa | 0V | 00:00:00 | 00:00:00 | 00:00:00 | |
| PETON7-10 | 2026-09-05 17:49:53 | 50.46960 | 18.36243 | 118° | 199km/h | 9330m | -4.1m/s | 0°C | 0% | 0hPa | 0V | 00:00:00 | 00:00:00 | 00:00:00 | |
| OM5KV | 2026-09-05 17:49:48 | 50.47085 | 18.35901 | 118° | 206km/h | 9350m | -4.2m/s | -42.8°C | 0% | 0hPa | 0V | 00:00:00 | 00:00:00 | 00:00:00 | |
| OM5KV | 2026-09-05 17:49:47 | 50.47110 | 18.35829 | 122° | 210km/h | 9354m | -4.2m/s | -42.8°C | 0% | 0hPa | 0V | 00:00:00 | 00:00:00 | 00:00:00 | |
| SP6BVK | 2026-09-05 17:49:45 | 50.47164 | 18.35695 | 123° | 190km/h | 9363m | -4.2m/s | -42.9°C | 0% | 0hPa | 0V | 00:00:00 | 00:00:00 | 00:00:00 | |
| POL1PZ12 | 2026-09-05 17:49:43 | 50.47211 | 18.35560 | 119° | 204km/h | 9370m | -4.0m/s | -42.9°C | 0% | 0hPa | 0V | 00:00:00 | 00:00:00 | 00:00:00 | |
| OM5KV | 2026-09-05 17:49:42 | 50.47236 | 18.35488 | 122° | 210km/h | 9375m | -4.3m/s | -42.9°C | 0% | 0hPa | 0V | 00:00:00 | 00:00:00 | 00:00:00 | |
| OM5KV | 2026-09-05 17:49:41 | 50.47264 | 18.35418 | 124° | 203km/h | 9379m | -4.1m/s | -43.0°C | 0% | 0hPa | 0V | 00:00:00 | 00:00:00 | 00:00:00 | |
| POL1PZ | 2026-09-05 17:49:40 | 50.47292 | 18.35353 | 124° | 190km/h | 9383m | -4.1m/s | -43.0°C | 0% | 0hPa | 0V | 00:00:00 | 00:00:00 | 00:00:00 | |
| PETON7-10 | 2026-09-05 17:49:37 | 50.47365 | 18.35148 | 121° | 203km/h | 9399m | -4.0m/s | 0°C | 0% | 0hPa | 0V | 00:00:00 | 00:00:00 | 00:00:00 | |
| OM5KV | 2026-09-05 17:49:36 | 50.47393 | 18.35077 | 124° | 208km/h | 9399m | -4.1m/s | -43.0°C | 0% | 0hPa | 0V | 00:00:00 | 00:00:00 | 00:00:00 | |
| OM5KV | 2026-09-05 17:49:35 | 50.47447 | 18.34945 | 121° | 192km/h | 9407m | -4.1m/s | -42.9°C | 0% | 0hPa | 0V | 00:00:00 | 00:00:00 | 00:00:00 | |
| OM5KV | 2026-09-05 17:49:30 | 50.47552 | 18.34665 | 125° | 199km/h | 9424m | -4.1m/s | -43.0°C | 0% | 0hPa | 0V | 00:00:00 | 00:00:00 | 00:00:00 | |
| SP6BVK | 2026-09-05 17:49:25 | 50.47684 | 18.34318 | 125° | 204km/h | 9445m | -4.2m/s | -43.1°C | 0% | 0hPa | 0V | 00:00:00 | 00:00:00 | 00:00:00 | |
| POL1PZ12 | 2026-09-05 17:49:23 | 50.47737 | 18.34185 | 119° | 199km/h | 9453m | -3.8m/s | -43.2°C | 0% | 0hPa | 0V | 00:00:00 | 00:00:00 | 00:00:00 | |
| PETON7-10 | 2026-09-05 17:49:22 | 50.47762 | 18.34113 | 119° | 208km/h | 9461m | -4.1m/s | 0°C | 0% | 0hPa | 0V | 00:00:00 | 00:00:00 | 00:00:00 | |
| OM5KV | 2026-09-05 17:49:20 | 50.47845 | 18.33901 | 123° | 197km/h | 9470m | -4.2m/s | -43.2°C | 0% | 0hPa | 0V | 00:00:00 | 00:00:00 | 00:00:00 | |
| POL1PZ | 2026-09-05 17:49:19 | 50.47845 | 18.33901 | 123° | 197km/h | 9470m | -4.2m/s | -43.2°C | 0% | 0hPa | 0V | 00:00:00 | 00:00:00 | 00:00:00 | |
| OM5KV | 2026-09-05 17:49:08 | 50.48140 | 18.33123 | 121° | 199km/h | 9514m | -4.0m/s | -43.4°C | 0% | 0hPa | 0V | 00:00:00 | 00:00:00 | 00:00:00 | |
| PETON7-10 | 2026-09-05 17:49:07 | 50.48164 | 18.33053 | 118° | 210km/h | 9523m | -4.1m/s | 0°C | 0% | 0hPa | 0V | 00:00:00 | 00:00:00 | 00:00:00 | |
| SP6BVK | 2026-09-05 17:49:04 | 50.48246 | 18.32834 | 124° | 206km/h | 9531m | -4.1m/s | -43.6°C | 0% | 0hPa | 0V | 00:00:00 | 00:00:00 | 00:00:00 | |
| OM5KV | 2026-09-05 17:49:02 | 50.48298 | 18.32697 | 119° | 204km/h | 9539m | -4.1m/s | -43.6°C | 0% | 0hPa | 0V | 00:00:00 | 00:00:00 | 00:00:00 | |
| POL1PZ | 2026-09-05 17:48:59 | 50.48380 | 18.32477 | 125° | 210km/h | 9551m | -4.1m/s | -43.7°C | 0% | 0hPa | 0V | 00:00:00 | 00:00:00 | 00:00:00 | |
| OM5KV | 2026-09-05 17:48:57 | 50.48433 | 18.32341 | 119° | 203km/h | 9559m | -4.1m/s | -43.8°C | 0% | 0hPa | 0V | 00:00:00 | 00:00:00 | 00:00:00 | |
| PETON7-10 | 2026-09-05 17:48:52 | 50.48568 | 18.31985 | 120° | 208km/h | 9584m | -4.1m/s | 0°C | 0% | 0hPa | 0V | 00:00:00 | 00:00:00 | 00:00:00 | |
| OM5KV | 2026-09-05 17:48:51 | 50.48593 | 18.31913 | 119° | 210km/h | 9584m | -4.2m/s | -44.0°C | 0% | 0hPa | 0V | 00:00:00 | 00:00:00 | 00:00:00 | |
| OM5KV | 2026-09-05 17:48:46 | 50.48728 | 18.31559 | 119° | 208km/h | 9605m | -4.2m/s | -44.2°C | 0% | 0hPa | 0V | 00:00:00 | 00:00:00 | 00:00:00 | |
| SP6BVK | 2026-09-05 17:48:44 | 50.48782 | 18.31411 | 124° | 215km/h | 9613m | -4.0m/s | -44.2°C | 0% | 0hPa | 0V | 00:00:00 | 00:00:00 | 00:00:00 | |
| POL1PZ12 | 2026-09-05 17:48:42 | 50.48837 | 18.31274 | 121° | 197km/h | 9622m | -4.1m/s | -44.3°C | 0% | 0hPa | 0V | 00:00:00 | 00:00:00 | 00:00:00 | |
| OM5KV | 2026-09-05 17:48:41 | 50.48887 | 18.31130 | 120° | 215km/h | 9630m | -4.2m/s | -44.4°C | 0% | 0hPa | 0V | 00:00:00 | 00:00:00 | 00:00:00 | |
| POL1PZ | 2026-09-05 17:48:39 | 50.48943 | 18.30986 | 124° | 206km/h | 9638m | -4.2m/s | -44.5°C | 0% | 0hPa | 0V | 00:00:00 | 00:00:00 | 00:00:00 | |
| PETON7-10 | 2026-09-05 17:48:37 | 50.48970 | 18.30918 | 121° | 208km/h | 9647m | -4.0m/s | 0°C | 0% | 0hPa | 0V | 00:00:00 | 00:00:00 | 00:00:00 | |
| OM5KV | 2026-09-05 17:48:35 | 50.49047 | 18.30701 | 122° | 217km/h | 9655m | -4.3m/s | -44.6°C | 0% | 0hPa | 0V | 00:00:00 | 00:00:00 | 00:00:00 | |
| OM5KV | 2026-09-05 17:48:29 | 50.49179 | 18.30347 | 121° | 217km/h | 9676m | -4.3m/s | -44.8°C | 0% | 0hPa | 0V | 00:00:00 | 00:00:00 | 00:00:00 | |
| SP6BVK | 2026-09-05 17:48:24 | 50.49338 | 18.29922 | 124° | 212km/h | 9701m | -4.1m/s | -44.9°C | 0% | 0hPa | 0V | 00:00:00 | 00:00:00 | 00:00:00 | |
| OM5KV | 2026-09-05 17:48:23 | 50.49338 | 18.29922 | 124° | 212km/h | 9701m | -4.1m/s | -44.9°C | 0% | 0hPa | 0V | 00:00:00 | 00:00:00 | 00:00:00 | |
| PETON7-10 | 2026-09-05 17:48:22 | 50.49366 | 18.29856 | 120° | 206km/h | 9709m | -4.2m/s | 0°C | 0% | 0hPa | 0V | 00:00:00 | 00:00:00 | 00:00:00 | |
| POL1PZ12 | 2026-09-05 17:48:21 | 50.49392 | 18.29786 | 121° | 195km/h | 9709m | -4.3m/s | -45.0°C | 0% | 0hPa | 0V | 00:00:00 | 00:00:00 | 00:00:00 | |
| POL1PZ | 2026-09-05 17:48:18 | 50.49468 | 18.29570 | 123° | 214km/h | 9722m | -4.3m/s | -45.0°C | 0% | 0hPa | 0V | 00:00:00 | 00:00:00 | 00:00:00 | |
| OM5KV | 2026-09-05 17:48:13 | 50.49628 | 18.29146 | 124° | 206km/h | 9748m | -4.3m/s | -45.2°C | 0% | 0hPa | 0V | 00:00:00 | 00:00:00 | 00:00:00 | |
| PETON7-10 | 2026-09-05 17:48:07 | 50.49764 | 18.28790 | 124° | 208km/h | 9769m | -4.3m/s | 0°C | 0% | 0hPa | 0V | 00:00:00 | 00:00:00 | 00:00:00 | |
| OM5KV | 2026-09-05 17:48:06 | 50.49788 | 18.28721 | 122° | 199km/h | 9773m | -4.2m/s | -45.3°C | 0% | 0hPa | 0V | 00:00:00 | 00:00:00 | 00:00:00 | |
| SP6BVK | 2026-09-05 17:48:03 | 50.49865 | 18.28504 | 122° | 219km/h | 9787m | -4.4m/s | -45.4°C | 0% | 0hPa | 0V | 00:00:00 | 00:00:00 | 00:00:00 | |
| OM5KV | 2026-09-05 17:48:02 | 50.49922 | 18.28362 | 123° | 199km/h | 9795m | -4.2m/s | -45.4°C | 0% | 0hPa | 0V | 00:00:00 | 00:00:00 | 00:00:00 | |
| POL1PZ12 | 2026-09-05 17:48:01 | 50.49922 | 18.28362 | 123° | 199km/h | 9795m | -4.2m/s | -45.4°C | 0% | 0hPa | 0V | 00:00:00 | 00:00:00 | 00:00:00 | |
| POL1PZ | 2026-09-05 17:47:57 | 50.50026 | 18.28074 | 124° | 214km/h | 9813m | -4.4m/s | -45.6°C | 0% | 0hPa | 0V | 00:00:00 | 00:00:00 | 00:00:00 | |
| OM5KV | 2026-09-05 17:47:55 | 50.50080 | 18.27936 | 120° | 199km/h | 9821m | -4.4m/s | -45.7°C | 0% | 0hPa | 0V | 00:00:00 | 00:00:00 | 00:00:00 | |
| PETON7-10 | 2026-09-05 17:47:52 | 50.50160 | 18.27716 | 123° | 208km/h | 9834m | -4.3m/s | 0°C | 0% | 0hPa | 0V | 00:00:00 | 00:00:00 | 00:00:00 | |
| OM5KV | 2026-09-05 17:47:45 | 50.50368 | 18.27146 | 118° | 206km/h | 9870m | -4.3m/s | -46.0°C | 0% | 0hPa | 0V | 00:00:00 | 00:00:00 | 00:00:00 | |
| SP6BVK | 2026-09-05 17:47:42 | 50.50421 | 18.26996 | 122° | 219km/h | 9878m | -4.3m/s | -46.0°C | 0% | 0hPa | 0V | 00:00:00 | 00:00:00 | 00:00:00 | |
| POL1PZ12 | 2026-09-05 17:47:40 | 50.50476 | 18.26855 | 121° | 199km/h | 9887m | -4.4m/s | -46.1°C | 0% | 0hPa | 0V | 00:00:00 | 00:00:00 | 00:00:00 | |
| OM5KV | 2026-09-05 17:47:38 | 50.50525 | 18.26709 | 118° | 217km/h | 9896m | -4.3m/s | -46.2°C | 0% | 0hPa | 0V | 00:00:00 | 00:00:00 | 00:00:00 | |
| PETON7-10 | 2026-09-05 17:47:37 | 50.50552 | 18.26630 | 123° | 208km/h | 9904m | -4.2m/s | 0°C | 0% | 0hPa | 0V | 00:00:00 | 00:00:00 | 00:00:00 | |
| OM5KV | 2026-09-05 17:47:33 | 50.50656 | 18.26347 | 118° | 215km/h | 9917m | -4.3m/s | -46.3°C | 0% | 0hPa | 0V | 00:00:00 | 00:00:00 | 00:00:00 | |
| OM5KV | 2026-09-05 17:47:27 | 50.50812 | 18.25909 | 121° | 221km/h | 9943m | -4.4m/s | -46.5°C | 0% | 0hPa | 0V | 00:00:00 | 00:00:00 | 00:00:00 | |
| PETON7-10 | 2026-09-05 17:47:22 | 50.50944 | 18.25544 | 123° | 206km/h | 9970m | -4.4m/s | 0°C | 0% | 0hPa | 0V | 00:00:00 | 00:00:00 | 00:00:00 | |
| POL1PZ12 | 2026-09-05 17:47:20 | 50.51000 | 18.25404 | 123° | 203km/h | 9974m | -4.5m/s | -46.8°C | 0% | 0hPa | 0V | 00:00:00 | 00:00:00 | 00:00:00 | |
| POL1PZ | 2026-09-05 17:47:16 | 50.51102 | 18.25114 | 123° | 215km/h | 9992m | -4.3m/s | -46.9°C | 0% | 0hPa | 0V | 00:00:00 | 00:00:00 | 00:00:00 | |
| OM5KV | 2026-09-05 17:47:10 | 50.51260 | 18.24681 | 123° | 206km/h | 10018m | -4.5m/s | -47.1°C | 0% | 0hPa | 0V | 00:00:00 | 00:00:00 | 00:00:00 | |
| PETON7-10 | 2026-09-05 17:47:07 | 50.51334 | 18.24456 | 122° | 210km/h | 10035m | -4.4m/s | 0°C | 0% | 0hPa | 0V | 00:00:00 | 00:00:00 | 00:00:00 | |
| EDDB2-12 | 2026-09-05 17:47:05 | 50.51415 | 18.24248 | 119° | 197km/h | 10044m | -4.3m/s | -47.7°C | -1.0% | -1.0hPa | 0V | 00:00:00 | 00:00:00 | 00:00:00 | |
| OM5KV | 2026-09-05 17:47:00 | 50.51544 | 18.23884 | 121° | 201km/h | 10066m | -4.4m/s | -47.3°C | 0% | 0hPa | 0V | 00:00:00 | 00:00:00 | 00:00:00 | |
| POL1PZ12 | 2026-09-05 17:46:59 | 50.51544 | 18.23884 | 121° | 201km/h | 10066m | -4.4m/s | -47.3°C | 0% | 0hPa | 0V | 00:00:00 | 00:00:00 | 00:00:00 | |
| SQ6EMJ | 2026-09-05 17:46:58 | 50.51592 | 18.23738 | 118° | 215km/h | 10075m | -4.5m/s | -47.4°C | 0% | 0hPa | 0V | 00:00:00 | 00:00:00 | 00:00:00 | |
| OM5KV | 2026-09-05 17:46:54 | 50.51673 | 18.23518 | 121° | 201km/h | 10088m | -4.3m/s | -47.5°C | 0% | 0hPa | 0V | 00:00:00 | 00:00:00 | 00:00:00 | |
| PETON7-10 | 2026-09-05 17:46:51 | 50.51747 | 18.23296 | 120° | 210km/h | 10115m | -4.3m/s | 0°C | 0% | 0hPa | 0V | 00:00:00 | 00:00:00 | 00:00:00 | |
| SQ6EMJ | 2026-09-05 17:46:49 | 50.51828 | 18.23082 | 118° | 201km/h | 10115m | -4.4m/s | -47.7°C | 0% | 0hPa | 0V | 00:00:00 | 00:00:00 | 00:00:00 | |
| OM5KV | 2026-09-05 17:46:48 | 50.51828 | 18.23082 | 118° | 201km/h | 10115m | -4.4m/s | -47.7°C | 0% | 0hPa | 0V | 00:00:00 | 00:00:00 | 00:00:00 | |
| SQ6EMJ | 2026-09-05 17:46:43 | 50.51980 | 18.22645 | 117° | 210km/h | 10142m | -4.5m/s | -47.8°C | 0% | 0hPa | 0V | 00:00:00 | 00:00:00 | 00:00:00 | |
| OM5KV | 2026-09-05 17:46:42 | 50.51980 | 18.22645 | 117° | 210km/h | 10142m | -4.5m/s | -47.8°C | 0% | 0hPa | 0V | 00:00:00 | 00:00:00 | 00:00:00 | |
| SP6BVK | 2026-09-05 17:46:41 | 50.52005 | 18.22569 | 119° | 219km/h | 10146m | -4.6m/s | -47.8°C | 0% | 0hPa | 0V | 00:00:00 | 00:00:00 | 00:00:00 | |
| POL1PZ12 | 2026-09-05 17:46:39 | 50.52058 | 18.22423 | 123° | 203km/h | 10155m | -4.4m/s | -47.9°C | 0% | 0hPa | 0V | 00:00:00 | 00:00:00 | 00:00:00 | |
| OM5KV | 2026-09-05 17:46:37 | 50.52108 | 18.22282 | 117° | 208km/h | 10164m | -4.3m/s | -47.9°C | 0% | 0hPa | 0V | 00:00:00 | 00:00:00 | 00:00:00 | |
| PETON7-10 | 2026-09-05 17:46:36 | 50.52132 | 18.22207 | 118° | 203km/h | 10173m | -4.4m/s | 0°C | 0% | 0hPa | 0V | 00:00:00 | 00:00:00 | 00:00:00 | |
| POL1PZ | 2026-09-05 17:46:35 | 50.52158 | 18.22132 | 121° | 215km/h | 10173m | -4.4m/s | -47.9°C | 0% | 0hPa | 0V | 00:00:00 | 00:00:00 | 00:00:00 | |
| SQ6EMJ | 2026-09-05 17:46:31 | 50.52283 | 18.21772 | 121° | 217km/h | 10195m | -4.6m/s | -47.9°C | 0% | 0hPa | 0V | 00:00:00 | 00:00:00 | 00:00:00 | |
| OM5KV | 2026-09-05 17:46:26 | 50.52384 | 18.21486 | 118° | 215km/h | 10214m | -4.5m/s | -48.0°C | 0% | 0hPa | 0V | 00:00:00 | 00:00:00 | 00:00:00 | |
| SP6BVK | 2026-09-05 17:46:21 | 50.52536 | 18.21047 | 120° | 221km/h | 10240m | -4.5m/s | -48.2°C | 0% | 0hPa | 0V | 00:00:00 | 00:00:00 | 00:00:00 | |
| OM5KV | 2026-09-05 17:46:20 | 50.52536 | 18.21047 | 120° | 221km/h | 10240m | -4.5m/s | -48.2°C | 0% | 0hPa | 0V | 00:00:00 | 00:00:00 | 00:00:00 | |
| POL1PZ12 | 2026-09-05 17:46:19 | 50.52590 | 18.20903 | 122° | 201km/h | 10249m | -4.6m/s | -48.2°C | 0% | 0hPa | 0V | 00:00:00 | 00:00:00 | 00:00:00 | |
| POL1PZ | 2026-09-05 17:46:14 | 50.52692 | 18.20606 | 122° | 215km/h | 10268m | -4.5m/s | -48.4°C | 0% | 0hPa | 0V | 00:00:00 | 00:00:00 | 00:00:00 | |
| OM5KV | 2026-09-05 17:46:09 | 50.52822 | 18.20238 | 123° | 219km/h | 10290m | -4.8m/s | -48.5°C | 0% | 0hPa | 0V | 00:00:00 | 00:00:00 | 00:00:00 | |
| PETON7-10 | 2026-09-05 17:46:06 | 50.52901 | 18.20023 | 117° | 208km/h | 10355m | -4.5m/s | 0°C | 0% | 0hPa | 0V | 00:00:00 | 00:00:00 | 00:00:00 | |
| SQ6EMJ | 2026-09-05 17:46:04 | 50.52982 | 18.19798 | 123° | 208km/h | 10318m | -4.6m/s | -48.6°C | 0% | 0hPa | 0V | 00:00:00 | 00:00:00 | 00:00:00 | |
| EDDB2-12 | 2026-09-05 17:46:02 | 50.53033 | 18.19656 | 116° | 208km/h | 10327m | -4.7m/s | -49.2°C | -1.0% | -1.0hPa | 0V | 00:00:00 | 00:00:00 | 00:00:00 | |
| OM5KV | 2026-09-05 17:45:59 | 50.53115 | 18.19432 | 124° | 208km/h | 10341m | -4.6m/s | -48.7°C | 0% | 0hPa | 0V | 00:00:00 | 00:00:00 | 00:00:00 | |
| POL1PZ12 | 2026-09-05 17:45:58 | 50.53115 | 18.19432 | 124° | 208km/h | 10341m | -4.6m/s | -48.7°C | 0% | 0hPa | 0V | 00:00:00 | 00:00:00 | 00:00:00 | |
| POL1PZ | 2026-09-05 17:45:54 | 50.53217 | 18.19142 | 122° | 221km/h | 10360m | -4.7m/s | -48.9°C | 0% | 0hPa | 0V | 00:00:00 | 00:00:00 | 00:00:00 | |
| OM5KV | 2026-09-05 17:45:53 | 50.53272 | 18.19000 | 121° | 199km/h | 10369m | -4.6m/s | -48.9°C | 0% | 0hPa | 0V | 00:00:00 | 00:00:00 | 00:00:00 | |
| SQ6EMJ | 2026-09-05 17:45:47 | 50.53427 | 18.18570 | 119° | 201km/h | 10397m | -4.8m/s | -49.1°C | 0% | 0hPa | 0V | 00:00:00 | 00:00:00 | 00:00:00 | |
| OM5KV | 2026-09-05 17:45:46 | 50.53427 | 18.18570 | 119° | 201km/h | 10397m | -4.8m/s | -49.1°C | 0% | 0hPa | 0V | 00:00:00 | 00:00:00 | 00:00:00 | |
| PETON7-10 | 2026-09-05 17:45:42 | 50.53536 | 18.18279 | 123° | 210km/h | 10421m | -4.8m/s | 0°C | 0% | 0hPa | 0V | 00:00:00 | 00:00:00 | 00:00:00 | |
| OM5KV | 2026-09-05 17:45:41 | 50.53561 | 18.18211 | 120° | 199km/h | 10421m | -4.8m/s | -49.1°C | 0% | 0hPa | 0V | 00:00:00 | 00:00:00 | 00:00:00 | |
| SP3BTT-10 | 2026-09-05 17:45:39 | 50.53612 | 18.18080 | 118° | 206km/h | 10468m | -4.6m/s | 0°C | 0% | 0hPa | 0V | 00:00:00 | 00:00:00 | 00:00:00 | |
| POL1PZ12 | 2026-09-05 17:45:38 | 50.53669 | 18.17921 | 124° | 203km/h | 10440m | -4.8m/s | -49.2°C | 0% | 0hPa | 0V | 00:00:00 | 00:00:00 | 00:00:00 | |
| SQ6EMJ | 2026-09-05 17:45:37 | 50.53695 | 18.17853 | 120° | 199km/h | 10445m | -4.7m/s | -49.2°C | 0% | 0hPa | 0V | 00:00:00 | 00:00:00 | 00:00:00 | |
| OE3JTB-15 | 2026-09-05 17:45:35 | 50.53719 | 18.17781 | 118° | 210km/h | 10454m | -4.6m/s | 0°C | 0% | 0hPa | 0V | 00:00:00 | 00:00:00 | 00:00:00 | |
| POL1PZ | 2026-09-05 17:45:33 | 50.53773 | 18.17632 | 123° | 217km/h | 10459m | -4.6m/s | -49.2°C | 0% | 0hPa | 0V | 00:00:00 | 00:00:00 | 00:00:00 | |
| OM5KV | 2026-09-05 17:45:30 | 50.53853 | 18.17421 | 118° | 210km/h | 10473m | -4.8m/s | -49.2°C | 0% | 0hPa | 0V | 00:00:00 | 00:00:00 | 00:00:00 | |
| PETON7-10 | 2026-09-05 17:45:27 | 50.53936 | 18.17200 | 124° | 210km/h | 10497m | -4.7m/s | 0°C | 0% | 0hPa | 0V | 00:00:00 | 00:00:00 | 00:00:00 | |
| SQ6EMJ | 2026-09-05 17:45:23 | 50.54041 | 18.16910 | 123° | 219km/h | 10507m | -4.7m/s | -49.3°C | 0% | 0hPa | 0V | 00:00:00 | 00:00:00 | 00:00:00 | |
| OM5KV | 2026-09-05 17:45:18 | 50.54174 | 18.16549 | 122° | 221km/h | 10531m | -4.8m/s | -49.3°C | 0% | 0hPa | 0V | 00:00:00 | 00:00:00 | 00:00:00 | |
| POL1PZ12 | 2026-09-05 17:45:17 | 50.54203 | 18.16476 | 124° | 210km/h | 10536m | -4.7m/s | -49.3°C | 0% | 0hPa | 0V | 00:00:00 | 00:00:00 | 00:00:00 | |
| POL1PZ | 2026-09-05 17:45:13 | 50.54306 | 18.16189 | 121° | 219km/h | 10556m | -4.9m/s | -49.4°C | 0% | 0hPa | 0V | 00:00:00 | 00:00:00 | 00:00:00 | |
| PETON7-10 | 2026-09-05 17:45:12 | 50.54334 | 18.16117 | 123° | 203km/h | 10565m | -4.8m/s | 0°C | 0% | 0hPa | 0V | 00:00:00 | 00:00:00 | 00:00:00 | |
| SQ6EMJ | 2026-09-05 17:45:11 | 50.54361 | 18.16049 | 122° | 197km/h | 10565m | -4.8m/s | -49.4°C | 0% | 0hPa | 0V | 00:00:00 | 00:00:00 | 00:00:00 | |
| OM5KV | 2026-09-05 17:45:07 | 50.54464 | 18.15762 | 124° | 208km/h | 10584m | -4.9m/s | -49.5°C | 0% | 0hPa | 0V | 00:00:00 | 00:00:00 | 00:00:00 | |
| SQ6EMJ | 2026-09-05 17:45:06 | 50.54515 | 18.15627 | 119° | 195km/h | 10594m | -4.8m/s | -49.6°C | 0% | 0hPa | 0V | 00:00:00 | 00:00:00 | 00:00:00 | |
| OM5KV | 2026-09-05 17:45:02 | 50.54592 | 18.15411 | 124° | 208km/h | 10609m | -4.8m/s | -49.6°C | 0% | 0hPa | 0V | 00:00:00 | 00:00:00 | 00:00:00 | |
| SQ6EMJ | 2026-09-05 17:45:00 | 50.54666 | 18.15206 | 117° | 204km/h | 10624m | -4.9m/s | -49.7°C | 0% | 0hPa | 0V | 00:00:00 | 00:00:00 | 00:00:00 | |
| SP6BVK | 2026-09-05 17:44:58 | 50.54690 | 18.15133 | 120° | 214km/h | 10628m | -4.7m/s | -49.7°C | 0% | 0hPa | 0V | 00:00:00 | 00:00:00 | 00:00:00 | |
| PETON7-10 | 2026-09-05 17:44:57 | 50.54718 | 18.15061 | 123° | 204km/h | 10638m | -4.8m/s | 0°C | 0% | 0hPa | 0V | 00:00:00 | 00:00:00 | 00:00:00 | |
| POL1PZ12 | 2026-09-05 17:44:56 | 50.54745 | 18.14993 | 123° | 195km/h | 10638m | -4.9m/s | -49.7°C | 0% | 0hPa | 0V | 00:00:00 | 00:00:00 | 00:00:00 | |
| POL1PZ | 2026-09-05 17:44:52 | 50.54843 | 18.14708 | 122° | 212km/h | 10657m | -4.8m/s | -49.9°C | 0% | 0hPa | 0V | 00:00:00 | 00:00:00 | 00:00:00 | |
| SP3BTT-10 | 2026-09-05 17:44:47 | 50.54969 | 18.14351 | 123° | 206km/h | 10687m | -4.7m/s | 0°C | 0% | 0hPa | 0V | 00:00:00 | 00:00:00 | 00:00:00 | |
| OM5KV | 2026-09-05 17:44:45 | 50.55022 | 18.14215 | 120° | 193km/h | 10692m | -4.9m/s | -50.0°C | 0% | 0hPa | 0V | 00:00:00 | 00:00:00 | 00:00:00 | |
| PETON7-10 | 2026-09-05 17:44:42 | 50.55095 | 18.13997 | 121° | 204km/h | 10712m | -4.8m/s | 0°C | 0% | 0hPa | 0V | 00:00:00 | 00:00:00 | 00:00:00 | |
| OM5KV | 2026-09-05 17:44:39 | 50.55170 | 18.13790 | 117° | 201km/h | 10722m | -5.0m/s | -50.1°C | 0% | 0hPa | 0V | 00:00:00 | 00:00:00 | 00:00:00 | |
| OE3JTB-15 | 2026-09-05 17:44:37 | 50.55220 | 18.13642 | 121° | 206km/h | 10737m | -4.8m/s | 0°C | 0% | 0hPa | 0V | 00:00:00 | 00:00:00 | 00:00:00 | |
| POL1PZ12 | 2026-09-05 17:44:35 | 50.55274 | 18.13503 | 121° | 193km/h | 10742m | -5.0m/s | -50.1°C | 0% | 0hPa | 0V | 00:00:00 | 00:00:00 | 00:00:00 | |
| OM5KV | 2026-09-05 17:44:33 | 50.55321 | 18.13362 | 118° | 212km/h | 10752m | -4.9m/s | -50.1°C | 0% | 0hPa | 0V | 00:00:00 | 00:00:00 | 00:00:00 | |
| SQ6EMJ | 2026-09-05 17:44:30 | 50.55404 | 18.13149 | 122° | 195km/h | 10767m | -4.9m/s | -50.3°C | 0% | 0hPa | 0V | 00:00:00 | 00:00:00 | 00:00:00 | |
| PETON7-10 | 2026-09-05 17:44:27 | 50.55479 | 18.12935 | 121° | 206km/h | 10787m | -4.7m/s | 0°C | 0% | 0hPa | 0V | 00:00:00 | 00:00:00 | 00:00:00 | |
| SQ6EMJ | 2026-09-05 17:44:25 | 50.55560 | 18.12728 | 120° | 197km/h | 10797m | -4.9m/s | -50.5°C | 0% | 0hPa | 0V | 00:00:00 | 00:00:00 | 00:00:00 | |
| OM5KV | 2026-09-05 17:44:23 | 50.55611 | 18.12582 | 121° | 217km/h | 10807m | -4.8m/s | -50.5°C | 0% | 0hPa | 0V | 00:00:00 | 00:00:00 | 00:00:00 | |
| SQ6EMJ | 2026-09-05 17:44:19 | 50.55694 | 18.12375 | 121° | 197km/h | 10822m | -5.0m/s | -50.6°C | 0% | 0hPa | 0V | 00:00:00 | 00:00:00 | 00:00:00 | |
| SP3BTT-10 | 2026-09-05 17:44:17 | 50.55745 | 18.12227 | 124° | 199km/h | 10837m | -4.9m/s | 0°C | 0% | 0hPa | 0V | 00:00:00 | 00:00:00 | 00:00:00 | |
| POL1PZ12 | 2026-09-05 17:44:15 | 50.55803 | 18.12091 | 125° | 199km/h | 10842m | -4.8m/s | -50.7°C | 0% | 0hPa | 0V | 00:00:00 | 00:00:00 | 00:00:00 | |
| SQ6EMJ | 2026-09-05 17:44:14 | 50.55854 | 18.11955 | 119° | 204km/h | 10851m | -4.9m/s | -50.7°C | 0% | 0hPa | 0V | 00:00:00 | 00:00:00 | 00:00:00 | |
| OM5KV | 2026-09-05 17:44:12 | 50.55909 | 18.11811 | 125° | 210km/h | 10862m | -4.9m/s | -50.7°C | 0% | 0hPa | 0V | 00:00:00 | 00:00:00 | 00:00:00 | |
| POL1PZ | 2026-09-05 17:44:11 | 50.55909 | 18.11811 | 125° | 210km/h | 10862m | -4.9m/s | -50.7°C | 0% | 0hPa | 0V | 00:00:00 | 00:00:00 | 00:00:00 | |
| OE3JTB-15 | 2026-09-05 17:44:08 | 50.55988 | 18.11611 | 120° | 199km/h | 10881m | -4.9m/s | 0°C | 0% | 0hPa | 0V | 00:00:00 | 00:00:00 | 00:00:00 | |
| SQ6EMJ | 2026-09-05 17:44:07 | 50.56013 | 18.11540 | 121° | 210km/h | 10881m | -4.9m/s | -50.6°C | 0% | 0hPa | 0V | 00:00:00 | 00:00:00 | 00:00:00 | |
| SONDE2-11 | 2026-09-05 17:44:06 | 50.56040 | 18.11469 | 122° | 206km/h | 10886m | -4.8m/s | -51.3°C | -1.0% | -1.0hPa | 0V | 00:00:00 | 00:00:00 | 00:00:00 | |
| OM5KV | 2026-09-05 17:44:01 | 50.56195 | 18.11061 | 124° | 195km/h | 10915m | -4.9m/s | -50.6°C | 0% | 0hPa | 0V | 00:00:00 | 00:00:00 | 00:00:00 | |
| PETON7-10 | 2026-09-05 17:43:57 | 50.56267 | 18.10858 | 118° | 197km/h | 10936m | -5.0m/s | 0°C | 0% | 0hPa | 0V | 00:00:00 | 00:00:00 | 00:00:00 | |
| SP6BVK | 2026-09-05 17:43:56 | 50.56292 | 18.10786 | 122° | 208km/h | 10936m | -5.1m/s | -50.5°C | 0% | 0hPa | 0V | 00:00:00 | 00:00:00 | 00:00:00 | |
| POL1PZ12 | 2026-09-05 17:43:54 | 50.56344 | 18.10653 | 121° | 188km/h | 10946m | -5.1m/s | -50.5°C | 0% | 0hPa | 0V | 00:00:00 | 00:00:00 | 00:00:00 | |
| POL1PZ | 2026-09-05 17:43:51 | 50.56414 | 18.10442 | 121° | 208km/h | 10961m | -5.1m/s | -50.5°C | 0% | 0hPa | 0V | 00:00:00 | 00:00:00 | 00:00:00 | |
| OM5KV | 2026-09-05 17:43:49 | 50.56465 | 18.10307 | 120° | 186km/h | 10971m | -4.8m/s | -50.5°C | 0% | 0hPa | 0V | 00:00:00 | 00:00:00 | 00:00:00 | |
| SP3BTT-10 | 2026-09-05 17:43:47 | 50.56508 | 18.10167 | 119° | 201km/h | 10987m | -5.1m/s | 0°C | 0% | 0hPa | 0V | 00:00:00 | 00:00:00 | 00:00:00 | |
| SQ6EMJ | 2026-09-05 17:43:44 | 50.56601 | 18.09892 | 115° | 190km/h | 11002m | -5.0m/s | -50.3°C | 0% | 0hPa | 0V | 00:00:00 | 00:00:00 | 00:00:00 | |
| OM5KV | 2026-09-05 17:43:43 | 50.56601 | 18.09892 | 115° | 190km/h | 11002m | -5.0m/s | -50.3°C | 0% | 0hPa | 0V | 00:00:00 | 00:00:00 | 00:00:00 | |
| PETON7-10 | 2026-09-05 17:43:42 | 50.56621 | 18.09811 | 120° | 197km/h | 11012m | -4.7m/s | 0°C | 0% | 0hPa | 0V | 00:00:00 | 00:00:00 | 00:00:00 | |
| OE3JTB-15 | 2026-09-05 17:43:39 | 50.56690 | 18.09607 | 118° | 203km/h | 11027m | -5.0m/s | 0°C | 0% | 0hPa | 0V | 00:00:00 | 00:00:00 | 00:00:00 | |
| SQ6EMJ | 2026-09-05 17:43:38 | 50.56711 | 18.09540 | 114° | 188km/h | 11027m | -5.0m/s | -50.3°C | 0% | 0hPa | 0V | 00:00:00 | 00:00:00 | 00:00:00 | |
| SP6BVK | 2026-09-05 17:43:36 | 50.56751 | 18.09395 | 116° | 208km/h | 11037m | -4.9m/s | -50.3°C | 0% | 0hPa | 0V | 00:00:00 | 00:00:00 | 00:00:00 | |
| SQ6EMJ | 2026-09-05 17:43:33 | 50.56837 | 18.09116 | 113° | 199km/h | 11058m | -5.0m/s | -50.4°C | 0% | 0hPa | 0V | 00:00:00 | 00:00:00 | 00:00:00 | |
| OM5KV | 2026-09-05 17:43:32 | 50.56837 | 18.09116 | 113° | 199km/h | 11058m | -5.0m/s | -50.4°C | 0% | 0hPa | 0V | 00:00:00 | 00:00:00 | 00:00:00 | |
| POL1PZ | 2026-09-05 17:43:30 | 50.56880 | 18.08968 | 119° | 204km/h | 11068m | -4.9m/s | -50.4°C | 0% | 0hPa | 0V | 00:00:00 | 00:00:00 | 00:00:00 | |
| OM5KV | 2026-09-05 17:43:27 | 50.56964 | 18.08681 | 115° | 214km/h | 11088m | -5.0m/s | -50.0°C | 0% | 0hPa | 0V | 00:00:00 | 00:00:00 | 00:00:00 | |
| PETON7-10 | 2026-09-05 17:43:26 | 50.56964 | 18.08680 | 115° | 204km/h | 11093m | -4.8m/s | 0°C | 0% | 0hPa | 0V | 00:00:00 | 00:00:00 | 00:00:00 | |
| OM5KV | 2026-09-05 17:43:21 | 50.57075 | 18.08314 | 115° | 215km/h | 11112m | -5.0m/s | -50.0°C | 0% | 0hPa | 0V | 00:00:00 | 00:00:00 | 00:00:00 | |
| SP3BTT-10 | 2026-09-05 17:43:17 | 50.57168 | 18.08022 | 114° | 210km/h | 11136m | -4.8m/s | 0°C | 0% | 0hPa | 0V | 00:00:00 | 00:00:00 | 00:00:00 | |
| SP6BVK | 2026-09-05 17:43:16 | 50.57214 | 18.07869 | 119° | 217km/h | 11141m | -4.9m/s | -50.1°C | 0% | 0hPa | 0V | 00:00:00 | 00:00:00 | 00:00:00 | |
| OM5KV | 2026-09-05 17:43:15 | 50.57214 | 18.07869 | 119° | 217km/h | 11141m | -4.9m/s | -50.1°C | 0% | 0hPa | 0V | 00:00:00 | 00:00:00 | 00:00:00 | |
| PETON7-10 | 2026-09-05 17:43:11 | 50.57307 | 18.07577 | 115° | 208km/h | 11175m | -4.9m/s | 0°C | 0% | 0hPa | 0V | 00:00:00 | 00:00:00 | 00:00:00 | |
| OE3JTB-15 | 2026-09-05 17:43:10 | 50.57332 | 18.07495 | 120° | 210km/h | 11171m | -4.7m/s | 0°C | 0% | 0hPa | 0V | 00:00:00 | 00:00:00 | 00:00:00 | |
| SQ6EMJ | 2026-09-05 17:43:05 | 50.57477 | 18.07054 | 121° | 210km/h | 11196m | -4.7m/s | -50.5°C | 0% | 0hPa | 0V | 00:00:00 | 00:00:00 | 00:00:00 | |
| SONDE2-11 | 2026-09-05 17:43:04 | 50.57503 | 18.06984 | 118° | 199km/h | 11200m | -4.8m/s | -51.2°C | 0% | -1.0hPa | 0V | 00:00:00 | 00:00:00 | 00:00:00 | |
| EDDB2-11 | 2026-09-05 17:43:03 | 50.57549 | 18.06837 | 114° | 215km/h | 11210m | -4.8m/s | -51.2°C | -1.0% | -1.0hPa | 0V | 00:00:00 | 00:00:00 | 00:00:00 | |
| SQ6EMJ | 2026-09-05 17:42:59 | 50.57626 | 18.06613 | 120° | 201km/h | 11224m | -4.8m/s | -50.7°C | 0% | 0hPa | 0V | 00:00:00 | 00:00:00 | 00:00:00 | |
| OM5KV | 2026-09-05 17:42:58 | 50.57626 | 18.06613 | 120° | 201km/h | 11224m | -4.8m/s | -50.7°C | 0% | 0hPa | 0V | 00:00:00 | 00:00:00 | 00:00:00 | |
| PETON7-10 | 2026-09-05 17:42:56 | 50.57672 | 18.06467 | 116° | 210km/h | 11243m | -4.9m/s | 0°C | 0% | 0hPa | 0V | 00:00:00 | 00:00:00 | 00:00:00 | |
| SP6BVK | 2026-09-05 17:42:55 | 50.57697 | 18.06389 | 119° | 223km/h | 11239m | -4.8m/s | -50.8°C | 0% | 0hPa | 0V | 00:00:00 | 00:00:00 | 00:00:00 | |
| SQ6EMJ | 2026-09-05 17:42:54 | 50.57750 | 18.06242 | 121° | 201km/h | 11248m | -4.8m/s | -50.9°C | 0% | 0hPa | 0V | 00:00:00 | 00:00:00 | 00:00:00 | |
| OM5KV | 2026-09-05 17:42:53 | 50.57750 | 18.06242 | 121° | 201km/h | 11248m | -4.8m/s | -50.9°C | 0% | 0hPa | 0V | 00:00:00 | 00:00:00 | 00:00:00 | |
| POL1PZ | 2026-09-05 17:42:49 | 50.57849 | 18.05943 | 122° | 215km/h | 11268m | -4.9m/s | -51.0°C | 0% | 0hPa | 0V | 00:00:00 | 00:00:00 | 00:00:00 | |
| SQ6EMJ | 2026-09-05 17:42:48 | 50.57901 | 18.05801 | 117° | 203km/h | 11278m | -5.0m/s | -51.1°C | 0% | 0hPa | 0V | 00:00:00 | 00:00:00 | 00:00:00 | |
| SP3BTT-10 | 2026-09-05 17:42:47 | 50.57901 | 18.05801 | 117° | 215km/h | 11282m | -4.7m/s | 0°C | 0% | 0hPa | 0V | 00:00:00 | 00:00:00 | 00:00:00 | |
| OM5KV | 2026-09-05 17:42:42 | 50.58028 | 18.05429 | 118° | 203km/h | 11302m | -4.7m/s | -51.3°C | 0% | 0hPa | 0V | 00:00:00 | 00:00:00 | 00:00:00 | |
| OE3JTB-15 | 2026-09-05 17:42:41 | 50.58052 | 18.05355 | 116° | 219km/h | 11311m | -4.8m/s | 0°C | 0% | 0hPa | 0V | 00:00:00 | 00:00:00 | 00:00:00 | |
| PETON7-10 | 2026-09-05 17:42:40 | 50.58077 | 18.05273 | 122° | 214km/h | 11316m | -4.7m/s | 0°C | 0% | 0hPa | 0V | 00:00:00 | 00:00:00 | 00:00:00 | |
| SQ6EMJ | 2026-09-05 17:42:37 | 50.58184 | 18.04987 | 117° | 214km/h | 11330m | -4.7m/s | -51.4°C | 0% | 0hPa | 0V | 00:00:00 | 00:00:00 | 00:00:00 | |
| OM5KV | 2026-09-05 17:42:36 | 50.58184 | 18.04987 | 117° | 214km/h | 11330m | -4.7m/s | -51.4°C | 0% | 0hPa | 0V | 00:00:00 | 00:00:00 | 00:00:00 | |
| SP6BVK | 2026-09-05 17:42:34 | 50.58237 | 18.04833 | 123° | 221km/h | 11340m | -4.6m/s | -51.4°C | 0% | 0hPa | 0V | 00:00:00 | 00:00:00 | 00:00:00 | |
| SQ6EMJ | 2026-09-05 17:42:31 | 50.58343 | 18.04539 | 119° | 226km/h | 11360m | -4.7m/s | -51.4°C | 0% | 0hPa | 0V | 00:00:00 | 00:00:00 | 00:00:00 | |
| OM5KV | 2026-09-05 17:42:30 | 50.58343 | 18.04539 | 119° | 226km/h | 11360m | -4.7m/s | -51.4°C | 0% | 0hPa | 0V | 00:00:00 | 00:00:00 | 00:00:00 | |
| POL1PZ | 2026-09-05 17:42:29 | 50.58371 | 18.04461 | 123° | 224km/h | 11364m | -4.7m/s | -51.4°C | 0% | 0hPa | 0V | 00:00:00 | 00:00:00 | 00:00:00 | |
| SQ6EMJ | 2026-09-05 17:42:26 | 50.58480 | 18.04165 | 120° | 230km/h | 11384m | -4.7m/s | -51.1°C | 0% | 0hPa | 0V | 00:00:00 | 00:00:00 | 00:00:00 | |
| PETON7-10 | 2026-09-05 17:42:25 | 50.58480 | 18.04155 | 124° | 219km/h | 11393m | -4.8m/s | 0°C | 0% | 0hPa | 0V | 00:00:00 | 00:00:00 | 00:00:00 | |
| SQ6EMJ | 2026-09-05 17:42:20 | 50.58650 | 18.03713 | 124° | 230km/h | 11413m | -4.8m/s | -51.0°C | 0% | 0hPa | 0V | 00:00:00 | 00:00:00 | 00:00:00 | |
| OM5KV | 2026-09-05 17:42:19 | 50.58650 | 18.03713 | 124° | 230km/h | 11413m | -4.8m/s | -51.0°C | 0% | 0hPa | 0V | 00:00:00 | 00:00:00 | 00:00:00 | |
| SP3BTT-10 | 2026-09-05 17:42:17 | 50.58710 | 18.03568 | 122° | 217km/h | 11427m | -4.9m/s | 0°C | 0% | 0hPa | 0V | 00:00:00 | 00:00:00 | 00:00:00 | |
| SQ6EMJ | 2026-09-05 17:42:15 | 50.58795 | 18.03339 | 124° | 232km/h | 11437m | -4.6m/s | -51.0°C | 0% | 0hPa | 0V | 00:00:00 | 00:00:00 | 00:00:00 | |
| OM5KV | 2026-09-05 17:42:14 | 50.58795 | 18.03339 | 124° | 232km/h | 11437m | -4.6m/s | -51.0°C | 0% | 0hPa | 0V | 00:00:00 | 00:00:00 | 00:00:00 | |
| OE3JTB-15 | 2026-09-05 17:42:12 | 50.58857 | 18.03198 | 120° | 219km/h | 11452m | -4.9m/s | 0°C | 0% | 0hPa | 0V | 00:00:00 | 00:00:00 | 00:00:00 | |
| PETON7-10 | 2026-09-05 17:42:10 | 50.58912 | 18.03041 | 124° | 223km/h | 11461m | -4.7m/s | 0°C | 0% | 0hPa | 0V | 00:00:00 | 00:00:00 | 00:00:00 | |
| POL1PZ | 2026-09-05 17:42:09 | 50.58975 | 18.02893 | 127° | 219km/h | 11466m | -4.9m/s | -51.0°C | 0% | 0hPa | 0V | 00:00:00 | 00:00:00 | 00:00:00 | |
| SQ6EMJ | 2026-09-05 17:42:04 | 50.59158 | 18.02452 | 125° | 212km/h | 11496m | -4.8m/s | -51.0°C | 0% | 0hPa | 0V | 00:00:00 | 00:00:00 | 00:00:00 | |
| OM5KV | 2026-09-05 17:42:03 | 50.59158 | 18.02452 | 125° | 212km/h | 11496m | -4.8m/s | -51.0°C | 0% | 0hPa | 0V | 00:00:00 | 00:00:00 | 00:00:00 | |
| SONDE2-11 | 2026-09-05 17:42:02 | 50.59187 | 18.02380 | 120° | 215km/h | 11500m | -4.8m/s | -51.7°C | -1.0% | -1.0hPa | 0V | 00:00:00 | 00:00:00 | 00:00:00 | |
| OM5KV | 2026-09-05 17:41:57 | 50.59312 | 18.02080 | 125° | 212km/h | 11520m | -4.8m/s | -51.1°C | 0% | 0hPa | 0V | 00:00:00 | 00:00:00 | 00:00:00 | |
| PETON7-10 | 2026-09-05 17:41:55 | 50.59367 | 18.01933 | 121° | 219km/h | 11530m | -4.8m/s | 0°C | 0% | 0hPa | 0V | 00:00:00 | 00:00:00 | 00:00:00 | |
| SP6BVK | 2026-09-05 17:41:54 | 50.59434 | 18.01781 | 127° | 223km/h | 11540m | -4.7m/s | -51.1°C | 0% | 0hPa | 0V | 00:00:00 | 00:00:00 | 00:00:00 | |
| SQ6EMJ | 2026-09-05 17:41:52 | 50.59494 | 18.01642 | 122° | 212km/h | 11549m | -4.8m/s | -51.1°C | 0% | 0hPa | 0V | 00:00:00 | 00:00:00 | 00:00:00 | |
| OM5KV | 2026-09-05 17:41:51 | 50.59494 | 18.01642 | 122° | 212km/h | 11549m | -4.8m/s | -51.1°C | 0% | 0hPa | 0V | 00:00:00 | 00:00:00 | 00:00:00 | |
| POL1PZ | 2026-09-05 17:41:48 | 50.59619 | 18.01349 | 127° | 208km/h | 11569m | -4.8m/s | -51.0°C | 0% | 0hPa | 0V | 00:00:00 | 00:00:00 | 00:00:00 | |
| SQ6EMJ | 2026-09-05 17:41:47 | 50.59648 | 18.01280 | 123° | 208km/h | 11574m | -4.9m/s | -51.0°C | 0% | 0hPa | 0V | 00:00:00 | 00:00:00 | 00:00:00 | |
| OM5KV | 2026-09-05 17:41:46 | 50.59648 | 18.01280 | 123° | 208km/h | 11574m | -4.9m/s | -51.0°C | 0% | 0hPa | 0V | 00:00:00 | 00:00:00 | 00:00:00 | |
| OE3JTB-15 | 2026-09-05 17:41:43 | 50.59741 | 18.01062 | 128° | 210km/h | 11594m | -4.9m/s | 0°C | 0% | 0hPa | 0V | 00:00:00 | 00:00:00 | 00:00:00 | |
| OM5KV | 2026-09-05 17:41:41 | 50.59832 | 18.00857 | 123° | 219km/h | 11604m | -4.9m/s | -51.0°C | 0% | 0hPa | 0V | 00:00:00 | 00:00:00 | 00:00:00 | |
| PETON7-10 | 2026-09-05 17:41:40 | 50.59832 | 18.00857 | 123° | 212km/h | 11609m | -5.0m/s | 0°C | 0% | 0hPa | 0V | 00:00:00 | 00:00:00 | 00:00:00 | |
| SQ6EMJ | 2026-09-05 17:41:35 | 50.60019 | 18.00441 | 127° | 223km/h | 11634m | -4.9m/s | -50.9°C | 0% | 0hPa | 0V | 00:00:00 | 00:00:00 | 00:00:00 | |
| OM5KV | 2026-09-05 17:41:34 | 50.60019 | 18.00441 | 127° | 223km/h | 11634m | -4.9m/s | -50.9°C | 0% | 0hPa | 0V | 00:00:00 | 00:00:00 | 00:00:00 | |
| SP6BVK | 2026-09-05 17:41:33 | 50.60053 | 18.00372 | 130° | 215km/h | 11639m | -4.9m/s | -50.9°C | 0% | 0hPa | 0V | 00:00:00 | 00:00:00 | 00:00:00 | |
| SP3BTT-10 | 2026-09-05 17:41:30 | 50.60145 | 18.00173 | 124° | 206km/h | 11660m | -4.9m/s | 0°C | 0% | 0hPa | 0V | 00:00:00 | 00:00:00 | 00:00:00 | |
| OM5KV | 2026-09-05 17:41:29 | 50.60177 | 18.00101 | 128° | 223km/h | 11660m | -5.0m/s | -50.9°C | 0% | 0hPa | 0V | 00:00:00 | 00:00:00 | 00:00:00 | |
| POL1PZ | 2026-09-05 17:41:27 | 50.60245 | 17.99969 | 130° | 203km/h | 11670m | -5.2m/s | -50.9°C | 0% | 0hPa | 0V | 00:00:00 | 00:00:00 | 00:00:00 | |
| SQ6EMJ | 2026-09-05 17:41:24 | 50.60372 | 17.99702 | 132° | 214km/h | 11691m | -4.9m/s | -50.9°C | 0% | 0hPa | 0V | 00:00:00 | 00:00:00 | 00:00:00 | |
| OM5KV | 2026-09-05 17:41:23 | 50.60372 | 17.99702 | 132° | 214km/h | 11691m | -4.9m/s | -50.9°C | 0% | 0hPa | 0V | 00:00:00 | 00:00:00 | 00:00:00 | |
| OM5KV | 2026-09-05 17:41:18 | 50.60535 | 17.99377 | 132° | 214km/h | 11717m | -4.7m/s | -50.9°C | 0% | 0hPa | 0V | 00:00:00 | 00:00:00 | 00:00:00 | |
| OE3JTB-15 | 2026-09-05 17:41:14 | 50.60669 | 17.99121 | 128° | 195km/h | 11737m | -5.0m/s | 0°C | 0% | 0hPa | 0V | 00:00:00 | 00:00:00 | 00:00:00 | |
| SP6BVK | 2026-09-05 17:41:13 | 50.60732 | 17.98993 | 132° | 201km/h | 11747m | -5.2m/s | -51.2°C | 0% | 0hPa | 0V | 00:00:00 | 00:00:00 | 00:00:00 | |
| PETON7-10 | 2026-09-05 17:41:10 | 50.60794 | 17.98869 | 126° | 203km/h | 11763m | -4.9m/s | 0°C | 0% | 0hPa | 0V | 00:00:00 | 00:00:00 | 00:00:00 | |
| SQ6EMJ | 2026-09-05 17:41:07 | 50.60927 | 17.98615 | 129° | 192km/h | 11778m | -5.1m/s | -51.3°C | 0% | 0hPa | 0V | 00:00:00 | 00:00:00 | 00:00:00 | |
| OM5KV | 2026-09-05 17:41:06 | 50.60927 | 17.98615 | 129° | 192km/h | 11778m | -5.1m/s | -51.3°C | 0% | 0hPa | 0V | 00:00:00 | 00:00:00 | 00:00:00 | |
| SQ6EMJ | 2026-09-05 17:41:02 | 50.61087 | 17.98302 | 130° | 190km/h | 11805m | -5.2m/s | -51.5°C | 0% | 0hPa | 0V | 00:00:00 | 00:00:00 | 00:00:00 | |
| OM5KV | 2026-09-05 17:41:01 | 50.61087 | 17.98302 | 130° | 190km/h | 11805m | -5.2m/s | -51.5°C | 0% | 0hPa | 0V | 00:00:00 | 00:00:00 | 00:00:00 | |
| SP3BTT-10 | 2026-09-05 17:41:00 | 50.61117 | 17.98241 | 126° | 183km/h | 11815m | -5.2m/s | 0°C | 0% | 0hPa | 0V | 00:00:00 | 00:00:00 | 00:00:00 | |
| SQ6EMJ | 2026-09-05 17:40:56 | 50.61275 | 17.97933 | 127° | 190km/h | 11836m | -5.0m/s | -51.6°C | 0% | 0hPa | 0V | 00:00:00 | 00:00:00 | 00:00:00 | |
| PETON7-10 | 2026-09-05 17:40:55 | 50.61275 | 17.97933 | 126° | 192km/h | 11841m | -5.1m/s | 0°C | 0% | 0hPa | 0V | 00:00:00 | 00:00:00 | 00:00:00 | |
| SP6BVK | 2026-09-05 17:40:51 | 50.61401 | 17.97689 | 131° | 184km/h | 11857m | -5.1m/s | -51.6°C | 0% | 0hPa | 0V | 00:00:00 | 00:00:00 | 00:00:00 | |
| SQ6EMJ | 2026-09-05 17:40:50 | 50.61457 | 17.97568 | 127° | 199km/h | 11867m | -5.4m/s | -51.6°C | 0% | 0hPa | 0V | 00:00:00 | 00:00:00 | 00:00:00 | |
| POL1PZ | 2026-09-05 17:40:46 | 50.61552 | 17.97388 | 131° | 181km/h | 11883m | -5.3m/s | -51.6°C | 0% | 0hPa | 0V | 00:00:00 | 00:00:00 | 00:00:00 | |
| SQ6EMJ | 2026-09-05 17:40:44 | 50.61637 | 17.97207 | 130° | 201km/h | 11899m | -5.3m/s | -51.7°C | 0% | 0hPa | 0V | 00:00:00 | 00:00:00 | 00:00:00 | |
| PETON7-10 | 2026-09-05 17:40:40 | 50.61726 | 17.97036 | 125° | 183km/h | 11921m | -5.1m/s | 0°C | 0% | 0hPa | 0V | 00:00:00 | 00:00:00 | 00:00:00 | |
| OM5KV | 2026-09-05 17:40:38 | 50.61783 | 17.96911 | 129° | 199km/h | 11926m | -5.2m/s | -51.7°C | 0% | 0hPa | 0V | 00:00:00 | 00:00:00 | 00:00:00 | |
| SQ6EMJ | 2026-09-05 17:40:37 | 50.61843 | 17.96798 | 130° | 172km/h | 11936m | -5.4m/s | -51.7°C | 0% | 0hPa | 0V | 00:00:00 | 00:00:00 | 00:00:00 | |
| OM5KV | 2026-09-05 17:40:33 | 50.61923 | 17.96619 | 128° | 193km/h | 11952m | -5.4m/s | -51.6°C | 0% | 0hPa | 0V | 00:00:00 | 00:00:00 | 00:00:00 | |
| SQ6EMJ | 2026-09-05 17:40:31 | 50.61981 | 17.96507 | 129° | 170km/h | 11962m | -5.4m/s | -51.6°C | 0% | 0hPa | 0V | 00:00:00 | 00:00:00 | 00:00:00 | |
| OM5KV | 2026-09-05 17:40:27 | 50.62087 | 17.96273 | 131° | 181km/h | 11985m | -5.2m/s | -51.7°C | 0% | 0hPa | 0V | 00:00:00 | 00:00:00 | 00:00:00 | |
| PETON7-10 | 2026-09-05 17:40:25 | 50.62139 | 17.96165 | 123° | 175km/h | 12002m | -5.4m/s | 0°C | 0% | 0hPa | 0V | 00:00:00 | 00:00:00 | 00:00:00 | |
| OM5KV | 2026-09-05 17:40:22 | 50.62217 | 17.95988 | 130° | 177km/h | 12012m | -5.3m/s | -51.9°C | 0% | 0hPa | 0V | 00:00:00 | 00:00:00 | 00:00:00 | |
| SQ6EMJ | 2026-09-05 17:40:20 | 50.62268 | 17.95882 | 123° | 166km/h | 12023m | -5.3m/s | -52.0°C | 0% | 0hPa | 0V | 00:00:00 | 00:00:00 | 00:00:00 | |
| OM5KV | 2026-09-05 17:40:17 | 50.62374 | 17.95654 | 128° | 161km/h | 12044m | -5.3m/s | -52.1°C | 0% | 0hPa | 0V | 00:00:00 | 00:00:00 | 00:00:00 | |
| OE3JTB-15 | 2026-09-05 17:40:15 | 50.62397 | 17.95601 | 122° | 168km/h | 12055m | -5.3m/s | 0°C | 0% | 0hPa | 0V | 00:00:00 | 00:00:00 | 00:00:00 | |
| PETON7-10 | 2026-09-05 17:40:10 | 50.62519 | 17.95319 | 121° | 166km/h | 12083m | -5.3m/s | 0°C | 0% | 0hPa | 0V | 00:00:00 | 00:00:00 | 00:00:00 | |
| SQ6EMJ | 2026-09-05 17:40:08 | 50.62564 | 17.95202 | 125° | 181km/h | 12088m | -5.3m/s | -52.2°C | 0% | 0hPa | 0V | 00:00:00 | 00:00:00 | 00:00:00 | |
| POL1PZ | 2026-09-05 17:40:05 | 50.62636 | 17.95041 | 121° | 157km/h | 12104m | -5.5m/s | -52.2°C | 0% | 0hPa | 0V | 00:00:00 | 00:00:00 | 00:00:00 | |
| SQ6EMJ | 2026-09-05 17:40:03 | 50.62680 | 17.94924 | 124° | 179km/h | 12115m | -5.5m/s | -52.1°C | 0% | 0hPa | 0V | 00:00:00 | 00:00:00 | 00:00:00 | |
| OM5KV | 2026-09-05 17:39:59 | 50.62769 | 17.94706 | 119° | 170km/h | 12138m | -5.4m/s | -52.2°C | 0% | 0hPa | 0V | 00:00:00 | 00:00:00 | 00:00:00 | |
| SQ6EMJ | 2026-09-05 17:39:56 | 50.62857 | 17.94486 | 118° | 155km/h | 12160m | -5.6m/s | -52.1°C | 0% | 0hPa | 0V | 00:00:00 | 00:00:00 | 00:00:00 | |
| OM5KV | 2026-09-05 17:39:54 | 50.62876 | 17.94429 | 118° | 170km/h | 12166m | -5.5m/s | -52.1°C | 0% | 0hPa | 0V | 00:00:00 | 00:00:00 | 00:00:00 | |
| SP6BVK | 2026-09-05 17:39:50 | 50.62960 | 17.94209 | 117° | 153km/h | 12189m | -5.5m/s | -52.1°C | 0% | 0hPa | 0V | 00:00:00 | 00:00:00 | 00:00:00 | |
| OM5KV | 2026-09-05 17:39:48 | 50.62999 | 17.94092 | 122° | 172km/h | 12200m | -5.5m/s | -52.1°C | 0% | 0hPa | 0V | 00:00:00 | 00:00:00 | 00:00:00 | |
| SP3BTT-10 | 2026-09-05 17:39:46 | 50.63041 | 17.93984 | 120° | 146km/h | 12217m | -5.4m/s | 0°C | 0% | 0hPa | 0V | 00:00:00 | 00:00:00 | 00:00:00 | |
| SQ6EMJ | 2026-09-05 17:39:45 | 50.63076 | 17.93873 | 116° | 168km/h | 12222m | -5.5m/s | -52.0°C | 0% | 0hPa | 0V | 00:00:00 | 00:00:00 | 00:00:00 | |
| POL1PZ | 2026-09-05 17:39:44 | 50.63076 | 17.93873 | 116° | 168km/h | 12222m | -5.5m/s | -52.0°C | 0% | 0hPa | 0V | 00:00:00 | 00:00:00 | 00:00:00 | |
| OM5KV | 2026-09-05 17:39:42 | 50.63117 | 17.93758 | 124° | 155km/h | 12233m | -5.6m/s | -51.9°C | 0% | 0hPa | 0V | 00:00:00 | 00:00:00 | 00:00:00 | |
| SQ6EMJ | 2026-09-05 17:39:38 | 50.63188 | 17.93539 | 121° | 166km/h | 12256m | -5.5m/s | -51.7°C | 0% | 0hPa | 0V | 00:00:00 | 00:00:00 | 00:00:00 | |
| OM5KV | 2026-09-05 17:39:31 | 50.63320 | 17.93163 | 119° | 141km/h | 12295m | -5.5m/s | -51.3°C | 0% | 0hPa | 0V | 00:00:00 | 00:00:00 | 00:00:00 | |
| OM5KV | 2026-09-05 17:39:26 | 50.63410 | 17.92899 | 120° | 137km/h | 12323m | -5.7m/s | -51.0°C | 0% | 0hPa | 0V | 00:00:00 | 00:00:00 | 00:00:00 | |
| POL1PZ | 2026-09-05 17:39:24 | 50.63443 | 17.92794 | 118° | 159km/h | 12334m | -5.6m/s | -50.9°C | 0% | 0hPa | 0V | 00:00:00 | 00:00:00 | 00:00:00 | |
| OM5KV | 2026-09-05 17:39:20 | 50.63518 | 17.92593 | 115° | 144km/h | 12356m | -5.5m/s | -50.8°C | 0% | 0hPa | 0V | 00:00:00 | 00:00:00 | 00:00:00 | |
| OE3JTB-15 | 2026-09-05 17:39:19 | 50.63534 | 17.92539 | 117° | 148km/h | 12367m | -5.6m/s | 0°C | 0% | 0hPa | 0V | 00:00:00 | 00:00:00 | 00:00:00 | |
| SQ6EMJ | 2026-09-05 17:39:14 | 50.63640 | 17.92229 | 123° | 153km/h | 12395m | -5.5m/s | -50.7°C | 0% | 0hPa | 0V | 00:00:00 | 00:00:00 | 00:00:00 | |
| OM5KV | 2026-09-05 17:39:09 | 50.63708 | 17.92031 | 117° | 153km/h | 12418m | -5.7m/s | -50.7°C | 0% | 0hPa | 0V | 00:00:00 | 00:00:00 | 00:00:00 | |
| POL1PZ | 2026-09-05 17:39:03 | 50.63810 | 17.91731 | 123° | 150km/h | 12452m | -5.5m/s | -50.8°C | 0% | 0hPa | 0V | 00:00:00 | 00:00:00 | 00:00:00 | |
| SP3BTT-10 | 2026-09-05 17:39:01 | 50.63846 | 17.91638 | 118° | 137km/h | 12469m | -5.4m/s | 0°C | 0% | 0hPa | 0V | 00:00:00 | 00:00:00 | 00:00:00 | |
| OM5KV | 2026-09-05 17:38:58 | 50.63894 | 17.91486 | 122° | 148km/h | 12480m | -5.5m/s | -51.0°C | 0% | 0hPa | 0V | 00:00:00 | 00:00:00 | 00:00:00 | |
| OM5KV | 2026-09-05 17:38:53 | 50.63993 | 17.91194 | 123° | 131km/h | 12513m | -5.5m/s | -51.2°C | 0% | 0hPa | 0V | 00:00:00 | 00:00:00 | 00:00:00 | |
| SP6BVK | 2026-09-05 17:38:48 | 50.64054 | 17.90998 | 122° | 144km/h | 12536m | -5.4m/s | -51.3°C | 0% | 0hPa | 0V | 00:00:00 | 00:00:00 | 00:00:00 | |
| OM5KV | 2026-09-05 17:38:47 | 50.64086 | 17.90906 | 116° | 126km/h | 12547m | -5.4m/s | -51.3°C | 0% | 0hPa | 0V | 00:00:00 | 00:00:00 | 00:00:00 | |
| POL1PZ | 2026-09-05 17:38:43 | 50.64132 | 17.90753 | 122° | 146km/h | 12564m | -5.4m/s | -51.3°C | 0% | 0hPa | 0V | 00:00:00 | 00:00:00 | 00:00:00 | |
| OM5KV | 2026-09-05 17:38:41 | 50.64166 | 17.90660 | 116° | 128km/h | 12575m | -5.6m/s | -51.4°C | 0% | 0hPa | 0V | 00:00:00 | 00:00:00 | 00:00:00 | |
| SQ6EMJ | 2026-09-05 17:38:40 | 50.64180 | 17.90611 | 113° | 142km/h | 12581m | -5.6m/s | -51.4°C | 0% | 0hPa | 0V | 00:00:00 | 00:00:00 | 00:00:00 | |
| PETON7-10 | 2026-09-05 17:38:39 | 50.64195 | 17.90510 | 115° | 137km/h | 12603m | -5.4m/s | 0°C | 0% | 0hPa | 0V | 00:00:00 | 00:00:00 | 00:00:00 | |
| OM5KV | 2026-09-05 17:38:35 | 50.64259 | 17.90363 | 112° | 141km/h | 12609m | -5.6m/s | -51.3°C | 0% | 0hPa | 0V | 00:00:00 | 00:00:00 | 00:00:00 | |
| SQ6EMJ | 2026-09-05 17:38:32 | 50.64324 | 17.90165 | 115° | 128km/h | 12632m | -5.5m/s | -51.4°C | 0% | 0hPa | 0V | 00:00:00 | 00:00:00 | 00:00:00 | |
| OM5KV | 2026-09-05 17:38:29 | 50.64352 | 17.90062 | 116° | 150km/h | 12643m | -5.7m/s | -51.4°C | 0% | 0hPa | 0V | 00:00:00 | 00:00:00 | 00:00:00 | |
| SP6BVK | 2026-09-05 17:38:28 | 50.64369 | 17.90010 | 121° | 144km/h | 12649m | -5.7m/s | -51.4°C | 0% | 0hPa | 0V | 00:00:00 | 00:00:00 | 00:00:00 | |
| SQ6EMJ | 2026-09-05 17:38:26 | 50.64412 | 17.89870 | 111° | 141km/h | 12666m | -5.6m/s | -51.4°C | 0% | 0hPa | 0V | 00:00:00 | 00:00:00 | 00:00:00 | |
| OM5KV | 2026-09-05 17:38:23 | 50.64459 | 17.89720 | 119° | 124km/h | 12683m | -5.6m/s | -51.4°C | 0% | 0hPa | 0V | 00:00:00 | 00:00:00 | 00:00:00 | |
| POL1PZ | 2026-09-05 17:38:22 | 50.64459 | 17.89720 | 119° | 124km/h | 12683m | -5.6m/s | -51.4°C | 0% | 0hPa | 0V | 00:00:00 | 00:00:00 | 00:00:00 | |
| SQ6EMJ | 2026-09-05 17:38:17 | 50.64540 | 17.89434 | 110° | 124km/h | 12717m | -5.7m/s | -51.3°C | 0% | 0hPa | 0V | 00:00:00 | 00:00:00 | 00:00:00 | |
| OM5KV | 2026-09-05 17:38:16 | 50.64540 | 17.89434 | 110° | 124km/h | 12717m | -5.7m/s | -51.3°C | 0% | 0hPa | 0V | 00:00:00 | 00:00:00 | 00:00:00 | |
| SP3BTT-10 | 2026-09-05 17:38:15 | 50.64551 | 17.89385 | 110° | 133km/h | 12723m | -5.7m/s | 0°C | 0% | 0hPa | 0V | 00:00:00 | 00:00:00 | 00:00:00 | |
| SQ6EMJ | 2026-09-05 17:38:12 | 50.64607 | 17.89192 | 110° | 126km/h | 12746m | -5.7m/s | -51.2°C | 0% | 0hPa | 0V | 00:00:00 | 00:00:00 | 00:00:00 | |
| OM5KV | 2026-09-05 17:38:10 | 50.64618 | 17.89142 | 110° | 142km/h | 12752m | -5.8m/s | -51.2°C | 0% | 0hPa | 0V | 00:00:00 | 00:00:00 | 00:00:00 | |
| PETON7-10 | 2026-09-05 17:38:07 | 50.64663 | 17.88992 | 116° | 133km/h | 12774m | -5.5m/s | 0°C | 0% | 0hPa | 0V | 00:00:00 | 00:00:00 | 00:00:00 | |
| SQ6EMJ | 2026-09-05 17:38:05 | 50.64686 | 17.88893 | 110° | 144km/h | 12780m | -5.7m/s | -51.1°C | 0% | 0hPa | 0V | 00:00:00 | 00:00:00 | 00:00:00 | |
| OM5KV | 2026-09-05 17:38:03 | 50.64716 | 17.88789 | 119° | 135km/h | 12792m | -5.7m/s | -51.2°C | 0% | 0hPa | 0V | 00:00:00 | 00:00:00 | 00:00:00 | |
| POL1PZ | 2026-09-05 17:38:02 | 50.64730 | 17.88743 | 115° | 122km/h | 12798m | -5.8m/s | -51.2°C | 0% | 0hPa | 0V | 00:00:00 | 00:00:00 | 00:00:00 | |
| SQ6EMJ | 2026-09-05 17:38:01 | 50.64753 | 17.88645 | 109° | 144km/h | 12809m | -5.8m/s | -51.2°C | 0% | 0hPa | 0V | 00:00:00 | 00:00:00 | 00:00:00 | |
| OM5KV | 2026-09-05 17:37:56 | 50.64806 | 17.88448 | 108° | 130km/h | 12832m | -5.5m/s | -51.3°C | 0% | 0hPa | 0V | 00:00:00 | 00:00:00 | 00:00:00 | |
| SQ6EMJ | 2026-09-05 17:37:55 | 50.64830 | 17.88342 | 115° | 146km/h | 12844m | -5.7m/s | -51.3°C | 0% | 0hPa | 0V | 00:00:00 | 00:00:00 | 00:00:00 | |
| PETON7-10 | 2026-09-05 17:37:50 | 50.64877 | 17.88145 | 107° | 133km/h | 12873m | -5.5m/s | 0°C | 0% | 0hPa | 0V | 00:00:00 | 00:00:00 | 00:00:00 | |
| SQ6EMJ | 2026-09-05 17:37:49 | 50.64889 | 17.88042 | 116° | 144km/h | 12878m | -5.9m/s | -51.1°C | 0% | 0hPa | 0V | 00:00:00 | 00:00:00 | 00:00:00 | |
| SP6BVK | 2026-09-05 17:37:47 | 50.64915 | 17.87996 | 111° | 120km/h | 12885m | -5.8m/s | -51.1°C | 0% | 0hPa | 0V | 00:00:00 | 00:00:00 | 00:00:00 | |
| OM5KV | 2026-09-05 17:37:44 | 50.64945 | 17.87843 | 114° | 142km/h | 12902m | -5.8m/s | -51.2°C | 0% | 0hPa | 0V | 00:00:00 | 00:00:00 | 00:00:00 | |
| SQ6EMJ | 2026-09-05 17:37:43 | 50.64959 | 17.87794 | 116° | 128km/h | 12907m | -5.8m/s | -51.2°C | 0% | 0hPa | 0V | 00:00:00 | 00:00:00 | 00:00:00 | |
| POL1PZ | 2026-09-05 17:37:41 | 50.64980 | 17.87701 | 105° | 130km/h | 12919m | -5.7m/s | -51.3°C | 0% | 0hPa | 0V | 00:00:00 | 00:00:00 | 00:00:00 | |
| SQ6EMJ | 2026-09-05 17:37:38 | 50.65025 | 17.87503 | 108° | 117km/h | 12942m | -5.9m/s | -51.4°C | 0% | 0hPa | 0V | 00:00:00 | 00:00:00 | 00:00:00 | |
| OM5KV | 2026-09-05 17:37:37 | 50.65025 | 17.87503 | 108° | 117km/h | 12942m | -5.9m/s | -51.4°C | 0% | 0hPa | 0V | 00:00:00 | 00:00:00 | 00:00:00 | |
| SQ6EMJ | 2026-09-05 17:37:33 | 50.65076 | 17.87257 | 107° | 119km/h | 12972m | -5.9m/s | -51.4°C | 0% | 0hPa | 0V | 00:00:00 | 00:00:00 | 00:00:00 | |
| OM5KV | 2026-09-05 17:37:32 | 50.65076 | 17.87257 | 107° | 119km/h | 12972m | -5.9m/s | -51.4°C | 0% | 0hPa | 0V | 00:00:00 | 00:00:00 | 00:00:00 | |
| SP3BTT-10 | 2026-09-05 17:37:30 | 50.65093 | 17.87151 | 114° | 133km/h | 12989m | -5.8m/s | 0°C | 0% | 0hPa | 0V | 00:00:00 | 00:00:00 | 00:00:00 | |
| SQ6EMJ | 2026-09-05 17:37:27 | 50.65137 | 17.86963 | 104° | 133km/h | 13007m | -5.9m/s | -51.0°C | 0% | 0hPa | 0V | 00:00:00 | 00:00:00 | 00:00:00 | |
| OM5KV | 2026-09-05 17:37:26 | 50.65137 | 17.86963 | 104° | 133km/h | 13007m | -5.9m/s | -51.0°C | 0% | 0hPa | 0V | 00:00:00 | 00:00:00 | 00:00:00 | |
| SQ6EMJ | 2026-09-05 17:37:21 | 50.65202 | 17.86659 | 110° | 146km/h | 13043m | -5.8m/s | -51.0°C | 0% | 0hPa | 0V | 00:00:00 | 00:00:00 | 00:00:00 | |
| OM5KV | 2026-09-05 17:37:20 | 50.65202 | 17.86659 | 110° | 146km/h | 13043m | -5.8m/s | -51.0°C | 0% | 0hPa | 0V | 00:00:00 | 00:00:00 | 00:00:00 | |
| PETON7-10 | 2026-09-05 17:37:18 | 50.65229 | 17.86559 | 113° | 131km/h | 13060m | -5.8m/s | 0°C | 0% | 0hPa | 0V | 00:00:00 | 00:00:00 | 00:00:00 | |
| SQ6EMJ | 2026-09-05 17:37:16 | 50.65259 | 17.86408 | 111° | 148km/h | 13073m | -6.0m/s | -50.9°C | 0% | 0hPa | 0V | 00:00:00 | 00:00:00 | 00:00:00 | |
| OM5KV | 2026-09-05 17:37:15 | 50.65259 | 17.86408 | 111° | 148km/h | 13073m | -6.0m/s | -50.9°C | 0% | 0hPa | 0V | 00:00:00 | 00:00:00 | 00:00:00 | |
| SQ6EMJ | 2026-09-05 17:37:10 | 50.65332 | 17.86107 | 117° | 135km/h | 13108m | -5.9m/s | -50.9°C | 0% | 0hPa | 0V | 00:00:00 | 00:00:00 | 00:00:00 | |
| OM5KV | 2026-09-05 17:37:09 | 50.65332 | 17.86107 | 117° | 135km/h | 13108m | -5.9m/s | -50.9°C | 0% | 0hPa | 0V | 00:00:00 | 00:00:00 | 00:00:00 | |
| SP6BVK | 2026-09-05 17:37:06 | 50.65366 | 17.85967 | 108° | 137km/h | 13126m | -6.1m/s | -50.9°C | 0% | 0hPa | 0V | 00:00:00 | 00:00:00 | 00:00:00 | |
| OM5KV | 2026-09-05 17:37:04 | 50.65393 | 17.85867 | 120° | 130km/h | 13138m | -5.9m/s | -50.8°C | 0% | 0hPa | 0V | 00:00:00 | 00:00:00 | 00:00:00 | |
| PETON7-10 | 2026-09-05 17:37:03 | 50.65407 | 17.85824 | 115° | 130km/h | 13150m | -5.9m/s | 0°C | 0% | 0hPa | 0V | 00:00:00 | 00:00:00 | 00:00:00 | |
| SP3BTT-10 | 2026-09-05 17:37:00 | 50.65440 | 17.85678 | 115° | 122km/h | 13168m | -5.8m/s | 0°C | 0% | 0hPa | 0V | 00:00:00 | 00:00:00 | 00:00:00 | |
| OM5KV | 2026-09-05 17:36:59 | 50.65469 | 17.85585 | 113° | 115km/h | 13174m | -5.8m/s | -50.8°C | 0% | 0hPa | 0V | 00:00:00 | 00:00:00 | 00:00:00 | |
| SQ6EMJ | 2026-09-05 17:36:53 | 50.65538 | 17.85300 | 106° | 128km/h | 13210m | -6.0m/s | -50.8°C | 0% | 0hPa | 0V | 00:00:00 | 00:00:00 | 00:00:00 | |
| OM5KV | 2026-09-05 17:36:52 | 50.65538 | 17.85300 | 106° | 128km/h | 13210m | -6.0m/s | -50.8°C | 0% | 0hPa | 0V | 00:00:00 | 00:00:00 | 00:00:00 | |
| SQ6EMJ | 2026-09-05 17:36:48 | 50.65600 | 17.85060 | 108° | 128km/h | 13240m | -5.9m/s | -50.7°C | 0% | 0hPa | 0V | 00:00:00 | 00:00:00 | 00:00:00 | |
| OM5KV | 2026-09-05 17:36:47 | 50.65600 | 17.85060 | 108° | 128km/h | 13240m | -5.9m/s | -50.7°C | 0% | 0hPa | 0V | 00:00:00 | 00:00:00 | 00:00:00 | |
| SP6BVK | 2026-09-05 17:36:45 | 50.65626 | 17.84958 | 119° | 139km/h | 13252m | -5.9m/s | -50.7°C | 0% | 0hPa | 0V | 00:00:00 | 00:00:00 | 00:00:00 | |
| SQ6EMJ | 2026-09-05 17:36:42 | 50.65675 | 17.84777 | 114° | 139km/h | 13276m | -5.9m/s | -50.6°C | 0% | 0hPa | 0V | 00:00:00 | 00:00:00 | 00:00:00 | |
| POL1PZ | 2026-09-05 17:36:39 | 50.65706 | 17.84687 | 121° | 113km/h | 13287m | -5.9m/s | -50.6°C | 0% | 0hPa | 0V | 00:00:00 | 00:00:00 | 00:00:00 | |
| SQ6EMJ | 2026-09-05 17:36:37 | 50.65741 | 17.84553 | 116° | 137km/h | 13305m | -6.0m/s | -50.6°C | 0% | 0hPa | 0V | 00:00:00 | 00:00:00 | 00:00:00 | |
| OM5KV | 2026-09-05 17:36:36 | 50.65741 | 17.84553 | 116° | 137km/h | 13305m | -6.0m/s | -50.6°C | 0% | 0hPa | 0V | 00:00:00 | 00:00:00 | 00:00:00 | |
| PETON7-10 | 2026-09-05 17:36:33 | 50.65784 | 17.84426 | 111° | 120km/h | 13329m | -6.0m/s | 0°C | 0% | 0hPa | 0V | 00:00:00 | 00:00:00 | 00:00:00 | |
| OM5KV | 2026-09-05 17:36:30 | 50.65824 | 17.84290 | 123° | 122km/h | 13341m | -6.1m/s | -50.5°C | 0% | 0hPa | 0V | 00:00:00 | 00:00:00 | 00:00:00 | |
| SP6BVK | 2026-09-05 17:36:25 | 50.65889 | 17.84074 | 122° | 120km/h | 13371m | -5.9m/s | -50.3°C | 0% | 0hPa | 0V | 00:00:00 | 00:00:00 | 00:00:00 | |
| SQ6EMJ | 2026-09-05 17:36:24 | 50.65903 | 17.84034 | 117° | 108km/h | 13377m | -5.8m/s | -50.3°C | 0% | 0hPa | 0V | 00:00:00 | 00:00:00 | 00:00:00 | |
| OM5KV | 2026-09-05 17:36:19 | 50.65965 | 17.83818 | 116° | 104km/h | 13407m | -5.9m/s | -50.3°C | 0% | 0hPa | 0V | 00:00:00 | 00:00:00 | 00:00:00 | |
| PETON7-10 | 2026-09-05 17:36:18 | 50.65975 | 17.83777 | 109° | 115km/h | 13420m | -6.0m/s | 0°C | 0% | 0hPa | 0V | 00:00:00 | 00:00:00 | 00:00:00 | |
| SQ6EMJ | 2026-09-05 17:36:14 | 50.66038 | 17.83569 | 110° | 115km/h | 13444m | -6.0m/s | -50.4°C | 0% | 0hPa | 0V | 00:00:00 | 00:00:00 | 00:00:00 | |
| OM5KV | 2026-09-05 17:36:13 | 50.66038 | 17.83569 | 110° | 115km/h | 13444m | -6.0m/s | -50.4°C | 0% | 0hPa | 0V | 00:00:00 | 00:00:00 | 00:00:00 | |
| OM5KV | 2026-09-05 17:36:08 | 50.66100 | 17.83364 | 109° | 115km/h | 13474m | -6.1m/s | -50.6°C | 0% | 0hPa | 0V | 00:00:00 | 00:00:00 | 00:00:00 | |
| SP6BVK | 2026-09-05 17:36:04 | 50.66151 | 17.83204 | 112° | 99km/h | 13498m | -5.8m/s | -50.7°C | 0% | 0hPa | 0V | 00:00:00 | 00:00:00 | 00:00:00 | |
| SQ6EMJ | 2026-09-05 17:36:03 | 50.66171 | 17.83121 | 116° | 122km/h | 13510m | -6.1m/s | -50.8°C | 0% | 0hPa | 0V | 00:00:00 | 00:00:00 | 00:00:00 | |
| OM5KV | 2026-09-05 17:36:02 | 50.66171 | 17.83121 | 116° | 122km/h | 13510m | -6.1m/s | -50.8°C | 0% | 0hPa | 0V | 00:00:00 | 00:00:00 | 00:00:00 | |
| POL1PZ | 2026-09-05 17:35:58 | 50.66218 | 17.82968 | 109° | 117km/h | 13535m | -6.1m/s | -50.9°C | 0% | 0hPa | 0V | 00:00:00 | 00:00:00 | 00:00:00 | |
| OM5KV | 2026-09-05 17:35:57 | 50.66230 | 17.82924 | 117° | 122km/h | 13541m | -6.1m/s | -51.0°C | 0% | 0hPa | 0V | 00:00:00 | 00:00:00 | 00:00:00 | |
| SQ6EMJ | 2026-09-05 17:35:56 | 50.66243 | 17.82884 | 123° | 108km/h | 13547m | -5.8m/s | -51.0°C | 0% | 0hPa | 0V | 00:00:00 | 00:00:00 | 00:00:00 | |
| SQ6EMJ | 2026-09-05 17:35:52 | 50.66301 | 17.82689 | 122° | 108km/h | 13577m | -6.0m/s | -51.2°C | 0% | 0hPa | 0V | 00:00:00 | 00:00:00 | 00:00:00 | |
| OM5KV | 2026-09-05 17:35:51 | 50.66301 | 17.82689 | 122° | 108km/h | 13577m | -6.0m/s | -51.2°C | 0% | 0hPa | 0V | 00:00:00 | 00:00:00 | 00:00:00 | |
| PETON7-10 | 2026-09-05 17:35:48 | 50.66331 | 17.82575 | 110° | 108km/h | 13601m | -6.0m/s | 0°C | 0% | 0hPa | 0V | 00:00:00 | 00:00:00 | 00:00:00 | |
| OM5KV | 2026-09-05 17:35:46 | 50.66369 | 17.82456 | 116° | 95km/h | 13614m | -6.0m/s | -51.5°C | 0% | 0hPa | 0V | 00:00:00 | 00:00:00 | 00:00:00 | |
| SP6BVK | 2026-09-05 17:35:43 | 50.66387 | 17.82377 | 110° | 119km/h | 13626m | -6.2m/s | -51.6°C | 0% | 0hPa | 0V | 00:00:00 | 00:00:00 | 00:00:00 | |
| OM5KV | 2026-09-05 17:35:40 | 50.66423 | 17.82259 | 114° | 95km/h | 13645m | -6.1m/s | -51.6°C | 0% | 0hPa | 0V | 00:00:00 | 00:00:00 | 00:00:00 | |
| POL1PZ | 2026-09-05 17:35:38 | 50.66439 | 17.82179 | 109° | 119km/h | 13657m | -6.2m/s | -51.7°C | 0% | 0hPa | 0V | 00:00:00 | 00:00:00 | 00:00:00 | |
| SQ6EMJ | 2026-09-05 17:35:35 | 50.66480 | 17.82022 | 105° | 106km/h | 13682m | -5.7m/s | -51.8°C | 0% | 0hPa | 0V | 00:00:00 | 00:00:00 | 00:00:00 | |
| OM5KV | 2026-09-05 17:35:34 | 50.66480 | 17.82022 | 105° | 106km/h | 13682m | -5.7m/s | -51.8°C | 0% | 0hPa | 0V | 00:00:00 | 00:00:00 | 00:00:00 | |
| PETON7-10 | 2026-09-05 17:35:32 | 50.66498 | 17.81934 | 115° | 113km/h | 13700m | -5.9m/s | 0°C | 0% | 0hPa | 0V | 00:00:00 | 00:00:00 | 00:00:00 | |
| SP3BTT-10 | 2026-09-05 17:35:30 | 50.66520 | 17.81858 | 110° | 111km/h | 13712m | -5.9m/s | 0°C | 0% | 0hPa | 0V | 00:00:00 | 00:00:00 | 00:00:00 | |
| SQ6EMJ | 2026-09-05 17:35:28 | 50.66535 | 17.81774 | 108° | 122km/h | 13718m | -6.1m/s | -52.0°C | 0% | 0hPa | 0V | 00:00:00 | 00:00:00 | 00:00:00 | |
| OM5KV | 2026-09-05 17:35:24 | 50.66581 | 17.81564 | 108° | 124km/h | 13749m | -5.9m/s | -52.2°C | 0% | 0hPa | 0V | 00:00:00 | 00:00:00 | 00:00:00 | |
| SP6BVK | 2026-09-05 17:35:23 | 50.66581 | 17.81564 | 108° | 124km/h | 13749m | -5.9m/s | -52.2°C | 0% | 0hPa | 0V | 00:00:00 | 00:00:00 | 00:00:00 | |
| OE5MMP-10 | 2026-09-05 17:35:20 | 50.66612 | 17.81437 | 105° | 104km/h | 13774m | -6.0m/s | 0°C | 0% | 0hPa | 0V | 00:00:00 | 00:00:00 | 00:00:00 | |
| SQ6EMJ | 2026-09-05 17:35:18 | 50.66633 | 17.81301 | 112° | 122km/h | 13786m | -5.7m/s | -52.0°C | 0% | 0hPa | 0V | 00:00:00 | 00:00:00 | 00:00:00 | |
| PETON7-10 | 2026-09-05 17:35:17 | 50.66633 | 17.81301 | 112° | 113km/h | 13792m | -6.0m/s | 0°C | 0% | 0hPa | 0V | 00:00:00 | 00:00:00 | 00:00:00 | |
| OM5KV | 2026-09-05 17:35:12 | 50.66674 | 17.81084 | 113° | 119km/h | 13817m | -5.9m/s | -51.8°C | 0% | 0hPa | 0V | 00:00:00 | 00:00:00 | 00:00:00 | |
| OE5MMP-10 | 2026-09-05 17:35:10 | 50.66685 | 17.81004 | 105° | 110km/h | 13829m | -6.1m/s | 0°C | 0% | 0hPa | 0V | 00:00:00 | 00:00:00 | 00:00:00 | |
| SQ6EMJ | 2026-09-05 17:35:07 | 50.66728 | 17.80832 | 115° | 102km/h | 13853m | -6.0m/s | -51.9°C | 0% | 0hPa | 0V | 00:00:00 | 00:00:00 | 00:00:00 | |
| OM5KV | 2026-09-05 17:35:06 | 50.66728 | 17.80832 | 115° | 102km/h | 13853m | -6.0m/s | -51.9°C | 0% | 0hPa | 0V | 00:00:00 | 00:00:00 | 00:00:00 | |
| PETON7-10 | 2026-09-05 17:35:02 | 50.66761 | 17.80665 | 114° | 106km/h | 13884m | -6.0m/s | 0°C | 0% | 0hPa | 0V | 00:00:00 | 00:00:00 | 00:00:00 | |
| SP3BTT-10 | 2026-09-05 17:35:00 | 50.66779 | 17.80589 | 104° | 104km/h | 13896m | -5.9m/s | 0°C | 0% | 0hPa | 0V | 00:00:00 | 00:00:00 | 00:00:00 | |
| OE5MMP-10 | 2026-09-05 17:34:59 | 50.66790 | 17.80548 | 102° | 97km/h | 13896m | -5.9m/s | 0°C | 0% | 0hPa | 0V | 00:00:00 | 00:00:00 | 00:00:00 | |
| POL1PZ | 2026-09-05 17:34:57 | 50.66802 | 17.80460 | 114° | 113km/h | 13909m | -6.3m/s | -52.2°C | 0% | 0hPa | 0V | 00:00:00 | 00:00:00 | 00:00:00 | |
| SQ6EMJ | 2026-09-05 17:34:55 | 50.66819 | 17.80384 | 103° | 97km/h | 13922m | -6.1m/s | -52.2°C | 0% | 0hPa | 0V | 00:00:00 | 00:00:00 | 00:00:00 | |
| OM5KV | 2026-09-05 17:34:53 | 50.66831 | 17.80299 | 107° | 119km/h | 13935m | -6.2m/s | -52.3°C | 0% | 0hPa | 0V | 00:00:00 | 00:00:00 | 00:00:00 | |
| OE5MMP-10 | 2026-09-05 17:34:49 | 50.66863 | 17.80143 | 102° | 104km/h | 13966m | -6.0m/s | 0°C | 0% | 0hPa | 0V | 00:00:00 | 00:00:00 | 00:00:00 | |
| PETON7-10 | 2026-09-05 17:34:47 | 50.66880 | 17.80056 | 115° | 104km/h | 13978m | -5.8m/s | 0°C | 0% | 0hPa | 0V | 00:00:00 | 00:00:00 | 00:00:00 | |
| SQ6EMJ | 2026-09-05 17:34:44 | 50.66903 | 17.79944 | 104° | 111km/h | 13990m | -6.2m/s | -52.5°C | 0% | 0hPa | 0V | 00:00:00 | 00:00:00 | 00:00:00 | |
| SP6BVK | 2026-09-05 17:34:42 | 50.66922 | 17.79861 | 118° | 106km/h | 14003m | -6.2m/s | -52.5°C | 0% | 0hPa | 0V | 00:00:00 | 00:00:00 | 00:00:00 | |
| OM5KV | 2026-09-05 17:34:41 | 50.66932 | 17.79825 | 113° | 93km/h | 14009m | -6.0m/s | -52.5°C | 0% | 0hPa | 0V | 00:00:00 | 00:00:00 | 00:00:00 | |
| SQ6EMJ | 2026-09-05 17:34:39 | 50.66955 | 17.79707 | 113° | 113km/h | 14027m | -6.1m/s | -52.3°C | 0% | 0hPa | 0V | 00:00:00 | 00:00:00 | 00:00:00 | |
| POL1PZ | 2026-09-05 17:34:37 | 50.66976 | 17.79650 | 112° | 89km/h | 14039m | -6.0m/s | -52.2°C | 0% | 0hPa | 0V | 00:00:00 | 00:00:00 | 00:00:00 | |
| OM5KV | 2026-09-05 17:34:34 | 50.66990 | 17.79557 | 106° | 113km/h | 14051m | -6.0m/s | -52.3°C | 0% | 0hPa | 0V | 00:00:00 | 00:00:00 | 00:00:00 | |
| SQ6EMJ | 2026-09-05 17:34:33 | 50.67010 | 17.79475 | 117° | 100km/h | 14063m | -6.1m/s | -52.3°C | 0% | 0hPa | 0V | 00:00:00 | 00:00:00 | 00:00:00 | |
| PETON7-10 | 2026-09-05 17:34:32 | 50.67010 | 17.79475 | 116° | 106km/h | 14070m | -6.1m/s | 0°C | 0% | 0hPa | 0V | 00:00:00 | 00:00:00 | 00:00:00 | |
| OM5KV | 2026-09-05 17:34:29 | 50.67040 | 17.79317 | 113° | 115km/h | 14088m | -6.2m/s | -52.4°C | 0% | 0hPa | 0V | 00:00:00 | 00:00:00 | 00:00:00 | |
| SQ6EMJ | 2026-09-05 17:34:27 | 50.67051 | 17.79278 | 115° | 100km/h | 14094m | -6.2m/s | -52.4°C | 0% | 0hPa | 0V | 00:00:00 | 00:00:00 | 00:00:00 | |
| SQ6EMJ | 2026-09-05 17:34:22 | 50.67095 | 17.79041 | 102° | 93km/h | 14131m | -6.1m/s | -52.5°C | 0% | 0hPa | 0V | 00:00:00 | 00:00:00 | 00:00:00 | |
| SP6BVK | 2026-09-05 17:34:21 | 50.67095 | 17.79041 | 102° | 93km/h | 14131m | -6.1m/s | -52.5°C | 0% | 0hPa | 0V | 00:00:00 | 00:00:00 | 00:00:00 | |
| OE5MMP-10 | 2026-09-05 17:34:19 | 50.67103 | 17.78958 | 102° | 104km/h | 14155m | -6.1m/s | 0°C | 0% | 0hPa | 0V | 00:00:00 | 00:00:00 | 00:00:00 | |
| PETON7-10 | 2026-09-05 17:34:17 | 50.67119 | 17.78875 | 109° | 108km/h | 14161m | -6.3m/s | 0°C | 0% | 0hPa | 0V | 00:00:00 | 00:00:00 | 00:00:00 | |
| OM5KV | 2026-09-05 17:34:16 | 50.67125 | 17.78839 | 100° | 91km/h | 14161m | -6.4m/s | -52.2°C | 0% | 0hPa | 0V | 00:00:00 | 00:00:00 | 00:00:00 | |
| SP3BTT-10 | 2026-09-05 17:34:14 | 50.67131 | 17.78756 | 103° | 104km/h | 14174m | -6.0m/s | 0°C | 0% | 0hPa | 0V | 00:00:00 | 00:00:00 | 00:00:00 | |
| SQ6EMJ | 2026-09-05 17:34:11 | 50.67160 | 17.78596 | 100° | 111km/h | 14198m | -6.0m/s | -52.1°C | 0% | 0hPa | 0V | 00:00:00 | 00:00:00 | 00:00:00 | |
| OM5KV | 2026-09-05 17:34:10 | 50.67160 | 17.78596 | 100° | 111km/h | 14198m | -6.0m/s | -52.1°C | 0% | 0hPa | 0V | 00:00:00 | 00:00:00 | 00:00:00 | |
| OE5MMP-10 | 2026-09-05 17:34:09 | 50.67165 | 17.78551 | 106° | 113km/h | 14212m | -5.9m/s | 0°C | 0% | 0hPa | 0V | 00:00:00 | 00:00:00 | 00:00:00 | |
| OM5KV | 2026-09-05 17:34:05 | 50.67200 | 17.78389 | 104° | 115km/h | 14230m | -6.0m/s | -51.9°C | 0% | 0hPa | 0V | 00:00:00 | 00:00:00 | 00:00:00 | |
| PETON7-10 | 2026-09-05 17:34:02 | 50.67232 | 17.78260 | 115° | 108km/h | 14254m | -6.1m/s | 0°C | 0% | 0hPa | 0V | 00:00:00 | 00:00:00 | 00:00:00 | |
| SP6BVK | 2026-09-05 17:34:01 | 50.67241 | 17.78222 | 108° | 102km/h | 14254m | -6.1m/s | -51.6°C | 0% | 0hPa | 0V | 00:00:00 | 00:00:00 | 00:00:00 | |
| SQ6EMJ | 2026-09-05 17:34:00 | 50.67258 | 17.78135 | 113° | 122km/h | 14266m | -6.1m/s | -51.4°C | 0% | 0hPa | 0V | 00:00:00 | 00:00:00 | 00:00:00 | |
| OE5MMP-10 | 2026-09-05 17:33:58 | 50.67271 | 17.78093 | 118° | 104km/h | 14279m | -5.9m/s | 0°C | 0% | 0hPa | 0V | 00:00:00 | 00:00:00 | 00:00:00 | |
| POL1PZ | 2026-09-05 17:33:55 | 50.67298 | 17.77977 | 105° | 115km/h | 14291m | -6.3m/s | -51.3°C | 0% | 0hPa | 0V | 00:00:00 | 00:00:00 | 00:00:00 | |
| SQ6EMJ | 2026-09-05 17:33:54 | 50.67318 | 17.77893 | 118° | 106km/h | 14304m | -6.2m/s | -51.4°C | 0% | 0hPa | 0V | 00:00:00 | 00:00:00 | 00:00:00 | |
| OM5KV | 2026-09-05 17:33:53 | 50.67318 | 17.77893 | 118° | 106km/h | 14304m | -6.2m/s | -51.4°C | 0% | 0hPa | 0V | 00:00:00 | 00:00:00 | 00:00:00 | |
| OE5MMP-10 | 2026-09-05 17:33:48 | 50.67365 | 17.77696 | 115° | 102km/h | 14334m | -6.1m/s | 0°C | 0% | 0hPa | 0V | 00:00:00 | 00:00:00 | 00:00:00 | |
| PETON7-10 | 2026-09-05 17:33:47 | 50.67370 | 17.77661 | 108° | 102km/h | 14347m | -6.0m/s | 0°C | 0% | 0hPa | 0V | 00:00:00 | 00:00:00 | 00:00:00 | |
| SQ6EMJ | 2026-09-05 17:33:43 | 50.67406 | 17.77464 | 105° | 89km/h | 14372m | -6.2m/s | -51.5°C | 0% | 0hPa | 0V | 00:00:00 | 00:00:00 | 00:00:00 | |
| OM5KV | 2026-09-05 17:33:42 | 50.67406 | 17.77464 | 105° | 89km/h | 14372m | -6.2m/s | -51.5°C | 0% | 0hPa | 0V | 00:00:00 | 00:00:00 | 00:00:00 | |
| SP6BVK | 2026-09-05 17:33:40 | 50.67415 | 17.77384 | 103° | 115km/h | 14384m | -6.2m/s | -51.5°C | 0% | 0hPa | 0V | 00:00:00 | 00:00:00 | 00:00:00 | |
| OE5MMP-10 | 2026-09-05 17:33:38 | 50.67432 | 17.77303 | 111° | 97km/h | 14403m | -6.2m/s | 0°C | 0% | 0hPa | 0V | 00:00:00 | 00:00:00 | 00:00:00 | |
| SQ6EMJ | 2026-09-05 17:33:37 | 50.67442 | 17.77230 | 97° | 102km/h | 14409m | -6.3m/s | -51.4°C | 0% | 0hPa | 0V | 00:00:00 | 00:00:00 | 00:00:00 | |
| OM5KV | 2026-09-05 17:33:36 | 50.67442 | 17.77230 | 97° | 102km/h | 14409m | -6.3m/s | -51.4°C | 0% | 0hPa | 0V | 00:00:00 | 00:00:00 | 00:00:00 | |
| PETON7-10 | 2026-09-05 17:33:32 | 50.67468 | 17.77074 | 98° | 102km/h | 14441m | -6.3m/s | 0°C | 0% | 0hPa | 0V | 00:00:00 | 00:00:00 | 00:00:00 | |
| SQ6EMJ | 2026-09-05 17:33:31 | 50.67471 | 17.77036 | 96° | 104km/h | 14441m | -6.4m/s | -51.2°C | 0% | 0hPa | 0V | 00:00:00 | 00:00:00 | 00:00:00 | |
| SP3BTT-10 | 2026-09-05 17:33:30 | 50.67475 | 17.76993 | 103° | 104km/h | 14453m | -5.8m/s | 0°C | 0% | 0hPa | 0V | 00:00:00 | 00:00:00 | 00:00:00 | |
| OE5MMP-10 | 2026-09-05 17:33:28 | 50.67490 | 17.76916 | 109° | 102km/h | 14466m | -6.3m/s | 0°C | 0% | 0hPa | 0V | 00:00:00 | 00:00:00 | 00:00:00 | |
| SQ6EMJ | 2026-09-05 17:33:26 | 50.67507 | 17.76798 | 109° | 117km/h | 14478m | -6.0m/s | -50.9°C | 0% | 0hPa | 0V | 00:00:00 | 00:00:00 | 00:00:00 | |
| OM5KV | 2026-09-05 17:33:23 | 50.67526 | 17.76721 | 110° | 89km/h | 14490m | -6.0m/s | -50.8°C | 0% | 0hPa | 0V | 00:00:00 | 00:00:00 | 00:00:00 | |
| SP6BVK | 2026-09-05 17:33:20 | 50.67546 | 17.76601 | 113° | 117km/h | 14509m | -6.1m/s | -50.8°C | 0% | 0hPa | 0V | 00:00:00 | 00:00:00 | 00:00:00 | |
| OE5MMP-10 | 2026-09-05 17:33:18 | 50.67567 | 17.76532 | 103° | 104km/h | 14527m | -6.3m/s | 0°C | 0% | 0hPa | 0V | 00:00:00 | 00:00:00 | 00:00:00 | |
| PETON7-10 | 2026-09-05 17:33:17 | 50.67574 | 17.76490 | 103° | 102km/h | 14534m | -6.1m/s | 0°C | 0% | 0hPa | 0V | 00:00:00 | 00:00:00 | 00:00:00 | |
| SQ6EMJ | 2026-09-05 17:33:15 | 50.67605 | 17.76366 | 121° | 100km/h | 14546m | -6.2m/s | -50.6°C | 0% | 0hPa | 0V | 00:00:00 | 00:00:00 | 00:00:00 | |
| POL1PZ | 2026-09-05 17:33:14 | 50.67605 | 17.76366 | 121° | 100km/h | 14546m | -6.2m/s | -50.6°C | 0% | 0hPa | 0V | 00:00:00 | 00:00:00 | 00:00:00 | |
| SQ6EMJ | 2026-09-05 17:33:09 | 50.67665 | 17.76143 | 109° | 86km/h | 14583m | -6.1m/s | -50.3°C | 0% | 0hPa | 0V | 00:00:00 | 00:00:00 | 00:00:00 | |
| OM5KV | 2026-09-05 17:33:07 | 50.67671 | 17.76108 | 105° | 100km/h | 14590m | -6.1m/s | -50.2°C | 0% | 0hPa | 0V | 00:00:00 | 00:00:00 | 00:00:00 | |
| SQ6EMJ | 2026-09-05 17:33:04 | 50.67709 | 17.75962 | 105° | 89km/h | 14615m | -6.1m/s | -50.1°C | 0% | 0hPa | 0V | 00:00:00 | 00:00:00 | 00:00:00 | |
| PETON7-10 | 2026-09-05 17:33:02 | 50.67715 | 17.75923 | 104° | 102km/h | 14627m | -6.1m/s | 0°C | 0% | 0hPa | 0V | 00:00:00 | 00:00:00 | 00:00:00 | |
| SP6BVK | 2026-09-05 17:33:00 | 50.67745 | 17.75809 | 114° | 88km/h | 14640m | -6.4m/s | -50.1°C | 0% | 0hPa | 0V | 00:00:00 | 00:00:00 | 00:00:00 | |
| SQ6EMJ | 2026-09-05 17:32:58 | 50.67759 | 17.75734 | 105° | 111km/h | 14653m | -6.3m/s | -50.2°C | 0% | 0hPa | 0V | 00:00:00 | 00:00:00 | 00:00:00 | |
| OE5MMP-10 | 2026-09-05 17:32:56 | 50.67768 | 17.75691 | 109° | 102km/h | 14672m | -6.4m/s | 0°C | 0% | 0hPa | 0V | 00:00:00 | 00:00:00 | 00:00:00 | |
| OM5KV | 2026-09-05 17:32:55 | 50.67779 | 17.75653 | 118° | 100km/h | 14666m | -6.4m/s | -50.2°C | 0% | 0hPa | 0V | 00:00:00 | 00:00:00 | 00:00:00 | |
| POL1PZ | 2026-09-05 17:32:54 | 50.67788 | 17.75619 | 109° | 88km/h | 14672m | -6.4m/s | -50.2°C | 0% | 0hPa | 0V | 00:00:00 | 00:00:00 | 00:00:00 | |
| SQ6EMJ | 2026-09-05 17:32:52 | 50.67799 | 17.75541 | 105° | 115km/h | 14685m | -6.3m/s | -50.2°C | 0% | 0hPa | 0V | 00:00:00 | 00:00:00 | 00:00:00 | |
| OM5KV | 2026-09-05 17:32:50 | 50.67818 | 17.75460 | 116° | 97km/h | 14697m | -6.5m/s | -50.2°C | 0% | 0hPa | 0V | 00:00:00 | 00:00:00 | 00:00:00 | |
| SQ6EMJ | 2026-09-05 17:32:47 | 50.67850 | 17.75303 | 116° | 111km/h | 14724m | -6.5m/s | -50.1°C | 0% | 0hPa | 0V | 00:00:00 | 00:00:00 | 00:00:00 | |
| OE5MMP-10 | 2026-09-05 17:32:45 | 50.67861 | 17.75270 | 106° | 102km/h | 14737m | -6.4m/s | 0°C | 0% | 0hPa | 0V | 00:00:00 | 00:00:00 | 00:00:00 | |
| OM5KV | 2026-09-05 17:32:44 | 50.67869 | 17.75232 | 107° | 91km/h | 14737m | -6.5m/s | -50.0°C | 0% | 0hPa | 0V | 00:00:00 | 00:00:00 | 00:00:00 | |
| SQ6EMJ | 2026-09-05 17:32:40 | 50.67905 | 17.75074 | 114° | 91km/h | 14764m | -6.7m/s | -50.0°C | 0% | 0hPa | 0V | 00:00:00 | 00:00:00 | 00:00:00 | |
| SP6BVK | 2026-09-05 17:32:39 | 50.67912 | 17.75039 | 104° | 93km/h | 14771m | -6.2m/s | -50.0°C | 0% | 0hPa | 0V | 00:00:00 | 00:00:00 | 00:00:00 | |
| OE5MMP-10 | 2026-09-05 17:32:35 | 50.67945 | 17.74892 | 100° | 104km/h | 14803m | -6.3m/s | 0°C | 0% | 0hPa | 0V | 00:00:00 | 00:00:00 | 00:00:00 | |
| POL1PZ | 2026-09-05 17:32:33 | 50.67953 | 17.74805 | 100° | 111km/h | 14809m | -6.6m/s | -50.2°C | 0% | 0hPa | 0V | 00:00:00 | 00:00:00 | 00:00:00 | |
| PETON7-10 | 2026-09-05 17:32:31 | 50.67970 | 17.74721 | 113° | 104km/h | 14829m | -6.4m/s | 0°C | 0% | 0hPa | 0V | 00:00:00 | 00:00:00 | 00:00:00 | |
| SP3BTT-10 | 2026-09-05 17:32:30 | 50.67978 | 17.74692 | 97° | 104km/h | 14836m | -6.1m/s | 0°C | 0% | 0hPa | 0V | 00:00:00 | 00:00:00 | 00:00:00 | |
| SQ6EMJ | 2026-09-05 17:32:29 | 50.67982 | 17.74649 | 97° | 99km/h | 14836m | -6.1m/s | -50.4°C | 0% | 0hPa | 0V | 00:00:00 | 00:00:00 | 00:00:00 | |
| OM5KV | 2026-09-05 17:32:27 | 50.67992 | 17.74563 | 108° | 113km/h | 14848m | -6.7m/s | -50.5°C | 0% | 0hPa | 0V | 00:00:00 | 00:00:00 | 00:00:00 | |
| OE5MMP-10 | 2026-09-05 17:32:25 | 50.68007 | 17.74488 | 103° | 100km/h | 14868m | -6.8m/s | 0°C | 0% | 0hPa | 0V | 00:00:00 | 00:00:00 | 00:00:00 | |
| SQ6EMJ | 2026-09-05 17:32:24 | 50.68011 | 17.74451 | 96° | 100km/h | 14868m | -6.8m/s | -50.7°C | 0% | 0hPa | 0V | 00:00:00 | 00:00:00 | 00:00:00 | |
| OM5KV | 2026-09-05 17:32:22 | 50.68021 | 17.74364 | 109° | 111km/h | 14882m | -6.5m/s | -50.8°C | 0% | 0hPa | 0V | 00:00:00 | 00:00:00 | 00:00:00 | |
| SQ6EMJ | 2026-09-05 17:32:19 | 50.68043 | 17.74208 | 102° | 115km/h | 14908m | -6.4m/s | -51.0°C | 0% | 0hPa | 0V | 00:00:00 | 00:00:00 | 00:00:00 | |
| SP6BVK | 2026-09-05 17:32:18 | 50.68043 | 17.74208 | 102° | 115km/h | 14908m | -6.4m/s | -51.0°C | 0% | 0hPa | 0V | 00:00:00 | 00:00:00 | 00:00:00 | |
| PETON7-10 | 2026-09-05 17:32:16 | 50.68058 | 17.74127 | 110° | 106km/h | 14926m | -6.3m/s | 0°C | 0% | 0hPa | 0V | 00:00:00 | 00:00:00 | 00:00:00 | |
| OE5MMP-10 | 2026-09-05 17:32:15 | 50.68064 | 17.74088 | 103° | 99km/h | 14933m | -6.1m/s | 0°C | 0% | 0hPa | 0V | 00:00:00 | 00:00:00 | 00:00:00 | |
| POL1PZ | 2026-09-05 17:32:13 | 50.68072 | 17.74008 | 103° | 119km/h | 14939m | -6.3m/s | -51.3°C | 0% | 0hPa | 0V | 00:00:00 | 00:00:00 | 00:00:00 | |
| SQ6EMJ | 2026-09-05 17:32:12 | 50.68079 | 17.73964 | 110° | 110km/h | 14946m | -6.6m/s | -51.3°C | 0% | 0hPa | 0V | 00:00:00 | 00:00:00 | 00:00:00 | |
| OE3JTB-15 | 2026-09-05 17:32:11 | 50.68089 | 17.73926 | 106° | 102km/h | 14952m | -6.4m/s | 0°C | 0% | 0hPa | 0V | 00:00:00 | 00:00:00 | 00:00:00 | |
| SQ6EMJ | 2026-09-05 17:32:07 | 50.68102 | 17.73757 | 108° | 108km/h | 14978m | -6.7m/s | -51.1°C | 0% | 0hPa | 0V | 00:00:00 | 00:00:00 | 00:00:00 | |
| OE5MMP-10 | 2026-09-05 17:32:05 | 50.68111 | 17.73681 | 93° | 106km/h | 14999m | -6.6m/s | 0°C | 0% | 0hPa | 0V | 00:00:00 | 00:00:00 | 00:00:00 | |
| SQ6EMJ | 2026-09-05 17:32:02 | 50.68130 | 17.73511 | 102° | 91km/h | 15020m | -6.6m/s | -50.7°C | 0% | 0hPa | 0V | 00:00:00 | 00:00:00 | 00:00:00 | |
| PETON7-10 | 2026-09-05 17:32:01 | 50.68130 | 17.73511 | 101° | 102km/h | 15027m | -6.6m/s | 0°C | 0% | 0hPa | 0V | 00:00:00 | 00:00:00 | 00:00:00 | |
| SP3BTT-10 | 2026-09-05 17:32:00 | 50.68133 | 17.73473 | 93° | 89km/h | 15027m | -6.6m/s | 0°C | 0% | 0hPa | 0V | 00:00:00 | 00:00:00 | 00:00:00 | |
| OM5KV | 2026-09-05 17:31:59 | 50.68135 | 17.73429 | 97° | 117km/h | 15033m | -6.7m/s | -50.6°C | 0% | 0hPa | 0V | 00:00:00 | 00:00:00 | 00:00:00 | |
| SP6BVK | 2026-09-05 17:31:58 | 50.68141 | 17.73384 | 106° | 117km/h | 15040m | -6.6m/s | -50.6°C | 0% | 0hPa | 0V | 00:00:00 | 00:00:00 | 00:00:00 | |
| SQ6EMJ | 2026-09-05 17:31:56 | 50.68155 | 17.73306 | 101° | 89km/h | 15053m | -6.6m/s | -50.6°C | 0% | 0hPa | 0V | 00:00:00 | 00:00:00 | 00:00:00 | |
| OE5MMP-10 | 2026-09-05 17:31:55 | 50.68158 | 17.73269 | 94° | 100km/h | 15085m | -6.3m/s | 0°C | 0% | 0hPa | 0V | 00:00:00 | 00:00:00 | 00:00:00 | |
| OM5KV | 2026-09-05 17:31:54 | 50.68161 | 17.73225 | 100° | 117km/h | 15066m | -6.6m/s | -50.7°C | 0% | 0hPa | 0V | 00:00:00 | 00:00:00 | 00:00:00 | |
| OE5DRO-10 | 2026-09-05 17:31:52 | 50.68176 | 17.73143 | 110° | 97km/h | 15085m | -6.3m/s | 0°C | 0% | 0hPa | 0V | 00:00:00 | 00:00:00 | 00:00:00 | |
| SQ6EMJ | 2026-09-05 17:31:51 | 50.68184 | 17.73070 | 96° | 104km/h | 15092m | -6.6m/s | -50.8°C | 0% | 0hPa | 0V | 00:00:00 | 00:00:00 | 00:00:00 | |
| OM5KV | 2026-09-05 17:31:48 | 50.68196 | 17.72985 | 111° | 106km/h | 15106m | -6.5m/s | -50.9°C | 0% | 0hPa | 0V | 00:00:00 | 00:00:00 | 00:00:00 | |
| PETON7-10 | 2026-09-05 17:31:46 | 50.68210 | 17.72915 | 99° | 97km/h | 15125m | -6.5m/s | 0°C | 0% | 0hPa | 0V | 00:00:00 | 00:00:00 | 00:00:00 | |
| OE5MMP-10 | 2026-09-05 17:31:44 | 50.68218 | 17.72834 | 106° | 95km/h | 15145m | -6.3m/s | 0°C | 0% | 0hPa | 0V | 00:00:00 | 00:00:00 | 00:00:00 | |
| OM5KV | 2026-09-05 17:31:43 | 50.68227 | 17.72795 | 115° | 100km/h | 15138m | -6.4m/s | -51.0°C | 0% | 0hPa | 0V | 00:00:00 | 00:00:00 | 00:00:00 | |
| OE3JTB-15 | 2026-09-05 17:31:42 | 50.68236 | 17.72760 | 110° | 88km/h | 15151m | -6.2m/s | 0°C | 0% | 0hPa | 0V | 00:00:00 | 00:00:00 | 00:00:00 | |
| SQ6EMJ | 2026-09-05 17:31:39 | 50.68251 | 17.72647 | 110° | 110km/h | 15164m | -6.5m/s | -51.2°C | 0% | 0hPa | 0V | 00:00:00 | 00:00:00 | 00:00:00 | |
| SP6BVK | 2026-09-05 17:31:38 | 50.68268 | 17.72578 | 108° | 78km/h | 15178m | -6.6m/s | -51.2°C | 0% | 0hPa | 0V | 00:00:00 | 00:00:00 | 00:00:00 | |
| SQ6EMJ | 2026-09-05 17:31:33 | 50.68295 | 17.72434 | 117° | 86km/h | 15204m | -6.6m/s | -51.4°C | 0% | 0hPa | 0V | 00:00:00 | 00:00:00 | 00:00:00 | |
| OE5MMP-10 | 2026-09-05 17:31:32 | 50.68303 | 17.72398 | 105° | 84km/h | 15224m | -7.0m/s | 0°C | 0% | 0hPa | 0V | 00:00:00 | 00:00:00 | 00:00:00 | |
| SQ6EMJ | 2026-09-05 17:31:28 | 50.68330 | 17.72266 | 118° | 78km/h | 15238m | -6.7m/s | -51.5°C | 0% | 0hPa | 0V | 00:00:00 | 00:00:00 | 00:00:00 | |
| OM5KV | 2026-09-05 17:31:26 | 50.68341 | 17.72206 | 101° | 89km/h | 15251m | -6.7m/s | -51.6°C | 0% | 0hPa | 0V | 00:00:00 | 00:00:00 | 00:00:00 | |
| SQ6EMJ | 2026-09-05 17:31:23 | 50.68371 | 17.72077 | 102° | 75km/h | 15278m | -6.6m/s | -51.8°C | 0% | 0hPa | 0V | 00:00:00 | 00:00:00 | 00:00:00 | |
| OE5MMP-10 | 2026-09-05 17:31:22 | 50.68371 | 17.72077 | 101° | 77km/h | 15285m | -6.6m/s | 0°C | 0% | 0hPa | 0V | 00:00:00 | 00:00:00 | 00:00:00 | |
| OM5KV | 2026-09-05 17:31:21 | 50.68382 | 17.72008 | 112° | 99km/h | 15292m | -7.1m/s | -51.9°C | 0% | 0hPa | 0V | 00:00:00 | 00:00:00 | 00:00:00 | |
| SQ6EMJ | 2026-09-05 17:31:17 | 50.68407 | 17.71890 | 105° | 89km/h | 15319m | -6.5m/s | -52.0°C | 0% | 0hPa | 0V | 00:00:00 | 00:00:00 | 00:00:00 | |
| PETON7-10 | 2026-09-05 17:31:16 | 50.68407 | 17.71890 | 105° | 73km/h | 15326m | -7.1m/s | 0°C | 0% | 0hPa | 0V | 00:00:00 | 00:00:00 | 00:00:00 | |
| SP3BTT-10 | 2026-09-05 17:31:15 | 50.68415 | 17.71853 | 121° | 75km/h | 15333m | -7.3m/s | 0°C | 0% | 0hPa | 0V | 00:00:00 | 00:00:00 | 00:00:00 | |
| OE3JTB-15 | 2026-09-05 17:31:13 | 50.68432 | 17.71810 | 98° | 73km/h | 15347m | -7.0m/s | 0°C | 0% | 0hPa | 0V | 00:00:00 | 00:00:00 | 00:00:00 | |
| OE5MMP-10 | 2026-09-05 17:31:11 | 50.68452 | 17.71745 | 107° | 69km/h | 15354m | -6.9m/s | 0°C | 0% | 0hPa | 0V | 00:00:00 | 00:00:00 | 00:00:00 | |
| SQ6EMJ | 2026-09-05 17:31:05 | 50.68476 | 17.71580 | 121° | 69km/h | 15397m | -7.2m/s | -52.1°C | 0% | 0hPa | 0V | 00:00:00 | 00:00:00 | 00:00:00 | |
| OM5KV | 2026-09-05 17:31:04 | 50.68485 | 17.71536 | 94° | 64km/h | 15412m | -6.9m/s | -52.0°C | 0% | 0hPa | 0V | 00:00:00 | 00:00:00 | 00:00:00 | |
| PETON7-10 | 2026-09-05 17:31:01 | 50.68492 | 17.71475 | 112° | 71km/h | 15433m | -7.2m/s | 0°C | 0% | 0hPa | 0V | 00:00:00 | 00:00:00 | 00:00:00 | |
| OE5MMP-10 | 2026-09-05 17:31:00 | 50.68503 | 17.71448 | 116° | 73km/h | 15433m | -7.2m/s | 0°C | 0% | 0hPa | 0V | 00:00:00 | 00:00:00 | 00:00:00 | |
| OM5KV | 2026-09-05 17:30:58 | 50.68505 | 17.71399 | 91° | 75km/h | 15448m | -7.1m/s | -52.1°C | 0% | 0hPa | 0V | 00:00:00 | 00:00:00 | 00:00:00 | |
| SP6BVK | 2026-09-05 17:30:57 | 50.68513 | 17.71335 | 114° | 78km/h | 15462m | -7.1m/s | -52.1°C | 0% | 0hPa | 0V | 00:00:00 | 00:00:00 | 00:00:00 | |
| SQ6EMJ | 2026-09-05 17:30:54 | 50.68522 | 17.71285 | 91° | 64km/h | 15477m | -7.0m/s | -52.2°C | 0% | 0hPa | 0V | 00:00:00 | 00:00:00 | 00:00:00 | |
| OM5KV | 2026-09-05 17:30:52 | 50.68525 | 17.71221 | 105° | 89km/h | 15491m | -7.3m/s | -52.3°C | 0% | 0hPa | 0V | 00:00:00 | 00:00:00 | 00:00:00 | |
| OE5MMP-10 | 2026-09-05 17:30:50 | 50.68536 | 17.71165 | 101° | 78km/h | 15513m | -7.1m/s | 0°C | 0% | 0hPa | 0V | 00:00:00 | 00:00:00 | 00:00:00 | |
| SQ6EMJ | 2026-09-05 17:30:48 | 50.68538 | 17.71106 | 96° | 89km/h | 15521m | -7.3m/s | -52.5°C | 0% | 0hPa | 0V | 00:00:00 | 00:00:00 | 00:00:00 | |
| PETON7-10 | 2026-09-05 17:30:46 | 50.68549 | 17.71041 | 110° | 84km/h | 15550m | -7.1m/s | 0°C | 0% | 0hPa | 0V | 00:00:00 | 00:00:00 | 00:00:00 | |
| SP3BTT-10 | 2026-09-05 17:30:45 | 50.68553 | 17.71021 | 89° | 84km/h | 15550m | -7.1m/s | 0°C | 0% | 0hPa | 0V | 00:00:00 | 00:00:00 | 00:00:00 | |
| OE3JTB-15 | 2026-09-05 17:30:44 | 50.68553 | 17.70986 | 89° | 84km/h | 15558m | -7.2m/s | 0°C | 0% | 0hPa | 0V | 00:00:00 | 00:00:00 | 00:00:00 | |
| SQ6EMJ | 2026-09-05 17:30:43 | 50.68555 | 17.70951 | 98° | 95km/h | 15558m | -7.2m/s | -52.8°C | 0% | 0hPa | 0V | 00:00:00 | 00:00:00 | 00:00:00 | |
| OM5KV | 2026-09-05 17:30:41 | 50.68565 | 17.70885 | 107° | 69km/h | 15573m | -7.4m/s | -52.9°C | 0% | 0hPa | 0V | 00:00:00 | 00:00:00 | 00:00:00 | |
| OE5MMP-10 | 2026-09-05 17:30:40 | 50.68568 | 17.70858 | 92° | 84km/h | 15587m | -7.3m/s | 0°C | 0% | 0hPa | 0V | 00:00:00 | 00:00:00 | 00:00:00 | |
| SP6BVK | 2026-09-05 17:30:36 | 50.68585 | 17.70695 | 93° | 78km/h | 15616m | -7.2m/s | -52.8°C | 0% | 0hPa | 0V | 00:00:00 | 00:00:00 | 00:00:00 | |
| SQ6EMJ | 2026-09-05 17:30:33 | 50.68597 | 17.70587 | 113° | 86km/h | 15639m | -7.3m/s | -52.7°C | 0% | 0hPa | 0V | 00:00:00 | 00:00:00 | 00:00:00 | |
| PETON7-10 | 2026-09-05 17:30:31 | 50.68604 | 17.70558 | 106° | 88km/h | 15654m | -7.2m/s | 0°C | 0% | 0hPa | 0V | 00:00:00 | 00:00:00 | 00:00:00 | |
| OE5MMP-10 | 2026-09-05 17:30:30 | 50.68607 | 17.70531 | 97° | 84km/h | 15661m | -7.3m/s | 0°C | 0% | 0hPa | 0V | 00:00:00 | 00:00:00 | 00:00:00 | |
| SQ6EMJ | 2026-09-05 17:30:27 | 50.68628 | 17.70395 | 104° | 69km/h | 15683m | -7.4m/s | -52.8°C | 0% | 0hPa | 0V | 00:00:00 | 00:00:00 | 00:00:00 | |
| OM5KV | 2026-09-05 17:30:24 | 50.68634 | 17.70330 | 102° | 97km/h | 15698m | -7.2m/s | -52.8°C | 0% | 0hPa | 0V | 00:00:00 | 00:00:00 | 00:00:00 | |
| OE5MMP-10 | 2026-09-05 17:30:20 | 50.68659 | 17.70202 | 97° | 86km/h | 15736m | -7.3m/s | 0°C | 0% | 0hPa | 0V | 00:00:00 | 00:00:00 | 00:00:00 | |
| OM5KV | 2026-09-05 17:30:19 | 50.68663 | 17.70166 | 106° | 102km/h | 15736m | -7.3m/s | -53.0°C | 0% | 0hPa | 0V | 00:00:00 | 00:00:00 | 00:00:00 | |
| SQ6EMJ | 2026-09-05 17:30:16 | 50.68690 | 17.70037 | 100° | 91km/h | 15765m | -7.5m/s | -53.1°C | 0% | 0hPa | 0V | 00:00:00 | 00:00:00 | 00:00:00 | |
| OE3JTB-15 | 2026-09-05 17:30:15 | 50.68690 | 17.70022 | 119° | 88km/h | 15772m | -7.5m/s | 0°C | 0% | 0hPa | 0V | 00:00:00 | 00:00:00 | 00:00:00 | |
| OM5KV | 2026-09-05 17:30:13 | 50.68706 | 17.69965 | 120° | 89km/h | 15780m | -7.2m/s | -53.1°C | 0% | 0hPa | 0V | 00:00:00 | 00:00:00 | 00:00:00 | |
| OE5DRO-10 | 2026-09-05 17:30:12 | 50.68716 | 17.69937 | 116° | 82km/h | 15795m | -7.5m/s | 0°C | 0% | 0hPa | 0V | 00:00:00 | 00:00:00 | 00:00:00 | |
| OE5MMP-10 | 2026-09-05 17:30:10 | 50.68726 | 17.69873 | 114° | 86km/h | 15810m | -7.4m/s | 0°C | 0% | 0hPa | 0V | 00:00:00 | 00:00:00 | 00:00:00 | |
| POL1PZ | 2026-09-05 17:30:09 | 50.68734 | 17.69840 | 114° | 99km/h | 15810m | -7.5m/s | -53.2°C | 0% | 0hPa | 0V | 00:00:00 | 00:00:00 | 00:00:00 | |
| OM5KV | 2026-09-05 17:30:07 | 50.68753 | 17.69780 | 114° | 69km/h | 15825m | -7.4m/s | -53.3°C | 0% | 0hPa | 0V | 00:00:00 | 00:00:00 | 00:00:00 | |
| SQ6EMJ | 2026-09-05 17:30:04 | 50.68773 | 17.69683 | 119° | 97km/h | 15847m | -7.3m/s | -53.4°C | 0% | 0hPa | 0V | 00:00:00 | 00:00:00 | 00:00:00 | |
| PETON7-10 | 2026-09-05 17:30:01 | 50.68799 | 17.69597 | 103° | 95km/h | 15877m | -7.3m/s | 0°C | 0% | 0hPa | 0V | 00:00:00 | 00:00:00 | 00:00:00 | |
| OE5MMP-10 | 2026-09-05 17:30:00 | 50.68806 | 17.69562 | 111° | 89km/h | 15884m | -7.5m/s | 0°C | 0% | 0hPa | 0V | 00:00:00 | 00:00:00 | 00:00:00 | |
| SQ6EMJ | 2026-09-05 17:29:58 | 50.68828 | 17.69497 | 123° | 77km/h | 15892m | -7.7m/s | -53.7°C | 0% | 0hPa | 0V | 00:00:00 | 00:00:00 | 00:00:00 | |
| OM5KV | 2026-09-05 17:29:56 | 50.68842 | 17.69438 | 106° | 93km/h | 15907m | -7.5m/s | -53.8°C | 0% | 0hPa | 0V | 00:00:00 | 00:00:00 | 00:00:00 | |
| SP6BVK | 2026-09-05 17:29:54 | 50.68862 | 17.69367 | 125° | 95km/h | 15922m | -7.6m/s | -53.9°C | 0% | 0hPa | 0V | 00:00:00 | 00:00:00 | 00:00:00 | |
| SQ6EMJ | 2026-09-05 17:29:53 | 50.68882 | 17.69309 | 106° | 82km/h | 15938m | -7.6m/s | -54.0°C | 0% | 0hPa | 0V | 00:00:00 | 00:00:00 | 00:00:00 | |
| OE5DRO-10 | 2026-09-05 17:29:52 | 50.68881 | 17.69309 | 106° | 89km/h | 15946m | -7.6m/s | 0°C | 0% | 0hPa | 0V | 00:00:00 | 00:00:00 | 00:00:00 | |
| OM5KV | 2026-09-05 17:29:51 | 50.68888 | 17.69273 | 108° | 102km/h | 15946m | -7.6m/s | -54.1°C | 0% | 0hPa | 0V | 00:00:00 | 00:00:00 | 00:00:00 | |
| OE5MMP-10 | 2026-09-05 17:29:50 | 50.68898 | 17.69235 | 119° | 97km/h | 15968m | -7.8m/s | 0°C | 0% | 0hPa | 0V | 00:00:00 | 00:00:00 | 00:00:00 | |
| POL1PZ | 2026-09-05 17:29:49 | 50.68911 | 17.69202 | 126° | 91km/h | 15961m | -7.5m/s | -54.1°C | 0% | 0hPa | 0V | 00:00:00 | 00:00:00 | 00:00:00 | |
| SQ6EMJ | 2026-09-05 17:29:47 | 50.68930 | 17.69141 | 108° | 93km/h | 15976m | -7.4m/s | -54.1°C | 0% | 0hPa | 0V | 00:00:00 | 00:00:00 | 00:00:00 | |
| OE3JTB-15 | 2026-09-05 17:29:46 | 50.68938 | 17.69103 | 113° | 86km/h | 15992m | -7.4m/s | 0°C | 0% | 0hPa | 0V | 00:00:00 | 00:00:00 | 00:00:00 | |
| OM5KV | 2026-09-05 17:29:45 | 50.68951 | 17.69065 | 124° | 108km/h | 15992m | -7.4m/s | -54.0°C | 0% | 0hPa | 0V | 00:00:00 | 00:00:00 | 00:00:00 | |
| PETON7-10 | 2026-09-05 17:29:41 | 50.68994 | 17.68934 | 117° | 86km/h | 16029m | -7.5m/s | 0°C | 0% | 0hPa | 0V | 00:00:00 | 00:00:00 | 00:00:00 | |
| OE5MMP-10 | 2026-09-05 17:29:40 | 50.69006 | 17.68899 | 125° | 88km/h | 16037m | -7.4m/s | 0°C | 0% | 0hPa | 0V | 00:00:00 | 00:00:00 | 00:00:00 | |
| OM5KV | 2026-09-05 17:29:39 | 50.69020 | 17.68872 | 125° | 77km/h | 16037m | -7.4m/s | -53.4°C | 0% | 0hPa | 0V | 00:00:00 | 00:00:00 | 00:00:00 | |
| SQ6EMJ | 2026-09-05 17:29:36 | 50.69047 | 17.68778 | 121° | 100km/h | 16060m | -7.7m/s | -53.4°C | 0% | 0hPa | 0V | 00:00:00 | 00:00:00 | 00:00:00 | |
| OM5KV | 2026-09-05 17:29:34 | 50.69071 | 17.68722 | 121° | 69km/h | 16075m | -7.5m/s | -53.4°C | 0% | 0hPa | 0V | 00:00:00 | 00:00:00 | 00:00:00 | |
| OE5DRO-10 | 2026-09-05 17:29:32 | 50.69085 | 17.68663 | 110° | 84km/h | 16098m | -7.5m/s | 0°C | 0% | 0hPa | 0V | 00:00:00 | 00:00:00 | 00:00:00 | |
| SQ6EMJ | 2026-09-05 17:29:31 | 50.69107 | 17.68599 | 127° | 80km/h | 16106m | -7.7m/s | -53.6°C | 0% | 0hPa | 0V | 00:00:00 | 00:00:00 | 00:00:00 | |
| OE5MMP-10 | 2026-09-05 17:29:30 | 50.69107 | 17.68599 | 127° | 84km/h | 16114m | -7.5m/s | 0°C | 0% | 0hPa | 0V | 00:00:00 | 00:00:00 | 00:00:00 | |
| POL1PZ | 2026-09-05 17:29:29 | 50.69124 | 17.68547 | 107° | 78km/h | 16121m | -7.6m/s | -53.7°C | 0% | 0hPa | 0V | 00:00:00 | 00:00:00 | 00:00:00 | |
| OM5KV | 2026-09-05 17:29:28 | 50.69124 | 17.68547 | 107° | 78km/h | 16121m | -7.6m/s | -53.7°C | 0% | 0hPa | 0V | 00:00:00 | 00:00:00 | 00:00:00 | |
| PETON7-10 | 2026-09-05 17:29:26 | 50.69141 | 17.68480 | 121° | 86km/h | 16152m | -7.8m/s | 0°C | 0% | 0hPa | 0V | 00:00:00 | 00:00:00 | 00:00:00 | |
| SQ6EMJ | 2026-09-05 17:29:24 | 50.69162 | 17.68426 | 115° | 69km/h | 16152m | -7.8m/s | -53.9°C | 0% | 0hPa | 0V | 00:00:00 | 00:00:00 | 00:00:00 | |
| OM5KV | 2026-09-05 17:29:23 | 50.69168 | 17.68397 | 105° | 82km/h | 16159m | -7.6m/s | -53.9°C | 0% | 0hPa | 0V | 00:00:00 | 00:00:00 | 00:00:00 | |
| OE5MMP-10 | 2026-09-05 17:29:20 | 50.69196 | 17.68299 | 122° | 84km/h | 16190m | -7.4m/s | 0°C | 0% | 0hPa | 0V | 00:00:00 | 00:00:00 | 00:00:00 | |
| SQ6EMJ | 2026-09-05 17:29:19 | 50.69204 | 17.68272 | 113° | 71km/h | 16190m | -7.5m/s | -53.9°C | 0% | 0hPa | 0V | 00:00:00 | 00:00:00 | 00:00:00 | |
| OM5KV | 2026-09-05 17:29:17 | 50.69216 | 17.68209 | 107° | 95km/h | 16205m | -7.4m/s | -53.9°C | 0% | 0hPa | 0V | 00:00:00 | 00:00:00 | 00:00:00 | |
| OE3JTB-15 | 2026-09-05 17:29:16 | 50.69224 | 17.68174 | 114° | 80km/h | 16220m | -7.4m/s | 0°C | 0% | 0hPa | 0V | 00:00:00 | 00:00:00 | 00:00:00 | |
| SQ6EMJ | 2026-09-05 17:29:14 | 50.69248 | 17.68084 | 106° | 78km/h | 16235m | -7.5m/s | -54.0°C | 0% | 0hPa | 0V | 00:00:00 | 00:00:00 | 00:00:00 | |
| OE5DRO-10 | 2026-09-05 17:29:13 | 50.69248 | 17.68084 | 105° | 80km/h | 16242m | -7.4m/s | 0°C | 0% | 0hPa | 0V | 00:00:00 | 00:00:00 | 00:00:00 | |
| PETON7-10 | 2026-09-05 17:29:11 | 50.69258 | 17.68017 | 106° | 80km/h | 16258m | -7.7m/s | 0°C | 0% | 0hPa | 0V | 00:00:00 | 00:00:00 | 00:00:00 | |
| OE5MMP-10 | 2026-09-05 17:29:10 | 50.69265 | 17.67980 | 110° | 78km/h | 16265m | -7.6m/s | 0°C | 0% | 0hPa | 0V | 00:00:00 | 00:00:00 | 00:00:00 | |
| POL1PZ | 2026-09-05 17:29:08 | 50.69279 | 17.67918 | 110° | 80km/h | 16273m | -7.5m/s | -53.8°C | 0% | 0hPa | 0V | 00:00:00 | 00:00:00 | 00:00:00 | |
| OM5KV | 2026-09-05 17:29:06 | 50.69290 | 17.67858 | 104° | 77km/h | 16288m | -7.5m/s | -53.7°C | 0% | 0hPa | 0V | 00:00:00 | 00:00:00 | 00:00:00 | |
| SQ6EMJ | 2026-09-05 17:29:03 | 50.69306 | 17.67737 | 103° | 75km/h | 16318m | -7.5m/s | -53.5°C | 0% | 0hPa | 0V | 00:00:00 | 00:00:00 | 00:00:00 | |
| OM5KV | 2026-09-05 17:29:01 | 50.69315 | 17.67681 | 109° | 71km/h | 16333m | -7.5m/s | -53.4°C | 0% | 0hPa | 0V | 00:00:00 | 00:00:00 | 00:00:00 | |
| OE5MMP-10 | 2026-09-05 17:29:00 | 50.69316 | 17.67681 | 109° | 77km/h | 16340m | -7.7m/s | 0°C | 0% | 0hPa | 0V | 00:00:00 | 00:00:00 | 00:00:00 | |
| SQ6EMJ | 2026-09-05 17:28:57 | 50.69335 | 17.67593 | 107° | 86km/h | 16356m | -7.6m/s | -53.2°C | 0% | 0hPa | 0V | 00:00:00 | 00:00:00 | 00:00:00 | |
| PETON7-10 | 2026-09-05 17:28:56 | 50.69340 | 17.67560 | 101° | 78km/h | 16371m | -7.8m/s | 0°C | 0% | 0hPa | 0V | 00:00:00 | 00:00:00 | 00:00:00 | |
| OM5KV | 2026-09-05 17:28:55 | 50.69343 | 17.67527 | 98° | 80km/h | 16371m | -7.9m/s | -53.2°C | 0% | 0hPa | 0V | 00:00:00 | 00:00:00 | 00:00:00 | |
| OE5DRO-10 | 2026-09-05 17:28:54 | 50.69346 | 17.67498 | 99° | 78km/h | 16386m | -7.7m/s | 0°C | 0% | 0hPa | 0V | 00:00:00 | 00:00:00 | 00:00:00 | |
| SP6BVK | 2026-09-05 17:28:53 | 50.69350 | 17.67471 | 108° | 68km/h | 16386m | -7.7m/s | -53.2°C | 0% | 0hPa | 0V | 00:00:00 | 00:00:00 | 00:00:00 | |
| SQ6EMJ | 2026-09-05 17:28:52 | 50.69364 | 17.67417 | 114° | 82km/h | 16402m | -7.8m/s | -53.2°C | 0% | 0hPa | 0V | 00:00:00 | 00:00:00 | 00:00:00 | |
| OM5KV | 2026-09-05 17:28:50 | 50.69377 | 17.67351 | 101° | 86km/h | 16417m | -7.6m/s | -53.1°C | 0% | 0hPa | 0V | 00:00:00 | 00:00:00 | 00:00:00 | |
| POL1PZ | 2026-09-05 17:28:48 | 50.69384 | 17.67293 | 106° | 66km/h | 16432m | -7.6m/s | -53.1°C | 0% | 0hPa | 0V | 00:00:00 | 00:00:00 | 00:00:00 | |
| OE3JTB-15 | 2026-09-05 17:28:47 | 50.69384 | 17.67293 | 105° | 84km/h | 16440m | -7.7m/s | 0°C | 0% | 0hPa | 0V | 00:00:00 | 00:00:00 | 00:00:00 | |
| SQ6EMJ | 2026-09-05 17:28:46 | 50.69398 | 17.67241 | 117° | 82km/h | 16448m | -7.8m/s | -53.1°C | 0% | 0hPa | 0V | 00:00:00 | 00:00:00 | 00:00:00 | |
| OM5KV | 2026-09-05 17:28:43 | 50.69412 | 17.67175 | 102° | 88km/h | 16463m | -7.5m/s | -53.1°C | 0% | 0hPa | 0V | 00:00:00 | 00:00:00 | 00:00:00 | |
| PETON7-10 | 2026-09-05 17:28:41 | 50.69420 | 17.67115 | 108° | 86km/h | 16487m | -7.5m/s | 0°C | 0% | 0hPa | 0V | 00:00:00 | 00:00:00 | 00:00:00 | |
| OE5MMP-10 | 2026-09-05 17:28:40 | 50.69427 | 17.67094 | 117° | 88km/h | 16495m | -7.9m/s | 0°C | 0% | 0hPa | 0V | 00:00:00 | 00:00:00 | 00:00:00 | |
| OM5KV | 2026-09-05 17:28:38 | 50.69445 | 17.67026 | 110° | 97km/h | 16502m | -7.8m/s | -53.0°C | 0% | 0hPa | 0V | 00:00:00 | 00:00:00 | 00:00:00 | |
| SQ6EMJ | 2026-09-05 17:28:35 | 50.69468 | 17.66897 | 117° | 82km/h | 16533m | -7.5m/s | -52.8°C | 0% | 0hPa | 0V | 00:00:00 | 00:00:00 | 00:00:00 | |
| SP6BVK | 2026-09-05 17:28:32 | 50.69486 | 17.66829 | 109° | 99km/h | 16549m | -7.7m/s | -52.8°C | 0% | 0hPa | 0V | 00:00:00 | 00:00:00 | 00:00:00 | |
| SP3BTT-10 | 2026-09-05 17:28:31 | 50.69493 | 17.66788 | 103° | 78km/h | 16564m | -7.5m/s | 0°C | 0% | 0hPa | 0V | 00:00:00 | 00:00:00 | 00:00:00 | |
| OE5MMP-10 | 2026-09-05 17:28:30 | 50.69498 | 17.66759 | 103° | 86km/h | 16572m | -7.6m/s | 0°C | 0% | 0hPa | 0V | 00:00:00 | 00:00:00 | 00:00:00 | |
| SQ6EMJ | 2026-09-05 17:28:29 | 50.69512 | 17.66703 | 121° | 82km/h | 16580m | -7.7m/s | -52.7°C | 0% | 0hPa | 0V | 00:00:00 | 00:00:00 | 00:00:00 | |
| OM5KV | 2026-09-05 17:28:27 | 50.69522 | 17.66672 | 118° | 95km/h | 16587m | -7.5m/s | -52.7°C | 0% | 0hPa | 0V | 00:00:00 | 00:00:00 | 00:00:00 | |
| PETON7-10 | 2026-09-05 17:28:26 | 50.69532 | 17.66636 | 111° | 88km/h | 16602m | -7.4m/s | 0°C | 0% | 0hPa | 0V | 00:00:00 | 00:00:00 | 00:00:00 | |
| SQ6EMJ | 2026-09-05 17:28:23 | 50.69552 | 17.66540 | 117° | 75km/h | 16618m | -7.4m/s | -52.7°C | 0% | 0hPa | 0V | 00:00:00 | 00:00:00 | 00:00:00 | |
| OE5MMP-10 | 2026-09-05 17:28:20 | 50.69584 | 17.66447 | 113° | 86km/h | 16648m | -7.4m/s | 0°C | 0% | 0hPa | 0V | 00:00:00 | 00:00:00 | 00:00:00 | |
| SQ6EMJ | 2026-09-05 17:28:18 | 50.69608 | 17.66352 | 120° | 77km/h | 16663m | -7.4m/s | -52.6°C | 0% | 0hPa | 0V | 00:00:00 | 00:00:00 | 00:00:00 | |
| OE5DRO-10 | 2026-09-05 17:28:15 | 50.69630 | 17.66295 | 122° | 78km/h | 16686m | -7.6m/s | 0°C | 0% | 0hPa | 0V | 00:00:00 | 00:00:00 | 00:00:00 | |
| SP6BVK | 2026-09-05 17:28:12 | 50.69659 | 17.66197 | 113° | 75km/h | 16701m | -7.4m/s | -52.2°C | 0% | 0hPa | 0V | 00:00:00 | 00:00:00 | 00:00:00 | |
| OE5MMP-10 | 2026-09-05 17:28:10 | 50.69675 | 17.66152 | 126° | 78km/h | 16723m | -7.6m/s | 0°C | 0% | 0hPa | 0V | 00:00:00 | 00:00:00 | 00:00:00 | |
| POL1PZ | 2026-09-05 17:28:07 | 50.69714 | 17.66032 | 108° | 69km/h | 16746m | -7.4m/s | -51.9°C | 0% | 0hPa | 0V | 00:00:00 | 00:00:00 | 00:00:00 | |
| SONDE2-11 | 2026-09-05 17:28:04 | 50.69739 | 17.65959 | 121° | 80km/h | 16768m | -7.5m/s | -52.5°C | -1.0% | -1.0hPa | 0V | 00:00:00 | 00:00:00 | 00:00:00 | |
| EDDB2-11 | 2026-09-05 17:28:03 | 50.69748 | 17.65930 | 111° | 84km/h | 16776m | -7.3m/s | -52.5°C | -1.0% | -1.0hPa | 0V | 00:00:00 | 00:00:00 | 00:00:00 | |
| SQ6EMJ | 2026-09-05 17:28:01 | 50.69758 | 17.65870 | 104° | 66km/h | 16791m | -7.5m/s | -51.8°C | 0% | 0hPa | 0V | 00:00:00 | 00:00:00 | 00:00:00 | |
| OE5MMP-10 | 2026-09-05 17:28:00 | 50.69758 | 17.65870 | 104° | 75km/h | 16798m | -7.5m/s | 0°C | 0% | 0hPa | 0V | 00:00:00 | 00:00:00 | 00:00:00 | |
| SP3BTT-10 | 2026-09-05 17:27:59 | 50.69764 | 17.65851 | 123° | 71km/h | 16806m | -7.8m/s | 0°C | 0% | 0hPa | 0V | 00:00:00 | 00:00:00 | 00:00:00 | |
| PETON7-10 | 2026-09-05 17:27:56 | 50.69788 | 17.65763 | 102° | 75km/h | 16829m | -7.5m/s | 0°C | 0% | 0hPa | 0V | 00:00:00 | 00:00:00 | 00:00:00 | |
| SQ6EMJ | 2026-09-05 17:27:55 | 50.69792 | 17.65733 | 99° | 68km/h | 16829m | -7.6m/s | -51.8°C | 0% | 0hPa | 0V | 00:00:00 | 00:00:00 | 00:00:00 | |
| OM5KV | 2026-09-05 17:27:53 | 50.69803 | 17.65683 | 118° | 77km/h | 16844m | -7.5m/s | -51.7°C | 0% | 0hPa | 0V | 00:00:00 | 00:00:00 | 00:00:00 | |
| SP6BVK | 2026-09-05 17:27:51 | 50.69818 | 17.65619 | 102° | 84km/h | 16859m | -7.7m/s | -51.5°C | 0% | 0hPa | 0V | 00:00:00 | 00:00:00 | 00:00:00 | |
| SQ6EMJ | 2026-09-05 17:27:50 | 50.69827 | 17.65565 | 117° | 62km/h | 16874m | -7.7m/s | -51.3°C | 0% | 0hPa | 0V | 00:00:00 | 00:00:00 | 00:00:00 | |
| OE3JTB-15 | 2026-09-05 17:27:49 | 50.69827 | 17.65565 | 116° | 69km/h | 16890m | -8.1m/s | 0°C | 0% | 0hPa | 0V | 00:00:00 | 00:00:00 | 00:00:00 | |
| OM5KV | 2026-09-05 17:27:47 | 50.69845 | 17.65510 | 113° | 89km/h | 16890m | -8.1m/s | -51.3°C | 0% | 0hPa | 0V | 00:00:00 | 00:00:00 | 00:00:00 | |
| POL1PZ | 2026-09-05 17:27:46 | 50.69851 | 17.65479 | 104° | 80km/h | 16898m | -7.8m/s | -51.3°C | 0% | 0hPa | 0V | 00:00:00 | 00:00:00 | 00:00:00 | |
| SQ6EMJ | 2026-09-05 17:27:45 | 50.69862 | 17.65428 | 121° | 62km/h | 16913m | -7.7m/s | -51.2°C | 0% | 0hPa | 0V | 00:00:00 | 00:00:00 | 00:00:00 | |
| OM5KV | 2026-09-05 17:27:42 | 50.69880 | 17.65376 | 112° | 84km/h | 16929m | -8.0m/s | -51.0°C | 0% | 0hPa | 0V | 00:00:00 | 00:00:00 | 00:00:00 | |
| PETON7-10 | 2026-09-05 17:27:41 | 50.69885 | 17.65346 | 102° | 66km/h | 16945m | -7.6m/s | 0°C | 0% | 0hPa | 0V | 00:00:00 | 00:00:00 | 00:00:00 | |
| SQ6EMJ | 2026-09-05 17:27:39 | 50.69903 | 17.65279 | 122° | 73km/h | 16960m | -8.1m/s | -51.0°C | 0% | 0hPa | 0V | 00:00:00 | 00:00:00 | 00:00:00 | |
| DB0NH | 2026-09-05 17:27:37 | 50.69911 | 17.65247 | 99° | 68km/h | 16976m | -7.8m/s | 0°C | 0% | 0hPa | 0V | 00:00:00 | 00:00:00 | 00:00:00 | |
| SQ6EMJ | 2026-09-05 17:27:33 | 50.69938 | 17.65131 | 108° | 78km/h | 17006m | -7.5m/s | -51.1°C | 0% | 0hPa | 0V | 00:00:00 | 00:00:00 | 00:00:00 | |
| OM5KV | 2026-09-05 17:27:31 | 50.69942 | 17.65102 | 97° | 69km/h | 17014m | -7.7m/s | -51.1°C | 0% | 0hPa | 0V | 00:00:00 | 00:00:00 | 00:00:00 | |
| SP3BTT-10 | 2026-09-05 17:27:29 | 50.69948 | 17.65057 | 117° | 68km/h | 17029m | -7.5m/s | 0°C | 0% | 0hPa | 0V | 00:00:00 | 00:00:00 | 00:00:00 | |
| OE5MMP-10 | 2026-09-05 17:27:28 | 50.69956 | 17.65034 | 116° | 68km/h | 17045m | -7.7m/s | 0°C | 0% | 0hPa | 0V | 00:00:00 | 00:00:00 | 00:00:00 | |
| SQ6EMJ | 2026-09-05 17:27:27 | 50.69962 | 17.65005 | 105° | 78km/h | 17045m | -7.8m/s | -51.1°C | 0% | 0hPa | 0V | 00:00:00 | 00:00:00 | 00:00:00 | |
| OM5KV | 2026-09-05 17:27:26 | 50.69967 | 17.64951 | 99° | 55km/h | 17060m | -7.4m/s | -51.1°C | 0% | 0hPa | 0V | 00:00:00 | 00:00:00 | 00:00:00 | |
| POL1PZ | 2026-09-05 17:27:25 | 50.69967 | 17.64951 | 99° | 55km/h | 17060m | -7.4m/s | -51.1°C | 0% | 0hPa | 0V | 00:00:00 | 00:00:00 | 00:00:00 | |
| SQ6EMJ | 2026-09-05 17:27:21 | 50.69987 | 17.64848 | 96° | 69km/h | 17091m | -7.8m/s | -51.2°C | 0% | 0hPa | 0V | 00:00:00 | 00:00:00 | 00:00:00 | |
| OE3JTB-15 | 2026-09-05 17:27:20 | 50.69990 | 17.64824 | 103° | 64km/h | 17099m | -7.8m/s | 0°C | 0% | 0hPa | 0V | 00:00:00 | 00:00:00 | 00:00:00 | |
| OM5KV | 2026-09-05 17:27:19 | 50.69995 | 17.64803 | 120° | 60km/h | 17107m | -7.7m/s | -51.3°C | 0% | 0hPa | 0V | 00:00:00 | 00:00:00 | 00:00:00 | |
| OE5MMP-10 | 2026-09-05 17:27:18 | 50.70002 | 17.64778 | 105° | 68km/h | 17129m | -7.5m/s | 0°C | 0% | 0hPa | 0V | 00:00:00 | 00:00:00 | 00:00:00 | |
| OM5KV | 2026-09-05 17:27:14 | 50.70022 | 17.64677 | 120° | 64km/h | 17145m | -7.8m/s | -51.4°C | 0% | 0hPa | 0V | 00:00:00 | 00:00:00 | 00:00:00 | |
| SQ6EMJ | 2026-09-05 17:27:11 | 50.70043 | 17.64569 | 111° | 57km/h | 17177m | -7.6m/s | -51.5°C | 0% | 0hPa | 0V | 00:00:00 | 00:00:00 | 00:00:00 | |
| SP6BVK | 2026-09-05 17:27:10 | 50.70043 | 17.64569 | 111° | 57km/h | 17177m | -7.6m/s | -51.5°C | 0% | 0hPa | 0V | 00:00:00 | 00:00:00 | 00:00:00 | |
| DB0NH | 2026-09-05 17:27:07 | 50.70065 | 17.64486 | 100° | 62km/h | 17208m | -7.7m/s | 0°C | 0% | 0hPa | 0V | 00:00:00 | 00:00:00 | 00:00:00 | |
| POL1PZ | 2026-09-05 17:27:05 | 50.70072 | 17.64443 | 115° | 55km/h | 17216m | -7.7m/s | -51.3°C | 0% | 0hPa | 0V | 00:00:00 | 00:00:00 | 00:00:00 | |
| SQ6EMJ | 2026-09-05 17:27:04 | 50.70079 | 17.64421 | 123° | 69km/h | 17224m | -7.6m/s | -51.3°C | 0% | 0hPa | 0V | 00:00:00 | 00:00:00 | 00:00:00 | |
| OM5KV | 2026-09-05 17:27:03 | 50.70088 | 17.64395 | 115° | 82km/h | 17232m | -8.0m/s | -51.3°C | 0% | 0hPa | 0V | 00:00:00 | 00:00:00 | 00:00:00 | |
| SONDE2-11 | 2026-09-05 17:27:02 | 50.70098 | 17.64340 | 100° | 57km/h | 17248m | -7.8m/s | -51.9°C | -1.0% | -1.0hPa | 0V | 00:00:00 | 00:00:00 | 00:00:00 | |
| SP3BTT-10 | 2026-09-05 17:26:59 | 50.70110 | 17.64302 | 115° | 57km/h | 17272m | -8.1m/s | 0°C | 0% | 0hPa | 0V | 00:00:00 | 00:00:00 | 00:00:00 | |
| OE5MMP-10 | 2026-09-05 17:26:58 | 50.70119 | 17.64275 | 115° | 60km/h | 17280m | -8.1m/s | 0°C | 0% | 0hPa | 0V | 00:00:00 | 00:00:00 | 00:00:00 | |
| OM5KV | 2026-09-05 17:26:57 | 50.70124 | 17.64247 | 103° | 69km/h | 17280m | -8.1m/s | -51.1°C | 0% | 0hPa | 0V | 00:00:00 | 00:00:00 | 00:00:00 | |
| PETON7-10 | 2026-09-05 17:26:56 | 50.70127 | 17.64223 | 101° | 58km/h | 17296m | -7.8m/s | 0°C | 0% | 0hPa | 0V | 00:00:00 | 00:00:00 | 00:00:00 | |
| SQ6EMJ | 2026-09-05 17:26:54 | 50.70147 | 17.64162 | 113° | 73km/h | 17312m | -8.1m/s | -51.1°C | 0% | 0hPa | 0V | 00:00:00 | 00:00:00 | 00:00:00 | |
| OM5KV | 2026-09-05 17:26:51 | 50.70153 | 17.64114 | 100° | 49km/h | 17328m | -7.7m/s | -51.1°C | 0% | 0hPa | 0V | 00:00:00 | 00:00:00 | 00:00:00 | |
| SP6BVK | 2026-09-05 17:26:50 | 50.70157 | 17.64096 | 119° | 47km/h | 17336m | -8.0m/s | -51.1°C | 0% | 0hPa | 0V | 00:00:00 | 00:00:00 | 00:00:00 | |
| SQ9EZE-14 | 2026-09-05 17:26:49 | 50.70164 | 17.64076 | 121° | 64km/h | 17344m | -8.1m/s | -51.1°C | 0% | 0hPa | 0V | 00:00:00 | 00:00:00 | 00:00:00 | |
| OE5MMP-10 | 2026-09-05 17:26:48 | 50.70171 | 17.64047 | 96° | 58km/h | 17360m | -8.2m/s | 0°C | 0% | 0hPa | 0V | 00:00:00 | 00:00:00 | 00:00:00 | |
| SQ6EMJ | 2026-09-05 17:26:47 | 50.70174 | 17.64026 | 96° | 62km/h | 17360m | -8.3m/s | -51.1°C | 0% | 0hPa | 0V | 00:00:00 | 00:00:00 | 00:00:00 | |
| POL1PZ | 2026-09-05 17:26:44 | 50.70186 | 17.63968 | 116° | 64km/h | 17385m | -8.4m/s | -50.9°C | 0% | 0hPa | 0V | 00:00:00 | 00:00:00 | 00:00:00 | |
| PETON7-10 | 2026-09-05 17:26:41 | 50.70192 | 17.63896 | 94° | 53km/h | 17419m | -8.0m/s | 0°C | 0% | 0hPa | 0V | 00:00:00 | 00:00:00 | 00:00:00 | |
| OM5KV | 2026-09-05 17:26:40 | 50.70195 | 17.63878 | 115° | 49km/h | 17419m | -8.0m/s | -50.5°C | 0% | 0hPa | 0V | 00:00:00 | 00:00:00 | 00:00:00 | |
| OE5MMP-10 | 2026-09-05 17:26:38 | 50.70204 | 17.63832 | 96° | 53km/h | 17444m | -8.2m/s | 0°C | 0% | 0hPa | 0V | 00:00:00 | 00:00:00 | 00:00:00 | |
| DB0NH | 2026-09-05 17:26:37 | 50.70204 | 17.63808 | 85° | 57km/h | 17444m | -8.2m/s | 0°C | 0% | 0hPa | 0V | 00:00:00 | 00:00:00 | 00:00:00 | |
| OM5KV | 2026-09-05 17:26:35 | 50.70206 | 17.63773 | 113° | 47km/h | 17460m | -8.5m/s | -50.5°C | 0% | 0hPa | 0V | 00:00:00 | 00:00:00 | 00:00:00 | |
| SQ6EMJ | 2026-09-05 17:26:34 | 50.70213 | 17.63727 | 92° | 64km/h | 17478m | -8.7m/s | -50.6°C | 0% | 0hPa | 0V | 00:00:00 | 00:00:00 | 00:00:00 | |
| OM5KV | 2026-09-05 17:26:30 | 50.70216 | 17.63649 | 101° | 62km/h | 17512m | -8.5m/s | -50.7°C | 0% | 0hPa | 0V | 00:00:00 | 00:00:00 | 00:00:00 | |
| SP3BTT-10 | 2026-09-05 17:26:29 | 50.70216 | 17.63649 | 101° | 49km/h | 17521m | -8.7m/s | 0°C | 0% | 0hPa | 0V | 00:00:00 | 00:00:00 | 00:00:00 | |
| OE5MMP-10 | 2026-09-05 17:26:28 | 50.70217 | 17.63625 | 85° | 55km/h | 17529m | -8.6m/s | 0°C | 0% | 0hPa | 0V | 00:00:00 | 00:00:00 | 00:00:00 | |
| SQ6EMJ | 2026-09-05 17:26:27 | 50.70215 | 17.63603 | 78° | 47km/h | 17529m | -8.6m/s | -50.7°C | 0% | 0hPa | 0V | 00:00:00 | 00:00:00 | 00:00:00 | |
| PETON7-10 | 2026-09-05 17:26:26 | 50.70214 | 17.63592 | 110° | 55km/h | 17547m | -8.6m/s | 0°C | 0% | 0hPa | 0V | 00:00:00 | 00:00:00 | 00:00:00 | |
| POL1PZ | 2026-09-05 17:26:23 | 50.70221 | 17.63522 | 85° | 64km/h | 17564m | -8.6m/s | -50.6°C | 0% | 0hPa | 0V | 00:00:00 | 00:00:00 | 00:00:00 | |
| SQ6EMJ | 2026-09-05 17:26:22 | 50.70218 | 17.63482 | 99° | 40km/h | 17581m | -8.5m/s | -50.7°C | 0% | 0hPa | 0V | 00:00:00 | 00:00:00 | 00:00:00 | |
| OE5DRO-10 | 2026-09-05 17:26:19 | 50.70224 | 17.63441 | 97° | 57km/h | 17634m | -8.7m/s | 0°C | 0% | 0hPa | 0V | 00:00:00 | 00:00:00 | 00:00:00 | |
| OE5MMP-10 | 2026-09-05 17:26:18 | 50.70223 | 17.63411 | 80° | 57km/h | 17616m | -8.6m/s | 0°C | 0% | 0hPa | 0V | 00:00:00 | 00:00:00 | 00:00:00 | |
| SQ6EMJ | 2026-09-05 17:26:15 | 50.70226 | 17.63330 | 93° | 69km/h | 17642m | -8.8m/s | -50.8°C | 0% | 0hPa | 0V | 00:00:00 | 00:00:00 | 00:00:00 | |
| OM5KV | 2026-09-05 17:26:12 | 50.70222 | 17.63283 | 77° | 46km/h | 17660m | -8.6m/s | -50.8°C | 0% | 0hPa | 0V | 00:00:00 | 00:00:00 | 00:00:00 | |
| SQ6EMJ | 2026-09-05 17:26:09 | 50.70223 | 17.63197 | 77° | 58km/h | 17695m | -8.8m/s | -51.0°C | 0% | 0hPa | 0V | 00:00:00 | 00:00:00 | 00:00:00 | |
| OE5MMP-10 | 2026-09-05 17:26:08 | 50.70223 | 17.63197 | 76° | 51km/h | 17704m | -8.9m/s | 0°C | 0% | 0hPa | 0V | 00:00:00 | 00:00:00 | 00:00:00 | |
| OM5KV | 2026-09-05 17:26:07 | 50.70221 | 17.63178 | 80° | 40km/h | 17704m | -8.9m/s | -51.1°C | 0% | 0hPa | 0V | 00:00:00 | 00:00:00 | 00:00:00 | |
| DB0NH | 2026-09-05 17:26:06 | 50.70221 | 17.63162 | 104° | 47km/h | 17722m | -9.0m/s | 0°C | 0% | 0hPa | 0V | 00:00:00 | 00:00:00 | 00:00:00 | |
| OE3JTB-15 | 2026-09-05 17:26:04 | 50.70225 | 17.63118 | 87° | 51km/h | 17740m | -9.1m/s | 0°C | 0% | 0hPa | 0V | 00:00:00 | 00:00:00 | 00:00:00 | |
| SQ6EMJ | 2026-09-05 17:26:03 | 50.70220 | 17.63078 | 85° | 37km/h | 17749m | -8.8m/s | -51.3°C | 0% | 0hPa | 0V | 00:00:00 | 00:00:00 | 00:00:00 | |
| OE5MMP-10 | 2026-09-05 17:25:58 | 50.70223 | 17.62997 | 89° | 47km/h | 17794m | -8.9m/s | 0°C | 0% | 0hPa | 0V | 00:00:00 | 00:00:00 | 00:00:00 | |
| PETON7-10 | 2026-09-05 17:25:56 | 50.70223 | 17.62972 | 100° | 46km/h | 17812m | -8.8m/s | 0°C | 0% | 0hPa | 0V | 00:00:00 | 00:00:00 | 00:00:00 | |
| OM5KV | 2026-09-05 17:25:55 | 50.70227 | 17.62949 | 100° | 58km/h | 17812m | -8.8m/s | -51.5°C | 0% | 0hPa | 0V | 00:00:00 | 00:00:00 | 00:00:00 | |
| SQ6EMJ | 2026-09-05 17:25:51 | 50.70227 | 17.62857 | 97° | 58km/h | 17858m | -9.0m/s | -51.8°C | 0% | 0hPa | 0V | 00:00:00 | 00:00:00 | 00:00:00 | |
| OM5KV | 2026-09-05 17:25:50 | 50.70227 | 17.62857 | 97° | 58km/h | 17858m | -9.0m/s | -51.8°C | 0% | 0hPa | 0V | 00:00:00 | 00:00:00 | 00:00:00 | |
| SP6BVK | 2026-09-05 17:25:49 | 50.70222 | 17.62815 | 69° | 42km/h | 17876m | -8.9m/s | -51.9°C | 0% | 0hPa | 0V | 00:00:00 | 00:00:00 | 00:00:00 | |
| OE5MMP-10 | 2026-09-05 17:25:48 | 50.70222 | 17.62815 | 69° | 46km/h | 17885m | -9.0m/s | 0°C | 0% | 0hPa | 0V | 00:00:00 | 00:00:00 | 00:00:00 | |
| SQ6EMJ | 2026-09-05 17:25:45 | 50.70222 | 17.62744 | 76° | 55km/h | 17912m | -9.1m/s | -52.0°C | 0% | 0hPa | 0V | 00:00:00 | 00:00:00 | 00:00:00 | |
| OM5KV | 2026-09-05 17:25:44 | 50.70222 | 17.62744 | 76° | 55km/h | 17912m | -9.1m/s | -52.0°C | 0% | 0hPa | 0V | 00:00:00 | 00:00:00 | 00:00:00 | |
| SP3BTT-10 | 2026-09-05 17:25:43 | 50.70219 | 17.62726 | 67° | 51km/h | 17921m | -8.6m/s | 0°C | 0% | 0hPa | 0V | 00:00:00 | 00:00:00 | 00:00:00 | |
| POL1PZ | 2026-09-05 17:25:42 | 50.70216 | 17.62713 | 91° | 29km/h | 17930m | -8.9m/s | -51.9°C | 0% | 0hPa | 0V | 00:00:00 | 00:00:00 | 00:00:00 | |
| PETON7-10 | 2026-09-05 17:25:41 | 50.70217 | 17.62699 | 86° | 42km/h | 17948m | -8.6m/s | 0°C | 0% | 0hPa | 0V | 00:00:00 | 00:00:00 | 00:00:00 | |
| OM5KV | 2026-09-05 17:25:39 | 50.70215 | 17.62658 | 69° | 51km/h | 17957m | -9.1m/s | -51.6°C | 0% | 0hPa | 0V | 00:00:00 | 00:00:00 | 00:00:00 | |
| OE5MMP-10 | 2026-09-05 17:25:38 | 50.70210 | 17.62642 | 66° | 42km/h | 17975m | -8.8m/s | 0°C | 0% | 0hPa | 0V | 00:00:00 | 00:00:00 | 00:00:00 | |
| DB0NH | 2026-09-05 17:25:36 | 50.70210 | 17.62615 | 102° | 47km/h | 17993m | -8.9m/s | 0°C | 0% | 0hPa | 0V | 00:00:00 | 00:00:00 | 00:00:00 | |
| OM5KV | 2026-09-05 17:25:34 | 50.70207 | 17.62561 | 79° | 27km/h | 18012m | -9.0m/s | -51.3°C | 0% | 0hPa | 0V | 00:00:00 | 00:00:00 | 00:00:00 | |
| OE5MMP-10 | 2026-09-05 17:25:28 | 50.70210 | 17.62486 | 115° | 46km/h | 18067m | -9.2m/s | 0°C | 0% | 0hPa | 0V | 00:00:00 | 00:00:00 | 00:00:00 | |
| OM5KV | 2026-09-05 17:25:27 | 50.70211 | 17.62469 | 116° | 38km/h | 18067m | -9.2m/s | -51.3°C | 0% | 0hPa | 0V | 00:00:00 | 00:00:00 | 00:00:00 | |
| PETON7-10 | 2026-09-05 17:25:26 | 50.70215 | 17.62449 | 89° | 47km/h | 18085m | -8.7m/s | 0°C | 0% | 0hPa | 0V | 00:00:00 | 00:00:00 | 00:00:00 | |
| POL1PZ | 2026-09-05 17:25:22 | 50.70218 | 17.62383 | 117° | 46km/h | 18113m | -9.0m/s | -51.6°C | 0% | 0hPa | 0V | 00:00:00 | 00:00:00 | 00:00:00 | |
| SQ6EMJ | 2026-09-05 17:25:21 | 50.70223 | 17.62341 | 88° | 57km/h | 18131m | -9.1m/s | -51.7°C | 0% | 0hPa | 0V | 00:00:00 | 00:00:00 | 00:00:00 | |
| OE5DRO-10 | 2026-09-05 17:25:20 | 50.70224 | 17.62341 | 87° | 53km/h | 18140m | -9.3m/s | 0°C | 0% | 0hPa | 0V | 00:00:00 | 00:00:00 | 00:00:00 | |
| OE5MMP-10 | 2026-09-05 17:25:18 | 50.70223 | 17.62307 | 106° | 51km/h | 18158m | -9.1m/s | 0°C | 0% | 0hPa | 0V | 00:00:00 | 00:00:00 | 00:00:00 | |
| OM5KV | 2026-09-05 17:25:16 | 50.70230 | 17.62270 | 102° | 62km/h | 18167m | -9.1m/s | -51.9°C | 0% | 0hPa | 0V | 00:00:00 | 00:00:00 | 00:00:00 | |
| SQ6EMJ | 2026-09-05 17:25:15 | 50.70230 | 17.62228 | 86° | 40km/h | 18185m | -9.1m/s | -52.1°C | 0% | 0hPa | 0V | 00:00:00 | 00:00:00 | 00:00:00 | |
| PETON7-10 | 2026-09-05 17:25:11 | 50.70240 | 17.62167 | 86° | 57km/h | 18222m | -9.4m/s | 0°C | 0% | 0hPa | 0V | 00:00:00 | 00:00:00 | 00:00:00 | |
| SQ6EMJ | 2026-09-05 17:25:09 | 50.70240 | 17.62128 | 93° | 42km/h | 18232m | -9.3m/s | -52.2°C | 0% | 0hPa | 0V | 00:00:00 | 00:00:00 | 00:00:00 | |
| OE5MMP-10 | 2026-09-05 17:25:08 | 50.70242 | 17.62112 | 115° | 57km/h | 18250m | -9.1m/s | 0°C | 0% | 0hPa | 0V | 00:00:00 | 00:00:00 | 00:00:00 | |
| SP6BVK | 2026-09-05 17:25:07 | 50.70248 | 17.62092 | 113° | 64km/h | 18250m | -9.2m/s | -52.2°C | 0% | 0hPa | 0V | 00:00:00 | 00:00:00 | 00:00:00 | |
| DB0NH | 2026-09-05 17:25:06 | 50.70252 | 17.62067 | 98° | 37km/h | 18268m | -9.2m/s | 0°C | 0% | 0hPa | 0V | 00:00:00 | 00:00:00 | 00:00:00 | |
| OM5KV | 2026-09-05 17:25:05 | 50.70253 | 17.62042 | 87° | 57km/h | 18268m | -9.2m/s | -52.3°C | 0% | 0hPa | 0V | 00:00:00 | 00:00:00 | 00:00:00 | |
| SQ6EMJ | 2026-09-05 17:25:04 | 50.70256 | 17.62006 | 116° | 51km/h | 18287m | -9.3m/s | -52.4°C | 0% | 0hPa | 0V | 00:00:00 | 00:00:00 | 00:00:00 | |
| OE3JTB-15 | 2026-09-05 17:25:02 | 50.70262 | 17.61982 | 97° | 62km/h | 18306m | -9.3m/s | 0°C | 0% | 0hPa | 0V | 00:00:00 | 00:00:00 | 00:00:00 | |
| OE5DRO-10 | 2026-09-05 17:25:01 | 50.70266 | 17.61957 | 97° | 64km/h | 18315m | -8.9m/s | 0°C | 0% | 0hPa | 0V | 00:00:00 | 00:00:00 | 00:00:00 | |
| SQ6EMJ | 2026-09-05 17:24:59 | 50.70271 | 17.61892 | 115° | 57km/h | 18334m | -9.3m/s | -52.6°C | 0% | 0hPa | 0V | 00:00:00 | 00:00:00 | 00:00:00 | |
| OE5MMP-10 | 2026-09-05 17:24:58 | 50.70271 | 17.61896 | 107° | 62km/h | 18343m | -9.1m/s | 0°C | 0% | 0hPa | 0V | 00:00:00 | 00:00:00 | 00:00:00 | |
| PETON7-10 | 2026-09-05 17:24:56 | 50.70280 | 17.61834 | 89° | 64km/h | 18361m | -9.4m/s | 0°C | 0% | 0hPa | 0V | 00:00:00 | 00:00:00 | 00:00:00 | |
| OM5KV | 2026-09-05 17:24:54 | 50.70282 | 17.61792 | 106° | 47km/h | 18371m | -9.1m/s | -52.7°C | 0% | 0hPa | 0V | 00:00:00 | 00:00:00 | 00:00:00 | |
| SQ6EMJ | 2026-09-05 17:24:53 | 50.70292 | 17.61747 | 108° | 77km/h | 18389m | -9.3m/s | -52.7°C | 0% | 0hPa | 0V | 00:00:00 | 00:00:00 | 00:00:00 | |
| OM5KV | 2026-09-05 17:24:48 | 50.70304 | 17.61647 | 116° | 69km/h | 18426m | -8.9m/s | -52.4°C | 0% | 0hPa | 0V | 00:00:00 | 00:00:00 | 00:00:00 | |
| OM5KV | 2026-09-05 17:24:43 | 50.70327 | 17.61523 | 121° | 66km/h | 18473m | -8.9m/s | -51.6°C | 0% | 0hPa | 0V | 00:00:00 | 00:00:00 | 00:00:00 | |
| SQ6EMJ | 2026-09-05 17:24:42 | 50.70339 | 17.61473 | 100° | 62km/h | 18491m | -9.3m/s | -51.2°C | 0% | 0hPa | 0V | 00:00:00 | 00:00:00 | 00:00:00 | |
| PETON7-10 | 2026-09-05 17:24:41 | 50.70339 | 17.61468 | 105° | 49km/h | 18500m | -8.8m/s | 0°C | 0% | 0hPa | 0V | 00:00:00 | 00:00:00 | 00:00:00 | |
| OM5KV | 2026-09-05 17:24:38 | 50.70362 | 17.61396 | 111° | 66km/h | 18528m | -9.6m/s | -50.8°C | 0% | 0hPa | 0V | 00:00:00 | 00:00:00 | 00:00:00 | |
| SQ6EMJ | 2026-09-05 17:24:36 | 50.70369 | 17.61360 | 119° | 33km/h | 18546m | -8.6m/s | -50.7°C | 0% | 0hPa | 0V | 00:00:00 | 00:00:00 | 00:00:00 | |
| OE3JTB-15 | 2026-09-05 17:24:33 | 50.70383 | 17.61334 | 128° | 44km/h | 18574m | -9.2m/s | 0°C | 0% | 0hPa | 0V | 00:00:00 | 00:00:00 | 00:00:00 | |
| OM5KV | 2026-09-05 17:24:31 | 50.70392 | 17.61299 | 100° | 37km/h | 18584m | -9.5m/s | -50.3°C | 0% | 0hPa | 0V | 00:00:00 | 00:00:00 | 00:00:00 | |
| SQ6EMJ | 2026-09-05 17:24:30 | 50.70395 | 17.61288 | 129° | 29km/h | 18592m | -9.3m/s | -50.2°C | 0% | 0hPa | 0V | 00:00:00 | 00:00:00 | 00:00:00 | |
| OE5MMP-10 | 2026-09-05 17:24:28 | 50.70410 | 17.61258 | 105° | 47km/h | 18620m | -9.1m/s | 0°C | 0% | 0hPa | 0V | 00:00:00 | 00:00:00 | 00:00:00 | |
| PETON7-10 | 2026-09-05 17:24:26 | 50.70419 | 17.61226 | 134° | 42km/h | 18639m | -9.8m/s | 0°C | 0% | 0hPa | 0V | 00:00:00 | 00:00:00 | 00:00:00 | |
| SQ6EMJ | 2026-09-05 17:24:24 | 50.70430 | 17.61200 | 134° | 55km/h | 18649m | -9.2m/s | -50.4°C | 0% | 0hPa | 0V | 00:00:00 | 00:00:00 | 00:00:00 | |
| OE5DRO-10 | 2026-09-05 17:24:22 | 50.70443 | 17.61160 | 103° | 38km/h | 18678m | -8.9m/s | 0°C | 0% | 0hPa | 0V | 00:00:00 | 00:00:00 | 00:00:00 | |
| OM5KV | 2026-09-05 17:24:21 | 50.70451 | 17.61133 | 140° | 38km/h | 18688m | -9.4m/s | -50.3°C | 0% | 0hPa | 0V | 00:00:00 | 00:00:00 | 00:00:00 | |
| POL1PZ | 2026-09-05 17:24:20 | 50.70451 | 17.61133 | 140° | 38km/h | 18688m | -9.4m/s | -50.3°C | 0% | 0hPa | 0V | 00:00:00 | 00:00:00 | 00:00:00 | |
| SQ6EMJ | 2026-09-05 17:24:19 | 50.70465 | 17.61101 | 111° | 55km/h | 18707m | -9.5m/s | -50.2°C | 0% | 0hPa | 0V | 00:00:00 | 00:00:00 | 00:00:00 | |
| OE5MMP-10 | 2026-09-05 17:24:18 | 50.70466 | 17.61101 | 111° | 38km/h | 18717m | -9.3m/s | 0°C | 0% | 0hPa | 0V | 00:00:00 | 00:00:00 | 00:00:00 | |
| OM5KV | 2026-09-05 17:24:15 | 50.70475 | 17.61063 | 143° | 37km/h | 18735m | -9.4m/s | -50.3°C | 0% | 0hPa | 0V | 00:00:00 | 00:00:00 | 00:00:00 | |
| SQ6EMJ | 2026-09-05 17:24:13 | 50.70488 | 17.61034 | 105° | 47km/h | 18754m | -9.5m/s | -50.4°C | 0% | 0hPa | 0V | 00:00:00 | 00:00:00 | 00:00:00 | |
| PETON7-10 | 2026-09-05 17:24:11 | 50.70491 | 17.61015 | 141° | 29km/h | 18782m | -9.3m/s | 0°C | 0% | 0hPa | 0V | 00:00:00 | 00:00:00 | 00:00:00 | |
| OM5KV | 2026-09-05 17:24:09 | 50.70503 | 17.60989 | 119° | 46km/h | 18792m | -9.5m/s | -50.6°C | 0% | 0hPa | 0V | 00:00:00 | 00:00:00 | 00:00:00 | |
| SQ6EMJ | 2026-09-05 17:24:08 | 50.70506 | 17.60961 | 85° | 22km/h | 18810m | -9.2m/s | -50.7°C | 0% | 0hPa | 0V | 00:00:00 | 00:00:00 | 00:00:00 | |
| SP6BVK | 2026-09-05 17:24:05 | 50.70512 | 17.60947 | 135° | 35km/h | 18829m | -9.5m/s | -50.8°C | 0% | 0hPa | 0V | 00:00:00 | 00:00:00 | 00:00:00 | |
| OE3JTB-15 | 2026-09-05 17:24:04 | 50.70517 | 17.60929 | 85° | 29km/h | 18867m | -9.0m/s | 0°C | 0% | 0hPa | 0V | 00:00:00 | 00:00:00 | 00:00:00 | |
| OE5DRO-10 | 2026-09-05 17:24:03 | 50.70518 | 17.60920 | 85° | 24km/h | 18858m | -9.2m/s | 0°C | 0% | 0hPa | 0V | 00:00:00 | 00:00:00 | 00:00:00 | |
| SQ6EMJ | 2026-09-05 17:24:02 | 50.70518 | 17.60910 | 87° | 15km/h | 18858m | -9.2m/s | -50.9°C | 0% | 0hPa | 0V | 00:00:00 | 00:00:00 | 00:00:00 | |
| POL1PZ | 2026-09-05 17:24:00 | 50.70525 | 17.60898 | 133° | 37km/h | 18876m | -9.6m/s | -51.0°C | 0% | 0hPa | 0V | 00:00:00 | 00:00:00 | 00:00:00 | |
| OE5MMP-10 | 2026-09-05 17:23:58 | 50.70530 | 17.60870 | 103° | 24km/h | 18905m | -9.4m/s | 0°C | 0% | 0hPa | 0V | 00:00:00 | 00:00:00 | 00:00:00 | |
| SQ6EMJ | 2026-09-05 17:23:57 | 50.70532 | 17.60863 | 153° | 22km/h | 18914m | -9.5m/s | -51.3°C | 0% | 0hPa | 0V | 00:00:00 | 00:00:00 | 00:00:00 | |
| PETON7-10 | 2026-09-05 17:23:56 | 50.70532 | 17.60862 | 152° | 24km/h | 18924m | -9.5m/s | 0°C | 0% | 0hPa | 0V | 00:00:00 | 00:00:00 | 00:00:00 | |
| OM5KV | 2026-09-05 17:23:52 | 50.70540 | 17.60827 | 137° | 7km/h | 18952m | -9.4m/s | -51.5°C | 0% | 0hPa | 0V | 00:00:00 | 00:00:00 | 00:00:00 | |
| SQ6EMJ | 2026-09-05 17:23:51 | 50.70548 | 17.60815 | 122° | 35km/h | 18971m | -9.5m/s | -51.6°C | 0% | 0hPa | 0V | 00:00:00 | 00:00:00 | 00:00:00 | |
| OE5MMP-10 | 2026-09-05 17:23:48 | 50.70549 | 17.60794 | 65° | 26km/h | 18999m | -9.6m/s | 0°C | 0% | 0hPa | 0V | 00:00:00 | 00:00:00 | 00:00:00 | |
| OM5KV | 2026-09-05 17:23:47 | 50.70549 | 17.60790 | 133° | 9km/h | 18999m | -9.6m/s | -51.8°C | 0% | 0hPa | 0V | 00:00:00 | 00:00:00 | 00:00:00 | |
| SP3BTT-10 | 2026-09-05 17:23:45 | 50.70556 | 17.60773 | 87° | 35km/h | 19028m | -9.1m/s | 0°C | 0% | 0hPa | 0V | 00:00:00 | 00:00:00 | 00:00:00 | |
| DB0NH | 2026-09-05 17:23:44 | 50.70558 | 17.60762 | 87° | 35km/h | 19037m | -9.4m/s | 0°C | 0% | 0hPa | 0V | 00:00:00 | 00:00:00 | 00:00:00 | |
| PETON7-10 | 2026-09-05 17:23:41 | 50.70559 | 17.60740 | 132° | 31km/h | 19065m | -9.1m/s | 0°C | 0% | 0hPa | 0V | 00:00:00 | 00:00:00 | 00:00:00 | |
| SQ6EMJ | 2026-09-05 17:23:40 | 50.70564 | 17.60714 | 87° | 38km/h | 19074m | -8.8m/s | -52.3°C | 0% | 0hPa | 0V | 00:00:00 | 00:00:00 | 00:00:00 | |
| POL1PZ | 2026-09-05 17:23:39 | 50.70564 | 17.60714 | 87° | 38km/h | 19074m | -8.8m/s | -52.3°C | 0% | 0hPa | 0V | 00:00:00 | 00:00:00 | 00:00:00 | |
| OE5MMP-10 | 2026-09-05 17:23:38 | 50.70563 | 17.60702 | 100° | 31km/h | 19093m | -9.5m/s | 0°C | 0% | 0hPa | 0V | 00:00:00 | 00:00:00 | 00:00:00 | |
| SQ6EMJ | 2026-09-05 17:23:35 | 50.70570 | 17.60657 | 88° | 44km/h | 19121m | -9.5m/s | -52.6°C | 0% | 0hPa | 0V | 00:00:00 | 00:00:00 | 00:00:00 | |
| OE3JTB-15 | 2026-09-05 17:23:34 | 50.70570 | 17.60657 | 88° | 42km/h | 19121m | -9.5m/s | 0°C | 0% | 0hPa | 0V | 00:00:00 | 00:00:00 | 00:00:00 | |
| OM5KV | 2026-09-05 17:23:30 | 50.70573 | 17.60613 | 105° | 44km/h | 19158m | -8.9m/s | -53.0°C | 0% | 0hPa | 0V | 00:00:00 | 00:00:00 | 00:00:00 | |
| SQ6EMJ | 2026-09-05 17:23:29 | 50.70571 | 17.60581 | 64° | 31km/h | 19176m | -9.4m/s | -53.1°C | 0% | 0hPa | 0V | 00:00:00 | 00:00:00 | 00:00:00 | |
| OE5MMP-10 | 2026-09-05 17:23:28 | 50.70571 | 17.60581 | 64° | 38km/h | 19185m | -9.6m/s | 0°C | 0% | 0hPa | 0V | 00:00:00 | 00:00:00 | 00:00:00 | |
| PETON7-10 | 2026-09-05 17:23:26 | 50.70571 | 17.60562 | 116° | 38km/h | 19204m | -9.3m/s | 0°C | 0% | 0hPa | 0V | 00:00:00 | 00:00:00 | 00:00:00 | |
| OE5DRO-10 | 2026-09-05 17:23:25 | 50.70574 | 17.60543 | 74° | 40km/h | 19213m | -9.4m/s | 0°C | 0% | 0hPa | 0V | 00:00:00 | 00:00:00 | 00:00:00 | |
| SP6BVK | 2026-09-05 17:23:24 | 50.70573 | 17.60528 | 74° | 47km/h | 19213m | -9.4m/s | -53.3°C | 0% | 0hPa | 0V | 00:00:00 | 00:00:00 | 00:00:00 | |
| SQ6EMJ | 2026-09-05 17:23:23 | 50.70567 | 17.60503 | 94° | 20km/h | 19233m | -9.6m/s | -53.6°C | 0% | 0hPa | 0V | 00:00:00 | 00:00:00 | 00:00:00 | |
| POL1PZ | 2026-09-05 17:23:19 | 50.70569 | 17.60456 | 73° | 49km/h | 19261m | -9.5m/s | -53.8°C | 0% | 0hPa | 0V | 00:00:00 | 00:00:00 | 00:00:00 | |
| OE5MMP-10 | 2026-09-05 17:23:18 | 50.70565 | 17.60441 | 61° | 40km/h | 19281m | -9.7m/s | 0°C | 0% | 0hPa | 0V | 00:00:00 | 00:00:00 | 00:00:00 | |
| SQ6EMJ | 2026-09-05 17:23:17 | 50.70563 | 17.60431 | 90° | 24km/h | 19281m | -9.8m/s | -53.9°C | 0% | 0hPa | 0V | 00:00:00 | 00:00:00 | 00:00:00 | |
| SP3BTT-10 | 2026-09-05 17:23:15 | 50.70566 | 17.60395 | 70° | 44km/h | 19310m | -10.1m/s | 0°C | 0% | 0hPa | 0V | 00:00:00 | 00:00:00 | 00:00:00 | |
| OM5KV | 2026-09-05 17:23:14 | 50.70560 | 17.60365 | 60° | 35km/h | 19320m | -10.0m/s | -54.2°C | 0% | 0hPa | 0V | 00:00:00 | 00:00:00 | 00:00:00 | |
| PETON7-10 | 2026-09-05 17:23:11 | 50.70558 | 17.60342 | 106° | 44km/h | 19351m | -9.6m/s | 0°C | 0% | 0hPa | 0V | 00:00:00 | 00:00:00 | 00:00:00 | |
| OE5MMP-10 | 2026-09-05 17:23:08 | 50.70554 | 17.60290 | 95° | 44km/h | 19380m | -9.8m/s | 0°C | 0% | 0hPa | 0V | 00:00:00 | 00:00:00 | 00:00:00 | |
| OM5KV | 2026-09-05 17:23:07 | 50.70552 | 17.60275 | 95° | 27km/h | 19380m | -9.9m/s | -54.4°C | 0% | 0hPa | 0V | 00:00:00 | 00:00:00 | 00:00:00 | |
| OE5DRO-10 | 2026-09-05 17:23:06 | 50.70554 | 17.60251 | 70° | 44km/h | 19400m | -9.4m/s | 0°C | 0% | 0hPa | 0V | 00:00:00 | 00:00:00 | 00:00:00 | |
| NBG1-10 | 2026-09-05 17:23:05 | 50.70555 | 17.60241 | 87° | 37km/h | 19439m | -9.8m/s | 0°C | 0% | 0hPa | 0V | 00:00:00 | 00:00:00 | 00:00:00 | |
| SP6BVK | 2026-09-05 17:23:04 | 50.70552 | 17.60221 | 70° | 51km/h | 19409m | -9.8m/s | -54.2°C | 0% | 0hPa | 0V | 00:00:00 | 00:00:00 | 00:00:00 | |
| OM5KV | 2026-09-05 17:23:01 | 50.70550 | 17.60177 | 105° | 51km/h | 19439m | -9.8m/s | -54.0°C | 0% | 0hPa | 0V | 00:00:00 | 00:00:00 | 00:00:00 | |
| OE5DXL-15 | 2026-09-05 17:23:00 | 50.70551 | 17.60155 | 87° | 37km/h | 19459m | -9.8m/s | 0°C | 0% | 0hPa | 0V | 00:00:00 | 00:00:00 | 00:00:00 | |
| OE5MMP-10 | 2026-09-05 17:22:58 | 50.70545 | 17.60116 | 77° | 46km/h | 19479m | -9.5m/s | 0°C | 0% | 0hPa | 0V | 00:00:00 | 00:00:00 | 00:00:00 | |
| PETON7-10 | 2026-09-05 17:22:56 | 50.70549 | 17.60082 | 105° | 40km/h | 19498m | -10.3m/s | 0°C | 0% | 0hPa | 0V | 00:00:00 | 00:00:00 | 00:00:00 | |
| SQ6EMJ | 2026-09-05 17:22:55 | 50.70548 | 17.60036 | 75° | 47km/h | 19508m | -10.0m/s | -53.3°C | 0% | 0hPa | 0V | 00:00:00 | 00:00:00 | 00:00:00 | |
| OM5KV | 2026-09-05 17:22:54 | 50.70548 | 17.60036 | 75° | 47km/h | 19508m | -10.0m/s | -53.3°C | 0% | 0hPa | 0V | 00:00:00 | 00:00:00 | 00:00:00 | |
| SQ6EMJ | 2026-09-05 17:22:49 | 50.70554 | 17.59953 | 76° | 37km/h | 19558m | -9.8m/s | -53.2°C | 0% | 0hPa | 0V | 00:00:00 | 00:00:00 | 00:00:00 | |
| OE5MMP-10 | 2026-09-05 17:22:48 | 50.70554 | 17.59942 | 103° | 33km/h | 19579m | -9.6m/s | 0°C | 0% | 0hPa | 0V | 00:00:00 | 00:00:00 | 00:00:00 | |
| OE5DRO-10 | 2026-09-05 17:22:47 | 50.70557 | 17.59934 | 107° | 27km/h | 19588m | -10.1m/s | 0°C | 0% | 0hPa | 0V | 00:00:00 | 00:00:00 | 00:00:00 | |
| SP3BTT-10 | 2026-09-05 17:22:45 | 50.70562 | 17.59898 | 84° | 37km/h | 19608m | -9.5m/s | 0°C | 0% | 0hPa | 0V | 00:00:00 | 00:00:00 | 00:00:00 | |
| SQ6EMJ | 2026-09-05 17:22:44 | 50.70560 | 17.59877 | 112° | 15km/h | 19617m | -10.0m/s | -53.4°C | 0% | 0hPa | 0V | 00:00:00 | 00:00:00 | 00:00:00 | |
| PETON7-10 | 2026-09-05 17:22:41 | 50.70566 | 17.59855 | 101° | 24km/h | 19648m | -10.0m/s | 0°C | 0% | 0hPa | 0V | 00:00:00 | 00:00:00 | 00:00:00 | |
| OE5MMP-10 | 2026-09-05 17:22:38 | 50.70561 | 17.59831 | 122° | 24km/h | 19678m | -10.1m/s | 0°C | 0% | 0hPa | 0V | 00:00:00 | 00:00:00 | 00:00:00 | |
| OM5KV | 2026-09-05 17:22:34 | 50.70560 | 17.59786 | 30° | 20km/h | 19708m | -9.8m/s | -53.5°C | 0% | 0hPa | 0V | 00:00:00 | 00:00:00 | 00:00:00 | |
| SQ6EMJ | 2026-09-05 17:22:33 | 50.70558 | 17.59779 | 115° | 20km/h | 19729m | -10.4m/s | -53.5°C | 0% | 0hPa | 0V | 00:00:00 | 00:00:00 | 00:00:00 | |
| NBG1-10 | 2026-09-05 17:22:29 | 50.70551 | 17.59751 | 24° | 37km/h | 19759m | -10.6m/s | 0°C | 0% | 0hPa | 0V | 00:00:00 | 00:00:00 | 00:00:00 | |
| OE5MMP-10 | 2026-09-05 17:22:28 | 50.70548 | 17.59749 | 71° | 29km/h | 19781m | -10.4m/s | 0°C | 0% | 0hPa | 0V | 00:00:00 | 00:00:00 | 00:00:00 | |
| SQ6EMJ | 2026-09-05 17:22:27 | 50.70549 | 17.59731 | 81° | 38km/h | 19792m | -10.1m/s | -53.4°C | 0% | 0hPa | 0V | 00:00:00 | 00:00:00 | 00:00:00 | |
| PETON7-10 | 2026-09-05 17:22:26 | 50.70548 | 17.59731 | 80° | 33km/h | 19802m | -10.1m/s | 0°C | 0% | 0hPa | 0V | 00:00:00 | 00:00:00 | 00:00:00 | |
| OM5KV | 2026-09-05 17:22:24 | 50.70534 | 17.59702 | 58° | 15km/h | 19823m | -10.3m/s | -53.5°C | 0% | 0hPa | 0V | 00:00:00 | 00:00:00 | 00:00:00 | |
| SP6BVK | 2026-09-05 17:22:23 | 50.70534 | 17.59702 | 58° | 15km/h | 19823m | -10.3m/s | -53.5°C | 0% | 0hPa | 0V | 00:00:00 | 00:00:00 | 00:00:00 | |
| SQ6EMJ | 2026-09-05 17:22:22 | 50.70533 | 17.59682 | 84° | 40km/h | 19844m | -10.6m/s | -53.6°C | 0% | 0hPa | 0V | 00:00:00 | 00:00:00 | 00:00:00 | |
| OE5MMP-10 | 2026-09-05 17:22:18 | 50.70519 | 17.59647 | 41° | 33km/h | 19885m | -10.3m/s | 0°C | 0% | 0hPa | 0V | 00:00:00 | 00:00:00 | 00:00:00 | |
| POL1PZ | 2026-09-05 17:22:17 | 50.70516 | 17.59640 | 76° | 22km/h | 19885m | -10.3m/s | -53.8°C | 0% | 0hPa | 0V | 00:00:00 | 00:00:00 | 00:00:00 | |
| SQ6EMJ | 2026-09-05 17:22:16 | 50.70512 | 17.59613 | 73° | 44km/h | 19906m | -10.3m/s | -53.7°C | 0% | 0hPa | 0V | 00:00:00 | 00:00:00 | 00:00:00 | |
| DB0NH | 2026-09-05 17:22:14 | 50.70508 | 17.59595 | 51° | 40km/h | 19927m | -10.1m/s | 0°C | 0% | 0hPa | 0V | 00:00:00 | 00:00:00 | 00:00:00 | |
| SQ6EMJ | 2026-09-05 17:22:11 | 50.70493 | 17.59554 | 85° | 37km/h | 19958m | -10.3m/s | -53.6°C | 0% | 0hPa | 0V | 00:00:00 | 00:00:00 | 00:00:00 | |
| OM5KV | 2026-09-05 17:22:10 | 50.70493 | 17.59554 | 85° | 37km/h | 19958m | -10.3m/s | -53.6°C | 0% | 0hPa | 0V | 00:00:00 | 00:00:00 | 00:00:00 | |
| OE5DRO-10 | 2026-09-05 17:22:09 | 50.70492 | 17.59538 | 86° | 42km/h | 19979m | -10.3m/s | 0°C | 0% | 0hPa | 0V | 00:00:00 | 00:00:00 | 00:00:00 | |
| OE5MMP-10 | 2026-09-05 17:22:08 | 50.70491 | 17.59520 | 77° | 46km/h | 19989m | -10.3m/s | 0°C | 0% | 0hPa | 0V | 00:00:00 | 00:00:00 | 00:00:00 | |
| SQ6EMJ | 2026-09-05 17:22:05 | 50.70479 | 17.59448 | 78° | 44km/h | 20020m | -10.2m/s | -53.2°C | 0% | 0hPa | 0V | 00:00:00 | 00:00:00 | 00:00:00 | |
| SP6BVK | 2026-09-05 17:22:03 | 50.70476 | 17.59414 | 83° | 46km/h | 20040m | -10.3m/s | -53.1°C | 0% | 0hPa | 0V | 00:00:00 | 00:00:00 | 00:00:00 | |
| OE5DXL-15 | 2026-09-05 17:22:00 | 50.70473 | 17.59377 | 88° | 46km/h | 20071m | -10.2m/s | 0°C | 0% | 0hPa | 0V | 00:00:00 | 00:00:00 | 00:00:00 | |
| SQ6EMJ | 2026-09-05 17:21:59 | 50.70475 | 17.59343 | 101° | 40km/h | 20081m | -10.2m/s | -53.1°C | 0% | 0hPa | 0V | 00:00:00 | 00:00:00 | 00:00:00 | |
| OE5MMP-10 | 2026-09-05 17:21:58 | 50.70475 | 17.59343 | 101° | 38km/h | 20092m | -10.2m/s | 0°C | 0% | 0hPa | 0V | 00:00:00 | 00:00:00 | 00:00:00 | |
| POL1PZ | 2026-09-05 17:21:57 | 50.70477 | 17.59329 | 105° | 37km/h | 20092m | -10.2m/s | -53.0°C | 0% | 0hPa | 0V | 00:00:00 | 00:00:00 | 00:00:00 | |
| PETON7-10 | 2026-09-05 17:21:56 | 50.70479 | 17.59315 | 102° | 40km/h | 20113m | -10.3m/s | 0°C | 0% | 0hPa | 0V | 00:00:00 | 00:00:00 | 00:00:00 | |
| SQ9EZE-14 | 2026-09-05 17:21:54 | 50.70481 | 17.59286 | 93° | 40km/h | 20124m | -10.3m/s | -52.8°C | 0% | 0hPa | 0V | 00:00:00 | 00:00:00 | 00:00:00 | |
| NBG1-10 | 2026-09-05 17:21:53 | 50.70479 | 17.59269 | 96° | 35km/h | 20134m | -10.4m/s | 0°C | 0% | 0hPa | 0V | 00:00:00 | 00:00:00 | 00:00:00 | |
| OE5DRO-10 | 2026-09-05 17:21:50 | 50.70492 | 17.59224 | 122° | 42km/h | 20177m | -10.7m/s | 0°C | 0% | 0hPa | 0V | 00:00:00 | 00:00:00 | 00:00:00 | |
| SQ6EMJ | 2026-09-05 17:21:48 | 50.70497 | 17.59184 | 95° | 44km/h | 20198m | -10.8m/s | -52.3°C | 0% | 0hPa | 0V | 00:00:00 | 00:00:00 | 00:00:00 | |
| OM5KV | 2026-09-05 17:21:47 | 50.70497 | 17.59184 | 95° | 44km/h | 20198m | -10.8m/s | -52.3°C | 0% | 0hPa | 0V | 00:00:00 | 00:00:00 | 00:00:00 | |
| DB0NH | 2026-09-05 17:21:44 | 50.70513 | 17.59132 | 121° | 44km/h | 20230m | -10.5m/s | 0°C | 0% | 0hPa | 0V | 00:00:00 | 00:00:00 | 00:00:00 | |
| SQ6EMJ | 2026-09-05 17:21:43 | 50.70517 | 17.59104 | 109° | 35km/h | 20252m | -10.5m/s | -52.3°C | 0% | 0hPa | 0V | 00:00:00 | 00:00:00 | 00:00:00 | |
| SP6BVK | 2026-09-05 17:21:42 | 50.70517 | 17.59104 | 109° | 35km/h | 20252m | -10.5m/s | -52.3°C | 0% | 0hPa | 0V | 00:00:00 | 00:00:00 | 00:00:00 | |
| PETON7-10 | 2026-09-05 17:21:41 | 50.70519 | 17.59090 | 101° | 44km/h | 20273m | -10.5m/s | 0°C | 0% | 0hPa | 0V | 00:00:00 | 00:00:00 | 00:00:00 | |
| OE5MMP-10 | 2026-09-05 17:21:38 | 50.70532 | 17.59036 | 127° | 42km/h | 20305m | -10.6m/s | 0°C | 0% | 0hPa | 0V | 00:00:00 | 00:00:00 | 00:00:00 | |
| OM5KV | 2026-09-05 17:21:37 | 50.70544 | 17.59010 | 120° | 37km/h | 20315m | -10.6m/s | -52.6°C | 0% | 0hPa | 0V | 00:00:00 | 00:00:00 | 00:00:00 | |
| POL1PZ | 2026-09-05 17:21:36 | 50.70544 | 17.59010 | 120° | 37km/h | 20315m | -10.6m/s | -52.6°C | 0% | 0hPa | 0V | 00:00:00 | 00:00:00 | 00:00:00 | |
| OE5DRO-10 | 2026-09-05 17:21:31 | 50.70569 | 17.58930 | 129° | 46km/h | 20368m | -10.6m/s | 0°C | 0% | 0hPa | 0V | 00:00:00 | 00:00:00 | 00:00:00 | |
| SQ6EMJ | 2026-09-05 17:21:30 | 50.70574 | 17.58917 | 128° | 37km/h | 20379m | -10.5m/s | -52.7°C | 0% | 0hPa | 0V | 00:00:00 | 00:00:00 | 00:00:00 | |
| SP3BTT-10 | 2026-09-05 17:21:29 | 50.70578 | 17.58909 | 105° | 49km/h | 20400m | -10.6m/s | 0°C | 0% | 0hPa | 0V | 00:00:00 | 00:00:00 | 00:00:00 | |
| OE5MMP-10 | 2026-09-05 17:21:28 | 50.70581 | 17.58892 | 105° | 47km/h | 20411m | -10.3m/s | 0°C | 0% | 0hPa | 0V | 00:00:00 | 00:00:00 | 00:00:00 | |
| PETON7-10 | 2026-09-05 17:21:26 | 50.70589 | 17.58856 | 117° | 49km/h | 20432m | -10.6m/s | 0°C | 0% | 0hPa | 0V | 00:00:00 | 00:00:00 | 00:00:00 | |
| OM5KV | 2026-09-05 17:21:25 | 50.70595 | 17.58838 | 125° | 51km/h | 20432m | -10.7m/s | -52.8°C | 0% | 0hPa | 0V | 00:00:00 | 00:00:00 | 00:00:00 | |
| SP6BVK | 2026-09-05 17:21:21 | 50.70612 | 17.58776 | 108° | 53km/h | 20476m | -10.6m/s | -53.0°C | 0% | 0hPa | 0V | 00:00:00 | 00:00:00 | 00:00:00 | |
| SQ6EMJ | 2026-09-05 17:21:20 | 50.70624 | 17.58735 | 122° | 55km/h | 20497m | -11.1m/s | -53.0°C | 0% | 0hPa | 0V | 00:00:00 | 00:00:00 | 00:00:00 | |
| OM5KV | 2026-09-05 17:21:19 | 50.70624 | 17.58735 | 122° | 55km/h | 20497m | -11.1m/s | -53.0°C | 0% | 0hPa | 0V | 00:00:00 | 00:00:00 | 00:00:00 | |
| OE5MMP-10 | 2026-09-05 17:21:18 | 50.70630 | 17.58719 | 105° | 49km/h | 20518m | -10.6m/s | 0°C | 0% | 0hPa | 0V | 00:00:00 | 00:00:00 | 00:00:00 | |
| POL1PZ | 2026-09-05 17:21:15 | 50.70638 | 17.58664 | 101° | 55km/h | 20540m | -10.7m/s | -53.0°C | 0% | 0hPa | 0V | 00:00:00 | 00:00:00 | 00:00:00 | |
| DB0NH | 2026-09-05 17:21:14 | 50.70645 | 17.58643 | 110° | 44km/h | 20551m | -10.7m/s | 0°C | 0% | 0hPa | 0V | 00:00:00 | 00:00:00 | 00:00:00 | |
| OE5DRO-10 | 2026-09-05 17:21:12 | 50.70650 | 17.58610 | 88° | 49km/h | 20583m | -10.6m/s | 0°C | 0% | 0hPa | 0V | 00:00:00 | 00:00:00 | 00:00:00 | |
| PETON7-10 | 2026-09-05 17:21:11 | 50.70651 | 17.58591 | 88° | 51km/h | 20594m | -11.1m/s | 0°C | 0% | 0hPa | 0V | 00:00:00 | 00:00:00 | 00:00:00 | |
| SQ6EMJ | 2026-09-05 17:21:09 | 50.70655 | 17.58529 | 112° | 57km/h | 20616m | -10.6m/s | -52.9°C | 0% | 0hPa | 0V | 00:00:00 | 00:00:00 | 00:00:00 | |
| OE5MMP-10 | 2026-09-05 17:21:08 | 50.70655 | 17.58529 | 112° | 51km/h | 20627m | -11.1m/s | 0°C | 0% | 0hPa | 0V | 00:00:00 | 00:00:00 | 00:00:00 | |
| SQ6EMJ | 2026-09-05 17:21:03 | 50.70669 | 17.58430 | 112° | 62km/h | 20671m | -10.8m/s | -52.5°C | 0% | 0hPa | 0V | 00:00:00 | 00:00:00 | 00:00:00 | |
| OM5KV | 2026-09-05 17:21:02 | 50.70675 | 17.58410 | 123° | 53km/h | 20682m | -10.7m/s | -52.5°C | 0% | 0hPa | 0V | 00:00:00 | 00:00:00 | 00:00:00 | |
| SP6BVK | 2026-09-05 17:21:01 | 50.70681 | 17.58393 | 119° | 42km/h | 20693m | -11.1m/s | -52.4°C | 0% | 0hPa | 0V | 00:00:00 | 00:00:00 | 00:00:00 | |
| SP3BTT-10 | 2026-09-05 17:20:59 | 50.70687 | 17.58356 | 111° | 22km/h | 20726m | -11.3m/s | 0°C | 0% | 0hPa | 0V | 00:00:00 | 00:00:00 | 00:00:00 | |
| OE5MMP-10 | 2026-09-05 17:20:58 | 50.70691 | 17.58336 | 111° | 42km/h | 20737m | -10.6m/s | 0°C | 0% | 0hPa | 0V | 00:00:00 | 00:00:00 | 00:00:00 | |
| OM5KV | 2026-09-05 17:20:57 | 50.70698 | 17.58316 | 125° | 53km/h | 20737m | -10.6m/s | -52.4°C | 0% | 0hPa | 0V | 00:00:00 | 00:00:00 | 00:00:00 | |
| PETON7-10 | 2026-09-05 17:20:56 | 50.70705 | 17.58301 | 134° | 37km/h | 20759m | -10.9m/s | 0°C | 0% | 0hPa | 0V | 00:00:00 | 00:00:00 | 00:00:00 | |
| POL1PZ | 2026-09-05 17:20:55 | 50.70711 | 17.58290 | 121° | 35km/h | 20759m | -11.0m/s | -52.3°C | 0% | 0hPa | 0V | 00:00:00 | 00:00:00 | 00:00:00 | |
| OE5DRO-10 | 2026-09-05 17:20:53 | 50.70718 | 17.58257 | 110° | 27km/h | 20792m | -11.0m/s | 0°C | 0% | 0hPa | 0V | 00:00:00 | 00:00:00 | 00:00:00 | |
| SQ6EMJ | 2026-09-05 17:20:52 | 50.70731 | 17.58226 | 142° | 40km/h | 20803m | -10.4m/s | -52.3°C | 0% | 0hPa | 0V | 00:00:00 | 00:00:00 | 00:00:00 | |
| OM5KV | 2026-09-05 17:20:51 | 50.70731 | 17.58226 | 142° | 40km/h | 20803m | -10.4m/s | -52.3°C | 0% | 0hPa | 0V | 00:00:00 | 00:00:00 | 00:00:00 | |
| OE5MMP-10 | 2026-09-05 17:20:48 | 50.70745 | 17.58192 | 125° | 29km/h | 20847m | -11.6m/s | 0°C | 0% | 0hPa | 0V | 00:00:00 | 00:00:00 | 00:00:00 | |
| OM5KV | 2026-09-05 17:20:46 | 50.70757 | 17.58169 | 146° | 37km/h | 20858m | -10.7m/s | -52.2°C | 0% | 0hPa | 0V | 00:00:00 | 00:00:00 | 00:00:00 | |
| DB0NH | 2026-09-05 17:20:44 | 50.70767 | 17.58163 | 107° | 29km/h | 20892m | -10.6m/s | 0°C | 0% | 0hPa | 0V | 00:00:00 | 00:00:00 | 00:00:00 | |
| PETON7-10 | 2026-09-05 17:20:41 | 50.70779 | 17.58127 | 146° | 20km/h | 20925m | -10.6m/s | 0°C | 0% | 0hPa | 0V | 00:00:00 | 00:00:00 | 00:00:00 | |
| SP6BVK | 2026-09-05 17:20:40 | 50.70785 | 17.58123 | 170° | 18km/h | 20925m | -10.7m/s | -52.4°C | 0% | 0hPa | 0V | 00:00:00 | 00:00:00 | 00:00:00 | |
| OE5MMP-10 | 2026-09-05 17:20:38 | 50.70788 | 17.58115 | 99° | 18km/h | 20959m | -11.2m/s | 0°C | 0% | 0hPa | 0V | 00:00:00 | 00:00:00 | 00:00:00 | |
| SQ6EMJ | 2026-09-05 17:20:35 | 50.70804 | 17.58092 | 74° | 2km/h | 20992m | -11.2m/s | -52.4°C | 0% | 0hPa | 0V | 00:00:00 | 00:00:00 | 00:00:00 | |
| OE5DRO-10 | 2026-09-05 17:20:34 | 50.70804 | 17.58092 | 74° | 18km/h | 21004m | -11.2m/s | 0°C | 0% | 0hPa | 0V | 00:00:00 | 00:00:00 | 00:00:00 | |
| OM5KV | 2026-09-05 17:20:29 | 50.70814 | 17.58072 | 353° | 5km/h | 21050m | -11.5m/s | -52.5°C | 0% | 0hPa | 0V | 00:00:00 | 00:00:00 | 00:00:00 | |
| OE5MMP-10 | 2026-09-05 17:20:28 | 50.70813 | 17.58068 | 74° | 18km/h | 21073m | -11.1m/s | 0°C | 0% | 0hPa | 0V | 00:00:00 | 00:00:00 | 00:00:00 | |
| PETON7-10 | 2026-09-05 17:20:26 | 50.70819 | 17.58051 | 157° | 16km/h | 21095m | -9.8m/s | 0°C | 0% | 0hPa | 0V | 00:00:00 | 00:00:00 | 00:00:00 | |
| SQ6EMJ | 2026-09-05 17:20:24 | 50.70821 | 17.58048 | 70° | 18km/h | 21113m | -9.1m/s | -52.0°C | 0% | 0hPa | 0V | 00:00:00 | 00:00:00 | 00:00:00 | |
| OM5KV | 2026-09-05 17:20:23 | 50.70821 | 17.58048 | 70° | 18km/h | 21113m | -9.1m/s | -52.0°C | 0% | 0hPa | 0V | 00:00:00 | 00:00:00 | 00:00:00 | |
| SP6BVK | 2026-09-05 17:20:19 | 50.70824 | 17.58021 | 73° | 16km/h | 21150m | -9.0m/s | -51.3°C | 0% | 0hPa | 0V | 00:00:00 | 00:00:00 | 00:00:00 | |
| OE5MMP-10 | 2026-09-05 17:20:18 | 50.70823 | 17.58015 | 79° | 18km/h | 21168m | -9.2m/s | 0°C | 0% | 0hPa | 0V | 00:00:00 | 00:00:00 | 00:00:00 | |
| SQ6EMJ | 2026-09-05 17:20:16 | 50.70821 | 17.58001 | 90° | 16km/h | 21177m | -8.7m/s | -51.3°C | 0% | 0hPa | 0V | 00:00:00 | 00:00:00 | 00:00:00 | |
| OE5DRO-10 | 2026-09-05 17:20:15 | 50.70821 | 17.57995 | 94° | 20km/h | 21195m | -9.4m/s | 0°C | 0% | 0hPa | 0V | 00:00:00 | 00:00:00 | 00:00:00 | |
| SP3BTT-10 | 2026-09-05 17:20:14 | 50.70821 | 17.57990 | 99° | 26km/h | 21205m | -10.1m/s | 0°C | 0% | 0hPa | 0V | 00:00:00 | 00:00:00 | 00:00:00 | |
| OM5KV | 2026-09-05 17:20:13 | 50.70823 | 17.57975 | 99° | 20km/h | 21216m | -10.9m/s | -51.5°C | 0% | 0hPa | 0V | 00:00:00 | 00:00:00 | 00:00:00 | |
| SQ6EMJ | 2026-09-05 17:20:11 | 50.70825 | 17.57960 | 109° | 18km/h | 21238m | -11.3m/s | -51.4°C | 0% | 0hPa | 0V | 00:00:00 | 00:00:00 | 00:00:00 | |
| OE5MMP-10 | 2026-09-05 17:20:08 | 50.70827 | 17.57946 | 110° | 22km/h | 21273m | -11.7m/s | 0°C | 0% | 0hPa | 0V | 00:00:00 | 00:00:00 | 00:00:00 | |
| OM5KV | 2026-09-05 17:20:06 | 50.70831 | 17.57930 | 112° | 22km/h | 21284m | -11.5m/s | -51.4°C | 0% | 0hPa | 0V | 00:00:00 | 00:00:00 | 00:00:00 | |
| SQ6EMJ | 2026-09-05 17:20:05 | 50.70835 | 17.57914 | 116° | 22km/h | 21308m | -11.9m/s | -51.4°C | 0% | 0hPa | 0V | 00:00:00 | 00:00:00 | 00:00:00 | |
| OM5KV | 2026-09-05 17:20:01 | 50.70842 | 17.57888 | 114° | 22km/h | 21345m | -12.5m/s | -51.6°C | 0% | 0hPa | 0V | 00:00:00 | 00:00:00 | 00:00:00 | |
| SP6BVK | 2026-09-05 17:19:59 | 50.70847 | 17.57872 | 115° | 24km/h | 21369m | -12.4m/s | -51.7°C | 0% | 0hPa | 0V | 00:00:00 | 00:00:00 | 00:00:00 | |
| OE5MMP-10 | 2026-09-05 17:19:58 | 50.70849 | 17.57863 | 110° | 26km/h | 21394m | -12.2m/s | 0°C | 0% | 0hPa | 0V | 00:00:00 | 00:00:00 | 00:00:00 | |
| OE5DRO-10 | 2026-09-05 17:19:56 | 50.70853 | 17.57845 | 116° | 24km/h | 21419m | -12.3m/s | 0°C | 0% | 0hPa | 0V | 00:00:00 | 00:00:00 | 00:00:00 | |
| OM5KV | 2026-09-05 17:19:55 | 50.70856 | 17.57836 | 115° | 26km/h | 21419m | -12.3m/s | -51.8°C | 0% | 0hPa | 0V | 00:00:00 | 00:00:00 | 00:00:00 | |
| POL1PZ | 2026-09-05 17:19:53 | 50.70861 | 17.57815 | 109° | 29km/h | 21444m | -12.7m/s | -51.9°C | 0% | 0hPa | 0V | 00:00:00 | 00:00:00 | 00:00:00 | |
| NBG1-10 | 2026-09-05 17:19:50 | 50.70866 | 17.57784 | 105° | 15km/h | 21482m | -12.5m/s | 0°C | 0% | 0hPa | 0V | 00:00:00 | 00:00:00 | 00:00:00 | |
| OE5MMP-10 | 2026-09-05 17:19:48 | 50.70870 | 17.57764 | 106° | 22km/h | 21519m | -12.7m/s | 0°C | 0% | 0hPa | 0V | 00:00:00 | 00:00:00 | 00:00:00 | |
| SP3BTT-10 | 2026-09-05 17:19:44 | 50.70879 | 17.57725 | 116° | 16km/h | 21571m | -12.6m/s | 0°C | 0% | 0hPa | 0V | 00:00:00 | 00:00:00 | 00:00:00 | |
| SQ6EMJ | 2026-09-05 17:19:43 | 50.70882 | 17.57710 | 112° | 20km/h | 21583m | -13.0m/s | -52.5°C | 0% | 0hPa | 0V | 00:00:00 | 00:00:00 | 00:00:00 | |
| PETON7-10 | 2026-09-05 17:19:41 | 50.70884 | 17.57702 | 118° | 16km/h | 21609m | -13.0m/s | 0°C | 0% | 0hPa | 0V | 00:00:00 | 00:00:00 | 00:00:00 | |
| OE5MMP-10 | 2026-09-05 17:19:38 | 50.70890 | 17.57683 | 116° | 15km/h | 21647m | -12.7m/s | 0°C | 0% | 0hPa | 0V | 00:00:00 | 00:00:00 | 00:00:00 | |
| OE5DRO-10 | 2026-09-05 17:19:37 | 50.70893 | 17.57677 | 122° | 13km/h | 21660m | -12.7m/s | 0°C | 0% | 0hPa | 0V | 00:00:00 | 00:00:00 | 00:00:00 | |
| POL1PZ | 2026-09-05 17:19:33 | 50.70899 | 17.57651 | 105° | 15km/h | 21698m | -12.8m/s | -53.0°C | 0% | 0hPa | 0V | 00:00:00 | 00:00:00 | 00:00:00 | |
| SQ6EMJ | 2026-09-05 17:19:32 | 50.70901 | 17.57641 | 110° | 13km/h | 21723m | -12.7m/s | -53.1°C | 0% | 0hPa | 0V | 00:00:00 | 00:00:00 | 00:00:00 | |
| SQ9EZE-14 | 2026-09-05 17:19:30 | 50.70903 | 17.57635 | 109° | 15km/h | 21736m | -13.2m/s | -53.1°C | 0% | 0hPa | 0V | 00:00:00 | 00:00:00 | 00:00:00 | |
| OM5KV | 2026-09-05 17:19:28 | 50.70906 | 17.57620 | 106° | 7km/h | 21775m | -13.1m/s | -53.2°C | 0% | 0hPa | 0V | 00:00:00 | 00:00:00 | 00:00:00 | |
| PETON7-10 | 2026-09-05 17:19:26 | 50.70906 | 17.57618 | 119° | 15km/h | 21800m | -12.8m/s | 0°C | 0% | 0hPa | 0V | 00:00:00 | 00:00:00 | 00:00:00 | |
| OM5KV | 2026-09-05 17:19:22 | 50.70910 | 17.57605 | 107° | 7km/h | 21838m | -13.2m/s | -53.2°C | 0% | 0hPa | 0V | 00:00:00 | 00:00:00 | 00:00:00 | |
| SQ6EMJ | 2026-09-05 17:19:20 | 50.70911 | 17.57595 | 104° | 16km/h | 21865m | -14.0m/s | -53.2°C | 0% | 0hPa | 0V | 00:00:00 | 00:00:00 | 00:00:00 | |
| OE5MMP-10 | 2026-09-05 17:19:18 | 50.70913 | 17.57581 | 90° | 16km/h | 21915m | -21.2m/s | 0°C | 0% | 0hPa | 0V | 00:00:00 | 00:00:00 | 00:00:00 | |
| OM5KV | 2026-09-05 17:19:17 | 50.70913 | 17.57564 | 95° | 24km/h | 21936m | -20.3m/s | -53.2°C | 0% | 0hPa | 0V | 00:00:00 | 00:00:00 | 00:00:00 | |
| SQ6EMJ | 2026-09-05 17:19:15 | 50.70915 | 17.57547 | 109° | 16km/h | 21976m | -19.9m/s | -53.1°C | 0% | 0hPa | 0V | 00:00:00 | 00:00:00 | 00:00:00 | |
| NBG1-10 | 2026-09-05 17:19:14 | 50.70915 | 17.57547 | 109° | 16km/h | 22124m | -20.8m/s | 0°C | 0% | 0hPa | 0V | 00:00:00 | 00:00:00 | 00:00:00 | |
| POL1PZ | 2026-09-05 17:19:12 | 50.70915 | 17.57538 | 80° | 13km/h | 22016m | -20.8m/s | -52.7°C | 0% | 0hPa | 0V | 00:00:00 | 00:00:00 | 00:00:00 | |
| OM5KV | 2026-09-05 17:19:10 | 50.70914 | 17.57528 | 70° | 13km/h | 22060m | -21.3m/s | -52.6°C | 0% | 0hPa | 0V | 00:00:00 | 00:00:00 | 00:00:00 | |
| SQ6EMJ | 2026-09-05 17:19:09 | 50.70912 | 17.57518 | 77° | 7km/h | 22124m | -20.8m/s | -52.7°C | 0% | 0hPa | 0V | 00:00:00 | 00:00:00 | 00:00:00 | |
| OE5MMP-10 | 2026-09-05 17:19:08 | 50.70912 | 17.57522 | 131° | 18km/h | 22124m | -20.8m/s | 0°C | 0% | 0hPa | 0V | 00:00:00 | 00:00:00 | 00:00:00 | |
| OE5DRO-10 | 2026-09-05 17:18:59 | 50.70911 | 17.57463 | 33° | 22km/h | 22178m | 1.6m/s | 0°C | 0% | 0hPa | 0V | 00:00:00 | 00:00:00 | 00:00:00 | |
| OE5MMP-10 | 2026-09-05 17:18:58 | 50.70906 | 17.57460 | 99° | 22km/h | 22174m | 6.0m/s | 0°C | 0% | 0hPa | 0V | 00:00:00 | 00:00:00 | 00:00:00 | |
| SP6BVK | 2026-09-05 17:18:57 | 50.70904 | 17.57451 | 100° | 20km/h | 22174m | 6.0m/s | -52.9°C | 0% | 0hPa | 0V | 00:00:00 | 00:00:00 | 00:00:00 | |
| OM5KV | 2026-09-05 17:18:56 | 50.70910 | 17.57434 | 66° | 18km/h | 22166m | 3.3m/s | -52.9°C | 0% | 0hPa | 0V | 00:00:00 | 00:00:00 | 00:00:00 | |
| POL1PZ | 2026-09-05 17:18:52 | 50.70899 | 17.57420 | 115° | 16km/h | 22154m | 5.9m/s | -52.8°C | 0% | 0hPa | 0V | 00:00:00 | 00:00:00 | 00:00:00 | |
| OE5MMP-10 | 2026-09-05 17:18:48 | 50.70898 | 17.57396 | 21° | 18km/h | 22135m | 4.7m/s | 0°C | 0% | 0hPa | 0V | 00:00:00 | 00:00:00 | 00:00:00 | |
| PETON7-10 | 2026-09-05 17:18:41 | 50.70897 | 17.57361 | 78° | 16km/h | 22110m | 1.8m/s | 0°C | 0% | 0hPa | 0V | 00:00:00 | 00:00:00 | 00:00:00 | |
| OE5DXL-15 | 2026-09-05 17:18:40 | 50.70900 | 17.57357 | 78° | 22km/h | 22099m | 3.5m/s | 0°C | 0% | 0hPa | 0V | 00:00:00 | 00:00:00 | 00:00:00 | |
| SQ6EMJ | 2026-09-05 17:18:37 | 50.70897 | 17.57349 | 109° | 31km/h | 22094m | 4.6m/s | -52.6°C | 0% | 0hPa | 0V | 00:00:00 | 00:00:00 | 00:00:00 | |
| OM5KV | 2026-09-05 17:18:35 | 50.70898 | 17.57339 | 105° | 22km/h | 22091m | 1.7m/s | -52.6°C | 0% | 0hPa | 0V | 00:00:00 | 00:00:00 | 00:00:00 | |
| POL1PZ | 2026-09-05 17:18:31 | 50.70898 | 17.57331 | 84° | 31km/h | 22076m | 6.2m/s | -52.6°C | 0% | 0hPa | 0V | 00:00:00 | 00:00:00 | 00:00:00 | |
| SQ6EMJ | 2026-09-05 17:18:30 | 50.70897 | 17.57319 | 83° | 27km/h | 22071m | 1.4m/s | -52.5°C | 0% | 0hPa | 0V | 00:00:00 | 00:00:00 | 00:00:00 | |
| OM5KV | 2026-09-05 17:18:29 | 50.70896 | 17.57312 | 163° | 7km/h | 22068m | 4.7m/s | -52.5°C | 0% | 0hPa | 0V | 00:00:00 | 00:00:00 | 00:00:00 | |
| OE5MMP-10 | 2026-09-05 17:18:28 | 50.70898 | 17.57320 | 81° | 18km/h | 22062m | 3.1m/s | 0°C | 0% | 0hPa | 0V | 00:00:00 | 00:00:00 | 00:00:00 | |
| PETON7-10 | 2026-09-05 17:18:26 | 50.70900 | 17.57301 | 62° | 20km/h | 22054m | 1.5m/s | 0°C | 0% | 0hPa | 0V | 00:00:00 | 00:00:00 | 00:00:00 | |
| SQ6EMJ | 2026-09-05 17:18:24 | 50.70900 | 17.57286 | 78° | 13km/h | 22046m | 3.5m/s | -52.6°C | 0% | 0hPa | 0V | 00:00:00 | 00:00:00 | 00:00:00 | |
| OE5DRO-10 | 2026-09-05 17:18:21 | 50.70899 | 17.57278 | 64° | 22km/h | 22035m | 1.5m/s | 0°C | 0% | 0hPa | 0V | 00:00:00 | 00:00:00 | 00:00:00 | |
| OE5MMP-10 | 2026-09-05 17:18:18 | 50.70896 | 17.57263 | 177° | 20km/h | 22025m | 2.5m/s | 0°C | 0% | 0hPa | 0V | 00:00:00 | 00:00:00 | 00:00:00 | |
| SQ6EMJ | 2026-09-05 17:18:17 | 50.70898 | 17.57256 | 57° | 26km/h | 22021m | 6.4m/s | -52.6°C | 0% | 0hPa | 0V | 00:00:00 | 00:00:00 | 00:00:00 | |
| SP6BVK | 2026-09-05 17:18:16 | 50.70898 | 17.57256 | 57° | 26km/h | 22021m | 6.4m/s | -52.6°C | 0% | 0hPa | 0V | 00:00:00 | 00:00:00 | 00:00:00 | |
| OM5KV | 2026-09-05 17:18:12 | 50.70899 | 17.57236 | 92° | 13km/h | 22006m | 3.3m/s | -52.8°C | 0% | 0hPa | 0V | 00:00:00 | 00:00:00 | 00:00:00 | |
| PETON7-10 | 2026-09-05 17:18:11 | 50.70899 | 17.57227 | 74° | 26km/h | 21997m | 1.5m/s | 0°C | 0% | 0hPa | 0V | 00:00:00 | 00:00:00 | 00:00:00 | |
| OE5MMP-10 | 2026-09-05 17:18:08 | 50.70899 | 17.57209 | 163° | 26km/h | 21986m | 3.3m/s | 0°C | 0% | 0hPa | 0V | 00:00:00 | 00:00:00 | 00:00:00 | |
| OM5KV | 2026-09-05 17:18:07 | 50.70904 | 17.57206 | 93° | 16km/h | 21986m | 3.3m/s | -53.0°C | 0% | 0hPa | 0V | 00:00:00 | 00:00:00 | 00:00:00 | |
| SQ6EMJ | 2026-09-05 17:18:04 | 50.70901 | 17.57178 | 141° | 18km/h | 21974m | 5.8m/s | -53.1°C | 0% | 0hPa | 0V | 00:00:00 | 00:00:00 | 00:00:00 | |
| OM5KV | 2026-09-05 17:18:02 | 50.70910 | 17.57158 | 74° | 35km/h | 21961m | 6.2m/s | -53.2°C | 0% | 0hPa | 0V | 00:00:00 | 00:00:00 | 00:00:00 | |
| OE5MMP-10 | 2026-09-05 17:17:58 | 50.70912 | 17.57132 | 95° | 27km/h | 21946m | 3.2m/s | 0°C | 0% | 0hPa | 0V | 00:00:00 | 00:00:00 | 00:00:00 | |
| PETON7-10 | 2026-09-05 17:17:56 | 50.70916 | 17.57108 | 69° | 27km/h | 21937m | 1.8m/s | 0°C | 0% | 0hPa | 0V | 00:00:00 | 00:00:00 | 00:00:00 | |
| SQ6EMJ | 2026-09-05 17:17:53 | 50.70923 | 17.57075 | 93° | 20km/h | 21925m | 3.2m/s | -53.3°C | 0% | 0hPa | 0V | 00:00:00 | 00:00:00 | 00:00:00 | |
| OM5KV | 2026-09-05 17:17:51 | 50.70921 | 17.57055 | 69° | 29km/h | 21917m | 1.5m/s | -53.3°C | 0% | 0hPa | 0V | 00:00:00 | 00:00:00 | 00:00:00 | |
| POL1PZ | 2026-09-05 17:17:50 | 50.70921 | 17.57055 | 69° | 29km/h | 21917m | 1.5m/s | -53.3°C | 0% | 0hPa | 0V | 00:00:00 | 00:00:00 | 00:00:00 | |
| OE5MMP-10 | 2026-09-05 17:17:48 | 50.70922 | 17.57040 | 156° | 24km/h | 21907m | 3.0m/s | 0°C | 0% | 0hPa | 0V | 00:00:00 | 00:00:00 | 00:00:00 | |
| SQ6EMJ | 2026-09-05 17:17:47 | 50.70927 | 17.57025 | 59° | 27km/h | 21903m | 6.2m/s | -53.2°C | 0% | 0hPa | 0V | 00:00:00 | 00:00:00 | 00:00:00 | |
| OM5KV | 2026-09-05 17:17:45 | 50.70923 | 17.57017 | 86° | 26km/h | 21899m | 1.2m/s | -53.2°C | 0% | 0hPa | 0V | 00:00:00 | 00:00:00 | 00:00:00 | |
| OE5DRO-10 | 2026-09-05 17:17:43 | 50.70933 | 17.57002 | 151° | 15km/h | 21891m | 4.3m/s | 0°C | 0% | 0hPa | 0V | 00:00:00 | 00:00:00 | 00:00:00 | |
| PETON7-10 | 2026-09-05 17:17:41 | 50.70950 | 17.56989 | 64° | 20km/h | 21881m | 1.7m/s | 0°C | 0% | 0hPa | 0V | 00:00:00 | 00:00:00 | 00:00:00 | |
| OM5KV | 2026-09-05 17:17:40 | 50.70928 | 17.56979 | 124° | 15km/h | 21878m | 4.7m/s | -53.0°C | 0% | 0hPa | 0V | 00:00:00 | 00:00:00 | 00:00:00 | |
| OE5MMP-10 | 2026-09-05 17:17:38 | 50.70932 | 17.56972 | 145° | 20km/h | 21870m | 2.1m/s | 0°C | 0% | 0hPa | 0V | 00:00:00 | 00:00:00 | 00:00:00 | |
| SP6BVK | 2026-09-05 17:17:36 | 50.70934 | 17.56956 | 41° | 18km/h | 21862m | 1.7m/s | -53.0°C | 0% | 0hPa | 0V | 00:00:00 | 00:00:00 | 00:00:00 | |
| DB0NH | 2026-09-05 17:17:34 | 50.70932 | 17.56952 | 126° | 16km/h | 21859m | 4.5m/s | 0°C | 0% | 0hPa | 0V | 00:00:00 | 00:00:00 | 00:00:00 | |
| POL1PZ | 2026-09-05 17:17:30 | 50.70936 | 17.56930 | 20° | 15km/h | 21843m | 2.4m/s | -52.9°C | 0% | 0hPa | 0V | 00:00:00 | 00:00:00 | 00:00:00 | |
| OE5MMP-10 | 2026-09-05 17:17:28 | 50.70936 | 17.56916 | 97° | 16km/h | 21832m | 2.2m/s | 0°C | 0% | 0hPa | 0V | 00:00:00 | 00:00:00 | 00:00:00 | |
| SP3BTT-10 | 2026-09-05 17:17:27 | 50.70939 | 17.56911 | 97° | 18km/h | 21824m | 1.8m/s | 0°C | 0% | 0hPa | 0V | 00:00:00 | 00:00:00 | 00:00:00 | |
| PETON7-10 | 2026-09-05 17:17:26 | 50.70939 | 17.56907 | 333° | 16km/h | 21824m | 1.8m/s | 0°C | 0% | 0hPa | 0V | 00:00:00 | 00:00:00 | 00:00:00 | |
| SQ6EMJ | 2026-09-05 17:17:25 | 50.70936 | 17.56907 | 121° | 9km/h | 21820m | 4.1m/s | -52.9°C | 0% | 0hPa | 0V | 00:00:00 | 00:00:00 | 00:00:00 | |
| OE5DRO-10 | 2026-09-05 17:17:24 | 50.70937 | 17.56907 | 121° | 16km/h | 21816m | 4.3m/s | 0°C | 0% | 0hPa | 0V | 00:00:00 | 00:00:00 | 00:00:00 | |
| OM5KV | 2026-09-05 17:17:22 | 50.70942 | 17.56891 | 72° | 20km/h | 21813m | 2.0m/s | -52.9°C | 0% | 0hPa | 0V | 00:00:00 | 00:00:00 | 00:00:00 | |
| SQ6EMJ | 2026-09-05 17:17:19 | 50.70940 | 17.56892 | 118° | 7km/h | 21801m | 3.7m/s | -53.0°C | 0% | 0hPa | 0V | 00:00:00 | 00:00:00 | 00:00:00 | |
| OE5MMP-10 | 2026-09-05 17:17:18 | 50.70943 | 17.56886 | 114° | 16km/h | 21794m | 1.9m/s | 0°C | 0% | 0hPa | 0V | 00:00:00 | 00:00:00 | 00:00:00 | |
| OM5KV | 2026-09-05 17:17:16 | 50.70945 | 17.56872 | 224° | 2km/h | 21790m | 5.9m/s | -53.1°C | 0% | 0hPa | 0V | 00:00:00 | 00:00:00 | 00:00:00 | |
| SP6BVK | 2026-09-05 17:17:15 | 50.70945 | 17.56875 | 219° | 15km/h | 21786m | 2.0m/s | -53.1°C | 0% | 0hPa | 0V | 00:00:00 | 00:00:00 | 00:00:00 | |
| SQ6EMJ | 2026-09-05 17:17:12 | 50.70948 | 17.56858 | 109° | 22km/h | 21775m | 1.9m/s | -53.1°C | 0% | 0hPa | 0V | 00:00:00 | 00:00:00 | 00:00:00 | |
| PETON7-10 | 2026-09-05 17:17:11 | 50.70949 | 17.56857 | 167° | 18km/h | 21767m | 1.9m/s | 0°C | 0% | 0hPa | 0V | 00:00:00 | 00:00:00 | 00:00:00 | |
| POL1PZ | 2026-09-05 17:17:10 | 50.70951 | 17.56856 | 99° | 13km/h | 21765m | 3.7m/s | -53.2°C | 0% | 0hPa | 0V | 00:00:00 | 00:00:00 | 00:00:00 | |
| OE5MMP-10 | 2026-09-05 17:17:08 | 50.70952 | 17.56847 | 89° | 18km/h | 21757m | 2.0m/s | 0°C | 0% | 0hPa | 0V | 00:00:00 | 00:00:00 | 00:00:00 | |
| OM5KV | 2026-09-05 17:17:06 | 50.70953 | 17.56831 | 170° | 16km/h | 21749m | 1.7m/s | -53.1°C | 0% | 0hPa | 0V | 00:00:00 | 00:00:00 | 00:00:00 | |
| OE5DRO-10 | 2026-09-05 17:17:05 | 50.70953 | 17.56830 | 170° | 22km/h | 21746m | 4.1m/s | 0°C | 0% | 0hPa | 0V | 00:00:00 | 00:00:00 | 00:00:00 | |
| EDDB2-12 | 2026-09-05 17:17:04 | 50.70955 | 17.56819 | 73° | 35km/h | 21742m | 5.3m/s | -53.8°C | -1.0% | -1.0hPa | 0V | 00:00:00 | 00:00:00 | 00:00:00 | |
| SQ6EMJ | 2026-09-05 17:17:01 | 50.70957 | 17.56802 | 169° | 22km/h | 21731m | 1.8m/s | -53.0°C | 0% | 0hPa | 0V | 00:00:00 | 00:00:00 | 00:00:00 | |
| OM5KV | 2026-09-05 17:17:00 | 50.70957 | 17.56802 | 169° | 22km/h | 21731m | 1.8m/s | -53.0°C | 0% | 0hPa | 0V | 00:00:00 | 00:00:00 | 00:00:00 | |
| SQ6EMJ | 2026-09-05 17:16:02 | 50.71054 | 17.56372 | 112° | 27km/h | 21508m | 4.8m/s | -52.0°C | 0% | 0hPa | 0V | 00:00:00 | 00:00:00 | 00:00:00 | |
| OE5MMP-10 | 2026-09-05 17:15:58 | 50.71064 | 17.56336 | 69° | 31km/h | 21493m | 1.4m/s | 0°C | 0% | 0hPa | 0V | 00:00:00 | 00:00:00 | 00:00:00 | |
| PETON7-10 | 2026-09-05 17:15:56 | 50.71063 | 17.56318 | 109° | 27km/h | 21485m | 3.5m/s | 0°C | 0% | 0hPa | 0V | 00:00:00 | 00:00:00 | 00:00:00 | |
| SQ6EMJ | 2026-09-05 17:15:55 | 50.71071 | 17.56288 | 107° | 35km/h | 21482m | 2.8m/s | -51.9°C | 0% | 0hPa | 0V | 00:00:00 | 00:00:00 | 00:00:00 | |
| SP6BVK | 2026-09-05 17:15:53 | 50.71072 | 17.56278 | 79° | 18km/h | 21478m | 5.9m/s | -51.9°C | 0% | 0hPa | 0V | 00:00:00 | 00:00:00 | 00:00:00 | |
| OM5KV | 2026-09-05 17:15:52 | 50.71071 | 17.56272 | 98° | 13km/h | 21473m | 2.2m/s | -51.9°C | 0% | 0hPa | 0V | 00:00:00 | 00:00:00 | 00:00:00 | |
| SQ6EMJ | 2026-09-05 17:15:50 | 50.71078 | 17.56232 | 99° | 37km/h | 21463m | 2.8m/s | -51.9°C | 0% | 0hPa | 0V | 00:00:00 | 00:00:00 | 00:00:00 | |
| OE5MMP-10 | 2026-09-05 17:15:48 | 50.71078 | 17.56222 | 79° | 27km/h | 21455m | 1.6m/s | 0°C | 0% | 0hPa | 0V | 00:00:00 | 00:00:00 | 00:00:00 | |
| OE5DRO-10 | 2026-09-05 17:15:47 | 50.71077 | 17.56217 | 108° | 27km/h | 21455m | 1.6m/s | 0°C | 0% | 0hPa | 0V | 00:00:00 | 00:00:00 | 00:00:00 | |
| SQ6EMJ | 2026-09-05 17:15:44 | 50.71087 | 17.56169 | 133° | 11km/h | 21439m | 6.7m/s | -51.8°C | 0% | 0hPa | 0V | 00:00:00 | 00:00:00 | 00:00:00 | |
| SP3BTT-10 | 2026-09-05 17:15:43 | 50.71087 | 17.56169 | 132° | 26km/h | 21434m | 1.9m/s | 0°C | 0% | 0hPa | 0V | 00:00:00 | 00:00:00 | 00:00:00 | |
| PETON7-10 | 2026-09-05 17:15:41 | 50.71092 | 17.56161 | 116° | 27km/h | 21427m | 3.5m/s | 0°C | 0% | 0hPa | 0V | 00:00:00 | 00:00:00 | 00:00:00 | |
| OE5MMP-10 | 2026-09-05 17:15:38 | 50.71099 | 17.56125 | 125° | 26km/h | 21415m | 2.2m/s | 0°C | 0% | 0hPa | 0V | 00:00:00 | 00:00:00 | 00:00:00 | |
| OM5KV | 2026-09-05 17:15:37 | 50.71102 | 17.56119 | 125° | 11km/h | 21415m | 2.3m/s | -51.7°C | 0% | 0hPa | 0V | 00:00:00 | 00:00:00 | 00:00:00 | |
| SP6BVK | 2026-09-05 17:15:33 | 50.71113 | 17.56073 | 140° | 15km/h | 21396m | 1.7m/s | -51.6°C | 0% | 0hPa | 0V | 00:00:00 | 00:00:00 | 00:00:00 | |
| OE5MMP-10 | 2026-09-05 17:15:28 | 50.71121 | 17.56032 | 146° | 26km/h | 21372m | 5.5m/s | 0°C | 0% | 0hPa | 0V | 00:00:00 | 00:00:00 | 00:00:00 | |
| PETON7-10 | 2026-09-05 17:15:26 | 50.71128 | 17.56023 | 111° | 27km/h | 21368m | 2.9m/s | 0°C | 0% | 0hPa | 0V | 00:00:00 | 00:00:00 | 00:00:00 | |
| SQ6EMJ | 2026-09-05 17:15:21 | 50.71141 | 17.55980 | 106° | 27km/h | 21352m | 5.3m/s | -51.5°C | 0% | 0hPa | 0V | 00:00:00 | 00:00:00 | 00:00:00 | |
| OM5KV | 2026-09-05 17:15:19 | 50.71141 | 17.55954 | 130° | 24km/h | 21345m | 3.5m/s | -51.5°C | 0% | 0hPa | 0V | 00:00:00 | 00:00:00 | 00:00:00 | |
| OE5MMP-10 | 2026-09-05 17:15:17 | 50.71150 | 17.55944 | 128° | 27km/h | 21333m | 6.0m/s | 0°C | 0% | 0hPa | 0V | 00:00:00 | 00:00:00 | 00:00:00 | |
| SQ6EMJ | 2026-09-05 17:15:16 | 50.71152 | 17.55922 | 81° | 35km/h | 21328m | 2.1m/s | -51.4°C | 0% | 0hPa | 0V | 00:00:00 | 00:00:00 | 00:00:00 | |
| SP3BTT-10 | 2026-09-05 17:15:13 | 50.71157 | 17.55907 | 169° | 26km/h | 21318m | 2.2m/s | 0°C | 0% | 0hPa | 0V | 00:00:00 | 00:00:00 | 00:00:00 | |
| PETON7-10 | 2026-09-05 17:15:11 | 50.71164 | 17.55894 | 90° | 27km/h | 21310m | 1.5m/s | 0°C | 0% | 0hPa | 0V | 00:00:00 | 00:00:00 | 00:00:00 | |
| OM5KV | 2026-09-05 17:15:08 | 50.71168 | 17.55866 | 165° | 29km/h | 21302m | 4.2m/s | -51.2°C | 0% | 0hPa | 0V | 00:00:00 | 00:00:00 | 00:00:00 | |
| OE5MMP-10 | 2026-09-05 17:15:07 | 50.71173 | 17.55861 | 119° | 27km/h | 21295m | 5.8m/s | 0°C | 0% | 0hPa | 0V | 00:00:00 | 00:00:00 | 00:00:00 | |
| POL1PZ | 2026-09-05 17:15:06 | 50.71175 | 17.55852 | 86° | 29km/h | 21295m | 5.8m/s | -51.2°C | 0% | 0hPa | 0V | 00:00:00 | 00:00:00 | 00:00:00 | |
| SQ6EMJ | 2026-09-05 17:15:04 | 50.71184 | 17.55818 | 115° | 26km/h | 21280m | 3.1m/s | -51.2°C | 0% | 0hPa | 0V | 00:00:00 | 00:00:00 | 00:00:00 | |
| OE5MMP-10 | 2026-09-05 17:14:57 | 50.71195 | 17.55777 | 68° | 24km/h | 21256m | 5.9m/s | 0°C | 0% | 0hPa | 0V | 00:00:00 | 00:00:00 | 00:00:00 | |
| PETON7-10 | 2026-09-05 17:14:56 | 50.71195 | 17.55767 | 68° | 24km/h | 21252m | 1.8m/s | 0°C | 0% | 0hPa | 0V | 00:00:00 | 00:00:00 | 00:00:00 | |
| SQ6EMJ | 2026-09-05 17:14:52 | 50.71203 | 17.55729 | 65° | 27km/h | 21236m | 5.5m/s | -51.2°C | 0% | 0hPa | 0V | 00:00:00 | 00:00:00 | 00:00:00 | |
| SP6BVK | 2026-09-05 17:14:51 | 50.71203 | 17.55729 | 65° | 27km/h | 21236m | 5.5m/s | -51.2°C | 0% | 0hPa | 0V | 00:00:00 | 00:00:00 | 00:00:00 | |
| OE5DRO-10 | 2026-09-05 17:14:50 | 50.71201 | 17.55720 | 95° | 24km/h | 21225m | 1.5m/s | 0°C | 0% | 0hPa | 0V | 00:00:00 | 00:00:00 | 00:00:00 | |
| OE5MMP-10 | 2026-09-05 17:14:47 | 50.71210 | 17.55700 | 92° | 24km/h | 21217m | 5.3m/s | 0°C | 0% | 0hPa | 0V | 00:00:00 | 00:00:00 | 00:00:00 | |
| SQ6EMJ | 2026-09-05 17:14:46 | 50.71206 | 17.55681 | 87° | 26km/h | 21213m | 2.2m/s | -51.3°C | 0% | 0hPa | 0V | 00:00:00 | 00:00:00 | 00:00:00 | |
| POL1PZ | 2026-09-05 17:14:45 | 50.71206 | 17.55681 | 87° | 26km/h | 21213m | 2.2m/s | -51.3°C | 0% | 0hPa | 0V | 00:00:00 | 00:00:00 | 00:00:00 | |
| SP3BTT-10 | 2026-09-05 17:14:43 | 50.71211 | 17.55667 | 140° | 20km/h | 21203m | 4.4m/s | 0°C | 0% | 0hPa | 0V | 00:00:00 | 00:00:00 | 00:00:00 | |
| PETON7-10 | 2026-09-05 17:14:41 | 50.71212 | 17.55653 | 56° | 22km/h | 21195m | 2.2m/s | 0°C | 0% | 0hPa | 0V | 00:00:00 | 00:00:00 | 00:00:00 | |
| SQ6EMJ | 2026-09-05 17:14:40 | 50.71210 | 17.55634 | 128° | 22km/h | 21191m | 6.1m/s | -51.4°C | 0% | 0hPa | 0V | 00:00:00 | 00:00:00 | 00:00:00 | |
| OM5KV | 2026-09-05 17:14:37 | 50.71214 | 17.55616 | 52° | 33km/h | 21179m | 4.1m/s | -51.3°C | 0% | 0hPa | 0V | 00:00:00 | 00:00:00 | 00:00:00 | |
| OE5DXL-15 | 2026-09-05 17:14:35 | 50.71210 | 17.55606 | 95° | 20km/h | 21171m | 5.8m/s | 0°C | 0% | 0hPa | 0V | 00:00:00 | 00:00:00 | 00:00:00 | |
| SQ6EMJ | 2026-09-05 17:14:33 | 50.71217 | 17.55590 | 59° | 15km/h | 21164m | 5.2m/s | -51.2°C | 0% | 0hPa | 0V | 00:00:00 | 00:00:00 | 00:00:00 | |
| OE5DRO-10 | 2026-09-05 17:14:31 | 50.71213 | 17.55581 | 91° | 22km/h | 21157m | 3.0m/s | 0°C | 0% | 0hPa | 0V | 00:00:00 | 00:00:00 | 00:00:00 | |
| SP6BVK | 2026-09-05 17:14:30 | 50.71209 | 17.55575 | 92° | 20km/h | 21157m | 3.0m/s | -51.2°C | 0% | 0hPa | 0V | 00:00:00 | 00:00:00 | 00:00:00 | |
| OE5MMP-10 | 2026-09-05 17:14:27 | 50.71215 | 17.55557 | 35° | 24km/h | 21141m | 2.5m/s | 0°C | 0% | 0hPa | 0V | 00:00:00 | 00:00:00 | 00:00:00 | |
| PETON7-10 | 2026-09-05 17:14:26 | 50.71211 | 17.55551 | 35° | 22km/h | 21138m | 3.2m/s | 0°C | 0% | 0hPa | 0V | 00:00:00 | 00:00:00 | 00:00:00 | |
| POL1PZ | 2026-09-05 17:14:25 | 50.71207 | 17.55544 | 96° | 18km/h | 21138m | 3.2m/s | -51.4°C | 0% | 0hPa | 0V | 00:00:00 | 00:00:00 | 00:00:00 | |
| SQ6EMJ | 2026-09-05 17:14:22 | 50.71214 | 17.55515 | 36° | 24km/h | 21119m | 3.4m/s | -51.7°C | 0% | 0hPa | 0V | 00:00:00 | 00:00:00 | 00:00:00 | |
| OE5MMP-10 | 2026-09-05 17:14:17 | 50.71214 | 17.55485 | 49° | 18km/h | 21103m | 2.6m/s | 0°C | 0% | 0hPa | 0V | 00:00:00 | 00:00:00 | 00:00:00 | |
| SQ6EMJ | 2026-09-05 17:14:15 | 50.71209 | 17.55480 | 122° | 9km/h | 21101m | 3.3m/s | -52.2°C | 0% | 0hPa | 0V | 00:00:00 | 00:00:00 | 00:00:00 | |
| OE5DRO-10 | 2026-09-05 17:14:12 | 50.71217 | 17.55455 | 350° | 18km/h | 21084m | 2.6m/s | 0°C | 0% | 0hPa | 0V | 00:00:00 | 00:00:00 | 00:00:00 | |
| SQ6EMJ | 2026-09-05 17:14:11 | 50.71215 | 17.55456 | 115° | 9km/h | 21081m | 3.4m/s | -52.4°C | 0% | 0hPa | 0V | 00:00:00 | 00:00:00 | 00:00:00 | |
| DB0NH | 2026-09-05 17:14:10 | 50.71215 | 17.55448 | 101° | 16km/h | 21070m | 5.4m/s | 0°C | 0% | 0hPa | 0V | 00:00:00 | 00:00:00 | 00:00:00 | |
| OE5MMP-10 | 2026-09-05 17:14:07 | 50.71220 | 17.55433 | 200° | 16km/h | 21062m | 3.0m/s | 0°C | 0% | 0hPa | 0V | 00:00:00 | 00:00:00 | 00:00:00 | |
| SQ6EMJ | 2026-09-05 17:14:05 | 50.71227 | 17.55433 | 106° | 29km/h | 21058m | 5.1m/s | -52.4°C | 0% | 0hPa | 0V | 00:00:00 | 00:00:00 | 00:00:00 | |
| POL1PZ | 2026-09-05 17:14:04 | 50.71227 | 17.55433 | 106° | 29km/h | 21058m | 5.1m/s | -52.4°C | 0% | 0hPa | 0V | 00:00:00 | 00:00:00 | 00:00:00 | |
| SQ6EMJ | 2026-09-05 17:14:00 | 50.71234 | 17.55418 | 89° | 24km/h | 21039m | 6.2m/s | -52.2°C | 0% | 0hPa | 0V | 00:00:00 | 00:00:00 | 00:00:00 | |
| SP3BTT-10 | 2026-09-05 17:13:58 | 50.71233 | 17.55409 | 100° | 26km/h | 21031m | 4.8m/s | 0°C | 0% | 0hPa | 0V | 00:00:00 | 00:00:00 | 00:00:00 | |
| OE5MMP-10 | 2026-09-05 17:13:57 | 50.71234 | 17.55425 | 103° | 18km/h | 21028m | 1.6m/s | 0°C | 0% | 0hPa | 0V | 00:00:00 | 00:00:00 | 00:00:00 | |
| PETON7-10 | 2026-09-05 17:13:56 | 50.71237 | 17.55407 | 195° | 20km/h | 21025m | 3.6m/s | 0°C | 0% | 0hPa | 0V | 00:00:00 | 00:00:00 | 00:00:00 | |
| SQ6EMJ | 2026-09-05 17:13:54 | 50.71241 | 17.55390 | 107° | 24km/h | 21016m | 1.1m/s | -52.2°C | 0% | 0hPa | 0V | 00:00:00 | 00:00:00 | 00:00:00 | |
| OE5DRO-10 | 2026-09-05 17:13:53 | 50.71241 | 17.55390 | 106° | 20km/h | 21013m | 5.3m/s | 0°C | 0% | 0hPa | 0V | 00:00:00 | 00:00:00 | 00:00:00 | |
| SP6BVK | 2026-09-05 17:13:50 | 50.71248 | 17.55385 | 90° | 26km/h | 21001m | 5.9m/s | -52.1°C | 0% | 0hPa | 0V | 00:00:00 | 00:00:00 | 00:00:00 | |
| OE5MMP-10 | 2026-09-05 17:13:47 | 50.71249 | 17.55369 | 169° | 20km/h | 20989m | 3.0m/s | 0°C | 0% | 0hPa | 0V | 00:00:00 | 00:00:00 | 00:00:00 | |
| POL1PZ | 2026-09-05 17:13:44 | 50.71259 | 17.55363 | 106° | 33km/h | 20982m | 5.6m/s | -52.1°C | 0% | 0hPa | 0V | 00:00:00 | 00:00:00 | 00:00:00 | |
| OM5KV | 2026-09-05 17:13:42 | 50.71263 | 17.55344 | 153° | 11km/h | 20975m | 5.3m/s | -52.2°C | 0% | 0hPa | 0V | 00:00:00 | 00:00:00 | 00:00:00 | |
| PETON7-10 | 2026-09-05 17:13:41 | 50.71266 | 17.55345 | 163° | 24km/h | 20968m | 3.4m/s | 0°C | 0% | 0hPa | 0V | 00:00:00 | 00:00:00 | 00:00:00 | |
| DB0NH | 2026-09-05 17:13:40 | 50.71269 | 17.55346 | 134° | 29km/h | 20956m | 5.1m/s | 0°C | 0% | 0hPa | 0V | 00:00:00 | 00:00:00 | 00:00:00 | |
| OM5KV | 2026-09-05 17:13:37 | 50.71280 | 17.55317 | 179° | 13km/h | 20952m | 2.6m/s | -52.3°C | 0% | 0hPa | 0V | 00:00:00 | 00:00:00 | 00:00:00 | |
| OE5DXL-15 | 2026-09-05 17:13:34 | 50.71286 | 17.55307 | 115° | 27km/h | 20941m | 1.6m/s | 0°C | 0% | 0hPa | 0V | 00:00:00 | 00:00:00 | 00:00:00 | |
| SQ6EMJ | 2026-09-05 17:13:32 | 50.71296 | 17.55285 | 153° | 9km/h | 20934m | 1.9m/s | -52.3°C | 0% | 0hPa | 0V | 00:00:00 | 00:00:00 | 00:00:00 | |
| OM5KV | 2026-09-05 17:13:31 | 50.71296 | 17.55285 | 153° | 9km/h | 20934m | 1.9m/s | -52.3°C | 0% | 0hPa | 0V | 00:00:00 | 00:00:00 | 00:00:00 | |
| SP6BVK | 2026-09-05 17:13:29 | 50.71303 | 17.55273 | 118° | 44km/h | 20927m | 5.9m/s | -52.3°C | 0% | 0hPa | 0V | 00:00:00 | 00:00:00 | 00:00:00 | |
| OE5MMP-10 | 2026-09-05 17:13:27 | 50.71312 | 17.55249 | 155° | 27km/h | 20913m | 2.8m/s | 0°C | 0% | 0hPa | 0V | 00:00:00 | 00:00:00 | 00:00:00 | |
| OM5KV | 2026-09-05 17:13:26 | 50.71319 | 17.55247 | 129° | 20km/h | 20913m | 2.8m/s | -52.1°C | 0% | 0hPa | 0V | 00:00:00 | 00:00:00 | 00:00:00 | |
| OK1SLM-15 | 2026-09-05 17:13:24 | 50.71327 | 17.55225 | 122° | 38km/h | 20906m | 1.5m/s | -52.2°C | 0% | 0hPa | 0V | 00:00:00 | 00:00:00 | 00:00:00 | |
| POL1PZ | 2026-09-05 17:13:23 | 50.71327 | 17.55225 | 122° | 38km/h | 20906m | 1.5m/s | -52.2°C | 0% | 0hPa | 0V | 00:00:00 | 00:00:00 | 00:00:00 | |
| SQ6EMJ | 2026-09-05 17:13:20 | 50.71345 | 17.55202 | 114° | 44km/h | 20892m | 5.3m/s | -52.1°C | 0% | 0hPa | 0V | 00:00:00 | 00:00:00 | 00:00:00 | |
| OM5KV | 2026-09-05 17:13:19 | 50.71349 | 17.55187 | 115° | 38km/h | 20889m | 1.1m/s | -52.0°C | 0% | 0hPa | 0V | 00:00:00 | 00:00:00 | 00:00:00 | |
| OE5MMP-10 | 2026-09-05 17:13:16 | 50.71358 | 17.55187 | 138° | 29km/h | 20878m | 3.1m/s | 0°C | 0% | 0hPa | 0V | 00:00:00 | 00:00:00 | 00:00:00 | |
| OE5DRO-10 | 2026-09-05 17:13:15 | 50.71363 | 17.55173 | 138° | 33km/h | 20867m | 5.1m/s | 0°C | 0% | 0hPa | 0V | 00:00:00 | 00:00:00 | 00:00:00 | |
| SP3BTT-10 | 2026-09-05 17:13:14 | 50.71368 | 17.55154 | 111° | 46km/h | 20870m | 2.0m/s | 0°C | 0% | 0hPa | 0V | 00:00:00 | 00:00:00 | 00:00:00 | |
| OM5KV | 2026-09-05 17:13:12 | 50.71376 | 17.55135 | 144° | 24km/h | 20867m | 5.2m/s | -51.9°C | 0% | 0hPa | 0V | 00:00:00 | 00:00:00 | 00:00:00 | |
| PETON7-10 | 2026-09-05 17:13:11 | 50.71381 | 17.55131 | 168° | 35km/h | 20860m | 3.6m/s | 0°C | 0% | 0hPa | 0V | 00:00:00 | 00:00:00 | 00:00:00 | |
| DB0NH | 2026-09-05 17:13:10 | 50.71387 | 17.55127 | 137° | 38km/h | 20847m | 5.5m/s | 0°C | 0% | 0hPa | 0V | 00:00:00 | 00:00:00 | 00:00:00 | |
| SP6BVK | 2026-09-05 17:13:09 | 50.71395 | 17.55097 | 109° | 40km/h | 20851m | 1.4m/s | -51.9°C | 0% | 0hPa | 0V | 00:00:00 | 00:00:00 | 00:00:00 | |
| OE5MMP-10 | 2026-09-05 17:13:06 | 50.71404 | 17.55084 | 171° | 35km/h | 20841m | 3.2m/s | 0°C | 0% | 0hPa | 0V | 00:00:00 | 00:00:00 | 00:00:00 | |
| SQ6EMJ | 2026-09-05 17:13:04 | 50.71418 | 17.55048 | 112° | 44km/h | 20832m | 1.5m/s | -51.8°C | 0% | 0hPa | 0V | 00:00:00 | 00:00:00 | 00:00:00 | |
| POL1PZ | 2026-09-05 17:13:03 | 50.71418 | 17.55048 | 112° | 44km/h | 20832m | 1.5m/s | -51.8°C | 0% | 0hPa | 0V | 00:00:00 | 00:00:00 | 00:00:00 | |
| OE5DXL-15 | 2026-09-05 17:13:02 | 50.71423 | 17.55036 | 139° | 35km/h | 20823m | 3.5m/s | 0°C | 0% | 0hPa | 0V | 00:00:00 | 00:00:00 | 00:00:00 | |
| OE3JTB-15 | 2026-09-05 17:13:00 | 50.71435 | 17.55026 | 129° | 49km/h | 20815m | 1.6m/s | 0°C | 0% | 0hPa | 0V | 00:00:00 | 00:00:00 | 00:00:00 | |
| SQ6EMJ | 2026-09-05 17:12:58 | 50.71448 | 17.54983 | 139° | 29km/h | 20812m | 5.6m/s | -52.0°C | 0% | 0hPa | 0V | 00:00:00 | 00:00:00 | 00:00:00 | |
| OE5DRO-10 | 2026-09-05 17:12:57 | 50.71453 | 17.54978 | 147° | 42km/h | 20806m | 3.3m/s | 0°C | 0% | 0hPa | 0V | 00:00:00 | 00:00:00 | 00:00:00 | |
| PETON7-10 | 2026-09-05 17:12:56 | 50.71453 | 17.54978 | 147° | 42km/h | 20806m | 3.3m/s | 0°C | 0% | 0hPa | 0V | 00:00:00 | 00:00:00 | 00:00:00 | |
| OM5KV | 2026-09-05 17:12:54 | 50.71467 | 17.54933 | 112° | 51km/h | 20798m | 1.6m/s | -52.1°C | 0% | 0hPa | 0V | 00:00:00 | 00:00:00 | 00:00:00 | |
| SQ6EMJ | 2026-09-05 17:12:52 | 50.71479 | 17.54912 | 145° | 26km/h | 20791m | 1.4m/s | -52.2°C | 0% | 0hPa | 0V | 00:00:00 | 00:00:00 | 00:00:00 | |
| OE5MMP-10 | 2026-09-05 17:12:50 | 50.71484 | 17.54906 | 105° | 42km/h | 20784m | 5.0m/s | 0°C | 0% | 0hPa | 0V | 00:00:00 | 00:00:00 | 00:00:00 | |
| OM5KV | 2026-09-05 17:12:48 | 50.71492 | 17.54864 | 111° | 51km/h | 20781m | 1.9m/s | -52.2°C | 0% | 0hPa | 0V | 00:00:00 | 00:00:00 | 00:00:00 | |
| SQ6EMJ | 2026-09-05 17:12:46 | 50.71503 | 17.54841 | 146° | 29km/h | 20773m | 1.4m/s | -52.2°C | 0% | 0hPa | 0V | 00:00:00 | 00:00:00 | 00:00:00 | |
| POL1PZ | 2026-09-05 17:12:42 | 50.71521 | 17.54772 | 129° | 38km/h | 20760m | 5.5m/s | -52.2°C | 0% | 0hPa | 0V | 00:00:00 | 00:00:00 | 00:00:00 | |
| SQ6EMJ | 2026-09-05 17:12:41 | 50.71534 | 17.54750 | 118° | 46km/h | 20754m | 4.0m/s | -52.2°C | 0% | 0hPa | 0V | 00:00:00 | 00:00:00 | 00:00:00 | |
| OE5MMP-10 | 2026-09-05 17:12:40 | 50.71534 | 17.54750 | 117° | 47km/h | 20749m | 3.9m/s | 0°C | 0% | 0hPa | 0V | 00:00:00 | 00:00:00 | 00:00:00 | |
| OE5DRO-10 | 2026-09-05 17:12:37 | 50.71545 | 17.54695 | 138° | 51km/h | 20736m | 4.0m/s | 0°C | 0% | 0hPa | 0V | 00:00:00 | 00:00:00 | 00:00:00 | |
| SQ6EMJ | 2026-09-05 17:12:36 | 50.71558 | 17.54666 | 113° | 51km/h | 20736m | 4.1m/s | -52.2°C | 0% | 0hPa | 0V | 00:00:00 | 00:00:00 | 00:00:00 | |
| OM5KV | 2026-09-05 17:12:31 | 50.71579 | 17.54578 | 110° | 51km/h | 20721m | 4.8m/s | -52.2°C | 0% | 0hPa | 0V | 00:00:00 | 00:00:00 | 00:00:00 | |
| OE5MMP-10 | 2026-09-05 17:12:30 | 50.71580 | 17.54578 | 110° | 53km/h | 20717m | 4.6m/s | 0°C | 0% | 0hPa | 0V | 00:00:00 | 00:00:00 | 00:00:00 | |
| SP6BVK | 2026-09-05 17:12:28 | 50.71588 | 17.54512 | 124° | 42km/h | 20710m | 5.3m/s | -52.3°C | 0% | 0hPa | 0V | 00:00:00 | 00:00:00 | 00:00:00 | |
| PETON7-10 | 2026-09-05 17:12:26 | 50.71594 | 17.54506 | 108° | 53km/h | 20704m | 4.5m/s | 0°C | 0% | 0hPa | 0V | 00:00:00 | 00:00:00 | 00:00:00 | |
| SQ6EMJ | 2026-09-05 17:12:24 | 50.71604 | 17.54433 | 100° | 58km/h | 20697m | 1.6m/s | -52.4°C | 0% | 0hPa | 0V | 00:00:00 | 00:00:00 | 00:00:00 | |
| OM5KV | 2026-09-05 17:12:23 | 50.71604 | 17.54433 | 100° | 58km/h | 20697m | 1.6m/s | -52.4°C | 0% | 0hPa | 0V | 00:00:00 | 00:00:00 | 00:00:00 | |
| POL1PZ | 2026-09-05 17:12:22 | 50.71607 | 17.54413 | 119° | 46km/h | 20694m | 5.2m/s | -52.5°C | 0% | 0hPa | 0V | 00:00:00 | 00:00:00 | 00:00:00 | |
| OE5MMP-10 | 2026-09-05 17:12:20 | 50.71618 | 17.54381 | 90° | 55km/h | 20684m | 3.4m/s | 0°C | 0% | 0hPa | 0V | 00:00:00 | 00:00:00 | 00:00:00 | |
| OE5DRO-10 | 2026-09-05 17:12:18 | 50.71621 | 17.54340 | 121° | 53km/h | 20672m | 4.5m/s | 0°C | 0% | 0hPa | 0V | 00:00:00 | 00:00:00 | 00:00:00 | |
| SQ9EZE-14 | 2026-09-05 17:12:17 | 50.71623 | 17.54313 | 117° | 42km/h | 20678m | 5.2m/s | -52.6°C | 0% | 0hPa | 0V | 00:00:00 | 00:00:00 | 00:00:00 | |
| SQ6EMJ | 2026-09-05 17:12:11 | 50.71642 | 17.54179 | 91° | 53km/h | 20655m | 4.9m/s | -53.1°C | 0% | 0hPa | 0V | 00:00:00 | 00:00:00 | 00:00:00 | |
| OE5MMP-10 | 2026-09-05 17:12:10 | 50.71642 | 17.54179 | 91° | 53km/h | 20652m | 2.2m/s | 0°C | 0% | 0hPa | 0V | 00:00:00 | 00:00:00 | 00:00:00 | |
| OE3JTB-15 | 2026-09-05 17:12:09 | 50.71636 | 17.54155 | 79° | 53km/h | 20652m | 2.2m/s | 0°C | 0% | 0hPa | 0V | 00:00:00 | 00:00:00 | 00:00:00 | |
| SP6BVK | 2026-09-05 17:12:07 | 50.71641 | 17.54113 | 117° | 44km/h | 20646m | 5.3m/s | -53.2°C | 0% | 0hPa | 0V | 00:00:00 | 00:00:00 | 00:00:00 | |
| SQ6EMJ | 2026-09-05 17:12:05 | 50.71648 | 17.54077 | 92° | 57km/h | 20640m | 4.7m/s | -53.2°C | 0% | 0hPa | 0V | 00:00:00 | 00:00:00 | 00:00:00 | |
| OM5KV | 2026-09-05 17:12:04 | 50.71647 | 17.54053 | 81° | 68km/h | 20636m | 1.9m/s | -53.2°C | 0% | 0hPa | 0V | 00:00:00 | 00:00:00 | 00:00:00 | |
| SQ9EZE-14 | 2026-09-05 17:12:02 | 50.71648 | 17.54014 | 123° | 37km/h | 20631m | 4.5m/s | -53.2°C | 0% | 0hPa | 0V | 00:00:00 | 00:00:00 | 00:00:00 | |
| OE5MMP-10 | 2026-09-05 17:12:00 | 50.71655 | 17.53981 | 92° | 47km/h | 20619m | 2.0m/s | 0°C | 0% | 0hPa | 0V | 00:00:00 | 00:00:00 | 00:00:00 | |
| SQ6EMJ | 2026-09-05 17:11:59 | 50.71654 | 17.53958 | 81° | 66km/h | 20622m | 3.1m/s | -53.1°C | 0% | 0hPa | 0V | 00:00:00 | 00:00:00 | 00:00:00 | |
| OE5DRO-10 | 2026-09-05 17:11:58 | 50.71652 | 17.53931 | 118° | 51km/h | 20616m | 4.7m/s | 0°C | 0% | 0hPa | 0V | 00:00:00 | 00:00:00 | 00:00:00 | |
| SP3BTT-10 | 2026-09-05 17:11:57 | 50.71655 | 17.53917 | 118° | 49km/h | 20613m | 1.5m/s | 0°C | 0% | 0hPa | 0V | 00:00:00 | 00:00:00 | 00:00:00 | |
| OE5DXL-15 | 2026-09-05 17:11:56 | 50.71660 | 17.53908 | 95° | 49km/h | 20610m | 4.3m/s | 0°C | 0% | 0hPa | 0V | 00:00:00 | 00:00:00 | 00:00:00 | |
| OM5KV | 2026-09-05 17:11:54 | 50.71663 | 17.53862 | 82° | 64km/h | 20607m | 1.8m/s | -53.1°C | 0% | 0hPa | 0V | 00:00:00 | 00:00:00 | 00:00:00 | |
| SQ6EMJ | 2026-09-05 17:11:53 | 50.71662 | 17.53839 | 95° | 51km/h | 20605m | 2.5m/s | -53.1°C | 0% | 0hPa | 0V | 00:00:00 | 00:00:00 | 00:00:00 | |
| OE5MMP-10 | 2026-09-05 17:11:49 | 50.71672 | 17.53769 | 82° | 51km/h | 20586m | 3.0m/s | 0°C | 0% | 0hPa | 0V | 00:00:00 | 00:00:00 | 00:00:00 | |
| OM5KV | 2026-09-05 17:11:48 | 50.71672 | 17.53747 | 99° | 51km/h | 20586m | 3.1m/s | -53.2°C | 0% | 0hPa | 0V | 00:00:00 | 00:00:00 | 00:00:00 | |
| SQ6EMJ | 2026-09-05 17:11:47 | 50.71676 | 17.53730 | 128° | 46km/h | 20583m | 5.0m/s | -53.2°C | 0% | 0hPa | 0V | 00:00:00 | 00:00:00 | 00:00:00 | |
| SP6BVK | 2026-09-05 17:11:46 | 50.71682 | 17.53715 | 123° | 46km/h | 20579m | 1.2m/s | -53.2°C | 0% | 0hPa | 0V | 00:00:00 | 00:00:00 | 00:00:00 | |
| OM5KV | 2026-09-05 17:11:42 | 50.71697 | 17.53621 | 121° | 51km/h | 20563m | 1.6m/s | -53.4°C | 0% | 0hPa | 0V | 00:00:00 | 00:00:00 | 00:00:00 | |
| SQ6EMJ | 2026-09-05 17:11:41 | 50.71701 | 17.53601 | 96° | 51km/h | 20560m | 4.8m/s | -53.4°C | 0% | 0hPa | 0V | 00:00:00 | 00:00:00 | 00:00:00 | |
| OE5MMP-10 | 2026-09-05 17:11:39 | 50.71701 | 17.53582 | 108° | 49km/h | 20555m | 3.8m/s | 0°C | 0% | 0hPa | 0V | 00:00:00 | 00:00:00 | 00:00:00 | |
| SQ6EMJ | 2026-09-05 17:11:35 | 50.71721 | 17.53507 | 95° | 49km/h | 20545m | 5.7m/s | -53.4°C | 0% | 0hPa | 0V | 00:00:00 | 00:00:00 | 00:00:00 | |
| PETON7-10 | 2026-09-05 17:11:26 | 50.71752 | 17.53342 | 91° | 44km/h | 20511m | 5.3m/s | 0°C | 0% | 0hPa | 0V | 00:00:00 | 00:00:00 | 00:00:00 | |
| SQ6EMJ | 2026-09-05 17:11:24 | 50.71755 | 17.53320 | 120° | 26km/h | 20508m | 1.6m/s | -53.3°C | 0% | 0hPa | 0V | 00:00:00 | 00:00:00 | 00:00:00 | |
| OM5KV | 2026-09-05 17:11:21 | 50.71769 | 17.53264 | 102° | 47km/h | 20498m | 3.0m/s | -53.2°C | 0% | 0hPa | 0V | 00:00:00 | 00:00:00 | 00:00:00 | |
| OE5DRO-10 | 2026-09-05 17:11:20 | 50.71771 | 17.53251 | 109° | 40km/h | 20490m | 1.5m/s | 0°C | 0% | 0hPa | 0V | 00:00:00 | 00:00:00 | 00:00:00 | |
| SQ6EMJ | 2026-09-05 17:11:19 | 50.71779 | 17.53228 | 113° | 51km/h | 20487m | 5.0m/s | -53.1°C | 0% | 0hPa | 0V | 00:00:00 | 00:00:00 | 00:00:00 | |
| SQ6EMJ | 2026-09-05 17:11:14 | 50.71798 | 17.53148 | 111° | 51km/h | 20471m | 5.7m/s | -53.2°C | 0% | 0hPa | 0V | 00:00:00 | 00:00:00 | 00:00:00 | |
| PETON7-10 | 2026-09-05 17:11:11 | 50.71801 | 17.53106 | 138° | 42km/h | 20461m | 4.8m/s | 0°C | 0% | 0hPa | 0V | 00:00:00 | 00:00:00 | 00:00:00 | |
| DB0NH | 2026-09-05 17:11:09 | 50.71812 | 17.53090 | 113° | 44km/h | 20455m | 3.9m/s | 0°C | 0% | 0hPa | 0V | 00:00:00 | 00:00:00 | 00:00:00 | |
| SQ6EMJ | 2026-09-05 17:11:08 | 50.71820 | 17.53056 | 86° | 46km/h | 20451m | 3.6m/s | -53.2°C | 0% | 0hPa | 0V | 00:00:00 | 00:00:00 | 00:00:00 | |
| OM5KV | 2026-09-05 17:11:06 | 50.71821 | 17.53040 | 104° | 37km/h | 20448m | 2.0m/s | -53.3°C | 0% | 0hPa | 0V | 00:00:00 | 00:00:00 | 00:00:00 | |
| SP6BVK | 2026-09-05 17:11:05 | 50.71826 | 17.53027 | 137° | 44km/h | 20444m | 5.4m/s | -53.3°C | 0% | 0hPa | 0V | 00:00:00 | 00:00:00 | 00:00:00 | |
| SQ6EMJ | 2026-09-05 17:11:02 | 50.71843 | 17.52967 | 111° | 33km/h | 20430m | 2.5m/s | -53.3°C | 0% | 0hPa | 0V | 00:00:00 | 00:00:00 | 00:00:00 | |
| OE5DRO-10 | 2026-09-05 17:11:01 | 50.71843 | 17.52967 | 111° | 40km/h | 20423m | 1.7m/s | 0°C | 0% | 0hPa | 0V | 00:00:00 | 00:00:00 | 00:00:00 | |
| OM5KV | 2026-09-05 17:11:00 | 50.71857 | 17.52954 | 134° | 58km/h | 20426m | 4.9m/s | -53.3°C | 0% | 0hPa | 0V | 00:00:00 | 00:00:00 | 00:00:00 | |
| OE5MMP-10 | 2026-09-05 17:10:59 | 50.71857 | 17.52936 | 122° | 44km/h | 20420m | 5.1m/s | 0°C | 0% | 0hPa | 0V | 00:00:00 | 00:00:00 | 00:00:00 | |
| PETON7-10 | 2026-09-05 17:10:56 | 50.71864 | 17.52895 | 112° | 42km/h | 20405m | 1.8m/s | 0°C | 0% | 0hPa | 0V | 00:00:00 | 00:00:00 | 00:00:00 | |
| OE5DXL-15 | 2026-09-05 17:10:51 | 50.71886 | 17.52821 | 122° | 44km/h | 20377m | 3.5m/s | 0°C | 0% | 0hPa | 0V | 00:00:00 | 00:00:00 | 00:00:00 | |
| OE5MMP-10 | 2026-09-05 17:10:49 | 50.71897 | 17.52772 | 102° | 42km/h | 20383m | 5.7m/s | 0°C | 0% | 0hPa | 0V | 00:00:00 | 00:00:00 | 00:00:00 | |
| SP6BVK | 2026-09-05 17:10:45 | 50.71910 | 17.52724 | 104° | 62km/h | 20373m | 4.7m/s | -53.0°C | 0% | 0hPa | 0V | 00:00:00 | 00:00:00 | 00:00:00 | |
| SQ6EMJ | 2026-09-05 17:10:44 | 50.71913 | 17.52702 | 98° | 49km/h | 20369m | 2.0m/s | -52.9°C | 0% | 0hPa | 0V | 00:00:00 | 00:00:00 | 00:00:00 | |
| OM5KV | 2026-09-05 17:10:43 | 50.71915 | 17.52687 | 117° | 29km/h | 20366m | 6.0m/s | -52.9°C | 0% | 0hPa | 0V | 00:00:00 | 00:00:00 | 00:00:00 | |
| SP3BTT-10 | 2026-09-05 17:10:42 | 50.71921 | 17.52677 | 146° | 35km/h | 20359m | 3.4m/s | 0°C | 0% | 0hPa | 0V | 00:00:00 | 00:00:00 | 00:00:00 | |
| OE5DRO-10 | 2026-09-05 17:10:41 | 50.71928 | 17.52664 | 93° | 38km/h | 20355m | 4.1m/s | 0°C | 0% | 0hPa | 0V | 00:00:00 | 00:00:00 | 00:00:00 | |
| PETON7-10 | 2026-09-05 17:10:40 | 50.71931 | 17.52645 | 93° | 42km/h | 20352m | 2.2m/s | 0°C | 0% | 0hPa | 0V | 00:00:00 | 00:00:00 | 00:00:00 | |
| DB0NH | 2026-09-05 17:10:39 | 50.71931 | 17.52637 | 107° | 40km/h | 20341m | 4.2m/s | 0°C | 0% | 0hPa | 0V | 00:00:00 | 00:00:00 | 00:00:00 | |
| OM5KV | 2026-09-05 17:10:37 | 50.71940 | 17.52602 | 136° | 47km/h | 20344m | 2.0m/s | -52.9°C | 0% | 0hPa | 0V | 00:00:00 | 00:00:00 | 00:00:00 | |
| SQ6EMJ | 2026-09-05 17:10:34 | 50.71950 | 17.52538 | 132° | 42km/h | 20330m | 6.4m/s | -52.8°C | 0% | 0hPa | 0V | 00:00:00 | 00:00:00 | 00:00:00 | |
| OE5MMP-10 | 2026-09-05 17:10:29 | 50.71962 | 17.52477 | 111° | 38km/h | 20312m | 5.8m/s | 0°C | 0% | 0hPa | 0V | 00:00:00 | 00:00:00 | 00:00:00 | |
| SQ6EMJ | 2026-09-05 17:10:28 | 50.71972 | 17.52444 | 111° | 62km/h | 20308m | 2.3m/s | -52.8°C | 0% | 0hPa | 0V | 00:00:00 | 00:00:00 | 00:00:00 | |
| PETON7-10 | 2026-09-05 17:10:24 | 50.71977 | 17.52405 | 121° | 37km/h | 20293m | 6.2m/s | 0°C | 0% | 0hPa | 0V | 00:00:00 | 00:00:00 | 00:00:00 | |
| SQ6EMJ | 2026-09-05 17:10:23 | 50.71986 | 17.52370 | 102° | 58km/h | 20289m | 2.2m/s | -52.8°C | 0% | 0hPa | 0V | 00:00:00 | 00:00:00 | 00:00:00 | |
| OE5MMP-10 | 2026-09-05 17:10:19 | 50.71992 | 17.52340 | 107° | 37km/h | 20274m | 5.8m/s | 0°C | 0% | 0hPa | 0V | 00:00:00 | 00:00:00 | 00:00:00 | |
| SQ6EMJ | 2026-09-05 17:10:18 | 50.71999 | 17.52300 | 96° | 51km/h | 20270m | 2.1m/s | -52.7°C | 0% | 0hPa | 0V | 00:00:00 | 00:00:00 | 00:00:00 | |
| OE5DXL-15 | 2026-09-05 17:10:17 | 50.71999 | 17.52292 | 100° | 37km/h | 20266m | 5.3m/s | 0°C | 0% | 0hPa | 0V | 00:00:00 | 00:00:00 | 00:00:00 | |
| OE3JTB-15 | 2026-09-05 17:10:14 | 50.72006 | 17.52269 | 119° | 35km/h | 20247m | 4.9m/s | 0°C | 0% | 0hPa | 0V | 00:00:00 | 00:00:00 | 00:00:00 | |
| SQ6EMJ | 2026-09-05 17:10:12 | 50.72013 | 17.52219 | 114° | 29km/h | 20247m | 4.9m/s | -52.8°C | 0% | 0hPa | 0V | 00:00:00 | 00:00:00 | 00:00:00 | |
| OE5MMP-10 | 2026-09-05 17:10:09 | 50.72021 | 17.52203 | 119° | 33km/h | 20236m | 5.1m/s | 0°C | 0% | 0hPa | 0V | 00:00:00 | 00:00:00 | 00:00:00 | |
| DB0NH | 2026-09-05 17:10:07 | 50.72024 | 17.52170 | 89° | 40km/h | 20228m | 6.0m/s | 0°C | 0% | 0hPa | 0V | 00:00:00 | 00:00:00 | 00:00:00 | |
| SQ6EMJ | 2026-09-05 17:10:05 | 50.72029 | 17.52150 | 137° | 26km/h | 20223m | 2.3m/s | -52.9°C | 0% | 0hPa | 0V | 00:00:00 | 00:00:00 | 00:00:00 | |
| SP6BVK | 2026-09-05 17:10:04 | 50.72033 | 17.52141 | 109° | 33km/h | 20220m | 3.8m/s | -53.0°C | 0% | 0hPa | 0V | 00:00:00 | 00:00:00 | 00:00:00 | |
| OM5KV | 2026-09-05 17:10:01 | 50.72034 | 17.52097 | 121° | 27km/h | 20208m | 5.6m/s | -53.0°C | 0% | 0hPa | 0V | 00:00:00 | 00:00:00 | 00:00:00 | |
| SQ6EMJ | 2026-09-05 17:10:00 | 50.72038 | 17.52087 | 134° | 35km/h | 20204m | 2.2m/s | -53.0°C | 0% | 0hPa | 0V | 00:00:00 | 00:00:00 | 00:00:00 | |
| OE5MMP-10 | 2026-09-05 17:09:59 | 50.72042 | 17.52074 | 102° | 40km/h | 20197m | 3.3m/s | 0°C | 0% | 0hPa | 0V | 00:00:00 | 00:00:00 | 00:00:00 | |
| SP3BTT-10 | 2026-09-05 17:09:58 | 50.72042 | 17.52055 | 89° | 38km/h | 20194m | 3.4m/s | 0°C | 0% | 0hPa | 0V | 00:00:00 | 00:00:00 | 00:00:00 | |
| SQ6EMJ | 2026-09-05 17:09:55 | 50.72052 | 17.52004 | 93° | 42km/h | 20183m | 5.6m/s | -53.3°C | 0% | 0hPa | 0V | 00:00:00 | 00:00:00 | 00:00:00 | |
| PETON7-10 | 2026-09-05 17:09:54 | 50.72052 | 17.52004 | 93° | 38km/h | 20178m | 3.6m/s | 0°C | 0% | 0hPa | 0V | 00:00:00 | 00:00:00 | 00:00:00 | |
| OE5MMP-10 | 2026-09-05 17:09:49 | 50.72058 | 17.51924 | 76° | 37km/h | 20160m | 3.5m/s | 0°C | 0% | 0hPa | 0V | 00:00:00 | 00:00:00 | 00:00:00 | |
| OE5DXL-15 | 2026-09-05 17:09:47 | 50.72055 | 17.51907 | 108° | 38km/h | 20147m | 4.4m/s | 0°C | 0% | 0hPa | 0V | 00:00:00 | 00:00:00 | 00:00:00 | |
| SP6BVK | 2026-09-05 17:09:44 | 50.72061 | 17.51844 | 103° | 13km/h | 20142m | 4.5m/s | -53.4°C | 0% | 0hPa | 0V | 00:00:00 | 00:00:00 | 00:00:00 | |
| PETON7-10 | 2026-09-05 17:09:39 | 50.72062 | 17.51784 | 83° | 37km/h | 20123m | 3.6m/s | 0°C | 0% | 0hPa | 0V | 00:00:00 | 00:00:00 | 00:00:00 | |
| POL1PZ | 2026-09-05 17:09:38 | 50.72064 | 17.51768 | 101° | 29km/h | 20120m | 3.2m/s | -53.3°C | 0% | 0hPa | 0V | 00:00:00 | 00:00:00 | 00:00:00 | |
| DB0NH | 2026-09-05 17:09:37 | 50.72064 | 17.51767 | 100° | 27km/h | 20111m | 1.7m/s | 0°C | 0% | 0hPa | 0V | 00:00:00 | 00:00:00 | 00:00:00 | |
| SQ6EMJ | 2026-09-05 17:09:32 | 50.72062 | 17.51696 | 93° | 33km/h | 20099m | 3.4m/s | -53.3°C | 0% | 0hPa | 0V | 00:00:00 | 00:00:00 | 00:00:00 | |
| OM5KV | 2026-09-05 17:09:31 | 50.72058 | 17.51660 | 77° | 49km/h | 20091m | 2.2m/s | -53.3°C | 0% | 0hPa | 0V | 00:00:00 | 00:00:00 | 00:00:00 | |
| OE5MMP-10 | 2026-09-05 17:09:28 | 50.72058 | 17.51635 | 109° | 38km/h | 20081m | 3.9m/s | 0°C | 0% | 0hPa | 0V | 00:00:00 | 00:00:00 | 00:00:00 | |
| SQ6EMJ | 2026-09-05 17:09:27 | 50.72057 | 17.51605 | 73° | 57km/h | 20076m | 4.9m/s | -53.4°C | 0% | 0hPa | 0V | 00:00:00 | 00:00:00 | 00:00:00 | |
| PETON7-10 | 2026-09-05 17:09:24 | 50.72052 | 17.51570 | 93° | 40km/h | 20065m | 2.3m/s | 0°C | 0% | 0hPa | 0V | 00:00:00 | 00:00:00 | 00:00:00 | |
| SQ6EMJ | 2026-09-05 17:09:22 | 50.72050 | 17.51529 | 63° | 55km/h | 20057m | 4.3m/s | -53.4°C | 0% | 0hPa | 0V | 00:00:00 | 00:00:00 | 00:00:00 | |
| OM5KV | 2026-09-05 17:09:19 | 50.72042 | 17.51500 | 93° | 27km/h | 20049m | 6.1m/s | -53.4°C | 0% | 0hPa | 0V | 00:00:00 | 00:00:00 | 00:00:00 | |
| OE5MMP-10 | 2026-09-05 17:09:18 | 50.72044 | 17.51488 | 108° | 40km/h | 20042m | 4.9m/s | 0°C | 0% | 0hPa | 0V | 00:00:00 | 00:00:00 | 00:00:00 | |
| POL1PZ | 2026-09-05 17:09:17 | 50.72044 | 17.51472 | 78° | 46km/h | 20042m | 5.0m/s | -53.3°C | 0% | 0hPa | 0V | 00:00:00 | 00:00:00 | 00:00:00 | |
| SQ6EMJ | 2026-09-05 17:09:16 | 50.72032 | 17.51440 | 61° | 37km/h | 20034m | 2.8m/s | -53.3°C | 0% | 0hPa | 0V | 00:00:00 | 00:00:00 | 00:00:00 | |
| OM5KV | 2026-09-05 17:09:14 | 50.72032 | 17.51414 | 101° | 42km/h | 20026m | 1.1m/s | -53.3°C | 0% | 0hPa | 0V | 00:00:00 | 00:00:00 | 00:00:00 | |
| SP3BTT-10 | 2026-09-05 17:09:12 | 50.72031 | 17.51397 | 71° | 35km/h | 20014m | 2.6m/s | 0°C | 0% | 0hPa | 0V | 00:00:00 | 00:00:00 | 00:00:00 | |
| OE5DRO-10 | 2026-09-05 17:09:11 | 50.72025 | 17.51382 | 43° | 37km/h | 20002m | 5.5m/s | 0°C | 0% | 0hPa | 0V | 00:00:00 | 00:00:00 | 00:00:00 | |
| SQ6EMJ | 2026-09-05 17:09:10 | 50.72016 | 17.51356 | 98° | 38km/h | 20010m | 5.8m/s | -53.5°C | 0% | 0hPa | 0V | 00:00:00 | 00:00:00 | 00:00:00 | |
| PETON7-10 | 2026-09-05 17:09:09 | 50.72016 | 17.51356 | 98° | 38km/h | 20006m | 2.0m/s | 0°C | 0% | 0hPa | 0V | 00:00:00 | 00:00:00 | 00:00:00 | |
| OE5MMP-10 | 2026-09-05 17:09:08 | 50.72017 | 17.51334 | 66° | 40km/h | 20002m | 5.5m/s | 0°C | 0% | 0hPa | 0V | 00:00:00 | 00:00:00 | 00:00:00 | |
| SQ6EMJ | 2026-09-05 17:09:04 | 50.72001 | 17.51284 | 97° | 40km/h | 19990m | 5.7m/s | -53.7°C | 0% | 0hPa | 0V | 00:00:00 | 00:00:00 | 00:00:00 | |
| SQ9EZE-14 | 2026-09-05 17:09:03 | 50.72001 | 17.51267 | 89° | 46km/h | 19986m | 2.0m/s | -53.7°C | 0% | 0hPa | 0V | 00:00:00 | 00:00:00 | 00:00:00 | |
| SP6BVK | 2026-09-05 17:09:02 | 50.71998 | 17.51252 | 59° | 38km/h | 19982m | 5.6m/s | -53.7°C | 0% | 0hPa | 0V | 00:00:00 | 00:00:00 | 00:00:00 | |
| SQ6EMJ | 2026-09-05 17:08:59 | 50.71985 | 17.51203 | 82° | 46km/h | 19967m | 2.1m/s | -53.8°C | 0% | 0hPa | 0V | 00:00:00 | 00:00:00 | 00:00:00 | |
| OE5MMP-10 | 2026-09-05 17:08:58 | 50.71985 | 17.51203 | 82° | 31km/h | 19963m | 5.9m/s | 0°C | 0% | 0hPa | 0V | 00:00:00 | 00:00:00 | 00:00:00 | |
| POL1PZ | 2026-09-05 17:08:56 | 50.71976 | 17.51182 | 49° | 22km/h | 19959m | 2.2m/s | -53.8°C | 0% | 0hPa | 0V | 00:00:00 | 00:00:00 | 00:00:00 | |
| PETON7-10 | 2026-09-05 17:08:54 | 50.71972 | 17.51162 | 92° | 29km/h | 19948m | 1.9m/s | 0°C | 0% | 0hPa | 0V | 00:00:00 | 00:00:00 | 00:00:00 | |
| OM5KV | 2026-09-05 17:08:53 | 50.71971 | 17.51145 | 77° | 44km/h | 19948m | 2.0m/s | -53.9°C | 0% | 0hPa | 0V | 00:00:00 | 00:00:00 | 00:00:00 | |
| OE5DRO-10 | 2026-09-05 17:08:51 | 50.71962 | 17.51137 | 89° | 37km/h | 19936m | 3.5m/s | 0°C | 0% | 0hPa | 0V | 00:00:00 | 00:00:00 | 00:00:00 | |
| SQ6EMJ | 2026-09-05 17:08:48 | 50.71954 | 17.51081 | 42° | 26km/h | 19926m | 6.1m/s | -53.9°C | 0% | 0hPa | 0V | 00:00:00 | 00:00:00 | 00:00:00 | |
| OM5KV | 2026-09-05 17:08:47 | 50.71954 | 17.51081 | 42° | 26km/h | 19926m | 6.1m/s | -53.9°C | 0% | 0hPa | 0V | 00:00:00 | 00:00:00 | 00:00:00 | |
| SQ9EZE-14 | 2026-09-05 17:08:46 | 50.71950 | 17.51077 | 40° | 15km/h | 19911m | 3.5m/s | -53.9°C | 0% | 0hPa | 0V | 00:00:00 | 00:00:00 | 00:00:00 | |
| SP3BTT-10 | 2026-09-05 17:08:42 | 50.71938 | 17.51035 | 35° | 26km/h | 19907m | 5.0m/s | 0°C | 0% | 0hPa | 0V | 00:00:00 | 00:00:00 | 00:00:00 | |
| SQ6EMJ | 2026-09-05 17:08:41 | 50.71934 | 17.51032 | 64° | 11km/h | 19904m | 1.6m/s | -53.8°C | 0% | 0hPa | 0V | 00:00:00 | 00:00:00 | 00:00:00 | |
| PETON7-10 | 2026-09-05 17:08:39 | 50.71929 | 17.51010 | 69° | 26km/h | 19893m | 3.5m/s | 0°C | 0% | 0hPa | 0V | 00:00:00 | 00:00:00 | 00:00:00 | |
| OE5MMP-10 | 2026-09-05 17:08:38 | 50.71924 | 17.50993 | 44° | 26km/h | 19889m | 4.9m/s | 0°C | 0% | 0hPa | 0V | 00:00:00 | 00:00:00 | 00:00:00 | |
| SQ6EMJ | 2026-09-05 17:08:37 | 50.71919 | 17.50988 | 75° | 11km/h | 19886m | 1.4m/s | -53.7°C | 0% | 0hPa | 0V | 00:00:00 | 00:00:00 | 00:00:00 | |
| POL1PZ | 2026-09-05 17:08:36 | 50.71919 | 17.50988 | 75° | 11km/h | 19886m | 1.4m/s | -53.7°C | 0% | 0hPa | 0V | 00:00:00 | 00:00:00 | 00:00:00 | |
| OM5KV | 2026-09-05 17:08:35 | 50.71918 | 17.50980 | 75° | 31km/h | 19882m | 6.3m/s | -53.6°C | 0% | 0hPa | 0V | 00:00:00 | 00:00:00 | 00:00:00 | |
| SQ6EMJ | 2026-09-05 17:08:31 | 50.71906 | 17.50935 | 73° | 29km/h | 19863m | 5.4m/s | -53.5°C | 0% | 0hPa | 0V | 00:00:00 | 00:00:00 | 00:00:00 | |
| SQ9EZE-14 | 2026-09-05 17:08:30 | 50.71906 | 17.50935 | 73° | 29km/h | 19856m | 3.2m/s | -53.5°C | 0% | 0hPa | 0V | 00:00:00 | 00:00:00 | 00:00:00 | |
| OE5MMP-10 | 2026-09-05 17:08:28 | 50.71895 | 17.50911 | 45° | 27km/h | 19851m | 5.9m/s | 0°C | 0% | 0hPa | 0V | 00:00:00 | 00:00:00 | 00:00:00 | |
| SQ6EMJ | 2026-09-05 17:08:25 | 50.71892 | 17.50893 | 70° | 31km/h | 19844m | 5.6m/s | -53.3°C | 0% | 0hPa | 0V | 00:00:00 | 00:00:00 | 00:00:00 | |
| PETON7-10 | 2026-09-05 17:08:24 | 50.71887 | 17.50881 | 45° | 26km/h | 19837m | 3.5m/s | 0°C | 0% | 0hPa | 0V | 00:00:00 | 00:00:00 | 00:00:00 | |
| OM5KV | 2026-09-05 17:08:22 | 50.71879 | 17.50867 | 97° | 9km/h | 19833m | 5.1m/s | -53.2°C | 0% | 0hPa | 0V | 00:00:00 | 00:00:00 | 00:00:00 | |
| SP6BVK | 2026-09-05 17:08:21 | 50.71881 | 17.50862 | 80° | 20km/h | 19829m | 2.0m/s | -53.2°C | 0% | 0hPa | 0V | 00:00:00 | 00:00:00 | 00:00:00 | |
| SQ6EMJ | 2026-09-05 17:08:20 | 50.71872 | 17.50843 | 34° | 38km/h | 19821m | 2.3m/s | -53.2°C | 0% | 0hPa | 0V | 00:00:00 | 00:00:00 | 00:00:00 | |
| OE5MMP-10 | 2026-09-05 17:08:18 | 50.71866 | 17.50836 | 74° | 26km/h | 19813m | 4.5m/s | 0°C | 0% | 0hPa | 0V | 00:00:00 | 00:00:00 | 00:00:00 | |
| NBG1-10 | 2026-09-05 17:08:17 | 50.71866 | 17.50830 | 109° | 26km/h | 19799m | 4.8m/s | 0°C | 0% | 0hPa | 0V | 00:00:00 | 00:00:00 | 00:00:00 | |
| POL1PZ | 2026-09-05 17:08:16 | 50.71865 | 17.50813 | 46° | 33km/h | 19806m | 5.4m/s | -53.0°C | 0% | 0hPa | 0V | 00:00:00 | 00:00:00 | 00:00:00 | |
| SQ6EMJ | 2026-09-05 17:08:13 | 50.71853 | 17.50802 | 94° | 13km/h | 19799m | 4.9m/s | -53.0°C | 0% | 0hPa | 0V | 00:00:00 | 00:00:00 | 00:00:00 | |
| OE3JTB-15 | 2026-09-05 17:08:11 | 50.71855 | 17.50784 | 77° | 26km/h | 19744m | 5.9m/s | 0°C | 0% | 0hPa | 0V | 00:00:00 | 00:00:00 | 00:00:00 | |
| PETON7-10 | 2026-09-05 17:08:09 | 50.71844 | 17.50772 | 17° | 24km/h | 19780m | 4.8m/s | 0°C | 0% | 0hPa | 0V | 00:00:00 | 00:00:00 | 00:00:00 | |
| OE5MMP-10 | 2026-09-05 17:08:08 | 50.71841 | 17.50772 | 101° | 24km/h | 19776m | 3.2m/s | 0°C | 0% | 0hPa | 0V | 00:00:00 | 00:00:00 | 00:00:00 | |
| SQ6EMJ | 2026-09-05 17:08:03 | 50.71828 | 17.50723 | 88° | 38km/h | 19758m | 2.3m/s | -52.8°C | 0% | 0hPa | 0V | 00:00:00 | 00:00:00 | 00:00:00 | |
| SP3BTT-10 | 2026-09-05 17:08:00 | 50.71822 | 17.50707 | 355° | 18km/h | 19747m | 1.8m/s | 0°C | 0% | 0hPa | 0V | 00:00:00 | 00:00:00 | 00:00:00 | |
| OE5MMP-10 | 2026-09-05 17:07:58 | 50.71816 | 17.50702 | 83° | 18km/h | 19739m | 2.6m/s | 0°C | 0% | 0hPa | 0V | 00:00:00 | 00:00:00 | 00:00:00 | |
| SQ6EMJ | 2026-09-05 17:07:57 | 50.71814 | 17.50678 | 52° | 22km/h | 19736m | 3.3m/s | -52.7°C | 0% | 0hPa | 0V | 00:00:00 | 00:00:00 | 00:00:00 | |
| OM5KV | 2026-09-05 17:07:56 | 50.71814 | 17.50678 | 52° | 22km/h | 19736m | 3.3m/s | -52.7°C | 0% | 0hPa | 0V | 00:00:00 | 00:00:00 | 00:00:00 | |
| POL1PZ | 2026-09-05 17:07:55 | 50.71811 | 17.50675 | 358° | 11km/h | 19732m | 5.0m/s | -52.7°C | 0% | 0hPa | 0V | 00:00:00 | 00:00:00 | 00:00:00 | |
| PETON7-10 | 2026-09-05 17:07:54 | 50.71809 | 17.50676 | 77° | 18km/h | 19725m | 4.8m/s | 0°C | 0% | 0hPa | 0V | 00:00:00 | 00:00:00 | 00:00:00 | |
| OM5KV | 2026-09-05 17:07:51 | 50.71802 | 17.50650 | 20° | 18km/h | 19719m | 4.4m/s | -52.6°C | 0% | 0hPa | 0V | 00:00:00 | 00:00:00 | 00:00:00 | |
| DB0NH | 2026-09-05 17:07:49 | 50.71799 | 17.50650 | 72° | 20km/h | 19708m | 5.8m/s | 0°C | 0% | 0hPa | 0V | 00:00:00 | 00:00:00 | 00:00:00 | |
| OE5MMP-10 | 2026-09-05 17:07:48 | 50.71797 | 17.50643 | 73° | 18km/h | 19704m | 1.7m/s | 0°C | 0% | 0hPa | 0V | 00:00:00 | 00:00:00 | 00:00:00 | |
| SQ6EMJ | 2026-09-05 17:07:46 | 50.71789 | 17.50623 | 350° | 9km/h | 19697m | 3.0m/s | -52.5°C | 0% | 0hPa | 0V | 00:00:00 | 00:00:00 | 00:00:00 | |
| OM5KV | 2026-09-05 17:07:45 | 50.71789 | 17.50623 | 350° | 9km/h | 19697m | 3.0m/s | -52.5°C | 0% | 0hPa | 0V | 00:00:00 | 00:00:00 | 00:00:00 | |
| NBG1-10 | 2026-09-05 17:07:44 | 50.71785 | 17.50623 | 68° | 20km/h | 19694m | 2.7m/s | 0°C | 0% | 0hPa | 0V | 00:00:00 | 00:00:00 | 00:00:00 | |
| SP6BVK | 2026-09-05 17:07:41 | 50.71779 | 17.50598 | 23° | 7km/h | 19680m | 2.5m/s | -52.4°C | 0% | 0hPa | 0V | 00:00:00 | 00:00:00 | 00:00:00 | |
| OM5KV | 2026-09-05 17:07:40 | 50.71779 | 17.50598 | 23° | 7km/h | 19680m | 2.5m/s | -52.4°C | 0% | 0hPa | 0V | 00:00:00 | 00:00:00 | 00:00:00 | |
| PETON7-10 | 2026-09-05 17:07:39 | 50.71779 | 17.50597 | 71° | 16km/h | 19674m | 4.6m/s | 0°C | 0% | 0hPa | 0V | 00:00:00 | 00:00:00 | 00:00:00 | |
| OE5MMP-10 | 2026-09-05 17:07:38 | 50.71777 | 17.50584 | 64° | 18km/h | 19671m | 1.4m/s | 0°C | 0% | 0hPa | 0V | 00:00:00 | 00:00:00 | 00:00:00 | |
| OE3JTB-15 | 2026-09-05 17:07:32 | 50.71765 | 17.50553 | 60° | 35km/h | 19648m | 2.9m/s | 0°C | 0% | 0hPa | 0V | 00:00:00 | 00:00:00 | 00:00:00 | |
| SP3BTT-10 | 2026-09-05 17:07:30 | 50.71764 | 17.50549 | 147° | 33km/h | 19648m | 2.9m/s | 0°C | 0% | 0hPa | 0V | 00:00:00 | 00:00:00 | 00:00:00 | |
| SQ6EMJ | 2026-09-05 17:07:29 | 50.71761 | 17.50539 | 68° | 40km/h | 19644m | 4.7m/s | -52.8°C | 0% | 0hPa | 0V | 00:00:00 | 00:00:00 | 00:00:00 | |
| OE5MMP-10 | 2026-09-05 17:07:28 | 50.71761 | 17.50539 | 67° | 24km/h | 19641m | 1.6m/s | 0°C | 0% | 0hPa | 0V | 00:00:00 | 00:00:00 | 00:00:00 | |
| PETON7-10 | 2026-09-05 17:07:24 | 50.71759 | 17.50512 | 76° | 27km/h | 19625m | 4.4m/s | 0°C | 0% | 0hPa | 0V | 00:00:00 | 00:00:00 | 00:00:00 | |
| SQ6EMJ | 2026-09-05 17:07:23 | 50.71757 | 17.50501 | 73° | 40km/h | 19625m | 4.5m/s | -52.9°C | 0% | 0hPa | 0V | 00:00:00 | 00:00:00 | 00:00:00 | |
| OM5KV | 2026-09-05 17:07:22 | 50.71755 | 17.50480 | 130° | 13km/h | 19618m | 5.7m/s | -53.0°C | 0% | 0hPa | 0V | 00:00:00 | 00:00:00 | 00:00:00 | |
| SP6BVK | 2026-09-05 17:07:20 | 50.71760 | 17.50469 | 91° | 27km/h | 19611m | 4.5m/s | -52.9°C | 0% | 0hPa | 0V | 00:00:00 | 00:00:00 | 00:00:00 | |
| DB0NH | 2026-09-05 17:07:19 | 50.71760 | 17.50469 | 91° | 40km/h | 19607m | 1.9m/s | 0°C | 0% | 0hPa | 0V | 00:00:00 | 00:00:00 | 00:00:00 | |
| SQ6EMJ | 2026-09-05 17:07:18 | 50.71756 | 17.50442 | 83° | 27km/h | 19605m | 3.1m/s | -52.9°C | 0% | 0hPa | 0V | 00:00:00 | 00:00:00 | 00:00:00 | |
| OM5KV | 2026-09-05 17:07:15 | 50.71761 | 17.50429 | 126° | 24km/h | 19598m | 1.2m/s | -52.9°C | 0% | 0hPa | 0V | 00:00:00 | 00:00:00 | 00:00:00 | |
| POL1PZ | 2026-09-05 17:07:14 | 50.71763 | 17.50418 | 92° | 33km/h | 19594m | 5.8m/s | -52.9°C | 0% | 0hPa | 0V | 00:00:00 | 00:00:00 | 00:00:00 | |
| SQ6EMJ | 2026-09-05 17:07:11 | 50.71764 | 17.50375 | 129° | 29km/h | 19580m | 1.8m/s | -52.9°C | 0% | 0hPa | 0V | 00:00:00 | 00:00:00 | 00:00:00 | |
| NBG1-10 | 2026-09-05 17:07:10 | 50.71765 | 17.50375 | 129° | 37km/h | 19580m | 1.7m/s | 0°C | 0% | 0hPa | 0V | 00:00:00 | 00:00:00 | 00:00:00 | |
| PETON7-10 | 2026-09-05 17:07:09 | 50.71767 | 17.50363 | 92° | 37km/h | 19573m | 1.2m/s | 0°C | 0% | 0hPa | 0V | 00:00:00 | 00:00:00 | 00:00:00 | |
| OE5MMP-10 | 2026-09-05 17:07:08 | 50.71765 | 17.50347 | 71° | 35km/h | 19571m | 3.2m/s | 0°C | 0% | 0hPa | 0V | 00:00:00 | 00:00:00 | 00:00:00 | |
| SQ6EMJ | 2026-09-05 17:07:05 | 50.71773 | 17.50304 | 86° | 33km/h | 19560m | 5.6m/s | -52.8°C | 0% | 0hPa | 0V | 00:00:00 | 00:00:00 | 00:00:00 | |
| OM5KV | 2026-09-05 17:07:04 | 50.71773 | 17.50304 | 86° | 33km/h | 19560m | 5.6m/s | -52.8°C | 0% | 0hPa | 0V | 00:00:00 | 00:00:00 | 00:00:00 | |
| OE3OSB-13 | 2026-09-05 17:07:02 | 50.71773 | 17.50264 | 138° | 37km/h | 19549m | 5.0m/s | -53.6°C | -1.0% | -1.0hPa | 0V | 00:00:00 | 00:00:00 | 00:00:00 | |
| SP6BVK | 2026-09-05 17:06:59 | 50.71781 | 17.50240 | 88° | 37km/h | 19543m | 6.5m/s | -52.8°C | 0% | 0hPa | 0V | 00:00:00 | 00:00:00 | 00:00:00 | |
| OE5MMP-10 | 2026-09-05 17:06:58 | 50.71778 | 17.50225 | 70° | 40km/h | 19536m | 3.6m/s | 0°C | 0% | 0hPa | 0V | 00:00:00 | 00:00:00 | 00:00:00 | |
| SP3BTT-10 | 2026-09-05 17:06:57 | 50.71777 | 17.50211 | 135° | 42km/h | 19532m | 4.0m/s | 0°C | 0% | 0hPa | 0V | 00:00:00 | 00:00:00 | 00:00:00 | |
| SQ6EMJ | 2026-09-05 17:06:54 | 50.71787 | 17.50154 | 77° | 40km/h | 19522m | 0.7m/s | -52.7°C | 0% | 0hPa | 0V | 00:00:00 | 00:00:00 | 00:00:00 | |
| POL1PZ | 2026-09-05 17:06:53 | 50.71787 | 17.50154 | 77° | 40km/h | 19522m | 0.7m/s | -52.7°C | 0% | 0hPa | 0V | 00:00:00 | 00:00:00 | 00:00:00 | |
| OE5MMP-10 | 2026-09-05 17:06:48 | 50.71797 | 17.50082 | 113° | 42km/h | 19503m | 4.4m/s | 0°C | 0% | 0hPa | 0V | 00:00:00 | 00:00:00 | 00:00:00 | |
| OM5KV | 2026-09-05 17:06:47 | 50.71798 | 17.50067 | 113° | 38km/h | 19503m | 4.4m/s | -52.6°C | 0% | 0hPa | 0V | 00:00:00 | 00:00:00 | 00:00:00 | |
| SQ6EMJ | 2026-09-05 17:06:42 | 50.71807 | 17.49994 | 114° | 42km/h | 19486m | 5.5m/s | -52.5°C | 0% | 0hPa | 0V | 00:00:00 | 00:00:00 | 00:00:00 | |
| DB0NH | 2026-09-05 17:06:40 | 50.71817 | 17.49956 | 99° | 49km/h | 19476m | 4.7m/s | 0°C | 0% | 0hPa | 0V | 00:00:00 | 00:00:00 | 00:00:00 | |
| PETON7-10 | 2026-09-05 17:06:39 | 50.71816 | 17.49940 | 67° | 44km/h | 19473m | 1.4m/s | 0°C | 0% | 0hPa | 0V | 00:00:00 | 00:00:00 | 00:00:00 | |
| OE5MMP-10 | 2026-09-05 17:06:38 | 50.71815 | 17.49928 | 92° | 42km/h | 19469m | 5.5m/s | 0°C | 0% | 0hPa | 0V | 00:00:00 | 00:00:00 | 00:00:00 | |
| SQ6EMJ | 2026-09-05 17:06:37 | 50.71823 | 17.49893 | 112° | 64km/h | 19466m | 1.4m/s | -52.5°C | 0% | 0hPa | 0V | 00:00:00 | 00:00:00 | 00:00:00 | |
| OM5KV | 2026-09-05 17:06:36 | 50.71823 | 17.49893 | 112° | 64km/h | 19466m | 1.4m/s | -52.5°C | 0% | 0hPa | 0V | 00:00:00 | 00:00:00 | 00:00:00 | |
| POL1PZ | 2026-09-05 17:06:33 | 50.71826 | 17.49849 | 103° | 31km/h | 19457m | 1.8m/s | -52.5°C | 0% | 0hPa | 0V | 00:00:00 | 00:00:00 | 00:00:00 | |
| OM5KV | 2026-09-05 17:06:31 | 50.71833 | 17.49810 | 101° | 64km/h | 19451m | 0.4m/s | -52.5°C | 0% | 0hPa | 0V | 00:00:00 | 00:00:00 | 00:00:00 | |
| OE5MMP-10 | 2026-09-05 17:06:28 | 50.71835 | 17.49762 | 103° | 47km/h | 19433m | 2.4m/s | 0°C | 0% | 0hPa | 0V | 00:00:00 | 00:00:00 | 00:00:00 | |
| SP3BTT-10 | 2026-09-05 17:06:27 | 50.71837 | 17.49743 | 102° | 51km/h | 19438m | 6.1m/s | 0°C | 0% | 0hPa | 0V | 00:00:00 | 00:00:00 | 00:00:00 | |
| SQ6EMJ | 2026-09-05 17:06:26 | 50.71840 | 17.49695 | 91° | 47km/h | 19430m | 4.0m/s | -52.6°C | 0% | 0hPa | 0V | 00:00:00 | 00:00:00 | 00:00:00 | |
| OM5KV | 2026-09-05 17:06:25 | 50.71840 | 17.49695 | 91° | 47km/h | 19430m | 4.0m/s | -52.6°C | 0% | 0hPa | 0V | 00:00:00 | 00:00:00 | 00:00:00 | |
| PETON7-10 | 2026-09-05 17:06:24 | 50.71841 | 17.49680 | 97° | 51km/h | 19425m | 2.9m/s | 0°C | 0% | 0hPa | 0V | 00:00:00 | 00:00:00 | 00:00:00 | |
| OM5KV | 2026-09-05 17:06:19 | 50.71846 | 17.49580 | 101° | 29km/h | 19410m | 2.5m/s | -52.9°C | 0% | 0hPa | 0V | 00:00:00 | 00:00:00 | 00:00:00 | |
| OE5MMP-10 | 2026-09-05 17:06:18 | 50.71847 | 17.49556 | 89° | 51km/h | 19404m | 4.4m/s | 0°C | 0% | 0hPa | 0V | 00:00:00 | 00:00:00 | 00:00:00 | |
| OE5DRO-10 | 2026-09-05 17:06:17 | 50.71848 | 17.49542 | 89° | 53km/h | 19401m | 2.0m/s | 0°C | 0% | 0hPa | 0V | 00:00:00 | 00:00:00 | 00:00:00 | |
| OM5KV | 2026-09-05 17:06:14 | 50.71849 | 17.49480 | 109° | 35km/h | 19394m | 1.5m/s | -53.0°C | 0% | 0hPa | 0V | 00:00:00 | 00:00:00 | 00:00:00 | |
| POL1PZ | 2026-09-05 17:06:12 | 50.71850 | 17.49440 | 82° | 69km/h | 19386m | 3.9m/s | -53.0°C | 0% | 0hPa | 0V | 00:00:00 | 00:00:00 | 00:00:00 | |
| PETON7-10 | 2026-09-05 17:06:09 | 50.71852 | 17.49386 | 92° | 49km/h | 19375m | 4.5m/s | 0°C | 0% | 0hPa | 0V | 00:00:00 | 00:00:00 | 00:00:00 | |
| OM5KV | 2026-09-05 17:06:08 | 50.71854 | 17.49362 | 93° | 55km/h | 19375m | 4.6m/s | -53.1°C | 0% | 0hPa | 0V | 00:00:00 | 00:00:00 | 00:00:00 | |
| OE5MMP-10 | 2026-09-05 17:06:07 | 50.71851 | 17.49333 | 73° | 51km/h | 19367m | 1.9m/s | 0°C | 0% | 0hPa | 0V | 00:00:00 | 00:00:00 | 00:00:00 | |
| SQ6EMJ | 2026-09-05 17:06:04 | 50.71851 | 17.49263 | 93° | 60km/h | 19357m | 3.3m/s | -53.6°C | 0% | 0hPa | 0V | 00:00:00 | 00:00:00 | 00:00:00 | |
| OM5KV | 2026-09-05 17:06:03 | 50.71851 | 17.49263 | 93° | 60km/h | 19357m | 3.3m/s | -53.6°C | 0% | 0hPa | 0V | 00:00:00 | 00:00:00 | 00:00:00 | |
| SQ6EMJ | 2026-09-05 17:05:58 | 50.71843 | 17.49147 | 62° | 55km/h | 19338m | 3.1m/s | -53.9°C | 0% | 0hPa | 0V | 00:00:00 | 00:00:00 | 00:00:00 | |
| OE5MMP-10 | 2026-09-05 17:05:57 | 50.71843 | 17.49147 | 62° | 49km/h | 19335m | 2.7m/s | 0°C | 0% | 0hPa | 0V | 00:00:00 | 00:00:00 | 00:00:00 | |
| SP3BTT-10 | 2026-09-05 17:05:56 | 50.71838 | 17.49129 | 79° | 46km/h | 19331m | 5.6m/s | 0°C | 0% | 0hPa | 0V | 00:00:00 | 00:00:00 | 00:00:00 | |
| PETON7-10 | 2026-09-05 17:05:54 | 50.71843 | 17.49090 | 82° | 47km/h | 19324m | 5.0m/s | 0°C | 0% | 0hPa | 0V | 00:00:00 | 00:00:00 | 00:00:00 | |
| OM5KV | 2026-09-05 17:05:52 | 50.71838 | 17.49041 | 87° | 37km/h | 19317m | 2.9m/s | -53.8°C | 0% | 0hPa | 0V | 00:00:00 | 00:00:00 | 00:00:00 | |
| POL1PZ | 2026-09-05 17:05:51 | 50.71838 | 17.49041 | 87° | 37km/h | 19317m | 2.9m/s | -53.8°C | 0% | 0hPa | 0V | 00:00:00 | 00:00:00 | 00:00:00 | |
| OE5MMP-10 | 2026-09-05 17:05:47 | 50.71836 | 17.48965 | 62° | 46km/h | 19299m | 4.1m/s | 0°C | 0% | 0hPa | 0V | 00:00:00 | 00:00:00 | 00:00:00 | |
| OM5KV | 2026-09-05 17:05:46 | 50.71834 | 17.48950 | 94° | 38km/h | 19299m | 4.2m/s | -53.7°C | 0% | 0hPa | 0V | 00:00:00 | 00:00:00 | 00:00:00 | |
| SQ6EMJ | 2026-09-05 17:05:41 | 50.71834 | 17.48844 | 106° | 57km/h | 19277m | 2.1m/s | -53.6°C | 0% | 0hPa | 0V | 00:00:00 | 00:00:00 | 00:00:00 | |
| OM5KV | 2026-09-05 17:05:40 | 50.71834 | 17.48844 | 106° | 57km/h | 19277m | 2.1m/s | -53.6°C | 0% | 0hPa | 0V | 00:00:00 | 00:00:00 | 00:00:00 | |
| PETON7-10 | 2026-09-05 17:05:39 | 50.71836 | 17.48820 | 60° | 44km/h | 19270m | 5.2m/s | 0°C | 0% | 0hPa | 0V | 00:00:00 | 00:00:00 | 00:00:00 | |
| OE5DRO-10 | 2026-09-05 17:05:38 | 50.71833 | 17.48807 | 60° | 46km/h | 19267m | 2.0m/s | 0°C | 0% | 0hPa | 0V | 00:00:00 | 00:00:00 | 00:00:00 | |
| OE5MMP-10 | 2026-09-05 17:05:37 | 50.71830 | 17.48800 | 97° | 40km/h | 19263m | 5.2m/s | 0°C | 0% | 0hPa | 0V | 00:00:00 | 00:00:00 | 00:00:00 | |
| OM5KV | 2026-09-05 17:05:35 | 50.71831 | 17.48756 | 97° | 64km/h | 19260m | 1.9m/s | -53.5°C | 0% | 0hPa | 0V | 00:00:00 | 00:00:00 | 00:00:00 | |
| SQ9EZE-14 | 2026-09-05 17:05:31 | 50.71827 | 17.48647 | 80° | 44km/h | 19238m | 3.8m/s | -53.3°C | 0% | 0hPa | 0V | 00:00:00 | 00:00:00 | 00:00:00 | |
| SQ6EMJ | 2026-09-05 17:05:30 | 50.71827 | 17.48647 | 80° | 44km/h | 19238m | 3.8m/s | -53.3°C | 0% | 0hPa | 0V | 00:00:00 | 00:00:00 | 00:00:00 | |
| NBG1-10 | 2026-09-05 17:05:29 | 50.71827 | 17.48647 | 80° | 46km/h | 19223m | 2.1m/s | 0°C | 0% | 0hPa | 0V | 00:00:00 | 00:00:00 | 00:00:00 | |
| OE5MMP-10 | 2026-09-05 17:05:27 | 50.71828 | 17.48625 | 108° | 47km/h | 19226m | 5.6m/s | 0°C | 0% | 0hPa | 0V | 00:00:00 | 00:00:00 | 00:00:00 | |
| SP3BTT-10 | 2026-09-05 17:05:26 | 50.71829 | 17.48608 | 95° | 44km/h | 19226m | 5.6m/s | 0°C | 0% | 0hPa | 0V | 00:00:00 | 00:00:00 | 00:00:00 | |
| PETON7-10 | 2026-09-05 17:05:24 | 50.71827 | 17.48560 | 105° | 42km/h | 19216m | 4.9m/s | 0°C | 0% | 0hPa | 0V | 00:00:00 | 00:00:00 | 00:00:00 | |
| OE5DRO-10 | 2026-09-05 17:05:19 | 50.71825 | 17.48479 | 88° | 44km/h | 19193m | 2.2m/s | 0°C | 0% | 0hPa | 0V | 00:00:00 | 00:00:00 | 00:00:00 | |
| OM5KV | 2026-09-05 17:05:18 | 50.71826 | 17.48466 | 118° | 24km/h | 19197m | 5.3m/s | -53.1°C | 0% | 0hPa | 0V | 00:00:00 | 00:00:00 | 00:00:00 | |
| OE5MMP-10 | 2026-09-05 17:05:17 | 50.71828 | 17.48455 | 104° | 46km/h | 19190m | 5.4m/s | 0°C | 0% | 0hPa | 0V | 00:00:00 | 00:00:00 | 00:00:00 | |
| OM5KV | 2026-09-05 17:05:12 | 50.71831 | 17.48374 | 107° | 37km/h | 19175m | 2.2m/s | -52.8°C | 0% | 0hPa | 0V | 00:00:00 | 00:00:00 | 00:00:00 | |
| SQ6EMJ | 2026-09-05 17:05:11 | 50.71828 | 17.48337 | 74° | 53km/h | 19168m | 0.8m/s | -52.8°C | 0% | 0hPa | 0V | 00:00:00 | 00:00:00 | 00:00:00 | |
| POL1PZ | 2026-09-05 17:05:10 | 50.71828 | 17.48337 | 74° | 53km/h | 19168m | 0.8m/s | -52.8°C | 0% | 0hPa | 0V | 00:00:00 | 00:00:00 | 00:00:00 | |
| PETON7-10 | 2026-09-05 17:05:09 | 50.71827 | 17.48319 | 131° | 42km/h | 19160m | 4.7m/s | 0°C | 0% | 0hPa | 0V | 00:00:00 | 00:00:00 | 00:00:00 | |
| OE5MMP-10 | 2026-09-05 17:05:07 | 50.71834 | 17.48287 | 66° | 42km/h | 19153m | 6.2m/s | 0°C | 0% | 0hPa | 0V | 00:00:00 | 00:00:00 | 00:00:00 | |
| SQ6EMJ | 2026-09-05 17:05:05 | 50.71831 | 17.48255 | 67° | 49km/h | 19149m | 1.8m/s | -52.7°C | 0% | 0hPa | 0V | 00:00:00 | 00:00:00 | 00:00:00 | |
| OE5DRO-10 | 2026-09-05 17:05:00 | 50.71837 | 17.48175 | 67° | 42km/h | 19120m | 1.8m/s | 0°C | 0% | 0hPa | 0V | 00:00:00 | 00:00:00 | 00:00:00 | |
| SQ6EMJ | 2026-09-05 17:04:59 | 50.71835 | 17.48162 | 95° | 31km/h | 19128m | 4.0m/s | -52.5°C | 0% | 0hPa | 0V | 00:00:00 | 00:00:00 | 00:00:00 | |
| OE5MMP-10 | 2026-09-05 17:04:57 | 50.71844 | 17.48132 | 111° | 42km/h | 19116m | 6.5m/s | 0°C | 0% | 0hPa | 0V | 00:00:00 | 00:00:00 | 00:00:00 | |
| SP3BTT-10 | 2026-09-05 17:04:56 | 50.71845 | 17.48113 | 66° | 42km/h | 19112m | 2.3m/s | 0°C | 0% | 0hPa | 0V | 00:00:00 | 00:00:00 | 00:00:00 | |
| PETON7-10 | 2026-09-05 17:04:54 | 50.71841 | 17.48088 | 130° | 42km/h | 19105m | 3.8m/s | 0°C | 0% | 0hPa | 0V | 00:00:00 | 00:00:00 | 00:00:00 | |
| POL1PZ | 2026-09-05 17:04:50 | 50.71851 | 17.48025 | 73° | 38km/h | 19094m | 1.9m/s | -52.2°C | 0% | 0hPa | 0V | 00:00:00 | 00:00:00 | 00:00:00 | |
| SQ6EMJ | 2026-09-05 17:04:49 | 50.71855 | 17.47994 | 126° | 51km/h | 19087m | 3.4m/s | -52.2°C | 0% | 0hPa | 0V | 00:00:00 | 00:00:00 | 00:00:00 | |
| OE5MMP-10 | 2026-09-05 17:04:47 | 50.71860 | 17.47977 | 108° | 42km/h | 19080m | 5.5m/s | 0°C | 0% | 0hPa | 0V | 00:00:00 | 00:00:00 | 00:00:00 | |
| OM5KV | 2026-09-05 17:04:44 | 50.71859 | 17.47932 | 112° | 40km/h | 19073m | 5.8m/s | -52.1°C | 0% | 0hPa | 0V | 00:00:00 | 00:00:00 | 00:00:00 | |
| SQ6EMJ | 2026-09-05 17:04:43 | 50.71870 | 17.47899 | 105° | 44km/h | 19066m | 3.7m/s | -52.0°C | 0% | 0hPa | 0V | 00:00:00 | 00:00:00 | 00:00:00 | |
| PETON7-10 | 2026-09-05 17:04:39 | 50.71870 | 17.47857 | 121° | 40km/h | 19049m | 1.7m/s | 0°C | 0% | 0hPa | 0V | 00:00:00 | 00:00:00 | 00:00:00 | |
| OE5MMP-10 | 2026-09-05 17:04:38 | 50.71880 | 17.47820 | 68° | 40km/h | 19042m | 4.7m/s | 0°C | 0% | 0hPa | 0V | 00:00:00 | 00:00:00 | 00:00:00 | |
| OM5KV | 2026-09-05 17:04:37 | 50.71886 | 17.47767 | 121° | 51km/h | 19030m | 2.0m/s | -51.7°C | 0% | 0hPa | 0V | 00:00:00 | 00:00:00 | 00:00:00 | |
| SQ6EMJ | 2026-09-05 17:04:34 | 50.71889 | 17.47738 | 71° | 31km/h | 19022m | 3.7m/s | -51.7°C | 0% | 0hPa | 0V | 00:00:00 | 00:00:00 | 00:00:00 | |
| POL1PZ | 2026-09-05 17:04:32 | 50.71893 | 17.47710 | 123° | 51km/h | 19014m | 5.2m/s | -51.6°C | 0% | 0hPa | 0V | 00:00:00 | 00:00:00 | 00:00:00 | |
| OM5KV | 2026-09-05 17:04:31 | 50.71902 | 17.47677 | 95° | 37km/h | 19006m | 5.2m/s | -51.6°C | 0% | 0hPa | 0V | 00:00:00 | 00:00:00 | 00:00:00 | |
| SQ6EMJ | 2026-09-05 17:04:28 | 50.71901 | 17.47664 | 78° | 29km/h | 19003m | 2.4m/s | -51.5°C | 0% | 0hPa | 0V | 00:00:00 | 00:00:00 | 00:00:00 | |
| SP3BTT-10 | 2026-09-05 17:04:27 | 50.71901 | 17.47664 | 78° | 37km/h | 19003m | 2.4m/s | 0°C | 0% | 0hPa | 0V | 00:00:00 | 00:00:00 | 00:00:00 | |
| PETON7-10 | 2026-09-05 17:04:24 | 50.71907 | 17.47636 | 117° | 40km/h | 18991m | 3.1m/s | 0°C | 0% | 0hPa | 0V | 00:00:00 | 00:00:00 | 00:00:00 | |
| SQ6EMJ | 2026-09-05 17:04:21 | 50.71916 | 17.47580 | 116° | 35km/h | 18980m | 5.2m/s | -51.4°C | 0% | 0hPa | 0V | 00:00:00 | 00:00:00 | 00:00:00 | |
| OE5DRO-10 | 2026-09-05 17:04:20 | 50.71916 | 17.47580 | 116° | 38km/h | 18971m | 2.2m/s | 0°C | 0% | 0hPa | 0V | 00:00:00 | 00:00:00 | 00:00:00 | |
| DH8WE-5 | 2026-09-05 17:04:18 | 50.71932 | 17.47539 | 92° | 42km/h | 18968m | 4.8m/s | -51.3°C | 0% | 0hPa | 0V | 00:00:00 | 00:00:00 | 00:00:00 | |
| SQ6EMJ | 2026-09-05 17:04:17 | 50.71932 | 17.47508 | 113° | 38km/h | 18962m | 5.2m/s | -51.2°C | 0% | 0hPa | 0V | 00:00:00 | 00:00:00 | 00:00:00 | |
| SP6BVK | 2026-09-05 17:04:15 | 50.71938 | 17.47496 | 145° | 42km/h | 18957m | 4.7m/s | -51.2°C | 0% | 0hPa | 0V | 00:00:00 | 00:00:00 | 00:00:00 | |
| OM5KV | 2026-09-05 17:04:14 | 50.71938 | 17.47496 | 145° | 42km/h | 18957m | 4.7m/s | -51.2°C | 0% | 0hPa | 0V | 00:00:00 | 00:00:00 | 00:00:00 | |
| SQ6EMJ | 2026-09-05 17:04:10 | 50.71955 | 17.47428 | 145° | 42km/h | 18937m | 3.5m/s | -51.1°C | 0% | 0hPa | 0V | 00:00:00 | 00:00:00 | 00:00:00 | |
| OM5KV | 2026-09-05 17:04:09 | 50.71963 | 17.47417 | 125° | 37km/h | 18934m | 3.0m/s | -51.0°C | 0% | 0hPa | 0V | 00:00:00 | 00:00:00 | 00:00:00 | |
| OE5MMP-10 | 2026-09-05 17:04:07 | 50.71965 | 17.47403 | 88° | 37km/h | 18925m | 2.1m/s | 0°C | 0% | 0hPa | 0V | 00:00:00 | 00:00:00 | 00:00:00 | |
| SQ6EMJ | 2026-09-05 17:04:04 | 50.71981 | 17.47352 | 121° | 37km/h | 18913m | 3.5m/s | -50.9°C | 0% | 0hPa | 0V | 00:00:00 | 00:00:00 | 00:00:00 | |
| OM5KV | 2026-09-05 17:04:01 | 50.71982 | 17.47327 | 94° | 29km/h | 18906m | 2.3m/s | -50.9°C | 0% | 0hPa | 0V | 00:00:00 | 00:00:00 | 00:00:00 | |
| OE5DRO-10 | 2026-09-05 17:04:00 | 50.71985 | 17.47314 | 115° | 31km/h | 18894m | 4.3m/s | 0°C | 0% | 0hPa | 0V | 00:00:00 | 00:00:00 | 00:00:00 | |
| SQ6EMJ | 2026-09-05 17:03:58 | 50.71999 | 17.47291 | 115° | 35km/h | 18894m | 4.3m/s | -50.8°C | 0% | 0hPa | 0V | 00:00:00 | 00:00:00 | 00:00:00 | |
| OE5MMP-10 | 2026-09-05 17:03:57 | 50.72001 | 17.47279 | 79° | 35km/h | 18886m | 3.1m/s | 0°C | 0% | 0hPa | 0V | 00:00:00 | 00:00:00 | 00:00:00 | |
| SP3BTT-10 | 2026-09-05 17:03:56 | 50.72001 | 17.47272 | 137° | 38km/h | 18882m | 6.2m/s | 0°C | 0% | 0hPa | 0V | 00:00:00 | 00:00:00 | 00:00:00 | |
| OM5KV | 2026-09-05 17:03:55 | 50.72005 | 17.47259 | 138° | 42km/h | 18882m | 6.3m/s | -50.8°C | 0% | 0hPa | 0V | 00:00:00 | 00:00:00 | 00:00:00 | |
| PETON7-10 | 2026-09-05 17:03:54 | 50.72013 | 17.47243 | 109° | 37km/h | 18874m | 5.2m/s | 0°C | 0% | 0hPa | 0V | 00:00:00 | 00:00:00 | 00:00:00 | |
| OM5KV | 2026-09-05 17:03:49 | 50.72032 | 17.47183 | 124° | 49km/h | 18858m | 1.6m/s | -50.7°C | 0% | 0hPa | 0V | 00:00:00 | 00:00:00 | 00:00:00 | |
| POL1PZ | 2026-09-05 17:03:48 | 50.72036 | 17.47169 | 106° | 31km/h | 18854m | 6.3m/s | -50.7°C | 0% | 0hPa | 0V | 00:00:00 | 00:00:00 | 00:00:00 | |
| OE5MMP-10 | 2026-09-05 17:03:47 | 50.72037 | 17.47164 | 115° | 37km/h | 18847m | 3.2m/s | 0°C | 0% | 0hPa | 0V | 00:00:00 | 00:00:00 | 00:00:00 | |
| SQ6EMJ | 2026-09-05 17:03:46 | 50.72038 | 17.47150 | 116° | 31km/h | 18847m | 3.3m/s | -50.6°C | 0% | 0hPa | 0V | 00:00:00 | 00:00:00 | 00:00:00 | |
| OM5KV | 2026-09-05 17:03:43 | 50.72055 | 17.47103 | 104° | 33km/h | 18834m | 5.2m/s | -50.5°C | 0% | 0hPa | 0V | 00:00:00 | 00:00:00 | 00:00:00 | |
| OE5DRO-10 | 2026-09-05 17:03:41 | 50.72057 | 17.47086 | 121° | 40km/h | 18823m | 5.1m/s | 0°C | 0% | 0hPa | 0V | 00:00:00 | 00:00:00 | 00:00:00 | |
| PETON7-10 | 2026-09-05 17:03:39 | 50.72068 | 17.47049 | 116° | 40km/h | 18815m | 5.3m/s | 0°C | 0% | 0hPa | 0V | 00:00:00 | 00:00:00 | 00:00:00 | |
| OE5MMP-10 | 2026-09-05 17:03:37 | 50.72073 | 17.47027 | 116° | 38km/h | 18809m | 5.0m/s | 0°C | 0% | 0hPa | 0V | 00:00:00 | 00:00:00 | 00:00:00 | |
| SQ6EMJ | 2026-09-05 17:03:35 | 50.72082 | 17.46999 | 117° | 60km/h | 18804m | 4.1m/s | -50.5°C | 0% | 0hPa | 0V | 00:00:00 | 00:00:00 | 00:00:00 | |
| SP6BVK | 2026-09-05 17:03:33 | 50.72090 | 17.46966 | 107° | 24km/h | 18796m | 5.4m/s | -50.5°C | 0% | 0hPa | 0V | 00:00:00 | 00:00:00 | 00:00:00 | |
| OM5KV | 2026-09-05 17:03:32 | 50.72098 | 17.46945 | 119° | 46km/h | 18788m | 5.5m/s | -50.5°C | 0% | 0hPa | 0V | 00:00:00 | 00:00:00 | 00:00:00 | |
| SQ6EMJ | 2026-09-05 17:03:30 | 50.72102 | 17.46925 | 106° | 60km/h | 18784m | 3.0m/s | -50.5°C | 0% | 0hPa | 0V | 00:00:00 | 00:00:00 | 00:00:00 | |
| POL1PZ | 2026-09-05 17:03:28 | 50.72109 | 17.46894 | 133° | 22km/h | 18776m | 5.0m/s | -50.5°C | 0% | 0hPa | 0V | 00:00:00 | 00:00:00 | 00:00:00 | |
| OE5MMP-10 | 2026-09-05 17:03:27 | 50.72114 | 17.46886 | 133° | 46km/h | 18768m | 6.1m/s | 0°C | 0% | 0hPa | 0V | 00:00:00 | 00:00:00 | 00:00:00 | |
| SQ6EMJ | 2026-09-05 17:03:25 | 50.72126 | 17.46831 | 111° | 38km/h | 18760m | 4.6m/s | -50.5°C | 0% | 0hPa | 0V | 00:00:00 | 00:00:00 | 00:00:00 | |
| PETON7-10 | 2026-09-05 17:03:24 | 50.72126 | 17.46831 | 111° | 46km/h | 18756m | 4.4m/s | 0°C | 0% | 0hPa | 0V | 00:00:00 | 00:00:00 | 00:00:00 | |
| OE5DRO-10 | 2026-09-05 17:03:22 | 50.72136 | 17.46810 | 131° | 49km/h | 18708m | 6.3m/s | 0°C | 0% | 0hPa | 0V | 00:00:00 | 00:00:00 | 00:00:00 | |
| OM5KV | 2026-09-05 17:03:20 | 50.72145 | 17.46773 | 98° | 51km/h | 18744m | 1.9m/s | -50.3°C | 0% | 0hPa | 0V | 00:00:00 | 00:00:00 | 00:00:00 | |
| SQ6EMJ | 2026-09-05 17:03:19 | 50.72155 | 17.46746 | 150° | 42km/h | 18736m | 3.0m/s | -50.2°C | 0% | 0hPa | 0V | 00:00:00 | 00:00:00 | 00:00:00 | |
| OE5MMP-10 | 2026-09-05 17:03:17 | 50.72163 | 17.46736 | 100° | 49km/h | 18729m | 5.7m/s | 0°C | 0% | 0hPa | 0V | 00:00:00 | 00:00:00 | 00:00:00 | |
| OM5KV | 2026-09-05 17:03:15 | 50.72169 | 17.46695 | 99° | 47km/h | 18725m | 1.5m/s | -50.2°C | 0% | 0hPa | 0V | 00:00:00 | 00:00:00 | 00:00:00 | |
| SP6BVK | 2026-09-05 17:03:13 | 50.72181 | 17.46667 | 150° | 49km/h | 18717m | 3.2m/s | -50.2°C | 0% | 0hPa | 0V | 00:00:00 | 00:00:00 | 00:00:00 | |
| OM5KV | 2026-09-05 17:03:10 | 50.72199 | 17.46601 | 127° | 46km/h | 18700m | 5.2m/s | -50.1°C | 0% | 0hPa | 0V | 00:00:00 | 00:00:00 | 00:00:00 | |
| PETON7-10 | 2026-09-05 17:03:09 | 50.72200 | 17.46601 | 127° | 49km/h | 18697m | 2.2m/s | 0°C | 0% | 0hPa | 0V | 00:00:00 | 00:00:00 | 00:00:00 | |
| SQ6EMJ | 2026-09-05 17:03:08 | 50.72218 | 17.46571 | 123° | 53km/h | 18694m | 4.0m/s | -50.2°C | 0% | 0hPa | 0V | 00:00:00 | 00:00:00 | 00:00:00 | |
| OE5MMP-10 | 2026-09-05 17:03:07 | 50.72218 | 17.46571 | 122° | 53km/h | 18689m | 5.5m/s | 0°C | 0% | 0hPa | 0V | 00:00:00 | 00:00:00 | 00:00:00 | |
| DH8WE-5 | 2026-09-05 17:03:06 | 50.72223 | 17.46532 | 104° | 44km/h | 18685m | 1.6m/s | -50.2°C | 0% | 0hPa | 0V | 00:00:00 | 00:00:00 | 00:00:00 | |
| SQ6EMJ | 2026-09-05 17:03:03 | 50.72248 | 17.46484 | 122° | 51km/h | 18674m | 3.8m/s | -50.2°C | 0% | 0hPa | 0V | 00:00:00 | 00:00:00 | 00:00:00 | |
| OE5DRO-10 | 2026-09-05 17:02:58 | 50.72271 | 17.46415 | 116° | 49km/h | 18654m | 3.5m/s | 0°C | 0% | 0hPa | 0V | 00:00:00 | 00:00:00 | 00:00:00 | |
| SQ6EMJ | 2026-09-05 17:02:57 | 50.72282 | 17.46377 | 93° | 44km/h | 18650m | 4.3m/s | -50.3°C | 0% | 0hPa | 0V | 00:00:00 | 00:00:00 | 00:00:00 | |
| PETON7-10 | 2026-09-05 17:02:54 | 50.72292 | 17.46345 | 134° | 53km/h | 18637m | 1.6m/s | 0°C | 0% | 0hPa | 0V | 00:00:00 | 00:00:00 | 00:00:00 | |
| SQ6EMJ | 2026-09-05 17:02:51 | 50.72316 | 17.46268 | 113° | 46km/h | 18625m | 3.0m/s | -50.4°C | 0% | 0hPa | 0V | 00:00:00 | 00:00:00 | 00:00:00 | |
| OE5MMP-10 | 2026-09-05 17:02:47 | 50.72339 | 17.46206 | 95° | 47km/h | 18609m | 3.2m/s | 0°C | 0% | 0hPa | 0V | 00:00:00 | 00:00:00 | 00:00:00 | |
| OM5KV | 2026-09-05 17:02:46 | 50.72342 | 17.46189 | 96° | 38km/h | 18609m | 3.2m/s | -50.3°C | 0% | 0hPa | 0V | 00:00:00 | 00:00:00 | 00:00:00 | |
| SQ6EMJ | 2026-09-05 17:02:45 | 50.72345 | 17.46173 | 116° | 47km/h | 18605m | 3.8m/s | -50.3°C | 0% | 0hPa | 0V | 00:00:00 | 00:00:00 | 00:00:00 | |
| SP3BTT-10 | 2026-09-05 17:02:42 | 50.72368 | 17.46111 | 107° | 57km/h | 18589m | 2.5m/s | 0°C | 0% | 0hPa | 0V | 00:00:00 | 00:00:00 | 00:00:00 | |
| PETON7-10 | 2026-09-05 17:02:39 | 50.72380 | 17.46059 | 126° | 49km/h | 18577m | 2.7m/s | 0°C | 0% | 0hPa | 0V | 00:00:00 | 00:00:00 | 00:00:00 | |
| OE5MMP-10 | 2026-09-05 17:02:37 | 50.72395 | 17.46019 | 107° | 47km/h | 18569m | 2.5m/s | 0°C | 0% | 0hPa | 0V | 00:00:00 | 00:00:00 | 00:00:00 | |
| OM5KV | 2026-09-05 17:02:34 | 50.72409 | 17.45968 | 127° | 68km/h | 18561m | 2.4m/s | -50.1°C | 0% | 0hPa | 0V | 00:00:00 | 00:00:00 | 00:00:00 | |
| SP6BVK | 2026-09-05 17:02:32 | 50.72421 | 17.45931 | 100° | 35km/h | 18554m | 6.2m/s | -50.2°C | 0% | 0hPa | 0V | 00:00:00 | 00:00:00 | 00:00:00 | |
| OE5DRO-10 | 2026-09-05 17:02:30 | 50.72431 | 17.45902 | 124° | 58km/h | 18546m | 5.1m/s | 0°C | 0% | 0hPa | 0V | 00:00:00 | 00:00:00 | 00:00:00 | |
| OM5KV | 2026-09-05 17:02:29 | 50.72446 | 17.45866 | 123° | 47km/h | 18539m | 3.8m/s | -50.5°C | 0% | 0hPa | 0V | 00:00:00 | 00:00:00 | 00:00:00 | |
| OE5MMP-10 | 2026-09-05 17:02:27 | 50.72449 | 17.45852 | 99° | 46km/h | 18531m | 2.4m/s | 0°C | 0% | 0hPa | 0V | 00:00:00 | 00:00:00 | 00:00:00 | |
| POL1PZ | 2026-09-05 17:02:26 | 50.72451 | 17.45838 | 107° | 38km/h | 18531m | 2.5m/s | -50.5°C | 0% | 0hPa | 0V | 00:00:00 | 00:00:00 | 00:00:00 | |
| PETON7-10 | 2026-09-05 17:02:24 | 50.72466 | 17.45803 | 129° | 53km/h | 18521m | 4.9m/s | 0°C | 0% | 0hPa | 0V | 00:00:00 | 00:00:00 | 00:00:00 | |
| SQ6EMJ | 2026-09-05 17:02:23 | 50.72477 | 17.45771 | 92° | 33km/h | 18517m | 3.7m/s | -50.7°C | 0% | 0hPa | 0V | 00:00:00 | 00:00:00 | 00:00:00 | |
| OM5KV | 2026-09-05 17:02:22 | 50.72477 | 17.45771 | 92° | 33km/h | 18517m | 3.7m/s | -50.7°C | 0% | 0hPa | 0V | 00:00:00 | 00:00:00 | 00:00:00 | |
| SQ6EMJ | 2026-09-05 17:02:18 | 50.72503 | 17.45680 | 94° | 35km/h | 18497m | 2.0m/s | -50.7°C | 0% | 0hPa | 0V | 00:00:00 | 00:00:00 | 00:00:00 | |
| OE5MMP-10 | 2026-09-05 17:02:17 | 50.72503 | 17.45686 | 112° | 55km/h | 18495m | 3.4m/s | 0°C | 0% | 0hPa | 0V | 00:00:00 | 00:00:00 | 00:00:00 | |
| OM5KV | 2026-09-05 17:02:16 | 50.72506 | 17.45664 | 112° | 49km/h | 18495m | 3.4m/s | -50.7°C | 0% | 0hPa | 0V | 00:00:00 | 00:00:00 | 00:00:00 | |
| SQ6EMJ | 2026-09-05 17:02:12 | 50.72533 | 17.45564 | 112° | 57km/h | 18476m | 3.9m/s | -51.0°C | 0% | 0hPa | 0V | 00:00:00 | 00:00:00 | 00:00:00 | |
| SP6BVK | 2026-09-05 17:02:11 | 50.72533 | 17.45564 | 112° | 57km/h | 18476m | 3.9m/s | -51.0°C | 0% | 0hPa | 0V | 00:00:00 | 00:00:00 | 00:00:00 | |
| DH8WE-5 | 2026-09-05 17:02:09 | 50.72552 | 17.45491 | 108° | 47km/h | 18464m | 5.4m/s | -51.1°C | 0% | 0hPa | 0V | 00:00:00 | 00:00:00 | 00:00:00 | |
| SQ6EMJ | 2026-09-05 17:02:07 | 50.72559 | 17.45457 | 111° | 60km/h | 18458m | 4.2m/s | -51.2°C | 0% | 0hPa | 0V | 00:00:00 | 00:00:00 | 00:00:00 | |
| POL1PZ | 2026-09-05 17:02:06 | 50.72559 | 17.45457 | 111° | 60km/h | 18458m | 4.2m/s | -51.2°C | 0% | 0hPa | 0V | 00:00:00 | 00:00:00 | 00:00:00 | |
| OM5KV | 2026-09-05 17:02:04 | 50.72570 | 17.45402 | 108° | 68km/h | 18450m | 3.2m/s | -51.4°C | 0% | 0hPa | 0V | 00:00:00 | 00:00:00 | 00:00:00 | |
| OE5DRO-10 | 2026-09-05 17:02:03 | 50.72575 | 17.45380 | 112° | 62km/h | 18443m | 1.6m/s | 0°C | 0% | 0hPa | 0V | 00:00:00 | 00:00:00 | 00:00:00 | |
| SQ6EMJ | 2026-09-05 17:02:01 | 50.72590 | 17.45309 | 102° | 86km/h | 18436m | 2.8m/s | -51.7°C | 0% | 0hPa | 0V | 00:00:00 | 00:00:00 | 00:00:00 | |
| SP3BTT-10 | 2026-09-05 17:01:58 | 50.72597 | 17.45257 | 107° | 60km/h | 18425m | 2.1m/s | 0°C | 0% | 0hPa | 0V | 00:00:00 | 00:00:00 | 00:00:00 | |
| OE5MMP-10 | 2026-09-05 17:01:57 | 50.72601 | 17.45245 | 105° | 68km/h | 18421m | 5.5m/s | 0°C | 0% | 0hPa | 0V | 00:00:00 | 00:00:00 | 00:00:00 | |
| PETON7-10 | 2026-09-05 17:01:54 | 50.72613 | 17.45153 | 100° | 68km/h | 18410m | 4.7m/s | 0°C | 0% | 0hPa | 0V | 00:00:00 | 00:00:00 | 00:00:00 | |
| OM5KV | 2026-09-05 17:01:53 | 50.72616 | 17.45132 | 109° | 44km/h | 18410m | 4.8m/s | -52.1°C | 0% | 0hPa | 0V | 00:00:00 | 00:00:00 | 00:00:00 | |
| SP6BVK | 2026-09-05 17:01:51 | 50.72625 | 17.45086 | 106° | 82km/h | 18403m | 5.4m/s | -52.2°C | 0% | 0hPa | 0V | 00:00:00 | 00:00:00 | 00:00:00 | |
| SQ6EMJ | 2026-09-05 17:01:49 | 50.72634 | 17.45021 | 101° | 69km/h | 18397m | 3.8m/s | -52.3°C | 0% | 0hPa | 0V | 00:00:00 | 00:00:00 | 00:00:00 | |
| OE5MMP-10 | 2026-09-05 17:01:47 | 50.72639 | 17.44985 | 102° | 66km/h | 18384m | 5.5m/s | 0°C | 0% | 0hPa | 0V | 00:00:00 | 00:00:00 | 00:00:00 | |
| POL1PZ | 2026-09-05 17:01:46 | 50.72647 | 17.44922 | 101° | 86km/h | 18381m | 2.2m/s | -52.4°C | 0% | 0hPa | 0V | 00:00:00 | 00:00:00 | 00:00:00 | |
| SQ6EMJ | 2026-09-05 17:01:44 | 50.72653 | 17.44871 | 104° | 46km/h | 18373m | 3.8m/s | -52.5°C | 0% | 0hPa | 0V | 00:00:00 | 00:00:00 | 00:00:00 | |
| OM5KV | 2026-09-05 17:01:41 | 50.72658 | 17.44824 | 98° | 78km/h | 18366m | 5.3m/s | -52.7°C | 0% | 0hPa | 0V | 00:00:00 | 00:00:00 | 00:00:00 | |
| PETON7-10 | 2026-09-05 17:01:39 | 50.72663 | 17.44766 | 100° | 64km/h | 18354m | 2.5m/s | 0°C | 0% | 0hPa | 0V | 00:00:00 | 00:00:00 | 00:00:00 | |
| SQ6EMJ | 2026-09-05 17:01:38 | 50.72666 | 17.44746 | 104° | 44km/h | 18354m | 2.5m/s | -52.7°C | 0% | 0hPa | 0V | 00:00:00 | 00:00:00 | 00:00:00 | |
| OE5MMP-10 | 2026-09-05 17:01:37 | 50.72669 | 17.44726 | 101° | 64km/h | 18343m | 2.1m/s | 0°C | 0% | 0hPa | 0V | 00:00:00 | 00:00:00 | 00:00:00 | |
| OM5KV | 2026-09-05 17:01:36 | 50.72671 | 17.44697 | 97° | 84km/h | 18347m | 4.8m/s | -52.6°C | 0% | 0hPa | 0V | 00:00:00 | 00:00:00 | 00:00:00 | |
| SQ6EMJ | 2026-09-05 17:01:33 | 50.72681 | 17.44601 | 101° | 62km/h | 18333m | 3.6m/s | -52.6°C | 0% | 0hPa | 0V | 00:00:00 | 00:00:00 | 00:00:00 | |
| SP6BVK | 2026-09-05 17:01:31 | 50.72684 | 17.44542 | 95° | 69km/h | 18326m | 2.1m/s | -52.5°C | 0% | 0hPa | 0V | 00:00:00 | 00:00:00 | 00:00:00 | |
| OM5KV | 2026-09-05 17:01:30 | 50.72684 | 17.44542 | 95° | 69km/h | 18326m | 2.1m/s | -52.5°C | 0% | 0hPa | 0V | 00:00:00 | 00:00:00 | 00:00:00 | |
| OE5DRO-10 | 2026-09-05 17:01:28 | 50.72690 | 17.44500 | 112° | 58km/h | 18297m | 4.4m/s | 0°C | 0% | 0hPa | 0V | 00:00:00 | 00:00:00 | 00:00:00 | |
| SQ6EMJ | 2026-09-05 17:01:26 | 50.72694 | 17.44449 | 88° | 80km/h | 18311m | 3.3m/s | -52.5°C | 0% | 0hPa | 0V | 00:00:00 | 00:00:00 | 00:00:00 | |
| OE5MMP-10 | 2026-09-05 17:01:25 | 50.72694 | 17.44419 | 108° | 60km/h | 18304m | 5.8m/s | 0°C | 0% | 0hPa | 0V | 00:00:00 | 00:00:00 | 00:00:00 | |
| PETON7-10 | 2026-09-05 17:01:24 | 50.72696 | 17.44399 | 108° | 58km/h | 18300m | 1.7m/s | 0°C | 0% | 0hPa | 0V | 00:00:00 | 00:00:00 | 00:00:00 | |
| SQ6EMJ | 2026-09-05 17:01:21 | 50.72703 | 17.44331 | 86° | 77km/h | 18293m | 2.6m/s | -52.6°C | 0% | 0hPa | 0V | 00:00:00 | 00:00:00 | 00:00:00 | |
| OM5KV | 2026-09-05 17:01:17 | 50.72710 | 17.44243 | 93° | 66km/h | 18279m | 5.2m/s | -52.6°C | 0% | 0hPa | 0V | 00:00:00 | 00:00:00 | 00:00:00 | |
| SQ6EMJ | 2026-09-05 17:01:16 | 50.72708 | 17.44191 | 95° | 57km/h | 18272m | 3.5m/s | -52.5°C | 0% | 0hPa | 0V | 00:00:00 | 00:00:00 | 00:00:00 | |
| OE5MMP-10 | 2026-09-05 17:01:15 | 50.72708 | 17.44191 | 94° | 58km/h | 18262m | 4.7m/s | 0°C | 0% | 0hPa | 0V | 00:00:00 | 00:00:00 | 00:00:00 | |
| SP3BTT-10 | 2026-09-05 17:01:14 | 50.72711 | 17.44174 | 107° | 55km/h | 18265m | 2.5m/s | 0°C | 0% | 0hPa | 0V | 00:00:00 | 00:00:00 | 00:00:00 | |
| SQ6EMJ | 2026-09-05 17:01:11 | 50.72715 | 17.44080 | 97° | 51km/h | 18256m | 4.8m/s | -52.5°C | 0% | 0hPa | 0V | 00:00:00 | 00:00:00 | 00:00:00 | |
| SP6BVK | 2026-09-05 17:01:10 | 50.72715 | 17.44080 | 97° | 51km/h | 18256m | 4.8m/s | -52.5°C | 0% | 0hPa | 0V | 00:00:00 | 00:00:00 | 00:00:00 | |
| PETON7-10 | 2026-09-05 17:01:09 | 50.72719 | 17.44060 | 119° | 55km/h | 18248m | 2.6m/s | 0°C | 0% | 0hPa | 0V | 00:00:00 | 00:00:00 | 00:00:00 | |
| OE5DRO-10 | 2026-09-05 17:01:07 | 50.72725 | 17.44017 | 81° | 51km/h | 18221m | 5.1m/s | 0°C | 0% | 0hPa | 0V | 00:00:00 | 00:00:00 | 00:00:00 | |
| OM5KV | 2026-09-05 17:01:06 | 50.72722 | 17.43995 | 79° | 51km/h | 18241m | 2.0m/s | -52.5°C | 0% | 0hPa | 0V | 00:00:00 | 00:00:00 | 00:00:00 | |
| SQ6EMJ | 2026-09-05 17:01:05 | 50.72727 | 17.43956 | 117° | 60km/h | 18235m | 1.9m/s | -52.4°C | 0% | 0hPa | 0V | 00:00:00 | 00:00:00 | 00:00:00 | |
| POL1PZ | 2026-09-05 17:01:04 | 50.72727 | 17.43956 | 117° | 60km/h | 18235m | 1.9m/s | -52.4°C | 0% | 0hPa | 0V | 00:00:00 | 00:00:00 | 00:00:00 | |
| EDDB2-12 | 2026-09-05 17:01:02 | 50.72728 | 17.43892 | 83° | 44km/h | 18225m | 2.0m/s | -53.1°C | -1.0% | -1.0hPa | 0V | 00:00:00 | 00:00:00 | 00:00:00 | |
| SQ6EMJ | 2026-09-05 17:00:59 | 50.72737 | 17.43825 | 92° | 58km/h | 18215m | 4.3m/s | -52.3°C | 0% | 0hPa | 0V | 00:00:00 | 00:00:00 | 00:00:00 | |
| OM5KV | 2026-09-05 17:00:58 | 50.72737 | 17.43825 | 92° | 58km/h | 18215m | 4.3m/s | -52.3°C | 0% | 0hPa | 0V | 00:00:00 | 00:00:00 | 00:00:00 | |
| SQ6EMJ | 2026-09-05 17:00:54 | 50.72743 | 17.43723 | 89° | 51km/h | 18199m | 5.2m/s | -52.2°C | 0% | 0hPa | 0V | 00:00:00 | 00:00:00 | 00:00:00 | |
| DH8WE-5 | 2026-09-05 17:00:53 | 50.72743 | 17.43723 | 89° | 51km/h | 18199m | 5.2m/s | -52.2°C | 0% | 0hPa | 0V | 00:00:00 | 00:00:00 | 00:00:00 | |
| SP6BVK | 2026-09-05 17:00:49 | 50.72749 | 17.43644 | 99° | 62km/h | 18185m | 2.5m/s | -52.1°C | 0% | 0hPa | 0V | 00:00:00 | 00:00:00 | 00:00:00 | |
| SQ6EMJ | 2026-09-05 17:00:48 | 50.72749 | 17.43607 | 87° | 35km/h | 18178m | 1.9m/s | -52.1°C | 0% | 0hPa | 0V | 00:00:00 | 00:00:00 | 00:00:00 | |
| OM5KV | 2026-09-05 17:00:47 | 50.72749 | 17.43607 | 87° | 35km/h | 18178m | 1.9m/s | -52.1°C | 0% | 0hPa | 0V | 00:00:00 | 00:00:00 | 00:00:00 | |
| OE5DRO-10 | 2026-09-05 17:00:46 | 50.72750 | 17.43580 | 98° | 47km/h | 18169m | 2.9m/s | 0°C | 0% | 0hPa | 0V | 00:00:00 | 00:00:00 | 00:00:00 | |
| SP3BTT-10 | 2026-09-05 17:00:44 | 50.72757 | 17.43542 | 83° | 42km/h | 18165m | 4.9m/s | 0°C | 0% | 0hPa | 0V | 00:00:00 | 00:00:00 | 00:00:00 | |
| SQ6EMJ | 2026-09-05 17:00:43 | 50.72757 | 17.43514 | 91° | 37km/h | 18161m | 2.2m/s | -52.0°C | 0% | 0hPa | 0V | 00:00:00 | 00:00:00 | 00:00:00 | |
| OM5KV | 2026-09-05 17:00:42 | 50.72757 | 17.43514 | 91° | 37km/h | 18161m | 2.2m/s | -52.0°C | 0% | 0hPa | 0V | 00:00:00 | 00:00:00 | 00:00:00 | |
| PETON7-10 | 2026-09-05 17:00:39 | 50.72764 | 17.43449 | 95° | 46km/h | 18147m | 4.0m/s | 0°C | 0% | 0hPa | 0V | 00:00:00 | 00:00:00 | 00:00:00 | |
| SQ6EMJ | 2026-09-05 17:00:37 | 50.72765 | 17.43403 | 104° | 58km/h | 18141m | 5.1m/s | -51.8°C | 0% | 0hPa | 0V | 00:00:00 | 00:00:00 | 00:00:00 | |
| OM5KV | 2026-09-05 17:00:36 | 50.72765 | 17.43403 | 104° | 58km/h | 18141m | 5.1m/s | -51.8°C | 0% | 0hPa | 0V | 00:00:00 | 00:00:00 | 00:00:00 | |
| SQ9EZE-14 | 2026-09-05 17:00:34 | 50.72770 | 17.43359 | 92° | 44km/h | 18134m | 4.7m/s | -51.8°C | 0% | 0hPa | 0V | 00:00:00 | 00:00:00 | 00:00:00 | |
| OM5KV | 2026-09-05 17:00:30 | 50.72775 | 17.43287 | 98° | 58km/h | 18118m | 2.0m/s | -51.8°C | 0% | 0hPa | 0V | 00:00:00 | 00:00:00 | 00:00:00 | |
| SP6BVK | 2026-09-05 17:00:29 | 50.72775 | 17.43267 | 90° | 40km/h | 18115m | 4.8m/s | -51.8°C | 0% | 0hPa | 0V | 00:00:00 | 00:00:00 | 00:00:00 | |
| OE5DRO-10 | 2026-09-05 17:00:27 | 50.72775 | 17.43227 | 96° | 44km/h | 18105m | 3.6m/s | 0°C | 0% | 0hPa | 0V | 00:00:00 | 00:00:00 | 00:00:00 | |
| OM5KV | 2026-09-05 17:00:25 | 50.72779 | 17.43196 | 96° | 53km/h | 18102m | 2.4m/s | -52.0°C | 0% | 0hPa | 0V | 00:00:00 | 00:00:00 | 00:00:00 | |
| PETON7-10 | 2026-09-05 17:00:24 | 50.72780 | 17.43179 | 89° | 42km/h | 18093m | 1.9m/s | 0°C | 0% | 0hPa | 0V | 00:00:00 | 00:00:00 | 00:00:00 | |
| POL1PZ | 2026-09-05 17:00:23 | 50.72780 | 17.43168 | 96° | 24km/h | 18093m | 1.9m/s | -52.1°C | 0% | 0hPa | 0V | 00:00:00 | 00:00:00 | 00:00:00 | |
| SQ6EMJ | 2026-09-05 17:00:20 | 50.72785 | 17.43096 | 86° | 27km/h | 18080m | 5.7m/s | -52.1°C | 0% | 0hPa | 0V | 00:00:00 | 00:00:00 | 00:00:00 | |
| OM5KV | 2026-09-05 17:00:19 | 50.72785 | 17.43096 | 86° | 27km/h | 18080m | 5.7m/s | -52.1°C | 0% | 0hPa | 0V | 00:00:00 | 00:00:00 | 00:00:00 | |
| SQ6EMJ | 2026-09-05 17:00:15 | 50.72788 | 17.43014 | 83° | 24km/h | 18063m | 4.9m/s | -52.3°C | 0% | 0hPa | 0V | 00:00:00 | 00:00:00 | 00:00:00 | |
| OM5KV | 2026-09-05 17:00:13 | 50.72788 | 17.43002 | 85° | 31km/h | 18059m | 2.2m/s | -52.3°C | 0% | 0hPa | 0V | 00:00:00 | 00:00:00 | 00:00:00 | |
| SP6BVK | 2026-09-05 17:00:09 | 50.72789 | 17.42919 | 85° | 38km/h | 18044m | 3.0m/s | -52.5°C | 0% | 0hPa | 0V | 00:00:00 | 00:00:00 | 00:00:00 | |
| OM5KV | 2026-09-05 17:00:07 | 50.72791 | 17.42878 | 96° | 53km/h | 18036m | 2.1m/s | -52.6°C | 0% | 0hPa | 0V | 00:00:00 | 00:00:00 | 00:00:00 | |
| SP3BTT-10 | 2026-09-05 17:00:06 | 50.72791 | 17.42878 | 96° | 47km/h | 18033m | 5.3m/s | 0°C | 0% | 0hPa | 0V | 00:00:00 | 00:00:00 | 00:00:00 | |
| OE5DRO-10 | 2026-09-05 17:00:01 | 50.72787 | 17.42791 | 87° | 47km/h | 18008m | 4.8m/s | 0°C | 0% | 0hPa | 0V | 00:00:00 | 00:00:00 | 00:00:00 | |
| OM5KV | 2026-09-05 16:59:59 | 50.72785 | 17.42764 | 85° | 29km/h | 18012m | 1.4m/s | -52.7°C | 0% | 0hPa | 0V | 00:00:00 | 00:00:00 | 00:00:00 | |
| SQ6EMJ | 2026-09-05 16:59:57 | 50.72786 | 17.42726 | 93° | 66km/h | 18005m | 2.4m/s | -52.7°C | 0% | 0hPa | 0V | 00:00:00 | 00:00:00 | 00:00:00 | |
| OM5KV | 2026-09-05 16:59:54 | 50.72788 | 17.42660 | 99° | 55km/h | 17991m | 5.5m/s | -52.6°C | 0% | 0hPa | 0V | 00:00:00 | 00:00:00 | 00:00:00 | |
| SQ6EMJ | 2026-09-05 16:59:51 | 50.72787 | 17.42615 | 85° | 44km/h | 17984m | 3.4m/s | -52.7°C | 0% | 0hPa | 0V | 00:00:00 | 00:00:00 | 00:00:00 | |
| OM5KV | 2026-09-05 16:59:48 | 50.72793 | 17.42567 | 92° | 60km/h | 17974m | 5.2m/s | -52.7°C | 0% | 0hPa | 0V | 00:00:00 | 00:00:00 | 00:00:00 | |
| SQ6EMJ | 2026-09-05 16:59:46 | 50.72790 | 17.42525 | 88° | 38km/h | 17967m | 4.9m/s | -52.7°C | 0% | 0hPa | 0V | 00:00:00 | 00:00:00 | 00:00:00 | |
| OE5DRO-10 | 2026-09-05 16:59:42 | 50.72793 | 17.42451 | 118° | 51km/h | 17949m | 5.0m/s | 0°C | 0% | 0hPa | 0V | 00:00:00 | 00:00:00 | 00:00:00 | |
| SQ6EMJ | 2026-09-05 16:59:41 | 50.72796 | 17.42416 | 118° | 40km/h | 17945m | 1.3m/s | -52.6°C | 0% | 0hPa | 0V | 00:00:00 | 00:00:00 | 00:00:00 | |
| PETON7-10 | 2026-09-05 16:59:39 | 50.72799 | 17.42399 | 98° | 53km/h | 17938m | 3.8m/s | 0°C | 0% | 0hPa | 0V | 00:00:00 | 00:00:00 | 00:00:00 | |
| SP3BTT-10 | 2026-09-05 16:59:36 | 50.72798 | 17.42337 | 111° | 51km/h | 17929m | 1.5m/s | 0°C | 0% | 0hPa | 0V | 00:00:00 | 00:00:00 | 00:00:00 | |
| SQ6EMJ | 2026-09-05 16:59:34 | 50.72804 | 17.42303 | 90° | 49km/h | 17925m | 5.0m/s | -52.6°C | 0% | 0hPa | 0V | 00:00:00 | 00:00:00 | 00:00:00 | |
| OM5KV | 2026-09-05 16:59:30 | 50.72811 | 17.42201 | 88° | 55km/h | 17909m | 5.8m/s | -52.7°C | 0% | 0hPa | 0V | 00:00:00 | 00:00:00 | 00:00:00 | |
| SP6BVK | 2026-09-05 16:59:28 | 50.72806 | 17.42159 | 93° | 49km/h | 17901m | 3.4m/s | -52.7°C | 0% | 0hPa | 0V | 00:00:00 | 00:00:00 | 00:00:00 | |
| SQ6EMJ | 2026-09-05 16:59:24 | 50.72810 | 17.42076 | 72° | 49km/h | 17887m | 2.1m/s | -52.7°C | 0% | 0hPa | 0V | 00:00:00 | 00:00:00 | 00:00:00 | |
| OE5DRO-10 | 2026-09-05 16:59:23 | 50.72810 | 17.42076 | 71° | 53km/h | 17880m | 2.7m/s | 0°C | 0% | 0hPa | 0V | 00:00:00 | 00:00:00 | 00:00:00 | |
| POL1PZ | 2026-09-05 16:59:21 | 50.72812 | 17.42036 | 111° | 62km/h | 17880m | 2.8m/s | -52.6°C | 0% | 0hPa | 0V | 00:00:00 | 00:00:00 | 00:00:00 | |
| SQ6EMJ | 2026-09-05 16:59:18 | 50.72810 | 17.41973 | 77° | 44km/h | 17869m | 1.9m/s | -52.6°C | 0% | 0hPa | 0V | 00:00:00 | 00:00:00 | 00:00:00 | |
| SQ6EMJ | 2026-09-05 16:59:13 | 50.72812 | 17.41850 | 101° | 58km/h | 17847m | 5.6m/s | -52.4°C | 0% | 0hPa | 0V | 00:00:00 | 00:00:00 | 00:00:00 | |
| PETON7-10 | 2026-09-05 16:59:09 | 50.72811 | 17.41783 | 96° | 55km/h | 17833m | 2.6m/s | 0°C | 0% | 0hPa | 0V | 00:00:00 | 00:00:00 | 00:00:00 | |
| SP3BTT-10 | 2026-09-05 16:59:06 | 50.72813 | 17.41709 | 87° | 53km/h | 17822m | 4.6m/s | 0°C | 0% | 0hPa | 0V | 00:00:00 | 00:00:00 | 00:00:00 | |
| POL1PZ | 2026-09-05 16:59:01 | 50.72811 | 17.41598 | 88° | 71km/h | 17809m | 1.6m/s | -52.4°C | 0% | 0hPa | 0V | 00:00:00 | 00:00:00 | 00:00:00 | |
| SQ6EMJ | 2026-09-05 16:58:55 | 50.72812 | 17.41467 | 93° | 44km/h | 17788m | 6.3m/s | -52.4°C | 0% | 0hPa | 0V | 00:00:00 | 00:00:00 | 00:00:00 | |
| PETON7-10 | 2026-09-05 16:58:54 | 50.72812 | 17.41459 | 91° | 49km/h | 17781m | 3.4m/s | 0°C | 0% | 0hPa | 0V | 00:00:00 | 00:00:00 | 00:00:00 | |
| SQ6EMJ | 2026-09-05 16:58:50 | 50.72814 | 17.41364 | 98° | 38km/h | 17770m | 5.7m/s | -52.5°C | 0% | 0hPa | 0V | 00:00:00 | 00:00:00 | 00:00:00 | |
| SP6BVK | 2026-09-05 16:58:46 | 50.72816 | 17.41280 | 96° | 51km/h | 17756m | 3.8m/s | -52.6°C | 0% | 0hPa | 0V | 00:00:00 | 00:00:00 | 00:00:00 | |
| SQ6EMJ | 2026-09-05 16:58:45 | 50.72818 | 17.41251 | 95° | 40km/h | 17749m | 2.5m/s | -52.6°C | 0% | 0hPa | 0V | 00:00:00 | 00:00:00 | 00:00:00 | |
| OE5DRO-10 | 2026-09-05 16:58:43 | 50.72819 | 17.41230 | 92° | 49km/h | 17741m | 1.7m/s | 0°C | 0% | 0hPa | 0V | 00:00:00 | 00:00:00 | 00:00:00 | |
| POL1PZ | 2026-09-05 16:58:40 | 50.72822 | 17.41169 | 100° | 24km/h | 17734m | 2.9m/s | -52.7°C | 0% | 0hPa | 0V | 00:00:00 | 00:00:00 | 00:00:00 | |
| PETON7-10 | 2026-09-05 16:58:39 | 50.72823 | 17.41161 | 91° | 49km/h | 17726m | 6.0m/s | 0°C | 0% | 0hPa | 0V | 00:00:00 | 00:00:00 | 00:00:00 | |
| SQ6EMJ | 2026-09-05 16:58:38 | 50.72823 | 17.41136 | 91° | 66km/h | 17726m | 6.0m/s | -52.8°C | 0% | 0hPa | 0V | 00:00:00 | 00:00:00 | 00:00:00 | |
| SP3BTT-10 | 2026-09-05 16:58:36 | 50.72823 | 17.41089 | 94° | 49km/h | 17715m | 2.9m/s | 0°C | 0% | 0hPa | 0V | 00:00:00 | 00:00:00 | 00:00:00 | |
| OE3JTB-15 | 2026-09-05 16:58:34 | 50.72826 | 17.41061 | 99° | 53km/h | 17701m | 5.7m/s | 0°C | 0% | 0hPa | 0V | 00:00:00 | 00:00:00 | 00:00:00 | |
| SQ6EMJ | 2026-09-05 16:58:32 | 50.72827 | 17.41014 | 90° | 60km/h | 17705m | 2.3m/s | -52.9°C | 0% | 0hPa | 0V | 00:00:00 | 00:00:00 | 00:00:00 | |
| SQ6EMJ | 2026-09-05 16:58:26 | 50.72836 | 17.40881 | 105° | 35km/h | 17679m | 2.2m/s | -52.7°C | 0% | 0hPa | 0V | 00:00:00 | 00:00:00 | 00:00:00 | |
| SP6BVK | 2026-09-05 16:58:25 | 50.72836 | 17.40881 | 105° | 35km/h | 17679m | 2.2m/s | -52.7°C | 0% | 0hPa | 0V | 00:00:00 | 00:00:00 | 00:00:00 | |
| PETON7-10 | 2026-09-05 16:58:24 | 50.72837 | 17.40862 | 90° | 51km/h | 17672m | 2.7m/s | 0°C | 0% | 0hPa | 0V | 00:00:00 | 00:00:00 | 00:00:00 | |
| POL1PZ | 2026-09-05 16:58:20 | 50.72842 | 17.40782 | 103° | 40km/h | 17661m | 2.6m/s | -52.5°C | 0% | 0hPa | 0V | 00:00:00 | 00:00:00 | 00:00:00 | |
| OM5KV | 2026-09-05 16:58:17 | 50.72843 | 17.40713 | 93° | 51km/h | 17651m | 4.2m/s | -52.5°C | 0% | 0hPa | 0V | 00:00:00 | 00:00:00 | 00:00:00 | |
| SQ6EMJ | 2026-09-05 16:58:14 | 50.72849 | 17.40663 | 93° | 66km/h | 17641m | 5.6m/s | -52.5°C | 0% | 0hPa | 0V | 00:00:00 | 00:00:00 | 00:00:00 | |
| PETON7-10 | 2026-09-05 16:58:09 | 50.72853 | 17.40554 | 95° | 53km/h | 17618m | 2.1m/s | 0°C | 0% | 0hPa | 0V | 00:00:00 | 00:00:00 | 00:00:00 | |
| SP3BTT-10 | 2026-09-05 16:58:06 | 50.72858 | 17.40494 | 102° | 68km/h | 17607m | 3.7m/s | 0°C | 0% | 0hPa | 0V | 00:00:00 | 00:00:00 | 00:00:00 | |
| OE3JTB-15 | 2026-09-05 16:58:05 | 50.72859 | 17.40473 | 93° | 57km/h | 17588m | 5.0m/s | 0°C | 0% | 0hPa | 0V | 00:00:00 | 00:00:00 | 00:00:00 | |
| EDDB2-11 | 2026-09-05 16:58:03 | 50.72863 | 17.40405 | 99° | 40km/h | 17596m | 6.1m/s | -53.0°C | -1.0% | -1.0hPa | 0V | 00:00:00 | 00:00:00 | 00:00:00 | |
| POL1PZ | 2026-09-05 16:57:59 | 50.72866 | 17.40346 | 94° | 77km/h | 17584m | 3.1m/s | -52.2°C | 0% | 0hPa | 0V | 00:00:00 | 00:00:00 | 00:00:00 | |
| OM5KV | 2026-09-05 16:57:57 | 50.72870 | 17.40299 | 107° | 38km/h | 17577m | 5.8m/s | -52.1°C | 0% | 0hPa | 0V | 00:00:00 | 00:00:00 | 00:00:00 | |
| SQ6EMJ | 2026-09-05 16:57:55 | 50.72874 | 17.40265 | 96° | 58km/h | 17570m | 4.8m/s | -52.1°C | 0% | 0hPa | 0V | 00:00:00 | 00:00:00 | 00:00:00 | |
| PETON7-10 | 2026-09-05 16:57:54 | 50.72875 | 17.40231 | 93° | 53km/h | 17564m | 3.7m/s | 0°C | 0% | 0hPa | 0V | 00:00:00 | 00:00:00 | 00:00:00 | |
| OM5KV | 2026-09-05 16:57:52 | 50.72877 | 17.40196 | 106° | 35km/h | 17560m | 4.5m/s | -52.1°C | 0% | 0hPa | 0V | 00:00:00 | 00:00:00 | 00:00:00 | |
| SQ6EMJ | 2026-09-05 16:57:49 | 50.72882 | 17.40133 | 93° | 69km/h | 17549m | 2.0m/s | -52.1°C | 0% | 0hPa | 0V | 00:00:00 | 00:00:00 | 00:00:00 | |
| OE5DRO-10 | 2026-09-05 16:57:46 | 50.72888 | 17.40078 | 100° | 55km/h | 17535m | 5.1m/s | 0°C | 0% | 0hPa | 0V | 00:00:00 | 00:00:00 | 00:00:00 | |
| SP6BVK | 2026-09-05 16:57:44 | 50.72890 | 17.40030 | 95° | 64km/h | 17532m | 1.9m/s | -52.0°C | 0% | 0hPa | 0V | 00:00:00 | 00:00:00 | 00:00:00 | |
| SQ6EMJ | 2026-09-05 16:57:42 | 50.72895 | 17.39993 | 117° | 37km/h | 17524m | 2.4m/s | -52.0°C | 0% | 0hPa | 0V | 00:00:00 | 00:00:00 | 00:00:00 | |
| PETON7-10 | 2026-09-05 16:57:39 | 50.72899 | 17.39923 | 108° | 55km/h | 17510m | 6.1m/s | 0°C | 0% | 0hPa | 0V | 00:00:00 | 00:00:00 | 00:00:00 | |
| SQ6EMJ | 2026-09-05 16:57:37 | 50.72905 | 17.39894 | 124° | 40km/h | 17505m | 2.0m/s | -52.0°C | 0% | 0hPa | 0V | 00:00:00 | 00:00:00 | 00:00:00 | |
| OE3JTB-15 | 2026-09-05 16:57:36 | 50.72909 | 17.39877 | 101° | 60km/h | 17496m | 2.3m/s | 0°C | 0% | 0hPa | 0V | 00:00:00 | 00:00:00 | 00:00:00 | |
| SQ6EMJ | 2026-09-05 16:57:32 | 50.72925 | 17.39771 | 104° | 58km/h | 17486m | 5.3m/s | -52.0°C | 0% | 0hPa | 0V | 00:00:00 | 00:00:00 | 00:00:00 | |
| OE5DRO-10 | 2026-09-05 16:57:27 | 50.72938 | 17.39686 | 118° | 60km/h | 17468m | 4.9m/s | 0°C | 0% | 0hPa | 0V | 00:00:00 | 00:00:00 | 00:00:00 | |
| SQ6EMJ | 2026-09-05 16:57:26 | 50.72942 | 17.39663 | 97° | 62km/h | 17468m | 5.0m/s | -51.9°C | 0% | 0hPa | 0V | 00:00:00 | 00:00:00 | 00:00:00 | |
| SP6BVK | 2026-09-05 16:57:25 | 50.72943 | 17.39617 | 105° | 55km/h | 17461m | 4.2m/s | -52.0°C | 0% | 0hPa | 0V | 00:00:00 | 00:00:00 | 00:00:00 | |
| PETON7-10 | 2026-09-05 16:57:24 | 50.72943 | 17.39617 | 125° | 60km/h | 17457m | 3.9m/s | 0°C | 0% | 0hPa | 0V | 00:00:00 | 00:00:00 | 00:00:00 | |
| SQ6EMJ | 2026-09-05 16:57:21 | 50.72961 | 17.39530 | 95° | 57km/h | 17447m | 2.2m/s | -52.1°C | 0% | 0hPa | 0V | 00:00:00 | 00:00:00 | 00:00:00 | |
| OM5KV | 2026-09-05 16:57:19 | 50.72965 | 17.39508 | 115° | 58km/h | 17443m | 5.6m/s | -52.1°C | 0% | 0hPa | 0V | 00:00:00 | 00:00:00 | 00:00:00 | |
| POL1PZ | 2026-09-05 16:57:18 | 50.72973 | 17.39486 | 127° | 66km/h | 17439m | 3.2m/s | -52.1°C | 0% | 0hPa | 0V | 00:00:00 | 00:00:00 | 00:00:00 | |
| DB0NH | 2026-09-05 16:57:15 | 50.72969 | 17.39420 | 102° | 62km/h | 17428m | 2.7m/s | 0°C | 0% | 0hPa | 0V | 00:00:00 | 00:00:00 | 00:00:00 | |
| OM5KV | 2026-09-05 16:57:13 | 50.72999 | 17.39374 | 122° | 69km/h | 17421m | 1.6m/s | -52.1°C | 0% | 0hPa | 0V | 00:00:00 | 00:00:00 | 00:00:00 | |
| PETON7-10 | 2026-09-05 16:57:09 | 50.73017 | 17.39280 | 120° | 66km/h | 17403m | 1.8m/s | 0°C | 0% | 0hPa | 0V | 00:00:00 | 00:00:00 | 00:00:00 | |
| OM5KV | 2026-09-05 16:57:08 | 50.73033 | 17.39233 | 103° | 58km/h | 17400m | 5.7m/s | -52.0°C | 0% | 0hPa | 0V | 00:00:00 | 00:00:00 | 00:00:00 | |
| SQ6EMJ | 2026-09-05 16:57:04 | 50.73056 | 17.39139 | 120° | 71km/h | 17386m | 2.0m/s | -52.1°C | 0% | 0hPa | 0V | 00:00:00 | 00:00:00 | 00:00:00 | |
| SP6BVK | 2026-09-05 16:57:03 | 50.73056 | 17.39139 | 120° | 71km/h | 17386m | 2.0m/s | -52.1°C | 0% | 0hPa | 0V | 00:00:00 | 00:00:00 | 00:00:00 | |
| POL1PZ | 2026-09-05 16:56:58 | 50.73088 | 17.39021 | 121° | 68km/h | 17370m | 2.8m/s | -52.2°C | 0% | 0hPa | 0V | 00:00:00 | 00:00:00 | 00:00:00 | |
| OM5KV | 2026-09-05 16:56:55 | 50.73103 | 17.38951 | 118° | 73km/h | 17358m | 5.3m/s | -52.2°C | 0% | 0hPa | 0V | 00:00:00 | 00:00:00 | 00:00:00 | |
| PETON7-10 | 2026-09-05 16:56:54 | 50.73112 | 17.38924 | 119° | 71km/h | 17352m | 3.4m/s | 0°C | 0% | 0hPa | 0V | 00:00:00 | 00:00:00 | 00:00:00 | |
| SQ6EMJ | 2026-09-05 16:56:52 | 50.73127 | 17.38878 | 98° | 58km/h | 17348m | 4.4m/s | -52.2°C | 0% | 0hPa | 0V | 00:00:00 | 00:00:00 | 00:00:00 | |
| DH8WE-5 | 2026-09-05 16:56:49 | 50.73156 | 17.38775 | 116° | 66km/h | 17335m | 3.6m/s | -52.3°C | 0% | 0hPa | 0V | 00:00:00 | 00:00:00 | 00:00:00 | |
| OM5KV | 2026-09-05 16:56:48 | 50.73156 | 17.38775 | 116° | 66km/h | 17335m | 3.6m/s | -52.3°C | 0% | 0hPa | 0V | 00:00:00 | 00:00:00 | 00:00:00 | |
| SQ6EMJ | 2026-09-05 16:56:46 | 50.73164 | 17.38728 | 107° | 68km/h | 17328m | 3.0m/s | -52.3°C | 0% | 0hPa | 0V | 00:00:00 | 00:00:00 | 00:00:00 | |
| OE5DRO-10 | 2026-09-05 16:56:45 | 50.73171 | 17.38699 | 119° | 73km/h | 17321m | 2.2m/s | 0°C | 0% | 0hPa | 0V | 00:00:00 | 00:00:00 | 00:00:00 | |
| DB0NH | 2026-09-05 16:56:43 | 50.73188 | 17.38647 | 101° | 73km/h | 17314m | 1.6m/s | 0°C | 0% | 0hPa | 0V | 00:00:00 | 00:00:00 | 00:00:00 | |
| SQ6EMJ | 2026-09-05 16:56:42 | 50.73197 | 17.38595 | 112° | 73km/h | 17311m | 4.1m/s | -52.4°C | 0% | 0hPa | 0V | 00:00:00 | 00:00:00 | 00:00:00 | |
| PETON7-10 | 2026-09-05 16:56:39 | 50.73215 | 17.38537 | 114° | 75km/h | 17301m | 4.8m/s | 0°C | 0% | 0hPa | 0V | 00:00:00 | 00:00:00 | 00:00:00 | |
| POL1PZ | 2026-09-05 16:56:37 | 50.73224 | 17.38485 | 103° | 66km/h | 17298m | 1.7m/s | -52.4°C | 0% | 0hPa | 0V | 00:00:00 | 00:00:00 | 00:00:00 | |
| SQ6EMJ | 2026-09-05 16:56:36 | 50.73240 | 17.38427 | 120° | 89km/h | 17291m | 2.2m/s | -52.4°C | 0% | 0hPa | 0V | 00:00:00 | 00:00:00 | 00:00:00 | |
| SQ6EMJ | 2026-09-05 16:56:30 | 50.73271 | 17.38289 | 117° | 88km/h | 17274m | 2.3m/s | -52.3°C | 0% | 0hPa | 0V | 00:00:00 | 00:00:00 | 00:00:00 | |
| OM5KV | 2026-09-05 16:56:28 | 50.73282 | 17.38236 | 101° | 57km/h | 17267m | 2.7m/s | -52.3°C | 0% | 0hPa | 0V | 00:00:00 | 00:00:00 | 00:00:00 | |
| OE5DRO-10 | 2026-09-05 16:56:26 | 50.73293 | 17.38180 | 111° | 71km/h | 17258m | 2.0m/s | 0°C | 0% | 0hPa | 0V | 00:00:00 | 00:00:00 | 00:00:00 | |
| SQ6EMJ | 2026-09-05 16:56:25 | 50.73307 | 17.38124 | 104° | 64km/h | 17254m | 5.5m/s | -52.1°C | 0% | 0hPa | 0V | 00:00:00 | 00:00:00 | 00:00:00 | |
| PETON7-10 | 2026-09-05 16:56:24 | 50.73307 | 17.38124 | 104° | 69km/h | 17250m | 2.0m/s | 0°C | 0% | 0hPa | 0V | 00:00:00 | 00:00:00 | 00:00:00 | |
| SP6BVK | 2026-09-05 16:56:23 | 50.73315 | 17.38077 | 113° | 73km/h | 17247m | 3.7m/s | -52.0°C | 0% | 0hPa | 0V | 00:00:00 | 00:00:00 | 00:00:00 | |
| OM5KV | 2026-09-05 16:56:22 | 50.73315 | 17.38077 | 113° | 73km/h | 17247m | 3.7m/s | -52.0°C | 0% | 0hPa | 0V | 00:00:00 | 00:00:00 | 00:00:00 | |
| SQ6EMJ | 2026-09-05 16:56:19 | 50.73339 | 17.37968 | 107° | 60km/h | 17233m | 2.3m/s | -51.9°C | 0% | 0hPa | 0V | 00:00:00 | 00:00:00 | 00:00:00 | |
| POL1PZ | 2026-09-05 16:56:17 | 50.73345 | 17.37942 | 113° | 78km/h | 17230m | 4.9m/s | -51.9°C | 0% | 0hPa | 0V | 00:00:00 | 00:00:00 | 00:00:00 | |
| DB0NH | 2026-09-05 16:56:13 | 50.73372 | 17.37838 | 110° | 71km/h | 17217m | 3.3m/s | 0°C | 0% | 0hPa | 0V | 00:00:00 | 00:00:00 | 00:00:00 | |
| OM5KV | 2026-09-05 16:56:11 | 50.73382 | 17.37779 | 109° | 80km/h | 17210m | 2.1m/s | -51.9°C | 0% | 0hPa | 0V | 00:00:00 | 00:00:00 | 00:00:00 | |
| PETON7-10 | 2026-09-05 16:56:09 | 50.73392 | 17.37731 | 114° | 69km/h | 17200m | 4.2m/s | 0°C | 0% | 0hPa | 0V | 00:00:00 | 00:00:00 | 00:00:00 | |
| OE5DRO-10 | 2026-09-05 16:56:07 | 50.73405 | 17.37677 | 104° | 69km/h | 17193m | 2.7m/s | 0°C | 0% | 0hPa | 0V | 00:00:00 | 00:00:00 | 00:00:00 | |
| OM5KV | 2026-09-05 16:56:05 | 50.73413 | 17.37621 | 112° | 53km/h | 17190m | 4.8m/s | -51.9°C | 0% | 0hPa | 0V | 00:00:00 | 00:00:00 | 00:00:00 | |
| SQ6EMJ | 2026-09-05 16:56:02 | 50.73431 | 17.37544 | 97° | 86km/h | 17180m | 2.7m/s | -51.9°C | 0% | 0hPa | 0V | 00:00:00 | 00:00:00 | 00:00:00 | |
| OM5KV | 2026-09-05 16:56:00 | 50.73438 | 17.37492 | 120° | 55km/h | 17174m | 4.4m/s | -51.8°C | 0% | 0hPa | 0V | 00:00:00 | 00:00:00 | 00:00:00 | |
| SQ6EMJ | 2026-09-05 16:55:57 | 50.73455 | 17.37386 | 106° | 62km/h | 17160m | 3.4m/s | -51.8°C | 0% | 0hPa | 0V | 00:00:00 | 00:00:00 | 00:00:00 | |
| POL1PZ | 2026-09-05 16:55:56 | 50.73455 | 17.37386 | 106° | 62km/h | 17160m | 3.4m/s | -51.8°C | 0% | 0hPa | 0V | 00:00:00 | 00:00:00 | 00:00:00 | |
| PETON7-10 | 2026-09-05 16:55:54 | 50.73470 | 17.37341 | 114° | 68km/h | 17150m | 5.3m/s | 0°C | 0% | 0hPa | 0V | 00:00:00 | 00:00:00 | 00:00:00 | |
| SQ6EMJ | 2026-09-05 16:55:51 | 50.73485 | 17.37237 | 125° | 69km/h | 17140m | 2.3m/s | -51.7°C | 0% | 0hPa | 0V | 00:00:00 | 00:00:00 | 00:00:00 | |
| OM5KV | 2026-09-05 16:55:49 | 50.73493 | 17.37212 | 110° | 71km/h | 17138m | 2.9m/s | -51.7°C | 0% | 0hPa | 0V | 00:00:00 | 00:00:00 | 00:00:00 | |
| OE5DRO-10 | 2026-09-05 16:55:48 | 50.73495 | 17.37185 | 89° | 66km/h | 17130m | 1.8m/s | 0°C | 0% | 0hPa | 0V | 00:00:00 | 00:00:00 | 00:00:00 | |
| SQ6EMJ | 2026-09-05 16:55:45 | 50.73505 | 17.37111 | 122° | 73km/h | 17122m | 2.7m/s | -51.8°C | 0% | 0hPa | 0V | 00:00:00 | 00:00:00 | 00:00:00 | |
| DB0NH | 2026-09-05 16:55:43 | 50.73514 | 17.37058 | 86° | 66km/h | 17113m | 1.7m/s | 0°C | 0% | 0hPa | 0V | 00:00:00 | 00:00:00 | 00:00:00 | |
| SP6BVK | 2026-09-05 16:55:42 | 50.73516 | 17.37009 | 112° | 62km/h | 17109m | 5.9m/s | -52.0°C | 0% | 0hPa | 0V | 00:00:00 | 00:00:00 | 00:00:00 | |
| SP3BTT-10 | 2026-09-05 16:55:41 | 50.73516 | 17.37009 | 111° | 66km/h | 17105m | 2.2m/s | 0°C | 0% | 0hPa | 0V | 00:00:00 | 00:00:00 | 00:00:00 | |
| SQ6EMJ | 2026-09-05 16:55:40 | 50.73529 | 17.36959 | 104° | 68km/h | 17102m | 3.7m/s | -52.0°C | 0% | 0hPa | 0V | 00:00:00 | 00:00:00 | 00:00:00 | |
| PETON7-10 | 2026-09-05 16:55:39 | 50.73530 | 17.36959 | 104° | 66km/h | 17099m | 3.0m/s | 0°C | 0% | 0hPa | 0V | 00:00:00 | 00:00:00 | 00:00:00 | |
| OM5KV | 2026-09-05 16:55:37 | 50.73530 | 17.36910 | 98° | 58km/h | 17097m | 2.0m/s | -52.0°C | 0% | 0hPa | 0V | 00:00:00 | 00:00:00 | 00:00:00 | |
| POL1PZ | 2026-09-05 16:55:36 | 50.73543 | 17.36862 | 118° | 73km/h | 17089m | 1.7m/s | -51.9°C | 0% | 0hPa | 0V | 00:00:00 | 00:00:00 | 00:00:00 | |
| SQ6EMJ | 2026-09-05 16:55:35 | 50.73549 | 17.36836 | 102° | 64km/h | 17086m | 4.4m/s | -51.9°C | 0% | 0hPa | 0V | 00:00:00 | 00:00:00 | 00:00:00 | |
| OM5KV | 2026-09-05 16:55:32 | 50.73551 | 17.36790 | 104° | 60km/h | 17079m | 3.3m/s | -51.8°C | 0% | 0hPa | 0V | 00:00:00 | 00:00:00 | 00:00:00 | |
| OE5DRO-10 | 2026-09-05 16:55:29 | 50.73570 | 17.36710 | 98° | 62km/h | 17066m | 1.7m/s | 0°C | 0% | 0hPa | 0V | 00:00:00 | 00:00:00 | 00:00:00 | |
| OM5KV | 2026-09-05 16:55:27 | 50.73585 | 17.36640 | 120° | 84km/h | 17059m | 3.0m/s | -51.8°C | 0% | 0hPa | 0V | 00:00:00 | 00:00:00 | 00:00:00 | |
| PETON7-10 | 2026-09-05 16:55:24 | 50.73596 | 17.36586 | 96° | 66km/h | 17048m | 2.4m/s | 0°C | 0% | 0hPa | 0V | 00:00:00 | 00:00:00 | 00:00:00 | |
| OM5KV | 2026-09-05 16:55:22 | 50.73612 | 17.36517 | 114° | 86km/h | 17042m | 1.7m/s | -51.6°C | 0% | 0hPa | 0V | 00:00:00 | 00:00:00 | 00:00:00 | |
| SP6BVK | 2026-09-05 16:55:21 | 50.73612 | 17.36517 | 114° | 86km/h | 17042m | 1.7m/s | -51.6°C | 0% | 0hPa | 0V | 00:00:00 | 00:00:00 | 00:00:00 | |
| SQ6EMJ | 2026-09-05 16:55:17 | 50.73633 | 17.36422 | 115° | 75km/h | 17029m | 5.5m/s | -51.5°C | 0% | 0hPa | 0V | 00:00:00 | 00:00:00 | 00:00:00 | |
| OM5KV | 2026-09-05 16:55:16 | 50.73646 | 17.36364 | 106° | 66km/h | 17022m | 3.9m/s | -51.5°C | 0% | 0hPa | 0V | 00:00:00 | 00:00:00 | 00:00:00 | |
| OE3JTB-15 | 2026-09-05 16:55:15 | 50.73646 | 17.36364 | 105° | 60km/h | 17019m | 3.0m/s | 0°C | 0% | 0hPa | 0V | 00:00:00 | 00:00:00 | 00:00:00 | |
| DB0NH | 2026-09-05 16:55:12 | 50.73660 | 17.36296 | 112° | 71km/h | 17005m | 5.3m/s | 0°C | 0% | 0hPa | 0V | 00:00:00 | 00:00:00 | 00:00:00 | |
| SP3BTT-10 | 2026-09-05 16:55:11 | 50.73667 | 17.36267 | 111° | 69km/h | 17005m | 5.3m/s | 0°C | 0% | 0hPa | 0V | 00:00:00 | 00:00:00 | 00:00:00 | |
| OE5DRO-10 | 2026-09-05 16:55:10 | 50.73673 | 17.36243 | 104° | 68km/h | 17001m | 1.5m/s | 0°C | 0% | 0hPa | 0V | 00:00:00 | 00:00:00 | 00:00:00 | |
| SQ6EMJ | 2026-09-05 16:55:06 | 50.73695 | 17.36143 | 117° | 77km/h | 16992m | 1.9m/s | -51.3°C | 0% | 0hPa | 0V | 00:00:00 | 00:00:00 | 00:00:00 | |
| OM5KV | 2026-09-05 16:55:04 | 50.73705 | 17.36100 | 102° | 51km/h | 16985m | 2.1m/s | -51.4°C | 0% | 0hPa | 0V | 00:00:00 | 00:00:00 | 00:00:00 | |
| SQ6EMJ | 2026-09-05 16:55:01 | 50.73733 | 17.35996 | 109° | 51km/h | 16971m | 6.0m/s | -51.4°C | 0% | 0hPa | 0V | 00:00:00 | 00:00:00 | 00:00:00 | |
| OE5MMP-10 | 2026-09-05 16:55:00 | 50.73733 | 17.35996 | 109° | 66km/h | 16954m | 4.2m/s | 0°C | 0% | 0hPa | 0V | 00:00:00 | 00:00:00 | 00:00:00 | |
| OM5KV | 2026-09-05 16:54:59 | 50.73742 | 17.35951 | 114° | 77km/h | 16964m | 4.8m/s | -51.5°C | 0% | 0hPa | 0V | 00:00:00 | 00:00:00 | 00:00:00 | |
| PETON7-10 | 2026-09-05 16:54:54 | 50.73770 | 17.35849 | 108° | 73km/h | 16947m | 6.3m/s | 0°C | 0% | 0hPa | 0V | 00:00:00 | 00:00:00 | 00:00:00 | |
| OM5KV | 2026-09-05 16:54:53 | 50.73777 | 17.35822 | 116° | 82km/h | 16947m | 6.3m/s | -51.6°C | 0% | 0hPa | 0V | 00:00:00 | 00:00:00 | 00:00:00 | |
| OE5DRO-10 | 2026-09-05 16:54:51 | 50.73795 | 17.35762 | 104° | 73km/h | 16936m | 3.4m/s | 0°C | 0% | 0hPa | 0V | 00:00:00 | 00:00:00 | 00:00:00 | |
| SQ6EMJ | 2026-09-05 16:54:49 | 50.73804 | 17.35716 | 111° | 66km/h | 16933m | 2.8m/s | -51.7°C | 0% | 0hPa | 0V | 00:00:00 | 00:00:00 | 00:00:00 | |
| OM5KV | 2026-09-05 16:54:47 | 50.73821 | 17.35658 | 116° | 86km/h | 16925m | 2.1m/s | -51.7°C | 0% | 0hPa | 0V | 00:00:00 | 00:00:00 | 00:00:00 | |
| NBG1-10 | 2026-09-05 16:54:46 | 50.73829 | 17.35629 | 110° | 71km/h | 16915m | 3.2m/s | 0°C | 0% | 0hPa | 0V | 00:00:00 | 00:00:00 | 00:00:00 | |
| DB0NH | 2026-09-05 16:54:42 | 50.73854 | 17.35519 | 102° | 69km/h | 16905m | 5.0m/s | 0°C | 0% | 0hPa | 0V | 00:00:00 | 00:00:00 | 00:00:00 | |
| SP3BTT-10 | 2026-09-05 16:54:41 | 50.73859 | 17.35494 | 102° | 68km/h | 16901m | 2.0m/s | 0°C | 0% | 0hPa | 0V | 00:00:00 | 00:00:00 | 00:00:00 | |
| SP6BVK | 2026-09-05 16:54:40 | 50.73863 | 17.35470 | 103° | 62km/h | 16901m | 2.1m/s | -51.7°C | 0% | 0hPa | 0V | 00:00:00 | 00:00:00 | 00:00:00 | |
| PETON7-10 | 2026-09-05 16:54:39 | 50.73868 | 17.35443 | 112° | 73km/h | 16894m | 1.7m/s | 0°C | 0% | 0hPa | 0V | 00:00:00 | 00:00:00 | 00:00:00 | |
| SQ6EMJ | 2026-09-05 16:54:38 | 50.73877 | 17.35413 | 116° | 88km/h | 16894m | 1.8m/s | -51.8°C | 0% | 0hPa | 0V | 00:00:00 | 00:00:00 | 00:00:00 | |
| POL1PZ | 2026-09-05 16:54:34 | 50.73897 | 17.35306 | 113° | 84km/h | 16882m | 4.4m/s | -51.9°C | 0% | 0hPa | 0V | 00:00:00 | 00:00:00 | 00:00:00 | |
| SQ6EMJ | 2026-09-05 16:54:33 | 50.73912 | 17.35247 | 107° | 66km/h | 16876m | 5.1m/s | -52.0°C | 0% | 0hPa | 0V | 00:00:00 | 00:00:00 | 00:00:00 | |
| OE5DRO-10 | 2026-09-05 16:54:32 | 50.73912 | 17.35247 | 106° | 71km/h | 16865m | 3.9m/s | 0°C | 0% | 0hPa | 0V | 00:00:00 | 00:00:00 | 00:00:00 | |
| OM5KV | 2026-09-05 16:54:30 | 50.73917 | 17.35198 | 104° | 71km/h | 16869m | 3.1m/s | -52.1°C | 0% | 0hPa | 0V | 00:00:00 | 00:00:00 | 00:00:00 | |
| SQ6EMJ | 2026-09-05 16:54:26 | 50.73937 | 17.35084 | 98° | 57km/h | 16855m | 1.6m/s | -52.3°C | 0% | 0hPa | 0V | 00:00:00 | 00:00:00 | 00:00:00 | |
| OM5KV | 2026-09-05 16:54:25 | 50.73940 | 17.35059 | 108° | 73km/h | 16852m | 4.2m/s | -52.3°C | 0% | 0hPa | 0V | 00:00:00 | 00:00:00 | 00:00:00 | |
| PETON7-10 | 2026-09-05 16:54:24 | 50.73947 | 17.35028 | 112° | 69km/h | 16847m | 2.7m/s | 0°C | 0% | 0hPa | 0V | 00:00:00 | 00:00:00 | 00:00:00 | |
| SQ6EMJ | 2026-09-05 16:54:22 | 50.73959 | 17.34949 | 103° | 55km/h | 16840m | 1.7m/s | -52.3°C | 0% | 0hPa | 0V | 00:00:00 | 00:00:00 | 00:00:00 | |
| OM5KV | 2026-09-05 16:54:20 | 50.73971 | 17.34895 | 111° | 88km/h | 16833m | 2.1m/s | -52.3°C | 0% | 0hPa | 0V | 00:00:00 | 00:00:00 | 00:00:00 | |
| SQ6EMJ | 2026-09-05 16:54:16 | 50.73990 | 17.34796 | 118° | 78km/h | 16820m | 4.9m/s | -52.3°C | 0% | 0hPa | 0V | 00:00:00 | 00:00:00 | 00:00:00 | |
| NBG1-10 | 2026-09-05 16:54:13 | 50.74005 | 17.34737 | 105° | 78km/h | 16801m | 1.9m/s | 0°C | 0% | 0hPa | 0V | 00:00:00 | 00:00:00 | 00:00:00 | |
| DB0NH | 2026-09-05 16:54:12 | 50.74008 | 17.34723 | 112° | 73km/h | 16808m | 3.0m/s | 0°C | 0% | 0hPa | 0V | 00:00:00 | 00:00:00 | 00:00:00 | |
| SQ6EMJ | 2026-09-05 16:54:10 | 50.74020 | 17.34666 | 115° | 88km/h | 16804m | 4.8m/s | -52.2°C | 0% | 0hPa | 0V | 00:00:00 | 00:00:00 | 00:00:00 | |
| PETON7-10 | 2026-09-05 16:54:09 | 50.74028 | 17.34634 | 111° | 71km/h | 16798m | 4.3m/s | 0°C | 0% | 0hPa | 0V | 00:00:00 | 00:00:00 | 00:00:00 | |
| OM5KV | 2026-09-05 16:54:08 | 50.74034 | 17.34608 | 109° | 60km/h | 16798m | 4.3m/s | -52.2°C | 0% | 0hPa | 0V | 00:00:00 | 00:00:00 | 00:00:00 | |
| OE3JTB-15 | 2026-09-05 16:54:07 | 50.74039 | 17.34588 | 114° | 73km/h | 16783m | 5.8m/s | 0°C | 0% | 0hPa | 0V | 00:00:00 | 00:00:00 | 00:00:00 | |
| SQ6EMJ | 2026-09-05 16:54:05 | 50.74062 | 17.34505 | 109° | 77km/h | 16787m | 2.3m/s | -52.2°C | 0% | 0hPa | 0V | 00:00:00 | 00:00:00 | 00:00:00 | |
| OM5KV | 2026-09-05 16:54:02 | 50.74073 | 17.34462 | 123° | 53km/h | 16780m | 1.7m/s | -52.2°C | 0% | 0hPa | 0V | 00:00:00 | 00:00:00 | 00:00:00 | |
| SP6BVK | 2026-09-05 16:53:58 | 50.74101 | 17.34355 | 120° | 53km/h | 16768m | 5.3m/s | -52.2°C | 0% | 0hPa | 0V | 00:00:00 | 00:00:00 | 00:00:00 | |
| OM5KV | 2026-09-05 16:53:56 | 50.74117 | 17.34312 | 116° | 78km/h | 16760m | 5.3m/s | -52.2°C | 0% | 0hPa | 0V | 00:00:00 | 00:00:00 | 00:00:00 | |
| SP3BTT-10 | 2026-09-05 16:53:55 | 50.74124 | 17.34272 | 111° | 80km/h | 16754m | 2.7m/s | 0°C | 0% | 0hPa | 0V | 00:00:00 | 00:00:00 | 00:00:00 | |
| PETON7-10 | 2026-09-05 16:53:54 | 50.74130 | 17.34249 | 111° | 75km/h | 16751m | 4.4m/s | 0°C | 0% | 0hPa | 0V | 00:00:00 | 00:00:00 | 00:00:00 | |
| POL1PZ | 2026-09-05 16:53:53 | 50.74138 | 17.34227 | 127° | 57km/h | 16751m | 4.4m/s | -52.2°C | 0% | 0hPa | 0V | 00:00:00 | 00:00:00 | 00:00:00 | |
| OM5KV | 2026-09-05 16:53:51 | 50.74156 | 17.34180 | 114° | 82km/h | 16744m | 5.2m/s | -52.2°C | 0% | 0hPa | 0V | 00:00:00 | 00:00:00 | 00:00:00 | |
| SQ6EMJ | 2026-09-05 16:53:48 | 50.74188 | 17.34077 | 123° | 69km/h | 16732m | 1.9m/s | -52.4°C | 0% | 0hPa | 0V | 00:00:00 | 00:00:00 | 00:00:00 | |
| OM5KV | 2026-09-05 16:53:45 | 50.74203 | 17.34017 | 109° | 88km/h | 16725m | 1.8m/s | -52.4°C | 0% | 0hPa | 0V | 00:00:00 | 00:00:00 | 00:00:00 | |
| DB0NH | 2026-09-05 16:53:42 | 50.74231 | 17.33936 | 111° | 84km/h | 16709m | 1.7m/s | 0°C | 0% | 0hPa | 0V | 00:00:00 | 00:00:00 | 00:00:00 | |
| OM5KV | 2026-09-05 16:53:40 | 50.74246 | 17.33877 | 111° | 88km/h | 16709m | 1.7m/s | -52.6°C | 0% | 0hPa | 0V | 00:00:00 | 00:00:00 | 00:00:00 | |
| PETON7-10 | 2026-09-05 16:53:39 | 50.74255 | 17.33848 | 123° | 84km/h | 16703m | 1.2m/s | 0°C | 0% | 0hPa | 0V | 00:00:00 | 00:00:00 | 00:00:00 | |
| SP6BVK | 2026-09-05 16:53:38 | 50.74266 | 17.33823 | 130° | 75km/h | 16703m | 1.3m/s | -52.6°C | 0% | 0hPa | 0V | 00:00:00 | 00:00:00 | 00:00:00 | |
| SQ6EMJ | 2026-09-05 16:53:36 | 50.74292 | 17.33729 | 111° | 86km/h | 16694m | 2.2m/s | -52.7°C | 0% | 0hPa | 0V | 00:00:00 | 00:00:00 | 00:00:00 | |
| OM5KV | 2026-09-05 16:53:35 | 50.74302 | 17.33701 | 126° | 77km/h | 16691m | 5.0m/s | -52.7°C | 0% | 0hPa | 0V | 00:00:00 | 00:00:00 | 00:00:00 | |
| POL1PZ | 2026-09-05 16:53:32 | 50.74323 | 17.33646 | 114° | 88km/h | 16684m | 4.3m/s | -52.6°C | 0% | 0hPa | 0V | 00:00:00 | 00:00:00 | 00:00:00 | |
| SQ6EMJ | 2026-09-05 16:53:29 | 50.74347 | 17.33551 | 128° | 82km/h | 16675m | 4.0m/s | -52.7°C | 0% | 0hPa | 0V | 00:00:00 | 00:00:00 | 00:00:00 | |
| SP3BTT-10 | 2026-09-05 16:53:25 | 50.74381 | 17.33428 | 116° | 84km/h | 16662m | 4.2m/s | 0°C | 0% | 0hPa | 0V | 00:00:00 | 00:00:00 | 00:00:00 | |
| OM5KV | 2026-09-05 16:53:24 | 50.74403 | 17.33373 | 118° | 86km/h | 16656m | 2.9m/s | -52.7°C | 0% | 0hPa | 0V | 00:00:00 | 00:00:00 | 00:00:00 | |
| SQ6EMJ | 2026-09-05 16:53:18 | 50.74449 | 17.33191 | 100° | 82km/h | 16638m | 3.0m/s | -52.6°C | 0% | 0hPa | 0V | 00:00:00 | 00:00:00 | 00:00:00 | |
| OM5KV | 2026-09-05 16:53:17 | 50.74453 | 17.33159 | 109° | 84km/h | 16638m | 3.0m/s | -52.6°C | 0% | 0hPa | 0V | 00:00:00 | 00:00:00 | 00:00:00 | |
| NBG1-10 | 2026-09-05 16:53:16 | 50.74453 | 17.33166 | 109° | 86km/h | 16616m | 4.0m/s | 0°C | 0% | 0hPa | 0V | 00:00:00 | 00:00:00 | 00:00:00 | |
| OE5DRO-10 | 2026-09-05 16:53:15 | 50.74462 | 17.33129 | 123° | 84km/h | 16628m | 1.7m/s | 0°C | 0% | 0hPa | 0V | 00:00:00 | 00:00:00 | 00:00:00 | |
| DB0NH | 2026-09-05 16:53:12 | 50.74488 | 17.33040 | 100° | 84km/h | 16623m | 1.8m/s | 0°C | 0% | 0hPa | 0V | 00:00:00 | 00:00:00 | 00:00:00 | |
| POL1PZ | 2026-09-05 16:53:11 | 50.74493 | 17.33008 | 111° | 84km/h | 16620m | 3.5m/s | -52.6°C | 0% | 0hPa | 0V | 00:00:00 | 00:00:00 | 00:00:00 | |
| OM5KV | 2026-09-05 16:53:10 | 50.74515 | 17.32947 | 119° | 89km/h | 16613m | 1.8m/s | -52.6°C | 0% | 0hPa | 0V | 00:00:00 | 00:00:00 | 00:00:00 | |
| PETON7-10 | 2026-09-05 16:53:09 | 50.74515 | 17.32947 | 118° | 86km/h | 16610m | 4.9m/s | 0°C | 0% | 0hPa | 0V | 00:00:00 | 00:00:00 | 00:00:00 | |
| SQ6EMJ | 2026-09-05 16:53:06 | 50.74532 | 17.32855 | 113° | 84km/h | 16604m | 3.3m/s | -52.7°C | 0% | 0hPa | 0V | 00:00:00 | 00:00:00 | 00:00:00 | |
| OM5KV | 2026-09-05 16:53:04 | 50.74552 | 17.32788 | 112° | 93km/h | 16599m | 2.2m/s | -52.7°C | 0% | 0hPa | 0V | 00:00:00 | 00:00:00 | 00:00:00 | |
| SQ6EMJ | 2026-09-05 16:53:01 | 50.74569 | 17.32698 | 116° | 84km/h | 16588m | 4.3m/s | -52.7°C | 0% | 0hPa | 0V | 00:00:00 | 00:00:00 | 00:00:00 | |
| OE3JTB-15 | 2026-09-05 16:52:59 | 50.74589 | 17.32630 | 107° | 75km/h | 16582m | 3.2m/s | 0°C | 0% | 0hPa | 0V | 00:00:00 | 00:00:00 | 00:00:00 | |
| SP6BVK | 2026-09-05 16:52:57 | 50.74596 | 17.32570 | 106° | 75km/h | 16576m | 1.8m/s | -52.7°C | 0% | 0hPa | 0V | 00:00:00 | 00:00:00 | 00:00:00 | |
| SQ6EMJ | 2026-09-05 16:52:56 | 50.74613 | 17.32504 | 115° | 99km/h | 16568m | 1.6m/s | -52.7°C | 0% | 0hPa | 0V | 00:00:00 | 00:00:00 | 00:00:00 | |
| SP3BTT-10 | 2026-09-05 16:52:55 | 50.74612 | 17.32504 | 114° | 82km/h | 16565m | 4.0m/s | 0°C | 0% | 0hPa | 0V | 00:00:00 | 00:00:00 | 00:00:00 | |
| PETON7-10 | 2026-09-05 16:52:54 | 50.74620 | 17.32470 | 105° | 84km/h | 16562m | 2.6m/s | 0°C | 0% | 0hPa | 0V | 00:00:00 | 00:00:00 | 00:00:00 | |
| OM5KV | 2026-09-05 16:52:53 | 50.74623 | 17.32440 | 95° | 71km/h | 16562m | 2.6m/s | -52.7°C | 0% | 0hPa | 0V | 00:00:00 | 00:00:00 | 00:00:00 | |
| POL1PZ | 2026-09-05 16:52:49 | 50.74649 | 17.32310 | 103° | 78km/h | 16549m | 5.2m/s | -52.8°C | 0% | 0hPa | 0V | 00:00:00 | 00:00:00 | 00:00:00 | |
| OM5KV | 2026-09-05 16:52:47 | 50.74654 | 17.32249 | 105° | 84km/h | 16543m | 3.4m/s | -52.7°C | 0% | 0hPa | 0V | 00:00:00 | 00:00:00 | 00:00:00 | |
| SQ6EMJ | 2026-09-05 16:52:44 | 50.74677 | 17.32151 | 101° | 77km/h | 16533m | 5.4m/s | -52.8°C | 0% | 0hPa | 0V | 00:00:00 | 00:00:00 | 00:00:00 | |
| DB0NH | 2026-09-05 16:52:42 | 50.74682 | 17.32088 | 115° | 84km/h | 16523m | 2.5m/s | 0°C | 0% | 0hPa | 0V | 00:00:00 | 00:00:00 | 00:00:00 | |
| SQ6EMJ | 2026-09-05 16:52:39 | 50.74706 | 17.31966 | 102° | 75km/h | 16514m | 2.4m/s | -52.8°C | 0% | 0hPa | 0V | 00:00:00 | 00:00:00 | 00:00:00 | |
| OE5DRO-10 | 2026-09-05 16:52:36 | 50.74720 | 17.31901 | 113° | 77km/h | 16505m | 4.7m/s | 0°C | 0% | 0hPa | 0V | 00:00:00 | 00:00:00 | 00:00:00 | |
| SQ6EMJ | 2026-09-05 16:52:33 | 50.74734 | 17.31816 | 108° | 71km/h | 16498m | 3.1m/s | -52.8°C | 0% | 0hPa | 0V | 00:00:00 | 00:00:00 | 00:00:00 | |
| OM5KV | 2026-09-05 16:52:31 | 50.74749 | 17.31753 | 110° | 86km/h | 16491m | 2.5m/s | -52.7°C | 0% | 0hPa | 0V | 00:00:00 | 00:00:00 | 00:00:00 | |
| POL1PZ | 2026-09-05 16:52:29 | 50.74757 | 17.31697 | 101° | 64km/h | 16484m | 1.7m/s | -52.7°C | 0% | 0hPa | 0V | 00:00:00 | 00:00:00 | 00:00:00 | |
| SP3BTT-10 | 2026-09-05 16:52:25 | 50.74780 | 17.31579 | 96° | 73km/h | 16468m | 2.0m/s | 0°C | 0% | 0hPa | 0V | 00:00:00 | 00:00:00 | 00:00:00 | |
| PETON7-10 | 2026-09-05 16:52:24 | 50.74782 | 17.31553 | 100° | 77km/h | 16464m | 5.4m/s | 0°C | 0% | 0hPa | 0V | 00:00:00 | 00:00:00 | 00:00:00 | |
| SQ6EMJ | 2026-09-05 16:52:21 | 50.74802 | 17.31460 | 106° | 73km/h | 16457m | 3.9m/s | -52.6°C | 0% | 0hPa | 0V | 00:00:00 | 00:00:00 | 00:00:00 | |
| OM5KV | 2026-09-05 16:52:18 | 50.74814 | 17.31376 | 113° | 89km/h | 16447m | 4.9m/s | -52.6°C | 0% | 0hPa | 0V | 00:00:00 | 00:00:00 | 00:00:00 | |
| OE5DRO-10 | 2026-09-05 16:52:17 | 50.74822 | 17.31344 | 112° | 77km/h | 16439m | 5.0m/s | 0°C | 0% | 0hPa | 0V | 00:00:00 | 00:00:00 | 00:00:00 | |
| OE5MMP-10 | 2026-09-05 16:52:16 | 50.74829 | 17.31287 | 92° | 71km/h | 16401m | 2.4m/s | 0°C | 0% | 0hPa | 0V | 00:00:00 | 00:00:00 | 00:00:00 | |
| OM5KV | 2026-09-05 16:52:14 | 50.74847 | 17.31194 | 110° | 80km/h | 16426m | 2.4m/s | -52.6°C | 0% | 0hPa | 0V | 00:00:00 | 00:00:00 | 00:00:00 | |
| SQ6EMJ | 2026-09-05 16:52:11 | 50.74852 | 17.31138 | 95° | 68km/h | 16418m | 2.3m/s | -52.6°C | 0% | 0hPa | 0V | 00:00:00 | 00:00:00 | 00:00:00 | |
| PETON7-10 | 2026-09-05 16:52:09 | 50.74856 | 17.31109 | 115° | 75km/h | 16411m | 3.0m/s | 0°C | 0% | 0hPa | 0V | 00:00:00 | 00:00:00 | 00:00:00 | |
| POL1PZ | 2026-09-05 16:52:08 | 50.74864 | 17.31079 | 116° | 88km/h | 16411m | 3.1m/s | -52.6°C | 0% | 0hPa | 0V | 00:00:00 | 00:00:00 | 00:00:00 | |
| OM5KV | 2026-09-05 16:52:06 | 50.74874 | 17.31021 | 93° | 64km/h | 16404m | 4.3m/s | -52.6°C | 0% | 0hPa | 0V | 00:00:00 | 00:00:00 | 00:00:00 | |
| SQ6EMJ | 2026-09-05 16:52:05 | 50.74876 | 17.30995 | 101° | 68km/h | 16401m | 2.5m/s | -52.6°C | 0% | 0hPa | 0V | 00:00:00 | 00:00:00 | 00:00:00 | |
| SQ6EMJ | 2026-09-05 16:52:00 | 50.74910 | 17.30826 | 115° | 88km/h | 16379m | 4.3m/s | -52.7°C | 0% | 0hPa | 0V | 00:00:00 | 00:00:00 | 00:00:00 | |
| OE5DRO-10 | 2026-09-05 16:51:58 | 50.74918 | 17.30795 | 112° | 71km/h | 16372m | 5.0m/s | 0°C | 0% | 0hPa | 0V | 00:00:00 | 00:00:00 | 00:00:00 | |
| SP6BVK | 2026-09-05 16:51:55 | 50.74931 | 17.30719 | 111° | 73km/h | 16366m | 4.5m/s | -52.8°C | 0% | 0hPa | 0V | 00:00:00 | 00:00:00 | 00:00:00 | |
| PETON7-10 | 2026-09-05 16:51:54 | 50.74938 | 17.30684 | 106° | 73km/h | 16359m | 3.6m/s | 0°C | 0% | 0hPa | 0V | 00:00:00 | 00:00:00 | 00:00:00 | |
| SQ6EMJ | 2026-09-05 16:51:49 | 50.74970 | 17.30523 | 104° | 75km/h | 16339m | 3.4m/s | -53.2°C | 0% | 0hPa | 0V | 00:00:00 | 00:00:00 | 00:00:00 | |
| POL1PZ | 2026-09-05 16:51:48 | 50.74970 | 17.30523 | 104° | 75km/h | 16339m | 3.4m/s | -53.2°C | 0% | 0hPa | 0V | 00:00:00 | 00:00:00 | 00:00:00 | |
| OM5KV | 2026-09-05 16:51:46 | 50.74975 | 17.30474 | 105° | 60km/h | 16332m | 2.6m/s | -53.3°C | 0% | 0hPa | 0V | 00:00:00 | 00:00:00 | 00:00:00 | |
| SQ6EMJ | 2026-09-05 16:51:43 | 50.74994 | 17.30358 | 92° | 62km/h | 16318m | 2.4m/s | -53.3°C | 0% | 0hPa | 0V | 00:00:00 | 00:00:00 | 00:00:00 | |
| OM5KV | 2026-09-05 16:51:38 | 50.75013 | 17.30217 | 94° | 69km/h | 16303m | 2.8m/s | -53.1°C | 0% | 0hPa | 0V | 00:00:00 | 00:00:00 | 00:00:00 | |
| SQ6EMJ | 2026-09-05 16:51:37 | 50.75013 | 17.30217 | 94° | 69km/h | 16303m | 2.8m/s | -53.1°C | 0% | 0hPa | 0V | 00:00:00 | 00:00:00 | 00:00:00 | |
| SP6BVK | 2026-09-05 16:51:35 | 50.75023 | 17.30158 | 115° | 82km/h | 16296m | 2.5m/s | -53.2°C | 0% | 0hPa | 0V | 00:00:00 | 00:00:00 | 00:00:00 | |
| OM5KV | 2026-09-05 16:51:32 | 50.75038 | 17.30045 | 112° | 86km/h | 16281m | 5.4m/s | -53.1°C | 0% | 0hPa | 0V | 00:00:00 | 00:00:00 | 00:00:00 | |
| POL1PZ | 2026-09-05 16:51:27 | 50.75054 | 17.29933 | 103° | 71km/h | 16267m | 3.6m/s | -53.0°C | 0% | 0hPa | 0V | 00:00:00 | 00:00:00 | 00:00:00 | |
| SQ6EMJ | 2026-09-05 16:51:26 | 50.75066 | 17.29869 | 105° | 84km/h | 16260m | 2.5m/s | -53.0°C | 0% | 0hPa | 0V | 00:00:00 | 00:00:00 | 00:00:00 | |
| OM5KV | 2026-09-05 16:51:25 | 50.75066 | 17.29869 | 105° | 84km/h | 16260m | 2.5m/s | -53.0°C | 0% | 0hPa | 0V | 00:00:00 | 00:00:00 | 00:00:00 | |
| PETON7-10 | 2026-09-05 16:51:24 | 50.75070 | 17.29842 | 98° | 77km/h | 16253m | 1.4m/s | 0°C | 0% | 0hPa | 0V | 00:00:00 | 00:00:00 | 00:00:00 | |
| OE5DRO-10 | 2026-09-05 16:51:20 | 50.75086 | 17.29714 | 96° | 75km/h | 16238m | 6.2m/s | 0°C | 0% | 0hPa | 0V | 00:00:00 | 00:00:00 | 00:00:00 | |
| OM5KV | 2026-09-05 16:51:19 | 50.75091 | 17.29668 | 111° | 57km/h | 16238m | 6.2m/s | -52.8°C | 0% | 0hPa | 0V | 00:00:00 | 00:00:00 | 00:00:00 | |
| SP6BVK | 2026-09-05 16:51:15 | 50.75107 | 17.29543 | 107° | 60km/h | 16219m | 5.3m/s | -52.7°C | 0% | 0hPa | 0V | 00:00:00 | 00:00:00 | 00:00:00 | |
| OM5KV | 2026-09-05 16:51:14 | 50.75120 | 17.29489 | 106° | 89km/h | 16212m | 4.9m/s | -52.7°C | 0% | 0hPa | 0V | 00:00:00 | 00:00:00 | 00:00:00 | |
| SQ6EMJ | 2026-09-05 16:51:10 | 50.75130 | 17.29396 | 117° | 60km/h | 16201m | 3.7m/s | -52.9°C | 0% | 0hPa | 0V | 00:00:00 | 00:00:00 | 00:00:00 | |
| PETON7-10 | 2026-09-05 16:51:09 | 50.75130 | 17.29403 | 112° | 78km/h | 16198m | 2.9m/s | 0°C | 0% | 0hPa | 0V | 00:00:00 | 00:00:00 | 00:00:00 | |
| POL1PZ | 2026-09-05 16:51:07 | 50.75143 | 17.29338 | 101° | 93km/h | 16194m | 5.2m/s | -52.9°C | 0% | 0hPa | 0V | 00:00:00 | 00:00:00 | 00:00:00 | |
| OM5KV | 2026-09-05 16:51:06 | 50.75146 | 17.29303 | 98° | 89km/h | 16190m | 2.1m/s | -53.0°C | 0% | 0hPa | 0V | 00:00:00 | 00:00:00 | 00:00:00 | |
| SQ6EMJ | 2026-09-05 16:51:04 | 50.75163 | 17.29220 | 106° | 77km/h | 16180m | 3.8m/s | -53.0°C | 0% | 0hPa | 0V | 00:00:00 | 00:00:00 | 00:00:00 | |
| OE5DRO-10 | 2026-09-05 16:51:01 | 50.75170 | 17.29153 | 101° | 78km/h | 16163m | 5.0m/s | 0°C | 0% | 0hPa | 0V | 00:00:00 | 00:00:00 | 00:00:00 | |
| OM5KV | 2026-09-05 16:50:59 | 50.75182 | 17.29099 | 114° | 66km/h | 16166m | 1.2m/s | -53.2°C | 0% | 0hPa | 0V | 00:00:00 | 00:00:00 | 00:00:00 | |
| SQ6EMJ | 2026-09-05 16:50:57 | 50.75190 | 17.29037 | 99° | 95km/h | 16159m | 3.0m/s | -53.3°C | 0% | 0hPa | 0V | 00:00:00 | 00:00:00 | 00:00:00 | |
| PETON7-10 | 2026-09-05 16:50:54 | 50.75210 | 17.28956 | 105° | 78km/h | 16145m | 5.4m/s | 0°C | 0% | 0hPa | 0V | 00:00:00 | 00:00:00 | 00:00:00 | |
| SQ6EMJ | 2026-09-05 16:50:52 | 50.75221 | 17.28885 | 103° | 95km/h | 16141m | 2.3m/s | -53.3°C | 0% | 0hPa | 0V | 00:00:00 | 00:00:00 | 00:00:00 | |
| NBG1-10 | 2026-09-05 16:50:49 | 50.75242 | 17.28802 | 114° | 78km/h | 16121m | 4.9m/s | 0°C | 0% | 0hPa | 0V | 00:00:00 | 00:00:00 | 00:00:00 | |
| OM5KV | 2026-09-05 16:50:48 | 50.75248 | 17.28772 | 107° | 89km/h | 16128m | 5.1m/s | -53.1°C | 0% | 0hPa | 0V | 00:00:00 | 00:00:00 | 00:00:00 | |
| SQ6EMJ | 2026-09-05 16:50:47 | 50.75261 | 17.28704 | 112° | 77km/h | 16121m | 4.9m/s | -53.2°C | 0% | 0hPa | 0V | 00:00:00 | 00:00:00 | 00:00:00 | |
| POL1PZ | 2026-09-05 16:50:46 | 50.75261 | 17.28704 | 112° | 77km/h | 16121m | 4.9m/s | -53.2°C | 0% | 0hPa | 0V | 00:00:00 | 00:00:00 | 00:00:00 | |
| OE5DRO-10 | 2026-09-05 16:50:42 | 50.75287 | 17.28587 | 107° | 78km/h | 16104m | 4.5m/s | 0°C | 0% | 0hPa | 0V | 00:00:00 | 00:00:00 | 00:00:00 | |
| SP3BTT-10 | 2026-09-05 16:50:41 | 50.75295 | 17.28556 | 120° | 77km/h | 16100m | 2.4m/s | 0°C | 0% | 0hPa | 0V | 00:00:00 | 00:00:00 | 00:00:00 | |
| PETON7-10 | 2026-09-05 16:50:39 | 50.75309 | 17.28510 | 104° | 78km/h | 16093m | 4.8m/s | 0°C | 0% | 0hPa | 0V | 00:00:00 | 00:00:00 | 00:00:00 | |
| SQ6EMJ | 2026-09-05 16:50:36 | 50.75335 | 17.28386 | 122° | 64km/h | 16082m | 2.8m/s | -52.8°C | 0% | 0hPa | 0V | 00:00:00 | 00:00:00 | 00:00:00 | |
| SP6BVK | 2026-09-05 16:50:33 | 50.75350 | 17.28329 | 105° | 93km/h | 16075m | 3.6m/s | -52.7°C | 0% | 0hPa | 0V | 00:00:00 | 00:00:00 | 00:00:00 | |
| OM5KV | 2026-09-05 16:50:31 | 50.75379 | 17.28218 | 110° | 82km/h | 16062m | 5.5m/s | -52.7°C | 0% | 0hPa | 0V | 00:00:00 | 00:00:00 | 00:00:00 | |
| SQ6EMJ | 2026-09-05 16:50:29 | 50.75379 | 17.28218 | 110° | 82km/h | 16062m | 5.5m/s | -52.7°C | 0% | 0hPa | 0V | 00:00:00 | 00:00:00 | 00:00:00 | |
| POL1PZ | 2026-09-05 16:50:26 | 50.75398 | 17.28125 | 125° | 68km/h | 16050m | 4.9m/s | -52.7°C | 0% | 0hPa | 0V | 00:00:00 | 00:00:00 | 00:00:00 | |
| SQ6EMJ | 2026-09-05 16:50:24 | 50.75415 | 17.28073 | 108° | 84km/h | 16043m | 4.7m/s | -52.7°C | 0% | 0hPa | 0V | 00:00:00 | 00:00:00 | 00:00:00 | |
| OE5DRO-10 | 2026-09-05 16:50:23 | 50.75421 | 17.28040 | 104° | 80km/h | 16038m | 4.3m/s | 0°C | 0% | 0hPa | 0V | 00:00:00 | 00:00:00 | 00:00:00 | |
| SQ6EMJ | 2026-09-05 16:50:19 | 50.75462 | 17.27898 | 108° | 86km/h | 16023m | 2.0m/s | -52.6°C | 0% | 0hPa | 0V | 00:00:00 | 00:00:00 | 00:00:00 | |
| OM5KV | 2026-09-05 16:50:16 | 50.75479 | 17.27845 | 128° | 68km/h | 16016m | 2.5m/s | -52.7°C | 0% | 0hPa | 0V | 00:00:00 | 00:00:00 | 00:00:00 | |
| NBG1-10 | 2026-09-05 16:50:15 | 50.75488 | 17.27817 | 105° | 84km/h | 15990m | 3.9m/s | 0°C | 0% | 0hPa | 0V | 00:00:00 | 00:00:00 | 00:00:00 | |
| SP6BVK | 2026-09-05 16:50:13 | 50.75501 | 17.27758 | 112° | 78km/h | 16007m | 2.6m/s | -52.8°C | 0% | 0hPa | 0V | 00:00:00 | 00:00:00 | 00:00:00 | |
| SP3BTT-10 | 2026-09-05 16:50:11 | 50.75519 | 17.27716 | 113° | 84km/h | 15996m | 4.4m/s | 0°C | 0% | 0hPa | 0V | 00:00:00 | 00:00:00 | 00:00:00 | |
| PETON7-10 | 2026-09-05 16:50:09 | 50.75535 | 17.27645 | 117° | 80km/h | 15990m | 3.9m/s | 0°C | 0% | 0hPa | 0V | 00:00:00 | 00:00:00 | 00:00:00 | |
| SQ6EMJ | 2026-09-05 16:50:08 | 50.75553 | 17.27598 | 131° | 69km/h | 15986m | 3.3m/s | -52.8°C | 0% | 0hPa | 0V | 00:00:00 | 00:00:00 | 00:00:00 | |
| OM5KV | 2026-09-05 16:50:06 | 50.75572 | 17.27544 | 111° | 89km/h | 15980m | 4.7m/s | -52.8°C | 0% | 0hPa | 0V | 00:00:00 | 00:00:00 | 00:00:00 | |
| POL1PZ | 2026-09-05 16:50:05 | 50.75572 | 17.27544 | 111° | 89km/h | 15980m | 4.7m/s | -52.8°C | 0% | 0hPa | 0V | 00:00:00 | 00:00:00 | 00:00:00 | |
| OE5DRO-10 | 2026-09-05 16:50:04 | 50.75580 | 17.27511 | 110° | 84km/h | 15973m | 5.5m/s | 0°C | 0% | 0hPa | 0V | 00:00:00 | 00:00:00 | 00:00:00 | |
| SQ6EMJ | 2026-09-05 16:50:02 | 50.75611 | 17.27435 | 121° | 78km/h | 15967m | 2.9m/s | -52.8°C | 0% | 0hPa | 0V | 00:00:00 | 00:00:00 | 00:00:00 | |
| OM5KV | 2026-09-05 16:49:59 | 50.75627 | 17.27371 | 113° | 88km/h | 15961m | 2.1m/s | -52.8°C | 0% | 0hPa | 0V | 00:00:00 | 00:00:00 | 00:00:00 | |
| SQ6EMJ | 2026-09-05 16:49:56 | 50.75658 | 17.27291 | 116° | 82km/h | 15951m | 4.2m/s | -52.8°C | 0% | 0hPa | 0V | 00:00:00 | 00:00:00 | 00:00:00 | |
| PETON7-10 | 2026-09-05 16:49:54 | 50.75674 | 17.27224 | 130° | 86km/h | 15942m | 4.0m/s | 0°C | 0% | 0hPa | 0V | 00:00:00 | 00:00:00 | 00:00:00 | |
| SP6BVK | 2026-09-05 16:49:52 | 50.75696 | 17.27175 | 125° | 80km/h | 15939m | 1.9m/s | -52.8°C | 0% | 0hPa | 0V | 00:00:00 | 00:00:00 | 00:00:00 | |
| SQ6EMJ | 2026-09-05 16:49:51 | 50.75714 | 17.27110 | 109° | 95km/h | 15931m | 2.0m/s | -52.9°C | 0% | 0hPa | 0V | 00:00:00 | 00:00:00 | 00:00:00 | |
| OM5KV | 2026-09-05 16:49:48 | 50.75746 | 17.27026 | 121° | 82km/h | 15922m | 2.8m/s | -53.0°C | 0% | 0hPa | 0V | 00:00:00 | 00:00:00 | 00:00:00 | |
| OE3JTB-15 | 2026-09-05 16:49:47 | 50.75746 | 17.27034 | 126° | 91km/h | 15908m | 1.2m/s | 0°C | 0% | 0hPa | 0V | 00:00:00 | 00:00:00 | 00:00:00 | |
| OE5DRO-10 | 2026-09-05 16:49:45 | 50.75764 | 17.26959 | 126° | 89km/h | 15911m | 4.7m/s | 0°C | 0% | 0hPa | 0V | 00:00:00 | 00:00:00 | 00:00:00 | |
| SQ6EMJ | 2026-09-05 16:49:44 | 50.75774 | 17.26927 | 124° | 82km/h | 15911m | 4.7m/s | -53.0°C | 0% | 0hPa | 0V | 00:00:00 | 00:00:00 | 00:00:00 | |
| NBG1-10 | 2026-09-05 16:49:42 | 50.75796 | 17.26872 | 115° | 89km/h | 15890m | 4.5m/s | 0°C | 0% | 0hPa | 0V | 00:00:00 | 00:00:00 | 00:00:00 | |
| SP3BTT-10 | 2026-09-05 16:49:41 | 50.75804 | 17.26830 | 117° | 93km/h | 15900m | 3.2m/s | 0°C | 0% | 0hPa | 0V | 00:00:00 | 00:00:00 | 00:00:00 | |
| OM5KV | 2026-09-05 16:49:40 | 50.75813 | 17.26802 | 117° | 91km/h | 15900m | 3.2m/s | -53.0°C | 0% | 0hPa | 0V | 00:00:00 | 00:00:00 | 00:00:00 | |
| PETON7-10 | 2026-09-05 16:49:39 | 50.75825 | 17.26777 | 124° | 91km/h | 15893m | 2.1m/s | 0°C | 0% | 0hPa | 0V | 00:00:00 | 00:00:00 | 00:00:00 | |
| SQ6EMJ | 2026-09-05 16:49:34 | 50.75890 | 17.26585 | 118° | 88km/h | 15878m | 3.3m/s | -53.0°C | 0% | 0hPa | 0V | 00:00:00 | 00:00:00 | 00:00:00 | |
| SP6BVK | 2026-09-05 16:49:32 | 50.75899 | 17.26550 | 108° | 100km/h | 15875m | 4.0m/s | -53.0°C | 0% | 0hPa | 0V | 00:00:00 | 00:00:00 | 00:00:00 | |
| OM5KV | 2026-09-05 16:49:28 | 50.75938 | 17.26421 | 114° | 95km/h | 15861m | 4.5m/s | -53.1°C | 0% | 0hPa | 0V | 00:00:00 | 00:00:00 | 00:00:00 | |
| OE5DRO-10 | 2026-09-05 16:49:26 | 50.75956 | 17.26345 | 116° | 93km/h | 15849m | 2.5m/s | 0°C | 0% | 0hPa | 0V | 00:00:00 | 00:00:00 | 00:00:00 | |
| PETON7-10 | 2026-09-05 16:49:24 | 50.75978 | 17.26286 | 119° | 95km/h | 15845m | 5.0m/s | 0°C | 0% | 0hPa | 0V | 00:00:00 | 00:00:00 | 00:00:00 | |
| OM5KV | 2026-09-05 16:49:22 | 50.75996 | 17.26212 | 109° | 102km/h | 15841m | 2.1m/s | -53.4°C | 0% | 0hPa | 0V | 00:00:00 | 00:00:00 | 00:00:00 | |
| SQ6EMJ | 2026-09-05 16:49:17 | 50.76044 | 17.26036 | 110° | 93km/h | 15827m | 2.6m/s | -53.5°C | 0% | 0hPa | 0V | 00:00:00 | 00:00:00 | 00:00:00 | |
| OM5KV | 2026-09-05 16:49:14 | 50.76076 | 17.25939 | 111° | 100km/h | 15816m | 4.6m/s | -53.5°C | 0% | 0hPa | 0V | 00:00:00 | 00:00:00 | 00:00:00 | |
| SP6BVK | 2026-09-05 16:49:12 | 50.76100 | 17.25836 | 126° | 86km/h | 15807m | 2.6m/s | -53.4°C | 0% | 0hPa | 0V | 00:00:00 | 00:00:00 | 00:00:00 | |
| SP3BTT-10 | 2026-09-05 16:49:11 | 50.76100 | 17.25836 | 125° | 89km/h | 15804m | 2.7m/s | 0°C | 0% | 0hPa | 0V | 00:00:00 | 00:00:00 | 00:00:00 | |
| OE5DRO-10 | 2026-09-05 16:49:07 | 50.76135 | 17.25700 | 117° | 91km/h | 15791m | 2.1m/s | 0°C | 0% | 0hPa | 0V | 00:00:00 | 00:00:00 | 00:00:00 | |
| SQ6EMJ | 2026-09-05 16:49:06 | 50.76156 | 17.25640 | 114° | 91km/h | 15789m | 3.6m/s | -53.2°C | 0% | 0hPa | 0V | 00:00:00 | 00:00:00 | 00:00:00 | |
| OM5KV | 2026-09-05 16:49:05 | 50.76156 | 17.25640 | 114° | 91km/h | 15789m | 3.6m/s | -53.2°C | 0% | 0hPa | 0V | 00:00:00 | 00:00:00 | 00:00:00 | |
| POL1PZ | 2026-09-05 16:49:04 | 50.76164 | 17.25604 | 105° | 100km/h | 15786m | 2.7m/s | -53.2°C | 0% | 0hPa | 0V | 00:00:00 | 00:00:00 | 00:00:00 | |
| SQ6EMJ | 2026-09-05 16:49:02 | 50.76202 | 17.25473 | 110° | 95km/h | 15773m | 5.2m/s | -53.1°C | 0% | 0hPa | 0V | 00:00:00 | 00:00:00 | 00:00:00 | |
| OM5KV | 2026-09-05 16:48:59 | 50.76208 | 17.25436 | 105° | 100km/h | 15770m | 2.3m/s | -53.1°C | 0% | 0hPa | 0V | 00:00:00 | 00:00:00 | 00:00:00 | |
| SQ6EMJ | 2026-09-05 16:48:55 | 50.76253 | 17.25268 | 108° | 93km/h | 15755m | 2.5m/s | -53.1°C | 0% | 0hPa | 0V | 00:00:00 | 00:00:00 | 00:00:00 | |
| PETON7-10 | 2026-09-05 16:48:54 | 50.76253 | 17.25268 | 108° | 89km/h | 15751m | 4.5m/s | 0°C | 0% | 0hPa | 0V | 00:00:00 | 00:00:00 | 00:00:00 | |
| SQ6EMJ | 2026-09-05 16:48:50 | 50.76294 | 17.25102 | 111° | 91km/h | 15739m | 3.1m/s | -53.1°C | 0% | 0hPa | 0V | 00:00:00 | 00:00:00 | 00:00:00 | |
| OE3JTB-15 | 2026-09-05 16:48:48 | 50.76303 | 17.25071 | 122° | 91km/h | 15733m | 2.2m/s | 0°C | 0% | 0hPa | 0V | 00:00:00 | 00:00:00 | 00:00:00 | |
| OM5KV | 2026-09-05 16:48:45 | 50.76327 | 17.24971 | 104° | 99km/h | 15726m | 2.0m/s | -53.1°C | 0% | 0hPa | 0V | 00:00:00 | 00:00:00 | 00:00:00 | |
| SQ6EMJ | 2026-09-05 16:48:44 | 50.76344 | 17.24905 | 123° | 82km/h | 15719m | 2.2m/s | -53.1°C | 0% | 0hPa | 0V | 00:00:00 | 00:00:00 | 00:00:00 | |
| POL1PZ | 2026-09-05 16:48:43 | 50.76344 | 17.24905 | 123° | 82km/h | 15719m | 2.2m/s | -53.1°C | 0% | 0hPa | 0V | 00:00:00 | 00:00:00 | 00:00:00 | |
| SP3BTT-10 | 2026-09-05 16:48:41 | 50.76360 | 17.24840 | 101° | 91km/h | 15709m | 2.2m/s | 0°C | 0% | 0hPa | 0V | 00:00:00 | 00:00:00 | 00:00:00 | |
| PETON7-10 | 2026-09-05 16:48:39 | 50.76373 | 17.24769 | 117° | 89km/h | 15703m | 1.9m/s | 0°C | 0% | 0hPa | 0V | 00:00:00 | 00:00:00 | 00:00:00 | |
| SQ6EMJ | 2026-09-05 16:48:37 | 50.76393 | 17.24706 | 109° | 91km/h | 15700m | 4.0m/s | -52.8°C | 0% | 0hPa | 0V | 00:00:00 | 00:00:00 | 00:00:00 | |
| OM5KV | 2026-09-05 16:48:34 | 50.76413 | 17.24604 | 123° | 86km/h | 15691m | 3.6m/s | -52.8°C | 0% | 0hPa | 0V | 00:00:00 | 00:00:00 | 00:00:00 | |
| SQ6EMJ | 2026-09-05 16:48:31 | 50.76435 | 17.24504 | 99° | 88km/h | 15681m | 2.3m/s | -52.8°C | 0% | 0hPa | 0V | 00:00:00 | 00:00:00 | 00:00:00 | |
| SP6BVK | 2026-09-05 16:48:30 | 50.76441 | 17.24471 | 113° | 84km/h | 15678m | 3.8m/s | -52.8°C | 0% | 0hPa | 0V | 00:00:00 | 00:00:00 | 00:00:00 | |
| OM5KV | 2026-09-05 16:48:29 | 50.76460 | 17.24406 | 111° | 95km/h | 15673m | 3.4m/s | -52.7°C | 0% | 0hPa | 0V | 00:00:00 | 00:00:00 | 00:00:00 | |
| SQ6EMJ | 2026-09-05 16:48:25 | 50.76478 | 17.24304 | 117° | 88km/h | 15662m | 4.7m/s | -52.7°C | 0% | 0hPa | 0V | 00:00:00 | 00:00:00 | 00:00:00 | |
| PETON7-10 | 2026-09-05 16:48:24 | 50.76488 | 17.24272 | 116° | 89km/h | 15655m | 4.8m/s | 0°C | 0% | 0hPa | 0V | 00:00:00 | 00:00:00 | 00:00:00 | |
| OM5KV | 2026-09-05 16:48:23 | 50.76496 | 17.24236 | 105° | 95km/h | 15655m | 4.9m/s | -52.7°C | 0% | 0hPa | 0V | 00:00:00 | 00:00:00 | 00:00:00 | |
| POL1PZ | 2026-09-05 16:48:22 | 50.76500 | 17.24200 | 97° | 91km/h | 15652m | 2.5m/s | -52.7°C | 0% | 0hPa | 0V | 00:00:00 | 00:00:00 | 00:00:00 | |
| SQ6EMJ | 2026-09-05 16:48:20 | 50.76512 | 17.24134 | 119° | 88km/h | 15643m | 2.6m/s | -52.7°C | 0% | 0hPa | 0V | 00:00:00 | 00:00:00 | 00:00:00 | |
| OE3JTB-15 | 2026-09-05 16:48:19 | 50.76522 | 17.24085 | 112° | 89km/h | 15639m | 5.1m/s | 0°C | 0% | 0hPa | 0V | 00:00:00 | 00:00:00 | 00:00:00 | |
| NBG1-10 | 2026-09-05 16:48:15 | 50.76546 | 17.23963 | 120° | 93km/h | 15586m | 4.3m/s | 0°C | 0% | 0hPa | 0V | 00:00:00 | 00:00:00 | 00:00:00 | |
| OM5KV | 2026-09-05 16:48:14 | 50.76554 | 17.23933 | 107° | 84km/h | 15627m | 3.5m/s | -52.7°C | 0% | 0hPa | 0V | 00:00:00 | 00:00:00 | 00:00:00 | |
| SQ6EMJ | 2026-09-05 16:48:13 | 50.76558 | 17.23897 | 97° | 100km/h | 15623m | 4.6m/s | -52.7°C | 0% | 0hPa | 0V | 00:00:00 | 00:00:00 | 00:00:00 | |
| SP3BTT-10 | 2026-09-05 16:48:11 | 50.76569 | 17.23822 | 113° | 86km/h | 15612m | 2.5m/s | 0°C | 0% | 0hPa | 0V | 00:00:00 | 00:00:00 | 00:00:00 | |
| PETON7-10 | 2026-09-05 16:48:09 | 50.76583 | 17.23762 | 102° | 91km/h | 15606m | 3.2m/s | 0°C | 0% | 0hPa | 0V | 00:00:00 | 00:00:00 | 00:00:00 | |
| OE5DRO-10 | 2026-09-05 16:48:07 | 50.76592 | 17.23684 | 106° | 91km/h | 15599m | 3.9m/s | 0°C | 0% | 0hPa | 0V | 00:00:00 | 00:00:00 | 00:00:00 | |
| POL1PZ | 2026-09-05 16:48:02 | 50.76621 | 17.23510 | 109° | 89km/h | 15586m | 4.2m/s | -52.5°C | 0% | 0hPa | 0V | 00:00:00 | 00:00:00 | 00:00:00 | |
| OM5KV | 2026-09-05 16:48:00 | 50.76636 | 17.23447 | 106° | 89km/h | 15580m | 3.5m/s | -52.4°C | 0% | 0hPa | 0V | 00:00:00 | 00:00:00 | 00:00:00 | |
| SQ6EMJ | 2026-09-05 16:47:57 | 50.76657 | 17.23302 | 114° | 89km/h | 15567m | 1.1m/s | -52.4°C | 0% | 0hPa | 0V | 00:00:00 | 00:00:00 | 00:00:00 | |
| OM5KV | 2026-09-05 16:47:55 | 50.76667 | 17.23229 | 93° | 99km/h | 15561m | 2.9m/s | -52.4°C | 0% | 0hPa | 0V | 00:00:00 | 00:00:00 | 00:00:00 | |
| PETON7-10 | 2026-09-05 16:47:54 | 50.76667 | 17.23229 | 92° | 88km/h | 15558m | 2.8m/s | 0°C | 0% | 0hPa | 0V | 00:00:00 | 00:00:00 | 00:00:00 | |
| SQ6EMJ | 2026-09-05 16:47:50 | 50.76690 | 17.23092 | 99° | 91km/h | 15547m | 5.2m/s | -52.4°C | 0% | 0hPa | 0V | 00:00:00 | 00:00:00 | 00:00:00 | |
| SP6BVK | 2026-09-05 16:47:49 | 50.76692 | 17.23056 | 95° | 95km/h | 15544m | 1.3m/s | -52.4°C | 0% | 0hPa | 0V | 00:00:00 | 00:00:00 | 00:00:00 | |
| OE3JTB-15 | 2026-09-05 16:47:48 | 50.76695 | 17.23019 | 105° | 82km/h | 15528m | 5.1m/s | 0°C | 0% | 0hPa | 0V | 00:00:00 | 00:00:00 | 00:00:00 | |
| SQ6EMJ | 2026-09-05 16:47:44 | 50.76717 | 17.22891 | 97° | 89km/h | 15525m | 1.9m/s | -52.3°C | 0% | 0hPa | 0V | 00:00:00 | 00:00:00 | 00:00:00 | |
| OM5KV | 2026-09-05 16:47:42 | 50.76737 | 17.22795 | 103° | 84km/h | 15515m | 3.8m/s | -52.2°C | 0% | 0hPa | 0V | 00:00:00 | 00:00:00 | 00:00:00 | |
| POL1PZ | 2026-09-05 16:47:41 | 50.76737 | 17.22795 | 103° | 84km/h | 15515m | 3.8m/s | -52.2°C | 0% | 0hPa | 0V | 00:00:00 | 00:00:00 | 00:00:00 | |
| SP3BTT-10 | 2026-09-05 16:47:40 | 50.76739 | 17.22760 | 100° | 80km/h | 15509m | 2.5m/s | 0°C | 0% | 0hPa | 0V | 00:00:00 | 00:00:00 | 00:00:00 | |
| SQ6EMJ | 2026-09-05 16:47:39 | 50.76747 | 17.22696 | 116° | 88km/h | 15505m | 5.1m/s | -52.2°C | 0% | 0hPa | 0V | 00:00:00 | 00:00:00 | 00:00:00 | |
| OM5KV | 2026-09-05 16:47:36 | 50.76762 | 17.22631 | 101° | 82km/h | 15499m | 4.6m/s | -52.1°C | 0% | 0hPa | 0V | 00:00:00 | 00:00:00 | 00:00:00 | |
| SQ6EMJ | 2026-09-05 16:47:33 | 50.76781 | 17.22506 | 110° | 88km/h | 15486m | 2.3m/s | -52.1°C | 0% | 0hPa | 0V | 00:00:00 | 00:00:00 | 00:00:00 | |
| SP6BVK | 2026-09-05 16:47:29 | 50.76800 | 17.22385 | 116° | 91km/h | 15474m | 1.9m/s | -51.9°C | 0% | 0hPa | 0V | 00:00:00 | 00:00:00 | 00:00:00 | |
| SQ6EMJ | 2026-09-05 16:47:27 | 50.76811 | 17.22323 | 93° | 71km/h | 15468m | 4.8m/s | -51.9°C | 0% | 0hPa | 0V | 00:00:00 | 00:00:00 | 00:00:00 | |
| OM5KV | 2026-09-05 16:47:25 | 50.76813 | 17.22294 | 99° | 73km/h | 15464m | 2.8m/s | -51.8°C | 0% | 0hPa | 0V | 00:00:00 | 00:00:00 | 00:00:00 | |
| PETON7-10 | 2026-09-05 16:47:24 | 50.76818 | 17.22264 | 110° | 78km/h | 15456m | 2.7m/s | 0°C | 0% | 0hPa | 0V | 00:00:00 | 00:00:00 | 00:00:00 | |
| SQ6EMJ | 2026-09-05 16:47:22 | 50.76834 | 17.22171 | 99° | 69km/h | 15450m | 2.3m/s | -51.8°C | 0% | 0hPa | 0V | 00:00:00 | 00:00:00 | 00:00:00 | |
| POL1PZ | 2026-09-05 16:47:21 | 50.76834 | 17.22171 | 99° | 69km/h | 15450m | 2.3m/s | -51.8°C | 0% | 0hPa | 0V | 00:00:00 | 00:00:00 | 00:00:00 | |
| OM5KV | 2026-09-05 16:47:19 | 50.76846 | 17.22111 | 113° | 89km/h | 15444m | 2.3m/s | -51.7°C | 0% | 0hPa | 0V | 00:00:00 | 00:00:00 | 00:00:00 | |
| OE3JTB-15 | 2026-09-05 16:47:18 | 50.76853 | 17.22079 | 105° | 77km/h | 15437m | 4.4m/s | 0°C | 0% | 0hPa | 0V | 00:00:00 | 00:00:00 | 00:00:00 | |
| SQ6EMJ | 2026-09-05 16:47:16 | 50.76864 | 17.21992 | 114° | 86km/h | 15430m | 5.5m/s | -51.7°C | 0% | 0hPa | 0V | 00:00:00 | 00:00:00 | 00:00:00 | |
| OM5KV | 2026-09-05 16:47:13 | 50.76878 | 17.21928 | 102° | 77km/h | 15423m | 5.2m/s | -51.6°C | 0% | 0hPa | 0V | 00:00:00 | 00:00:00 | 00:00:00 | |
| OE5DRO-10 | 2026-09-05 16:47:10 | 50.76891 | 17.21841 | 112° | 75km/h | 15409m | 2.6m/s | 0°C | 0% | 0hPa | 0V | 00:00:00 | 00:00:00 | 00:00:00 | |
| PETON7-10 | 2026-09-05 16:47:09 | 50.76900 | 17.21812 | 112° | 77km/h | 15405m | 5.5m/s | 0°C | 0% | 0hPa | 0V | 00:00:00 | 00:00:00 | 00:00:00 | |
| SP6BVK | 2026-09-05 16:47:08 | 50.76906 | 17.21782 | 101° | 69km/h | 15405m | 5.6m/s | -51.5°C | 0% | 0hPa | 0V | 00:00:00 | 00:00:00 | 00:00:00 | |
| SQ6EMJ | 2026-09-05 16:47:04 | 50.76929 | 17.21664 | 113° | 77km/h | 15391m | 3.3m/s | -51.3°C | 0% | 0hPa | 0V | 00:00:00 | 00:00:00 | 00:00:00 | |
| OM5KV | 2026-09-05 16:47:03 | 50.76937 | 17.21612 | 103° | 71km/h | 15385m | 2.3m/s | -51.3°C | 0% | 0hPa | 0V | 00:00:00 | 00:00:00 | 00:00:00 | |
| POL1PZ | 2026-09-05 16:47:00 | 50.76952 | 17.21549 | 116° | 89km/h | 15377m | 1.8m/s | -51.3°C | 0% | 0hPa | 0V | 00:00:00 | 00:00:00 | 00:00:00 | |
| SQ6EMJ | 2026-09-05 16:46:59 | 50.76964 | 17.21497 | 100° | 55km/h | 15369m | 2.8m/s | -51.2°C | 0% | 0hPa | 0V | 00:00:00 | 00:00:00 | 00:00:00 | |
| OM5KV | 2026-09-05 16:46:57 | 50.76968 | 17.21472 | 106° | 71km/h | 15367m | 3.1m/s | -51.2°C | 0% | 0hPa | 0V | 00:00:00 | 00:00:00 | 00:00:00 | |
| PETON7-10 | 2026-09-05 16:46:54 | 50.76990 | 17.21378 | 108° | 75km/h | 15352m | 2.5m/s | 0°C | 0% | 0hPa | 0V | 00:00:00 | 00:00:00 | 00:00:00 | |
| SQ6EMJ | 2026-09-05 16:46:53 | 50.76994 | 17.21353 | 106° | 57km/h | 15352m | 2.5m/s | -51.1°C | 0% | 0hPa | 0V | 00:00:00 | 00:00:00 | 00:00:00 | |
| OE5DRO-10 | 2026-09-05 16:46:51 | 50.77007 | 17.21297 | 113° | 77km/h | 15344m | 2.2m/s | 0°C | 0% | 0hPa | 0V | 00:00:00 | 00:00:00 | 00:00:00 | |
| OM5KV | 2026-09-05 16:46:50 | 50.77015 | 17.21264 | 111° | 86km/h | 15344m | 2.2m/s | -51.0°C | 0% | 0hPa | 0V | 00:00:00 | 00:00:00 | 00:00:00 | |
| OE3JTB-15 | 2026-09-05 16:46:49 | 50.77021 | 17.21236 | 107° | 78km/h | 15333m | 3.5m/s | 0°C | 0% | 0hPa | 0V | 00:00:00 | 00:00:00 | 00:00:00 | |
| SQ6EMJ | 2026-09-05 16:46:48 | 50.77032 | 17.21189 | 114° | 75km/h | 15333m | 3.6m/s | -50.9°C | 0% | 0hPa | 0V | 00:00:00 | 00:00:00 | 00:00:00 | |
| SP6BVK | 2026-09-05 16:46:47 | 50.77032 | 17.21189 | 114° | 75km/h | 15333m | 3.6m/s | -50.9°C | 0% | 0hPa | 0V | 00:00:00 | 00:00:00 | 00:00:00 | |
| OE5MMP-10 | 2026-09-05 16:46:44 | 50.77054 | 17.21098 | 108° | 68km/h | 15323m | 5.4m/s | 0°C | 0% | 0hPa | 0V | 00:00:00 | 00:00:00 | 00:00:00 | |
| SQ6EMJ | 2026-09-05 16:46:42 | 50.77066 | 17.21049 | 113° | 82km/h | 15316m | 5.0m/s | -50.9°C | 0% | 0hPa | 0V | 00:00:00 | 00:00:00 | 00:00:00 | |
| SP3BTT-10 | 2026-09-05 16:46:40 | 50.77082 | 17.20985 | 113° | 78km/h | 15305m | 3.5m/s | 0°C | 0% | 0hPa | 0V | 00:00:00 | 00:00:00 | 00:00:00 | |
| PETON7-10 | 2026-09-05 16:46:39 | 50.77088 | 17.20962 | 113° | 77km/h | 15302m | 2.9m/s | 0°C | 0% | 0hPa | 0V | 00:00:00 | 00:00:00 | 00:00:00 | |
| SQ6EMJ | 2026-09-05 16:46:37 | 50.77110 | 17.20877 | 113° | 88km/h | 15295m | 3.0m/s | -51.0°C | 0% | 0hPa | 0V | 00:00:00 | 00:00:00 | 00:00:00 | |
| OM5KV | 2026-09-05 16:46:33 | 50.77141 | 17.20767 | 112° | 93km/h | 15281m | 2.9m/s | -51.0°C | 0% | 0hPa | 0V | 00:00:00 | 00:00:00 | 00:00:00 | |
| OE5DRO-10 | 2026-09-05 16:46:32 | 50.77149 | 17.20732 | 118° | 82km/h | 15274m | 4.0m/s | 0°C | 0% | 0hPa | 0V | 00:00:00 | 00:00:00 | 00:00:00 | |
| SP6BVK | 2026-09-05 16:46:27 | 50.77183 | 17.20621 | 112° | 93km/h | 15263m | 2.7m/s | -51.0°C | 0% | 0hPa | 0V | 00:00:00 | 00:00:00 | 00:00:00 | |
| SQ6EMJ | 2026-09-05 16:46:25 | 50.77198 | 17.20564 | 118° | 66km/h | 15257m | 2.7m/s | -50.9°C | 0% | 0hPa | 0V | 00:00:00 | 00:00:00 | 00:00:00 | |
| PETON7-10 | 2026-09-05 16:46:24 | 50.77206 | 17.20537 | 115° | 82km/h | 15250m | 3.0m/s | 0°C | 0% | 0hPa | 0V | 00:00:00 | 00:00:00 | 00:00:00 | |
| OE3JTB-15 | 2026-09-05 16:46:20 | 50.77238 | 17.20419 | 116° | 86km/h | 15236m | 5.3m/s | 0°C | 0% | 0hPa | 0V | 00:00:00 | 00:00:00 | 00:00:00 | |
| POL1PZ | 2026-09-05 16:46:19 | 50.77246 | 17.20389 | 114° | 93km/h | 15236m | 5.3m/s | -51.0°C | 0% | 0hPa | 0V | 00:00:00 | 00:00:00 | 00:00:00 | |
| OM5KV | 2026-09-05 16:46:18 | 50.77255 | 17.20353 | 112° | 99km/h | 15232m | 1.8m/s | -51.0°C | 0% | 0hPa | 0V | 00:00:00 | 00:00:00 | 00:00:00 | |
| OE5MMP-10 | 2026-09-05 16:46:17 | 50.77263 | 17.20320 | 112° | 84km/h | 15210m | 5.2m/s | 0°C | 0% | 0hPa | 0V | 00:00:00 | 00:00:00 | 00:00:00 | |
| SQ6EMJ | 2026-09-05 16:46:15 | 50.77286 | 17.20235 | 113° | 102km/h | 15217m | 5.5m/s | -50.9°C | 0% | 0hPa | 0V | 00:00:00 | 00:00:00 | 00:00:00 | |
| OE5DRO-10 | 2026-09-05 16:46:12 | 50.77303 | 17.20168 | 115° | 88km/h | 15206m | 2.4m/s | 0°C | 0% | 0hPa | 0V | 00:00:00 | 00:00:00 | 00:00:00 | |
| SP3BTT-10 | 2026-09-05 16:46:10 | 50.77318 | 17.20113 | 114° | 91km/h | 15203m | 4.3m/s | 0°C | 0% | 0hPa | 0V | 00:00:00 | 00:00:00 | 00:00:00 | |
| PETON7-10 | 2026-09-05 16:46:09 | 50.77327 | 17.20078 | 111° | 88km/h | 15196m | 3.2m/s | 0°C | 0% | 0hPa | 0V | 00:00:00 | 00:00:00 | 00:00:00 | |
| SP6BVK | 2026-09-05 16:46:06 | 50.77350 | 17.19984 | 115° | 75km/h | 15188m | 2.0m/s | -50.7°C | 0% | 0hPa | 0V | 00:00:00 | 00:00:00 | 00:00:00 | |
| SQ6EMJ | 2026-09-05 16:46:02 | 50.77382 | 17.19852 | 116° | 69km/h | 15174m | 3.4m/s | -50.5°C | 0% | 0hPa | 0V | 00:00:00 | 00:00:00 | 00:00:00 | |
| OE5MMP-10 | 2026-09-05 16:46:01 | 50.77390 | 17.19827 | 110° | 89km/h | 15167m | 4.4m/s | 0°C | 0% | 0hPa | 0V | 00:00:00 | 00:00:00 | 00:00:00 | |
| POL1PZ | 2026-09-05 16:45:59 | 50.77407 | 17.19753 | 110° | 95km/h | 15164m | 2.7m/s | -50.4°C | 0% | 0hPa | 0V | 00:00:00 | 00:00:00 | 00:00:00 | |
| SQ6EMJ | 2026-09-05 16:45:57 | 50.77423 | 17.19695 | 118° | 75km/h | 15156m | 2.1m/s | -50.5°C | 0% | 0hPa | 0V | 00:00:00 | 00:00:00 | 00:00:00 | |
| OM5KV | 2026-09-05 16:45:56 | 50.77441 | 17.19627 | 110° | 106km/h | 15148m | 4.0m/s | -50.4°C | 0% | 0hPa | 0V | 00:00:00 | 00:00:00 | 00:00:00 | |
| PETON7-10 | 2026-09-05 16:45:54 | 50.77449 | 17.19589 | 109° | 91km/h | 15141m | 3.3m/s | 0°C | 0% | 0hPa | 0V | 00:00:00 | 00:00:00 | 00:00:00 | |
| OE5DRO-10 | 2026-09-05 16:45:53 | 50.77456 | 17.19557 | 110° | 91km/h | 15138m | 3.9m/s | 0°C | 0% | 0hPa | 0V | 00:00:00 | 00:00:00 | 00:00:00 | |
| SQ6EMJ | 2026-09-05 16:45:52 | 50.77473 | 17.19490 | 113° | 104km/h | 15134m | 4.2m/s | -50.4°C | 0% | 0hPa | 0V | 00:00:00 | 00:00:00 | 00:00:00 | |
| OE3JTB-15 | 2026-09-05 16:45:51 | 50.77472 | 17.19490 | 113° | 93km/h | 15130m | 3.4m/s | 0°C | 0% | 0hPa | 0V | 00:00:00 | 00:00:00 | 00:00:00 | |
| OM5KV | 2026-09-05 16:45:50 | 50.77482 | 17.19453 | 114° | 95km/h | 15130m | 3.5m/s | -50.3°C | 0% | 0hPa | 0V | 00:00:00 | 00:00:00 | 00:00:00 | |
| SP6BVK | 2026-09-05 16:45:46 | 50.77512 | 17.19315 | 112° | 106km/h | 15114m | 2.9m/s | -50.2°C | 0% | 0hPa | 0V | 00:00:00 | 00:00:00 | 00:00:00 | |
| SQ6EMJ | 2026-09-05 16:45:41 | 50.77559 | 17.19108 | 112° | 78km/h | 15089m | 4.4m/s | -50.1°C | 0% | 0hPa | 0V | 00:00:00 | 00:00:00 | 00:00:00 | |
| POL1PZ | 2026-09-05 16:45:39 | 50.77571 | 17.19038 | 105° | 110km/h | 15081m | 5.8m/s | -50.1°C | 0% | 0hPa | 0V | 00:00:00 | 00:00:00 | 00:00:00 | |
| OE5DRO-10 | 2026-09-05 16:45:34 | 50.77601 | 17.18896 | 108° | 97km/h | 15062m | 4.2m/s | 0°C | 0% | 0hPa | 0V | 00:00:00 | 00:00:00 | 00:00:00 | |
| SQ6EMJ | 2026-09-05 16:45:29 | 50.77636 | 17.18710 | 107° | 102km/h | 15047m | 5.1m/s | -49.8°C | 0% | 0hPa | 0V | 00:00:00 | 00:00:00 | 00:00:00 | |
| OM5KV | 2026-09-05 16:45:28 | 50.77642 | 17.18668 | 100° | 113km/h | 15043m | 2.5m/s | -49.8°C | 0% | 0hPa | 0V | 00:00:00 | 00:00:00 | 00:00:00 | |
| SP6BVK | 2026-09-05 16:45:26 | 50.77661 | 17.18564 | 114° | 91km/h | 15032m | 3.1m/s | -49.7°C | 0% | 0hPa | 0V | 00:00:00 | 00:00:00 | 00:00:00 | |
| PETON7-10 | 2026-09-05 16:45:24 | 50.77669 | 17.18527 | 104° | 99km/h | 15025m | 0.6m/s | 0°C | 0% | 0hPa | 0V | 00:00:00 | 00:00:00 | 00:00:00 | |
| SQ6EMJ | 2026-09-05 16:45:23 | 50.77674 | 17.18485 | 100° | 106km/h | 15025m | 0.6m/s | -49.7°C | 0% | 0hPa | 0V | 00:00:00 | 00:00:00 | 00:00:00 | |
| OE3JTB-15 | 2026-09-05 16:45:22 | 50.77679 | 17.18465 | 111° | 99km/h | 15017m | 3.2m/s | 0°C | 0% | 0hPa | 0V | 00:00:00 | 00:00:00 | 00:00:00 | |
| SQ6EMJ | 2026-09-05 16:45:19 | 50.77708 | 17.18305 | 102° | 108km/h | 15006m | 3.3m/s | -49.5°C | 0% | 0hPa | 0V | 00:00:00 | 00:00:00 | 00:00:00 | |
| POL1PZ | 2026-09-05 16:45:18 | 50.77708 | 17.18305 | 102° | 108km/h | 15006m | 3.3m/s | -49.5°C | 0% | 0hPa | 0V | 00:00:00 | 00:00:00 | 00:00:00 | |
| OE5DRO-10 | 2026-09-05 16:45:15 | 50.77726 | 17.18197 | 106° | 104km/h | 14993m | 2.7m/s | 0°C | 0% | 0hPa | 0V | 00:00:00 | 00:00:00 | 00:00:00 | |
| SQ6EMJ | 2026-09-05 16:45:13 | 50.77746 | 17.18082 | 109° | 82km/h | 14985m | 3.3m/s | -49.5°C | 0% | 0hPa | 0V | 00:00:00 | 00:00:00 | 00:00:00 | |
| PETON7-10 | 2026-09-05 16:45:09 | 50.77765 | 17.17956 | 102° | 106km/h | 14971m | 4.1m/s | 0°C | 0% | 0hPa | 0V | 00:00:00 | 00:00:00 | 00:00:00 | |
| SQ6EMJ | 2026-09-05 16:45:06 | 50.77782 | 17.17850 | 106° | 104km/h | 14964m | 3.8m/s | -49.4°C | 0% | 0hPa | 0V | 00:00:00 | 00:00:00 | 00:00:00 | |
| SP6BVK | 2026-09-05 16:45:05 | 50.77788 | 17.17806 | 101° | 120km/h | 14960m | 3.9m/s | -49.4°C | 0% | 0hPa | 0V | 00:00:00 | 00:00:00 | 00:00:00 | |
| SQ6EMJ | 2026-09-05 16:45:01 | 50.77813 | 17.17646 | 102° | 111km/h | 14947m | 4.9m/s | -49.7°C | 0% | 0hPa | 0V | 00:00:00 | 00:00:00 | 00:00:00 | |
| OM5KV | 2026-09-05 16:44:58 | 50.77833 | 17.17480 | 107° | 106km/h | 14935m | 3.0m/s | -49.8°C | 0% | 0hPa | 0V | 00:00:00 | 00:00:00 | 00:00:00 | |
| OE5DRO-10 | 2026-09-05 16:44:56 | 50.77839 | 17.17436 | 97° | 106km/h | 14928m | 1.8m/s | 0°C | 0% | 0hPa | 0V | 00:00:00 | 00:00:00 | 00:00:00 | |
| PETON7-10 | 2026-09-05 16:44:54 | 50.77844 | 17.17351 | 110° | 104km/h | 14921m | 2.3m/s | 0°C | 0% | 0hPa | 0V | 00:00:00 | 00:00:00 | 00:00:00 | |
| OE3JTB-15 | 2026-09-05 16:44:52 | 50.77857 | 17.17261 | 93° | 106km/h | 14911m | 2.5m/s | 0°C | 0% | 0hPa | 0V | 00:00:00 | 00:00:00 | 00:00:00 | |
| SQ6EMJ | 2026-09-05 16:44:51 | 50.77861 | 17.17182 | 94° | 108km/h | 14911m | 2.5m/s | -49.6°C | 0% | 0hPa | 0V | 00:00:00 | 00:00:00 | 00:00:00 | |
| SQ6EMJ | 2026-09-05 16:44:45 | 50.77888 | 17.16938 | 109° | 95km/h | 14893m | 3.6m/s | -49.5°C | 0% | 0hPa | 0V | 00:00:00 | 00:00:00 | 00:00:00 | |
| SP6BVK | 2026-09-05 16:44:44 | 50.77888 | 17.16938 | 109° | 95km/h | 14893m | 3.6m/s | -49.5°C | 0% | 0hPa | 0V | 00:00:00 | 00:00:00 | 00:00:00 | |
| SQ6EMJ | 2026-09-05 16:44:39 | 50.77918 | 17.16699 | 103° | 108km/h | 14874m | 3.5m/s | -49.4°C | 0% | 0hPa | 0V | 00:00:00 | 00:00:00 | 00:00:00 | |
| OM5KV | 2026-09-05 16:44:38 | 50.77918 | 17.16699 | 103° | 108km/h | 14874m | 3.5m/s | -49.4°C | 0% | 0hPa | 0V | 00:00:00 | 00:00:00 | 00:00:00 | |
| OE5DRO-10 | 2026-09-05 16:44:37 | 50.77921 | 17.16651 | 98° | 104km/h | 14868m | 3.0m/s | 0°C | 0% | 0hPa | 0V | 00:00:00 | 00:00:00 | 00:00:00 | |
| OM5KV | 2026-09-05 16:44:33 | 50.77942 | 17.16494 | 98° | 113km/h | 14858m | 4.3m/s | -49.6°C | 0% | 0hPa | 0V | 00:00:00 | 00:00:00 | 00:00:00 | |
| SQ6EMJ | 2026-09-05 16:44:28 | 50.77967 | 17.16249 | 96° | 100km/h | 14840m | 3.1m/s | -50.1°C | 0% | 0hPa | 0V | 00:00:00 | 00:00:00 | 00:00:00 | |
| SP6BVK | 2026-09-05 16:44:26 | 50.77986 | 17.16134 | 99° | 108km/h | 14831m | 4.5m/s | -50.1°C | 0% | 0hPa | 0V | 00:00:00 | 00:00:00 | 00:00:00 | |
| PETON7-10 | 2026-09-05 16:44:25 | 50.77986 | 17.16132 | 93° | 104km/h | 14828m | 1.7m/s | 0°C | 0% | 0hPa | 0V | 00:00:00 | 00:00:00 | 00:00:00 | |
| OE3JTB-15 | 2026-09-05 16:44:23 | 50.77988 | 17.16090 | 93° | 99km/h | 14809m | 3.4m/s | 0°C | 0% | 0hPa | 0V | 00:00:00 | 00:00:00 | 00:00:00 | |
| OM5KV | 2026-09-05 16:44:22 | 50.77992 | 17.15974 | 108° | 102km/h | 14817m | 2.5m/s | -50.5°C | 0% | 0hPa | 0V | 00:00:00 | 00:00:00 | 00:00:00 | |
| OE5DRO-10 | 2026-09-05 16:44:18 | 50.78015 | 17.15886 | 105° | 104km/h | 14809m | 3.4m/s | 0°C | 0% | 0hPa | 0V | 00:00:00 | 00:00:00 | 00:00:00 | |
| POL1PZ | 2026-09-05 16:44:17 | 50.78028 | 17.15810 | 113° | 99km/h | 14805m | 2.7m/s | -51.0°C | 0% | 0hPa | 0V | 00:00:00 | 00:00:00 | 00:00:00 | |
| OM5KV | 2026-09-05 16:44:15 | 50.78035 | 17.15772 | 105° | 100km/h | 14803m | 2.7m/s | -51.2°C | 0% | 0hPa | 0V | 00:00:00 | 00:00:00 | 00:00:00 | |
| SQ6EMJ | 2026-09-05 16:44:10 | 50.78059 | 17.15571 | 101° | 108km/h | 14787m | 3.8m/s | -51.5°C | 0% | 0hPa | 0V | 00:00:00 | 00:00:00 | 00:00:00 | |
| PETON7-10 | 2026-09-05 16:44:09 | 50.78062 | 17.15523 | 101° | 102km/h | 14781m | 3.4m/s | 0°C | 0% | 0hPa | 0V | 00:00:00 | 00:00:00 | 00:00:00 | |
| SQ6EMJ | 2026-09-05 16:44:05 | 50.78083 | 17.15370 | 96° | 111km/h | 14771m | 4.2m/s | -51.5°C | 0% | 0hPa | 0V | 00:00:00 | 00:00:00 | 00:00:00 | |
| SP6BVK | 2026-09-05 16:44:04 | 50.78091 | 17.15286 | 107° | 95km/h | 14765m | 5.1m/s | -51.4°C | 0% | 0hPa | 0V | 00:00:00 | 00:00:00 | 00:00:00 | |
| OM5KV | 2026-09-05 16:44:03 | 50.78091 | 17.15286 | 107° | 95km/h | 14765m | 5.1m/s | -51.4°C | 0% | 0hPa | 0V | 00:00:00 | 00:00:00 | 00:00:00 | |
| OE5DRO-10 | 2026-09-05 16:43:59 | 50.78110 | 17.15127 | 102° | 102km/h | 14740m | 2.3m/s | 0°C | 0% | 0hPa | 0V | 00:00:00 | 00:00:00 | 00:00:00 | |
| POL1PZ | 2026-09-05 16:43:56 | 50.78128 | 17.15016 | 98° | 104km/h | 14743m | 4.1m/s | -51.3°C | 0% | 0hPa | 0V | 00:00:00 | 00:00:00 | 00:00:00 | |
| SQ6EMJ | 2026-09-05 16:43:55 | 50.78137 | 17.14932 | 107° | 100km/h | 14737m | 4.2m/s | -51.3°C | 0% | 0hPa | 0V | 00:00:00 | 00:00:00 | 00:00:00 | |
| PETON7-10 | 2026-09-05 16:43:54 | 50.78137 | 17.14932 | 110° | 102km/h | 14734m | 2.0m/s | 0°C | 0% | 0hPa | 0V | 00:00:00 | 00:00:00 | 00:00:00 | |
| OM5KV | 2026-09-05 16:43:51 | 50.78155 | 17.14817 | 98° | 115km/h | 14727m | 3.5m/s | -51.2°C | 0% | 0hPa | 0V | 00:00:00 | 00:00:00 | 00:00:00 | |
| SQ6EMJ | 2026-09-05 16:43:49 | 50.78175 | 17.14700 | 109° | 91km/h | 14717m | 2.6m/s | -51.2°C | 0% | 0hPa | 0V | 00:00:00 | 00:00:00 | 00:00:00 | |
| OM5KV | 2026-09-05 16:43:45 | 50.78192 | 17.14577 | 108° | 104km/h | 14708m | 4.0m/s | -51.2°C | 0% | 0hPa | 0V | 00:00:00 | 00:00:00 | 00:00:00 | |
| SQ6EMJ | 2026-09-05 16:43:43 | 50.78214 | 17.14466 | 99° | 111km/h | 14698m | 3.8m/s | -51.1°C | 0% | 0hPa | 0V | 00:00:00 | 00:00:00 | 00:00:00 | |
| SP6BVK | 2026-09-05 16:43:42 | 50.78214 | 17.14466 | 99° | 111km/h | 14698m | 3.8m/s | -51.1°C | 0% | 0hPa | 0V | 00:00:00 | 00:00:00 | 00:00:00 | |
| PETON7-10 | 2026-09-05 16:43:39 | 50.78234 | 17.14356 | 106° | 102km/h | 14685m | 3.7m/s | 0°C | 0% | 0hPa | 0V | 00:00:00 | 00:00:00 | 00:00:00 | |
| OE5DRO-10 | 2026-09-05 16:43:38 | 50.78241 | 17.14313 | 106° | 102km/h | 14682m | 2.5m/s | 0°C | 0% | 0hPa | 0V | 00:00:00 | 00:00:00 | 00:00:00 | |
| SQ6EMJ | 2026-09-05 16:43:37 | 50.78247 | 17.14271 | 102° | 119km/h | 14682m | 2.5m/s | -51.0°C | 0% | 0hPa | 0V | 00:00:00 | 00:00:00 | 00:00:00 | |
| POL1PZ | 2026-09-05 16:43:35 | 50.78262 | 17.14189 | 113° | 89km/h | 14676m | 5.1m/s | -50.9°C | 0% | 0hPa | 0V | 00:00:00 | 00:00:00 | 00:00:00 | |
| SQ6EMJ | 2026-09-05 16:43:32 | 50.78293 | 17.14032 | 111° | 104km/h | 14662m | 3.8m/s | -50.9°C | 0% | 0hPa | 0V | 00:00:00 | 00:00:00 | 00:00:00 | |
| SQ6EMJ | 2026-09-05 16:43:26 | 50.78332 | 17.13838 | 112° | 93km/h | 14646m | 5.3m/s | -50.9°C | 0% | 0hPa | 0V | 00:00:00 | 00:00:00 | 00:00:00 | |
| SP3BTT-10 | 2026-09-05 16:43:25 | 50.78341 | 17.13804 | 114° | 104km/h | 14640m | 3.9m/s | 0°C | 0% | 0hPa | 0V | 00:00:00 | 00:00:00 | 00:00:00 | |
| PETON7-10 | 2026-09-05 16:43:24 | 50.78349 | 17.13767 | 105° | 106km/h | 14636m | 2.7m/s | 0°C | 0% | 0hPa | 0V | 00:00:00 | 00:00:00 | 00:00:00 | |
| SP6BVK | 2026-09-05 16:43:22 | 50.78365 | 17.13681 | 107° | 104km/h | 14633m | 4.4m/s | -50.8°C | 0% | 0hPa | 0V | 00:00:00 | 00:00:00 | 00:00:00 | |
| SQ6EMJ | 2026-09-05 16:43:21 | 50.78382 | 17.13610 | 114° | 99km/h | 14626m | 3.0m/s | -50.8°C | 0% | 0hPa | 0V | 00:00:00 | 00:00:00 | 00:00:00 | |
| OE5DRO-10 | 2026-09-05 16:43:19 | 50.78392 | 17.13570 | 108° | 108km/h | 14619m | 2.1m/s | 0°C | 0% | 0hPa | 0V | 00:00:00 | 00:00:00 | 00:00:00 | |
| SQ6EMJ | 2026-09-05 16:43:18 | 50.78436 | 17.13374 | 108° | 124km/h | 14605m | 3.7m/s | -51.0°C | 0% | 0hPa | 0V | 00:00:00 | 00:00:00 | 00:00:00 | |
| POL1PZ | 2026-09-05 16:43:14 | 50.78436 | 17.13374 | 108° | 124km/h | 14605m | 3.7m/s | -51.0°C | 0% | 0hPa | 0V | 00:00:00 | 00:00:00 | 00:00:00 | |
| OM5KV | 2026-09-05 16:43:13 | 50.78446 | 17.13329 | 110° | 113km/h | 14602m | 2.9m/s | -51.0°C | 0% | 0hPa | 0V | 00:00:00 | 00:00:00 | 00:00:00 | |
| PETON7-10 | 2026-09-05 16:43:09 | 50.78482 | 17.13163 | 112° | 108km/h | 14586m | 4.1m/s | 0°C | 0% | 0hPa | 0V | 00:00:00 | 00:00:00 | 00:00:00 | |
| OM5KV | 2026-09-05 16:43:05 | 50.78515 | 17.13012 | 107° | 122km/h | 14575m | 4.4m/s | -51.1°C | 0% | 0hPa | 0V | 00:00:00 | 00:00:00 | 00:00:00 | |
| SQ6EMJ | 2026-09-05 16:43:04 | 50.78534 | 17.12926 | 111° | 97km/h | 14568m | 5.1m/s | -51.1°C | 0% | 0hPa | 0V | 00:00:00 | 00:00:00 | 00:00:00 | |
| SP6BVK | 2026-09-05 16:43:01 | 50.78547 | 17.12852 | 104° | 110km/h | 14562m | 3.9m/s | -51.1°C | 0% | 0hPa | 0V | 00:00:00 | 00:00:00 | 00:00:00 | |
| SQ6EMJ | 2026-09-05 16:42:57 | 50.78579 | 17.12692 | 109° | 99km/h | 14549m | 2.7m/s | -51.0°C | 0% | 0hPa | 0V | 00:00:00 | 00:00:00 | 00:00:00 | |
| OE3JTB-15 | 2026-09-05 16:42:56 | 50.78586 | 17.12646 | 104° | 104km/h | 14540m | 2.4m/s | 0°C | 0% | 0hPa | 0V | 00:00:00 | 00:00:00 | 00:00:00 | |
| SP3BTT-10 | 2026-09-05 16:42:55 | 50.78594 | 17.12603 | 104° | 104km/h | 14537m | 4.7m/s | 0°C | 0% | 0hPa | 0V | 00:00:00 | 00:00:00 | 00:00:00 | |
| PETON7-10 | 2026-09-05 16:42:54 | 50.78601 | 17.12562 | 111° | 104km/h | 14534m | 2.7m/s | 0°C | 0% | 0hPa | 0V | 00:00:00 | 00:00:00 | 00:00:00 | |
| SQ6EMJ | 2026-09-05 16:42:52 | 50.78630 | 17.12401 | 103° | 111km/h | 14524m | 2.8m/s | -51.0°C | 0% | 0hPa | 0V | 00:00:00 | 00:00:00 | 00:00:00 | |
| OM5KV | 2026-09-05 16:42:46 | 50.78657 | 17.12240 | 101° | 120km/h | 14510m | 2.0m/s | -50.9°C | 0% | 0hPa | 0V | 00:00:00 | 00:00:00 | 00:00:00 | |
| SQ6EMJ | 2026-09-05 16:42:45 | 50.78663 | 17.12197 | 104° | 104km/h | 14507m | 3.7m/s | -50.9°C | 0% | 0hPa | 0V | 00:00:00 | 00:00:00 | 00:00:00 | |
| SP6BVK | 2026-09-05 16:42:42 | 50.78689 | 17.12038 | 100° | 115km/h | 14493m | 2.3m/s | -50.9°C | 0% | 0hPa | 0V | 00:00:00 | 00:00:00 | 00:00:00 | |
| OM5KV | 2026-09-05 16:42:41 | 50.78689 | 17.12038 | 100° | 115km/h | 14493m | 2.3m/s | -50.9°C | 0% | 0hPa | 0V | 00:00:00 | 00:00:00 | 00:00:00 | |
| SQ6EMJ | 2026-09-05 16:42:40 | 50.78702 | 17.11961 | 111° | 91km/h | 14486m | 3.1m/s | -50.9°C | 0% | 0hPa | 0V | 00:00:00 | 00:00:00 | 00:00:00 | |
| PETON7-10 | 2026-09-05 16:42:39 | 50.78701 | 17.11961 | 111° | 100km/h | 14482m | 3.4m/s | 0°C | 0% | 0hPa | 0V | 00:00:00 | 00:00:00 | 00:00:00 | |
| OM5KV | 2026-09-05 16:42:34 | 50.78730 | 17.11764 | 107° | 99km/h | 14469m | 2.4m/s | -50.9°C | 0% | 0hPa | 0V | 00:00:00 | 00:00:00 | 00:00:00 | |
| POL1PZ | 2026-09-05 16:42:33 | 50.78736 | 17.11723 | 100° | 111km/h | 14465m | 5.0m/s | -51.0°C | 0% | 0hPa | 0V | 00:00:00 | 00:00:00 | 00:00:00 | |
| SQ6EMJ | 2026-09-05 16:42:28 | 50.78761 | 17.11524 | 99° | 113km/h | 14447m | 3.3m/s | -51.2°C | 0% | 0hPa | 0V | 00:00:00 | 00:00:00 | 00:00:00 | |
| OE3JTB-15 | 2026-09-05 16:42:27 | 50.78765 | 17.11481 | 99° | 99km/h | 14440m | 3.9m/s | 0°C | 0% | 0hPa | 0V | 00:00:00 | 00:00:00 | 00:00:00 | |
| SP3BTT-10 | 2026-09-05 16:42:25 | 50.78774 | 17.11409 | 103° | 99km/h | 14433m | 5.1m/s | 0°C | 0% | 0hPa | 0V | 00:00:00 | 00:00:00 | 00:00:00 | |
| PETON7-10 | 2026-09-05 16:42:24 | 50.78780 | 17.11370 | 101° | 100km/h | 14429m | 2.5m/s | 0°C | 0% | 0hPa | 0V | 00:00:00 | 00:00:00 | 00:00:00 | |
| SQ6EMJ | 2026-09-05 16:42:23 | 50.78790 | 17.11288 | 104° | 93km/h | 14425m | 4.5m/s | -51.1°C | 0% | 0hPa | 0V | 00:00:00 | 00:00:00 | 00:00:00 | |
| OM5KV | 2026-09-05 16:42:20 | 50.78806 | 17.11176 | 101° | 115km/h | 14414m | 2.8m/s | -51.1°C | 0% | 0hPa | 0V | 00:00:00 | 00:00:00 | 00:00:00 | |
| SQ6EMJ | 2026-09-05 16:42:18 | 50.78816 | 17.11096 | 107° | 84km/h | 14406m | 5.2m/s | -51.1°C | 0% | 0hPa | 0V | 00:00:00 | 00:00:00 | 00:00:00 | |
| POL1PZ | 2026-09-05 16:42:13 | 50.78838 | 17.10942 | 103° | 95km/h | 14393m | 4.4m/s | -51.0°C | 0% | 0hPa | 0V | 00:00:00 | 00:00:00 | 00:00:00 | |
| SQ6EMJ | 2026-09-05 16:42:12 | 50.78851 | 17.10873 | 108° | 97km/h | 14386m | 3.6m/s | -51.0°C | 0% | 0hPa | 0V | 00:00:00 | 00:00:00 | 00:00:00 | |
| PETON7-10 | 2026-09-05 16:42:09 | 50.78862 | 17.10788 | 101° | 100km/h | 14374m | 5.2m/s | 0°C | 0% | 0hPa | 0V | 00:00:00 | 00:00:00 | 00:00:00 | |
| SQ6EMJ | 2026-09-05 16:42:05 | 50.78889 | 17.10637 | 104° | 117km/h | 14363m | 2.7m/s | -51.1°C | 0% | 0hPa | 0V | 00:00:00 | 00:00:00 | 00:00:00 | |
| OM5KV | 2026-09-05 16:42:01 | 50.78913 | 17.10490 | 104° | 111km/h | 14349m | 6.1m/s | -51.1°C | 0% | 0hPa | 0V | 00:00:00 | 00:00:00 | 00:00:00 | |
| SP6BVK | 2026-09-05 16:42:00 | 50.78921 | 17.10445 | 107° | 119km/h | 14345m | 3.1m/s | -51.1°C | 0% | 0hPa | 0V | 00:00:00 | 00:00:00 | 00:00:00 | |
| OE3JTB-15 | 2026-09-05 16:41:58 | 50.78935 | 17.10376 | 105° | 104km/h | 14335m | 3.4m/s | 0°C | 0% | 0hPa | 0V | 00:00:00 | 00:00:00 | 00:00:00 | |
| SQ6EMJ | 2026-09-05 16:41:55 | 50.78965 | 17.10212 | 110° | 91km/h | 14323m | 5.2m/s | -51.0°C | 0% | 0hPa | 0V | 00:00:00 | 00:00:00 | 00:00:00 | |
| PETON7-10 | 2026-09-05 16:41:54 | 50.78966 | 17.10212 | 109° | 102km/h | 14319m | 2.7m/s | 0°C | 0% | 0hPa | 0V | 00:00:00 | 00:00:00 | 00:00:00 | |
| POL1PZ | 2026-09-05 16:41:52 | 50.78979 | 17.10140 | 107° | 108km/h | 14315m | 4.6m/s | -50.9°C | 0% | 0hPa | 0V | 00:00:00 | 00:00:00 | 00:00:00 | |
| SQ6EMJ | 2026-09-05 16:41:49 | 50.79005 | 17.10019 | 110° | 88km/h | 14305m | 2.8m/s | -50.9°C | 0% | 0hPa | 0V | 00:00:00 | 00:00:00 | 00:00:00 | |
| OK1ALN | 2026-09-05 16:41:45 | 50.79038 | 17.09858 | 111° | 97km/h | 14289m | 4.6m/s | -50.8°C | 0% | 0hPa | 0V | 00:00:00 | 00:00:00 | 00:00:00 | |
| SQ6EMJ | 2026-09-05 16:41:44 | 50.79055 | 17.09785 | 110° | 108km/h | 14283m | 5.0m/s | -50.7°C | 0% | 0hPa | 0V | 00:00:00 | 00:00:00 | 00:00:00 | |
| PETON7-10 | 2026-09-05 16:41:39 | 50.79089 | 17.09624 | 112° | 108km/h | 14263m | 3.9m/s | 0°C | 0% | 0hPa | 0V | 00:00:00 | 00:00:00 | 00:00:00 | |
| SQ6EMJ | 2026-09-05 16:41:38 | 50.79108 | 17.09540 | 109° | 111km/h | 14260m | 2.9m/s | -50.6°C | 0% | 0hPa | 0V | 00:00:00 | 00:00:00 | 00:00:00 | |
| OE3JTB-15 | 2026-09-05 16:41:29 | 50.79177 | 17.09223 | 109° | 113km/h | 14223m | 4.9m/s | 0°C | 0% | 0hPa | 0V | 00:00:00 | 00:00:00 | 00:00:00 | |
| SQ6EMJ | 2026-09-05 16:41:27 | 50.79208 | 17.09100 | 107° | 93km/h | 14219m | 3.3m/s | -50.5°C | 0% | 0hPa | 0V | 00:00:00 | 00:00:00 | 00:00:00 | |
| SP3BTT-10 | 2026-09-05 16:41:25 | 50.79215 | 17.09061 | 106° | 115km/h | 14215m | 3.5m/s | 0°C | 0% | 0hPa | 0V | 00:00:00 | 00:00:00 | 00:00:00 | |
| PETON7-10 | 2026-09-05 16:41:24 | 50.79225 | 17.09016 | 111° | 113km/h | 14209m | 3.7m/s | 0°C | 0% | 0hPa | 0V | 00:00:00 | 00:00:00 | 00:00:00 | |
| SQ6EMJ | 2026-09-05 16:41:21 | 50.79255 | 17.08897 | 108° | 100km/h | 14201m | 3.4m/s | -50.5°C | 0% | 0hPa | 0V | 00:00:00 | 00:00:00 | 00:00:00 | |
| SP6BVK | 2026-09-05 16:41:19 | 50.79273 | 17.08809 | 112° | 122km/h | 14194m | 2.3m/s | -50.5°C | 0% | 0hPa | 0V | 00:00:00 | 00:00:00 | 00:00:00 | |
| SQ6EMJ | 2026-09-05 16:41:16 | 50.79316 | 17.08647 | 108° | 130km/h | 14180m | 4.6m/s | -50.4°C | 0% | 0hPa | 0V | 00:00:00 | 00:00:00 | 00:00:00 | |
| POL1PZ | 2026-09-05 16:41:11 | 50.79358 | 17.08479 | 113° | 122km/h | 14166m | 4.2m/s | -50.4°C | 0% | 0hPa | 0V | 00:00:00 | 00:00:00 | 00:00:00 | |
| PETON7-10 | 2026-09-05 16:41:09 | 50.79376 | 17.08386 | 106° | 115km/h | 14156m | 3.3m/s | 0°C | 0% | 0hPa | 0V | 00:00:00 | 00:00:00 | 00:00:00 | |
| SQ6EMJ | 2026-09-05 16:41:04 | 50.79425 | 17.08170 | 112° | 102km/h | 14141m | 4.9m/s | -50.5°C | 0% | 0hPa | 0V | 00:00:00 | 00:00:00 | 00:00:00 | |
| OK1ALN | 2026-09-05 16:41:03 | 50.79445 | 17.08090 | 110° | 120km/h | 14134m | 5.0m/s | -50.6°C | 0% | 0hPa | 0V | 00:00:00 | 00:00:00 | 00:00:00 | |
| OE3JTB-15 | 2026-09-05 16:41:00 | 50.79462 | 17.07996 | 107° | 110km/h | 14123m | 3.8m/s | 0°C | 0% | 0hPa | 0V | 00:00:00 | 00:00:00 | 00:00:00 | |
| SQ6EMJ | 2026-09-05 16:40:59 | 50.79481 | 17.07917 | 113° | 110km/h | 14120m | 3.0m/s | -50.7°C | 0% | 0hPa | 0V | 00:00:00 | 00:00:00 | 00:00:00 | |
| SP6BVK | 2026-09-05 16:40:58 | 50.79481 | 17.07917 | 113° | 110km/h | 14120m | 3.0m/s | -50.7°C | 0% | 0hPa | 0V | 00:00:00 | 00:00:00 | 00:00:00 | |
| SP3BTT-10 | 2026-09-05 16:40:55 | 50.79506 | 17.07786 | 115° | 108km/h | 14104m | 2.8m/s | 0°C | 0% | 0hPa | 0V | 00:00:00 | 00:00:00 | 00:00:00 | |
| PETON7-10 | 2026-09-05 16:40:54 | 50.79516 | 17.07742 | 115° | 111km/h | 14101m | 4.0m/s | 0°C | 0% | 0hPa | 0V | 00:00:00 | 00:00:00 | 00:00:00 | |
| OM5KV | 2026-09-05 16:40:53 | 50.79526 | 17.07702 | 109° | 115km/h | 14101m | 4.1m/s | -50.7°C | 0% | 0hPa | 0V | 00:00:00 | 00:00:00 | 00:00:00 | |
| POL1PZ | 2026-09-05 16:40:51 | 50.79540 | 17.07607 | 105° | 117km/h | 14094m | 3.1m/s | -50.8°C | 0% | 0hPa | 0V | 00:00:00 | 00:00:00 | 00:00:00 | |
| OM5KV | 2026-09-05 16:40:48 | 50.79573 | 17.07440 | 101° | 124km/h | 14078m | 2.5m/s | -50.8°C | 0% | 0hPa | 0V | 00:00:00 | 00:00:00 | 00:00:00 | |
| SQ6EMJ | 2026-09-05 16:40:42 | 50.79616 | 17.07187 | 109° | 106km/h | 14056m | 4.9m/s | -51.0°C | 0% | 0hPa | 0V | 00:00:00 | 00:00:00 | 00:00:00 | |
| OM5KV | 2026-09-05 16:40:41 | 50.79616 | 17.07187 | 109° | 106km/h | 14056m | 4.9m/s | -51.0°C | 0% | 0hPa | 0V | 00:00:00 | 00:00:00 | 00:00:00 | |
| PETON7-10 | 2026-09-05 16:40:39 | 50.79633 | 17.07107 | 104° | 106km/h | 14045m | 3.6m/s | 0°C | 0% | 0hPa | 0V | 00:00:00 | 00:00:00 | 00:00:00 | |
| SP6BVK | 2026-09-05 16:40:38 | 50.79638 | 17.07064 | 96° | 111km/h | 14045m | 3.7m/s | -51.1°C | 0% | 0hPa | 0V | 00:00:00 | 00:00:00 | 00:00:00 | |
| SQ6EMJ | 2026-09-05 16:40:37 | 50.79648 | 17.06982 | 111° | 102km/h | 14038m | 4.5m/s | -51.1°C | 0% | 0hPa | 0V | 00:00:00 | 00:00:00 | 00:00:00 | |
| OM5KV | 2026-09-05 16:40:36 | 50.79648 | 17.06982 | 111° | 102km/h | 14038m | 4.5m/s | -51.1°C | 0% | 0hPa | 0V | 00:00:00 | 00:00:00 | 00:00:00 | |
| OM5KV | 2026-09-05 16:40:31 | 50.79690 | 17.06741 | 104° | 110km/h | 14017m | 4.3m/s | -51.0°C | 0% | 0hPa | 0V | 00:00:00 | 00:00:00 | 00:00:00 | |
| POL1PZ | 2026-09-05 16:40:30 | 50.79690 | 17.06741 | 104° | 110km/h | 14017m | 4.3m/s | -51.0°C | 0% | 0hPa | 0V | 00:00:00 | 00:00:00 | 00:00:00 | |
| SP3BTT-10 | 2026-09-05 16:40:25 | 50.79719 | 17.06539 | 100° | 110km/h | 13999m | 4.6m/s | 0°C | 0% | 0hPa | 0V | 00:00:00 | 00:00:00 | 00:00:00 | |
| PETON7-10 | 2026-09-05 16:40:24 | 50.79724 | 17.06495 | 98° | 108km/h | 13992m | 4.1m/s | 0°C | 0% | 0hPa | 0V | 00:00:00 | 00:00:00 | 00:00:00 | |
| OM5KV | 2026-09-05 16:40:20 | 50.79755 | 17.06290 | 105° | 110km/h | 13978m | 4.1m/s | -50.8°C | 0% | 0hPa | 0V | 00:00:00 | 00:00:00 | 00:00:00 | |
| SP6BVK | 2026-09-05 16:40:17 | 50.79772 | 17.06211 | 108° | 102km/h | 13971m | 3.3m/s | -50.8°C | 0% | 0hPa | 0V | 00:00:00 | 00:00:00 | 00:00:00 | |
| SQ6EMJ | 2026-09-05 16:40:14 | 50.79799 | 17.06045 | 115° | 102km/h | 13956m | 2.7m/s | -50.7°C | 0% | 0hPa | 0V | 00:00:00 | 00:00:00 | 00:00:00 | |
| OM5KV | 2026-09-05 16:40:13 | 50.79799 | 17.06045 | 115° | 102km/h | 13956m | 2.7m/s | -50.7°C | 0% | 0hPa | 0V | 00:00:00 | 00:00:00 | 00:00:00 | |
| PETON7-10 | 2026-09-05 16:40:11 | 50.79826 | 17.05880 | 114° | 108km/h | 13938m | 3.4m/s | 0°C | 0% | 0hPa | 0V | 00:00:00 | 00:00:00 | 00:00:00 | |
| SQ6EMJ | 2026-09-05 16:40:10 | 50.79836 | 17.05841 | 111° | 108km/h | 13938m | 3.5m/s | -50.5°C | 0% | 0hPa | 0V | 00:00:00 | 00:00:00 | 00:00:00 | |
| OM5KV | 2026-09-05 16:40:08 | 50.79836 | 17.05841 | 111° | 108km/h | 13938m | 3.5m/s | -50.5°C | 0% | 0hPa | 0V | 00:00:00 | 00:00:00 | 00:00:00 | |
| OE3JTB-15 | 2026-09-05 16:40:02 | 50.79880 | 17.05592 | 99° | 111km/h | 13913m | 3.2m/s | 0°C | 0% | 0hPa | 0V | 00:00:00 | 00:00:00 | 00:00:00 | |
| SQ6EMJ | 2026-09-05 16:39:58 | 50.79917 | 17.05385 | 102° | 115km/h | 13899m | 2.8m/s | -50.8°C | 0% | 0hPa | 0V | 00:00:00 | 00:00:00 | 00:00:00 | |
| OM5KV | 2026-09-05 16:39:57 | 50.79917 | 17.05385 | 102° | 115km/h | 13899m | 2.8m/s | -50.8°C | 0% | 0hPa | 0V | 00:00:00 | 00:00:00 | 00:00:00 | |
| OK1ALN | 2026-09-05 16:39:56 | 50.79924 | 17.05342 | 111° | 110km/h | 13895m | 4.4m/s | -50.8°C | 0% | 0hPa | 0V | 00:00:00 | 00:00:00 | 00:00:00 | |
| SP3BTT-10 | 2026-09-05 16:39:55 | 50.79935 | 17.05306 | 107° | 111km/h | 13889m | 4.6m/s | 0°C | 0% | 0hPa | 0V | 00:00:00 | 00:00:00 | 00:00:00 | |
| PETON7-10 | 2026-09-05 16:39:54 | 50.79944 | 17.05261 | 107° | 113km/h | 13885m | 3.5m/s | 0°C | 0% | 0hPa | 0V | 00:00:00 | 00:00:00 | 00:00:00 | |
| SQ6EMJ | 2026-09-05 16:39:52 | 50.79966 | 17.05128 | 115° | 108km/h | 13878m | 3.8m/s | -51.2°C | 0% | 0hPa | 0V | 00:00:00 | 00:00:00 | 00:00:00 | |
| POL1PZ | 2026-09-05 16:39:49 | 50.79984 | 17.05046 | 103° | 115km/h | 13871m | 4.8m/s | -51.1°C | 0% | 0hPa | 0V | 00:00:00 | 00:00:00 | 00:00:00 | |
| OM5KV | 2026-09-05 16:39:46 | 50.80016 | 17.04874 | 106° | 111km/h | 13857m | 4.0m/s | -51.1°C | 0% | 0hPa | 0V | 00:00:00 | 00:00:00 | 00:00:00 | |
| SQ6EMJ | 2026-09-05 16:39:40 | 50.80053 | 17.04658 | 101° | 115km/h | 13840m | 3.9m/s | -51.0°C | 0% | 0hPa | 0V | 00:00:00 | 00:00:00 | 00:00:00 | |
| PETON7-10 | 2026-09-05 16:39:39 | 50.80058 | 17.04614 | 103° | 113km/h | 13833m | 4.3m/s | 0°C | 0% | 0hPa | 0V | 00:00:00 | 00:00:00 | 00:00:00 | |
| SP6BVK | 2026-09-05 16:39:37 | 50.80084 | 17.04486 | 102° | 113km/h | 13826m | 4.2m/s | -51.0°C | 0% | 0hPa | 0V | 00:00:00 | 00:00:00 | 00:00:00 | |
| SQ6EMJ | 2026-09-05 16:39:35 | 50.80096 | 17.04401 | 108° | 111km/h | 13818m | 3.8m/s | -50.9°C | 0% | 0hPa | 0V | 00:00:00 | 00:00:00 | 00:00:00 | |
| OE3JTB-15 | 2026-09-05 16:39:33 | 50.80105 | 17.04357 | 106° | 115km/h | 13813m | 3.8m/s | 0°C | 0% | 0hPa | 0V | 00:00:00 | 00:00:00 | 00:00:00 | |
| SQ6EMJ | 2026-09-05 16:39:31 | 50.80135 | 17.04185 | 113° | 119km/h | 13802m | 4.8m/s | -50.9°C | 0% | 0hPa | 0V | 00:00:00 | 00:00:00 | 00:00:00 | |
| POL1PZ | 2026-09-05 16:39:29 | 50.80135 | 17.04185 | 113° | 119km/h | 13802m | 4.8m/s | -50.9°C | 0% | 0hPa | 0V | 00:00:00 | 00:00:00 | 00:00:00 | |
| SP3BTT-10 | 2026-09-05 16:39:25 | 50.80166 | 17.04014 | 111° | 119km/h | 13788m | 3.3m/s | 0°C | 0% | 0hPa | 0V | 00:00:00 | 00:00:00 | 00:00:00 | |
| SQ6EMJ | 2026-09-05 16:39:24 | 50.80185 | 17.03921 | 104° | 124km/h | 13782m | 2.6m/s | -50.8°C | 0% | 0hPa | 0V | 00:00:00 | 00:00:00 | 00:00:00 | |
| PETON7-10 | 2026-09-05 16:39:23 | 50.80185 | 17.03921 | 103° | 115km/h | 13778m | 4.2m/s | 0°C | 0% | 0hPa | 0V | 00:00:00 | 00:00:00 | 00:00:00 | |
| SQ6EMJ | 2026-09-05 16:39:17 | 50.80233 | 17.03664 | 110° | 99km/h | 13762m | 3.0m/s | -50.7°C | 0% | 0hPa | 0V | 00:00:00 | 00:00:00 | 00:00:00 | |
| SP6BVK | 2026-09-05 16:39:16 | 50.80243 | 17.03625 | 115° | 113km/h | 13759m | 3.4m/s | -50.7°C | 0% | 0hPa | 0V | 00:00:00 | 00:00:00 | 00:00:00 | |
| OM5KV | 2026-09-05 16:39:14 | 50.80263 | 17.03531 | 105° | 120km/h | 13752m | 2.9m/s | -50.7°C | 0% | 0hPa | 0V | 00:00:00 | 00:00:00 | 00:00:00 | |
| SQ6EMJ | 2026-09-05 16:39:12 | 50.80278 | 17.03450 | 112° | 104km/h | 13745m | 3.1m/s | -50.7°C | 0% | 0hPa | 0V | 00:00:00 | 00:00:00 | 00:00:00 | |
| PETON7-10 | 2026-09-05 16:39:08 | 50.80315 | 17.03273 | 109° | 117km/h | 13728m | 3.6m/s | 0°C | 0% | 0hPa | 0V | 00:00:00 | 00:00:00 | 00:00:00 | |
| SQ6EMJ | 2026-09-05 16:39:06 | 50.80334 | 17.03186 | 109° | 133km/h | 13725m | 3.6m/s | -50.7°C | 0% | 0hPa | 0V | 00:00:00 | 00:00:00 | 00:00:00 | |
| OM5KV | 2026-09-05 16:39:02 | 50.80370 | 17.03012 | 108° | 124km/h | 13712m | 4.4m/s | -50.8°C | 0% | 0hPa | 0V | 00:00:00 | 00:00:00 | 00:00:00 | |
| SQ6EMJ | 2026-09-05 16:39:01 | 50.80379 | 17.02963 | 107° | 133km/h | 13708m | 2.6m/s | -50.9°C | 0% | 0hPa | 0V | 00:00:00 | 00:00:00 | 00:00:00 | |
| OM5KV | 2026-09-05 16:38:57 | 50.80416 | 17.02787 | 108° | 133km/h | 13695m | 4.5m/s | -51.0°C | 0% | 0hPa | 0V | 00:00:00 | 00:00:00 | 00:00:00 | |
| SP6BVK | 2026-09-05 16:38:56 | 50.80434 | 17.02690 | 108° | 111km/h | 13688m | 4.5m/s | -51.1°C | 0% | 0hPa | 0V | 00:00:00 | 00:00:00 | 00:00:00 | |
| SP3BTT-10 | 2026-09-05 16:38:54 | 50.80443 | 17.02649 | 113° | 117km/h | 13682m | 3.4m/s | 0°C | 0% | 0hPa | 0V | 00:00:00 | 00:00:00 | 00:00:00 | |
| PETON7-10 | 2026-09-05 16:38:53 | 50.80453 | 17.02606 | 110° | 119km/h | 13679m | 2.7m/s | 0°C | 0% | 0hPa | 0V | 00:00:00 | 00:00:00 | 00:00:00 | |
| OM5KV | 2026-09-05 16:38:51 | 50.80471 | 17.02507 | 105° | 120km/h | 13675m | 3.4m/s | -51.2°C | 0% | 0hPa | 0V | 00:00:00 | 00:00:00 | 00:00:00 | |
| SQ6EMJ | 2026-09-05 16:38:50 | 50.80488 | 17.02423 | 111° | 113km/h | 13668m | 3.2m/s | -51.3°C | 0% | 0hPa | 0V | 00:00:00 | 00:00:00 | 00:00:00 | |
| POL1PZ | 2026-09-05 16:38:48 | 50.80498 | 17.02377 | 108° | 131km/h | 13665m | 4.0m/s | -51.3°C | 0% | 0hPa | 0V | 00:00:00 | 00:00:00 | 00:00:00 | |
| OM5KV | 2026-09-05 16:38:47 | 50.80515 | 17.02282 | 108° | 110km/h | 13658m | 4.9m/s | -51.3°C | 0% | 0hPa | 0V | 00:00:00 | 00:00:00 | 00:00:00 | |
| OE3JTB-15 | 2026-09-05 16:38:46 | 50.80515 | 17.02287 | 110° | 111km/h | 13642m | 4.1m/s | 0°C | 0% | 0hPa | 0V | 00:00:00 | 00:00:00 | 00:00:00 | |
| SQ6EMJ | 2026-09-05 16:38:44 | 50.80532 | 17.02199 | 108° | 119km/h | 13652m | 3.7m/s | -51.3°C | 0% | 0hPa | 0V | 00:00:00 | 00:00:00 | 00:00:00 | |
| OM5KV | 2026-09-05 16:38:40 | 50.80568 | 17.02018 | 109° | 108km/h | 13639m | 2.4m/s | -51.3°C | 0% | 0hPa | 0V | 00:00:00 | 00:00:00 | 00:00:00 | |
| SQ6EMJ | 2026-09-05 16:38:39 | 50.80586 | 17.01925 | 109° | 130km/h | 13632m | 1.7m/s | -51.2°C | 0% | 0hPa | 0V | 00:00:00 | 00:00:00 | 00:00:00 | |
| PETON7-10 | 2026-09-05 16:38:38 | 50.80586 | 17.01925 | 109° | 119km/h | 13629m | 4.5m/s | 0°C | 0% | 0hPa | 0V | 00:00:00 | 00:00:00 | 00:00:00 | |
| OM5KV | 2026-09-05 16:38:34 | 50.80625 | 17.01751 | 108° | 135km/h | 13619m | 3.8m/s | -51.2°C | 0% | 0hPa | 0V | 00:00:00 | 00:00:00 | 00:00:00 | |
| SQ6EMJ | 2026-09-05 16:38:33 | 50.80636 | 17.01701 | 110° | 126km/h | 13616m | 2.7m/s | -51.1°C | 0% | 0hPa | 0V | 00:00:00 | 00:00:00 | 00:00:00 | |
| POL1PZ | 2026-09-05 16:38:28 | 50.80695 | 17.01437 | 113° | 100km/h | 13598m | 4.0m/s | -51.1°C | 0% | 0hPa | 0V | 00:00:00 | 00:00:00 | 00:00:00 | |
| SQ6EMJ | 2026-09-05 16:38:27 | 50.80695 | 17.01437 | 113° | 100km/h | 13598m | 4.0m/s | -51.1°C | 0% | 0hPa | 0V | 00:00:00 | 00:00:00 | 00:00:00 | |
| SP3BTT-10 | 2026-09-05 16:38:24 | 50.80726 | 17.01305 | 110° | 122km/h | 13586m | 4.6m/s | 0°C | 0% | 0hPa | 0V | 00:00:00 | 00:00:00 | 00:00:00 | |
| PETON7-10 | 2026-09-05 16:38:23 | 50.80737 | 17.01260 | 113° | 117km/h | 13582m | 3.2m/s | 0°C | 0% | 0hPa | 0V | 00:00:00 | 00:00:00 | 00:00:00 | |
| SQ6EMJ | 2026-09-05 16:38:22 | 50.80759 | 17.01181 | 112° | 113km/h | 13579m | 2.4m/s | -50.9°C | 0% | 0hPa | 0V | 00:00:00 | 00:00:00 | 00:00:00 | |
| OM5KV | 2026-09-05 16:38:18 | 50.80792 | 17.01044 | 115° | 111km/h | 13570m | 3.5m/s | -50.9°C | 0% | 0hPa | 0V | 00:00:00 | 00:00:00 | 00:00:00 | |
| OE3JTB-15 | 2026-09-05 16:38:17 | 50.80803 | 17.01003 | 112° | 115km/h | 13562m | 1.5m/s | 0°C | 0% | 0hPa | 0V | 00:00:00 | 00:00:00 | 00:00:00 | |
| SQ6EMJ | 2026-09-05 16:38:16 | 50.80814 | 17.00959 | 110° | 124km/h | 13564m | 3.3m/s | -50.9°C | 0% | 0hPa | 0V | 00:00:00 | 00:00:00 | 00:00:00 | |
| SP6BVK | 2026-09-05 16:38:14 | 50.80835 | 17.00870 | 115° | 110km/h | 13558m | 4.8m/s | -51.0°C | 0% | 0hPa | 0V | 00:00:00 | 00:00:00 | 00:00:00 | |
| OM5KV | 2026-09-05 16:38:12 | 50.80857 | 17.00790 | 113° | 120km/h | 13552m | 4.2m/s | -51.1°C | 0% | 0hPa | 0V | 00:00:00 | 00:00:00 | 00:00:00 | |
| SQ6EMJ | 2026-09-05 16:38:10 | 50.80881 | 17.00695 | 115° | 120km/h | 13546m | 3.4m/s | -50.9°C | 0% | 0hPa | 0V | 00:00:00 | 00:00:00 | 00:00:00 | |
| PETON7-10 | 2026-09-05 16:38:08 | 50.80906 | 17.00614 | 116° | 120km/h | 13536m | 3.7m/s | 0°C | 0% | 0hPa | 0V | 00:00:00 | 00:00:00 | 00:00:00 | |
| SQ6EMJ | 2026-09-05 16:38:06 | 50.80942 | 17.00480 | 118° | 111km/h | 13530m | 4.2m/s | -51.3°C | 0% | 0hPa | 0V | 00:00:00 | 00:00:00 | 00:00:00 | |
| OE3OSB-13 | 2026-09-05 16:38:04 | 50.80995 | 17.00303 | 116° | 119km/h | 13519m | 3.5m/s | -51.9°C | -1.0% | -1.0hPa | 0V | 00:00:00 | 00:00:00 | 00:00:00 | |
| SQ6EMJ | 2026-09-05 16:38:00 | 50.81021 | 17.00222 | 116° | 119km/h | 13513m | 3.0m/s | -51.3°C | 0% | 0hPa | 0V | 00:00:00 | 00:00:00 | 00:00:00 | |
| OM5KV | 2026-09-05 16:37:55 | 50.81073 | 17.00043 | 118° | 113km/h | 13501m | 2.1m/s | -51.4°C | 0% | 0hPa | 0V | 00:00:00 | 00:00:00 | 00:00:00 | |
| SP3BTT-10 | 2026-09-05 16:37:54 | 50.81085 | 16.99997 | 111° | 126km/h | 13495m | 1.9m/s | 0°C | 0% | 0hPa | 0V | 00:00:00 | 00:00:00 | 00:00:00 | |
| PETON7-10 | 2026-09-05 16:37:53 | 50.81097 | 16.99951 | 111° | 126km/h | 13492m | 3.6m/s | 0°C | 0% | 0hPa | 0V | 00:00:00 | 00:00:00 | 00:00:00 | |
| OE3JTB-15 | 2026-09-05 16:37:48 | 50.81162 | 16.99736 | 114° | 128km/h | 13478m | 4.2m/s | 0°C | 0% | 0hPa | 0V | 00:00:00 | 00:00:00 | 00:00:00 | |
| POL1PZ | 2026-09-05 16:37:46 | 50.81190 | 16.99642 | 120° | 117km/h | 13476m | 1.7m/s | -51.5°C | 0% | 0hPa | 0V | 00:00:00 | 00:00:00 | 00:00:00 | |
| OM5KV | 2026-09-05 16:37:44 | 50.81217 | 16.99547 | 112° | 139km/h | 13470m | 1.7m/s | -51.5°C | 0% | 0hPa | 0V | 00:00:00 | 00:00:00 | 00:00:00 | |
| SQ6EMJ | 2026-09-05 16:37:43 | 50.81245 | 16.99458 | 123° | 113km/h | 13463m | 2.5m/s | -51.6°C | 0% | 0hPa | 0V | 00:00:00 | 00:00:00 | 00:00:00 | |
| PETON7-10 | 2026-09-05 16:37:38 | 50.81302 | 16.99275 | 120° | 126km/h | 13449m | 2.0m/s | 0°C | 0% | 0hPa | 0V | 00:00:00 | 00:00:00 | 00:00:00 | |
| SQ6EMJ | 2026-09-05 16:37:37 | 50.81330 | 16.99189 | 115° | 130km/h | 13447m | 3.1m/s | -51.6°C | 0% | 0hPa | 0V | 00:00:00 | 00:00:00 | 00:00:00 | |
| SP6BVK | 2026-09-05 16:37:33 | 50.81371 | 16.99049 | 122° | 117km/h | 13440m | 2.3m/s | -51.6°C | 0% | 0hPa | 0V | 00:00:00 | 00:00:00 | 00:00:00 | |
| OM5KV | 2026-09-05 16:37:31 | 50.81399 | 16.98960 | 111° | 137km/h | 13434m | 3.8m/s | -51.6°C | 0% | 0hPa | 0V | 00:00:00 | 00:00:00 | 00:00:00 | |
| SQ6EMJ | 2026-09-05 16:37:30 | 50.81411 | 16.98909 | 112° | 133km/h | 13431m | 2.2m/s | -51.6°C | 0% | 0hPa | 0V | 00:00:00 | 00:00:00 | 00:00:00 | |
| POL1PZ | 2026-09-05 16:37:25 | 50.81477 | 16.98675 | 116° | 128km/h | 13419m | 3.5m/s | -51.7°C | 0% | 0hPa | 0V | 00:00:00 | 00:00:00 | 00:00:00 | |
| SQ6EMJ | 2026-09-05 16:37:24 | 50.81507 | 16.98589 | 118° | 128km/h | 13413m | 2.5m/s | -51.7°C | 0% | 0hPa | 0V | 00:00:00 | 00:00:00 | 00:00:00 | |
| PETON7-10 | 2026-09-05 16:37:23 | 50.81507 | 16.98589 | 117° | 131km/h | 13410m | 3.0m/s | 0°C | 0% | 0hPa | 0V | 00:00:00 | 00:00:00 | 00:00:00 | |
| OM5KV | 2026-09-05 16:37:20 | 50.81547 | 16.98442 | 120° | 124km/h | 13405m | 3.7m/s | -51.6°C | 0% | 0hPa | 0V | 00:00:00 | 00:00:00 | 00:00:00 | |
| SQ6EMJ | 2026-09-05 16:37:18 | 50.81590 | 16.98301 | 111° | 137km/h | 13397m | 1.6m/s | -51.6°C | 0% | 0hPa | 0V | 00:00:00 | 00:00:00 | 00:00:00 | |
| OM5KV | 2026-09-05 16:37:15 | 50.81632 | 16.98164 | 117° | 133km/h | 13390m | 3.0m/s | -51.6°C | 0% | 0hPa | 0V | 00:00:00 | 00:00:00 | 00:00:00 | |
| SQ6EMJ | 2026-09-05 16:37:12 | 50.81673 | 16.98016 | 120° | 120km/h | 13382m | 3.1m/s | -51.5°C | 0% | 0hPa | 0V | 00:00:00 | 00:00:00 | 00:00:00 | |
| OM5KV | 2026-09-05 16:37:09 | 50.81702 | 16.97925 | 113° | 139km/h | 13377m | 3.7m/s | -51.5°C | 0% | 0hPa | 0V | 00:00:00 | 00:00:00 | 00:00:00 | |
| PETON7-10 | 2026-09-05 16:37:08 | 50.81716 | 16.97873 | 112° | 131km/h | 13372m | 2.9m/s | 0°C | 0% | 0hPa | 0V | 00:00:00 | 00:00:00 | 00:00:00 | |
| SQ6EMJ | 2026-09-05 16:37:05 | 50.81771 | 16.97685 | 112° | 139km/h | 13365m | 1.9m/s | -51.5°C | 0% | 0hPa | 0V | 00:00:00 | 00:00:00 | 00:00:00 | |
| SQ6EMJ | 2026-09-05 16:36:58 | 50.81869 | 16.97353 | 121° | 128km/h | 13347m | 1.5m/s | -51.4°C | 0% | 0hPa | 0V | 00:00:00 | 00:00:00 | 00:00:00 | |
| OM5KV | 2026-09-05 16:36:57 | 50.81869 | 16.97353 | 121° | 128km/h | 13347m | 1.5m/s | -51.4°C | 0% | 0hPa | 0V | 00:00:00 | 00:00:00 | 00:00:00 | |
| OE3JTB-15 | 2026-09-05 16:36:55 | 50.81897 | 16.97253 | 109° | 137km/h | 13332m | 2.3m/s | 0°C | 0% | 0hPa | 0V | 00:00:00 | 00:00:00 | 00:00:00 | |
| SP3BTT-10 | 2026-09-05 16:36:54 | 50.81909 | 16.97203 | 119° | 135km/h | 13337m | 2.2m/s | 0°C | 0% | 0hPa | 0V | 00:00:00 | 00:00:00 | 00:00:00 | |
| PETON7-10 | 2026-09-05 16:36:53 | 50.81923 | 16.97157 | 119° | 135km/h | 13335m | 2.5m/s | 0°C | 0% | 0hPa | 0V | 00:00:00 | 00:00:00 | 00:00:00 | |
| OM5KV | 2026-09-05 16:36:52 | 50.81938 | 16.97111 | 116° | 135km/h | 13335m | 2.5m/s | -51.3°C | 0% | 0hPa | 0V | 00:00:00 | 00:00:00 | 00:00:00 | |
| SQ6EMJ | 2026-09-05 16:36:47 | 50.82017 | 16.96812 | 113° | 141km/h | 13320m | 1.8m/s | -51.3°C | 0% | 0hPa | 0V | 00:00:00 | 00:00:00 | 00:00:00 | |
| OM5KV | 2026-09-05 16:36:46 | 50.82017 | 16.96812 | 113° | 141km/h | 13320m | 1.8m/s | -51.3°C | 0% | 0hPa | 0V | 00:00:00 | 00:00:00 | 00:00:00 | |
| POL1PZ | 2026-09-05 16:36:44 | 50.82046 | 16.96718 | 117° | 124km/h | 13315m | 1.0m/s | -51.3°C | 0% | 0hPa | 0V | 00:00:00 | 00:00:00 | 00:00:00 | |
| OM5KV | 2026-09-05 16:36:41 | 50.82084 | 16.96567 | 115° | 133km/h | 13308m | 3.1m/s | -51.2°C | 0% | 0hPa | 0V | 00:00:00 | 00:00:00 | 00:00:00 | |
| PETON7-10 | 2026-09-05 16:36:37 | 50.82135 | 16.96365 | 117° | 137km/h | 13295m | 3.4m/s | 0°C | 0% | 0hPa | 0V | 00:00:00 | 00:00:00 | 00:00:00 | |
| OK1ALN | 2026-09-05 16:36:36 | 50.82162 | 16.96272 | 116° | 133km/h | 13295m | 3.4m/s | -51.5°C | 0% | 0hPa | 0V | 00:00:00 | 00:00:00 | 00:00:00 | |
| SQ6EMJ | 2026-09-05 16:36:35 | 50.82162 | 16.96272 | 116° | 133km/h | 13292m | 1.8m/s | -51.5°C | 0% | 0hPa | 0V | 00:00:00 | 00:00:00 | 00:00:00 | |
| SP6BVK | 2026-09-05 16:36:31 | 50.82212 | 16.96067 | 118° | 128km/h | 13282m | 1.5m/s | -51.4°C | 0% | 0hPa | 0V | 00:00:00 | 00:00:00 | 00:00:00 | |
| SQ6EMJ | 2026-09-05 16:36:30 | 50.82236 | 16.95966 | 107° | 146km/h | 13277m | 1.9m/s | -51.4°C | 0% | 0hPa | 0V | 00:00:00 | 00:00:00 | 00:00:00 | |
| OM5KV | 2026-09-05 16:36:29 | 50.82236 | 16.95966 | 107° | 146km/h | 13277m | 1.9m/s | -51.4°C | 0% | 0hPa | 0V | 00:00:00 | 00:00:00 | 00:00:00 | |
| SP3BTT-10 | 2026-09-05 16:36:24 | 50.82299 | 16.95714 | 108° | 137km/h | 13264m | 1.6m/s | 0°C | 0% | 0hPa | 0V | 00:00:00 | 00:00:00 | 00:00:00 | |
| PETON7-10 | 2026-09-05 16:36:22 | 50.82326 | 16.95619 | 113° | 135km/h | 13258m | 2.5m/s | 0°C | 0% | 0hPa | 0V | 00:00:00 | 00:00:00 | 00:00:00 | |
| SQ6EMJ | 2026-09-05 16:36:19 | 50.82377 | 16.95412 | 119° | 130km/h | 13250m | 4.0m/s | -51.4°C | 0% | 0hPa | 0V | 00:00:00 | 00:00:00 | 00:00:00 | |
| OM5KV | 2026-09-05 16:36:18 | 50.82377 | 16.95412 | 119° | 130km/h | 13250m | 4.0m/s | -51.4°C | 0% | 0hPa | 0V | 00:00:00 | 00:00:00 | 00:00:00 | |
| SQ6EMJ | 2026-09-05 16:36:13 | 50.82459 | 16.95119 | 115° | 133km/h | 13234m | 2.8m/s | -51.4°C | 0% | 0hPa | 0V | 00:00:00 | 00:00:00 | 00:00:00 | |
| OM5KV | 2026-09-05 16:36:12 | 50.82459 | 16.95119 | 115° | 133km/h | 13234m | 2.8m/s | -51.4°C | 0% | 0hPa | 0V | 00:00:00 | 00:00:00 | 00:00:00 | |
| SP6BVK | 2026-09-05 16:36:11 | 50.82471 | 16.95068 | 108° | 141km/h | 13231m | 3.1m/s | -51.5°C | 0% | 0hPa | 0V | 00:00:00 | 00:00:00 | 00:00:00 | |
| SQ6EMJ | 2026-09-05 16:36:08 | 50.82525 | 16.94871 | 111° | 139km/h | 13219m | 3.5m/s | -51.6°C | 0% | 0hPa | 0V | 00:00:00 | 00:00:00 | 00:00:00 | |
| PETON7-10 | 2026-09-05 16:36:07 | 50.82525 | 16.94869 | 108° | 137km/h | 13217m | 1.8m/s | 0°C | 0% | 0hPa | 0V | 00:00:00 | 00:00:00 | 00:00:00 | |
| POL1PZ | 2026-09-05 16:36:03 | 50.82576 | 16.94671 | 114° | 137km/h | 13210m | 2.8m/s | -51.6°C | 0% | 0hPa | 0V | 00:00:00 | 00:00:00 | 00:00:00 | |
| OM5KV | 2026-09-05 16:36:01 | 50.82599 | 16.94564 | 110° | 139km/h | 13204m | 2.5m/s | -51.6°C | 0% | 0hPa | 0V | 00:00:00 | 00:00:00 | 00:00:00 | |
| SQ6EMJ | 2026-09-05 16:35:57 | 50.82664 | 16.94311 | 115° | 137km/h | 13190m | 3.2m/s | -51.8°C | 0% | 0hPa | 0V | 00:00:00 | 00:00:00 | 00:00:00 | |
| OM5KV | 2026-09-05 16:35:56 | 50.82664 | 16.94311 | 115° | 137km/h | 13190m | 3.2m/s | -51.8°C | 0% | 0hPa | 0V | 00:00:00 | 00:00:00 | 00:00:00 | |
| SP3BTT-10 | 2026-09-05 16:35:54 | 50.82691 | 16.94209 | 106° | 137km/h | 13182m | 1.8m/s | 0°C | 0% | 0hPa | 0V | 00:00:00 | 00:00:00 | 00:00:00 | |
| PETON7-10 | 2026-09-05 16:35:52 | 50.82712 | 16.94103 | 110° | 137km/h | 13177m | 2.4m/s | 0°C | 0% | 0hPa | 0V | 00:00:00 | 00:00:00 | 00:00:00 | |
| SP6BVK | 2026-09-05 16:35:50 | 50.82739 | 16.94004 | 113° | 141km/h | 13174m | 3.0m/s | -52.1°C | 0% | 0hPa | 0V | 00:00:00 | 00:00:00 | 00:00:00 | |
| OM5KV | 2026-09-05 16:35:44 | 50.82812 | 16.93690 | 107° | 139km/h | 13159m | 1.6m/s | -52.1°C | 0% | 0hPa | 0V | 00:00:00 | 00:00:00 | 00:00:00 | |
| POL1PZ | 2026-09-05 16:35:43 | 50.82823 | 16.93640 | 114° | 128km/h | 13155m | 4.4m/s | -52.2°C | 0% | 0hPa | 0V | 00:00:00 | 00:00:00 | 00:00:00 | |
| SQ6EMJ | 2026-09-05 16:35:39 | 50.82875 | 16.93435 | 111° | 135km/h | 13144m | 3.2m/s | -52.1°C | 0% | 0hPa | 0V | 00:00:00 | 00:00:00 | 00:00:00 | |
| OM5KV | 2026-09-05 16:35:38 | 50.82901 | 16.93340 | 114° | 135km/h | 13138m | 3.1m/s | -52.2°C | 0% | 0hPa | 0V | 00:00:00 | 00:00:00 | 00:00:00 | |
| PETON7-10 | 2026-09-05 16:35:37 | 50.82901 | 16.93340 | 113° | 135km/h | 13135m | 3.3m/s | 0°C | 0% | 0hPa | 0V | 00:00:00 | 00:00:00 | 00:00:00 | |
| OK1ALN | 2026-09-05 16:35:36 | 50.82913 | 16.93287 | 108° | 144km/h | 13135m | 3.3m/s | 0°C | 0% | 0hPa | 0V | 00:00:00 | 00:00:00 | 00:00:00 | |
| OM5KV | 2026-09-05 16:35:31 | 50.82973 | 16.93035 | 107° | 146km/h | 13120m | 1.7m/s | -52.0°C | 0% | 0hPa | 0V | 00:00:00 | 00:00:00 | 00:00:00 | |
| SP6BVK | 2026-09-05 16:35:30 | 50.82984 | 16.92982 | 112° | 135km/h | 13118m | 3.5m/s | -52.0°C | 0% | 0hPa | 0V | 00:00:00 | 00:00:00 | 00:00:00 | |
| OM5KV | 2026-09-05 16:35:26 | 50.83034 | 16.92783 | 109° | 141km/h | 13105m | 2.5m/s | -52.0°C | 0% | 0hPa | 0V | 00:00:00 | 00:00:00 | 00:00:00 | |
| SP3BTT-10 | 2026-09-05 16:35:24 | 50.83060 | 16.92686 | 115° | 131km/h | 13096m | 3.5m/s | 0°C | 0% | 0hPa | 0V | 00:00:00 | 00:00:00 | 00:00:00 | |
| PETON7-10 | 2026-09-05 16:35:22 | 50.83084 | 16.92584 | 108° | 135km/h | 13091m | 3.3m/s | 0°C | 0% | 0hPa | 0V | 00:00:00 | 00:00:00 | 00:00:00 | |
| OM5KV | 2026-09-05 16:35:20 | 50.83109 | 16.92485 | 117° | 122km/h | 13087m | 2.9m/s | -51.9°C | 0% | 0hPa | 0V | 00:00:00 | 00:00:00 | 00:00:00 | |
| SQ6EMJ | 2026-09-05 16:35:17 | 50.83159 | 16.92285 | 116° | 128km/h | 13075m | 4.3m/s | -51.9°C | 0% | 0hPa | 0V | 00:00:00 | 00:00:00 | 00:00:00 | |
| OM5KV | 2026-09-05 16:35:15 | 50.83173 | 16.92239 | 115° | 124km/h | 13072m | 2.3m/s | -51.9°C | 0% | 0hPa | 0V | 00:00:00 | 00:00:00 | 00:00:00 | |
| SP6BVK | 2026-09-05 16:35:10 | 50.83249 | 16.91940 | 108° | 144km/h | 13055m | 3.4m/s | -51.8°C | 0% | 0hPa | 0V | 00:00:00 | 00:00:00 | 00:00:00 | |
| OM5KV | 2026-09-05 16:35:09 | 50.83249 | 16.91940 | 108° | 144km/h | 13055m | 3.4m/s | -51.8°C | 0% | 0hPa | 0V | 00:00:00 | 00:00:00 | 00:00:00 | |
| PETON7-10 | 2026-09-05 16:35:07 | 50.83273 | 16.91838 | 116° | 133km/h | 13046m | 3.0m/s | 0°C | 0% | 0hPa | 0V | 00:00:00 | 00:00:00 | 00:00:00 | |
| SQ6EMJ | 2026-09-05 16:35:05 | 50.83301 | 16.91743 | 113° | 141km/h | 13042m | 3.3m/s | -51.8°C | 0% | 0hPa | 0V | 00:00:00 | 00:00:00 | 00:00:00 | |
| OM5KV | 2026-09-05 16:35:04 | 50.83314 | 16.91690 | 109° | 142km/h | 13040m | 1.8m/s | -51.8°C | 0% | 0hPa | 0V | 00:00:00 | 00:00:00 | 00:00:00 | |
| POL1PZ | 2026-09-05 16:35:02 | 50.83339 | 16.91592 | 119° | 126km/h | 13034m | 2.8m/s | -51.8°C | 0% | 0hPa | 0V | 00:00:00 | 00:00:00 | 00:00:00 | |
| SQ6EMJ | 2026-09-05 16:34:59 | 50.83378 | 16.91441 | 111° | 139km/h | 13024m | 2.4m/s | -51.7°C | 0% | 0hPa | 0V | 00:00:00 | 00:00:00 | 00:00:00 | |
| OM5KV | 2026-09-05 16:34:58 | 50.83391 | 16.91392 | 117° | 124km/h | 13021m | 4.8m/s | -51.7°C | 0% | 0hPa | 0V | 00:00:00 | 00:00:00 | 00:00:00 | |
| SQ6EMJ | 2026-09-05 16:34:53 | 50.83457 | 16.91147 | 119° | 122km/h | 13004m | 3.7m/s | -51.8°C | 0% | 0hPa | 0V | 00:00:00 | 00:00:00 | 00:00:00 | |
| PETON7-10 | 2026-09-05 16:34:52 | 50.83471 | 16.91103 | 114° | 131km/h | 12998m | 3.6m/s | 0°C | 0% | 0hPa | 0V | 00:00:00 | 00:00:00 | 00:00:00 | |
| SP6BVK | 2026-09-05 16:34:49 | 50.83509 | 16.90953 | 118° | 128km/h | 12991m | 4.2m/s | -51.8°C | 0% | 0hPa | 0V | 00:00:00 | 00:00:00 | 00:00:00 | |
| SQ6EMJ | 2026-09-05 16:34:47 | 50.83534 | 16.90863 | 111° | 130km/h | 12984m | 3.5m/s | -51.8°C | 0% | 0hPa | 0V | 00:00:00 | 00:00:00 | 00:00:00 | |
| SQ6EMJ | 2026-09-05 16:34:42 | 50.83610 | 16.90570 | 113° | 135km/h | 12966m | 2.9m/s | -51.7°C | 0% | 0hPa | 0V | 00:00:00 | 00:00:00 | 00:00:00 | |
| OM5KV | 2026-09-05 16:34:41 | 50.83610 | 16.90570 | 113° | 135km/h | 12966m | 2.9m/s | -51.7°C | 0% | 0hPa | 0V | 00:00:00 | 00:00:00 | 00:00:00 | |
| SP3BTT-10 | 2026-09-05 16:34:39 | 50.83638 | 16.90479 | 115° | 133km/h | 12956m | 4.0m/s | 0°C | 0% | 0hPa | 0V | 00:00:00 | 00:00:00 | 00:00:00 | |
| PETON7-10 | 2026-09-05 16:34:37 | 50.83661 | 16.90379 | 110° | 133km/h | 12949m | 4.9m/s | 0°C | 0% | 0hPa | 0V | 00:00:00 | 00:00:00 | 00:00:00 | |
| SQ6EMJ | 2026-09-05 16:34:36 | 50.83674 | 16.90286 | 118° | 130km/h | 12946m | 2.3m/s | -51.6°C | 0% | 0hPa | 0V | 00:00:00 | 00:00:00 | 00:00:00 | |
| OM5KV | 2026-09-05 16:34:35 | 50.83688 | 16.90286 | 118° | 120km/h | 12946m | 2.3m/s | -51.7°C | 0% | 0hPa | 0V | 00:00:00 | 00:00:00 | 00:00:00 | |
| SQ6EMJ | 2026-09-05 16:34:31 | 50.83751 | 16.90040 | 116° | 128km/h | 12929m | 2.5m/s | -51.5°C | 0% | 0hPa | 0V | 00:00:00 | 00:00:00 | 00:00:00 | |
| OM5KV | 2026-09-05 16:34:30 | 50.83751 | 16.90040 | 116° | 128km/h | 12929m | 2.5m/s | -51.5°C | 0% | 0hPa | 0V | 00:00:00 | 00:00:00 | 00:00:00 | |
| SP6BVK | 2026-09-05 16:34:28 | 50.83774 | 16.89937 | 109° | 142km/h | 12922m | 2.1m/s | -51.4°C | 0% | 0hPa | 0V | 00:00:00 | 00:00:00 | 00:00:00 | |
| SQ6EMJ | 2026-09-05 16:34:25 | 50.83825 | 16.89742 | 107° | 142km/h | 12908m | 2.8m/s | -51.3°C | 0% | 0hPa | 0V | 00:00:00 | 00:00:00 | 00:00:00 | |
| OM5KV | 2026-09-05 16:34:24 | 50.83825 | 16.89742 | 107° | 142km/h | 12908m | 2.8m/s | -51.3°C | 0% | 0hPa | 0V | 00:00:00 | 00:00:00 | 00:00:00 | |
| PETON7-10 | 2026-09-05 16:34:22 | 50.83849 | 16.89640 | 117° | 135km/h | 12899m | 2.6m/s | 0°C | 0% | 0hPa | 0V | 00:00:00 | 00:00:00 | 00:00:00 | |
| POL1PZ | 2026-09-05 16:34:21 | 50.83864 | 16.89593 | 116° | 131km/h | 12899m | 2.6m/s | -51.3°C | 0% | 0hPa | 0V | 00:00:00 | 00:00:00 | 00:00:00 | |
| SQ6EMJ | 2026-09-05 16:34:20 | 50.83887 | 16.89489 | 109° | 141km/h | 12891m | 3.5m/s | -51.3°C | 0% | 0hPa | 0V | 00:00:00 | 00:00:00 | 00:00:00 | |
| OM5KV | 2026-09-05 16:34:19 | 50.83887 | 16.89489 | 109° | 141km/h | 12891m | 3.5m/s | -51.3°C | 0% | 0hPa | 0V | 00:00:00 | 00:00:00 | 00:00:00 | |
| SQ6EMJ | 2026-09-05 16:34:14 | 50.83959 | 16.89187 | 116° | 126km/h | 12870m | 2.3m/s | -51.2°C | 0% | 0hPa | 0V | 00:00:00 | 00:00:00 | 00:00:00 | |
| OM5KV | 2026-09-05 16:34:13 | 50.83959 | 16.89187 | 116° | 126km/h | 12870m | 2.3m/s | -51.2°C | 0% | 0hPa | 0V | 00:00:00 | 00:00:00 | 00:00:00 | |
| SP3BTT-10 | 2026-09-05 16:34:09 | 50.84003 | 16.88980 | 115° | 135km/h | 12853m | 2.8m/s | 0°C | 0% | 0hPa | 0V | 00:00:00 | 00:00:00 | 00:00:00 | |
| PETON7-10 | 2026-09-05 16:34:07 | 50.84028 | 16.88880 | 106° | 137km/h | 12846m | 2.2m/s | 0°C | 0% | 0hPa | 0V | 00:00:00 | 00:00:00 | 00:00:00 | |
| OM5KV | 2026-09-05 16:34:02 | 50.84084 | 16.88620 | 106° | 142km/h | 12832m | 3.3m/s | -51.3°C | 0% | 0hPa | 0V | 00:00:00 | 00:00:00 | 00:00:00 | |
| POL1PZ | 2026-09-05 16:34:01 | 50.84106 | 16.88516 | 115° | 133km/h | 12826m | 3.8m/s | -51.3°C | 0% | 0hPa | 0V | 00:00:00 | 00:00:00 | 00:00:00 | |
| SQ6EMJ | 2026-09-05 16:33:57 | 50.84155 | 16.88310 | 115° | 135km/h | 12811m | 4.3m/s | -51.2°C | 0% | 0hPa | 0V | 00:00:00 | 00:00:00 | 00:00:00 | |
| OM5KV | 2026-09-05 16:33:56 | 50.84155 | 16.88310 | 115° | 135km/h | 12811m | 4.3m/s | -51.2°C | 0% | 0hPa | 0V | 00:00:00 | 00:00:00 | 00:00:00 | |
| OE3JTB-15 | 2026-09-05 16:33:55 | 50.84168 | 16.88258 | 110° | 133km/h | 12774m | 4.6m/s | 0°C | 0% | 0hPa | 0V | 00:00:00 | 00:00:00 | 00:00:00 | |
| PETON7-10 | 2026-09-05 16:33:52 | 50.84203 | 16.88106 | 114° | 135km/h | 12794m | 2.3m/s | 0°C | 0% | 0hPa | 0V | 00:00:00 | 00:00:00 | 00:00:00 | |
| SQ6EMJ | 2026-09-05 16:33:51 | 50.84217 | 16.88057 | 117° | 131km/h | 12794m | 2.3m/s | -51.1°C | 0% | 0hPa | 0V | 00:00:00 | 00:00:00 | 00:00:00 | |
| SP6BVK | 2026-09-05 16:33:47 | 50.84264 | 16.87853 | 119° | 130km/h | 12781m | 4.1m/s | -51.1°C | 0% | 0hPa | 0V | 00:00:00 | 00:00:00 | 00:00:00 | |
| SQ6EMJ | 2026-09-05 16:33:46 | 50.84291 | 16.87757 | 108° | 137km/h | 12774m | 4.7m/s | -51.0°C | 0% | 0hPa | 0V | 00:00:00 | 00:00:00 | 00:00:00 | |
| OM5KV | 2026-09-05 16:33:45 | 50.84291 | 16.87757 | 108° | 137km/h | 12774m | 4.7m/s | -51.0°C | 0% | 0hPa | 0V | 00:00:00 | 00:00:00 | 00:00:00 | |
| SP3BTT-10 | 2026-09-05 16:33:39 | 50.84362 | 16.87453 | 111° | 133km/h | 12749m | 3.6m/s | 0°C | 0% | 0hPa | 0V | 00:00:00 | 00:00:00 | 00:00:00 | |
| PETON7-10 | 2026-09-05 16:33:37 | 50.84392 | 16.87357 | 116° | 135km/h | 12742m | 5.0m/s | 0°C | 0% | 0hPa | 0V | 00:00:00 | 00:00:00 | 00:00:00 | |
| OM5KV | 2026-09-05 16:33:34 | 50.84426 | 16.87205 | 117° | 133km/h | 12734m | 4.5m/s | -50.8°C | 0% | 0hPa | 0V | 00:00:00 | 00:00:00 | 00:00:00 | |
| SQ6EMJ | 2026-09-05 16:33:29 | 50.84510 | 16.86912 | 116° | 133km/h | 12715m | 3.5m/s | -50.7°C | 0% | 0hPa | 0V | 00:00:00 | 00:00:00 | 00:00:00 | |
| OM5KV | 2026-09-05 16:33:28 | 50.84510 | 16.86912 | 116° | 133km/h | 12715m | 3.5m/s | -50.7°C | 0% | 0hPa | 0V | 00:00:00 | 00:00:00 | 00:00:00 | |
| SP6BVK | 2026-09-05 16:33:26 | 50.84534 | 16.86812 | 112° | 133km/h | 12708m | 2.7m/s | -50.7°C | 0% | 0hPa | 0V | 00:00:00 | 00:00:00 | 00:00:00 | |
| SQ6EMJ | 2026-09-05 16:33:24 | 50.84579 | 16.86666 | 113° | 131km/h | 12697m | 4.4m/s | -50.6°C | 0% | 0hPa | 0V | 00:00:00 | 00:00:00 | 00:00:00 | |
| OM5KV | 2026-09-05 16:33:23 | 50.84579 | 16.86666 | 113° | 131km/h | 12697m | 4.4m/s | -50.6°C | 0% | 0hPa | 0V | 00:00:00 | 00:00:00 | 00:00:00 | |
| PETON7-10 | 2026-09-05 16:33:22 | 50.84591 | 16.86618 | 110° | 131km/h | 12691m | 3.9m/s | 0°C | 0% | 0hPa | 0V | 00:00:00 | 00:00:00 | 00:00:00 | |
| POL1PZ | 2026-09-05 16:33:20 | 50.84636 | 16.86473 | 116° | 137km/h | 12684m | 3.6m/s | -50.5°C | 0% | 0hPa | 0V | 00:00:00 | 00:00:00 | 00:00:00 | |
| SQ6EMJ | 2026-09-05 16:33:17 | 50.84660 | 16.86377 | 115° | 128km/h | 12678m | 3.0m/s | -50.5°C | 0% | 0hPa | 0V | 00:00:00 | 00:00:00 | 00:00:00 | |
| OK1SLM-15 | 2026-09-05 16:33:13 | 50.84718 | 16.86183 | 112° | 122km/h | 12664m | 2.0m/s | -50.4°C | 0% | 0hPa | 0V | 00:00:00 | 00:00:00 | 00:00:00 | |
| OM5KV | 2026-09-05 16:33:11 | 50.84748 | 16.86089 | 122° | 144km/h | 12656m | 2.7m/s | -50.4°C | 0% | 0hPa | 0V | 00:00:00 | 00:00:00 | 00:00:00 | |
| SP3BTT-10 | 2026-09-05 16:33:09 | 50.84777 | 16.85992 | 110° | 133km/h | 12647m | 2.9m/s | 0°C | 0% | 0hPa | 0V | 00:00:00 | 00:00:00 | 00:00:00 | |
| PETON7-10 | 2026-09-05 16:33:07 | 50.84805 | 16.85900 | 122° | 133km/h | 12640m | 2.7m/s | 0°C | 0% | 0hPa | 0V | 00:00:00 | 00:00:00 | 00:00:00 | |
| EDDB2-12 | 2026-09-05 16:33:06 | 50.84838 | 16.85804 | 113° | 128km/h | 12636m | 4.4m/s | -51.0°C | -1.0% | -1.0hPa | 0V | 00:00:00 | 00:00:00 | 00:00:00 | |
| OM5KV | 2026-09-05 16:33:00 | 50.84913 | 16.85569 | 114° | 122km/h | 12620m | 3.1m/s | -50.3°C | 0% | 0hPa | 0V | 00:00:00 | 00:00:00 | 00:00:00 | |
| POL1PZ | 2026-09-05 16:32:58 | 50.84942 | 16.85477 | 122° | 142km/h | 12614m | 4.1m/s | -50.3°C | 0% | 0hPa | 0V | 00:00:00 | 00:00:00 | 00:00:00 | |
| OM5KV | 2026-09-05 16:32:55 | 50.84989 | 16.85335 | 117° | 120km/h | 12603m | 2.5m/s | -50.2°C | 0% | 0hPa | 0V | 00:00:00 | 00:00:00 | 00:00:00 | |
| OK1ALN | 2026-09-05 16:32:52 | 50.85053 | 16.85148 | 117° | 122km/h | 12590m | 2.2m/s | -50.1°C | 0% | 0hPa | 0V | 00:00:00 | 00:00:00 | 00:00:00 | |
| SQ6EMJ | 2026-09-05 16:32:50 | 50.85086 | 16.85057 | 123° | 144km/h | 12584m | 2.8m/s | -50.1°C | 0% | 0hPa | 0V | 00:00:00 | 00:00:00 | 00:00:00 | |
| OM5KV | 2026-09-05 16:32:49 | 50.85086 | 16.85057 | 123° | 144km/h | 12584m | 2.8m/s | -50.1°C | 0% | 0hPa | 0V | 00:00:00 | 00:00:00 | 00:00:00 | |
| OM5KV | 2026-09-05 16:32:44 | 50.85183 | 16.84774 | 116° | 130km/h | 12564m | 3.6m/s | -50.1°C | 0% | 0hPa | 0V | 00:00:00 | 00:00:00 | 00:00:00 | |
| SQ6EMJ | 2026-09-05 16:32:39 | 50.85264 | 16.84539 | 117° | 128km/h | 12549m | 2.0m/s | -50.1°C | 0% | 0hPa | 0V | 00:00:00 | 00:00:00 | 00:00:00 | |
| POL1PZ | 2026-09-05 16:32:38 | 50.85264 | 16.84539 | 117° | 128km/h | 12549m | 2.0m/s | -50.1°C | 0% | 0hPa | 0V | 00:00:00 | 00:00:00 | 00:00:00 | |
| PETON7-10 | 2026-09-05 16:32:37 | 50.85280 | 16.84492 | 120° | 139km/h | 12543m | 2.5m/s | 0°C | 0% | 0hPa | 0V | 00:00:00 | 00:00:00 | 00:00:00 | |
| SQ6EMJ | 2026-09-05 16:32:32 | 50.85364 | 16.84251 | 124° | 146km/h | 12531m | 3.3m/s | -50.1°C | 0% | 0hPa | 0V | 00:00:00 | 00:00:00 | 00:00:00 | |
| OM5KV | 2026-09-05 16:32:27 | 50.85450 | 16.84011 | 124° | 144km/h | 12514m | 2.1m/s | -50.1°C | 0% | 0hPa | 0V | 00:00:00 | 00:00:00 | 00:00:00 | |
| OK1ALN | 2026-09-05 16:32:25 | 50.85483 | 16.83917 | 116° | 128km/h | 12508m | 2.2m/s | -50.1°C | 0% | 0hPa | 0V | 00:00:00 | 00:00:00 | 00:00:00 | |
| SQ6EMJ | 2026-09-05 16:32:22 | 50.85551 | 16.83721 | 116° | 130km/h | 12496m | 3.2m/s | -50.1°C | 0% | 0hPa | 0V | 00:00:00 | 00:00:00 | 00:00:00 | |
| OM5KV | 2026-09-05 16:32:21 | 50.85551 | 16.83721 | 116° | 130km/h | 12496m | 3.2m/s | -50.1°C | 0% | 0hPa | 0V | 00:00:00 | 00:00:00 | 00:00:00 | |
| POL1PZ | 2026-09-05 16:32:17 | 50.85619 | 16.83524 | 116° | 133km/h | 12483m | 3.8m/s | -50.0°C | 0% | 0hPa | 0V | 00:00:00 | 00:00:00 | 00:00:00 | |
| SQ6EMJ | 2026-09-05 16:32:16 | 50.85649 | 16.83426 | 120° | 146km/h | 12477m | 3.8m/s | -50.0°C | 0% | 0hPa | 0V | 00:00:00 | 00:00:00 | 00:00:00 | |
| OM5KV | 2026-09-05 16:32:15 | 50.85649 | 16.83426 | 120° | 146km/h | 12477m | 3.8m/s | -50.0°C | 0% | 0hPa | 0V | 00:00:00 | 00:00:00 | 00:00:00 | |
| OM5KV | 2026-09-05 16:32:10 | 50.85732 | 16.83176 | 122° | 150km/h | 12462m | 2.9m/s | -50.0°C | 0% | 0hPa | 0V | 00:00:00 | 00:00:00 | 00:00:00 | |
| SP3BTT-10 | 2026-09-05 16:32:09 | 50.85751 | 16.83125 | 119° | 144km/h | 12456m | 2.6m/s | 0°C | 0% | 0hPa | 0V | 00:00:00 | 00:00:00 | 00:00:00 | |
| PETON7-10 | 2026-09-05 16:32:07 | 50.85782 | 16.83027 | 117° | 142km/h | 12450m | 2.8m/s | 0°C | 0% | 0hPa | 0V | 00:00:00 | 00:00:00 | 00:00:00 | |
| SQ6EMJ | 2026-09-05 16:32:05 | 50.85834 | 16.82878 | 116° | 133km/h | 12443m | 2.8m/s | -50.0°C | 0% | 0hPa | 0V | 00:00:00 | 00:00:00 | 00:00:00 | |
| EDDB2-12 | 2026-09-05 16:32:04 | 50.85849 | 16.82829 | 116° | 137km/h | 12440m | 2.8m/s | -50.6°C | -1.0% | -1.0hPa | 0V | 00:00:00 | 00:00:00 | 00:00:00 | |
| OK1ALN | 2026-09-05 16:31:59 | 50.85933 | 16.82578 | 120° | 148km/h | 12425m | 4.1m/s | -50.1°C | 0% | 0hPa | 0V | 00:00:00 | 00:00:00 | 00:00:00 | |
| POL1PZ | 2026-09-05 16:31:57 | 50.85952 | 16.82525 | 121° | 157km/h | 12421m | 2.5m/s | -50.1°C | 0% | 0hPa | 0V | 00:00:00 | 00:00:00 | 00:00:00 | |
| SQ6EMJ | 2026-09-05 16:31:54 | 50.86018 | 16.82324 | 122° | 157km/h | 12410m | 4.2m/s | -50.1°C | 0% | 0hPa | 0V | 00:00:00 | 00:00:00 | 00:00:00 | |
| OM5KV | 2026-09-05 16:31:53 | 50.86018 | 16.82324 | 122° | 157km/h | 12410m | 4.2m/s | -50.1°C | 0% | 0hPa | 0V | 00:00:00 | 00:00:00 | 00:00:00 | |
| PETON7-10 | 2026-09-05 16:31:52 | 50.86038 | 16.82271 | 120° | 146km/h | 12403m | 4.3m/s | 0°C | 0% | 0hPa | 0V | 00:00:00 | 00:00:00 | 00:00:00 | |
| SQ6EMJ | 2026-09-05 16:31:48 | 50.86124 | 16.82017 | 120° | 146km/h | 12390m | 2.8m/s | -50.2°C | 0% | 0hPa | 0V | 00:00:00 | 00:00:00 | 00:00:00 | |
| OM5KV | 2026-09-05 16:31:47 | 50.86124 | 16.82017 | 120° | 146km/h | 12390m | 2.8m/s | -50.2°C | 0% | 0hPa | 0V | 00:00:00 | 00:00:00 | 00:00:00 | |
| SP6BVK | 2026-09-05 16:31:44 | 50.86173 | 16.81866 | 121° | 153km/h | 12382m | 3.6m/s | -50.2°C | 0% | 0hPa | 0V | 00:00:00 | 00:00:00 | 00:00:00 | |
| OM5KV | 2026-09-05 16:31:42 | 50.86210 | 16.81762 | 118° | 141km/h | 12376m | 3.6m/s | -50.3°C | 0% | 0hPa | 0V | 00:00:00 | 00:00:00 | 00:00:00 | |
| SP3BTT-10 | 2026-09-05 16:31:39 | 50.86262 | 16.81608 | 124° | 161km/h | 12364m | 3.2m/s | 0°C | 0% | 0hPa | 0V | 00:00:00 | 00:00:00 | 00:00:00 | |
| PETON7-10 | 2026-09-05 16:31:37 | 50.86299 | 16.81508 | 118° | 148km/h | 12359m | 1.9m/s | 0°C | 0% | 0hPa | 0V | 00:00:00 | 00:00:00 | 00:00:00 | |
| OE3JTB-15 | 2026-09-05 16:31:36 | 50.86314 | 16.81456 | 118° | 151km/h | 12356m | 4.6m/s | 0°C | 0% | 0hPa | 0V | 00:00:00 | 00:00:00 | 00:00:00 | |
| OM5KV | 2026-09-05 16:31:31 | 50.86407 | 16.81200 | 121° | 148km/h | 12345m | 3.2m/s | -50.7°C | 0% | 0hPa | 0V | 00:00:00 | 00:00:00 | 00:00:00 | |
| SQ6EMJ | 2026-09-05 16:31:26 | 50.86524 | 16.80889 | 123° | 155km/h | 12327m | 2.3m/s | -50.8°C | 0% | 0hPa | 0V | 00:00:00 | 00:00:00 | 00:00:00 | |
| OM5KV | 2026-09-05 16:31:25 | 50.86524 | 16.80889 | 123° | 155km/h | 12327m | 2.3m/s | -50.8°C | 0% | 0hPa | 0V | 00:00:00 | 00:00:00 | 00:00:00 | |
| SP6BVK | 2026-09-05 16:31:24 | 50.86561 | 16.80786 | 120° | 148km/h | 12322m | 2.2m/s | -50.9°C | 0% | 0hPa | 0V | 00:00:00 | 00:00:00 | 00:00:00 | |
| PETON7-10 | 2026-09-05 16:31:22 | 50.86581 | 16.80733 | 126° | 157km/h | 12315m | 2.5m/s | 0°C | 0% | 0hPa | 0V | 00:00:00 | 00:00:00 | 00:00:00 | |
| SQ6EMJ | 2026-09-05 16:31:20 | 50.86642 | 16.80579 | 118° | 150km/h | 12310m | 1.5m/s | -51.1°C | 0% | 0hPa | 0V | 00:00:00 | 00:00:00 | 00:00:00 | |
| OM5KV | 2026-09-05 16:31:19 | 50.86642 | 16.80579 | 118° | 150km/h | 12310m | 1.5m/s | -51.1°C | 0% | 0hPa | 0V | 00:00:00 | 00:00:00 | 00:00:00 | |
| POL1PZ | 2026-09-05 16:31:16 | 50.86706 | 16.80420 | 125° | 150km/h | 12302m | 3.0m/s | -51.3°C | 0% | 0hPa | 0V | 00:00:00 | 00:00:00 | 00:00:00 | |
| SQ6EMJ | 2026-09-05 16:31:15 | 50.86743 | 16.80316 | 120° | 159km/h | 12297m | 3.0m/s | -51.5°C | 0% | 0hPa | 0V | 00:00:00 | 00:00:00 | 00:00:00 | |
| OM5KV | 2026-09-05 16:31:14 | 50.86743 | 16.80316 | 120° | 159km/h | 12297m | 3.0m/s | -51.5°C | 0% | 0hPa | 0V | 00:00:00 | 00:00:00 | 00:00:00 | |
| PETON7-10 | 2026-09-05 16:31:07 | 50.86898 | 16.79937 | 119° | 162km/h | 12273m | 1.7m/s | 0°C | 0% | 0hPa | 0V | 00:00:00 | 00:00:00 | 00:00:00 | |
| OM5KV | 2026-09-05 16:31:03 | 50.86986 | 16.79714 | 125° | 166km/h | 12265m | 2.7m/s | -52.0°C | 0% | 0hPa | 0V | 00:00:00 | 00:00:00 | 00:00:00 | |
| OK1ALN | 2026-09-05 16:31:01 | 50.87027 | 16.79609 | 124° | 153km/h | 12258m | 2.2m/s | -52.1°C | 0% | 0hPa | 0V | 00:00:00 | 00:00:00 | 00:00:00 | |
| SQ6EMJ | 2026-09-05 16:30:58 | 50.87119 | 16.79387 | 123° | 155km/h | 12246m | 1.9m/s | -52.1°C | 0% | 0hPa | 0V | 00:00:00 | 00:00:00 | 00:00:00 | |
| POL1PZ | 2026-09-05 16:30:55 | 50.87167 | 16.79277 | 127° | 179km/h | 12240m | 1.7m/s | -52.1°C | 0% | 0hPa | 0V | 00:00:00 | 00:00:00 | 00:00:00 | |
| SP3BTT-10 | 2026-09-05 16:30:54 | 50.87192 | 16.79221 | 124° | 173km/h | 12238m | 3.2m/s | 0°C | 0% | 0hPa | 0V | 00:00:00 | 00:00:00 | 00:00:00 | |
| SQ6EMJ | 2026-09-05 16:30:52 | 50.87257 | 16.79058 | 126° | 175km/h | 12229m | 3.6m/s | -52.1°C | 0% | 0hPa | 0V | 00:00:00 | 00:00:00 | 00:00:00 | |
| OK1SLM-15 | 2026-09-05 16:30:50 | 50.87306 | 16.78945 | 123° | 162km/h | 12222m | 3.3m/s | -52.0°C | 0% | 0hPa | 0V | 00:00:00 | 00:00:00 | 00:00:00 | |
| OM5KV | 2026-09-05 16:30:46 | 50.87376 | 16.78780 | 126° | 175km/h | 12214m | 1.8m/s | -52.1°C | 0% | 0hPa | 0V | 00:00:00 | 00:00:00 | 00:00:00 | |
| SP6BVK | 2026-09-05 16:30:42 | 50.87470 | 16.78561 | 128° | 181km/h | 12202m | 2.3m/s | -52.0°C | 0% | 0hPa | 0V | 00:00:00 | 00:00:00 | 00:00:00 | |
| SQ6EMJ | 2026-09-05 16:30:41 | 50.87519 | 16.78449 | 122° | 155km/h | 12197m | 3.1m/s | -52.0°C | 0% | 0hPa | 0V | 00:00:00 | 00:00:00 | 00:00:00 | |
| OM5KV | 2026-09-05 16:30:40 | 50.87519 | 16.78449 | 122° | 155km/h | 12197m | 3.1m/s | -52.0°C | 0% | 0hPa | 0V | 00:00:00 | 00:00:00 | 00:00:00 | |
| OE3JTB-15 | 2026-09-05 16:30:38 | 50.87564 | 16.78341 | 128° | 177km/h | 12184m | 3.0m/s | 0°C | 0% | 0hPa | 0V | 00:00:00 | 00:00:00 | 00:00:00 | |
| PETON7-10 | 2026-09-05 16:30:37 | 50.87592 | 16.78283 | 124° | 172km/h | 12184m | 3.0m/s | 0°C | 0% | 0hPa | 0V | 00:00:00 | 00:00:00 | 00:00:00 | |
| POL1PZ | 2026-09-05 16:30:35 | 50.87639 | 16.78175 | 123° | 161km/h | 12182m | 1.8m/s | -52.0°C | 0% | 0hPa | 0V | 00:00:00 | 00:00:00 | 00:00:00 | |
| OK1ALN | 2026-09-05 16:30:33 | 50.87689 | 16.78062 | 128° | 183km/h | 12176m | 2.1m/s | -52.0°C | 0% | 0hPa | 0V | 00:00:00 | 00:00:00 | 00:00:00 | |
| SQ6EMJ | 2026-09-05 16:30:30 | 50.87788 | 16.77841 | 128° | 184km/h | 12163m | 3.6m/s | -52.0°C | 0% | 0hPa | 0V | 00:00:00 | 00:00:00 | 00:00:00 | |
| OM5KV | 2026-09-05 16:30:23 | 50.87942 | 16.77503 | 126° | 170km/h | 12145m | 3.4m/s | -51.9°C | 0% | 0hPa | 0V | 00:00:00 | 00:00:00 | 00:00:00 | |
| PETON7-10 | 2026-09-05 16:30:22 | 50.87966 | 16.77453 | 127° | 175km/h | 12140m | 3.4m/s | 0°C | 0% | 0hPa | 0V | 00:00:00 | 00:00:00 | 00:00:00 | |
| SQ6EMJ | 2026-09-05 16:30:18 | 50.88070 | 16.77222 | 126° | 161km/h | 12131m | 2.5m/s | -51.9°C | 0% | 0hPa | 0V | 00:00:00 | 00:00:00 | 00:00:00 | |
| POL1PZ | 2026-09-05 16:30:14 | 50.88178 | 16.76995 | 124° | 170km/h | 12119m | 3.8m/s | -51.8°C | 0% | 0hPa | 0V | 00:00:00 | 00:00:00 | 00:00:00 | |
| SQ6EMJ | 2026-09-05 16:30:13 | 50.88227 | 16.76885 | 129° | 179km/h | 12112m | 4.0m/s | -51.8°C | 0% | 0hPa | 0V | 00:00:00 | 00:00:00 | 00:00:00 | |
| OM5KV | 2026-09-05 16:30:12 | 50.88227 | 16.76885 | 129° | 179km/h | 12112m | 4.0m/s | -51.8°C | 0% | 0hPa | 0V | 00:00:00 | 00:00:00 | 00:00:00 | |
| SP3BTT-10 | 2026-09-05 16:30:09 | 50.88310 | 16.76710 | 125° | 181km/h | 12104m | 3.1m/s | 0°C | 0% | 0hPa | 0V | 00:00:00 | 00:00:00 | 00:00:00 | |
| PETON7-10 | 2026-09-05 16:30:07 | 50.88362 | 16.76599 | 128° | 181km/h | 12095m | 2.9m/s | 0°C | 0% | 0hPa | 0V | 00:00:00 | 00:00:00 | 00:00:00 | |
| OK1ALN | 2026-09-05 16:29:04 | 50.90291 | 16.72654 | 126° | 203km/h | 12551m | 2.7m/s | -51.2°C | 0% | 0hPa | 0V | 00:00:00 | 00:00:00 | 00:00:00 | |
| SQ6EMJ | 2026-09-05 16:29:00 | 50.90321 | 16.72591 | 130° | 193km/h | 11893m | 3.0m/s | -51.2°C | 0% | 0hPa | 0V | 00:00:00 | 00:00:00 | 00:00:00 | |
| OM5KV | 2026-09-05 16:28:59 | 50.90321 | 16.72591 | 130° | 193km/h | 11893m | 3.0m/s | -51.2°C | 0% | 0hPa | 0V | 00:00:00 | 00:00:00 | 00:00:00 | |
| OM5KV | 2026-09-05 16:28:54 | 50.90473 | 16.72277 | 132° | 195km/h | 11877m | 3.7m/s | -51.0°C | 0% | 0hPa | 0V | 00:00:00 | 00:00:00 | 00:00:00 | |
| POL1PZ | 2026-09-05 16:28:53 | 50.90532 | 16.72153 | 124° | 199km/h | 11869m | 3.4m/s | -50.9°C | 0% | 0hPa | 0V | 00:00:00 | 00:00:00 | 00:00:00 | |
| PETON7-10 | 2026-09-05 16:28:52 | 50.90532 | 16.72153 | 124° | 204km/h | 11865m | 4.9m/s | 0°C | 0% | 0hPa | 0V | 00:00:00 | 00:00:00 | 00:00:00 | |
| SQ6EMJ | 2026-09-05 16:28:48 | 50.90656 | 16.71899 | 124° | 197km/h | 11854m | 2.8m/s | -50.7°C | 0% | 0hPa | 0V | 00:00:00 | 00:00:00 | 00:00:00 | |
| OE3JTB-15 | 2026-09-05 16:28:43 | 50.90811 | 16.71573 | 130° | 214km/h | 11828m | 4.0m/s | 0°C | 0% | 0hPa | 0V | 00:00:00 | 00:00:00 | 00:00:00 | |
| SP6BVK | 2026-09-05 16:28:40 | 50.90939 | 16.71309 | 123° | 206km/h | 11817m | 3.0m/s | -50.7°C | 0% | 0hPa | 0V | 00:00:00 | 00:00:00 | 00:00:00 | |
| SP3BTT-10 | 2026-09-05 16:28:39 | 50.90939 | 16.71309 | 123° | 215km/h | 11814m | 3.8m/s | 0°C | 0% | 0hPa | 0V | 00:00:00 | 00:00:00 | 00:00:00 | |
| SQ6EMJ | 2026-09-05 16:28:38 | 50.91003 | 16.71173 | 132° | 215km/h | 11810m | 3.7m/s | -50.7°C | 0% | 0hPa | 0V | 00:00:00 | 00:00:00 | 00:00:00 | |
| PETON7-10 | 2026-09-05 16:28:37 | 50.91004 | 16.71173 | 132° | 212km/h | 11807m | 3.1m/s | 0°C | 0% | 0hPa | 0V | 00:00:00 | 00:00:00 | 00:00:00 | |
| POL1PZ | 2026-09-05 16:28:32 | 50.91166 | 16.70836 | 129° | 217km/h | 11793m | 2.7m/s | -50.7°C | 0% | 0hPa | 0V | 00:00:00 | 00:00:00 | 00:00:00 | |
| SQ6EMJ | 2026-09-05 16:28:26 | 50.91359 | 16.70442 | 126° | 206km/h | 11769m | 5.0m/s | -50.5°C | 0% | 0hPa | 0V | 00:00:00 | 00:00:00 | 00:00:00 | |
| OM5KV | 2026-09-05 16:28:24 | 50.91424 | 16.70308 | 130° | 224km/h | 11760m | 5.5m/s | -50.5°C | 0% | 0hPa | 0V | 00:00:00 | 00:00:00 | 00:00:00 | |
| PETON7-10 | 2026-09-05 16:28:22 | 50.91493 | 16.70166 | 126° | 221km/h | 11747m | 3.4m/s | 0°C | 0% | 0hPa | 0V | 00:00:00 | 00:00:00 | 00:00:00 | |
| SQ6EMJ | 2026-09-05 16:28:20 | 50.91556 | 16.70029 | 129° | 221km/h | 11743m | 4.0m/s | -50.4°C | 0% | 0hPa | 0V | 00:00:00 | 00:00:00 | 00:00:00 | |
| SP6BVK | 2026-09-05 16:28:19 | 50.91628 | 16.69891 | 130° | 215km/h | 11736m | 4.7m/s | -50.4°C | 0% | 0hPa | 0V | 00:00:00 | 00:00:00 | 00:00:00 | |
| OM5KV | 2026-09-05 16:28:18 | 50.91628 | 16.69891 | 130° | 215km/h | 11736m | 4.7m/s | -50.4°C | 0% | 0hPa | 0V | 00:00:00 | 00:00:00 | 00:00:00 | |
| SQ6EMJ | 2026-09-05 16:28:15 | 50.91725 | 16.69683 | 130° | 235km/h | 11723m | 5.3m/s | -50.3°C | 0% | 0hPa | 0V | 00:00:00 | 00:00:00 | 00:00:00 | |
| OE3JTB-15 | 2026-09-05 16:28:14 | 50.91762 | 16.69612 | 130° | 224km/h | 11715m | 3.7m/s | 0°C | 0% | 0hPa | 0V | 00:00:00 | 00:00:00 | 00:00:00 | |
| OM5KV | 2026-09-05 16:28:12 | 50.91829 | 16.69475 | 127° | 212km/h | 11712m | 2.0m/s | -50.2°C | 0% | 0hPa | 0V | 00:00:00 | 00:00:00 | 00:00:00 | |
| POL1PZ | 2026-09-05 16:28:11 | 50.91862 | 16.69406 | 129° | 226km/h | 11709m | 5.4m/s | -50.2°C | 0% | 0hPa | 0V | 00:00:00 | 00:00:00 | 00:00:00 | |
| SQ6EMJ | 2026-09-05 16:28:10 | 50.91934 | 16.69262 | 128° | 223km/h | 11700m | 3.6m/s | -50.3°C | 0% | 0hPa | 0V | 00:00:00 | 00:00:00 | 00:00:00 | |
| SP3BTT-10 | 2026-09-05 16:28:09 | 50.91934 | 16.69262 | 128° | 230km/h | 11697m | 2.0m/s | 0°C | 0% | 0hPa | 0V | 00:00:00 | 00:00:00 | 00:00:00 | |
| PETON7-10 | 2026-09-05 16:28:07 | 50.91999 | 16.69122 | 128° | 226km/h | 11691m | 3.5m/s | 0°C | 0% | 0hPa | 0V | 00:00:00 | 00:00:00 | 00:00:00 | |
| OM5KV | 2026-09-05 16:28:05 | 50.92073 | 16.68978 | 129° | 230km/h | 11687m | 3.8m/s | -50.5°C | 0% | 0hPa | 0V | 00:00:00 | 00:00:00 | 00:00:00 | |
| SQ6EMJ | 2026-09-05 16:28:03 | 50.92138 | 16.68836 | 128° | 219km/h | 11679m | 3.5m/s | -50.5°C | 0% | 0hPa | 0V | 00:00:00 | 00:00:00 | 00:00:00 | |
| OM5KV | 2026-09-05 16:27:59 | 50.92275 | 16.68546 | 126° | 219km/h | 11663m | 2.4m/s | -50.5°C | 0% | 0hPa | 0V | 00:00:00 | 00:00:00 | 00:00:00 | |
| SP6BVK | 2026-09-05 16:27:58 | 50.92310 | 16.68473 | 129° | 234km/h | 11660m | 4.6m/s | -50.5°C | 0% | 0hPa | 0V | 00:00:00 | 00:00:00 | 00:00:00 | |
| PETON7-10 | 2026-09-05 16:27:52 | 50.92516 | 16.68030 | 126° | 228km/h | 11635m | 3.4m/s | 0°C | 0% | 0hPa | 0V | 00:00:00 | 00:00:00 | 00:00:00 | |
| POL1PZ | 2026-09-05 16:27:50 | 50.92578 | 16.67882 | 124° | 224km/h | 11632m | 2.9m/s | -50.5°C | 0% | 0hPa | 0V | 00:00:00 | 00:00:00 | 00:00:00 | |
| SQ6EMJ | 2026-09-05 16:27:47 | 50.92682 | 16.67656 | 125° | 221km/h | 11621m | 4.5m/s | -50.5°C | 0% | 0hPa | 0V | 00:00:00 | 00:00:00 | 00:00:00 | |
| OM5KV | 2026-09-05 16:27:46 | 50.92713 | 16.67583 | 124° | 219km/h | 11617m | 2.8m/s | -50.5°C | 0% | 0hPa | 0V | 00:00:00 | 00:00:00 | 00:00:00 | |
| OE3JTB-15 | 2026-09-05 16:27:45 | 50.92744 | 16.67507 | 127° | 232km/h | 11610m | 2.9m/s | 0°C | 0% | 0hPa | 0V | 00:00:00 | 00:00:00 | 00:00:00 | |
| SQ6EMJ | 2026-09-05 16:27:42 | 50.92877 | 16.67204 | 125° | 228km/h | 11600m | 3.2m/s | -50.5°C | 0% | 0hPa | 0V | 00:00:00 | 00:00:00 | 00:00:00 | |
| OK1ALN | 2026-09-05 16:27:41 | 50.92877 | 16.67204 | 125° | 228km/h | 11600m | 3.2m/s | -50.5°C | 0% | 0hPa | 0V | 00:00:00 | 00:00:00 | 00:00:00 | |
| SP3BTT-10 | 2026-09-05 16:27:38 | 50.92978 | 16.66976 | 124° | 230km/h | 11584m | 3.6m/s | 0°C | 0% | 0hPa | 0V | 00:00:00 | 00:00:00 | 00:00:00 | |
| PETON7-10 | 2026-09-05 16:27:37 | 50.93010 | 16.66899 | 124° | 232km/h | 11584m | 3.6m/s | 0°C | 0% | 0hPa | 0V | 00:00:00 | 00:00:00 | 00:00:00 | |
| SQ6EMJ | 2026-09-05 16:27:35 | 50.93077 | 16.66744 | 125° | 235km/h | 11580m | 3.4m/s | -50.4°C | 0% | 0hPa | 0V | 00:00:00 | 00:00:00 | 00:00:00 | |
| POL1PZ | 2026-09-05 16:27:30 | 50.93240 | 16.66361 | 125° | 221km/h | 11564m | 3.5m/s | -50.3°C | 0% | 0hPa | 0V | 00:00:00 | 00:00:00 | 00:00:00 | |
| OM5KV | 2026-09-05 16:27:27 | 50.93338 | 16.66130 | 126° | 241km/h | 11555m | 2.3m/s | -50.2°C | 0% | 0hPa | 0V | 00:00:00 | 00:00:00 | 00:00:00 | |
| SQ6EMJ | 2026-09-05 16:27:25 | 50.93434 | 16.65904 | 125° | 234km/h | 11546m | 3.8m/s | -50.2°C | 0% | 0hPa | 0V | 00:00:00 | 00:00:00 | 00:00:00 | |
| PETON7-10 | 2026-09-05 16:27:22 | 50.93501 | 16.65745 | 124° | 228km/h | 11536m | 3.0m/s | 0°C | 0% | 0hPa | 0V | 00:00:00 | 00:00:00 | 00:00:00 | |
| OM5KV | 2026-09-05 16:27:19 | 50.93596 | 16.65517 | 124° | 239km/h | 11530m | 3.2m/s | -50.2°C | 0% | 0hPa | 0V | 00:00:00 | 00:00:00 | 00:00:00 | |
| OK1ALN | 2026-09-05 16:27:17 | 50.93660 | 16.65361 | 124° | 219km/h | 11524m | 3.6m/s | -50.2°C | 0% | 0hPa | 0V | 00:00:00 | 00:00:00 | 00:00:00 | |
| SQ6EMJ | 2026-09-05 16:27:14 | 50.93786 | 16.65051 | 123° | 224km/h | 11514m | 3.6m/s | -50.1°C | 0% | 0hPa | 0V | 00:00:00 | 00:00:00 | 00:00:00 | |
| OM5KV | 2026-09-05 16:27:11 | 50.93849 | 16.64904 | 125° | 228km/h | 11508m | 2.7m/s | -50.1°C | 0% | 0hPa | 0V | 00:00:00 | 00:00:00 | 00:00:00 | |
| POL1PZ | 2026-09-05 16:27:09 | 50.93912 | 16.64745 | 123° | 232km/h | 11503m | 2.8m/s | -50.0°C | 0% | 0hPa | 0V | 00:00:00 | 00:00:00 | 00:00:00 | |
| SP3BTT-10 | 2026-09-05 16:27:08 | 50.93943 | 16.64669 | 124° | 223km/h | 11500m | 2.6m/s | 0°C | 0% | 0hPa | 0V | 00:00:00 | 00:00:00 | 00:00:00 | |
| PETON7-10 | 2026-09-05 16:27:07 | 50.93974 | 16.64596 | 125° | 228km/h | 11494m | 3.2m/s | 0°C | 0% | 0hPa | 0V | 00:00:00 | 00:00:00 | 00:00:00 | |
| SQ6EMJ | 2026-09-05 16:27:02 | 50.94130 | 16.64213 | 124° | 234km/h | 11484m | 3.7m/s | -50.3°C | 0% | 0hPa | 0V | 00:00:00 | 00:00:00 | 00:00:00 | |
| OM5KV | 2026-09-05 16:26:58 | 50.94251 | 16.63903 | 124° | 226km/h | 11473m | 2.7m/s | -50.3°C | 0% | 0hPa | 0V | 00:00:00 | 00:00:00 | 00:00:00 | |
| SQ6EMJ | 2026-09-05 16:26:57 | 50.94314 | 16.63745 | 123° | 230km/h | 11468m | 2.5m/s | -50.3°C | 0% | 0hPa | 0V | 00:00:00 | 00:00:00 | 00:00:00 | |
| SP6BVK | 2026-09-05 16:26:56 | 50.94314 | 16.63745 | 123° | 230km/h | 11468m | 2.5m/s | -50.3°C | 0% | 0hPa | 0V | 00:00:00 | 00:00:00 | 00:00:00 | |
| PETON7-10 | 2026-09-05 16:26:52 | 50.94432 | 16.63435 | 122° | 223km/h | 11455m | 2.4m/s | 0°C | 0% | 0hPa | 0V | 00:00:00 | 00:00:00 | 00:00:00 | |
| SQ6EMJ | 2026-09-05 16:26:51 | 50.94460 | 16.63359 | 122° | 215km/h | 11455m | 2.4m/s | -50.4°C | 0% | 0hPa | 0V | 00:00:00 | 00:00:00 | 00:00:00 | |
| OK1ALN | 2026-09-05 16:26:50 | 50.94489 | 16.63283 | 122° | 223km/h | 11453m | 2.9m/s | -50.5°C | 0% | 0hPa | 0V | 00:00:00 | 00:00:00 | 00:00:00 | |
| OE3JTB-15 | 2026-09-05 16:26:47 | 50.94575 | 16.63050 | 120° | 221km/h | 11443m | 3.0m/s | 0°C | 0% | 0hPa | 0V | 00:00:00 | 00:00:00 | 00:00:00 | |
| OM5KV | 2026-09-05 16:26:46 | 50.94603 | 16.62974 | 121° | 223km/h | 11443m | 3.1m/s | -50.6°C | 0% | 0hPa | 0V | 00:00:00 | 00:00:00 | 00:00:00 | |
| SQ6EMJ | 2026-09-05 16:26:45 | 50.94632 | 16.62895 | 121° | 234km/h | 11440m | 1.4m/s | -50.6°C | 0% | 0hPa | 0V | 00:00:00 | 00:00:00 | 00:00:00 | |
| OM5KV | 2026-09-05 16:26:40 | 50.94800 | 16.62429 | 120° | 215km/h | 11425m | 2.8m/s | -50.9°C | 0% | 0hPa | 0V | 00:00:00 | 00:00:00 | 00:00:00 | |
| SQ6EMJ | 2026-09-05 16:26:39 | 50.94800 | 16.62429 | 120° | 215km/h | 11425m | 2.8m/s | -50.9°C | 0% | 0hPa | 0V | 00:00:00 | 00:00:00 | 00:00:00 | |
| SP3BTT-10 | 2026-09-05 16:26:38 | 50.94827 | 16.62357 | 119° | 219km/h | 11418m | 1.6m/s | 0°C | 0% | 0hPa | 0V | 00:00:00 | 00:00:00 | 00:00:00 | |
| PETON7-10 | 2026-09-05 16:26:37 | 50.94853 | 16.62277 | 119° | 219km/h | 11418m | 1.6m/s | 0°C | 0% | 0hPa | 0V | 00:00:00 | 00:00:00 | 00:00:00 | |
| SP6BVK | 2026-09-05 16:26:36 | 50.94881 | 16.62196 | 119° | 228km/h | 11418m | 1.6m/s | -50.9°C | 0% | 0hPa | 0V | 00:00:00 | 00:00:00 | 00:00:00 | |
| OM5KV | 2026-09-05 16:26:34 | 50.94933 | 16.62042 | 120° | 212km/h | 11413m | 2.0m/s | -51.0°C | 0% | 0hPa | 0V | 00:00:00 | 00:00:00 | 00:00:00 | |
| POL1PZ | 2026-09-05 16:26:28 | 50.95092 | 16.61578 | 119° | 232km/h | 11401m | 1.7m/s | -51.1°C | 0% | 0hPa | 0V | 00:00:00 | 00:00:00 | 00:00:00 | |
| SQ6EMJ | 2026-09-05 16:26:24 | 50.95221 | 16.61187 | 119° | 226km/h | 11390m | 2.4m/s | -51.1°C | 0% | 0hPa | 0V | 00:00:00 | 00:00:00 | 00:00:00 | |
| OM5KV | 2026-09-05 16:26:23 | 50.95221 | 16.61187 | 119° | 226km/h | 11390m | 2.4m/s | -51.1°C | 0% | 0hPa | 0V | 00:00:00 | 00:00:00 | 00:00:00 | |
| PETON7-10 | 2026-09-05 16:26:22 | 50.95247 | 16.61109 | 118° | 217km/h | 11385m | 1.8m/s | 0°C | 0% | 0hPa | 0V | 00:00:00 | 00:00:00 | 00:00:00 | |
| OK1ALN | 2026-09-05 16:26:21 | 50.95272 | 16.61034 | 119° | 214km/h | 11385m | 1.8m/s | -51.1°C | 0% | 0hPa | 0V | 00:00:00 | 00:00:00 | 00:00:00 | |
| OE3JTB-15 | 2026-09-05 16:26:18 | 50.95349 | 16.60799 | 118° | 214km/h | 11376m | 1.8m/s | 0°C | 0% | 0hPa | 0V | 00:00:00 | 00:00:00 | 00:00:00 | |
| OM5KV | 2026-09-05 16:26:17 | 50.95374 | 16.60724 | 119° | 212km/h | 11376m | 1.9m/s | -51.2°C | 0% | 0hPa | 0V | 00:00:00 | 00:00:00 | 00:00:00 | |
| SP6BVK | 2026-09-05 16:26:15 | 50.95425 | 16.60566 | 117° | 224km/h | 11372m | 1.3m/s | -51.2°C | 0% | 0hPa | 0V | 00:00:00 | 00:00:00 | 00:00:00 | |
| SQ6EMJ | 2026-09-05 16:26:12 | 50.95523 | 16.60258 | 118° | 224km/h | 11363m | 1.4m/s | -51.2°C | 0% | 0hPa | 0V | 00:00:00 | 00:00:00 | 00:00:00 | |
| OM5KV | 2026-09-05 16:26:11 | 50.95523 | 16.60258 | 118° | 224km/h | 11363m | 1.4m/s | -51.2°C | 0% | 0hPa | 0V | 00:00:00 | 00:00:00 | 00:00:00 | |
| SP3BTT-10 | 2026-09-05 16:26:08 | 50.95594 | 16.60028 | 117° | 204km/h | 11356m | 2.7m/s | 0°C | 0% | 0hPa | 0V | 00:00:00 | 00:00:00 | 00:00:00 | |
| PETON7-10 | 2026-09-05 16:26:07 | 50.95619 | 16.59949 | 117° | 212km/h | 11352m | 2.9m/s | 0°C | 0% | 0hPa | 0V | 00:00:00 | 00:00:00 | 00:00:00 | |
| SQ6EMJ | 2026-09-05 16:26:01 | 50.95786 | 16.59415 | 118° | 212km/h | 11339m | 2.7m/s | -51.1°C | 0% | 0hPa | 0V | 00:00:00 | 00:00:00 | 00:00:00 | |
| OM5KV | 2026-09-05 16:26:00 | 50.95786 | 16.59415 | 118° | 212km/h | 11339m | 2.7m/s | -51.1°C | 0% | 0hPa | 0V | 00:00:00 | 00:00:00 | 00:00:00 | |
| SP6BVK | 2026-09-05 16:25:55 | 50.95904 | 16.59033 | 119° | 223km/h | 11328m | 3.1m/s | -51.0°C | 0% | 0hPa | 0V | 00:00:00 | 00:00:00 | 00:00:00 | |
| PETON7-10 | 2026-09-05 16:25:51 | 50.95997 | 16.58729 | 116° | 208km/h | 11317m | 1.8m/s | 0°C | 0% | 0hPa | 0V | 00:00:00 | 00:00:00 | 00:00:00 | |
| OE3JTB-15 | 2026-09-05 16:25:49 | 50.96048 | 16.58574 | 118° | 203km/h | 11311m | 2.2m/s | 0°C | 0% | 0hPa | 0V | 00:00:00 | 00:00:00 | 00:00:00 | |
| OM5KV | 2026-09-05 16:25:48 | 50.96070 | 16.58501 | 115° | 195km/h | 11313m | 2.4m/s | -51.1°C | 0% | 0hPa | 0V | 00:00:00 | 00:00:00 | 00:00:00 | |
| POL1PZ | 2026-09-05 16:25:47 | 50.96091 | 16.58428 | 115° | 204km/h | 11311m | 2.3m/s | -51.2°C | 0% | 0hPa | 0V | 00:00:00 | 00:00:00 | 00:00:00 | |
| SQ6EMJ | 2026-09-05 16:25:44 | 50.96180 | 16.58127 | 118° | 193km/h | 11297m | 2.0m/s | -51.2°C | 0% | 0hPa | 0V | 00:00:00 | 00:00:00 | 00:00:00 | |
| OM5KV | 2026-09-05 16:25:41 | 50.96224 | 16.57978 | 115° | 212km/h | 11293m | 1.8m/s | -51.1°C | 0% | 0hPa | 0V | 00:00:00 | 00:00:00 | 00:00:00 | |
| SQ6EMJ | 2026-09-05 16:25:38 | 50.96290 | 16.57757 | 117° | 212km/h | 11285m | 3.5m/s | -51.1°C | 0% | 0hPa | 0V | 00:00:00 | 00:00:00 | 00:00:00 | |
| PETON7-10 | 2026-09-05 16:25:36 | 50.96336 | 16.57603 | 116° | 199km/h | 11276m | 1.9m/s | 0°C | 0% | 0hPa | 0V | 00:00:00 | 00:00:00 | 00:00:00 | |
| OM5KV | 2026-09-05 16:25:35 | 50.96379 | 16.57463 | 117° | 203km/h | 11274m | 3.0m/s | -51.1°C | 0% | 0hPa | 0V | 00:00:00 | 00:00:00 | 00:00:00 | |
| SP6BVK | 2026-09-05 16:25:34 | 50.96379 | 16.57463 | 117° | 203km/h | 11274m | 3.0m/s | -51.1°C | 0% | 0hPa | 0V | 00:00:00 | 00:00:00 | 00:00:00 | |
| SQ6EMJ | 2026-09-05 16:25:33 | 50.96424 | 16.57310 | 116° | 204km/h | 11269m | 2.2m/s | -51.2°C | 0% | 0hPa | 0V | 00:00:00 | 00:00:00 | 00:00:00 | |
| POL1PZ | 2026-09-05 16:25:27 | 50.96535 | 16.56953 | 117° | 192km/h | 11256m | 3.0m/s | -51.3°C | 0% | 0hPa | 0V | 00:00:00 | 00:00:00 | 00:00:00 | |
| SP3BTT-10 | 2026-09-05 16:25:25 | 50.96576 | 16.56808 | 117° | 203km/h | 11249m | 1.1m/s | 0°C | 0% | 0hPa | 0V | 00:00:00 | 00:00:00 | 00:00:00 | |
| SQ6EMJ | 2026-09-05 16:25:22 | 50.96666 | 16.56528 | 117° | 199km/h | 11243m | 2.7m/s | -51.4°C | 0% | 0hPa | 0V | 00:00:00 | 00:00:00 | 00:00:00 | |
| PETON7-10 | 2026-09-05 16:25:21 | 50.96666 | 16.56527 | 117° | 199km/h | 11240m | 2.0m/s | 0°C | 0% | 0hPa | 0V | 00:00:00 | 00:00:00 | 00:00:00 | |
| OE3JTB-15 | 2026-09-05 16:25:20 | 50.96689 | 16.56453 | 116° | 199km/h | 11238m | 1.6m/s | 0°C | 0% | 0hPa | 0V | 00:00:00 | 00:00:00 | 00:00:00 | |
| SQ6EMJ | 2026-09-05 16:25:15 | 50.96802 | 16.56096 | 118° | 212km/h | 11228m | 2.2m/s | -51.4°C | 0% | 0hPa | 0V | 00:00:00 | 00:00:00 | 00:00:00 | |
| SP6BVK | 2026-09-05 16:25:14 | 50.96825 | 16.56023 | 119° | 199km/h | 11225m | 2.4m/s | -51.4°C | 0% | 0hPa | 0V | 00:00:00 | 00:00:00 | 00:00:00 | |
| OM5KV | 2026-09-05 16:25:12 | 50.96871 | 16.55887 | 119° | 197km/h | 11220m | 2.7m/s | -51.5°C | 0% | 0hPa | 0V | 00:00:00 | 00:00:00 | 00:00:00 | |
| SQ6EMJ | 2026-09-05 16:25:10 | 50.96919 | 16.55743 | 119° | 199km/h | 11215m | 3.0m/s | -51.6°C | 0% | 0hPa | 0V | 00:00:00 | 00:00:00 | 00:00:00 | |
| PETON7-10 | 2026-09-05 16:25:06 | 50.97014 | 16.55464 | 119° | 201km/h | 11203m | 2.3m/s | 0°C | 0% | 0hPa | 0V | 00:00:00 | 00:00:00 | 00:00:00 | |
| SQ6EMJ | 2026-09-05 16:25:05 | 50.97063 | 16.55330 | 121° | 195km/h | 11201m | 2.5m/s | -51.8°C | 0% | 0hPa | 0V | 00:00:00 | 00:00:00 | 00:00:00 | |
| OM5KV | 2026-09-05 16:25:01 | 50.97137 | 16.55116 | 121° | 190km/h | 11193m | 3.4m/s | -52.0°C | 0% | 0hPa | 0V | 00:00:00 | 00:00:00 | 00:00:00 | |
| SQ6EMJ | 2026-09-05 16:24:59 | 50.97187 | 16.54981 | 121° | 210km/h | 11187m | 3.3m/s | -52.0°C | 0% | 0hPa | 0V | 00:00:00 | 00:00:00 | 00:00:00 | |
| OM5KV | 2026-09-05 16:24:56 | 50.97289 | 16.54704 | 122° | 201km/h | 11177m | 2.7m/s | -52.1°C | 0% | 0hPa | 0V | 00:00:00 | 00:00:00 | 00:00:00 | |
| SP6BVK | 2026-09-05 16:24:54 | 50.97343 | 16.54559 | 122° | 206km/h | 11172m | 2.6m/s | -52.1°C | 0% | 0hPa | 0V | 00:00:00 | 00:00:00 | 00:00:00 | |
| SQ6EMJ | 2026-09-05 16:24:53 | 50.97343 | 16.54559 | 122° | 206km/h | 11172m | 2.6m/s | -52.1°C | 0% | 0hPa | 0V | 00:00:00 | 00:00:00 | 00:00:00 | |
| PETON7-10 | 2026-09-05 16:24:51 | 50.97395 | 16.54426 | 122° | 203km/h | 11163m | 3.4m/s | 0°C | 0% | 0hPa | 0V | 00:00:00 | 00:00:00 | 00:00:00 | |
| SQ6EMJ | 2026-09-05 16:24:48 | 50.97500 | 16.54147 | 123° | 193km/h | 11154m | 2.2m/s | -52.2°C | 0% | 0hPa | 0V | 00:00:00 | 00:00:00 | 00:00:00 | |
| OK1ALN | 2026-09-05 16:24:46 | 50.97526 | 16.54079 | 122° | 204km/h | 11152m | 2.9m/s | -52.1°C | 0% | 0hPa | 0V | 00:00:00 | 00:00:00 | 00:00:00 | |
| SQ6EMJ | 2026-09-05 16:24:37 | 50.97797 | 16.53384 | 123° | 204km/h | 11126m | 3.5m/s | -52.1°C | 0% | 0hPa | 0V | 00:00:00 | 00:00:00 | 00:00:00 | |
| PETON7-10 | 2026-09-05 16:24:36 | 50.97797 | 16.53384 | 122° | 206km/h | 11122m | 2.4m/s | 0°C | 0% | 0hPa | 0V | 00:00:00 | 00:00:00 | 00:00:00 | |
| OM5KV | 2026-09-05 16:24:35 | 50.97850 | 16.53251 | 123° | 203km/h | 11120m | 3.3m/s | -52.0°C | 0% | 0hPa | 0V | 00:00:00 | 00:00:00 | 00:00:00 | |
| SP6BVK | 2026-09-05 16:24:33 | 50.97878 | 16.53179 | 122° | 217km/h | 11117m | 2.8m/s | -52.0°C | 0% | 0hPa | 0V | 00:00:00 | 00:00:00 | 00:00:00 | |
| SQ6EMJ | 2026-09-05 16:24:32 | 50.97935 | 16.53039 | 124° | 195km/h | 11111m | 3.2m/s | -52.1°C | 0% | 0hPa | 0V | 00:00:00 | 00:00:00 | 00:00:00 | |
| SQ6EMJ | 2026-09-05 16:24:26 | 50.98103 | 16.52622 | 122° | 215km/h | 11092m | 3.3m/s | -52.0°C | 0% | 0hPa | 0V | 00:00:00 | 00:00:00 | 00:00:00 | |
| POL1PZ | 2026-09-05 16:24:25 | 50.98103 | 16.52622 | 122° | 215km/h | 11092m | 3.3m/s | -52.0°C | 0% | 0hPa | 0V | 00:00:00 | 00:00:00 | 00:00:00 | |
| OK1ALN | 2026-09-05 16:24:24 | 50.98132 | 16.52549 | 124° | 215km/h | 11089m | 2.2m/s | -52.0°C | 0% | 0hPa | 0V | 00:00:00 | 00:00:00 | 00:00:00 | |
| OM5KV | 2026-09-05 16:24:23 | 50.98161 | 16.52480 | 126° | 203km/h | 11086m | 3.9m/s | -52.0°C | 0% | 0hPa | 0V | 00:00:00 | 00:00:00 | 00:00:00 | |
| OE3JTB-15 | 2026-09-05 16:24:22 | 50.98190 | 16.52417 | 121° | 212km/h | 11079m | 3.8m/s | 0°C | 0% | 0hPa | 0V | 00:00:00 | 00:00:00 | 00:00:00 | |
| PETON7-10 | 2026-09-05 16:24:21 | 50.98218 | 16.52342 | 121° | 210km/h | 11076m | 2.0m/s | 0°C | 0% | 0hPa | 0V | 00:00:00 | 00:00:00 | 00:00:00 | |
| SQ6EMJ | 2026-09-05 16:24:20 | 50.98275 | 16.52197 | 125° | 206km/h | 11073m | 3.7m/s | -51.9°C | 0% | 0hPa | 0V | 00:00:00 | 00:00:00 | 00:00:00 | |
| OM5KV | 2026-09-05 16:24:18 | 50.98304 | 16.52130 | 126° | 199km/h | 11070m | 2.5m/s | -51.9°C | 0% | 0hPa | 0V | 00:00:00 | 00:00:00 | 00:00:00 | |
| SQ6EMJ | 2026-09-05 16:24:14 | 50.98419 | 16.51847 | 126° | 201km/h | 11059m | 2.7m/s | -51.9°C | 0% | 0hPa | 0V | 00:00:00 | 00:00:00 | 00:00:00 | |
| SP6BVK | 2026-09-05 16:24:13 | 50.98476 | 16.51707 | 122° | 219km/h | 11053m | 3.0m/s | -51.8°C | 0% | 0hPa | 0V | 00:00:00 | 00:00:00 | 00:00:00 | |
| OM5KV | 2026-09-05 16:24:12 | 50.98476 | 16.51707 | 122° | 219km/h | 11053m | 3.0m/s | -51.8°C | 0% | 0hPa | 0V | 00:00:00 | 00:00:00 | 00:00:00 | |
| SP3BTT-10 | 2026-09-05 16:24:09 | 50.98563 | 16.51496 | 121° | 214km/h | 11041m | 3.4m/s | 0°C | 0% | 0hPa | 0V | 00:00:00 | 00:00:00 | 00:00:00 | |
| PETON7-10 | 2026-09-05 16:24:06 | 50.98649 | 16.51277 | 125° | 214km/h | 11031m | 3.1m/s | 0°C | 0% | 0hPa | 0V | 00:00:00 | 00:00:00 | 00:00:00 | |
| POL1PZ | 2026-09-05 16:24:05 | 50.98679 | 16.51209 | 125° | 206km/h | 11031m | 3.2m/s | -51.7°C | 0% | 0hPa | 0V | 00:00:00 | 00:00:00 | 00:00:00 | |
| SQ6EMJ | 2026-09-05 16:24:04 | 50.98735 | 16.51063 | 122° | 219km/h | 11025m | 2.9m/s | -51.8°C | 0% | 0hPa | 0V | 00:00:00 | 00:00:00 | 00:00:00 | |
| SQ6EMJ | 2026-09-05 16:23:58 | 50.98910 | 16.50630 | 125° | 212km/h | 11004m | 2.9m/s | -51.7°C | 0% | 0hPa | 0V | 00:00:00 | 00:00:00 | 00:00:00 | |
| OM5KV | 2026-09-05 16:23:55 | 50.98966 | 16.50485 | 122° | 214km/h | 10998m | 2.9m/s | -51.6°C | 0% | 0hPa | 0V | 00:00:00 | 00:00:00 | 00:00:00 | |
| OE3JTB-15 | 2026-09-05 16:23:53 | 50.99026 | 16.50342 | 124° | 212km/h | 10989m | 3.2m/s | 0°C | 0% | 0hPa | 0V | 00:00:00 | 00:00:00 | 00:00:00 | |
| SP6BVK | 2026-09-05 16:23:52 | 50.99055 | 16.50269 | 121° | 215km/h | 10989m | 3.2m/s | -51.6°C | 0% | 0hPa | 0V | 00:00:00 | 00:00:00 | 00:00:00 | |
| OM5KV | 2026-09-05 16:23:51 | 50.99111 | 16.50125 | 126° | 210km/h | 10982m | 3.7m/s | -51.5°C | 0% | 0hPa | 0V | 00:00:00 | 00:00:00 | 00:00:00 | |
| SQ6EMJ | 2026-09-05 16:23:46 | 50.99226 | 16.49833 | 125° | 206km/h | 10969m | 3.8m/s | -51.4°C | 0% | 0hPa | 0V | 00:00:00 | 00:00:00 | 00:00:00 | |
| OM5KV | 2026-09-05 16:23:45 | 50.99284 | 16.49692 | 122° | 219km/h | 10962m | 4.0m/s | -51.4°C | 0% | 0hPa | 0V | 00:00:00 | 00:00:00 | 00:00:00 | |
| POL1PZ | 2026-09-05 16:23:44 | 50.99284 | 16.49692 | 122° | 219km/h | 10962m | 4.0m/s | -51.4°C | 0% | 0hPa | 0V | 00:00:00 | 00:00:00 | 00:00:00 | |
| OK1ALN | 2026-09-05 16:23:40 | 50.99399 | 16.49402 | 122° | 215km/h | 10948m | 3.5m/s | -51.4°C | 0% | 0hPa | 0V | 00:00:00 | 00:00:00 | 00:00:00 | |
| SP3BTT-10 | 2026-09-05 16:23:39 | 50.99427 | 16.49328 | 120° | 206km/h | 10945m | 2.2m/s | 0°C | 0% | 0hPa | 0V | 00:00:00 | 00:00:00 | 00:00:00 | |
| OM5KV | 2026-09-05 16:23:38 | 50.99454 | 16.49255 | 123° | 206km/h | 10942m | 3.8m/s | -51.4°C | 0% | 0hPa | 0V | 00:00:00 | 00:00:00 | 00:00:00 | |
| PETON7-10 | 2026-09-05 16:23:36 | 50.99512 | 16.49114 | 123° | 212km/h | 10934m | 2.2m/s | 0°C | 0% | 0hPa | 0V | 00:00:00 | 00:00:00 | 00:00:00 | |
| SQ6EMJ | 2026-09-05 16:23:35 | 50.99568 | 16.48964 | 123° | 208km/h | 10930m | 4.0m/s | -51.4°C | 0% | 0hPa | 0V | 00:00:00 | 00:00:00 | 00:00:00 | |
| OM5KV | 2026-09-05 16:23:33 | 50.99596 | 16.48895 | 124° | 201km/h | 10927m | 2.4m/s | -51.4°C | 0% | 0hPa | 0V | 00:00:00 | 00:00:00 | 00:00:00 | |
| SP6BVK | 2026-09-05 16:23:32 | 50.99652 | 16.48751 | 121° | 221km/h | 10921m | 3.4m/s | -51.3°C | 0% | 0hPa | 0V | 00:00:00 | 00:00:00 | 00:00:00 | |
| OM5KV | 2026-09-05 16:23:27 | 50.99763 | 16.48462 | 121° | 215km/h | 10908m | 3.1m/s | -51.1°C | 0% | 0hPa | 0V | 00:00:00 | 00:00:00 | 00:00:00 | |
| OE3JTB-15 | 2026-09-05 16:23:24 | 50.99846 | 16.48252 | 120° | 208km/h | 10895m | 3.5m/s | 0°C | 0% | 0hPa | 0V | 00:00:00 | 00:00:00 | 00:00:00 | |
| SQ6EMJ | 2026-09-05 16:23:23 | 50.99900 | 16.48103 | 121° | 210km/h | 10892m | 3.1m/s | -51.0°C | 0% | 0hPa | 0V | 00:00:00 | 00:00:00 | 00:00:00 | |
| PETON7-10 | 2026-09-05 16:23:21 | 50.99927 | 16.48032 | 124° | 206km/h | 10886m | 2.7m/s | 0°C | 0% | 0hPa | 0V | 00:00:00 | 00:00:00 | 00:00:00 | |
| SQ6EMJ | 2026-09-05 16:23:17 | 51.00064 | 16.47678 | 124° | 199km/h | 10871m | 3.3m/s | -51.0°C | 0% | 0hPa | 0V | 00:00:00 | 00:00:00 | 00:00:00 | |
| OM5KV | 2026-09-05 16:23:16 | 51.00064 | 16.47678 | 124° | 199km/h | 10871m | 3.3m/s | -51.0°C | 0% | 0hPa | 0V | 00:00:00 | 00:00:00 | 00:00:00 | |
| SP6BVK | 2026-09-05 16:23:10 | 51.00229 | 16.47252 | 122° | 217km/h | 10852m | 2.3m/s | -50.8°C | 0% | 0hPa | 0V | 00:00:00 | 00:00:00 | 00:00:00 | |
| OK1ALN | 2026-09-05 16:23:07 | 51.00311 | 16.47042 | 122° | 204km/h | 10843m | 3.6m/s | -50.7°C | 0% | 0hPa | 0V | 00:00:00 | 00:00:00 | 00:00:00 | |
| PETON7-10 | 2026-09-05 16:23:06 | 51.00338 | 16.46969 | 121° | 206km/h | 10837m | 3.4m/s | 0°C | 0% | 0hPa | 0V | 00:00:00 | 00:00:00 | 00:00:00 | |
| OM5KV | 2026-09-05 16:23:05 | 51.00366 | 16.46896 | 123° | 210km/h | 10837m | 3.4m/s | -50.6°C | 0% | 0hPa | 0V | 00:00:00 | 00:00:00 | 00:00:00 | |
| POL1PZ | 2026-09-05 16:23:03 | 51.00419 | 16.46760 | 121° | 201km/h | 10830m | 3.5m/s | -50.6°C | 0% | 0hPa | 0V | 00:00:00 | 00:00:00 | 00:00:00 | |
| SQ6EMJ | 2026-09-05 16:23:00 | 51.00527 | 16.46476 | 122° | 197km/h | 10816m | 2.9m/s | -50.4°C | 0% | 0hPa | 0V | 00:00:00 | 00:00:00 | 00:00:00 | |
| OM5KV | 2026-09-05 16:22:59 | 51.00527 | 16.46476 | 122° | 197km/h | 10816m | 2.9m/s | -50.4°C | 0% | 0hPa | 0V | 00:00:00 | 00:00:00 | 00:00:00 | |
| SQ6EMJ | 2026-09-05 16:22:55 | 51.00661 | 16.46125 | 121° | 204km/h | 10799m | 3.2m/s | -50.4°C | 0% | 0hPa | 0V | 00:00:00 | 00:00:00 | 00:00:00 | |
| SP3BTT-10 | 2026-09-05 16:22:54 | 51.00661 | 16.46125 | 121° | 206km/h | 10799m | 3.1m/s | 0°C | 0% | 0hPa | 0V | 00:00:00 | 00:00:00 | 00:00:00 | |
| OM5KV | 2026-09-05 16:22:53 | 51.00688 | 16.46052 | 121° | 217km/h | 10796m | 3.1m/s | -50.3°C | 0% | 0hPa | 0V | 00:00:00 | 00:00:00 | 00:00:00 | |
| PETON7-10 | 2026-09-05 16:22:50 | 51.00769 | 16.45844 | 120° | 206km/h | 10783m | 3.7m/s | 0°C | 0% | 0hPa | 0V | 00:00:00 | 00:00:00 | 00:00:00 | |
| SQ6EMJ | 2026-09-05 16:22:49 | 51.00822 | 16.45696 | 122° | 212km/h | 10779m | 3.4m/s | -50.2°C | 0% | 0hPa | 0V | 00:00:00 | 00:00:00 | 00:00:00 | |
| OM5KV | 2026-09-05 16:22:47 | 51.00849 | 16.45626 | 124° | 199km/h | 10776m | 3.5m/s | -50.2°C | 0% | 0hPa | 0V | 00:00:00 | 00:00:00 | 00:00:00 | |
| SQ6EMJ | 2026-09-05 16:22:43 | 51.00982 | 16.45276 | 124° | 195km/h | 10759m | 2.9m/s | -50.2°C | 0% | 0hPa | 0V | 00:00:00 | 00:00:00 | 00:00:00 | |
| POL1PZ | 2026-09-05 16:22:42 | 51.00982 | 16.45276 | 124° | 195km/h | 10759m | 2.9m/s | -50.2°C | 0% | 0hPa | 0V | 00:00:00 | 00:00:00 | 00:00:00 | |
| SQ6EMJ | 2026-09-05 16:22:37 | 51.01114 | 16.44923 | 121° | 203km/h | 10743m | 3.8m/s | -50.1°C | 0% | 0hPa | 0V | 00:00:00 | 00:00:00 | 00:00:00 | |
| OK1ALN | 2026-09-05 16:22:34 | 51.01218 | 16.44639 | 122° | 204km/h | 10730m | 3.3m/s | -50.1°C | 0% | 0hPa | 0V | 00:00:00 | 00:00:00 | 00:00:00 | |
| SQ6EMJ | 2026-09-05 16:22:32 | 51.01268 | 16.44491 | 118° | 208km/h | 10722m | 3.0m/s | -50.1°C | 0% | 0hPa | 0V | 00:00:00 | 00:00:00 | 00:00:00 | |
| SP6BVK | 2026-09-05 16:22:29 | 51.01321 | 16.44351 | 124° | 204km/h | 10715m | 2.6m/s | -50.1°C | 0% | 0hPa | 0V | 00:00:00 | 00:00:00 | 00:00:00 | |
| OE3JTB-15 | 2026-09-05 16:22:26 | 51.01398 | 16.44132 | 124° | 208km/h | 10700m | 2.7m/s | 0°C | 0% | 0hPa | 0V | 00:00:00 | 00:00:00 | 00:00:00 | |
| SP3BTT-10 | 2026-09-05 16:22:24 | 51.01453 | 16.43989 | 118° | 208km/h | 10694m | 2.6m/s | 0°C | 0% | 0hPa | 0V | 00:00:00 | 00:00:00 | 00:00:00 | |
| POL1PZ | 2026-09-05 16:22:22 | 51.01504 | 16.43844 | 120° | 204km/h | 10691m | 3.6m/s | -49.8°C | 0% | 0hPa | 0V | 00:00:00 | 00:00:00 | 00:00:00 | |
| SQ6EMJ | 2026-09-05 16:22:21 | 51.01558 | 16.43703 | 122° | 210km/h | 10684m | 3.8m/s | -49.8°C | 0% | 0hPa | 0V | 00:00:00 | 00:00:00 | 00:00:00 | |
| SQ6EMJ | 2026-09-05 16:22:15 | 51.01715 | 16.43268 | 120° | 206km/h | 10665m | 3.7m/s | -49.8°C | 0% | 0hPa | 0V | 00:00:00 | 00:00:00 | 00:00:00 | |
| SP6BVK | 2026-09-05 16:22:09 | 51.01848 | 16.42910 | 123° | 197km/h | 10648m | 4.1m/s | -49.8°C | 0% | 0hPa | 0V | 00:00:00 | 00:00:00 | 00:00:00 | |
| SQ6EMJ | 2026-09-05 16:22:04 | 51.02010 | 16.42482 | 122° | 212km/h | 10627m | 3.6m/s | -49.6°C | 0% | 0hPa | 0V | 00:00:00 | 00:00:00 | 00:00:00 | |
| POL1PZ | 2026-09-05 16:22:01 | 51.02064 | 16.42335 | 120° | 204km/h | 10620m | 4.0m/s | -49.5°C | 0% | 0hPa | 0V | 00:00:00 | 00:00:00 | 00:00:00 | |
| SQ6EMJ | 2026-09-05 16:21:58 | 51.02144 | 16.42119 | 122° | 219km/h | 10609m | 2.5m/s | -49.5°C | 0% | 0hPa | 0V | 00:00:00 | 00:00:00 | 00:00:00 | |
| OE3JTB-15 | 2026-09-05 16:21:57 | 51.02171 | 16.42045 | 120° | 212km/h | 10602m | 2.2m/s | 0°C | 0% | 0hPa | 0V | 00:00:00 | 00:00:00 | 00:00:00 | |
| SP3BTT-10 | 2026-09-05 16:21:54 | 51.02250 | 16.41828 | 123° | 212km/h | 10596m | 2.8m/s | 0°C | 0% | 0hPa | 0V | 00:00:00 | 00:00:00 | 00:00:00 | |
| SQ6EMJ | 2026-09-05 16:21:52 | 51.02304 | 16.41682 | 119° | 201km/h | 10589m | 3.1m/s | -49.3°C | 0% | 0hPa | 0V | 00:00:00 | 00:00:00 | 00:00:00 | |
| SP6BVK | 2026-09-05 16:21:48 | 51.02410 | 16.41389 | 120° | 204km/h | 10576m | 3.2m/s | -49.2°C | 0% | 0hPa | 0V | 00:00:00 | 00:00:00 | 00:00:00 | |
| SQ6EMJ | 2026-09-05 16:21:47 | 51.02463 | 16.41242 | 122° | 217km/h | 10569m | 3.0m/s | -49.2°C | 0% | 0hPa | 0V | 00:00:00 | 00:00:00 | 00:00:00 | |
| OK1ALN | 2026-09-05 16:21:46 | 51.02463 | 16.41242 | 122° | 217km/h | 10569m | 3.0m/s | -49.2°C | 0% | 0hPa | 0V | 00:00:00 | 00:00:00 | 00:00:00 | |
| POL1PZ | 2026-09-05 16:21:41 | 51.02600 | 16.40877 | 122° | 214km/h | 10552m | 3.8m/s | -49.2°C | 0% | 0hPa | 0V | 00:00:00 | 00:00:00 | 00:00:00 | |
| SQ6EMJ | 2026-09-05 16:21:36 | 51.02763 | 16.40443 | 121° | 201km/h | 10531m | 3.0m/s | -49.0°C | 0% | 0hPa | 0V | 00:00:00 | 00:00:00 | 00:00:00 | |
| SQ6EMJ | 2026-09-05 16:21:30 | 51.02900 | 16.40079 | 123° | 214km/h | 10513m | 3.8m/s | -49.0°C | 0% | 0hPa | 0V | 00:00:00 | 00:00:00 | 00:00:00 | |
| OE3JTB-15 | 2026-09-05 16:21:28 | 51.02957 | 16.39927 | 121° | 212km/h | 10503m | 3.1m/s | 0°C | 0% | 0hPa | 0V | 00:00:00 | 00:00:00 | 00:00:00 | |
| OK1ALN | 2026-09-05 16:21:25 | 51.03069 | 16.39638 | 122° | 221km/h | 10493m | 3.3m/s | -48.9°C | 0% | 0hPa | 0V | 00:00:00 | 00:00:00 | 00:00:00 | |
| SP3BTT-10 | 2026-09-05 16:21:24 | 51.03069 | 16.39638 | 121° | 212km/h | 10489m | 4.1m/s | 0°C | 0% | 0hPa | 0V | 00:00:00 | 00:00:00 | 00:00:00 | |
| POL1PZ | 2026-09-05 16:21:20 | 51.03182 | 16.39349 | 123° | 221km/h | 10478m | 2.9m/s | -48.8°C | 0% | 0hPa | 0V | 00:00:00 | 00:00:00 | 00:00:00 | |
| SQ6EMJ | 2026-09-05 16:21:13 | 51.03379 | 16.38844 | 124° | 214km/h | 10453m | 3.8m/s | -48.6°C | 0% | 0hPa | 0V | 00:00:00 | 00:00:00 | 00:00:00 | |
| SQ6EMJ | 2026-09-05 16:21:08 | 51.03551 | 16.38410 | 123° | 210km/h | 10433m | 4.3m/s | -48.6°C | 0% | 0hPa | 0V | 00:00:00 | 00:00:00 | 00:00:00 | |
| SP6BVK | 2026-09-05 16:21:07 | 51.03551 | 16.38410 | 123° | 210km/h | 10433m | 4.3m/s | -48.6°C | 0% | 0hPa | 0V | 00:00:00 | 00:00:00 | 00:00:00 | |
| SQ6EMJ | 2026-09-05 16:21:02 | 51.03692 | 16.38050 | 121° | 206km/h | 10416m | 2.8m/s | -48.5°C | 0% | 0hPa | 0V | 00:00:00 | 00:00:00 | 00:00:00 | |
| OE3JTB-15 | 2026-09-05 16:20:59 | 51.03780 | 16.37832 | 123° | 214km/h | 10403m | 3.0m/s | 0°C | 0% | 0hPa | 0V | 00:00:00 | 00:00:00 | 00:00:00 | |
| SQ6EMJ | 2026-09-05 16:20:57 | 51.03864 | 16.37617 | 124° | 223km/h | 10395m | 3.0m/s | -48.3°C | 0% | 0hPa | 0V | 00:00:00 | 00:00:00 | 00:00:00 | |
| SP3BTT-10 | 2026-09-05 16:20:54 | 51.03922 | 16.37472 | 122° | 214km/h | 10385m | 3.7m/s | 0°C | 0% | 0hPa | 0V | 00:00:00 | 00:00:00 | 00:00:00 | |
| SQ6EMJ | 2026-09-05 16:20:51 | 51.04038 | 16.37181 | 121° | 206km/h | 10374m | 3.8m/s | -48.3°C | 0% | 0hPa | 0V | 00:00:00 | 00:00:00 | 00:00:00 | |
| SP6BVK | 2026-09-05 16:20:47 | 51.04124 | 16.36962 | 125° | 221km/h | 10364m | 2.3m/s | -48.3°C | 0% | 0hPa | 0V | 00:00:00 | 00:00:00 | 00:00:00 | |
| SQ6EMJ | 2026-09-05 16:20:45 | 51.04179 | 16.36819 | 120° | 204km/h | 10356m | 3.4m/s | -48.2°C | 0% | 0hPa | 0V | 00:00:00 | 00:00:00 | 00:00:00 | |
| SQ6EMJ | 2026-09-05 16:20:40 | 51.04350 | 16.36382 | 123° | 226km/h | 10337m | 3.1m/s | -48.2°C | 0% | 0hPa | 0V | 00:00:00 | 00:00:00 | 00:00:00 | |
| POL1PZ | 2026-09-05 16:20:39 | 51.04350 | 16.36382 | 123° | 226km/h | 10337m | 3.1m/s | -48.2°C | 0% | 0hPa | 0V | 00:00:00 | 00:00:00 | 00:00:00 | |
| SQ6EMJ | 2026-09-05 16:20:34 | 51.04492 | 16.36013 | 122° | 223km/h | 10320m | 2.6m/s | -48.1°C | 0% | 0hPa | 0V | 00:00:00 | 00:00:00 | 00:00:00 | |
| OK1ALN | 2026-09-05 16:20:31 | 51.04575 | 16.35794 | 125° | 215km/h | 10310m | 3.9m/s | -48.0°C | 0% | 0hPa | 0V | 00:00:00 | 00:00:00 | 00:00:00 | |
| OE3JTB-15 | 2026-09-05 16:20:30 | 51.04605 | 16.35719 | 121° | 215km/h | 10304m | 3.5m/s | 0°C | 0% | 0hPa | 0V | 00:00:00 | 00:00:00 | 00:00:00 | |
| SQ6EMJ | 2026-09-05 16:20:29 | 51.04660 | 16.35573 | 120° | 208km/h | 10300m | 2.9m/s | -48.0°C | 0% | 0hPa | 0V | 00:00:00 | 00:00:00 | 00:00:00 | |
| SP6BVK | 2026-09-05 16:20:26 | 51.04717 | 16.35427 | 124° | 221km/h | 10294m | 2.8m/s | -47.9°C | 0% | 0hPa | 0V | 00:00:00 | 00:00:00 | 00:00:00 | |
| SP3BTT-10 | 2026-09-05 16:20:23 | 51.04799 | 16.35206 | 123° | 214km/h | 10281m | 2.4m/s | 0°C | 0% | 0hPa | 0V | 00:00:00 | 00:00:00 | 00:00:00 | |
| SQ6EMJ | 2026-09-05 16:20:22 | 51.04829 | 16.35132 | 124° | 219km/h | 10281m | 2.4m/s | -47.9°C | 0% | 0hPa | 0V | 00:00:00 | 00:00:00 | 00:00:00 | |
| POL1PZ | 2026-09-05 16:20:19 | 51.04911 | 16.34912 | 123° | 215km/h | 10271m | 3.5m/s | -47.8°C | 0% | 0hPa | 0V | 00:00:00 | 00:00:00 | 00:00:00 | |
| SQ6EMJ | 2026-09-05 16:20:18 | 51.04971 | 16.34767 | 123° | 212km/h | 10265m | 3.4m/s | -47.7°C | 0% | 0hPa | 0V | 00:00:00 | 00:00:00 | 00:00:00 | |
| SQ6EMJ | 2026-09-05 16:20:12 | 51.05137 | 16.34330 | 121° | 214km/h | 10247m | 3.4m/s | -47.6°C | 0% | 0hPa | 0V | 00:00:00 | 00:00:00 | 00:00:00 | |
| SQ6EMJ | 2026-09-05 16:20:06 | 51.05278 | 16.33964 | 123° | 223km/h | 10231m | 3.1m/s | -47.5°C | 0% | 0hPa | 0V | 00:00:00 | 00:00:00 | 00:00:00 | |
| SP3WXH-11 | 2026-09-05 16:20:03 | 51.05392 | 16.33672 | 123° | 221km/h | 10219m | 3.1m/s | -47.9°C | -1.0% | -1.0hPa | 0V | 00:00:00 | 00:00:00 | 00:00:00 | |
| SQ6EMJ | 2026-09-05 16:20:01 | 51.05449 | 16.33523 | 121° | 208km/h | 10213m | 4.0m/s | -47.4°C | 0% | 0hPa | 0V | 00:00:00 | 00:00:00 | 00:00:00 | |
| OE3JTB-15 | 2026-09-05 16:20:00 | 51.05449 | 16.33523 | 120° | 215km/h | 10207m | 3.4m/s | 0°C | 0% | 0hPa | 0V | 00:00:00 | 00:00:00 | 00:00:00 | |
| POL1PZ | 2026-09-05 16:19:58 | 51.05504 | 16.33379 | 124° | 219km/h | 10207m | 3.4m/s | -47.3°C | 0% | 0hPa | 0V | 00:00:00 | 00:00:00 | 00:00:00 | |
| SQ6EMJ | 2026-09-05 16:19:55 | 51.05617 | 16.33087 | 123° | 215km/h | 10195m | 3.0m/s | -47.3°C | 0% | 0hPa | 0V | 00:00:00 | 00:00:00 | 00:00:00 | |
| SP3BTT-10 | 2026-09-05 16:19:53 | 51.05647 | 16.33012 | 123° | 215km/h | 10192m | 2.6m/s | 0°C | 0% | 0hPa | 0V | 00:00:00 | 00:00:00 | 00:00:00 | |
| SQ6EMJ | 2026-09-05 16:19:50 | 51.05761 | 16.32718 | 124° | 223km/h | 10181m | 2.9m/s | -47.3°C | 0% | 0hPa | 0V | 00:00:00 | 00:00:00 | 00:00:00 | |
| SP6BVK | 2026-09-05 16:19:45 | 51.05875 | 16.32422 | 125° | 219km/h | 10168m | 2.6m/s | -47.2°C | 0% | 0hPa | 0V | 00:00:00 | 00:00:00 | 00:00:00 | |
| SQ6EMJ | 2026-09-05 16:19:44 | 51.05932 | 16.32275 | 120° | 208km/h | 10162m | 3.4m/s | -47.2°C | 0% | 0hPa | 0V | 00:00:00 | 00:00:00 | 00:00:00 | |
| POL1PZ | 2026-09-05 16:19:38 | 51.06070 | 16.31906 | 120° | 212km/h | 10146m | 2.7m/s | -47.0°C | 0% | 0hPa | 0V | 00:00:00 | 00:00:00 | 00:00:00 | |
| SQ6EMJ | 2026-09-05 16:19:33 | 51.06237 | 16.31462 | 124° | 221km/h | 10129m | 2.2m/s | -46.9°C | 0% | 0hPa | 0V | 00:00:00 | 00:00:00 | 00:00:00 | |
| OK1ALN | 2026-09-05 16:19:31 | 51.06266 | 16.31387 | 122° | 215km/h | 10126m | 3.0m/s | -46.9°C | 0% | 0hPa | 0V | 00:00:00 | 00:00:00 | 00:00:00 | |
| OE3JTB-15 | 2026-09-05 16:19:30 | 51.06293 | 16.31313 | 119° | 214km/h | 10120m | 3.1m/s | 0°C | 0% | 0hPa | 0V | 00:00:00 | 00:00:00 | 00:00:00 | |
| SQ6EMJ | 2026-09-05 16:19:27 | 51.06404 | 16.31017 | 120° | 212km/h | 10111m | 2.3m/s | -46.8°C | 0% | 0hPa | 0V | 00:00:00 | 00:00:00 | 00:00:00 | |
| SP6BVK | 2026-09-05 16:19:25 | 51.06431 | 16.30943 | 122° | 214km/h | 10108m | 3.2m/s | -46.8°C | 0% | 0hPa | 0V | 00:00:00 | 00:00:00 | 00:00:00 | |
| SP3BTT-10 | 2026-09-05 16:19:23 | 51.06488 | 16.30798 | 119° | 212km/h | 10100m | 2.3m/s | 0°C | 0% | 0hPa | 0V | 00:00:00 | 00:00:00 | 00:00:00 | |
| SQ6EMJ | 2026-09-05 16:19:21 | 51.06541 | 16.30648 | 122° | 217km/h | 10097m | 3.2m/s | -46.7°C | 0% | 0hPa | 0V | 00:00:00 | 00:00:00 | 00:00:00 | |
| POL1PZ | 2026-09-05 16:19:17 | 51.06651 | 16.30355 | 121° | 217km/h | 10086m | 3.4m/s | -46.6°C | 0% | 0hPa | 0V | 00:00:00 | 00:00:00 | 00:00:00 | |
| SQ6EMJ | 2026-09-05 16:19:16 | 51.06708 | 16.30207 | 122° | 210km/h | 10081m | 3.6m/s | -46.6°C | 0% | 0hPa | 0V | 00:00:00 | 00:00:00 | 00:00:00 | |
| SQ6EMJ | 2026-09-05 16:19:10 | 51.06845 | 16.29840 | 120° | 204km/h | 10065m | 4.0m/s | -46.4°C | 0% | 0hPa | 0V | 00:00:00 | 00:00:00 | 00:00:00 | |
| SP6BVK | 2026-09-05 16:19:04 | 51.07006 | 16.29403 | 123° | 210km/h | 10048m | 3.0m/s | -46.3°C | 0% | 0hPa | 0V | 00:00:00 | 00:00:00 | 00:00:00 | |
| OE3JTB-15 | 2026-09-05 16:19:01 | 51.07088 | 16.29182 | 123° | 212km/h | 10038m | 3.3m/s | 0°C | 0% | 0hPa | 0V | 00:00:00 | 00:00:00 | 00:00:00 | |
| SQ6EMJ | 2026-09-05 16:18:59 | 51.07173 | 16.28966 | 121° | 217km/h | 10032m | 3.1m/s | -46.2°C | 0% | 0hPa | 0V | 00:00:00 | 00:00:00 | 00:00:00 | |
| POL1PZ | 2026-09-05 16:18:57 | 51.07199 | 16.28891 | 119° | 208km/h | 10029m | 2.9m/s | -46.2°C | 0% | 0hPa | 0V | 00:00:00 | 00:00:00 | 00:00:00 | |
| SP3BTT-10 | 2026-09-05 16:18:53 | 51.07308 | 16.28600 | 118° | 212km/h | 10019m | 2.3m/s | 0°C | 0% | 0hPa | 0V | 00:00:00 | 00:00:00 | 00:00:00 | |
| SQ6EMJ | 2026-09-05 16:18:47 | 51.07470 | 16.28162 | 124° | 210km/h | 10002m | 3.1m/s | -45.9°C | 0% | 0hPa | 0V | 00:00:00 | 00:00:00 | 00:00:00 | |
| SP6BVK | 2026-09-05 16:18:44 | 51.07553 | 16.27942 | 120° | 214km/h | 9993m | 2.4m/s | -45.9°C | 0% | 0hPa | 0V | 00:00:00 | 00:00:00 | 00:00:00 | |
| 13BRC | 2026-09-05 16:18:43 | 51.07608 | 16.27799 | 124° | 210km/h | 9987m | 2.0m/s | -45.9°C | 0% | 0hPa | 0V | 00:00:00 | 00:00:00 | 00:00:00 | |
| SQ6EMJ | 2026-09-05 16:18:42 | 51.07608 | 16.27799 | 124° | 210km/h | 9987m | 2.0m/s | -45.9°C | 0% | 0hPa | 0V | 00:00:00 | 00:00:00 | 00:00:00 | |
| SQ6EMJ | 2026-09-05 16:18:37 | 51.07773 | 16.27357 | 120° | 215km/h | 9971m | 1.9m/s | -45.8°C | 0% | 0hPa | 0V | 00:00:00 | 00:00:00 | 00:00:00 | |
| POL1PZ | 2026-09-05 16:18:36 | 51.07773 | 16.27357 | 120° | 215km/h | 9971m | 1.9m/s | -45.8°C | 0% | 0hPa | 0V | 00:00:00 | 00:00:00 | 00:00:00 | |
| OE3JTB-15 | 2026-09-05 16:18:32 | 51.07884 | 16.27065 | 118° | 212km/h | 9957m | 2.9m/s | 0°C | 0% | 0hPa | 0V | 00:00:00 | 00:00:00 | 00:00:00 | |
| SQ6EMJ | 2026-09-05 16:18:31 | 51.07939 | 16.26918 | 125° | 210km/h | 9954m | 2.5m/s | -45.7°C | 0% | 0hPa | 0V | 00:00:00 | 00:00:00 | 00:00:00 | |
| SQ6EMJ | 2026-09-05 16:18:25 | 51.08077 | 16.26554 | 123° | 214km/h | 9940m | 2.9m/s | -45.5°C | 0% | 0hPa | 0V | 00:00:00 | 00:00:00 | 00:00:00 | |
| SP6BVK | 2026-09-05 16:18:24 | 51.08131 | 16.26406 | 121° | 210km/h | 9934m | 3.0m/s | -45.5°C | 0% | 0hPa | 0V | 00:00:00 | 00:00:00 | 00:00:00 | |
| SP3BTT-10 | 2026-09-05 16:18:23 | 51.08131 | 16.26406 | 120° | 210km/h | 9931m | 2.8m/s | 0°C | 0% | 0hPa | 0V | 00:00:00 | 00:00:00 | 00:00:00 | |
| SQ6EMJ | 2026-09-05 16:18:20 | 51.08242 | 16.26114 | 120° | 210km/h | 9922m | 3.3m/s | -45.4°C | 0% | 0hPa | 0V | 00:00:00 | 00:00:00 | 00:00:00 | |
| OK1ALN | 2026-09-05 16:18:17 | 51.08297 | 16.25971 | 123° | 210km/h | 9916m | 3.2m/s | 0°C | 0% | 0hPa | 0V | 00:00:00 | 00:00:00 | 00:00:00 | |
| POL1PZ | 2026-09-05 16:18:16 | 51.08324 | 16.25897 | 120° | 215km/h | 9913m | 3.0m/s | -45.3°C | 0% | 0hPa | 0V | 00:00:00 | 00:00:00 | 00:00:00 | |
| SQ6EMJ | 2026-09-05 16:18:15 | 51.08379 | 16.25750 | 124° | 208km/h | 9908m | 3.4m/s | -45.3°C | 0% | 0hPa | 0V | 00:00:00 | 00:00:00 | 00:00:00 | |
| SQ6EMJ | 2026-09-05 16:18:09 | 51.08545 | 16.25318 | 121° | 208km/h | 9889m | 3.0m/s | -45.2°C | 0% | 0hPa | 0V | 00:00:00 | 00:00:00 | 00:00:00 | |
| EDDB2-12 | 2026-09-05 16:18:06 | 51.08624 | 16.25097 | 122° | 208km/h | 9879m | 2.5m/s | -45.6°C | -1.0% | -1.0hPa | 0V | 00:00:00 | 00:00:00 | 00:00:00 | |
| SQ6EMJ | 2026-09-05 16:17:57 | 51.08842 | 16.24520 | 125° | 212km/h | 9855m | 2.5m/s | -45.1°C | 0% | 0hPa | 0V | 00:00:00 | 00:00:00 | 00:00:00 | |
| POL1PZ | 2026-09-05 16:17:55 | 51.08895 | 16.24374 | 119° | 210km/h | 9850m | 1.9m/s | -45.1°C | 0% | 0hPa | 0V | 00:00:00 | 00:00:00 | 00:00:00 | |
| SP3BTT-10 | 2026-09-05 16:17:53 | 51.08951 | 16.24228 | 125° | 210km/h | 9841m | 3.2m/s | 0°C | 0% | 0hPa | 0V | 00:00:00 | 00:00:00 | 00:00:00 | |
| SQ6EMJ | 2026-09-05 16:17:51 | 51.09005 | 16.24087 | 119° | 206km/h | 9837m | 3.0m/s | -45.0°C | 0% | 0hPa | 0V | 00:00:00 | 00:00:00 | 00:00:00 | |
| SQ6EMJ | 2026-09-05 16:17:46 | 51.09142 | 16.23725 | 121° | 212km/h | 9822m | 3.3m/s | -44.8°C | 0% | 0hPa | 0V | 00:00:00 | 00:00:00 | 00:00:00 | |
| SP6BVK | 2026-09-05 16:17:42 | 51.09252 | 16.23436 | 122° | 208km/h | 9810m | 3.3m/s | -44.8°C | 0% | 0hPa | 0V | 00:00:00 | 00:00:00 | 00:00:00 | |
| SQ6EMJ | 2026-09-05 16:17:41 | 51.09308 | 16.23290 | 122° | 214km/h | 9804m | 3.2m/s | -44.7°C | 0% | 0hPa | 0V | 00:00:00 | 00:00:00 | 00:00:00 | |
| 13BRC | 2026-09-05 16:17:38 | 51.09362 | 16.23149 | 123° | 206km/h | 9798m | 3.4m/s | -44.7°C | 0% | 0hPa | 0V | 00:00:00 | 00:00:00 | 00:00:00 | |
| SQ6EMJ | 2026-09-05 16:17:35 | 51.09473 | 16.22860 | 123° | 206km/h | 9785m | 3.5m/s | -44.6°C | 0% | 0hPa | 0V | 00:00:00 | 00:00:00 | 00:00:00 | |
| OE3JTB-15 | 2026-09-05 16:17:34 | 51.09473 | 16.22860 | 122° | 210km/h | 9782m | 2.4m/s | 0°C | 0% | 0hPa | 0V | 00:00:00 | 00:00:00 | 00:00:00 | |
| SQ6EMJ | 2026-09-05 16:17:29 | 51.09611 | 16.22501 | 124° | 215km/h | 9770m | 2.6m/s | -44.5°C | 0% | 0hPa | 0V | 00:00:00 | 00:00:00 | 00:00:00 | |
| SQ6EMJ | 2026-09-05 16:17:24 | 51.09776 | 16.22069 | 120° | 203km/h | 9752m | 2.8m/s | -44.3°C | 0% | 0hPa | 0V | 00:00:00 | 00:00:00 | 00:00:00 | |
| SP3BTT-10 | 2026-09-05 16:17:22 | 51.09803 | 16.21997 | 124° | 210km/h | 9746m | 2.2m/s | 0°C | 0% | 0hPa | 0V | 00:00:00 | 00:00:00 | 00:00:00 | |
| SP6BVK | 2026-09-05 16:17:21 | 51.09831 | 16.21926 | 124° | 215km/h | 9746m | 2.3m/s | -44.3°C | 0% | 0hPa | 0V | 00:00:00 | 00:00:00 | 00:00:00 | |
| SQ6EMJ | 2026-09-05 16:17:18 | 51.09913 | 16.21711 | 123° | 210km/h | 9737m | 3.6m/s | -44.3°C | 0% | 0hPa | 0V | 00:00:00 | 00:00:00 | 00:00:00 | |
| POL1PZ | 2026-09-05 16:17:14 | 51.10023 | 16.21423 | 123° | 214km/h | 9723m | 3.3m/s | -44.2°C | 0% | 0hPa | 0V | 00:00:00 | 00:00:00 | 00:00:00 | |
| SQ6EMJ | 2026-09-05 16:17:13 | 51.10081 | 16.21281 | 123° | 204km/h | 9718m | 3.8m/s | -44.1°C | 0% | 0hPa | 0V | 00:00:00 | 00:00:00 | 00:00:00 | |
| SQ6EMJ | 2026-09-05 16:17:06 | 51.10244 | 16.20852 | 121° | 210km/h | 9700m | 3.1m/s | -44.0°C | 0% | 0hPa | 0V | 00:00:00 | 00:00:00 | 00:00:00 | |
| OE3JTB-15 | 2026-09-05 16:17:05 | 51.10273 | 16.20775 | 124° | 210km/h | 9693m | 3.3m/s | 0°C | 0% | 0hPa | 0V | 00:00:00 | 00:00:00 | 00:00:00 | |
| OK1ALN | 2026-09-05 16:17:03 | 51.10357 | 16.20565 | 122° | 206km/h | 9687m | 3.5m/s | -43.9°C | 0% | 0hPa | 0V | 00:00:00 | 00:00:00 | 00:00:00 | |
| SQ6EMJ | 2026-09-05 16:17:02 | 51.10385 | 16.20492 | 122° | 215km/h | 9683m | 3.0m/s | -43.9°C | 0% | 0hPa | 0V | 00:00:00 | 00:00:00 | 00:00:00 | |
| SP6BVK | 2026-09-05 16:17:01 | 51.10385 | 16.20492 | 122° | 215km/h | 9683m | 3.0m/s | -43.9°C | 0% | 0hPa | 0V | 00:00:00 | 00:00:00 | 00:00:00 | |
| SQ6EMJ | 2026-09-05 16:16:56 | 51.10551 | 16.20061 | 123° | 203km/h | 9664m | 2.7m/s | -43.8°C | 0% | 0hPa | 0V | 00:00:00 | 00:00:00 | 00:00:00 | |
| POL1PZ | 2026-09-05 16:16:53 | 51.10634 | 16.19842 | 122° | 212km/h | 9655m | 3.6m/s | -43.7°C | 0% | 0hPa | 0V | 00:00:00 | 00:00:00 | 00:00:00 | |
| SP3BTT-10 | 2026-09-05 16:16:52 | 51.10634 | 16.19842 | 122° | 210km/h | 9655m | 3.5m/s | 0°C | 0% | 0hPa | 0V | 00:00:00 | 00:00:00 | 00:00:00 | |
| SQ6EMJ | 2026-09-05 16:16:50 | 51.10690 | 16.19704 | 123° | 206km/h | 9648m | 3.3m/s | -43.7°C | 0% | 0hPa | 0V | 00:00:00 | 00:00:00 | 00:00:00 | |
| SQ6EMJ | 2026-09-05 16:16:45 | 51.10858 | 16.19269 | 121° | 214km/h | 9630m | 3.1m/s | -43.6°C | 0% | 0hPa | 0V | 00:00:00 | 00:00:00 | 00:00:00 | |
| OK1ALN | 2026-09-05 16:16:41 | 51.10971 | 16.19059 | 125° | 217km/h | 9620m | 3.2m/s | -43.5°C | 0% | 0hPa | 0V | 00:00:00 | 00:00:00 | 00:00:00 | |
| SP6BVK | 2026-09-05 16:16:40 | 51.10971 | 16.18985 | 122° | 217km/h | 9617m | 3.5m/s | -43.5°C | 0% | 0hPa | 0V | 00:00:00 | 00:00:00 | 00:00:00 | |
| SQ6EMJ | 2026-09-05 16:16:39 | 51.11024 | 16.18842 | 123° | 203km/h | 9610m | 3.3m/s | -43.4°C | 0% | 0hPa | 0V | 00:00:00 | 00:00:00 | 00:00:00 | |
| OE3JTB-15 | 2026-09-05 16:16:36 | 51.11082 | 16.18699 | 123° | 210km/h | 9601m | 3.7m/s | 0°C | 0% | 0hPa | 0V | 00:00:00 | 00:00:00 | 00:00:00 | |
| SQ6EMJ | 2026-09-05 16:16:33 | 51.11163 | 16.18485 | 125° | 214km/h | 9594m | 3.6m/s | -43.3°C | 0% | 0hPa | 0V | 00:00:00 | 00:00:00 | 00:00:00 | |
| POL1PZ | 2026-09-05 16:16:32 | 51.11222 | 16.18338 | 121° | 210km/h | 9588m | 3.9m/s | -43.2°C | 0% | 0hPa | 0V | 00:00:00 | 00:00:00 | 00:00:00 | |
| SQ6EMJ | 2026-09-05 16:16:27 | 51.11334 | 16.18053 | 122° | 214km/h | 9574m | 3.4m/s | -43.1°C | 0% | 0hPa | 0V | 00:00:00 | 00:00:00 | 00:00:00 | |
| 13BRC | 2026-09-05 16:16:23 | 51.11446 | 16.17768 | 122° | 214km/h | 9560m | 3.3m/s | -43.0°C | 0% | 0hPa | 0V | 00:00:00 | 00:00:00 | 00:00:00 | |
| SP3BTT-10 | 2026-09-05 16:16:22 | 51.11473 | 16.17693 | 124° | 208km/h | 9554m | 3.7m/s | 0°C | 0% | 0hPa | 0V | 00:00:00 | 00:00:00 | 00:00:00 | |
| SP6BVK | 2026-09-05 16:16:20 | 51.11531 | 16.17554 | 125° | 210km/h | 9551m | 2.3m/s | -43.0°C | 0% | 0hPa | 0V | 00:00:00 | 00:00:00 | 00:00:00 | |
| SQ6EMJ | 2026-09-05 16:16:17 | 51.11641 | 16.17268 | 125° | 206km/h | 9537m | 2.5m/s | -43.0°C | 0% | 0hPa | 0V | 00:00:00 | 00:00:00 | 00:00:00 | |
| SQ6EMJ | 2026-09-05 16:16:10 | 51.11808 | 16.16840 | 122° | 214km/h | 9517m | 2.2m/s | -42.9°C | 0% | 0hPa | 0V | 00:00:00 | 00:00:00 | 00:00:00 | |
| OE3JTB-15 | 2026-09-05 16:16:07 | 51.11894 | 16.16631 | 120° | 208km/h | 9504m | 2.4m/s | 0°C | 0% | 0hPa | 0V | 00:00:00 | 00:00:00 | 00:00:00 | |
| OK1ALN | 2026-09-05 16:16:06 | 51.11921 | 16.16559 | 121° | 214km/h | 9504m | 2.4m/s | -42.9°C | 0% | 0hPa | 0V | 00:00:00 | 00:00:00 | 00:00:00 | |
| SQ6EMJ | 2026-09-05 16:16:05 | 51.11949 | 16.16486 | 124° | 210km/h | 9501m | 3.8m/s | -42.8°C | 0% | 0hPa | 0V | 00:00:00 | 00:00:00 | 00:00:00 | |
| SQ6EMJ | 2026-09-05 16:16:00 | 51.12121 | 16.16069 | 125° | 208km/h | 9481m | 3.6m/s | -42.7°C | 0% | 0hPa | 0V | 00:00:00 | 00:00:00 | 00:00:00 | |
| SP6BVK | 2026-09-05 16:15:59 | 51.12121 | 16.16069 | 125° | 208km/h | 9481m | 3.6m/s | -42.7°C | 0% | 0hPa | 0V | 00:00:00 | 00:00:00 | 00:00:00 | |
| SQ6EMJ | 2026-09-05 16:15:54 | 51.12264 | 16.15721 | 122° | 212km/h | 9465m | 3.8m/s | -42.6°C | 0% | 0hPa | 0V | 00:00:00 | 00:00:00 | 00:00:00 | |
| SP3BTT-10 | 2026-09-05 16:15:52 | 51.12321 | 16.15579 | 125° | 206km/h | 9458m | 3.6m/s | 0°C | 0% | 0hPa | 0V | 00:00:00 | 00:00:00 | 00:00:00 | |
| POL1PZ | 2026-09-05 16:15:50 | 51.12379 | 16.15442 | 123° | 212km/h | 9451m | 4.1m/s | -42.5°C | 0% | 0hPa | 0V | 00:00:00 | 00:00:00 | 00:00:00 | |
| SQ6EMJ | 2026-09-05 16:15:48 | 51.12436 | 16.15300 | 125° | 203km/h | 9444m | 3.7m/s | -42.5°C | 0% | 0hPa | 0V | 00:00:00 | 00:00:00 | 00:00:00 | |
| OK1ALN | 2026-09-05 16:15:45 | 51.12522 | 16.15093 | 122° | 214km/h | 9434m | 2.7m/s | -42.4°C | 0% | 0hPa | 0V | 00:00:00 | 00:00:00 | 00:00:00 | |
| 13BRC | 2026-09-05 16:15:44 | 51.12551 | 16.15022 | 124° | 204km/h | 9431m | 3.7m/s | -42.4°C | 0% | 0hPa | 0V | 00:00:00 | 00:00:00 | 00:00:00 | |
| SQ6EMJ | 2026-09-05 16:15:43 | 51.12609 | 16.14886 | 124° | 210km/h | 9424m | 3.4m/s | -42.3°C | 0% | 0hPa | 0V | 00:00:00 | 00:00:00 | 00:00:00 | |
| SP6BVK | 2026-09-05 16:15:39 | 51.12694 | 16.14676 | 124° | 203km/h | 9415m | 3.1m/s | -42.2°C | 0% | 0hPa | 0V | 00:00:00 | 00:00:00 | 00:00:00 | |
| OE3JTB-15 | 2026-09-05 16:15:38 | 51.12722 | 16.14606 | 123° | 206km/h | 9408m | 2.9m/s | 0°C | 0% | 0hPa | 0V | 00:00:00 | 00:00:00 | 00:00:00 | |
| SQ6EMJ | 2026-09-05 16:15:37 | 51.12752 | 16.14534 | 125° | 212km/h | 9408m | 3.0m/s | -42.2°C | 0% | 0hPa | 0V | 00:00:00 | 00:00:00 | 00:00:00 | |
| SQ6EMJ | 2026-09-05 16:15:31 | 51.12924 | 16.14120 | 124° | 197km/h | 9388m | 2.9m/s | -42.2°C | 0% | 0hPa | 0V | 00:00:00 | 00:00:00 | 00:00:00 | |
| POL1PZ | 2026-09-05 16:15:29 | 51.12979 | 16.13977 | 123° | 215km/h | 9382m | 2.7m/s | -42.2°C | 0% | 0hPa | 0V | 00:00:00 | 00:00:00 | 00:00:00 | |
| SQ6EMJ | 2026-09-05 16:15:26 | 51.13064 | 16.13772 | 122° | 208km/h | 9371m | 3.5m/s | -42.1°C | 0% | 0hPa | 0V | 00:00:00 | 00:00:00 | 00:00:00 | |
| SQ6EMJ | 2026-09-05 16:15:21 | 51.13234 | 16.13350 | 124° | 210km/h | 9353m | 3.3m/s | -41.9°C | 0% | 0hPa | 0V | 00:00:00 | 00:00:00 | 00:00:00 | |
| SP6BVK | 2026-09-05 16:15:19 | 51.13293 | 16.13215 | 125° | 204km/h | 9346m | 3.5m/s | -41.8°C | 0% | 0hPa | 0V | 00:00:00 | 00:00:00 | 00:00:00 | |
| 13BRC | 2026-09-05 16:15:14 | 51.13409 | 16.12937 | 126° | 204km/h | 9333m | 3.4m/s | -41.8°C | 0% | 0hPa | 0V | 00:00:00 | 00:00:00 | 00:00:00 | |
| OE3JTB-15 | 2026-09-05 16:15:09 | 51.13553 | 16.12589 | 123° | 203km/h | 9312m | 3.3m/s | 0°C | 0% | 0hPa | 0V | 00:00:00 | 00:00:00 | 00:00:00 | |
| SQ6EMJ | 2026-09-05 16:15:04 | 51.13725 | 16.12180 | 126° | 197km/h | 9295m | 3.7m/s | -41.7°C | 0% | 0hPa | 0V | 00:00:00 | 00:00:00 | 00:00:00 | |
| OK1ALN | 2026-09-05 16:15:01 | 51.13812 | 16.11975 | 124° | 206km/h | 9285m | 3.5m/s | -41.6°C | 0% | 0hPa | 0V | 00:00:00 | 00:00:00 | 00:00:00 | |
| SP6BVK | 2026-09-05 16:14:58 | 51.13869 | 16.11843 | 125° | 197km/h | 9278m | 3.0m/s | -41.6°C | 0% | 0hPa | 0V | 00:00:00 | 00:00:00 | 00:00:00 | |
| 13BRC | 2026-09-05 16:14:54 | 51.13983 | 16.11572 | 126° | 195km/h | 9264m | 3.3m/s | -41.5°C | 0% | 0hPa | 0V | 00:00:00 | 00:00:00 | 00:00:00 | |
| SQ6EMJ | 2026-09-05 16:14:53 | 51.14036 | 16.11436 | 122° | 204km/h | 9257m | 3.5m/s | -41.5°C | 0% | 0hPa | 0V | 00:00:00 | 00:00:00 | 00:00:00 | |
| POL1PZ | 2026-09-05 16:14:48 | 51.14148 | 16.11164 | 122° | 199km/h | 9243m | 3.0m/s | -41.5°C | 0% | 0hPa | 0V | 00:00:00 | 00:00:00 | 00:00:00 | |
| SQ6EMJ | 2026-09-05 16:14:46 | 51.14204 | 16.11031 | 126° | 201km/h | 9237m | 2.3m/s | -41.4°C | 0% | 0hPa | 0V | 00:00:00 | 00:00:00 | 00:00:00 | |
| SQ6EMJ | 2026-09-05 16:14:41 | 51.14339 | 16.10695 | 124° | 201km/h | 9220m | 3.5m/s | -41.3°C | 0% | 0hPa | 0V | 00:00:00 | 00:00:00 | 00:00:00 | |
| OE3JTB-15 | 2026-09-05 16:14:40 | 51.14366 | 16.10626 | 120° | 197km/h | 9214m | 3.5m/s | 0°C | 0% | 0hPa | 0V | 00:00:00 | 00:00:00 | 00:00:00 | |
| SP6BVK | 2026-09-05 16:14:37 | 51.14447 | 16.10426 | 123° | 195km/h | 9207m | 3.6m/s | -41.3°C | 0% | 0hPa | 0V | 00:00:00 | 00:00:00 | 00:00:00 | |
| SQ6EMJ | 2026-09-05 16:14:36 | 51.14498 | 16.10287 | 123° | 203km/h | 9201m | 3.7m/s | -41.3°C | 0% | 0hPa | 0V | 00:00:00 | 00:00:00 | 00:00:00 | |
| 13BRC | 2026-09-05 16:14:34 | 51.14603 | 16.10017 | 122° | 195km/h | 9198m | 2.6m/s | -41.1°C | 0% | 0hPa | 0V | 00:00:00 | 00:00:00 | 00:00:00 | |
| SQ6EMJ | 2026-09-05 16:14:30 | 51.14630 | 16.09950 | 125° | 201km/h | 9185m | 2.9m/s | -41.2°C | 0% | 0hPa | 0V | 00:00:00 | 00:00:00 | 00:00:00 | |
| OK1ALN | 2026-09-05 16:14:29 | 51.14658 | 16.09882 | 123° | 203km/h | 9181m | 3.7m/s | -41.2°C | 0% | 0hPa | 0V | 00:00:00 | 00:00:00 | 00:00:00 | |
| POL1PZ | 2026-09-05 16:14:28 | 51.14683 | 16.09812 | 119° | 197km/h | 9178m | 3.0m/s | -41.1°C | 0% | 0hPa | 0V | 00:00:00 | 00:00:00 | 00:00:00 | |
| SQ6EMJ | 2026-09-05 16:14:24 | 51.14787 | 16.09542 | 119° | 193km/h | 9164m | 3.8m/s | -41.2°C | 0% | 0hPa | 0V | 00:00:00 | 00:00:00 | 00:00:00 | |
| SP3BTT-10 | 2026-09-05 16:14:23 | 51.14811 | 16.09473 | 120° | 193km/h | 9158m | 4.0m/s | 0°C | 0% | 0hPa | 0V | 00:00:00 | 00:00:00 | 00:00:00 | |
| SQ6EMJ | 2026-09-05 16:14:19 | 51.14937 | 16.09135 | 123° | 195km/h | 9145m | 3.7m/s | -41.3°C | 0% | 0hPa | 0V | 00:00:00 | 00:00:00 | 00:00:00 | |
| SP6BVK | 2026-09-05 16:14:17 | 51.14964 | 16.09068 | 124° | 203km/h | 9141m | 3.1m/s | -41.3°C | 0% | 0hPa | 0V | 00:00:00 | 00:00:00 | 00:00:00 | |
| SQ6EMJ | 2026-09-05 16:14:14 | 51.15064 | 16.08800 | 124° | 197km/h | 9128m | 2.7m/s | -41.2°C | 0% | 0hPa | 0V | 00:00:00 | 00:00:00 | 00:00:00 | |
| OE3JTB-15 | 2026-09-05 16:14:11 | 51.15115 | 16.08665 | 119° | 193km/h | 9118m | 3.6m/s | 0°C | 0% | 0hPa | 0V | 00:00:00 | 00:00:00 | 00:00:00 | |
| OK1ALN | 2026-09-05 16:14:08 | 51.15214 | 16.08397 | 119° | 193km/h | 9108m | 2.7m/s | -41.1°C | 0% | 0hPa | 0V | 00:00:00 | 00:00:00 | 00:00:00 | |
| POL1PZ | 2026-09-05 16:14:07 | 51.15214 | 16.08397 | 119° | 193km/h | 9108m | 2.7m/s | -41.1°C | 0% | 0hPa | 0V | 00:00:00 | 00:00:00 | 00:00:00 | |
| SQ6EMJ | 2026-09-05 16:14:02 | 51.15339 | 16.08060 | 122° | 195km/h | 9092m | 3.8m/s | -41.0°C | 0% | 0hPa | 0V | 00:00:00 | 00:00:00 | 00:00:00 | |
| 13BRC | 2026-09-05 16:13:59 | 51.15439 | 16.07791 | 123° | 199km/h | 9078m | 3.6m/s | -40.9°C | 0% | 0hPa | 0V | 00:00:00 | 00:00:00 | 00:00:00 | |
| SQ6EMJ | 2026-09-05 16:13:57 | 51.15490 | 16.07657 | 120° | 192km/h | 9071m | 3.5m/s | -40.9°C | 0% | 0hPa | 0V | 00:00:00 | 00:00:00 | 00:00:00 | |
| SQ6EMJ | 2026-09-05 16:13:51 | 51.15638 | 16.07254 | 123° | 195km/h | 9052m | 4.1m/s | -40.8°C | 0% | 0hPa | 0V | 00:00:00 | 00:00:00 | 00:00:00 | |
| OK1ALN | 2026-09-05 16:13:46 | 51.15738 | 16.06987 | 121° | 193km/h | 9039m | 3.3m/s | -40.7°C | 0% | 0hPa | 0V | 00:00:00 | 00:00:00 | 00:00:00 | |
| SQ6EMJ | 2026-09-05 16:13:45 | 51.15764 | 16.06920 | 124° | 197km/h | 9035m | 2.9m/s | -40.7°C | 0% | 0hPa | 0V | 00:00:00 | 00:00:00 | 00:00:00 | |
| OE3JTB-15 | 2026-09-05 16:13:42 | 51.15840 | 16.06718 | 121° | 193km/h | 9022m | 2.7m/s | 0°C | 0% | 0hPa | 0V | 00:00:00 | 00:00:00 | 00:00:00 | |
| SQ6EMJ | 2026-09-05 16:13:40 | 51.15916 | 16.06518 | 119° | 192km/h | 9015m | 3.0m/s | -40.6°C | 0% | 0hPa | 0V | 00:00:00 | 00:00:00 | 00:00:00 | |
| SP3BTT-10 | 2026-09-05 16:13:38 | 51.15940 | 16.06449 | 121° | 193km/h | 9011m | 3.4m/s | 0°C | 0% | 0hPa | 0V | 00:00:00 | 00:00:00 | 00:00:00 | |
| SP6BVK | 2026-09-05 16:13:36 | 51.15992 | 16.06315 | 122° | 192km/h | 9006m | 3.4m/s | -40.5°C | 0% | 0hPa | 0V | 00:00:00 | 00:00:00 | 00:00:00 | |
| SQ6EMJ | 2026-09-05 16:13:35 | 51.16040 | 16.06180 | 121° | 195km/h | 9000m | 3.5m/s | -40.5°C | 0% | 0hPa | 0V | 00:00:00 | 00:00:00 | 00:00:00 | |
| 13BRC | 2026-09-05 16:13:32 | 51.16092 | 16.06046 | 122° | 192km/h | 8993m | 3.7m/s | -40.5°C | 0% | 0hPa | 0V | 00:00:00 | 00:00:00 | 00:00:00 | |
| SQ6EMJ | 2026-09-05 16:13:29 | 51.16191 | 16.05775 | 121° | 193km/h | 8981m | 3.5m/s | -40.4°C | 0% | 0hPa | 0V | 00:00:00 | 00:00:00 | 00:00:00 | |
| POL1PZ | 2026-09-05 16:13:26 | 51.16240 | 16.05642 | 122° | 195km/h | 8974m | 3.4m/s | -40.4°C | 0% | 0hPa | 0V | 00:00:00 | 00:00:00 | 00:00:00 | |
| OK1ALN | 2026-09-05 16:13:25 | 51.16266 | 16.05575 | 122° | 199km/h | 8971m | 2.3m/s | -40.3°C | 0% | 0hPa | 0V | 00:00:00 | 00:00:00 | 00:00:00 | |
| SQ6EMJ | 2026-09-05 16:13:18 | 51.16464 | 16.05037 | 124° | 193km/h | 8946m | 2.6m/s | -40.2°C | 0% | 0hPa | 0V | 00:00:00 | 00:00:00 | 00:00:00 | |
| SP6BVK | 2026-09-05 16:13:15 | 51.16513 | 16.04906 | 120° | 190km/h | 8939m | 3.0m/s | -40.2°C | 0% | 0hPa | 0V | 00:00:00 | 00:00:00 | 00:00:00 | |
| OE3JTB-15 | 2026-09-05 16:13:13 | 51.16564 | 16.04770 | 123° | 193km/h | 8930m | 3.6m/s | 0°C | 0% | 0hPa | 0V | 00:00:00 | 00:00:00 | 00:00:00 | |
| SQ6EMJ | 2026-09-05 16:13:12 | 51.16612 | 16.04637 | 120° | 188km/h | 8927m | 3.1m/s | -40.1°C | 0% | 0hPa | 0V | 00:00:00 | 00:00:00 | 00:00:00 | |
| SP3BTT-10 | 2026-09-05 16:13:08 | 51.16688 | 16.04438 | 120° | 193km/h | 8914m | 3.1m/s | 0°C | 0% | 0hPa | 0V | 00:00:00 | 00:00:00 | 00:00:00 | |
| POL1PZ | 2026-09-05 16:13:06 | 51.16738 | 16.04236 | 123° | 199km/h | 8907m | 3.0m/s | -39.9°C | 0% | 0hPa | 0V | 00:00:00 | 00:00:00 | 00:00:00 | |
| SQ6EMJ | 2026-09-05 16:13:00 | 51.16890 | 16.03904 | 121° | 186km/h | 8892m | 3.0m/s | -39.8°C | 0% | 0hPa | 0V | 00:00:00 | 00:00:00 | 00:00:00 | |
| OK1ALN | 2026-09-05 16:12:59 | 51.16914 | 16.03838 | 122° | 190km/h | 8889m | 3.3m/s | -56.0°C | 0% | 0hPa | 0V | 00:00:00 | 00:00:00 | 00:00:00 | |
| SQ6EMJ | 2026-09-05 16:12:55 | 51.17041 | 16.03504 | 124° | 203km/h | 8874m | 2.4m/s | -39.7°C | 0% | 0hPa | 0V | 00:00:00 | 00:00:00 | 00:00:00 | |
| SP6BVK | 2026-09-05 16:12:54 | 51.17041 | 16.03504 | 124° | 203km/h | 8874m | 2.4m/s | -39.7°C | 0% | 0hPa | 0V | 00:00:00 | 00:00:00 | 00:00:00 | |
| SQ6EMJ | 2026-09-05 16:12:49 | 51.17169 | 16.03172 | 121° | 199km/h | 8859m | 3.2m/s | -39.5°C | 0% | 0hPa | 0V | 00:00:00 | 00:00:00 | 00:00:00 | |
| POL1PZ | 2026-09-05 16:12:45 | 51.17271 | 16.02907 | 122° | 197km/h | 8847m | 3.3m/s | -39.4°C | 0% | 0hPa | 0V | 00:00:00 | 00:00:00 | 00:00:00 | |
| SQ6EMJ | 2026-09-05 16:12:44 | 51.17319 | 16.02773 | 122° | 188km/h | 8841m | 3.3m/s | -39.4°C | 0% | 0hPa | 0V | 00:00:00 | 00:00:00 | 00:00:00 | |
| SP3BTT-10 | 2026-09-05 16:12:38 | 51.17447 | 16.02440 | 125° | 193km/h | 8826m | 3.4m/s | 0°C | 0% | 0hPa | 0V | 00:00:00 | 00:00:00 | 00:00:00 | |
| OK1ALN | 2026-09-05 16:12:34 | 51.17547 | 16.02171 | 123° | 193km/h | 8814m | 3.4m/s | -39.2°C | 0% | 0hPa | 0V | 00:00:00 | 00:00:00 | 00:00:00 | |
| SQ6EMJ | 2026-09-05 16:12:33 | 51.17601 | 16.02039 | 121° | 193km/h | 8807m | 3.2m/s | -39.2°C | 0% | 0hPa | 0V | 00:00:00 | 00:00:00 | 00:00:00 | |
| SQ6EMJ | 2026-09-05 16:12:27 | 51.17750 | 16.01636 | 123° | 197km/h | 8789m | 3.4m/s | -39.1°C | 0% | 0hPa | 0V | 00:00:00 | 00:00:00 | 00:00:00 | |
| POL1PZ | 2026-09-05 16:12:25 | 51.17776 | 16.01569 | 124° | 195km/h | 8786m | 2.6m/s | -39.1°C | 0% | 0hPa | 0V | 00:00:00 | 00:00:00 | 00:00:00 | |
| 13BRC | 2026-09-05 16:12:22 | 51.17876 | 16.01303 | 123° | 199km/h | 8774m | 2.4m/s | -38.9°C | 0% | 0hPa | 0V | 00:00:00 | 00:00:00 | 00:00:00 | |
| SQ6EMJ | 2026-09-05 16:12:21 | 51.17901 | 16.01235 | 120° | 193km/h | 8771m | 3.4m/s | -38.9°C | 0% | 0hPa | 0V | 00:00:00 | 00:00:00 | 00:00:00 | |
| OE3JTB-15 | 2026-09-05 16:12:15 | 51.18025 | 16.00899 | 120° | 195km/h | 8753m | 3.3m/s | 0°C | 0% | 0hPa | 0V | 00:00:00 | 00:00:00 | 00:00:00 | |
| SQ6EMJ | 2026-09-05 16:12:13 | 51.18076 | 16.00767 | 123° | 193km/h | 8750m | 2.9m/s | -38.7°C | 0% | 0hPa | 0V | 00:00:00 | 00:00:00 | 00:00:00 | |
| SP3BTT-10 | 2026-09-05 16:12:08 | 51.18201 | 16.00431 | 120° | 195km/h | 8733m | 2.7m/s | 0°C | 0% | 0hPa | 0V | 00:00:00 | 00:00:00 | 00:00:00 | |
| SQ6EMJ | 2026-09-05 16:12:06 | 51.18250 | 16.00296 | 124° | 199km/h | 8729m | 3.4m/s | -38.6°C | 0% | 0hPa | 0V | 00:00:00 | 00:00:00 | 00:00:00 | |
| POL1PZ | 2026-09-05 16:12:04 | 51.18302 | 16.00162 | 119° | 192km/h | 8723m | 3.2m/s | -38.5°C | 0% | 0hPa | 0V | 00:00:00 | 00:00:00 | 00:00:00 | |
| SQ6EMJ | 2026-09-05 16:12:01 | 51.18401 | 15.99892 | 120° | 192km/h | 8711m | 3.0m/s | -38.4°C | 0% | 0hPa | 0V | 00:00:00 | 00:00:00 | 00:00:00 | |
| 13BRC | 2026-09-05 16:11:58 | 51.18450 | 15.99757 | 123° | 197km/h | 8704m | 3.2m/s | -38.3°C | 0% | 0hPa | 0V | 00:00:00 | 00:00:00 | 00:00:00 | |
| SQ6EMJ | 2026-09-05 16:11:55 | 51.18549 | 15.99484 | 123° | 197km/h | 8693m | 3.0m/s | -38.2°C | 0% | 0hPa | 0V | 00:00:00 | 00:00:00 | 00:00:00 | |
| SP6BVK | 2026-09-05 16:11:53 | 51.18575 | 15.99417 | 122° | 197km/h | 8690m | 3.3m/s | -38.2°C | 0% | 0hPa | 0V | 00:00:00 | 00:00:00 | 00:00:00 | |
| OK1ALN | 2026-09-05 16:11:51 | 51.18675 | 15.99146 | 122° | 197km/h | 8677m | 3.2m/s | -38.1°C | 0% | 0hPa | 0V | 00:00:00 | 00:00:00 | 00:00:00 | |
| SQ6EMJ | 2026-09-05 16:11:48 | 51.18699 | 15.99077 | 119° | 197km/h | 8671m | 3.5m/s | -38.1°C | 0% | 0hPa | 0V | 00:00:00 | 00:00:00 | 00:00:00 | |
| OE3JTB-15 | 2026-09-05 16:11:46 | 51.18749 | 15.98942 | 121° | 195km/h | 8665m | 3.2m/s | 0°C | 0% | 0hPa | 0V | 00:00:00 | 00:00:00 | 00:00:00 | |
| POL1PZ | 2026-09-05 16:11:43 | 51.18822 | 15.98738 | 121° | 199km/h | 8660m | 3.3m/s | -38.0°C | 0% | 0hPa | 0V | 00:00:00 | 00:00:00 | 00:00:00 | |
| SQ6EMJ | 2026-09-05 16:11:42 | 51.18848 | 15.98669 | 123° | 201km/h | 8657m | 2.3m/s | -38.0°C | 0% | 0hPa | 0V | 00:00:00 | 00:00:00 | 00:00:00 | |
| SP3BTT-10 | 2026-09-05 16:11:38 | 51.18947 | 15.98398 | 122° | 195km/h | 8645m | 2.0m/s | 0°C | 0% | 0hPa | 0V | 00:00:00 | 00:00:00 | 00:00:00 | |
| SQ6EMJ | 2026-09-05 16:11:37 | 51.18996 | 15.98261 | 119° | 188km/h | 8640m | 2.7m/s | -37.8°C | 0% | 0hPa | 0V | 00:00:00 | 00:00:00 | 00:00:00 | |
| SP6BVK | 2026-09-05 16:11:32 | 51.19095 | 15.97990 | 119° | 190km/h | 8628m | 2.6m/s | -37.6°C | 0% | 0hPa | 0V | 00:00:00 | 00:00:00 | 00:00:00 | |
| SQ6EMJ | 2026-09-05 16:11:31 | 51.19145 | 15.97854 | 123° | 201km/h | 8622m | 2.6m/s | -37.6°C | 0% | 0hPa | 0V | 00:00:00 | 00:00:00 | 00:00:00 | |
| OK1ALN | 2026-09-05 16:11:30 | 51.19145 | 15.97854 | 123° | 201km/h | 8622m | 2.6m/s | -37.6°C | 0% | 0hPa | 0V | 00:00:00 | 00:00:00 | 00:00:00 | |
| SQ6EMJ | 2026-09-05 16:11:25 | 51.19269 | 15.97514 | 121° | 195km/h | 8608m | 3.3m/s | -37.5°C | 0% | 0hPa | 0V | 00:00:00 | 00:00:00 | 00:00:00 | |
| SQ6EMJ | 2026-09-05 16:11:20 | 51.19414 | 15.97104 | 121° | 201km/h | 8591m | 3.3m/s | -37.3°C | 0% | 0hPa | 0V | 00:00:00 | 00:00:00 | 00:00:00 | |
| OE3JTB-15 | 2026-09-05 16:11:17 | 51.19465 | 15.96967 | 120° | 195km/h | 8583m | 2.4m/s | 0°C | 0% | 0hPa | 0V | 00:00:00 | 00:00:00 | 00:00:00 | |
| 13BRC | 2026-09-05 16:11:16 | 51.19488 | 15.96900 | 120° | 190km/h | 8583m | 2.4m/s | -37.3°C | 0% | 0hPa | 0V | 00:00:00 | 00:00:00 | 00:00:00 | |
| SQ6EMJ | 2026-09-05 16:11:14 | 51.19539 | 15.96763 | 122° | 203km/h | 8577m | 2.4m/s | -37.2°C | 0% | 0hPa | 0V | 00:00:00 | 00:00:00 | 00:00:00 | |
| SP6BVK | 2026-09-05 16:11:12 | 51.19586 | 15.96627 | 119° | 186km/h | 8571m | 2.1m/s | -37.2°C | 0% | 0hPa | 0V | 00:00:00 | 00:00:00 | 00:00:00 | |
| SQ6EMJ | 2026-09-05 16:11:09 | 51.19684 | 15.96353 | 119° | 186km/h | 8560m | 1.9m/s | -37.1°C | 0% | 0hPa | 0V | 00:00:00 | 00:00:00 | 00:00:00 | |
| SP3BTT-10 | 2026-09-05 16:11:07 | 51.19707 | 15.96286 | 121° | 195km/h | 8551m | 3.0m/s | 0°C | 0% | 0hPa | 0V | 00:00:00 | 00:00:00 | 00:00:00 | |
| SQ6EMJ | 2026-09-05 16:11:03 | 51.19831 | 15.95944 | 123° | 201km/h | 8543m | 2.5m/s | -36.9°C | 0% | 0hPa | 0V | 00:00:00 | 00:00:00 | 00:00:00 | |
| SQ6EMJ | 2026-09-05 16:10:58 | 51.19955 | 15.95603 | 120° | 199km/h | 8529m | 3.4m/s | -36.8°C | 0% | 0hPa | 0V | 00:00:00 | 00:00:00 | 00:00:00 | |
| SQ6EMJ | 2026-09-05 16:10:52 | 51.20098 | 15.95190 | 119° | 195km/h | 8512m | 2.9m/s | -36.7°C | 0% | 0hPa | 0V | 00:00:00 | 00:00:00 | 00:00:00 | |
| SP6BVK | 2026-09-05 16:10:51 | 51.20098 | 15.95190 | 119° | 195km/h | 8512m | 2.9m/s | -36.7°C | 0% | 0hPa | 0V | 00:00:00 | 00:00:00 | 00:00:00 | |
| OE3JTB-15 | 2026-09-05 16:10:48 | 51.20174 | 15.94983 | 118° | 193km/h | 8501m | 2.5m/s | 0°C | 0% | 0hPa | 0V | 00:00:00 | 00:00:00 | 00:00:00 | |
| SQ6EMJ | 2026-09-05 16:10:46 | 51.20220 | 15.94850 | 123° | 188km/h | 8498m | 3.3m/s | -36.7°C | 0% | 0hPa | 0V | 00:00:00 | 00:00:00 | 00:00:00 | |
| SQ6EMJ | 2026-09-05 16:10:41 | 51.20367 | 15.94440 | 119° | 203km/h | 8481m | 3.4m/s | -36.5°C | 0% | 0hPa | 0V | 00:00:00 | 00:00:00 | 00:00:00 | |
| SP3BTT-10 | 2026-09-05 16:10:37 | 51.20437 | 15.94236 | 122° | 193km/h | 8472m | 2.9m/s | 0°C | 0% | 0hPa | 0V | 00:00:00 | 00:00:00 | 00:00:00 | |
| POL1PZ | 2026-09-05 16:10:36 | 51.20462 | 15.94167 | 120° | 203km/h | 8469m | 3.0m/s | -36.5°C | 0% | 0hPa | 0V | 00:00:00 | 00:00:00 | 00:00:00 | |
| SQ6EMJ | 2026-09-05 16:10:35 | 51.20508 | 15.94028 | 120° | 184km/h | 8463m | 3.7m/s | -36.5°C | 0% | 0hPa | 0V | 00:00:00 | 00:00:00 | 00:00:00 | |
| OK1ALN | 2026-09-05 16:10:34 | 51.20532 | 15.93963 | 122° | 188km/h | 8463m | 3.7m/s | -36.4°C | 0% | 0hPa | 0V | 00:00:00 | 00:00:00 | 00:00:00 | |
| SP6BVK | 2026-09-05 16:10:31 | 51.20582 | 15.93824 | 118° | 203km/h | 8454m | 2.4m/s | -36.4°C | 0% | 0hPa | 0V | 00:00:00 | 00:00:00 | 00:00:00 | |
| SQ6EMJ | 2026-09-05 16:10:29 | 51.20627 | 15.93688 | 121° | 184km/h | 8448m | 2.9m/s | -36.3°C | 0% | 0hPa | 0V | 00:00:00 | 00:00:00 | 00:00:00 | |
| SQ6EMJ | 2026-09-05 16:10:23 | 51.20768 | 15.93278 | 121° | 199km/h | 8431m | 2.4m/s | -36.1°C | 0% | 0hPa | 0V | 00:00:00 | 00:00:00 | 00:00:00 | |
| SQ6EMJ | 2026-09-05 16:10:19 | 51.20885 | 15.92935 | 120° | 188km/h | 8417m | 3.3m/s | -36.0°C | 0% | 0hPa | 0V | 00:00:00 | 00:00:00 | 00:00:00 | |
| POL1PZ | 2026-09-05 16:10:16 | 51.20930 | 15.92801 | 119° | 197km/h | 8411m | 3.7m/s | -36.0°C | 0% | 0hPa | 0V | 00:00:00 | 00:00:00 | 00:00:00 | |
| SQ6EMJ | 2026-09-05 16:10:13 | 51.21023 | 15.92525 | 119° | 197km/h | 8398m | 2.9m/s | -35.9°C | 0% | 0hPa | 0V | 00:00:00 | 00:00:00 | 00:00:00 | |
| SP6BVK | 2026-09-05 16:10:10 | 51.21070 | 15.92387 | 120° | 186km/h | 8393m | 3.2m/s | -35.9°C | 0% | 0hPa | 0V | 00:00:00 | 00:00:00 | 00:00:00 | |
| SP3BTT-10 | 2026-09-05 16:10:07 | 51.21139 | 15.92178 | 118° | 193km/h | 8379m | 2.3m/s | 0°C | 0% | 0hPa | 0V | 00:00:00 | 00:00:00 | 00:00:00 | |
| SQ6EMJ | 2026-09-05 16:10:06 | 51.21162 | 15.92112 | 118° | 186km/h | 8381m | 3.7m/s | -35.8°C | 0% | 0hPa | 0V | 00:00:00 | 00:00:00 | 00:00:00 | |
| 13BRC | 2026-09-05 16:10:04 | 51.21208 | 15.91979 | 121° | 197km/h | 8375m | 3.5m/s | 0°C | 0% | 0hPa | 0V | 00:00:00 | 00:00:00 | 00:00:00 | |
| SQ6EMJ | 2026-09-05 16:10:01 | 51.21277 | 15.91773 | 118° | 184km/h | 8367m | 1.9m/s | -35.6°C | 0% | 0hPa | 0V | 00:00:00 | 00:00:00 | 00:00:00 | |
| SQ6EMJ | 2026-09-05 16:09:56 | 51.21416 | 15.91362 | 119° | 203km/h | 8351m | 2.7m/s | -35.5°C | 0% | 0hPa | 0V | 00:00:00 | 00:00:00 | 00:00:00 | |
| POL1PZ | 2026-09-05 16:09:54 | 51.21440 | 15.91292 | 120° | 195km/h | 8348m | 3.2m/s | -35.5°C | 0% | 0hPa | 0V | 00:00:00 | 00:00:00 | 00:00:00 | |
| OE3JTB-15 | 2026-09-05 16:09:50 | 51.21532 | 15.91017 | 120° | 192km/h | 8334m | 2.5m/s | 0°C | 0% | 0hPa | 0V | 00:00:00 | 00:00:00 | 00:00:00 | |
| OK1ALN | 2026-09-05 16:09:49 | 51.21555 | 15.90951 | 120° | 184km/h | 8334m | 2.6m/s | -35.4°C | 0% | 0hPa | 0V | 00:00:00 | 00:00:00 | 00:00:00 | |
| SQ6EMJ | 2026-09-05 16:09:45 | 51.21672 | 15.90612 | 120° | 188km/h | 8319m | 3.2m/s | -35.3°C | 0% | 0hPa | 0V | 00:00:00 | 00:00:00 | 00:00:00 | |
| SQ6EMJ | 2026-09-05 16:09:39 | 51.21813 | 15.90202 | 120° | 193km/h | 8301m | 3.1m/s | -35.1°C | 0% | 0hPa | 0V | 00:00:00 | 00:00:00 | 00:00:00 | |
| SP3BTT-10 | 2026-09-05 16:09:37 | 51.21836 | 15.90136 | 120° | 192km/h | 8298m | 2.3m/s | 0°C | 0% | 0hPa | 0V | 00:00:00 | 00:00:00 | 00:00:00 | |
| POL1PZ | 2026-09-05 16:09:34 | 51.21930 | 15.89865 | 121° | 190km/h | 8286m | 2.7m/s | -35.0°C | 0% | 0hPa | 0V | 00:00:00 | 00:00:00 | 00:00:00 | |
| SQ6EMJ | 2026-09-05 16:09:33 | 51.21930 | 15.89865 | 121° | 190km/h | 8286m | 2.7m/s | -35.0°C | 0% | 0hPa | 0V | 00:00:00 | 00:00:00 | 00:00:00 | |
| SP6BVK | 2026-09-05 16:09:29 | 51.22024 | 15.89594 | 120° | 192km/h | 8274m | 3.0m/s | -35.0°C | 0% | 0hPa | 0V | 00:00:00 | 00:00:00 | 00:00:00 | |
| SQ6EMJ | 2026-09-05 16:09:28 | 51.22071 | 15.89455 | 119° | 192km/h | 8269m | 3.2m/s | -34.9°C | 0% | 0hPa | 0V | 00:00:00 | 00:00:00 | 00:00:00 | |
| SQ6EMJ | 2026-09-05 16:09:22 | 51.22186 | 15.89118 | 120° | 184km/h | 8254m | 2.4m/s | -34.8°C | 0% | 0hPa | 0V | 00:00:00 | 00:00:00 | 00:00:00 | |
| OE3JTB-15 | 2026-09-05 16:09:21 | 51.22209 | 15.89051 | 121° | 192km/h | 8248m | 2.4m/s | 0°C | 0% | 0hPa | 0V | 00:00:00 | 00:00:00 | 00:00:00 | |
| SQ6EMJ | 2026-09-05 16:09:17 | 51.22328 | 15.88712 | 122° | 201km/h | 8236m | 2.0m/s | -34.6°C | 0% | 0hPa | 0V | 00:00:00 | 00:00:00 | 00:00:00 | |
| OK1ALN | 2026-09-05 16:09:15 | 51.22353 | 15.88645 | 120° | 188km/h | 8234m | 3.4m/s | -34.6°C | 0% | 0hPa | 0V | 00:00:00 | 00:00:00 | 00:00:00 | |
| POL1PZ | 2026-09-05 16:09:13 | 51.22396 | 15.88512 | 119° | 192km/h | 8227m | 2.9m/s | 0°C | 0% | 0hPa | 0V | 00:00:00 | 00:00:00 | 00:00:00 | |
| SQ6EMJ | 2026-09-05 16:09:10 | 51.22468 | 15.88307 | 119° | 183km/h | 8219m | 2.7m/s | -34.5°C | 0% | 0hPa | 0V | 00:00:00 | 00:00:00 | 00:00:00 | |
| SP6BVK | 2026-09-05 16:09:09 | 51.22491 | 15.88241 | 120° | 190km/h | 8216m | 3.2m/s | -34.5°C | 0% | 0hPa | 0V | 00:00:00 | 00:00:00 | 00:00:00 | |
| SP3BTT-10 | 2026-09-05 16:09:07 | 51.22538 | 15.88106 | 118° | 190km/h | 8204m | 3.7m/s | 0°C | 0% | 0hPa | 0V | 00:00:00 | 00:00:00 | 00:00:00 | |
| SQ6EMJ | 2026-09-05 16:08:59 | 51.22722 | 15.87564 | 120° | 188km/h | 8186m | 3.5m/s | -34.3°C | 0% | 0hPa | 0V | 00:00:00 | 00:00:00 | 00:00:00 | |
| SQ6EMJ | 2026-09-05 16:08:55 | 51.22834 | 15.87227 | 120° | 186km/h | 8171m | 2.7m/s | -34.2°C | 0% | 0hPa | 0V | 00:00:00 | 00:00:00 | 00:00:00 | |
| OE3JTB-15 | 2026-09-05 16:08:52 | 51.22879 | 15.87089 | 119° | 192km/h | 8163m | 3.2m/s | 0°C | 0% | 0hPa | 0V | 00:00:00 | 00:00:00 | 00:00:00 | |
| SQ6EMJ | 2026-09-05 16:08:49 | 51.22969 | 15.86818 | 117° | 195km/h | 8153m | 2.3m/s | -34.0°C | 0% | 0hPa | 0V | 00:00:00 | 00:00:00 | 00:00:00 | |
| SP6BVK | 2026-09-05 16:08:48 | 51.22969 | 15.86818 | 117° | 195km/h | 8153m | 2.3m/s | -34.0°C | 0% | 0hPa | 0V | 00:00:00 | 00:00:00 | 00:00:00 | |
| SQ6EMJ | 2026-09-05 16:08:42 | 51.23104 | 15.86410 | 120° | 181km/h | 8135m | 2.9m/s | -33.9°C | 0% | 0hPa | 0V | 00:00:00 | 00:00:00 | 00:00:00 | |
| 13BRC | 2026-09-05 16:08:40 | 51.23173 | 15.86205 | 118° | 192km/h | 8127m | 3.1m/s | -33.7°C | 0% | 0hPa | 0V | 00:00:00 | 00:00:00 | 00:00:00 | |
| SQ6EMJ | 2026-09-05 16:08:31 | 51.23353 | 15.85660 | 120° | 186km/h | 8102m | 3.2m/s | -33.6°C | 0% | 0hPa | 0V | 00:00:00 | 00:00:00 | 00:00:00 | |
| SP6BVK | 2026-09-05 16:08:28 | 51.23420 | 15.85454 | 118° | 193km/h | 8093m | 3.3m/s | -33.6°C | 0% | 0hPa | 0V | 00:00:00 | 00:00:00 | 00:00:00 | |
| SQ6EMJ | 2026-09-05 16:08:27 | 51.23465 | 15.85319 | 119° | 190km/h | 8088m | 3.3m/s | -33.5°C | 0% | 0hPa | 0V | 00:00:00 | 00:00:00 | 00:00:00 | |
| OE3JTB-15 | 2026-09-05 16:08:23 | 51.23533 | 15.85113 | 119° | 190km/h | 8075m | 3.4m/s | 0°C | 0% | 0hPa | 0V | 00:00:00 | 00:00:00 | 00:00:00 | |
| SQ6EMJ | 2026-09-05 16:08:21 | 51.23601 | 15.84906 | 118° | 193km/h | 8070m | 3.5m/s | -33.4°C | 0% | 0hPa | 0V | 00:00:00 | 00:00:00 | 00:00:00 | |
| 13BRC | 2026-09-05 16:08:16 | 51.23694 | 15.84633 | 119° | 197km/h | 8058m | 3.1m/s | -33.3°C | 0% | 0hPa | 0V | 00:00:00 | 00:00:00 | 00:00:00 | |
| SQ6EMJ | 2026-09-05 16:08:14 | 51.23738 | 15.84500 | 119° | 184km/h | 8052m | 3.2m/s | -33.3°C | 0% | 0hPa | 0V | 00:00:00 | 00:00:00 | 00:00:00 | |
| SQ6EMJ | 2026-09-05 16:08:09 | 51.23854 | 15.84160 | 118° | 197km/h | 8036m | 3.1m/s | -33.1°C | 0% | 0hPa | 0V | 00:00:00 | 00:00:00 | 00:00:00 | |
| SP6BVK | 2026-09-05 16:08:08 | 51.23899 | 15.84024 | 120° | 183km/h | 8030m | 2.6m/s | -33.1°C | 0% | 0hPa | 0V | 00:00:00 | 00:00:00 | 00:00:00 | |
| OK1ALN | 2026-09-05 16:08:06 | 51.23921 | 15.83958 | 119° | 190km/h | 8027m | 3.5m/s | -33.1°C | 0% | 0hPa | 0V | 00:00:00 | 00:00:00 | 00:00:00 | |
| SQ6EMJ | 2026-09-05 16:08:04 | 51.23988 | 15.83753 | 119° | 183km/h | 8017m | 2.7m/s | -33.0°C | 0% | 0hPa | 0V | 00:00:00 | 00:00:00 | 00:00:00 | |
| SQ6EMJ | 2026-09-05 16:07:58 | 51.24099 | 15.83416 | 121° | 192km/h | 8003m | 3.3m/s | -32.9°C | 0% | 0hPa | 0V | 00:00:00 | 00:00:00 | 00:00:00 | |
| SQ6EMJ | 2026-09-05 16:07:53 | 51.24236 | 15.83012 | 118° | 183km/h | 7984m | 3.6m/s | -32.8°C | 0% | 0hPa | 0V | 00:00:00 | 00:00:00 | 00:00:00 | |
| POL1PZ | 2026-09-05 16:07:52 | 51.24236 | 15.83012 | 118° | 183km/h | 7984m | 3.6m/s | -32.8°C | 0% | 0hPa | 0V | 00:00:00 | 00:00:00 | 00:00:00 | |
| SP6BVK | 2026-09-05 16:07:47 | 51.24346 | 15.82679 | 118° | 183km/h | 7968m | 2.8m/s | -32.6°C | 0% | 0hPa | 0V | 00:00:00 | 00:00:00 | 00:00:00 | |
| SQ6EMJ | 2026-09-05 16:07:46 | 51.24368 | 15.82613 | 120° | 188km/h | 7965m | 3.0m/s | -32.6°C | 0% | 0hPa | 0V | 00:00:00 | 00:00:00 | 00:00:00 | |
| SQ6EMJ | 2026-09-05 16:07:41 | 51.24480 | 15.82276 | 120° | 193km/h | 7949m | 3.2m/s | -32.5°C | 0% | 0hPa | 0V | 00:00:00 | 00:00:00 | 00:00:00 | |
| SQ6EMJ | 2026-09-05 16:07:36 | 51.24612 | 15.81876 | 118° | 183km/h | 7932m | 2.8m/s | -32.4°C | 0% | 0hPa | 0V | 00:00:00 | 00:00:00 | 00:00:00 | |
| POL1PZ | 2026-09-05 16:07:32 | 51.24679 | 15.81675 | 117° | 190km/h | 7922m | 2.8m/s | -32.3°C | 0% | 0hPa | 0V | 00:00:00 | 00:00:00 | 00:00:00 | |
| SQ6EMJ | 2026-09-05 16:07:29 | 51.24746 | 15.81475 | 120° | 186km/h | 7913m | 3.5m/s | -32.3°C | 0% | 0hPa | 0V | 00:00:00 | 00:00:00 | 00:00:00 | |
| SP6BVK | 2026-09-05 16:07:26 | 51.24812 | 15.81273 | 122° | 190km/h | 7903m | 3.0m/s | -32.2°C | 0% | 0hPa | 0V | 00:00:00 | 00:00:00 | 00:00:00 | |
| 13BRC | 2026-09-05 16:07:25 | 51.24836 | 15.81208 | 120° | 186km/h | 7900m | 3.4m/s | -32.2°C | 0% | 0hPa | 0V | 00:00:00 | 00:00:00 | 00:00:00 | |
| OE3JTB-15 | 2026-09-05 16:07:24 | 51.24857 | 15.81142 | 116° | 186km/h | 7894m | 3.3m/s | 0°C | 0% | 0hPa | 0V | 00:00:00 | 00:00:00 | 00:00:00 | |
| SP3BTT-10 | 2026-09-05 16:07:23 | 51.24878 | 15.81075 | 118° | 186km/h | 7891m | 2.3m/s | 0°C | 0% | 0hPa | 0V | 00:00:00 | 00:00:00 | 00:00:00 | |
| SQ6EMJ | 2026-09-05 16:07:17 | 51.25035 | 15.80610 | 117° | 184km/h | 7873m | 2.8m/s | -32.0°C | 0% | 0hPa | 0V | 00:00:00 | 00:00:00 | 00:00:00 | |
| OK1ALN | 2026-09-05 16:07:14 | 51.25080 | 15.80478 | 121° | 188km/h | 7867m | 2.8m/s | 0°C | 0% | 0hPa | 0V | 00:00:00 | 00:00:00 | 00:00:00 | |
| SQ6EMJ | 2026-09-05 16:07:11 | 51.25171 | 15.80216 | 121° | 188km/h | 7855m | 3.0m/s | -31.9°C | 0% | 0hPa | 0V | 00:00:00 | 00:00:00 | 00:00:00 | |
| SP6BVK | 2026-09-05 16:07:05 | 51.25281 | 15.79887 | 119° | 179km/h | 7839m | 3.4m/s | -31.8°C | 0% | 0hPa | 0V | 00:00:00 | 00:00:00 | 00:00:00 | |
| SQ6EMJ | 2026-09-05 16:07:04 | 51.25303 | 15.79822 | 118° | 183km/h | 7836m | 3.1m/s | -31.8°C | 0% | 0hPa | 0V | 00:00:00 | 00:00:00 | 00:00:00 | |
| SQ6EMJ | 2026-09-05 16:06:59 | 51.25437 | 15.79428 | 120° | 186km/h | 7816m | 3.2m/s | -31.7°C | 0% | 0hPa | 0V | 00:00:00 | 00:00:00 | 00:00:00 | |
| 13BRC | 2026-09-05 16:06:58 | 51.25437 | 15.79428 | 120° | 186km/h | 7816m | 3.2m/s | -31.7°C | 0% | 0hPa | 0V | 00:00:00 | 00:00:00 | 00:00:00 | |
| OE3JTB-15 | 2026-09-05 16:06:54 | 51.25524 | 15.79167 | 119° | 183km/h | 7781m | 2.5m/s | 0°C | 0% | 0hPa | 0V | 00:00:00 | 00:00:00 | 00:00:00 | |
| SP3BTT-10 | 2026-09-05 16:06:53 | 51.25546 | 15.79102 | 118° | 181km/h | 7800m | 2.8m/s | 0°C | 0% | 0hPa | 0V | 00:00:00 | 00:00:00 | 00:00:00 | |
| POL1PZ | 2026-09-05 16:06:50 | 51.25612 | 15.78906 | 118° | 184km/h | 7789m | 3.6m/s | -31.6°C | 0% | 0hPa | 0V | 00:00:00 | 00:00:00 | 00:00:00 | |
| SQ6EMJ | 2026-09-05 16:06:48 | 51.25699 | 15.78646 | 118° | 184km/h | 7777m | 3.5m/s | -31.5°C | 0% | 0hPa | 0V | 00:00:00 | 00:00:00 | 00:00:00 | |
| SP6BVK | 2026-09-05 16:06:45 | 51.25720 | 15.78581 | 116° | 175km/h | 7774m | 2.8m/s | -31.5°C | 0% | 0hPa | 0V | 00:00:00 | 00:00:00 | 00:00:00 | |
| SQ6EMJ | 2026-09-05 16:06:42 | 51.25805 | 15.78320 | 116° | 177km/h | 7761m | 2.8m/s | -31.4°C | 0% | 0hPa | 0V | 00:00:00 | 00:00:00 | 00:00:00 | |
| SQ6EMJ | 2026-09-05 16:06:36 | 51.25933 | 15.77932 | 121° | 181km/h | 7742m | 2.5m/s | -31.3°C | 0% | 0hPa | 0V | 00:00:00 | 00:00:00 | 00:00:00 | |
| SQ6EMJ | 2026-09-05 16:06:31 | 51.26041 | 15.77608 | 118° | 181km/h | 7726m | 3.6m/s | -31.2°C | 0% | 0hPa | 0V | 00:00:00 | 00:00:00 | 00:00:00 | |
| POL1PZ | 2026-09-05 16:06:29 | 51.26061 | 15.77543 | 116° | 177km/h | 7723m | 2.5m/s | -31.2°C | 0% | 0hPa | 0V | 00:00:00 | 00:00:00 | 00:00:00 | |
| OE3JTB-15 | 2026-09-05 16:06:24 | 51.26167 | 15.77219 | 119° | 181km/h | 7702m | 3.4m/s | 0°C | 0% | 0hPa | 0V | 00:00:00 | 00:00:00 | 00:00:00 | |
| SP3BTT-10 | 2026-09-05 16:06:23 | 51.26189 | 15.77157 | 118° | 181km/h | 7702m | 3.4m/s | 0°C | 0% | 0hPa | 0V | 00:00:00 | 00:00:00 | 00:00:00 | |
| SQ6EMJ | 2026-09-05 16:06:19 | 51.26275 | 15.76897 | 121° | 179km/h | 7693m | 2.8m/s | -31.0°C | 0% | 0hPa | 0V | 00:00:00 | 00:00:00 | 00:00:00 | |
| 13BRC | 2026-09-05 16:06:15 | 51.26361 | 15.76639 | 121° | 181km/h | 7681m | 3.1m/s | -30.8°C | 0% | 0hPa | 0V | 00:00:00 | 00:00:00 | 00:00:00 | |
| SQ6EMJ | 2026-09-05 16:06:14 | 51.26403 | 15.76511 | 117° | 179km/h | 7675m | 2.9m/s | -30.8°C | 0% | 0hPa | 0V | 00:00:00 | 00:00:00 | 00:00:00 | |
| SQ6EMJ | 2026-09-05 16:06:09 | 51.26509 | 15.76188 | 121° | 173km/h | 7659m | 3.7m/s | -30.7°C | 0% | 0hPa | 0V | 00:00:00 | 00:00:00 | 00:00:00 | |
| SP6BVK | 2026-09-05 16:06:04 | 51.26595 | 15.75930 | 120° | 175km/h | 7647m | 4.0m/s | -30.6°C | 0% | 0hPa | 0V | 00:00:00 | 00:00:00 | 00:00:00 | |
| SQ6EMJ | 2026-09-05 16:05:57 | 51.26766 | 15.75415 | 118° | 183km/h | 7623m | 3.2m/s | -30.5°C | 0% | 0hPa | 0V | 00:00:00 | 00:00:00 | 00:00:00 | |
| OE3JTB-15 | 2026-09-05 16:05:55 | 51.26788 | 15.75358 | 119° | 177km/h | 7617m | 2.9m/s | 0°C | 0% | 0hPa | 0V | 00:00:00 | 00:00:00 | 00:00:00 | |
| SP3BTT-10 | 2026-09-05 16:05:53 | 51.26830 | 15.75227 | 116° | 173km/h | 7614m | 3.5m/s | 0°C | 0% | 0hPa | 0V | 00:00:00 | 00:00:00 | 00:00:00 | |
| SQ6EMJ | 2026-09-05 16:05:51 | 51.26891 | 15.75034 | 120° | 173km/h | 7604m | 3.5m/s | -30.2°C | 0% | 0hPa | 0V | 00:00:00 | 00:00:00 | 00:00:00 | |
| 13BRC | 2026-09-05 16:05:50 | 51.26891 | 15.75034 | 120° | 173km/h | 7604m | 3.5m/s | -30.2°C | 0% | 0hPa | 0V | 00:00:00 | 00:00:00 | 00:00:00 | |
| SQ6EMJ | 2026-09-05 16:05:44 | 51.27014 | 15.74647 | 118° | 181km/h | 7583m | 3.5m/s | -30.1°C | 0% | 0hPa | 0V | 00:00:00 | 00:00:00 | 00:00:00 | |
| SP6BVK | 2026-09-05 16:05:43 | 51.27036 | 15.74584 | 120° | 175km/h | 7580m | 2.6m/s | -30.1°C | 0% | 0hPa | 0V | 00:00:00 | 00:00:00 | 00:00:00 | |
| 13BRC | 2026-09-05 16:05:29 | 51.27313 | 15.73688 | 115° | 183km/h | 7534m | 2.5m/s | -29.7°C | 0% | 0hPa | 0V | 00:00:00 | 00:00:00 | 00:00:00 | |
| OE3JTB-15 | 2026-09-05 16:05:26 | 51.27373 | 15.73500 | 116° | 172km/h | 7520m | 2.4m/s | 0°C | 0% | 0hPa | 0V | 00:00:00 | 00:00:00 | 00:00:00 | |
| SP6BVK | 2026-09-05 16:05:23 | 51.27430 | 15.73310 | 119° | 168km/h | 7513m | 2.7m/s | -29.7°C | 0% | 0hPa | 0V | 00:00:00 | 00:00:00 | 00:00:00 | |
| SP3BTT-10 | 2026-09-05 16:05:08 | 51.27711 | 15.72374 | 117° | 170km/h | 7467m | 2.4m/s | 0°C | 0% | 0hPa | 0V | 00:00:00 | 00:00:00 | 00:00:00 | |
| SP6BVK | 2026-09-05 16:05:02 | 51.27824 | 15.71999 | 117° | 181km/h | 7448m | 2.7m/s | -29.3°C | 0% | 0hPa | 0V | 00:00:00 | 00:00:00 | 00:00:00 | |
| SQ6EMJ | 2026-09-05 16:04:59 | 51.27881 | 15.71813 | 116° | 170km/h | 7438m | 3.2m/s | -29.2°C | 0% | 0hPa | 0V | 00:00:00 | 00:00:00 | 00:00:00 | |
| OE3JTB-15 | 2026-09-05 16:04:57 | 51.27919 | 15.71686 | 117° | 172km/h | 7430m | 2.2m/s | 0°C | 0% | 0hPa | 0V | 00:00:00 | 00:00:00 | 00:00:00 | |
| SQ6EMJ | 2026-09-05 16:04:52 | 51.28033 | 15.71313 | 116° | 177km/h | 7415m | 3.7m/s | -29.1°C | 0% | 0hPa | 0V | 00:00:00 | 00:00:00 | 00:00:00 | |
| 13BRC | 2026-09-05 16:04:47 | 51.28109 | 15.71065 | 118° | 173km/h | 7401m | 2.9m/s | -29.0°C | 0% | 0hPa | 0V | 00:00:00 | 00:00:00 | 00:00:00 | |
| SQ6EMJ | 2026-09-05 16:04:45 | 51.28147 | 15.70936 | 117° | 172km/h | 7396m | 3.2m/s | -28.9°C | 0% | 0hPa | 0V | 00:00:00 | 00:00:00 | 00:00:00 | |
| SP6BVK | 2026-09-05 16:04:42 | 51.28203 | 15.70751 | 116° | 179km/h | 7387m | 2.5m/s | -28.9°C | 0% | 0hPa | 0V | 00:00:00 | 00:00:00 | 00:00:00 | |
| SQ6EMJ | 2026-09-05 16:04:40 | 51.28242 | 15.70626 | 119° | 166km/h | 7381m | 2.8m/s | -28.8°C | 0% | 0hPa | 0V | 00:00:00 | 00:00:00 | 00:00:00 | |
| SQ6EMJ | 2026-09-05 16:04:35 | 51.28358 | 15.70255 | 117° | 177km/h | 7363m | 2.3m/s | -28.8°C | 0% | 0hPa | 0V | 00:00:00 | 00:00:00 | 00:00:00 | |
| OE3JTB-15 | 2026-09-05 16:04:28 | 51.28471 | 15.69889 | 117° | 164km/h | 7342m | 3.9m/s | 0°C | 0% | 0hPa | 0V | 00:00:00 | 00:00:00 | 00:00:00 | |
| 13BRC | 2026-09-05 16:04:25 | 51.28526 | 15.69702 | 118° | 164km/h | 7336m | 3.3m/s | -28.6°C | 0% | 0hPa | 0V | 00:00:00 | 00:00:00 | 00:00:00 | |
| SP6BVK | 2026-09-05 16:04:22 | 51.28600 | 15.69459 | 118° | 164km/h | 7324m | 3.5m/s | -28.6°C | 0% | 0hPa | 0V | 00:00:00 | 00:00:00 | 00:00:00 | |
| SQ6EMJ | 2026-09-05 16:04:15 | 51.28708 | 15.69096 | 115° | 168km/h | 7305m | 3.7m/s | -28.6°C | 0% | 0hPa | 0V | 00:00:00 | 00:00:00 | 00:00:00 | |
| SQ6EMJ | 2026-09-05 16:04:10 | 51.28797 | 15.68794 | 115° | 170km/h | 7291m | 2.3m/s | -28.6°C | 0% | 0hPa | 0V | 00:00:00 | 00:00:00 | 00:00:00 | |
| SQ6EMJ | 2026-09-05 16:04:05 | 51.28900 | 15.68437 | 117° | 159km/h | 7273m | 2.8m/s | -28.6°C | 0% | 0hPa | 0V | 00:00:00 | 00:00:00 | 00:00:00 | |
| 13BRC | 2026-09-05 16:04:04 | 51.28900 | 15.68437 | 117° | 159km/h | 7273m | 2.8m/s | -28.6°C | 0% | 0hPa | 0V | 00:00:00 | 00:00:00 | 00:00:00 | |
| SP6BVK | 2026-09-05 16:04:01 | 51.28951 | 15.68256 | 117° | 161km/h | 7265m | 2.8m/s | -28.5°C | 0% | 0hPa | 0V | 00:00:00 | 00:00:00 | 00:00:00 | |
| OE3JTB-15 | 2026-09-05 16:03:59 | 51.28984 | 15.68136 | 113° | 159km/h | 7256m | 3.1m/s | 0°C | 0% | 0hPa | 0V | 00:00:00 | 00:00:00 | 00:00:00 | |
| SQ6EMJ | 2026-09-05 16:03:54 | 51.29081 | 15.67786 | 118° | 157km/h | 7241m | 2.8m/s | -28.6°C | 0% | 0hPa | 0V | 00:00:00 | 00:00:00 | 00:00:00 | |
| SP3BTT-10 | 2026-09-05 16:03:52 | 51.29098 | 15.67729 | 116° | 157km/h | 7234m | 2.7m/s | 0°C | 0% | 0hPa | 0V | 00:00:00 | 00:00:00 | 00:00:00 | |
| SQ6EMJ | 2026-09-05 16:03:48 | 51.29163 | 15.67493 | 115° | 159km/h | 7226m | 3.3m/s | -28.5°C | 0% | 0hPa | 0V | 00:00:00 | 00:00:00 | 00:00:00 | |
| SQ6EMJ | 2026-09-05 16:03:43 | 51.29256 | 15.67139 | 114° | 155km/h | 7208m | 3.4m/s | -28.5°C | 0% | 0hPa | 0V | 00:00:00 | 00:00:00 | 00:00:00 | |
| 13BRC | 2026-09-05 16:03:42 | 51.29256 | 15.67139 | 114° | 155km/h | 7208m | 3.4m/s | -28.5°C | 0% | 0hPa | 0V | 00:00:00 | 00:00:00 | 00:00:00 | |
| SP6BVK | 2026-09-05 16:03:40 | 51.29289 | 15.67025 | 115° | 161km/h | 7202m | 3.3m/s | -28.5°C | 0% | 0hPa | 0V | 00:00:00 | 00:00:00 | 00:00:00 | |
| SQ6EMJ | 2026-09-05 16:03:37 | 51.29351 | 15.66790 | 115° | 161km/h | 7191m | 3.1m/s | -28.4°C | 0% | 0hPa | 0V | 00:00:00 | 00:00:00 | 00:00:00 | |
| SQ6EMJ | 2026-09-05 16:03:32 | 51.29428 | 15.66495 | 113° | 162km/h | 7177m | 2.2m/s | -28.3°C | 0% | 0hPa | 0V | 00:00:00 | 00:00:00 | 00:00:00 | |
| OE3JTB-15 | 2026-09-05 16:03:30 | 51.29442 | 15.66436 | 112° | 155km/h | 7171m | 2.9m/s | 0°C | 0% | 0hPa | 0V | 00:00:00 | 00:00:00 | 00:00:00 | |
| SQ6EMJ | 2026-09-05 16:03:26 | 51.29516 | 15.66148 | 113° | 151km/h | 7159m | 2.8m/s | -28.3°C | 0% | 0hPa | 0V | 00:00:00 | 00:00:00 | 00:00:00 | |
| SP3BTT-10 | 2026-09-05 16:03:22 | 51.29560 | 15.65970 | 111° | 151km/h | 7150m | 2.7m/s | 0°C | 0% | 0hPa | 0V | 00:00:00 | 00:00:00 | 00:00:00 | |
| 13BRC | 2026-09-05 16:03:21 | 51.29573 | 15.65914 | 113° | 153km/h | 7147m | 3.2m/s | -28.4°C | 0% | 0hPa | 0V | 00:00:00 | 00:00:00 | 00:00:00 | |
| SP6BVK | 2026-09-05 16:03:20 | 51.29589 | 15.65855 | 115° | 162km/h | 7145m | 2.8m/s | -28.4°C | 0% | 0hPa | 0V | 00:00:00 | 00:00:00 | 00:00:00 | |
| SQ6EMJ | 2026-09-05 16:03:19 | 51.29605 | 15.65796 | 115° | 157km/h | 7141m | 3.1m/s | -28.4°C | 0% | 0hPa | 0V | 00:00:00 | 00:00:00 | 00:00:00 | |
| SQ6EMJ | 2026-09-05 16:03:14 | 51.29680 | 15.65506 | 114° | 155km/h | 7127m | 2.6m/s | -28.4°C | 0% | 0hPa | 0V | 00:00:00 | 00:00:00 | 00:00:00 | |
| SQ6EMJ | 2026-09-05 16:03:09 | 51.29770 | 15.65161 | 113° | 159km/h | 7110m | 2.8m/s | -28.3°C | 0% | 0hPa | 0V | 00:00:00 | 00:00:00 | 00:00:00 | |
| SQ6EMJ | 2026-09-05 16:03:04 | 51.29847 | 15.64879 | 113° | 148km/h | 7096m | 2.5m/s | -28.2°C | 0% | 0hPa | 0V | 00:00:00 | 00:00:00 | 00:00:00 | |
| OE3JTB-15 | 2026-09-05 16:03:01 | 51.29877 | 15.64763 | 116° | 150km/h | 7087m | 3.3m/s | 0°C | 0% | 0hPa | 0V | 00:00:00 | 00:00:00 | 00:00:00 | |
| SP6BVK | 2026-09-05 16:02:59 | 51.29908 | 15.64653 | 114° | 144km/h | 7084m | 2.5m/s | -28.2°C | 0% | 0hPa | 0V | 00:00:00 | 00:00:00 | 00:00:00 | |
| SQ6EMJ | 2026-09-05 16:02:58 | 51.29939 | 15.64540 | 116° | 161km/h | 7079m | 2.1m/s | -28.2°C | 0% | 0hPa | 0V | 00:00:00 | 00:00:00 | 00:00:00 | |
| SQ6EMJ | 2026-09-05 16:02:52 | 51.30020 | 15.64261 | 116° | 153km/h | 7065m | 2.9m/s | -28.2°C | 0% | 0hPa | 0V | 00:00:00 | 00:00:00 | 00:00:00 | |
| SQ6EMJ | 2026-09-05 16:02:47 | 51.30116 | 15.63933 | 115° | 151km/h | 7049m | 2.7m/s | -28.0°C | 0% | 0hPa | 0V | 00:00:00 | 00:00:00 | 00:00:00 | |
| SQ6EMJ | 2026-09-05 16:02:41 | 51.30197 | 15.63658 | 115° | 155km/h | 7035m | 2.1m/s | -27.9°C | 0% | 0hPa | 0V | 00:00:00 | 00:00:00 | 00:00:00 | |
| 13BRC | 2026-09-05 16:02:40 | 51.30228 | 15.63552 | 117° | 139km/h | 7030m | 2.4m/s | -27.9°C | 0% | 0hPa | 0V | 00:00:00 | 00:00:00 | 00:00:00 | |
| SP6BVK | 2026-09-05 16:02:38 | 51.30245 | 15.63499 | 116° | 153km/h | 7027m | 3.3m/s | -27.9°C | 0% | 0hPa | 0V | 00:00:00 | 00:00:00 | 00:00:00 | |
| SP3BTT-10 | 2026-09-05 16:02:37 | 51.30262 | 15.63442 | 115° | 146km/h | 7024m | 2.0m/s | 0°C | 0% | 0hPa | 0V | 00:00:00 | 00:00:00 | 00:00:00 | |
| SQ6EMJ | 2026-09-05 16:02:35 | 51.30293 | 15.63334 | 116° | 137km/h | 7019m | 2.7m/s | -27.9°C | 0% | 0hPa | 0V | 00:00:00 | 00:00:00 | 00:00:00 | |
| OE3JTB-15 | 2026-09-05 16:02:32 | 51.30340 | 15.63170 | 117° | 146km/h | 7008m | 2.2m/s | 0°C | 0% | 0hPa | 0V | 00:00:00 | 00:00:00 | 00:00:00 | |
| SQ6EMJ | 2026-09-05 16:02:30 | 51.30387 | 15.63010 | 114° | 155km/h | 7003m | 2.1m/s | -27.7°C | 0% | 0hPa | 0V | 00:00:00 | 00:00:00 | 00:00:00 | |
| SQ6EMJ | 2026-09-05 16:02:24 | 51.30465 | 15.62741 | 116° | 148km/h | 6989m | 3.0m/s | -27.6°C | 0% | 0hPa | 0V | 00:00:00 | 00:00:00 | 00:00:00 | |
| SQ6EMJ | 2026-09-05 16:02:19 | 51.30557 | 15.62417 | 113° | 146km/h | 6974m | 2.6m/s | -27.5°C | 0% | 0hPa | 0V | 00:00:00 | 00:00:00 | 00:00:00 | |
| SP6BVK | 2026-09-05 16:02:18 | 51.30557 | 15.62417 | 113° | 146km/h | 6974m | 2.6m/s | -27.5°C | 0% | 0hPa | 0V | 00:00:00 | 00:00:00 | 00:00:00 | |
| 13BRC | 2026-09-05 16:02:11 | 51.30662 | 15.62043 | 117° | 142km/h | 6955m | 3.0m/s | -27.3°C | 0% | 0hPa | 0V | 00:00:00 | 00:00:00 | 00:00:00 | |
| OE3JTB-15 | 2026-09-05 16:02:03 | 51.30782 | 15.61614 | 114° | 144km/h | 6931m | 2.4m/s | 0°C | 0% | 0hPa | 0V | 00:00:00 | 00:00:00 | 00:00:00 | |
| SP6BVK | 2026-09-05 16:01:57 | 51.30870 | 15.61291 | 118° | 141km/h | 6917m | 2.7m/s | -27.1°C | 0% | 0hPa | 0V | 00:00:00 | 00:00:00 | 00:00:00 | |
| SP3BTT-10 | 2026-09-05 16:01:52 | 51.30942 | 15.61027 | 115° | 142km/h | 6903m | 2.5m/s | 0°C | 0% | 0hPa | 0V | 00:00:00 | 00:00:00 | 00:00:00 | |
| 13BRC | 2026-09-05 16:01:49 | 51.30999 | 15.60812 | 114° | 146km/h | 6893m | 2.9m/s | -26.9°C | 0% | 0hPa | 0V | 00:00:00 | 00:00:00 | 00:00:00 | |
| SQ6EMJ | 2026-09-05 16:01:39 | 51.31157 | 15.60233 | 116° | 135km/h | 6863m | 2.8m/s | -26.7°C | 0% | 0hPa | 0V | 00:00:00 | 00:00:00 | 00:00:00 | |
| SP6BVK | 2026-09-05 16:01:37 | 51.31157 | 15.60233 | 116° | 135km/h | 6863m | 2.8m/s | -26.7°C | 0% | 0hPa | 0V | 00:00:00 | 00:00:00 | 00:00:00 | |
| OE3JTB-15 | 2026-09-05 16:01:34 | 51.31200 | 15.60075 | 114° | 142km/h | 6853m | 2.5m/s | 0°C | 0% | 0hPa | 0V | 00:00:00 | 00:00:00 | 00:00:00 | |
| SQ6EMJ | 2026-09-05 16:01:31 | 51.31258 | 15.59864 | 116° | 137km/h | 6844m | 3.1m/s | -26.6°C | 0% | 0hPa | 0V | 00:00:00 | 00:00:00 | 00:00:00 | |
| 13BRC | 2026-09-05 16:01:25 | 51.31332 | 15.59603 | 115° | 137km/h | 6830m | 2.7m/s | -26.5°C | 0% | 0hPa | 0V | 00:00:00 | 00:00:00 | 00:00:00 | |
| SQ6EMJ | 2026-09-05 16:01:21 | 51.31406 | 15.59338 | 113° | 150km/h | 6817m | 2.0m/s | -26.4°C | 0% | 0hPa | 0V | 00:00:00 | 00:00:00 | 00:00:00 | |
| SP6BVK | 2026-09-05 16:01:16 | 51.31464 | 15.59127 | 114° | 150km/h | 6806m | 2.4m/s | -26.3°C | 0% | 0hPa | 0V | 00:00:00 | 00:00:00 | 00:00:00 | |
| SQ6EMJ | 2026-09-05 16:01:14 | 51.31493 | 15.59021 | 115° | 139km/h | 6801m | 1.9m/s | -26.2°C | 0% | 0hPa | 0V | 00:00:00 | 00:00:00 | 00:00:00 | |
| SQ6EMJ | 2026-09-05 16:01:10 | 51.31566 | 15.58757 | 115° | 150km/h | 6788m | 2.4m/s | -26.1°C | 0% | 0hPa | 0V | 00:00:00 | 00:00:00 | 00:00:00 | |
| SP3BTT-10 | 2026-09-05 16:01:07 | 51.31596 | 15.58651 | 115° | 144km/h | 6780m | 2.9m/s | 0°C | 0% | 0hPa | 0V | 00:00:00 | 00:00:00 | 00:00:00 | |
| OE3JTB-15 | 2026-09-05 16:01:05 | 51.31626 | 15.58545 | 114° | 144km/h | 6774m | 2.8m/s | 0°C | 0% | 0hPa | 0V | 00:00:00 | 00:00:00 | 00:00:00 | |
| SQ6EMJ | 2026-09-05 16:01:04 | 51.31656 | 15.58440 | 116° | 137km/h | 6772m | 2.4m/s | -26.1°C | 0% | 0hPa | 0V | 00:00:00 | 00:00:00 | 00:00:00 | |
| EDDB2-12 | 2026-09-05 16:01:02 | 51.31685 | 15.58334 | 114° | 150km/h | 6767m | 2.0m/s | -25.6°C | -1.0% | -1.0hPa | 0V | 00:00:00 | 00:00:00 | 00:00:00 | |
| SQ6EMJ | 2026-09-05 16:00:58 | 51.31730 | 15.58178 | 114° | 142km/h | 6760m | 3.3m/s | -26.0°C | 0% | 0hPa | 0V | 00:00:00 | 00:00:00 | 00:00:00 | |
| SP6BVK | 2026-09-05 16:00:56 | 51.31760 | 15.58067 | 115° | 146km/h | 6755m | 3.0m/s | -25.9°C | 0% | 0hPa | 0V | 00:00:00 | 00:00:00 | 00:00:00 | |
| SQ6EMJ | 2026-09-05 16:00:53 | 51.31820 | 15.57858 | 114° | 150km/h | 6744m | 2.5m/s | -25.8°C | 0% | 0hPa | 0V | 00:00:00 | 00:00:00 | 00:00:00 | |
| SQ6EMJ | 2026-09-05 16:00:46 | 51.31910 | 15.57544 | 116° | 139km/h | 6727m | 2.8m/s | -25.7°C | 0% | 0hPa | 0V | 00:00:00 | 00:00:00 | 00:00:00 | |
| 13BRC | 2026-09-05 16:00:44 | 51.31940 | 15.57437 | 114° | 146km/h | 6717m | 2.5m/s | -25.6°C | 0% | 0hPa | 0V | 00:00:00 | 00:00:00 | 00:00:00 | |
| SQ6EMJ | 2026-09-05 16:00:41 | 51.31985 | 15.57280 | 114° | 150km/h | 6715m | 2.7m/s | -25.5°C | 0% | 0hPa | 0V | 00:00:00 | 00:00:00 | 00:00:00 | |
| SQ6EMJ | 2026-09-05 16:00:36 | 51.32075 | 15.56961 | 115° | 135km/h | 6699m | 2.6m/s | -25.4°C | 0% | 0hPa | 0V | 00:00:00 | 00:00:00 | 00:00:00 | |
| SP6BVK | 2026-09-05 16:00:35 | 51.32075 | 15.56961 | 115° | 135km/h | 6699m | 2.6m/s | -25.4°C | 0% | 0hPa | 0V | 00:00:00 | 00:00:00 | 00:00:00 | |
| SQ6EMJ | 2026-09-05 16:00:30 | 51.32148 | 15.56697 | 116° | 141km/h | 6685m | 2.6m/s | -25.3°C | 0% | 0hPa | 0V | 00:00:00 | 00:00:00 | 00:00:00 | |
| SQ6EMJ | 2026-09-05 16:00:25 | 51.32238 | 15.56376 | 115° | 146km/h | 6668m | 3.0m/s | -25.2°C | 0% | 0hPa | 0V | 00:00:00 | 00:00:00 | 00:00:00 | |
| SP3BTT-10 | 2026-09-05 16:00:22 | 51.32265 | 15.56271 | 113° | 144km/h | 6660m | 2.6m/s | 0°C | 0% | 0hPa | 0V | 00:00:00 | 00:00:00 | 00:00:00 | |
| SQ6EMJ | 2026-09-05 16:00:19 | 51.32323 | 15.56056 | 115° | 148km/h | 6652m | 2.3m/s | -25.1°C | 0% | 0hPa | 0V | 00:00:00 | 00:00:00 | 00:00:00 | |
| SP6BVK | 2026-09-05 16:00:15 | 51.32365 | 15.55899 | 115° | 142km/h | 6644m | 3.0m/s | -25.0°C | 0% | 0hPa | 0V | 00:00:00 | 00:00:00 | 00:00:00 | |
| SQ6EMJ | 2026-09-05 16:00:13 | 51.32396 | 15.55789 | 115° | 146km/h | 6639m | 2.7m/s | -25.0°C | 0% | 0hPa | 0V | 00:00:00 | 00:00:00 | 00:00:00 | |
| OE3JTB-15 | 2026-09-05 16:00:07 | 51.32481 | 15.55472 | 113° | 144km/h | 6621m | 2.3m/s | 0°C | 0% | 0hPa | 0V | 00:00:00 | 00:00:00 | 00:00:00 | |
| SQ6EMJ | 2026-09-05 16:00:02 | 51.32569 | 15.55151 | 114° | 139km/h | 6607m | 2.6m/s | -24.8°C | 0% | 0hPa | 0V | 00:00:00 | 00:00:00 | 00:00:00 | |
| SP6BVK | 2026-09-05 15:59:54 | 51.32671 | 15.54779 | 115° | 146km/h | 6588m | 2.8m/s | -24.7°C | 0% | 0hPa | 0V | 00:00:00 | 00:00:00 | 00:00:00 | |
| SP3BTT-10 | 2026-09-05 15:59:52 | 51.32699 | 15.54674 | 113° | 144km/h | 6579m | 2.2m/s | 0°C | 0% | 0hPa | 0V | 00:00:00 | 00:00:00 | 00:00:00 | |
| SQ6EMJ | 2026-09-05 15:59:46 | 51.32785 | 15.54353 | 114° | 142km/h | 6566m | 3.3m/s | -24.5°C | 0% | 0hPa | 0V | 00:00:00 | 00:00:00 | 00:00:00 | |
| 13BRC | 2026-09-05 15:59:41 | 51.32856 | 15.54088 | 112° | 137km/h | 6552m | 2.4m/s | -24.4°C | 0% | 0hPa | 0V | 00:00:00 | 00:00:00 | 00:00:00 | |
| SQ6EMJ | 2026-09-05 15:59:40 | 51.32869 | 15.54035 | 115° | 144km/h | 6549m | 3.2m/s | -24.4°C | 0% | 0hPa | 0V | 00:00:00 | 00:00:00 | 00:00:00 | |
| OE3JTB-15 | 2026-09-05 15:59:38 | 51.32901 | 15.53927 | 111° | 144km/h | 6541m | 2.3m/s | 0°C | 0% | 0hPa | 0V | 00:00:00 | 00:00:00 | 00:00:00 | |
| SP6BVK | 2026-09-05 15:59:34 | 51.32957 | 15.53714 | 114° | 142km/h | 6533m | 3.3m/s | -24.2°C | 0% | 0hPa | 0V | 00:00:00 | 00:00:00 | 00:00:00 | |
| SQ6EMJ | 2026-09-05 15:59:33 | 51.32970 | 15.53661 | 112° | 139km/h | 6530m | 2.5m/s | -24.2°C | 0% | 0hPa | 0V | 00:00:00 | 00:00:00 | 00:00:00 | |
| SP3BTT-10 | 2026-09-05 15:59:22 | 51.33125 | 15.53071 | 113° | 144km/h | 6496m | 3.1m/s | 0°C | 0% | 0hPa | 0V | 00:00:00 | 00:00:00 | 00:00:00 | |
| 13BRC | 2026-09-05 15:59:20 | 51.33152 | 15.52965 | 113° | 151km/h | 6493m | 2.8m/s | -23.9°C | 0% | 0hPa | 0V | 00:00:00 | 00:00:00 | 00:00:00 | |
| SP6BVK | 2026-09-05 15:59:13 | 51.33247 | 15.52590 | 113° | 141km/h | 6473m | 3.2m/s | -23.6°C | 0% | 0hPa | 0V | 00:00:00 | 00:00:00 | 00:00:00 | |
| OE3JTB-15 | 2026-09-05 15:59:09 | 51.33302 | 15.52375 | 111° | 144km/h | 6458m | 2.3m/s | 0°C | 0% | 0hPa | 0V | 00:00:00 | 00:00:00 | 00:00:00 | |
| EDDB2-11 | 2026-09-05 15:59:05 | 51.33368 | 15.52101 | 110° | 150km/h | 6446m | 3.0m/s | -23.0°C | -1.0% | -1.0hPa | 0V | 00:00:00 | 00:00:00 | 00:00:00 | |
| SONDE2-11 | 2026-09-05 15:59:04 | 51.33381 | 15.52047 | 112° | 139km/h | 6443m | 3.3m/s | -23.0°C | -1.0% | -1.0hPa | 0V | 00:00:00 | 00:00:00 | 00:00:00 | |
| 13BRC | 2026-09-05 15:58:58 | 51.33447 | 15.51777 | 112° | 142km/h | 6428m | 3.3m/s | -23.3°C | 0% | 0hPa | 0V | 00:00:00 | 00:00:00 | 00:00:00 | |
| SP6BVK | 2026-09-05 15:58:53 | 51.33512 | 15.51502 | 111° | 150km/h | 6413m | 2.6m/s | -23.3°C | 0% | 0hPa | 0V | 00:00:00 | 00:00:00 | 00:00:00 | |
| SP3BTT-10 | 2026-09-05 15:58:52 | 51.33525 | 15.51447 | 110° | 144km/h | 6407m | 2.8m/s | 0°C | 0% | 0hPa | 0V | 00:00:00 | 00:00:00 | 00:00:00 | |
| OE3JTB-15 | 2026-09-05 15:58:40 | 51.33683 | 15.50797 | 112° | 142km/h | 6370m | 3.1m/s | 0°C | 0% | 0hPa | 0V | 00:00:00 | 00:00:00 | 00:00:00 | |
| SQ6EMJ | 2026-09-05 15:58:37 | 51.33735 | 15.50575 | 112° | 141km/h | 6360m | 2.7m/s | -23.0°C | 0% | 0hPa | 0V | 00:00:00 | 00:00:00 | 00:00:00 | |
| 13BRC | 2026-09-05 15:58:32 | 51.33788 | 15.50358 | 111° | 139km/h | 6348m | 2.5m/s | -22.9°C | 0% | 0hPa | 0V | 00:00:00 | 00:00:00 | 00:00:00 | |
| SQ6EMJ | 2026-09-05 15:58:25 | 51.33878 | 15.49975 | 112° | 137km/h | 6327m | 3.0m/s | -22.9°C | 0% | 0hPa | 0V | 00:00:00 | 00:00:00 | 00:00:00 | |
| SP3BTT-10 | 2026-09-05 15:58:22 | 51.33917 | 15.49814 | 111° | 141km/h | 6314m | 2.7m/s | 0°C | 0% | 0hPa | 0V | 00:00:00 | 00:00:00 | 00:00:00 | |
| SP6BVK | 2026-09-05 15:58:12 | 51.34043 | 15.49285 | 114° | 141km/h | 6287m | 3.2m/s | -22.7°C | 0% | 0hPa | 0V | 00:00:00 | 00:00:00 | 00:00:00 | |
| OE3JTB-15 | 2026-09-05 15:58:11 | 51.34056 | 15.49232 | 113° | 139km/h | 6281m | 2.7m/s | 0°C | 0% | 0hPa | 0V | 00:00:00 | 00:00:00 | 00:00:00 | |
| 13BRC | 2026-09-05 15:57:52 | 51.34304 | 15.48168 | 111° | 139km/h | 6224m | 3.0m/s | -22.4°C | 0% | 0hPa | 0V | 00:00:00 | 00:00:00 | 00:00:00 | |
| OE3JTB-15 | 2026-09-05 15:57:42 | 51.34414 | 15.47703 | 112° | 135km/h | 6193m | 2.7m/s | 0°C | 0% | 0hPa | 0V | 00:00:00 | 00:00:00 | 00:00:00 | |
| SP6BVK | 2026-09-05 15:57:31 | 51.34553 | 15.47140 | 114° | 126km/h | 6162m | 2.6m/s | -22.0°C | 0% | 0hPa | 0V | 00:00:00 | 00:00:00 | 00:00:00 | |
| 13BRC | 2026-09-05 15:57:30 | 51.34564 | 15.47092 | 111° | 133km/h | 6159m | 3.4m/s | -22.0°C | 0% | 0hPa | 0V | 00:00:00 | 00:00:00 | 00:00:00 | |
| SP3BTT-10 | 2026-09-05 15:57:22 | 51.34667 | 15.46688 | 113° | 131km/h | 6132m | 3.0m/s | 0°C | 0% | 0hPa | 0V | 00:00:00 | 00:00:00 | 00:00:00 | |
| OE3JTB-15 | 2026-09-05 15:57:13 | 51.34784 | 15.46239 | 113° | 133km/h | 6106m | 3.1m/s | 0°C | 0% | 0hPa | 0V | 00:00:00 | 00:00:00 | 00:00:00 | |
| SP6BVK | 2026-09-05 15:57:11 | 51.34823 | 15.46090 | 115° | 133km/h | 6100m | 3.1m/s | -21.5°C | 0% | 0hPa | 0V | 00:00:00 | 00:00:00 | 00:00:00 | |
| 13BRC | 2026-09-05 15:57:06 | 51.34875 | 15.45891 | 114° | 139km/h | 6089m | 2.5m/s | -21.4°C | 0% | 0hPa | 0V | 00:00:00 | 00:00:00 | 00:00:00 | |
| SP6BVK | 2026-09-05 15:56:49 | 51.35099 | 15.45053 | 113° | 128km/h | 6042m | 2.6m/s | -21.0°C | 0% | 0hPa | 0V | 00:00:00 | 00:00:00 | 00:00:00 | |
| 13BRC | 2026-09-05 15:56:46 | 51.35140 | 15.44905 | 116° | 137km/h | 6034m | 2.0m/s | -20.9°C | 0% | 0hPa | 0V | 00:00:00 | 00:00:00 | 00:00:00 | |
| OE3JTB-15 | 2026-09-05 15:56:44 | 51.35166 | 15.44813 | 114° | 131km/h | 6025m | 2.7m/s | 0°C | 0% | 0hPa | 0V | 00:00:00 | 00:00:00 | 00:00:00 | |
| SP3BTT-10 | 2026-09-05 15:56:37 | 51.35260 | 15.44468 | 116° | 128km/h | 6009m | 2.8m/s | 0°C | 0% | 0hPa | 0V | 00:00:00 | 00:00:00 | 00:00:00 | |
| SP6BVK | 2026-09-05 15:56:29 | 51.35366 | 15.44081 | 113° | 122km/h | 5987m | 2.7m/s | -20.6°C | 0% | 0hPa | 0V | 00:00:00 | 00:00:00 | 00:00:00 | |
| 13BRC | 2026-09-05 15:56:25 | 51.35418 | 15.43890 | 115° | 126km/h | 5976m | 2.9m/s | -20.5°C | 0% | 0hPa | 0V | 00:00:00 | 00:00:00 | 00:00:00 | |
| OE3JTB-15 | 2026-09-05 15:56:15 | 51.35550 | 15.43406 | 114° | 128km/h | 5946m | 3.8m/s | 0°C | 0% | 0hPa | 0V | 00:00:00 | 00:00:00 | 00:00:00 | |
| SP6BVK | 2026-09-05 15:56:08 | 51.35641 | 15.43076 | 116° | 128km/h | 5929m | 2.7m/s | -20.2°C | 0% | 0hPa | 0V | 00:00:00 | 00:00:00 | 00:00:00 | |
| 13BRC | 2026-09-05 15:56:04 | 51.35694 | 15.42886 | 116° | 130km/h | 5919m | 3.1m/s | -20.2°C | 0% | 0hPa | 0V | 00:00:00 | 00:00:00 | 00:00:00 | |
| SP3BTT-10 | 2026-09-05 15:55:52 | 51.35849 | 15.42317 | 114° | 122km/h | 5886m | 2.7m/s | 0°C | 0% | 0hPa | 0V | 00:00:00 | 00:00:00 | 00:00:00 | |
| SP6BVK | 2026-09-05 15:55:48 | 51.35899 | 15.42129 | 116° | 131km/h | 5876m | 2.8m/s | -20.1°C | 0% | 0hPa | 0V | 00:00:00 | 00:00:00 | 00:00:00 | |
| 13BRC | 2026-09-05 15:55:43 | 51.35963 | 15.41898 | 115° | 128km/h | 5862m | 3.0m/s | -20.1°C | 0% | 0hPa | 0V | 00:00:00 | 00:00:00 | 00:00:00 | |
| SP6BVK | 2026-09-05 15:55:27 | 51.36168 | 15.41168 | 115° | 120km/h | 5817m | 3.2m/s | -19.8°C | 0% | 0hPa | 0V | 00:00:00 | 00:00:00 | 00:00:00 | |
| SP3BTT-10 | 2026-09-05 15:55:22 | 51.36233 | 15.40947 | 117° | 119km/h | 5800m | 2.4m/s | 0°C | 0% | 0hPa | 0V | 00:00:00 | 00:00:00 | 00:00:00 | |
| SP6BVK | 2026-09-05 15:55:07 | 51.36430 | 15.40288 | 114° | 115km/h | 5762m | 2.5m/s | -19.4°C | 0% | 0hPa | 0V | 00:00:00 | 00:00:00 | 00:00:00 | |
| SP6BVK | 2026-09-05 15:54:46 | 51.36700 | 15.39377 | 118° | 120km/h | 5706m | 2.7m/s | -19.3°C | 0% | 0hPa | 0V | 00:00:00 | 00:00:00 | 00:00:00 | |
| 13BRC | 2026-09-05 15:54:40 | 51.36774 | 15.39117 | 114° | 117km/h | 5688m | 3.0m/s | -19.1°C | 0% | 0hPa | 0V | 00:00:00 | 00:00:00 | 00:00:00 | |
| SP6BVK | 2026-09-05 15:54:26 | 51.36945 | 15.38515 | 113° | 115km/h | 5649m | 3.1m/s | -19.0°C | 0% | 0hPa | 0V | 00:00:00 | 00:00:00 | 00:00:00 | |
| 13BRC | 2026-09-05 15:54:19 | 51.37027 | 15.38214 | 114° | 117km/h | 5630m | 3.1m/s | -18.9°C | 0% | 0hPa | 0V | 00:00:00 | 00:00:00 | 00:00:00 | |
| SP3BTT-10 | 2026-09-05 15:54:07 | 51.37165 | 15.37699 | 112° | 111km/h | 5592m | 3.0m/s | 0°C | 0% | 0hPa | 0V | 00:00:00 | 00:00:00 | 00:00:00 | |
| SP6BVK | 2026-09-05 15:54:05 | 51.37188 | 15.37612 | 116° | 122km/h | 5590m | 2.0m/s | -18.7°C | 0% | 0hPa | 0V | 00:00:00 | 00:00:00 | 00:00:00 | |
| 13BRC | 2026-09-05 15:53:58 | 51.37268 | 15.37319 | 114° | 117km/h | 5571m | 2.8m/s | -18.6°C | 0% | 0hPa | 0V | 00:00:00 | 00:00:00 | 00:00:00 | |
| SP6BVK | 2026-09-05 15:53:45 | 51.37412 | 15.36777 | 113° | 115km/h | 5534m | 3.4m/s | -18.5°C | 0% | 0hPa | 0V | 00:00:00 | 00:00:00 | 00:00:00 | |
| 13BRC | 2026-09-05 15:53:37 | 51.37502 | 15.36449 | 115° | 108km/h | 5512m | 3.0m/s | -18.6°C | 0% | 0hPa | 0V | 00:00:00 | 00:00:00 | 00:00:00 | |
| SP3BTT-10 | 2026-09-05 15:53:36 | 51.37513 | 15.36414 | 113° | 110km/h | 5504m | 2.4m/s | 0°C | 0% | 0hPa | 0V | 00:00:00 | 00:00:00 | 00:00:00 | |
| SP6BVK | 2026-09-05 15:53:25 | 51.37645 | 15.35931 | 115° | 108km/h | 5477m | 2.7m/s | -18.5°C | 0% | 0hPa | 0V | 00:00:00 | 00:00:00 | 00:00:00 | |
| 13BRC | 2026-09-05 15:53:17 | 51.37724 | 15.35650 | 117° | 108km/h | 5458m | 2.5m/s | -18.4°C | 0% | 0hPa | 0V | 00:00:00 | 00:00:00 | 00:00:00 | |
| SP3BTT-10 | 2026-09-05 15:53:06 | 51.37846 | 15.35205 | 113° | 110km/h | 5431m | 2.1m/s | 0°C | 0% | 0hPa | 0V | 00:00:00 | 00:00:00 | 00:00:00 | |
| SP6BVK | 2026-09-05 15:53:04 | 51.37868 | 15.35120 | 115° | 113km/h | 5425m | 2.5m/s | -18.1°C | 0% | 0hPa | 0V | 00:00:00 | 00:00:00 | 00:00:00 | |
| 13BRC | 2026-09-05 15:52:56 | 51.37958 | 15.34794 | 114° | 110km/h | 5405m | 2.9m/s | -17.9°C | 0% | 0hPa | 0V | 00:00:00 | 00:00:00 | 00:00:00 | |
| SP6BVK | 2026-09-05 15:52:44 | 51.38103 | 15.34267 | 115° | 104km/h | 5374m | 2.1m/s | -17.8°C | 0% | 0hPa | 0V | 00:00:00 | 00:00:00 | 00:00:00 | |
| SP3BTT-10 | 2026-09-05 15:52:36 | 51.38181 | 15.33984 | 115° | 104km/h | 5351m | 2.1m/s | 0°C | 0% | 0hPa | 0V | 00:00:00 | 00:00:00 | 00:00:00 | |
| SP6BVK | 2026-09-05 15:52:23 | 51.38324 | 15.33474 | 118° | 102km/h | 5324m | 2.7m/s | -18.1°C | 0% | 0hPa | 0V | 00:00:00 | 00:00:00 | 00:00:00 | |
| 13BRC | 2026-09-05 15:52:15 | 51.38409 | 15.33171 | 115° | 106km/h | 5305m | 2.8m/s | -18.0°C | 0% | 0hPa | 0V | 00:00:00 | 00:00:00 | 00:00:00 | |
| SP3BTT-10 | 2026-09-05 15:52:06 | 51.38505 | 15.32834 | 114° | 95km/h | 5284m | 1.9m/s | 0°C | 0% | 0hPa | 0V | 00:00:00 | 00:00:00 | 00:00:00 | |
| SP6BVK | 2026-09-05 15:52:03 | 51.38549 | 15.32686 | 114° | 100km/h | 5275m | 2.5m/s | -17.9°C | 0% | 0hPa | 0V | 00:00:00 | 00:00:00 | 00:00:00 | |
| 13BRC | 2026-09-05 15:51:54 | 51.38632 | 15.32395 | 119° | 99km/h | 5255m | 2.8m/s | -17.9°C | 0% | 0hPa | 0V | 00:00:00 | 00:00:00 | 00:00:00 | |
| SP6BVK | 2026-09-05 15:51:41 | 51.38760 | 15.31936 | 114° | 93km/h | 5222m | 2.5m/s | -17.8°C | 0% | 0hPa | 0V | 00:00:00 | 00:00:00 | 00:00:00 | |
| 13BRC | 2026-09-05 15:51:33 | 51.38836 | 15.31656 | 110° | 89km/h | 5204m | 2.0m/s | -17.8°C | 0% | 0hPa | 0V | 00:00:00 | 00:00:00 | 00:00:00 | |
| SP3BTT-10 | 2026-09-05 15:51:21 | 51.38947 | 15.31240 | 113° | 88km/h | 5173m | 2.7m/s | 0°C | 0% | 0hPa | 0V | 00:00:00 | 00:00:00 | 00:00:00 | |
| SONDE2-11 | 2026-09-05 15:51:19 | 51.38974 | 15.31139 | 106° | 91km/h | 5166m | 2.0m/s | -17.3°C | -1.0% | -1.0hPa | 0V | 00:00:00 | 00:00:00 | 00:00:00 | |
| EDDB2-12 | 2026-09-05 15:51:12 | 51.39031 | 15.30903 | 109° | 88km/h | 5148m | 2.2m/s | -17.2°C | -1.0% | -1.0hPa | 0V | 00:00:00 | 00:00:00 | 00:00:00 | |
| SP6BVK | 2026-09-05 15:51:00 | 51.39119 | 15.30534 | 114° | 86km/h | 5121m | 2.8m/s | -17.5°C | 0% | 0hPa | 0V | 00:00:00 | 00:00:00 | 00:00:00 | |
| 13BRC | 2026-09-05 15:50:51 | 51.39188 | 15.30230 | 109° | 97km/h | 5098m | 2.1m/s | -17.3°C | 0% | 0hPa | 0V | 00:00:00 | 00:00:00 | 00:00:00 | |
| SP6BVK | 2026-09-05 15:50:40 | 51.39268 | 15.29861 | 109° | 95km/h | 5072m | 2.9m/s | -17.1°C | 0% | 0hPa | 0V | 00:00:00 | 00:00:00 | 00:00:00 | |
| SP3BTT-10 | 2026-09-05 15:50:37 | 51.39290 | 15.29761 | 109° | 88km/h | 5062m | 2.7m/s | 0°C | 0% | 0hPa | 0V | 00:00:00 | 00:00:00 | 00:00:00 | |
| 13BRC | 2026-09-05 15:50:31 | 51.39334 | 15.29558 | 110° | 88km/h | 5047m | 2.9m/s | -16.8°C | 0% | 0hPa | 0V | 00:00:00 | 00:00:00 | 00:00:00 | |
| SP6BVK | 2026-09-05 15:50:19 | 51.39422 | 15.29152 | 106° | 89km/h | 5018m | 2.3m/s | -16.5°C | 0% | 0hPa | 0V | 00:00:00 | 00:00:00 | 00:00:00 | |
| 13BRC | 2026-09-05 15:50:11 | 51.39488 | 15.28849 | 111° | 86km/h | 4996m | 2.2m/s | -16.3°C | 0% | 0hPa | 0V | 00:00:00 | 00:00:00 | 00:00:00 | |
| EDDB2-12 | 2026-09-05 15:50:10 | 51.39496 | 15.28814 | 109° | 99km/h | 4994m | 1.6m/s | -15.8°C | -1.0% | -1.0hPa | 0V | 00:00:00 | 00:00:00 | 00:00:00 | |
| SP6BVK | 2026-09-05 15:49:59 | 51.39571 | 15.28482 | 106° | 82km/h | 4970m | 2.5m/s | -16.1°C | 0% | 0hPa | 0V | 00:00:00 | 00:00:00 | 00:00:00 | |
| SP3BTT-10 | 2026-09-05 15:49:52 | 51.39622 | 15.28245 | 108° | 88km/h | 4951m | 2.9m/s | 0°C | 0% | 0hPa | 0V | 00:00:00 | 00:00:00 | 00:00:00 | |
| 13BRC | 2026-09-05 15:49:49 | 51.39645 | 15.28146 | 113° | 93km/h | 4944m | 2.1m/s | -15.8°C | 0% | 0hPa | 0V | 00:00:00 | 00:00:00 | 00:00:00 | |
| DAC517 | 2026-09-05 15:49:44 | 51.39681 | 15.27979 | 107° | 88km/h | 4932m | 1.6m/s | -15.7°C | 0% | 0hPa | 0V | 00:00:00 | 00:00:00 | 00:00:00 | |
| SP6BVK | 2026-09-05 15:49:39 | 51.39727 | 15.27782 | 116° | 88km/h | 4917m | 2.1m/s | -15.6°C | 0% | 0hPa | 0V | 00:00:00 | 00:00:00 | 00:00:00 | |
| 13BRC | 2026-09-05 15:49:29 | 51.39791 | 15.27485 | 108° | 88km/h | 4891m | 2.3m/s | -15.3°C | 0% | 0hPa | 0V | 00:00:00 | 00:00:00 | 00:00:00 | |
| SP3BTT-10 | 2026-09-05 15:49:22 | 51.39844 | 15.27249 | 103° | 88km/h | 4869m | 2.3m/s | 0°C | 0% | 0hPa | 0V | 00:00:00 | 00:00:00 | 00:00:00 | |
| DAC517 | 2026-09-05 15:49:21 | 51.39856 | 15.27184 | 110° | 82km/h | 4867m | 2.4m/s | -15.1°C | 0% | 0hPa | 0V | 00:00:00 | 00:00:00 | 00:00:00 | |
| SP6BVK | 2026-09-05 15:49:18 | 51.39873 | 15.27117 | 111° | 95km/h | 4862m | 3.0m/s | -15.0°C | 0% | 0hPa | 0V | 00:00:00 | 00:00:00 | 00:00:00 | |
| SONDE2-11 | 2026-09-05 15:49:15 | 51.39901 | 15.26981 | 108° | 91km/h | 4851m | 3.7m/s | -14.4°C | -1.0% | -1.0hPa | 0V | 00:00:00 | 00:00:00 | 00:00:00 | |
| EDDB2-12 | 2026-09-05 15:49:08 | 51.39952 | 15.26742 | 110° | 86km/h | 4831m | 2.4m/s | -14.2°C | -1.0% | -1.0hPa | 0V | 00:00:00 | 00:00:00 | 00:00:00 | |
| SP6BVK | 2026-09-05 15:48:57 | 51.40020 | 15.26408 | 108° | 91km/h | 4804m | 2.9m/s | -14.5°C | 0% | 0hPa | 0V | 00:00:00 | 00:00:00 | 00:00:00 | |
| SP3BTT-10 | 2026-09-05 15:48:52 | 51.40055 | 15.26240 | 114° | 88km/h | 4791m | 3.0m/s | 0°C | 0% | 0hPa | 0V | 00:00:00 | 00:00:00 | 00:00:00 | |
| 13BRC | 2026-09-05 15:48:48 | 51.40084 | 15.26106 | 112° | 89km/h | 4780m | 2.8m/s | -14.4°C | 0% | 0hPa | 0V | 00:00:00 | 00:00:00 | 00:00:00 | |
| SP6BVK | 2026-09-05 15:48:37 | 51.40162 | 15.25737 | 112° | 82km/h | 4748m | 2.7m/s | -14.0°C | 0% | 0hPa | 0V | 00:00:00 | 00:00:00 | 00:00:00 | |
| 13BRC | 2026-09-05 15:48:27 | 51.40232 | 15.25403 | 108° | 93km/h | 4720m | 2.8m/s | -13.8°C | 0% | 0hPa | 0V | 00:00:00 | 00:00:00 | 00:00:00 | |
| SP3BTT-10 | 2026-09-05 15:48:21 | 51.40273 | 15.25206 | 109° | 86km/h | 4697m | 3.2m/s | 0°C | 0% | 0hPa | 0V | 00:00:00 | 00:00:00 | 00:00:00 | |
| SP6BVK | 2026-09-05 15:48:17 | 51.40307 | 15.25038 | 109° | 89km/h | 4689m | 2.4m/s | -13.6°C | 0% | 0hPa | 0V | 00:00:00 | 00:00:00 | 00:00:00 | |
| DAC517 | 2026-09-05 15:48:11 | 51.40340 | 15.24873 | 107° | 80km/h | 4674m | 2.4m/s | -13.5°C | 0% | 0hPa | 0V | 00:00:00 | 00:00:00 | 00:00:00 | |
| 13BRC | 2026-09-05 15:48:07 | 51.40367 | 15.24743 | 106° | 80km/h | 4663m | 3.0m/s | -13.4°C | 0% | 0hPa | 0V | 00:00:00 | 00:00:00 | 00:00:00 | |
| EDDB2-12 | 2026-09-05 15:48:06 | 51.40381 | 15.24677 | 110° | 88km/h | 4657m | 2.8m/s | -12.7°C | -1.0% | -1.0hPa | 0V | 00:00:00 | 00:00:00 | 00:00:00 | |
| SP6BVK | 2026-09-05 15:47:56 | 51.40441 | 15.24384 | 107° | 82km/h | 4631m | 2.7m/s | -13.1°C | 0% | 0hPa | 0V | 00:00:00 | 00:00:00 | 00:00:00 | |
| SP3BTT-10 | 2026-09-05 15:47:51 | 51.40475 | 15.24221 | 110° | 86km/h | 4613m | 3.2m/s | 0°C | 0% | 0hPa | 0V | 00:00:00 | 00:00:00 | 00:00:00 | |
| DAC517 | 2026-09-05 15:47:46 | 51.40509 | 15.24058 | 107° | 78km/h | 4601m | 3.0m/s | -12.9°C | 0% | 0hPa | 0V | 00:00:00 | 00:00:00 | 00:00:00 | |
| SP6BVK | 2026-09-05 15:47:36 | 51.40582 | 15.23699 | 110° | 84km/h | 4569m | 3.5m/s | -12.6°C | 0% | 0hPa | 0V | 00:00:00 | 00:00:00 | 00:00:00 | |
| DAC517 | 2026-09-05 15:47:26 | 51.40647 | 15.23407 | 106° | 84km/h | 4543m | 2.3m/s | -12.4°C | 0% | 0hPa | 0V | 00:00:00 | 00:00:00 | 00:00:00 | |
| 13BRC | 2026-09-05 15:47:25 | 51.40653 | 15.23374 | 110° | 86km/h | 4540m | 3.4m/s | -12.4°C | 0% | 0hPa | 0V | 00:00:00 | 00:00:00 | 00:00:00 | |
| SP3BTT-10 | 2026-09-05 15:47:21 | 51.40682 | 15.23243 | 109° | 86km/h | 4526m | 2.7m/s | 0°C | 0% | 0hPa | 0V | 00:00:00 | 00:00:00 | 00:00:00 | |
| SP6BVK | 2026-09-05 15:47:14 | 51.40734 | 15.23015 | 108° | 80km/h | 4508m | 2.4m/s | -12.1°C | 0% | 0hPa | 0V | 00:00:00 | 00:00:00 | 00:00:00 | |
| 13BRC | 2026-09-05 15:47:04 | 51.40812 | 15.22685 | 109° | 84km/h | 4478m | 3.8m/s | -11.9°C | 0% | 0hPa | 0V | 00:00:00 | 00:00:00 | 00:00:00 | |
| DAC517 | 2026-09-05 15:47:03 | 51.40818 | 15.22652 | 107° | 84km/h | 4474m | 2.7m/s | -11.9°C | 0% | 0hPa | 0V | 00:00:00 | 00:00:00 | 00:00:00 | |
| SP6BVK | 2026-09-05 15:46:54 | 51.40889 | 15.22364 | 116° | 86km/h | 4445m | 2.7m/s | -11.7°C | 0% | 0hPa | 0V | 00:00:00 | 00:00:00 | 00:00:00 | |
| SP3BTT-10 | 2026-09-05 15:46:51 | 51.40912 | 15.22268 | 113° | 82km/h | 4432m | 2.6m/s | 0°C | 0% | 0hPa | 0V | 00:00:00 | 00:00:00 | 00:00:00 | |
| 13BRC | 2026-09-05 15:46:44 | 51.40977 | 15.22016 | 114° | 89km/h | 4411m | 3.2m/s | -11.4°C | 0% | 0hPa | 0V | 00:00:00 | 00:00:00 | 00:00:00 | |
| DAC517 | 2026-09-05 15:46:43 | 51.40977 | 15.22016 | 114° | 89km/h | 4411m | 3.2m/s | -11.4°C | 0% | 0hPa | 0V | 00:00:00 | 00:00:00 | 00:00:00 | |
| SP6BVK | 2026-09-05 15:46:33 | 51.41056 | 15.21702 | 108° | 86km/h | 4380m | 2.5m/s | -11.1°C | 0% | 0hPa | 0V | 00:00:00 | 00:00:00 | 00:00:00 | |
| DAC517 | 2026-09-05 15:46:22 | 51.41140 | 15.21358 | 109° | 86km/h | 4346m | 2.8m/s | -10.8°C | 0% | 0hPa | 0V | 00:00:00 | 00:00:00 | 00:00:00 | |
| SP6BVK | 2026-09-05 15:46:13 | 51.41207 | 15.21079 | 115° | 78km/h | 4318m | 3.3m/s | -10.6°C | 0% | 0hPa | 0V | 00:00:00 | 00:00:00 | 00:00:00 | |
| SP3BTT-10 | 2026-09-05 15:46:06 | 51.41258 | 15.20864 | 107° | 80km/h | 4297m | 2.7m/s | 0°C | 0% | 0hPa | 0V | 00:00:00 | 00:00:00 | 00:00:00 | |
| EDDB2-12 | 2026-09-05 15:46:02 | 51.41295 | 15.20712 | 114° | 78km/h | 4284m | 2.4m/s | -9.6°C | -1.0% | -1.0hPa | 0V | 00:00:00 | 00:00:00 | 00:00:00 | |
| SP6BVK | 2026-09-05 15:45:52 | 51.41360 | 15.20439 | 113° | 80km/h | 4259m | 2.6m/s | -10.1°C | 0% | 0hPa | 0V | 00:00:00 | 00:00:00 | 00:00:00 | |
| 13BRC | 2026-09-05 15:45:41 | 51.41435 | 15.20099 | 115° | 78km/h | 4230m | 2.2m/s | -9.8°C | 0% | 0hPa | 0V | 00:00:00 | 00:00:00 | 00:00:00 | |
| DAC517 | 2026-09-05 15:45:33 | 51.41497 | 15.19829 | 108° | 82km/h | 4208m | 2.7m/s | -9.6°C | 0% | 0hPa | 0V | 00:00:00 | 00:00:00 | 00:00:00 | |
| SP6BVK | 2026-09-05 15:45:32 | 51.41497 | 15.19829 | 108° | 82km/h | 4206m | 2.8m/s | -9.5°C | 0% | 0hPa | 0V | 00:00:00 | 00:00:00 | 00:00:00 | |
| SP3BTT-10 | 2026-09-05 15:45:21 | 51.41574 | 15.19495 | 113° | 78km/h | 4177m | 2.7m/s | 0°C | 0% | 0hPa | 0V | 00:00:00 | 00:00:00 | 00:00:00 | |
| DAC517 | 2026-09-05 15:45:13 | 51.41635 | 15.19218 | 113° | 80km/h | 4154m | 2.7m/s | -9.0°C | 0% | 0hPa | 0V | 00:00:00 | 00:00:00 | 00:00:00 | |
| SP6BVK | 2026-09-05 15:45:11 | 51.41643 | 15.19189 | 116° | 77km/h | 4152m | 1.3m/s | -9.0°C | 0% | 0hPa | 0V | 00:00:00 | 00:00:00 | 00:00:00 | |
| SONDE2-11 | 2026-09-05 15:45:06 | 51.41685 | 15.19005 | 103° | 89km/h | 4138m | 2.3m/s | -8.3°C | -1.0% | -1.0hPa | 0V | 00:00:00 | 00:00:00 | 00:00:00 | |
| 13BRC | 2026-09-05 15:45:00 | 51.41719 | 15.18846 | 108° | 86km/h | 4121m | 3.8m/s | -8.9°C | 0% | 0hPa | 0V | 00:00:00 | 00:00:00 | 00:00:00 | |
| SP3BTT-10 | 2026-09-05 15:44:51 | 51.41775 | 15.18591 | 114° | 75km/h | 4087m | 3.0m/s | 0°C | 0% | 0hPa | 0V | 00:00:00 | 00:00:00 | 00:00:00 | |
| 13BRC | 2026-09-05 15:44:40 | 51.41847 | 15.18273 | 111° | 78km/h | 4057m | 2.7m/s | -8.3°C | 0% | 0hPa | 0V | 00:00:00 | 00:00:00 | 00:00:00 | |
| SP6BVK | 2026-09-05 15:44:30 | 51.41908 | 15.17983 | 109° | 73km/h | 4028m | 2.9m/s | -8.2°C | 0% | 0hPa | 0V | 00:00:00 | 00:00:00 | 00:00:00 | |
| DAC517 | 2026-09-05 15:44:29 | 51.41922 | 15.17929 | 111° | 75km/h | 4023m | 2.9m/s | -8.1°C | 0% | 0hPa | 0V | 00:00:00 | 00:00:00 | 00:00:00 | |
| SP3BTT-10 | 2026-09-05 15:44:21 | 51.41966 | 15.17730 | 113° | 75km/h | 4005m | 2.3m/s | 0°C | 0% | 0hPa | 0V | 00:00:00 | 00:00:00 | 00:00:00 | |
| 13BRC | 2026-09-05 15:44:19 | 51.41978 | 15.17672 | 108° | 80km/h | 4000m | 2.3m/s | -8.1°C | 0% | 0hPa | 0V | 00:00:00 | 00:00:00 | 00:00:00 | |
| SP6BVK | 2026-09-05 15:44:10 | 51.42033 | 15.17422 | 113° | 73km/h | 3978m | 2.7m/s | -7.8°C | 0% | 0hPa | 0V | 00:00:00 | 00:00:00 | 00:00:00 | |
| DAC517 | 2026-09-05 15:44:08 | 51.42052 | 15.17339 | 108° | 73km/h | 3969m | 2.9m/s | -7.7°C | 0% | 0hPa | 0V | 00:00:00 | 00:00:00 | 00:00:00 | |
| EDDB2-11 | 2026-09-05 15:44:05 | 51.42079 | 15.17226 | 110° | 71km/h | 3959m | 3.1m/s | -7.0°C | -1.0% | -1.0hPa | 0V | 00:00:00 | 00:00:00 | 00:00:00 | |
| SONDE2-11 | 2026-09-05 15:44:04 | 51.42079 | 15.17226 | 110° | 71km/h | 3959m | 3.1m/s | -7.0°C | -1.0% | -1.0hPa | 0V | 00:00:00 | 00:00:00 | 00:00:00 | |
| 13BRC | 2026-09-05 15:43:59 | 51.42106 | 15.17115 | 115° | 73km/h | 3948m | 3.1m/s | -7.5°C | 0% | 0hPa | 0V | 00:00:00 | 00:00:00 | 00:00:00 | |
| SP6BVK | 2026-09-05 15:43:50 | 51.42176 | 15.16834 | 109° | 77km/h | 3920m | 2.3m/s | -7.4°C | 0% | 0hPa | 0V | 00:00:00 | 00:00:00 | 00:00:00 | |
| DAC517 | 2026-09-05 15:43:45 | 51.42210 | 15.16692 | 109° | 73km/h | 3907m | 2.5m/s | -7.4°C | 0% | 0hPa | 0V | 00:00:00 | 00:00:00 | 00:00:00 | |
| 13BRC | 2026-09-05 15:43:39 | 51.42258 | 15.16529 | 120° | 73km/h | 3890m | 2.6m/s | -7.2°C | 0% | 0hPa | 0V | 00:00:00 | 00:00:00 | 00:00:00 | |
| OK1ALN | 2026-09-05 15:43:30 | 51.42328 | 15.16277 | 111° | 77km/h | 3863m | 2.6m/s | -7.0°C | 0% | 0hPa | 0V | 00:00:00 | 00:00:00 | 00:00:00 | |
| SP6BVK | 2026-09-05 15:43:29 | 51.42328 | 15.16277 | 111° | 77km/h | 3863m | 2.6m/s | -7.0°C | 0% | 0hPa | 0V | 00:00:00 | 00:00:00 | 00:00:00 | |
| SP3BTT-10 | 2026-09-05 15:43:20 | 51.42403 | 15.16030 | 120° | 77km/h | 3837m | 2.7m/s | 0°C | 0% | 0hPa | 0V | 00:00:00 | 00:00:00 | 00:00:00 | |
| 13BRC | 2026-09-05 15:43:17 | 51.42429 | 15.15947 | 119° | 77km/h | 3829m | 2.9m/s | -6.7°C | 0% | 0hPa | 0V | 00:00:00 | 00:00:00 | 00:00:00 | |
| DAC517 | 2026-09-05 15:43:14 | 51.42455 | 15.15863 | 119° | 77km/h | 3822m | 3.2m/s | -6.7°C | 0% | 0hPa | 0V | 00:00:00 | 00:00:00 | 00:00:00 | |
| SP6BVK | 2026-09-05 15:43:08 | 51.42509 | 15.15697 | 115° | 77km/h | 3805m | 2.6m/s | -6.6°C | 0% | 0hPa | 0V | 00:00:00 | 00:00:00 | 00:00:00 | |
| 13BRC | 2026-09-05 15:42:57 | 51.42608 | 15.15391 | 114° | 77km/h | 3776m | 2.5m/s | -6.4°C | 0% | 0hPa | 0V | 00:00:00 | 00:00:00 | 00:00:00 | |
| SP3BTT-10 | 2026-09-05 15:42:50 | 51.42671 | 15.15196 | 113° | 78km/h | 3755m | 2.6m/s | 0°C | 0% | 0hPa | 0V | 00:00:00 | 00:00:00 | 00:00:00 | |
| SP6BVK | 2026-09-05 15:42:48 | 51.42687 | 15.15140 | 115° | 77km/h | 3752m | 2.7m/s | -6.5°C | 0% | 0hPa | 0V | 00:00:00 | 00:00:00 | 00:00:00 | |
| 13BRC | 2026-09-05 15:42:36 | 51.42796 | 15.14804 | 121° | 80km/h | 3719m | 2.9m/s | -6.4°C | 0% | 0hPa | 0V | 00:00:00 | 00:00:00 | 00:00:00 | |
| SP6BVK | 2026-09-05 15:42:28 | 51.42880 | 15.14553 | 116° | 78km/h | 3695m | 2.5m/s | -6.3°C | 0% | 0hPa | 0V | 00:00:00 | 00:00:00 | 00:00:00 | |
| DAC517 | 2026-09-05 15:42:27 | 51.42880 | 15.14553 | 116° | 78km/h | 3695m | 2.5m/s | -6.3°C | 0% | 0hPa | 0V | 00:00:00 | 00:00:00 | 00:00:00 | |
| SP3BTT-10 | 2026-09-05 15:42:20 | 51.42948 | 15.14356 | 115° | 77km/h | 3674m | 2.6m/s | 0°C | 0% | 0hPa | 0V | 00:00:00 | 00:00:00 | 00:00:00 | |
| 13BRC | 2026-09-05 15:42:16 | 51.42988 | 15.14249 | 121° | 77km/h | 3662m | 2.5m/s | -6.0°C | 0% | 0hPa | 0V | 00:00:00 | 00:00:00 | 00:00:00 | |
| SP6BVK | 2026-09-05 15:42:07 | 51.43080 | 15.14004 | 126° | 82km/h | 3637m | 2.4m/s | -5.9°C | 0% | 0hPa | 0V | 00:00:00 | 00:00:00 | 00:00:00 | |
| DAC517 | 2026-09-05 15:41:58 | 51.43184 | 15.13739 | 124° | 77km/h | 3607m | 3.3m/s | -6.1°C | 0% | 0hPa | 0V | 00:00:00 | 00:00:00 | 00:00:00 | |
| 13BRC | 2026-09-05 15:41:55 | 51.43208 | 15.13688 | 124° | 77km/h | 3601m | 3.2m/s | -6.1°C | 0% | 0hPa | 0V | 00:00:00 | 00:00:00 | 00:00:00 | |
| SP3BTT-10 | 2026-09-05 15:41:50 | 51.43258 | 15.13559 | 126° | 71km/h | 3583m | 3.5m/s | 0°C | 0% | 0hPa | 0V | 00:00:00 | 00:00:00 | 00:00:00 | |
| SP6BVK | 2026-09-05 15:41:47 | 51.43299 | 15.13463 | 117° | 75km/h | 3574m | 3.1m/s | -6.1°C | 0% | 0hPa | 0V | 00:00:00 | 00:00:00 | 00:00:00 | |
| 13BRC | 2026-09-05 15:41:35 | 51.43402 | 15.13194 | 115° | 73km/h | 3541m | 2.2m/s | -5.8°C | 0% | 0hPa | 0V | 00:00:00 | 00:00:00 | 00:00:00 | |
| DAC517 | 2026-09-05 15:41:34 | 51.43410 | 15.13169 | 123° | 66km/h | 3538m | 3.2m/s | -5.8°C | 0% | 0hPa | 0V | 00:00:00 | 00:00:00 | 00:00:00 | |
| SP6BVK | 2026-09-05 15:41:25 | 51.43495 | 15.12949 | 126° | 68km/h | 3512m | 3.3m/s | -5.6°C | 0% | 0hPa | 0V | 00:00:00 | 00:00:00 | 00:00:00 | |
| SP3BTT-10 | 2026-09-05 15:41:20 | 51.43539 | 15.12827 | 115° | 68km/h | 3495m | 3.6m/s | 0°C | 0% | 0hPa | 0V | 00:00:00 | 00:00:00 | 00:00:00 | |
| 13BRC | 2026-09-05 15:41:14 | 51.43588 | 15.12681 | 124° | 66km/h | 3477m | 2.8m/s | -5.3°C | 0% | 0hPa | 0V | 00:00:00 | 00:00:00 | 00:00:00 | |
| DAC517 | 2026-09-05 15:41:10 | 51.43630 | 15.12558 | 117° | 71km/h | 3462m | 3.5m/s | -5.2°C | 0% | 0hPa | 0V | 00:00:00 | 00:00:00 | 00:00:00 | |
| SP6BVK | 2026-09-05 15:41:05 | 51.43661 | 15.12462 | 114° | 71km/h | 3450m | 3.2m/s | -5.2°C | 0% | 0hPa | 0V | 00:00:00 | 00:00:00 | 00:00:00 | |
| 13BRC | 2026-09-05 15:40:54 | 51.43747 | 15.12197 | 118° | 68km/h | 3417m | 3.2m/s | -5.1°C | 0% | 0hPa | 0V | 00:00:00 | 00:00:00 | 00:00:00 | |
| DAC517 | 2026-09-05 15:40:48 | 51.43794 | 15.12051 | 123° | 62km/h | 3399m | 3.3m/s | -5.2°C | 0% | 0hPa | 0V | 00:00:00 | 00:00:00 | 00:00:00 | |
| SP6BVK | 2026-09-05 15:40:44 | 51.43827 | 15.11955 | 122° | 66km/h | 3386m | 2.7m/s | -5.2°C | 0% | 0hPa | 0V | 00:00:00 | 00:00:00 | 00:00:00 | |
| SP3BTT-10 | 2026-09-05 15:40:36 | 51.43896 | 15.11761 | 122° | 68km/h | 3358m | 3.4m/s | 0°C | 0% | 0hPa | 0V | 00:00:00 | 00:00:00 | 00:00:00 | |
| 13BRC | 2026-09-05 15:40:33 | 51.43924 | 15.11685 | 122° | 68km/h | 3351m | 3.2m/s | -5.2°C | 0% | 0hPa | 0V | 00:00:00 | 00:00:00 | 00:00:00 | |
| SP6BVK | 2026-09-05 15:40:24 | 51.44006 | 15.11470 | 119° | 71km/h | 3323m | 3.3m/s | -5.1°C | 0% | 0hPa | 0V | 00:00:00 | 00:00:00 | 00:00:00 | |
| 13BRC | 2026-09-05 15:40:13 | 51.44099 | 15.11203 | 119° | 69km/h | 3288m | 3.2m/s | -5.4°C | 0% | 0hPa | 0V | 00:00:00 | 00:00:00 | 00:00:00 | |
| SP3BTT-10 | 2026-09-05 15:40:06 | 51.44153 | 15.11030 | 116° | 68km/h | 3264m | 2.4m/s | 0°C | 0% | 0hPa | 0V | 00:00:00 | 00:00:00 | 00:00:00 | |
| SP6BVK | 2026-09-05 15:40:03 | 51.44177 | 15.10956 | 115° | 64km/h | 3258m | 2.9m/s | -5.7°C | 0% | 0hPa | 0V | 00:00:00 | 00:00:00 | 00:00:00 | |
| 13BRC | 2026-09-05 15:39:53 | 51.44260 | 15.10684 | 120° | 62km/h | 3224m | 2.8m/s | -5.6°C | 0% | 0hPa | 0V | 00:00:00 | 00:00:00 | 00:00:00 | |
| SP6BVK | 2026-09-05 15:39:43 | 51.44322 | 15.10463 | 113° | 71km/h | 3194m | 3.2m/s | -5.3°C | 0% | 0hPa | 0V | 00:00:00 | 00:00:00 | 00:00:00 | |
| DAC517 | 2026-09-05 15:39:40 | 51.44342 | 15.10392 | 117° | 64km/h | 3185m | 3.5m/s | -5.2°C | 0% | 0hPa | 0V | 00:00:00 | 00:00:00 | 00:00:00 | |
| SP3BTT-10 | 2026-09-05 15:39:36 | 51.44369 | 15.10295 | 115° | 66km/h | 3172m | 3.1m/s | 0°C | 0% | 0hPa | 0V | 00:00:00 | 00:00:00 | 00:00:00 | |
| 13BRC | 2026-09-05 15:39:32 | 51.44396 | 15.10197 | 110° | 60km/h | 3158m | 3.7m/s | -5.2°C | 0% | 0hPa | 0V | 00:00:00 | 00:00:00 | 00:00:00 | |
| SP6BVK | 2026-09-05 15:39:22 | 51.44455 | 15.09950 | 112° | 64km/h | 3127m | 2.8m/s | -5.0°C | 0% | 0hPa | 0V | 00:00:00 | 00:00:00 | 00:00:00 | |
| DAC517 | 2026-09-05 15:39:19 | 51.44473 | 15.09878 | 109° | 68km/h | 3118m | 2.6m/s | -4.9°C | 0% | 0hPa | 0V | 00:00:00 | 00:00:00 | 00:00:00 | |
| 13BRC | 2026-09-05 15:39:12 | 51.44520 | 15.09682 | 113° | 62km/h | 3093m | 3.8m/s | -4.7°C | 0% | 0hPa | 0V | 00:00:00 | 00:00:00 | 00:00:00 | |
| SP6BVK | 2026-09-05 15:39:02 | 51.44575 | 15.09460 | 114° | 69km/h | 3063m | 4.0m/s | -4.3°C | 0% | 0hPa | 0V | 00:00:00 | 00:00:00 | 00:00:00 | |
| SP3BTT-10 | 2026-09-05 15:38:51 | 51.44649 | 15.09192 | 113° | 66km/h | 3026m | 2.5m/s | 0°C | 0% | 0hPa | 0V | 00:00:00 | 00:00:00 | 00:00:00 | |
| SP6BVK | 2026-09-05 15:38:41 | 51.44714 | 15.08950 | 113° | 64km/h | 2993m | 3.5m/s | -3.6°C | 0% | 0hPa | 0V | 00:00:00 | 00:00:00 | 00:00:00 | |
| 13BRC | 2026-09-05 15:38:30 | 51.44788 | 15.08684 | 116° | 64km/h | 2956m | 3.5m/s | -3.4°C | 0% | 0hPa | 0V | 00:00:00 | 00:00:00 | 00:00:00 | |
| SP3BTT-10 | 2026-09-05 15:38:21 | 51.44848 | 15.08469 | 114° | 66km/h | 2923m | 3.4m/s | 0°C | 0% | 0hPa | 0V | 00:00:00 | 00:00:00 | 00:00:00 | |
| 13BRC | 2026-09-05 15:38:09 | 51.44930 | 15.08180 | 114° | 69km/h | 2886m | 3.6m/s | -2.8°C | 0% | 0hPa | 0V | 00:00:00 | 00:00:00 | 00:00:00 | |
| SP6BVK | 2026-09-05 15:38:00 | 51.44990 | 15.07960 | 115° | 69km/h | 2855m | 3.8m/s | -2.9°C | 0% | 0hPa | 0V | 00:00:00 | 00:00:00 | 00:00:00 | |
| SP3BTT-10 | 2026-09-05 15:37:51 | 51.45056 | 15.07734 | 116° | 71km/h | 2825m | 2.7m/s | 0°C | 0% | 0hPa | 0V | 00:00:00 | 00:00:00 | 00:00:00 | |
| 13BRC | 2026-09-05 15:37:49 | 51.45069 | 15.07684 | 113° | 68km/h | 2819m | 2.9m/s | -2.7°C | 0% | 0hPa | 0V | 00:00:00 | 00:00:00 | 00:00:00 | |
| SP6BVK | 2026-09-05 15:37:40 | 51.45133 | 15.07446 | 118° | 69km/h | 2792m | 2.6m/s | -2.7°C | 0% | 0hPa | 0V | 00:00:00 | 00:00:00 | 00:00:00 | |
| 13BRC | 2026-09-05 15:37:26 | 51.45228 | 15.07080 | 114° | 69km/h | 2746m | 3.5m/s | -2.4°C | 0% | 0hPa | 0V | 00:00:00 | 00:00:00 | 00:00:00 | |
| SP3BTT-10 | 2026-09-05 15:37:21 | 51.45260 | 15.06941 | 111° | 75km/h | 2726m | 3.1m/s | 0°C | 0% | 0hPa | 0V | 00:00:00 | 00:00:00 | 00:00:00 | |
| SP6BVK | 2026-09-05 15:37:20 | 51.45273 | 15.06887 | 114° | 68km/h | 2724m | 2.7m/s | -2.3°C | 0% | 0hPa | 0V | 00:00:00 | 00:00:00 | 00:00:00 | |
| 13BRC | 2026-09-05 15:37:06 | 51.45358 | 15.06530 | 107° | 78km/h | 2683m | 2.6m/s | -2.0°C | 0% | 0hPa | 0V | 00:00:00 | 00:00:00 | 00:00:00 | |
| SP6BVK | 2026-09-05 15:36:59 | 51.45403 | 15.06332 | 110° | 75km/h | 2663m | 3.1m/s | -1.9°C | 0% | 0hPa | 0V | 00:00:00 | 00:00:00 | 00:00:00 | |
| SP3BTT-10 | 2026-09-05 15:36:51 | 51.45453 | 15.06099 | 113° | 77km/h | 2637m | 2.8m/s | 0°C | 0% | 0hPa | 0V | 00:00:00 | 00:00:00 | 00:00:00 | |
| 13BRC | 2026-09-05 15:36:44 | 51.45499 | 15.05900 | 115° | 77km/h | 2621m | 2.6m/s | -1.6°C | 0% | 0hPa | 0V | 00:00:00 | 00:00:00 | 00:00:00 | |
| SP6BVK | 2026-09-05 15:36:39 | 51.45537 | 15.05726 | 108° | 84km/h | 2603m | 3.4m/s | -1.5°C | 0% | 0hPa | 0V | 00:00:00 | 00:00:00 | 00:00:00 | |
| 13BRC | 2026-09-05 15:36:18 | 51.45674 | 15.05114 | 110° | 68km/h | 2536m | 2.7m/s | -1.0°C | 0% | 0hPa | 0V | 00:00:00 | 00:00:00 | 00:00:00 | |
| SP6BVK | 2026-09-05 15:36:17 | 51.45674 | 15.05114 | 110° | 68km/h | 2536m | 2.7m/s | -1.0°C | 0% | 0hPa | 0V | 00:00:00 | 00:00:00 | 00:00:00 | |
| SP3BTT-10 | 2026-09-05 15:36:05 | 51.45743 | 15.04758 | 106° | 75km/h | 2500m | 3.2m/s | 0°C | 0% | 0hPa | 0V | 00:00:00 | 00:00:00 | 00:00:00 | |
| 13BRC | 2026-09-05 15:35:57 | 51.45786 | 15.04521 | 102° | 80km/h | 2479m | 2.4m/s | -0.7°C | 0% | 0hPa | 0V | 00:00:00 | 00:00:00 | 00:00:00 | |
| 13BRC | 2026-09-05 15:35:36 | 51.45898 | 15.03904 | 111° | 80km/h | 2423m | 2.5m/s | -0.2°C | 0% | 0hPa | 0V | 00:00:00 | 00:00:00 | 00:00:00 | |
| SP3BTT-10 | 2026-09-05 15:35:20 | 51.45973 | 15.03442 | 102° | 71km/h | 2375m | 3.0m/s | 0°C | 0% | 0hPa | 0V | 00:00:00 | 00:00:00 | 00:00:00 | |
| SP6BVK | 2026-09-05 15:35:16 | 51.45992 | 15.03325 | 104° | 77km/h | 2364m | 3.0m/s | 0.4°C | 0% | 0hPa | 0V | 00:00:00 | 00:00:00 | 00:00:00 | |
| EDDB2-12 | 2026-09-05 15:35:10 | 51.46021 | 15.03120 | 105° | 71km/h | 2345m | 3.2m/s | 1.2°C | -1.0% | -1.0hPa | 0V | 00:00:00 | 00:00:00 | 00:00:00 | |
| 13BRC | 2026-09-05 15:34:55 | 51.46088 | 15.02715 | 99° | 71km/h | 2308m | 2.5m/s | 0.7°C | 0% | 0hPa | 0V | 00:00:00 | 00:00:00 | 00:00:00 | |
| DAC517 | 2026-09-05 15:34:40 | 51.46156 | 15.02291 | 100° | 71km/h | 2270m | 2.9m/s | 1.1°C | 0% | 0hPa | 0V | 00:00:00 | 00:00:00 | 00:00:00 | |
| SP3BTT-10 | 2026-09-05 15:34:35 | 51.46177 | 15.02153 | 102° | 69km/h | 2255m | 2.5m/s | 0°C | 0% | 0hPa | 0V | 00:00:00 | 00:00:00 | 00:00:00 | |
| DAC517 | 2026-09-05 15:34:19 | 51.46248 | 15.01717 | 112° | 75km/h | 2216m | 2.3m/s | 1.5°C | 0% | 0hPa | 0V | 00:00:00 | 00:00:00 | 00:00:00 | |
| EDDB2-11 | 2026-09-05 15:34:15 | 51.46276 | 15.01551 | 102° | 68km/h | 2202m | 2.4m/s | 2.2°C | -1.0% | -1.0hPa | 0V | 00:00:00 | 00:00:00 | 00:00:00 | |
| SONDE2-11 | 2026-09-05 15:34:14 | 51.46276 | 15.01551 | 102° | 68km/h | 2202m | 2.4m/s | 2.2°C | -1.0% | -1.0hPa | 0V | 00:00:00 | 00:00:00 | 00:00:00 | |
| EDDB2-12 | 2026-09-05 15:34:08 | 51.46304 | 15.01385 | 101° | 66km/h | 2185m | 2.5m/s | 2.3°C | -1.0% | -1.0hPa | 0V | 00:00:00 | 00:00:00 | 00:00:00 | |
| DAC517 | 2026-09-05 15:33:57 | 51.46357 | 15.01085 | 105° | 64km/h | 2156m | 2.9m/s | 2.0°C | 0% | 0hPa | 0V | 00:00:00 | 00:00:00 | 00:00:00 | |
| SP6BVK | 2026-09-05 15:33:54 | 51.46365 | 15.01030 | 107° | 75km/h | 2150m | 2.6m/s | 2.0°C | 0% | 0hPa | 0V | 00:00:00 | 00:00:00 | 00:00:00 | |
| SP3BTT-10 | 2026-09-05 15:33:51 | 51.46379 | 15.00949 | 108° | 68km/h | 2138m | 2.5m/s | 0°C | 0% | 0hPa | 0V | 00:00:00 | 00:00:00 | 00:00:00 | |
| DAC517 | 2026-09-05 15:33:36 | 51.46451 | 15.00545 | 110° | 75km/h | 2099m | 2.2m/s | 2.4°C | 0% | 0hPa | 0V | 00:00:00 | 00:00:00 | 00:00:00 | |
| SP6BVK | 2026-09-05 15:33:34 | 51.46464 | 15.00467 | 107° | 68km/h | 2091m | 2.4m/s | 2.4°C | 0% | 0hPa | 0V | 00:00:00 | 00:00:00 | 00:00:00 | |
| 13BRC | 2026-09-05 15:33:33 | 51.46464 | 15.00467 | 107° | 68km/h | 2091m | 2.4m/s | 2.4°C | 0% | 0hPa | 0V | 00:00:00 | 00:00:00 | 00:00:00 | |
| SP3BTT-10 | 2026-09-05 15:33:21 | 51.46523 | 15.00152 | 107° | 66km/h | 2057m | 3.1m/s | 0°C | 0% | 0hPa | 0V | 00:00:00 | 00:00:00 | 00:00:00 | |
| DAC517 | 2026-09-05 15:33:16 | 51.46550 | 14.99997 | 105° | 58km/h | 2044m | 1.6m/s | 2.7°C | 0% | 0hPa | 0V | 00:00:00 | 00:00:00 | 00:00:00 | |
| EDDB2-11 | 2026-09-05 15:33:13 | 51.46564 | 14.99919 | 107° | 66km/h | 2036m | 2.7m/s | 3.3°C | -1.0% | -1.0hPa | 0V | 00:00:00 | 00:00:00 | 00:00:00 | |
| SONDE2-11 | 2026-09-05 15:33:12 | 51.46568 | 14.99894 | 104° | 58km/h | 2034m | 2.5m/s | 3.3°C | -1.0% | -1.0hPa | 0V | 00:00:00 | 00:00:00 | 00:00:00 | |
| EDDB2-12 | 2026-09-05 15:33:06 | 51.46601 | 14.99714 | 107° | 64km/h | 2014m | 3.1m/s | 3.5°C | -1.0% | -1.0hPa | 0V | 00:00:00 | 00:00:00 | 00:00:00 | |
| SP6BVK | 2026-09-05 15:32:52 | 51.46656 | 14.99406 | 105° | 64km/h | 1980m | 2.4m/s | 3.0°C | 0% | 0hPa | 0V | 00:00:00 | 00:00:00 | 00:00:00 | |
| 13BRC | 2026-09-05 15:32:52 | 51.46656 | 14.99406 | 105° | 64km/h | 1980m | 2.4m/s | 3.0°C | 0% | 0hPa | 0V | 00:00:00 | 00:00:00 | 00:00:00 | |
| SP3BTT-10 | 2026-09-05 15:32:51 | 51.46661 | 14.99381 | 112° | 68km/h | 1974m | 2.6m/s | 0°C | 0% | 0hPa | 0V | 00:00:00 | 00:00:00 | 00:00:00 | |
| 13BRC | 2026-09-05 15:32:32 | 51.46748 | 14.98882 | 106° | 68km/h | 1928m | 2.3m/s | 3.4°C | 0% | 0hPa | 0V | 00:00:00 | 00:00:00 | 00:00:00 | |
| SP6BVK | 2026-09-05 15:32:32 | 51.46748 | 14.98882 | 106° | 68km/h | 1928m | 2.3m/s | 3.4°C | 0% | 0hPa | 0V | 00:00:00 | 00:00:00 | 00:00:00 | |
| SP6BVK | 2026-09-05 15:32:12 | 51.46841 | 14.98331 | 112° | 68km/h | 1879m | 2.8m/s | 3.8°C | 0% | 0hPa | 0V | 00:00:00 | 00:00:00 | 00:00:00 | |
| 13BRC | 2026-09-05 15:32:09 | 51.46851 | 14.98278 | 101° | 69km/h | 1874m | 2.3m/s | 3.9°C | 0% | 0hPa | 0V | 00:00:00 | 00:00:00 | 00:00:00 | |
| SP3BTT-10 | 2026-09-05 15:32:08 | 51.46855 | 14.98252 | 114° | 66km/h | 1869m | 2.5m/s | 0°C | 0% | 0hPa | 0V | 00:00:00 | 00:00:00 | 00:00:00 | |
| EDDB2-12 | 2026-09-05 15:32:04 | 51.46879 | 14.98121 | 110° | 66km/h | 1860m | 1.2m/s | 4.5°C | -1.0% | -1.0hPa | 0V | 00:00:00 | 00:00:00 | 00:00:00 | |
| SP6BVK | 2026-09-05 15:31:50 | 51.46937 | 14.97777 | 114° | 68km/h | 1829m | 3.3m/s | 3.9°C | 0% | 0hPa | 0V | 00:00:00 | 00:00:00 | 00:00:00 | |
| EDDB2-11 | 2026-09-05 15:31:40 | 51.46985 | 14.97498 | 101° | 68km/h | 1797m | 2.5m/s | 4.8°C | -1.0% | -1.0hPa | 0V | 00:00:00 | 00:00:00 | 00:00:00 | |
| 13BRC | 2026-09-05 15:31:21 | 51.47052 | 14.97018 | 95° | 69km/h | 1743m | 4.6m/s | 5.0°C | 0% | 0hPa | 0V | 00:00:00 | 00:00:00 | 00:00:00 | |
| SONDE2-11 | 2026-09-05 15:31:08 | 51.47105 | 14.96641 | 99° | 78km/h | 1689m | 2.4m/s | 5.9°C | -1.0% | -1.0hPa | 0V | 00:00:00 | 00:00:00 | 00:00:00 | |
| EDDB2-12 | 2026-09-05 15:31:02 | 51.47124 | 14.96486 | 103° | 69km/h | 1670m | 2.6m/s | 6.0°C | -1.0% | -1.0hPa | 0V | 00:00:00 | 00:00:00 | 00:00:00 | |
| 13BRC | 2026-09-05 15:31:00 | 51.47127 | 14.96460 | 94° | 58km/h | 1667m | 4.8m/s | 5.5°C | 0% | 0hPa | 0V | 00:00:00 | 00:00:00 | 00:00:00 | |
| 13BRC | 2026-09-05 15:30:39 | 51.47184 | 14.95939 | 107° | 57km/h | 1605m | 2.6m/s | 6.0°C | 0% | 0hPa | 0V | 00:00:00 | 00:00:00 | 00:00:00 | |
| SONDE2-11 | 2026-09-05 15:30:37 | 51.47189 | 14.95871 | 104° | 42km/h | 1591m | 4.0m/s | 6.6°C | -1.0% | -1.0hPa | 0V | 00:00:00 | 00:00:00 | 00:00:00 | |
| 13BRC | 2026-09-05 15:30:18 | 51.47231 | 14.95405 | 79° | 53km/h | 1540m | 3.2m/s | 6.6°C | 0% | 0hPa | 0V | 00:00:00 | 00:00:00 | 00:00:00 | |
| SONDE2-11 | 2026-09-05 15:30:06 | 51.47247 | 14.95132 | 85° | 57km/h | 1497m | 3.0m/s | 7.5°C | -1.0% | -1.0hPa | 0V | 00:00:00 | 00:00:00 | 00:00:00 | |
| 13BRC | 2026-09-05 15:29:57 | 51.47263 | 14.94948 | 97° | 66km/h | 1475m | 2.0m/s | 7.2°C | 0% | 0hPa | 0V | 00:00:00 | 00:00:00 | 00:00:00 | |
| SONDE2-11 | 2026-09-05 15:29:35 | 51.47338 | 14.94404 | 101° | 47km/h | 1375m | 6.0m/s | 8.6°C | -1.0% | -1.0hPa | 0V | 00:00:00 | 00:00:00 | 00:00:00 | |
| SONDE2-11 | 2026-09-05 15:29:04 | 51.47441 | 14.93772 | 91° | 47km/h | 1234m | 3.4m/s | 10.0°C | -1.0% | -1.0hPa | 0V | 00:00:00 | 00:00:00 | 00:00:00 | |
| SONDE2-11 | 2026-09-05 15:28:33 | 51.47525 | 14.93197 | 112° | 55km/h | 1109m | 2.8m/s | 11.1°C | -1.0% | -1.0hPa | 0V | 00:00:00 | 00:00:00 | 00:00:00 |